<?xml version="1.0" encoding="UTF-8" standalone="no" ?>
<gpx xmlns="http://www.topografix.com/GPX/1/1" xmlns:xsi="http://www.w3.org/2001/XMLSchema-instance" xsi:schemaLocation="http://www.topografix.com/GPX/1/1 http://www.topografix.com/GPX/1/1/gpx.xsd" version="1.1" creator="VisuGPX - https://www.visugpx.com">
  <metadata>
    <name>Rad  Mannhein 4/06  </name>
    <desc><![CDATA[[img][/img]]]></desc>
  </metadata>
  <trk>
    <name><![CDATA[4/06 Avec Mannhei]]></name>
    <trkseg>
      <trkpt lat="47.49362" lon="6.6663">
        <ele>438.581</ele>
        <time>2016-06-04T11:52:04.958Z</time>
      </trkpt>
      <trkpt lat="47.49363" lon="6.6663">
        <ele>438.421</ele>
        <time>2016-06-04T11:52:05.958Z</time>
      </trkpt>
      <trkpt lat="47.49365" lon="6.6663">
        <ele>438.032</ele>
        <time>2016-06-04T11:52:06.958Z</time>
      </trkpt>
      <trkpt lat="47.49368" lon="6.6663">
        <ele>437.636</ele>
        <time>2016-06-04T11:52:07.958Z</time>
      </trkpt>
      <trkpt lat="47.4937" lon="6.6663">
        <ele>437.229</ele>
        <time>2016-06-04T11:52:08.958Z</time>
      </trkpt>
      <trkpt lat="47.49371" lon="6.6663">
        <ele>436.808</ele>
        <time>2016-06-04T11:52:09.958Z</time>
      </trkpt>
      <trkpt lat="47.49372" lon="6.6663">
        <ele>436.37</ele>
        <time>2016-06-04T11:52:10.958Z</time>
      </trkpt>
      <trkpt lat="47.49372" lon="6.66629">
        <ele>435.911</ele>
        <time>2016-06-04T11:52:11.958Z</time>
      </trkpt>
      <trkpt lat="47.49372" lon="6.66629">
        <ele>435.43</ele>
        <time>2016-06-04T11:52:12.958Z</time>
      </trkpt>
      <trkpt lat="47.49372" lon="6.66629">
        <ele>434.926</ele>
        <time>2016-06-04T11:52:13.958Z</time>
      </trkpt>
      <trkpt lat="47.49371" lon="6.66628">
        <ele>434.398</ele>
        <time>2016-06-04T11:52:14.958Z</time>
      </trkpt>
      <trkpt lat="47.49371" lon="6.66628">
        <ele>433.846</ele>
        <time>2016-06-04T11:52:15.958Z</time>
      </trkpt>
      <trkpt lat="47.4937" lon="6.66628">
        <ele>433.27</ele>
        <time>2016-06-04T11:52:16.958Z</time>
      </trkpt>
      <trkpt lat="47.4937" lon="6.66627">
        <ele>432.672</ele>
        <time>2016-06-04T11:52:17.958Z</time>
      </trkpt>
      <trkpt lat="47.49369" lon="6.66627">
        <ele>432.05</ele>
        <time>2016-06-04T11:52:18.958Z</time>
      </trkpt>
      <trkpt lat="47.49368" lon="6.66627">
        <ele>431.407</ele>
        <time>2016-06-04T11:52:19.958Z</time>
      </trkpt>
      <trkpt lat="47.49367" lon="6.66627">
        <ele>430.745</ele>
        <time>2016-06-04T11:52:20.958Z</time>
      </trkpt>
      <trkpt lat="47.49367" lon="6.66627">
        <ele>430.065</ele>
        <time>2016-06-04T11:52:21.958Z</time>
      </trkpt>
      <trkpt lat="47.49366" lon="6.66627">
        <ele>429.367</ele>
        <time>2016-06-04T11:52:22.958Z</time>
      </trkpt>
      <trkpt lat="47.49366" lon="6.66627">
        <ele>428.651</ele>
        <time>2016-06-04T11:52:23.958Z</time>
      </trkpt>
      <trkpt lat="47.49365" lon="6.66627">
        <ele>427.919</ele>
        <time>2016-06-04T11:52:24.958Z</time>
      </trkpt>
      <trkpt lat="47.49365" lon="6.66627">
        <ele>427.17</ele>
        <time>2016-06-04T11:52:25.958Z</time>
      </trkpt>
      <trkpt lat="47.49363" lon="6.66627">
        <ele>426.407</ele>
        <time>2016-06-04T11:52:26.958Z</time>
      </trkpt>
      <trkpt lat="47.49362" lon="6.66627">
        <ele>425.632</ele>
        <time>2016-06-04T11:52:27.958Z</time>
      </trkpt>
      <trkpt lat="47.4936" lon="6.66627">
        <ele>424.849</ele>
        <time>2016-06-04T11:52:28.958Z</time>
      </trkpt>
      <trkpt lat="47.49358" lon="6.66627">
        <ele>424.06</ele>
        <time>2016-06-04T11:52:29.958Z</time>
      </trkpt>
      <trkpt lat="47.49357" lon="6.66627">
        <ele>423.27</ele>
        <time>2016-06-04T11:52:30.958Z</time>
      </trkpt>
      <trkpt lat="47.49356" lon="6.66627">
        <ele>422.481</ele>
        <time>2016-06-04T11:52:31.958Z</time>
      </trkpt>
      <trkpt lat="47.49355" lon="6.66627">
        <ele>421.694</ele>
        <time>2016-06-04T11:52:32.958Z</time>
      </trkpt>
      <trkpt lat="47.49355" lon="6.66627">
        <ele>420.684</ele>
        <time>2016-06-04T11:52:34.417Z</time>
      </trkpt>
      <trkpt lat="47.49355" lon="6.66629">
        <ele>422.043</ele>
        <time>2016-06-04T11:52:35.293Z</time>
      </trkpt>
      <trkpt lat="47.49355" lon="6.66629">
        <ele>422.043</ele>
        <time>2016-06-04T11:52:35.338Z</time>
      </trkpt>
      <trkpt lat="47.49347" lon="6.66631">
        <ele>415.014</ele>
        <time>2016-06-04T11:52:36.261Z</time>
      </trkpt>
      <trkpt lat="47.49346" lon="6.6663">
        <ele>410.295</ele>
        <time>2016-06-04T11:52:37.333Z</time>
      </trkpt>
      <trkpt lat="47.49347" lon="6.66632">
        <ele>409.478</ele>
        <time>2016-06-04T11:52:38.450Z</time>
      </trkpt>
      <trkpt lat="47.49347" lon="6.66634">
        <ele>408.651</ele>
        <time>2016-06-04T11:52:39.458Z</time>
      </trkpt>
      <trkpt lat="47.49347" lon="6.66637">
        <ele>407.614</ele>
        <time>2016-06-04T11:52:40.458Z</time>
      </trkpt>
      <trkpt lat="47.49347" lon="6.66641">
        <ele>407.398</ele>
        <time>2016-06-04T11:52:41.458Z</time>
      </trkpt>
      <trkpt lat="47.49346" lon="6.66645">
        <ele>407.185</ele>
        <time>2016-06-04T11:52:42.458Z</time>
      </trkpt>
      <trkpt lat="47.49344" lon="6.66649">
        <ele>406.98</ele>
        <time>2016-06-04T11:52:43.458Z</time>
      </trkpt>
      <trkpt lat="47.49341" lon="6.66653">
        <ele>406.789</ele>
        <time>2016-06-04T11:52:44.458Z</time>
      </trkpt>
      <trkpt lat="47.49336" lon="6.66656">
        <ele>406.617</ele>
        <time>2016-06-04T11:52:45.458Z</time>
      </trkpt>
      <trkpt lat="47.49329" lon="6.66658">
        <ele>406.467</ele>
        <time>2016-06-04T11:52:46.458Z</time>
      </trkpt>
      <trkpt lat="47.49323" lon="6.66659">
        <ele>406.345</ele>
        <time>2016-06-04T11:52:47.458Z</time>
      </trkpt>
      <trkpt lat="47.49318" lon="6.66657">
        <ele>406.253</ele>
        <time>2016-06-04T11:52:48.458Z</time>
      </trkpt>
      <trkpt lat="47.49315" lon="6.66653">
        <ele>406.196</ele>
        <time>2016-06-04T11:52:49.458Z</time>
      </trkpt>
      <trkpt lat="47.49312" lon="6.66648">
        <ele>406.175</ele>
        <time>2016-06-04T11:52:50.458Z</time>
      </trkpt>
      <trkpt lat="47.4931" lon="6.66645">
        <ele>406.19</ele>
        <time>2016-06-04T11:52:51.458Z</time>
      </trkpt>
      <trkpt lat="47.49308" lon="6.66642">
        <ele>406.238</ele>
        <time>2016-06-04T11:52:52.458Z</time>
      </trkpt>
      <trkpt lat="47.49306" lon="6.66639">
        <ele>406.319</ele>
        <time>2016-06-04T11:52:53.458Z</time>
      </trkpt>
      <trkpt lat="47.49304" lon="6.66637">
        <ele>406.427</ele>
        <time>2016-06-04T11:52:54.458Z</time>
      </trkpt>
      <trkpt lat="47.49301" lon="6.66634">
        <ele>406.562</ele>
        <time>2016-06-04T11:52:55.458Z</time>
      </trkpt>
      <trkpt lat="47.49299" lon="6.66631">
        <ele>406.721</ele>
        <time>2016-06-04T11:52:56.458Z</time>
      </trkpt>
      <trkpt lat="47.49297" lon="6.66629">
        <ele>406.901</ele>
        <time>2016-06-04T11:52:57.458Z</time>
      </trkpt>
      <trkpt lat="47.49294" lon="6.66627">
        <ele>407.099</ele>
        <time>2016-06-04T11:52:58.458Z</time>
      </trkpt>
      <trkpt lat="47.49291" lon="6.66626">
        <ele>407.312</ele>
        <time>2016-06-04T11:52:59.458Z</time>
      </trkpt>
      <trkpt lat="47.49289" lon="6.66624">
        <ele>407.537</ele>
        <time>2016-06-04T11:53:00.458Z</time>
      </trkpt>
      <trkpt lat="47.49286" lon="6.66622">
        <ele>407.77</ele>
        <time>2016-06-04T11:53:01.458Z</time>
      </trkpt>
      <trkpt lat="47.49283" lon="6.6662">
        <ele>408.007</ele>
        <time>2016-06-04T11:53:02.458Z</time>
      </trkpt>
      <trkpt lat="47.4928" lon="6.66619">
        <ele>408.247</ele>
        <time>2016-06-04T11:53:03.458Z</time>
      </trkpt>
      <trkpt lat="47.49276" lon="6.66618">
        <ele>408.487</ele>
        <time>2016-06-04T11:53:04.458Z</time>
      </trkpt>
      <trkpt lat="47.49273" lon="6.66616">
        <ele>408.723</ele>
        <time>2016-06-04T11:53:05.458Z</time>
      </trkpt>
      <trkpt lat="47.4927" lon="6.66614">
        <ele>408.953</ele>
        <time>2016-06-04T11:53:06.458Z</time>
      </trkpt>
      <trkpt lat="47.49268" lon="6.66612">
        <ele>409.171</ele>
        <time>2016-06-04T11:53:07.458Z</time>
      </trkpt>
      <trkpt lat="47.49266" lon="6.66608">
        <ele>409.376</ele>
        <time>2016-06-04T11:53:08.458Z</time>
      </trkpt>
      <trkpt lat="47.49265" lon="6.66605">
        <ele>409.563</ele>
        <time>2016-06-04T11:53:09.458Z</time>
      </trkpt>
      <trkpt lat="47.49263" lon="6.666">
        <ele>409.73</ele>
        <time>2016-06-04T11:53:10.458Z</time>
      </trkpt>
      <trkpt lat="47.49262" lon="6.66596">
        <ele>409.876</ele>
        <time>2016-06-04T11:53:11.458Z</time>
      </trkpt>
      <trkpt lat="47.49262" lon="6.66592">
        <ele>410.001</ele>
        <time>2016-06-04T11:53:12.458Z</time>
      </trkpt>
      <trkpt lat="47.49263" lon="6.66589">
        <ele>410.107</ele>
        <time>2016-06-04T11:53:13.458Z</time>
      </trkpt>
      <trkpt lat="47.49264" lon="6.66586">
        <ele>410.196</ele>
        <time>2016-06-04T11:53:14.458Z</time>
      </trkpt>
      <trkpt lat="47.49265" lon="6.66584">
        <ele>410.274</ele>
        <time>2016-06-04T11:53:15.458Z</time>
      </trkpt>
      <trkpt lat="47.49268" lon="6.66582">
        <ele>410.345</ele>
        <time>2016-06-04T11:53:16.458Z</time>
      </trkpt>
      <trkpt lat="47.4927" lon="6.66581">
        <ele>410.414</ele>
        <time>2016-06-04T11:53:17.458Z</time>
      </trkpt>
      <trkpt lat="47.49273" lon="6.6658">
        <ele>410.485</ele>
        <time>2016-06-04T11:53:18.458Z</time>
      </trkpt>
      <trkpt lat="47.49276" lon="6.6658">
        <ele>410.562</ele>
        <time>2016-06-04T11:53:19.458Z</time>
      </trkpt>
      <trkpt lat="47.49278" lon="6.6658">
        <ele>410.646</ele>
        <time>2016-06-04T11:53:20.458Z</time>
      </trkpt>
      <trkpt lat="47.49281" lon="6.6658">
        <ele>410.736</ele>
        <time>2016-06-04T11:53:21.458Z</time>
      </trkpt>
      <trkpt lat="47.49284" lon="6.66579">
        <ele>410.83</ele>
        <time>2016-06-04T11:53:22.458Z</time>
      </trkpt>
      <trkpt lat="47.49287" lon="6.66578">
        <ele>410.925</ele>
        <time>2016-06-04T11:53:23.458Z</time>
      </trkpt>
      <trkpt lat="47.4929" lon="6.66576">
        <ele>411.018</ele>
        <time>2016-06-04T11:53:24.458Z</time>
      </trkpt>
      <trkpt lat="47.49293" lon="6.66575">
        <ele>411.107</ele>
        <time>2016-06-04T11:53:25.458Z</time>
      </trkpt>
      <trkpt lat="47.49296" lon="6.66573">
        <ele>411.188</ele>
        <time>2016-06-04T11:53:26.458Z</time>
      </trkpt>
      <trkpt lat="47.49299" lon="6.66571">
        <ele>411.259</ele>
        <time>2016-06-04T11:53:27.458Z</time>
      </trkpt>
      <trkpt lat="47.49302" lon="6.66569">
        <ele>411.319</ele>
        <time>2016-06-04T11:53:28.458Z</time>
      </trkpt>
      <trkpt lat="47.49305" lon="6.66567">
        <ele>411.367</ele>
        <time>2016-06-04T11:53:29.458Z</time>
      </trkpt>
      <trkpt lat="47.49308" lon="6.66564">
        <ele>411.402</ele>
        <time>2016-06-04T11:53:30.458Z</time>
      </trkpt>
      <trkpt lat="47.49311" lon="6.66562">
        <ele>411.422</ele>
        <time>2016-06-04T11:53:31.458Z</time>
      </trkpt>
      <trkpt lat="47.49314" lon="6.6656">
        <ele>411.428</ele>
        <time>2016-06-04T11:53:32.458Z</time>
      </trkpt>
      <trkpt lat="47.49317" lon="6.66558">
        <ele>411.419</ele>
        <time>2016-06-04T11:53:33.458Z</time>
      </trkpt>
      <trkpt lat="47.4932" lon="6.66556">
        <ele>411.395</ele>
        <time>2016-06-04T11:53:34.458Z</time>
      </trkpt>
      <trkpt lat="47.49323" lon="6.66554">
        <ele>411.356</ele>
        <time>2016-06-04T11:53:35.458Z</time>
      </trkpt>
      <trkpt lat="47.49325" lon="6.66553">
        <ele>411.3</ele>
        <time>2016-06-04T11:53:36.458Z</time>
      </trkpt>
      <trkpt lat="47.49327" lon="6.66552">
        <ele>411.227</ele>
        <time>2016-06-04T11:53:37.458Z</time>
      </trkpt>
      <trkpt lat="47.49329" lon="6.66553">
        <ele>411.136</ele>
        <time>2016-06-04T11:53:38.458Z</time>
      </trkpt>
      <trkpt lat="47.4933" lon="6.66554">
        <ele>411.027</ele>
        <time>2016-06-04T11:53:39.458Z</time>
      </trkpt>
      <trkpt lat="47.49331" lon="6.66556">
        <ele>410.898</ele>
        <time>2016-06-04T11:53:40.458Z</time>
      </trkpt>
      <trkpt lat="47.49333" lon="6.66559">
        <ele>410.753</ele>
        <time>2016-06-04T11:53:41.458Z</time>
      </trkpt>
      <trkpt lat="47.49334" lon="6.66563">
        <ele>410.595</ele>
        <time>2016-06-04T11:53:42.458Z</time>
      </trkpt>
      <trkpt lat="47.49334" lon="6.66567">
        <ele>410.428</ele>
        <time>2016-06-04T11:53:43.458Z</time>
      </trkpt>
      <trkpt lat="47.49335" lon="6.66571">
        <ele>410.254</ele>
        <time>2016-06-04T11:53:44.458Z</time>
      </trkpt>
      <trkpt lat="47.49336" lon="6.66575">
        <ele>410.076</ele>
        <time>2016-06-04T11:53:45.458Z</time>
      </trkpt>
      <trkpt lat="47.49337" lon="6.6658">
        <ele>409.896</ele>
        <time>2016-06-04T11:53:46.458Z</time>
      </trkpt>
      <trkpt lat="47.49337" lon="6.66584">
        <ele>409.713</ele>
        <time>2016-06-04T11:53:47.458Z</time>
      </trkpt>
      <trkpt lat="47.49338" lon="6.66588">
        <ele>409.527</ele>
        <time>2016-06-04T11:53:48.458Z</time>
      </trkpt>
      <trkpt lat="47.49339" lon="6.66592">
        <ele>409.332</ele>
        <time>2016-06-04T11:53:49.458Z</time>
      </trkpt>
      <trkpt lat="47.4934" lon="6.66595">
        <ele>409.124</ele>
        <time>2016-06-04T11:53:50.458Z</time>
      </trkpt>
      <trkpt lat="47.49341" lon="6.66598">
        <ele>408.897</ele>
        <time>2016-06-04T11:53:51.458Z</time>
      </trkpt>
      <trkpt lat="47.49342" lon="6.666">
        <ele>408.649</ele>
        <time>2016-06-04T11:53:52.458Z</time>
      </trkpt>
      <trkpt lat="47.49343" lon="6.66603">
        <ele>408.377</ele>
        <time>2016-06-04T11:53:53.458Z</time>
      </trkpt>
      <trkpt lat="47.49343" lon="6.66606">
        <ele>408.081</ele>
        <time>2016-06-04T11:53:54.458Z</time>
      </trkpt>
      <trkpt lat="47.49344" lon="6.6661">
        <ele>407.762</ele>
        <time>2016-06-04T11:53:55.458Z</time>
      </trkpt>
      <trkpt lat="47.49343" lon="6.66614">
        <ele>407.425</ele>
        <time>2016-06-04T11:53:56.458Z</time>
      </trkpt>
      <trkpt lat="47.49342" lon="6.66617">
        <ele>407.075</ele>
        <time>2016-06-04T11:53:57.458Z</time>
      </trkpt>
      <trkpt lat="47.4934" lon="6.66619">
        <ele>406.72</ele>
        <time>2016-06-04T11:53:58.458Z</time>
      </trkpt>
      <trkpt lat="47.49338" lon="6.66621">
        <ele>406.367</ele>
        <time>2016-06-04T11:53:59.458Z</time>
      </trkpt>
      <trkpt lat="47.49336" lon="6.66623">
        <ele>406.025</ele>
        <time>2016-06-04T11:54:00.458Z</time>
      </trkpt>
      <trkpt lat="47.49334" lon="6.66624">
        <ele>405.701</ele>
        <time>2016-06-04T11:54:01.458Z</time>
      </trkpt>
      <trkpt lat="47.49333" lon="6.66626">
        <ele>405.401</ele>
        <time>2016-06-04T11:54:02.458Z</time>
      </trkpt>
      <trkpt lat="47.49333" lon="6.66627">
        <ele>405.129</ele>
        <time>2016-06-04T11:54:03.458Z</time>
      </trkpt>
      <trkpt lat="47.49333" lon="6.66629">
        <ele>404.89</ele>
        <time>2016-06-04T11:54:04.458Z</time>
      </trkpt>
      <trkpt lat="47.49333" lon="6.6663">
        <ele>404.685</ele>
        <time>2016-06-04T11:54:05.458Z</time>
      </trkpt>
      <trkpt lat="47.49334" lon="6.66631">
        <ele>404.516</ele>
        <time>2016-06-04T11:54:06.458Z</time>
      </trkpt>
      <trkpt lat="47.49334" lon="6.66631">
        <ele>404.382</ele>
        <time>2016-06-04T11:54:07.458Z</time>
      </trkpt>
      <trkpt lat="47.49334" lon="6.66632">
        <ele>404.284</ele>
        <time>2016-06-04T11:54:08.458Z</time>
      </trkpt>
      <trkpt lat="47.49334" lon="6.66632">
        <ele>404.219</ele>
        <time>2016-06-04T11:54:09.458Z</time>
      </trkpt>
      <trkpt lat="47.49334" lon="6.66632">
        <ele>404.188</ele>
        <time>2016-06-04T11:54:10.458Z</time>
      </trkpt>
      <trkpt lat="47.49335" lon="6.66632">
        <ele>404.188</ele>
        <time>2016-06-04T11:54:11.458Z</time>
      </trkpt>
      <trkpt lat="47.49335" lon="6.66632">
        <ele>404.217</ele>
        <time>2016-06-04T11:54:12.458Z</time>
      </trkpt>
      <trkpt lat="47.49335" lon="6.66632">
        <ele>404.273</ele>
        <time>2016-06-04T11:54:13.458Z</time>
      </trkpt>
      <trkpt lat="47.49335" lon="6.66632">
        <ele>404.353</ele>
        <time>2016-06-04T11:54:14.458Z</time>
      </trkpt>
      <trkpt lat="47.49335" lon="6.66632">
        <ele>404.455</ele>
        <time>2016-06-04T11:54:15.458Z</time>
      </trkpt>
      <trkpt lat="47.49336" lon="6.66632">
        <ele>404.574</ele>
        <time>2016-06-04T11:54:16.458Z</time>
      </trkpt>
      <trkpt lat="47.49336" lon="6.66632">
        <ele>404.708</ele>
        <time>2016-06-04T11:54:17.458Z</time>
      </trkpt>
      <trkpt lat="47.49336" lon="6.66632">
        <ele>404.85</ele>
        <time>2016-06-04T11:54:18.458Z</time>
      </trkpt>
      <trkpt lat="47.49336" lon="6.66632">
        <ele>404.997</ele>
        <time>2016-06-04T11:54:19.458Z</time>
      </trkpt>
      <trkpt lat="47.49336" lon="6.66631">
        <ele>405.144</ele>
        <time>2016-06-04T11:54:20.458Z</time>
      </trkpt>
      <trkpt lat="47.49336" lon="6.66631">
        <ele>405.288</ele>
        <time>2016-06-04T11:54:21.458Z</time>
      </trkpt>
      <trkpt lat="47.49336" lon="6.66631">
        <ele>405.426</ele>
        <time>2016-06-04T11:54:22.458Z</time>
      </trkpt>
      <trkpt lat="47.49337" lon="6.66631">
        <ele>405.555</ele>
        <time>2016-06-04T11:54:23.458Z</time>
      </trkpt>
      <trkpt lat="47.49337" lon="6.66631">
        <ele>405.676</ele>
        <time>2016-06-04T11:54:24.458Z</time>
      </trkpt>
      <trkpt lat="47.49337" lon="6.6663">
        <ele>405.785</ele>
        <time>2016-06-04T11:54:25.458Z</time>
      </trkpt>
      <trkpt lat="47.49337" lon="6.66631">
        <ele>405.884</ele>
        <time>2016-06-04T11:54:26.458Z</time>
      </trkpt>
      <trkpt lat="47.49337" lon="6.66631">
        <ele>405.971</ele>
        <time>2016-06-04T11:54:27.458Z</time>
      </trkpt>
      <trkpt lat="47.49337" lon="6.66631">
        <ele>406.048</ele>
        <time>2016-06-04T11:54:28.458Z</time>
      </trkpt>
      <trkpt lat="47.49337" lon="6.66631">
        <ele>406.114</ele>
        <time>2016-06-04T11:54:29.458Z</time>
      </trkpt>
      <trkpt lat="47.49337" lon="6.66631">
        <ele>406.171</ele>
        <time>2016-06-04T11:54:30.458Z</time>
      </trkpt>
      <trkpt lat="47.49337" lon="6.66631">
        <ele>406.219</ele>
        <time>2016-06-04T11:54:31.458Z</time>
      </trkpt>
      <trkpt lat="47.49337" lon="6.66631">
        <ele>406.259</ele>
        <time>2016-06-04T11:54:32.458Z</time>
      </trkpt>
      <trkpt lat="47.49337" lon="6.66631">
        <ele>406.292</ele>
        <time>2016-06-04T11:54:33.458Z</time>
      </trkpt>
      <trkpt lat="47.49337" lon="6.66631">
        <ele>406.319</ele>
        <time>2016-06-04T11:54:34.458Z</time>
      </trkpt>
      <trkpt lat="47.49337" lon="6.66631">
        <ele>406.341</ele>
        <time>2016-06-04T11:54:35.458Z</time>
      </trkpt>
      <trkpt lat="47.49337" lon="6.66631">
        <ele>406.358</ele>
        <time>2016-06-04T11:54:36.458Z</time>
      </trkpt>
      <trkpt lat="47.49337" lon="6.66631">
        <ele>406.371</ele>
        <time>2016-06-04T11:54:37.458Z</time>
      </trkpt>
      <trkpt lat="47.49337" lon="6.66631">
        <ele>406.381</ele>
        <time>2016-06-04T11:54:38.458Z</time>
      </trkpt>
      <trkpt lat="47.49337" lon="6.66631">
        <ele>406.388</ele>
        <time>2016-06-04T11:54:39.458Z</time>
      </trkpt>
      <trkpt lat="47.49337" lon="6.66631">
        <ele>406.394</ele>
        <time>2016-06-04T11:54:40.458Z</time>
      </trkpt>
      <trkpt lat="47.49337" lon="6.66631">
        <ele>406.397</ele>
        <time>2016-06-04T11:54:41.458Z</time>
      </trkpt>
      <trkpt lat="47.49337" lon="6.66631">
        <ele>406.4</ele>
        <time>2016-06-04T11:54:42.458Z</time>
      </trkpt>
      <trkpt lat="47.49337" lon="6.66631">
        <ele>406.401</ele>
        <time>2016-06-04T11:54:43.458Z</time>
      </trkpt>
      <trkpt lat="47.49337" lon="6.66631">
        <ele>406.402</ele>
        <time>2016-06-04T11:54:44.458Z</time>
      </trkpt>
      <trkpt lat="47.49337" lon="6.66631">
        <ele>406.403</ele>
        <time>2016-06-04T11:54:45.458Z</time>
      </trkpt>
      <trkpt lat="47.49337" lon="6.66631">
        <ele>406.403</ele>
        <time>2016-06-04T11:54:46.458Z</time>
      </trkpt>
      <trkpt lat="47.49337" lon="6.66631">
        <ele>406.404</ele>
        <time>2016-06-04T11:54:47.458Z</time>
      </trkpt>
      <trkpt lat="47.49337" lon="6.66631">
        <ele>406.405</ele>
        <time>2016-06-04T11:54:48.458Z</time>
      </trkpt>
      <trkpt lat="47.49337" lon="6.66631">
        <ele>406.406</ele>
        <time>2016-06-04T11:54:49.458Z</time>
      </trkpt>
      <trkpt lat="47.49337" lon="6.66631">
        <ele>406.408</ele>
        <time>2016-06-04T11:54:50.458Z</time>
      </trkpt>
      <trkpt lat="47.49337" lon="6.66631">
        <ele>406.409</ele>
        <time>2016-06-04T11:54:51.458Z</time>
      </trkpt>
      <trkpt lat="47.49337" lon="6.66631">
        <ele>406.411</ele>
        <time>2016-06-04T11:54:52.458Z</time>
      </trkpt>
      <trkpt lat="47.49337" lon="6.66631">
        <ele>406.413</ele>
        <time>2016-06-04T11:54:53.458Z</time>
      </trkpt>
      <trkpt lat="47.49337" lon="6.66631">
        <ele>406.416</ele>
        <time>2016-06-04T11:54:54.458Z</time>
      </trkpt>
      <trkpt lat="47.49337" lon="6.66631">
        <ele>406.418</ele>
        <time>2016-06-04T11:54:55.458Z</time>
      </trkpt>
      <trkpt lat="47.49337" lon="6.66631">
        <ele>406.42</ele>
        <time>2016-06-04T11:54:56.458Z</time>
      </trkpt>
      <trkpt lat="47.49337" lon="6.66631">
        <ele>406.422</ele>
        <time>2016-06-04T11:54:57.458Z</time>
      </trkpt>
      <trkpt lat="47.49337" lon="6.66631">
        <ele>406.424</ele>
        <time>2016-06-04T11:54:58.458Z</time>
      </trkpt>
      <trkpt lat="47.49337" lon="6.66631">
        <ele>406.425</ele>
        <time>2016-06-04T11:54:59.458Z</time>
      </trkpt>
      <trkpt lat="47.49337" lon="6.66631">
        <ele>406.426</ele>
        <time>2016-06-04T11:55:00.458Z</time>
      </trkpt>
      <trkpt lat="47.49337" lon="6.6663">
        <ele>406.426</ele>
        <time>2016-06-04T11:55:01.458Z</time>
      </trkpt>
      <trkpt lat="47.49337" lon="6.6663">
        <ele>406.426</ele>
        <time>2016-06-04T11:55:02.458Z</time>
      </trkpt>
      <trkpt lat="47.49337" lon="6.6663">
        <ele>406.424</ele>
        <time>2016-06-04T11:55:03.458Z</time>
      </trkpt>
      <trkpt lat="47.49337" lon="6.6663">
        <ele>406.422</ele>
        <time>2016-06-04T11:55:04.458Z</time>
      </trkpt>
      <trkpt lat="47.49337" lon="6.6663">
        <ele>406.419</ele>
        <time>2016-06-04T11:55:05.458Z</time>
      </trkpt>
      <trkpt lat="47.49337" lon="6.6663">
        <ele>406.414</ele>
        <time>2016-06-04T11:55:06.458Z</time>
      </trkpt>
      <trkpt lat="47.49337" lon="6.6663">
        <ele>406.409</ele>
        <time>2016-06-04T11:55:07.458Z</time>
      </trkpt>
      <trkpt lat="47.49337" lon="6.6663">
        <ele>406.402</ele>
        <time>2016-06-04T11:55:08.458Z</time>
      </trkpt>
      <trkpt lat="47.49337" lon="6.6663">
        <ele>406.394</ele>
        <time>2016-06-04T11:55:09.458Z</time>
      </trkpt>
      <trkpt lat="47.49337" lon="6.6663">
        <ele>406.385</ele>
        <time>2016-06-04T11:55:10.458Z</time>
      </trkpt>
      <trkpt lat="47.49337" lon="6.6663">
        <ele>406.375</ele>
        <time>2016-06-04T11:55:11.458Z</time>
      </trkpt>
      <trkpt lat="47.49337" lon="6.6663">
        <ele>406.364</ele>
        <time>2016-06-04T11:55:12.458Z</time>
      </trkpt>
      <trkpt lat="47.49337" lon="6.6663">
        <ele>406.352</ele>
        <time>2016-06-04T11:55:13.458Z</time>
      </trkpt>
      <trkpt lat="47.49337" lon="6.6663">
        <ele>406.34</ele>
        <time>2016-06-04T11:55:14.458Z</time>
      </trkpt>
      <trkpt lat="47.49337" lon="6.6663">
        <ele>406.328</ele>
        <time>2016-06-04T11:55:15.458Z</time>
      </trkpt>
      <trkpt lat="47.49337" lon="6.6663">
        <ele>406.317</ele>
        <time>2016-06-04T11:55:16.458Z</time>
      </trkpt>
      <trkpt lat="47.49337" lon="6.6663">
        <ele>406.306</ele>
        <time>2016-06-04T11:55:17.458Z</time>
      </trkpt>
      <trkpt lat="47.49337" lon="6.6663">
        <ele>406.297</ele>
        <time>2016-06-04T11:55:18.458Z</time>
      </trkpt>
      <trkpt lat="47.49337" lon="6.6663">
        <ele>406.29</ele>
        <time>2016-06-04T11:55:19.458Z</time>
      </trkpt>
      <trkpt lat="47.49337" lon="6.6663">
        <ele>406.286</ele>
        <time>2016-06-04T11:55:20.458Z</time>
      </trkpt>
      <trkpt lat="47.49337" lon="6.6663">
        <ele>406.286</ele>
        <time>2016-06-04T11:55:21.458Z</time>
      </trkpt>
      <trkpt lat="47.49337" lon="6.6663">
        <ele>406.29</ele>
        <time>2016-06-04T11:55:22.458Z</time>
      </trkpt>
      <trkpt lat="47.49337" lon="6.6663">
        <ele>406.301</ele>
        <time>2016-06-04T11:55:23.458Z</time>
      </trkpt>
      <trkpt lat="47.49337" lon="6.6663">
        <ele>406.319</ele>
        <time>2016-06-04T11:55:24.458Z</time>
      </trkpt>
      <trkpt lat="47.49337" lon="6.6663">
        <ele>406.345</ele>
        <time>2016-06-04T11:55:25.458Z</time>
      </trkpt>
      <trkpt lat="47.49337" lon="6.6663">
        <ele>406.381</ele>
        <time>2016-06-04T11:55:26.458Z</time>
      </trkpt>
      <trkpt lat="47.49337" lon="6.6663">
        <ele>406.429</ele>
        <time>2016-06-04T11:55:27.458Z</time>
      </trkpt>
      <trkpt lat="47.49337" lon="6.6663">
        <ele>406.491</ele>
        <time>2016-06-04T11:55:28.458Z</time>
      </trkpt>
      <trkpt lat="47.49337" lon="6.6663">
        <ele>406.568</ele>
        <time>2016-06-04T11:55:29.458Z</time>
      </trkpt>
      <trkpt lat="47.49338" lon="6.6663">
        <ele>406.663</ele>
        <time>2016-06-04T11:55:30.458Z</time>
      </trkpt>
      <trkpt lat="47.49338" lon="6.6663">
        <ele>406.778</ele>
        <time>2016-06-04T11:55:31.458Z</time>
      </trkpt>
      <trkpt lat="47.49338" lon="6.6663">
        <ele>406.914</ele>
        <time>2016-06-04T11:55:32.458Z</time>
      </trkpt>
      <trkpt lat="47.49337" lon="6.6663">
        <ele>407.073</ele>
        <time>2016-06-04T11:55:33.458Z</time>
      </trkpt>
      <trkpt lat="47.49337" lon="6.6663">
        <ele>407.256</ele>
        <time>2016-06-04T11:55:34.458Z</time>
      </trkpt>
      <trkpt lat="47.49338" lon="6.6663">
        <ele>407.465</ele>
        <time>2016-06-04T11:55:35.458Z</time>
      </trkpt>
      <trkpt lat="47.49338" lon="6.6663">
        <ele>407.698</ele>
        <time>2016-06-04T11:55:36.458Z</time>
      </trkpt>
      <trkpt lat="47.49338" lon="6.6663">
        <ele>407.956</ele>
        <time>2016-06-04T11:55:37.458Z</time>
      </trkpt>
      <trkpt lat="47.49338" lon="6.6663">
        <ele>408.237</ele>
        <time>2016-06-04T11:55:38.458Z</time>
      </trkpt>
      <trkpt lat="47.49338" lon="6.6663">
        <ele>408.54</ele>
        <time>2016-06-04T11:55:39.458Z</time>
      </trkpt>
      <trkpt lat="47.49339" lon="6.66629">
        <ele>408.863</ele>
        <time>2016-06-04T11:55:40.458Z</time>
      </trkpt>
      <trkpt lat="47.49339" lon="6.66629">
        <ele>409.205</ele>
        <time>2016-06-04T11:55:41.458Z</time>
      </trkpt>
      <trkpt lat="47.49339" lon="6.66629">
        <ele>409.564</ele>
        <time>2016-06-04T11:55:42.458Z</time>
      </trkpt>
      <trkpt lat="47.4934" lon="6.66629">
        <ele>409.937</ele>
        <time>2016-06-04T11:55:43.458Z</time>
      </trkpt>
      <trkpt lat="47.4934" lon="6.66628">
        <ele>410.323</ele>
        <time>2016-06-04T11:55:44.458Z</time>
      </trkpt>
      <trkpt lat="47.4934" lon="6.66628">
        <ele>410.719</ele>
        <time>2016-06-04T11:55:45.458Z</time>
      </trkpt>
      <trkpt lat="47.49341" lon="6.66628">
        <ele>411.122</ele>
        <time>2016-06-04T11:55:46.458Z</time>
      </trkpt>
      <trkpt lat="47.49341" lon="6.66628">
        <ele>411.528</ele>
        <time>2016-06-04T11:55:47.458Z</time>
      </trkpt>
      <trkpt lat="47.49341" lon="6.66627">
        <ele>411.931</ele>
        <time>2016-06-04T11:55:48.458Z</time>
      </trkpt>
      <trkpt lat="47.49341" lon="6.66627">
        <ele>412.326</ele>
        <time>2016-06-04T11:55:49.458Z</time>
      </trkpt>
      <trkpt lat="47.49342" lon="6.66627">
        <ele>412.708</ele>
        <time>2016-06-04T11:55:50.458Z</time>
      </trkpt>
      <trkpt lat="47.49342" lon="6.66626">
        <ele>413.072</ele>
        <time>2016-06-04T11:55:51.458Z</time>
      </trkpt>
      <trkpt lat="47.49342" lon="6.66626">
        <ele>413.413</ele>
        <time>2016-06-04T11:55:52.458Z</time>
      </trkpt>
      <trkpt lat="47.49342" lon="6.66626">
        <ele>413.728</ele>
        <time>2016-06-04T11:55:53.458Z</time>
      </trkpt>
      <trkpt lat="47.49343" lon="6.66626">
        <ele>414.014</ele>
        <time>2016-06-04T11:55:54.458Z</time>
      </trkpt>
      <trkpt lat="47.49343" lon="6.66626">
        <ele>414.269</ele>
        <time>2016-06-04T11:55:55.458Z</time>
      </trkpt>
      <trkpt lat="47.49343" lon="6.66626">
        <ele>414.494</ele>
        <time>2016-06-04T11:55:56.458Z</time>
      </trkpt>
      <trkpt lat="47.49344" lon="6.66626">
        <ele>414.687</ele>
        <time>2016-06-04T11:55:57.458Z</time>
      </trkpt>
      <trkpt lat="47.49344" lon="6.66626">
        <ele>414.85</ele>
        <time>2016-06-04T11:55:58.458Z</time>
      </trkpt>
      <trkpt lat="47.49344" lon="6.66626">
        <ele>414.986</ele>
        <time>2016-06-04T11:55:59.458Z</time>
      </trkpt>
      <trkpt lat="47.49344" lon="6.66626">
        <ele>415.095</ele>
        <time>2016-06-04T11:56:00.458Z</time>
      </trkpt>
      <trkpt lat="47.49344" lon="6.66626">
        <ele>415.181</ele>
        <time>2016-06-04T11:56:01.458Z</time>
      </trkpt>
      <trkpt lat="47.49344" lon="6.66626">
        <ele>415.246</ele>
        <time>2016-06-04T11:56:02.458Z</time>
      </trkpt>
      <trkpt lat="47.49344" lon="6.66626">
        <ele>415.293</ele>
        <time>2016-06-04T11:56:03.458Z</time>
      </trkpt>
      <trkpt lat="47.49344" lon="6.66626">
        <ele>415.324</ele>
        <time>2016-06-04T11:56:04.458Z</time>
      </trkpt>
      <trkpt lat="47.49344" lon="6.66626">
        <ele>415.341</ele>
        <time>2016-06-04T11:56:05.458Z</time>
      </trkpt>
      <trkpt lat="47.49344" lon="6.66626">
        <ele>415.348</ele>
        <time>2016-06-04T11:56:06.458Z</time>
      </trkpt>
      <trkpt lat="47.49344" lon="6.66626">
        <ele>415.345</ele>
        <time>2016-06-04T11:56:07.458Z</time>
      </trkpt>
      <trkpt lat="47.49344" lon="6.66626">
        <ele>415.335</ele>
        <time>2016-06-04T11:56:08.458Z</time>
      </trkpt>
      <trkpt lat="47.49344" lon="6.66626">
        <ele>415.32</ele>
        <time>2016-06-04T11:56:09.458Z</time>
      </trkpt>
      <trkpt lat="47.49344" lon="6.66626">
        <ele>415.301</ele>
        <time>2016-06-04T11:56:10.458Z</time>
      </trkpt>
      <trkpt lat="47.49344" lon="6.66626">
        <ele>415.281</ele>
        <time>2016-06-04T11:56:11.458Z</time>
      </trkpt>
      <trkpt lat="47.49344" lon="6.66626">
        <ele>415.26</ele>
        <time>2016-06-04T11:56:12.458Z</time>
      </trkpt>
      <trkpt lat="47.49344" lon="6.66626">
        <ele>415.241</ele>
        <time>2016-06-04T11:56:13.458Z</time>
      </trkpt>
      <trkpt lat="47.49344" lon="6.66626">
        <ele>415.224</ele>
        <time>2016-06-04T11:56:14.458Z</time>
      </trkpt>
      <trkpt lat="47.49344" lon="6.66627">
        <ele>415.212</ele>
        <time>2016-06-04T11:56:15.458Z</time>
      </trkpt>
      <trkpt lat="47.49344" lon="6.66627">
        <ele>415.204</ele>
        <time>2016-06-04T11:56:16.458Z</time>
      </trkpt>
      <trkpt lat="47.49344" lon="6.66626">
        <ele>415.204</ele>
        <time>2016-06-04T11:56:17.458Z</time>
      </trkpt>
      <trkpt lat="47.49343" lon="6.66626">
        <ele>415.212</ele>
        <time>2016-06-04T11:56:18.458Z</time>
      </trkpt>
      <trkpt lat="47.49344" lon="6.66626">
        <ele>415.228</ele>
        <time>2016-06-04T11:56:19.458Z</time>
      </trkpt>
      <trkpt lat="47.49344" lon="6.66627">
        <ele>415.255</ele>
        <time>2016-06-04T11:56:20.458Z</time>
      </trkpt>
      <trkpt lat="47.49344" lon="6.66627">
        <ele>415.291</ele>
        <time>2016-06-04T11:56:21.458Z</time>
      </trkpt>
      <trkpt lat="47.49344" lon="6.66627">
        <ele>415.336</ele>
        <time>2016-06-04T11:56:22.458Z</time>
      </trkpt>
      <trkpt lat="47.49344" lon="6.66627">
        <ele>415.387</ele>
        <time>2016-06-04T11:56:23.458Z</time>
      </trkpt>
      <trkpt lat="47.49344" lon="6.66627">
        <ele>415.444</ele>
        <time>2016-06-04T11:56:24.458Z</time>
      </trkpt>
      <trkpt lat="47.49344" lon="6.66627">
        <ele>415.504</ele>
        <time>2016-06-04T11:56:25.458Z</time>
      </trkpt>
      <trkpt lat="47.49344" lon="6.66627">
        <ele>415.565</ele>
        <time>2016-06-04T11:56:26.458Z</time>
      </trkpt>
      <trkpt lat="47.49344" lon="6.66627">
        <ele>415.626</ele>
        <time>2016-06-04T11:56:27.458Z</time>
      </trkpt>
      <trkpt lat="47.49344" lon="6.66627">
        <ele>415.687</ele>
        <time>2016-06-04T11:56:28.458Z</time>
      </trkpt>
      <trkpt lat="47.49344" lon="6.66627">
        <ele>415.745</ele>
        <time>2016-06-04T11:56:29.458Z</time>
      </trkpt>
      <trkpt lat="47.49344" lon="6.66627">
        <ele>415.802</ele>
        <time>2016-06-04T11:56:30.458Z</time>
      </trkpt>
      <trkpt lat="47.49344" lon="6.66627">
        <ele>415.855</ele>
        <time>2016-06-04T11:56:31.458Z</time>
      </trkpt>
      <trkpt lat="47.49344" lon="6.66626">
        <ele>415.905</ele>
        <time>2016-06-04T11:56:32.458Z</time>
      </trkpt>
      <trkpt lat="47.49345" lon="6.66626">
        <ele>415.95</ele>
        <time>2016-06-04T11:56:33.458Z</time>
      </trkpt>
      <trkpt lat="47.49345" lon="6.66626">
        <ele>415.992</ele>
        <time>2016-06-04T11:56:34.458Z</time>
      </trkpt>
      <trkpt lat="47.49345" lon="6.66626">
        <ele>416.028</ele>
        <time>2016-06-04T11:56:35.458Z</time>
      </trkpt>
      <trkpt lat="47.49345" lon="6.66626">
        <ele>416.06</ele>
        <time>2016-06-04T11:56:36.458Z</time>
      </trkpt>
      <trkpt lat="47.49345" lon="6.66626">
        <ele>416.087</ele>
        <time>2016-06-04T11:56:37.458Z</time>
      </trkpt>
      <trkpt lat="47.49345" lon="6.66626">
        <ele>416.11</ele>
        <time>2016-06-04T11:56:38.458Z</time>
      </trkpt>
      <trkpt lat="47.49345" lon="6.66626">
        <ele>416.13</ele>
        <time>2016-06-04T11:56:39.458Z</time>
      </trkpt>
      <trkpt lat="47.49345" lon="6.66626">
        <ele>416.146</ele>
        <time>2016-06-04T11:56:40.458Z</time>
      </trkpt>
      <trkpt lat="47.49345" lon="6.66626">
        <ele>416.159</ele>
        <time>2016-06-04T11:56:41.458Z</time>
      </trkpt>
      <trkpt lat="47.49345" lon="6.66626">
        <ele>416.169</ele>
        <time>2016-06-04T11:56:42.458Z</time>
      </trkpt>
      <trkpt lat="47.49345" lon="6.66626">
        <ele>416.176</ele>
        <time>2016-06-04T11:56:43.458Z</time>
      </trkpt>
      <trkpt lat="47.49345" lon="6.66626">
        <ele>416.181</ele>
        <time>2016-06-04T11:56:44.458Z</time>
      </trkpt>
      <trkpt lat="47.49345" lon="6.66626">
        <ele>416.184</ele>
        <time>2016-06-04T11:56:45.458Z</time>
      </trkpt>
      <trkpt lat="47.49345" lon="6.66626">
        <ele>416.185</ele>
        <time>2016-06-04T11:56:46.458Z</time>
      </trkpt>
      <trkpt lat="47.49345" lon="6.66626">
        <ele>416.184</ele>
        <time>2016-06-04T11:56:47.458Z</time>
      </trkpt>
      <trkpt lat="47.49345" lon="6.66626">
        <ele>416.183</ele>
        <time>2016-06-04T11:56:48.458Z</time>
      </trkpt>
      <trkpt lat="47.49345" lon="6.66626">
        <ele>416.18</ele>
        <time>2016-06-04T11:56:49.458Z</time>
      </trkpt>
      <trkpt lat="47.49345" lon="6.66626">
        <ele>416.176</ele>
        <time>2016-06-04T11:56:50.458Z</time>
      </trkpt>
      <trkpt lat="47.49345" lon="6.66626">
        <ele>416.172</ele>
        <time>2016-06-04T11:56:51.458Z</time>
      </trkpt>
      <trkpt lat="47.49345" lon="6.66626">
        <ele>416.167</ele>
        <time>2016-06-04T11:56:52.458Z</time>
      </trkpt>
      <trkpt lat="47.49345" lon="6.66626">
        <ele>416.161</ele>
        <time>2016-06-04T11:56:53.458Z</time>
      </trkpt>
      <trkpt lat="47.49345" lon="6.66626">
        <ele>416.155</ele>
        <time>2016-06-04T11:56:54.458Z</time>
      </trkpt>
      <trkpt lat="47.49345" lon="6.66626">
        <ele>416.149</ele>
        <time>2016-06-04T11:56:55.458Z</time>
      </trkpt>
      <trkpt lat="47.49345" lon="6.66626">
        <ele>416.143</ele>
        <time>2016-06-04T11:56:56.458Z</time>
      </trkpt>
      <trkpt lat="47.49345" lon="6.66626">
        <ele>416.137</ele>
        <time>2016-06-04T11:56:57.458Z</time>
      </trkpt>
      <trkpt lat="47.49345" lon="6.66626">
        <ele>416.131</ele>
        <time>2016-06-04T11:56:58.458Z</time>
      </trkpt>
      <trkpt lat="47.49345" lon="6.66626">
        <ele>416.126</ele>
        <time>2016-06-04T11:56:59.458Z</time>
      </trkpt>
      <trkpt lat="47.49345" lon="6.66626">
        <ele>416.121</ele>
        <time>2016-06-04T11:57:00.458Z</time>
      </trkpt>
      <trkpt lat="47.49345" lon="6.66626">
        <ele>416.118</ele>
        <time>2016-06-04T11:57:01.458Z</time>
      </trkpt>
      <trkpt lat="47.49345" lon="6.66626">
        <ele>416.115</ele>
        <time>2016-06-04T11:57:02.458Z</time>
      </trkpt>
      <trkpt lat="47.49345" lon="6.66626">
        <ele>416.115</ele>
        <time>2016-06-04T11:57:03.458Z</time>
      </trkpt>
      <trkpt lat="47.49345" lon="6.66626">
        <ele>416.117</ele>
        <time>2016-06-04T11:57:04.458Z</time>
      </trkpt>
      <trkpt lat="47.49345" lon="6.66626">
        <ele>416.121</ele>
        <time>2016-06-04T11:57:05.458Z</time>
      </trkpt>
      <trkpt lat="47.49345" lon="6.66626">
        <ele>416.128</ele>
        <time>2016-06-04T11:57:06.458Z</time>
      </trkpt>
      <trkpt lat="47.49345" lon="6.66627">
        <ele>416.139</ele>
        <time>2016-06-04T11:57:07.458Z</time>
      </trkpt>
      <trkpt lat="47.49345" lon="6.66627">
        <ele>416.154</ele>
        <time>2016-06-04T11:57:08.458Z</time>
      </trkpt>
      <trkpt lat="47.49345" lon="6.66627">
        <ele>416.174</ele>
        <time>2016-06-04T11:57:09.458Z</time>
      </trkpt>
      <trkpt lat="47.49345" lon="6.66628">
        <ele>416.198</ele>
        <time>2016-06-04T11:57:10.458Z</time>
      </trkpt>
      <trkpt lat="47.49345" lon="6.66628">
        <ele>416.227</ele>
        <time>2016-06-04T11:57:11.458Z</time>
      </trkpt>
      <trkpt lat="47.49345" lon="6.66629">
        <ele>416.259</ele>
        <time>2016-06-04T11:57:12.458Z</time>
      </trkpt>
      <trkpt lat="47.49346" lon="6.66629">
        <ele>416.294</ele>
        <time>2016-06-04T11:57:13.458Z</time>
      </trkpt>
      <trkpt lat="47.49346" lon="6.66629">
        <ele>416.331</ele>
        <time>2016-06-04T11:57:14.458Z</time>
      </trkpt>
      <trkpt lat="47.49346" lon="6.66629">
        <ele>416.368</ele>
        <time>2016-06-04T11:57:15.458Z</time>
      </trkpt>
      <trkpt lat="47.49346" lon="6.6663">
        <ele>416.403</ele>
        <time>2016-06-04T11:57:16.458Z</time>
      </trkpt>
      <trkpt lat="47.49346" lon="6.6663">
        <ele>416.437</ele>
        <time>2016-06-04T11:57:17.458Z</time>
      </trkpt>
      <trkpt lat="47.49346" lon="6.6663">
        <ele>416.468</ele>
        <time>2016-06-04T11:57:18.458Z</time>
      </trkpt>
      <trkpt lat="47.49346" lon="6.6663">
        <ele>416.497</ele>
        <time>2016-06-04T11:57:19.458Z</time>
      </trkpt>
      <trkpt lat="47.49346" lon="6.6663">
        <ele>416.521</ele>
        <time>2016-06-04T11:57:20.458Z</time>
      </trkpt>
      <trkpt lat="47.49346" lon="6.6663">
        <ele>416.541</ele>
        <time>2016-06-04T11:57:21.458Z</time>
      </trkpt>
      <trkpt lat="47.49346" lon="6.6663">
        <ele>416.556</ele>
        <time>2016-06-04T11:57:22.458Z</time>
      </trkpt>
      <trkpt lat="47.49346" lon="6.6663">
        <ele>416.565</ele>
        <time>2016-06-04T11:57:23.458Z</time>
      </trkpt>
      <trkpt lat="47.49346" lon="6.6663">
        <ele>416.566</ele>
        <time>2016-06-04T11:57:24.458Z</time>
      </trkpt>
      <trkpt lat="47.49346" lon="6.6663">
        <ele>416.561</ele>
        <time>2016-06-04T11:57:25.458Z</time>
      </trkpt>
      <trkpt lat="47.49346" lon="6.6663">
        <ele>416.547</ele>
        <time>2016-06-04T11:57:26.458Z</time>
      </trkpt>
      <trkpt lat="47.49346" lon="6.6663">
        <ele>416.524</ele>
        <time>2016-06-04T11:57:27.458Z</time>
      </trkpt>
      <trkpt lat="47.49346" lon="6.6663">
        <ele>416.49</ele>
        <time>2016-06-04T11:57:28.458Z</time>
      </trkpt>
      <trkpt lat="47.49345" lon="6.6663">
        <ele>416.446</ele>
        <time>2016-06-04T11:57:29.458Z</time>
      </trkpt>
      <trkpt lat="47.49345" lon="6.6663">
        <ele>416.389</ele>
        <time>2016-06-04T11:57:30.458Z</time>
      </trkpt>
      <trkpt lat="47.49345" lon="6.6663">
        <ele>416.32</ele>
        <time>2016-06-04T11:57:31.458Z</time>
      </trkpt>
      <trkpt lat="47.49345" lon="6.6663">
        <ele>416.237</ele>
        <time>2016-06-04T11:57:32.458Z</time>
      </trkpt>
      <trkpt lat="47.49345" lon="6.6663">
        <ele>416.138</ele>
        <time>2016-06-04T11:57:33.458Z</time>
      </trkpt>
      <trkpt lat="47.49345" lon="6.6663">
        <ele>416.024</ele>
        <time>2016-06-04T11:57:34.458Z</time>
      </trkpt>
      <trkpt lat="47.49345" lon="6.6663">
        <ele>415.895</ele>
        <time>2016-06-04T11:57:35.458Z</time>
      </trkpt>
      <trkpt lat="47.49345" lon="6.6663">
        <ele>415.749</ele>
        <time>2016-06-04T11:57:36.458Z</time>
      </trkpt>
      <trkpt lat="47.49345" lon="6.6663">
        <ele>415.587</ele>
        <time>2016-06-04T11:57:37.458Z</time>
      </trkpt>
      <trkpt lat="47.49345" lon="6.6663">
        <ele>415.412</ele>
        <time>2016-06-04T11:57:38.458Z</time>
      </trkpt>
      <trkpt lat="47.49344" lon="6.6663">
        <ele>415.224</ele>
        <time>2016-06-04T11:57:39.458Z</time>
      </trkpt>
      <trkpt lat="47.49344" lon="6.6663">
        <ele>415.025</ele>
        <time>2016-06-04T11:57:40.458Z</time>
      </trkpt>
      <trkpt lat="47.49344" lon="6.6663">
        <ele>414.818</ele>
        <time>2016-06-04T11:57:41.458Z</time>
      </trkpt>
      <trkpt lat="47.49344" lon="6.6663">
        <ele>414.605</ele>
        <time>2016-06-04T11:57:42.458Z</time>
      </trkpt>
      <trkpt lat="47.49344" lon="6.66631">
        <ele>414.388</ele>
        <time>2016-06-04T11:57:43.458Z</time>
      </trkpt>
      <trkpt lat="47.49344" lon="6.66631">
        <ele>414.168</ele>
        <time>2016-06-04T11:57:44.458Z</time>
      </trkpt>
      <trkpt lat="47.49344" lon="6.66631">
        <ele>413.948</ele>
        <time>2016-06-04T11:57:45.458Z</time>
      </trkpt>
      <trkpt lat="47.49343" lon="6.66631">
        <ele>413.728</ele>
        <time>2016-06-04T11:57:46.458Z</time>
      </trkpt>
      <trkpt lat="47.49343" lon="6.66631">
        <ele>413.512</ele>
        <time>2016-06-04T11:57:47.458Z</time>
      </trkpt>
      <trkpt lat="47.49343" lon="6.66632">
        <ele>413.3</ele>
        <time>2016-06-04T11:57:48.458Z</time>
      </trkpt>
      <trkpt lat="47.49343" lon="6.66632">
        <ele>413.095</ele>
        <time>2016-06-04T11:57:49.458Z</time>
      </trkpt>
      <trkpt lat="47.49343" lon="6.66632">
        <ele>412.897</ele>
        <time>2016-06-04T11:57:50.458Z</time>
      </trkpt>
      <trkpt lat="47.49343" lon="6.66633">
        <ele>412.71</ele>
        <time>2016-06-04T11:57:51.458Z</time>
      </trkpt>
      <trkpt lat="47.49343" lon="6.66633">
        <ele>412.532</ele>
        <time>2016-06-04T11:57:52.458Z</time>
      </trkpt>
      <trkpt lat="47.49343" lon="6.66633">
        <ele>412.367</ele>
        <time>2016-06-04T11:57:53.458Z</time>
      </trkpt>
      <trkpt lat="47.49342" lon="6.66633">
        <ele>412.213</ele>
        <time>2016-06-04T11:57:54.458Z</time>
      </trkpt>
      <trkpt lat="47.49343" lon="6.66633">
        <ele>412.073</ele>
        <time>2016-06-04T11:57:55.458Z</time>
      </trkpt>
      <trkpt lat="47.49343" lon="6.66633">
        <ele>411.944</ele>
        <time>2016-06-04T11:57:56.458Z</time>
      </trkpt>
      <trkpt lat="47.49343" lon="6.66633">
        <ele>411.829</ele>
        <time>2016-06-04T11:57:57.458Z</time>
      </trkpt>
      <trkpt lat="47.49343" lon="6.66633">
        <ele>411.726</ele>
        <time>2016-06-04T11:57:58.458Z</time>
      </trkpt>
      <trkpt lat="47.49343" lon="6.66633">
        <ele>411.634</ele>
        <time>2016-06-04T11:57:59.458Z</time>
      </trkpt>
      <trkpt lat="47.49343" lon="6.66633">
        <ele>411.555</ele>
        <time>2016-06-04T11:58:00.458Z</time>
      </trkpt>
      <trkpt lat="47.49343" lon="6.66633">
        <ele>411.486</ele>
        <time>2016-06-04T11:58:01.458Z</time>
      </trkpt>
      <trkpt lat="47.49343" lon="6.66633">
        <ele>411.429</ele>
        <time>2016-06-04T11:58:02.458Z</time>
      </trkpt>
      <trkpt lat="47.49343" lon="6.66633">
        <ele>411.381</ele>
        <time>2016-06-04T11:58:03.458Z</time>
      </trkpt>
      <trkpt lat="47.49343" lon="6.66633">
        <ele>411.344</ele>
        <time>2016-06-04T11:58:04.458Z</time>
      </trkpt>
      <trkpt lat="47.49343" lon="6.66633">
        <ele>411.314</ele>
        <time>2016-06-04T11:58:05.458Z</time>
      </trkpt>
      <trkpt lat="47.49343" lon="6.66633">
        <ele>411.293</ele>
        <time>2016-06-04T11:58:06.458Z</time>
      </trkpt>
      <trkpt lat="47.49343" lon="6.66633">
        <ele>411.277</ele>
        <time>2016-06-04T11:58:07.458Z</time>
      </trkpt>
      <trkpt lat="47.49343" lon="6.66633">
        <ele>411.267</ele>
        <time>2016-06-04T11:58:08.458Z</time>
      </trkpt>
      <trkpt lat="47.49343" lon="6.66633">
        <ele>411.261</ele>
        <time>2016-06-04T11:58:09.458Z</time>
      </trkpt>
      <trkpt lat="47.49343" lon="6.66633">
        <ele>411.257</ele>
        <time>2016-06-04T11:58:10.458Z</time>
      </trkpt>
      <trkpt lat="47.49343" lon="6.66633">
        <ele>411.254</ele>
        <time>2016-06-04T11:58:11.458Z</time>
      </trkpt>
      <trkpt lat="47.49343" lon="6.66633">
        <ele>411.251</ele>
        <time>2016-06-04T11:58:12.458Z</time>
      </trkpt>
      <trkpt lat="47.49343" lon="6.66632">
        <ele>411.247</ele>
        <time>2016-06-04T11:58:13.458Z</time>
      </trkpt>
      <trkpt lat="47.49342" lon="6.66631">
        <ele>411.239</ele>
        <time>2016-06-04T11:58:14.458Z</time>
      </trkpt>
      <trkpt lat="47.49342" lon="6.66629">
        <ele>411.228</ele>
        <time>2016-06-04T11:58:15.458Z</time>
      </trkpt>
      <trkpt lat="47.49341" lon="6.66628">
        <ele>411.212</ele>
        <time>2016-06-04T11:58:16.458Z</time>
      </trkpt>
      <trkpt lat="47.49341" lon="6.66627">
        <ele>411.193</ele>
        <time>2016-06-04T11:58:17.458Z</time>
      </trkpt>
      <trkpt lat="47.4934" lon="6.66626">
        <ele>411.169</ele>
        <time>2016-06-04T11:58:18.458Z</time>
      </trkpt>
      <trkpt lat="47.4934" lon="6.66625">
        <ele>411.141</ele>
        <time>2016-06-04T11:58:19.458Z</time>
      </trkpt>
      <trkpt lat="47.49339" lon="6.66625">
        <ele>411.109</ele>
        <time>2016-06-04T11:58:20.458Z</time>
      </trkpt>
      <trkpt lat="47.49339" lon="6.66624">
        <ele>411.074</ele>
        <time>2016-06-04T11:58:21.458Z</time>
      </trkpt>
      <trkpt lat="47.49338" lon="6.66624">
        <ele>411.036</ele>
        <time>2016-06-04T11:58:22.458Z</time>
      </trkpt>
      <trkpt lat="47.49337" lon="6.66624">
        <ele>410.994</ele>
        <time>2016-06-04T11:58:23.458Z</time>
      </trkpt>
      <trkpt lat="47.49337" lon="6.66624">
        <ele>410.949</ele>
        <time>2016-06-04T11:58:24.458Z</time>
      </trkpt>
      <trkpt lat="47.49336" lon="6.66624">
        <ele>410.901</ele>
        <time>2016-06-04T11:58:25.458Z</time>
      </trkpt>
      <trkpt lat="47.49336" lon="6.66624">
        <ele>410.85</ele>
        <time>2016-06-04T11:58:26.458Z</time>
      </trkpt>
      <trkpt lat="47.49336" lon="6.66624">
        <ele>410.797</ele>
        <time>2016-06-04T11:58:27.458Z</time>
      </trkpt>
      <trkpt lat="47.49335" lon="6.66624">
        <ele>410.742</ele>
        <time>2016-06-04T11:58:28.458Z</time>
      </trkpt>
      <trkpt lat="47.49335" lon="6.66624">
        <ele>410.685</ele>
        <time>2016-06-04T11:58:29.458Z</time>
      </trkpt>
      <trkpt lat="47.49334" lon="6.66623">
        <ele>410.626</ele>
        <time>2016-06-04T11:58:30.458Z</time>
      </trkpt>
      <trkpt lat="47.49333" lon="6.66623">
        <ele>410.566</ele>
        <time>2016-06-04T11:58:31.458Z</time>
      </trkpt>
      <trkpt lat="47.49332" lon="6.66623">
        <ele>410.506</ele>
        <time>2016-06-04T11:58:32.458Z</time>
      </trkpt>
      <trkpt lat="47.4933" lon="6.66622">
        <ele>410.447</ele>
        <time>2016-06-04T11:58:33.458Z</time>
      </trkpt>
      <trkpt lat="47.49329" lon="6.66622">
        <ele>410.387</ele>
        <time>2016-06-04T11:58:34.458Z</time>
      </trkpt>
      <trkpt lat="47.49327" lon="6.66621">
        <ele>410.329</ele>
        <time>2016-06-04T11:58:35.458Z</time>
      </trkpt>
      <trkpt lat="47.49326" lon="6.6662">
        <ele>410.273</ele>
        <time>2016-06-04T11:58:36.458Z</time>
      </trkpt>
      <trkpt lat="47.49324" lon="6.6662">
        <ele>410.219</ele>
        <time>2016-06-04T11:58:37.458Z</time>
      </trkpt>
      <trkpt lat="47.49323" lon="6.66619">
        <ele>410.168</ele>
        <time>2016-06-04T11:58:38.458Z</time>
      </trkpt>
      <trkpt lat="47.49323" lon="6.66618">
        <ele>410.12</ele>
        <time>2016-06-04T11:58:39.458Z</time>
      </trkpt>
      <trkpt lat="47.49323" lon="6.66617">
        <ele>410.076</ele>
        <time>2016-06-04T11:58:40.458Z</time>
      </trkpt>
      <trkpt lat="47.49323" lon="6.66617">
        <ele>410.036</ele>
        <time>2016-06-04T11:58:41.458Z</time>
      </trkpt>
      <trkpt lat="47.49324" lon="6.66617">
        <ele>410.001</ele>
        <time>2016-06-04T11:58:42.458Z</time>
      </trkpt>
      <trkpt lat="47.49325" lon="6.66618">
        <ele>409.97</ele>
        <time>2016-06-04T11:58:43.458Z</time>
      </trkpt>
      <trkpt lat="47.49327" lon="6.66618">
        <ele>409.944</ele>
        <time>2016-06-04T11:58:44.458Z</time>
      </trkpt>
      <trkpt lat="47.49328" lon="6.66619">
        <ele>409.924</ele>
        <time>2016-06-04T11:58:45.458Z</time>
      </trkpt>
      <trkpt lat="47.4933" lon="6.6662">
        <ele>409.909</ele>
        <time>2016-06-04T11:58:46.458Z</time>
      </trkpt>
      <trkpt lat="47.49331" lon="6.66621">
        <ele>409.899</ele>
        <time>2016-06-04T11:58:47.458Z</time>
      </trkpt>
      <trkpt lat="47.49332" lon="6.66621">
        <ele>409.894</ele>
        <time>2016-06-04T11:58:48.458Z</time>
      </trkpt>
      <trkpt lat="47.49333" lon="6.66622">
        <ele>409.895</ele>
        <time>2016-06-04T11:58:49.458Z</time>
      </trkpt>
      <trkpt lat="47.49333" lon="6.66622">
        <ele>409.901</ele>
        <time>2016-06-04T11:58:50.458Z</time>
      </trkpt>
      <trkpt lat="47.49334" lon="6.66622">
        <ele>409.911</ele>
        <time>2016-06-04T11:58:51.458Z</time>
      </trkpt>
      <trkpt lat="47.49334" lon="6.66622">
        <ele>409.927</ele>
        <time>2016-06-04T11:58:52.458Z</time>
      </trkpt>
      <trkpt lat="47.49334" lon="6.66622">
        <ele>409.947</ele>
        <time>2016-06-04T11:58:53.458Z</time>
      </trkpt>
      <trkpt lat="47.49334" lon="6.66622">
        <ele>409.971</ele>
        <time>2016-06-04T11:58:54.458Z</time>
      </trkpt>
      <trkpt lat="47.49335" lon="6.66622">
        <ele>409.999</ele>
        <time>2016-06-04T11:58:55.458Z</time>
      </trkpt>
      <trkpt lat="47.49335" lon="6.66621">
        <ele>410.03</ele>
        <time>2016-06-04T11:58:56.458Z</time>
      </trkpt>
      <trkpt lat="47.49335" lon="6.66621">
        <ele>410.064</ele>
        <time>2016-06-04T11:58:57.458Z</time>
      </trkpt>
      <trkpt lat="47.49336" lon="6.66621">
        <ele>410.1</ele>
        <time>2016-06-04T11:58:58.458Z</time>
      </trkpt>
      <trkpt lat="47.49336" lon="6.66621">
        <ele>410.139</ele>
        <time>2016-06-04T11:58:59.458Z</time>
      </trkpt>
      <trkpt lat="47.49336" lon="6.66621">
        <ele>410.179</ele>
        <time>2016-06-04T11:59:00.458Z</time>
      </trkpt>
      <trkpt lat="47.49337" lon="6.66621">
        <ele>410.22</ele>
        <time>2016-06-04T11:59:01.458Z</time>
      </trkpt>
      <trkpt lat="47.49337" lon="6.66622">
        <ele>410.262</ele>
        <time>2016-06-04T11:59:02.458Z</time>
      </trkpt>
      <trkpt lat="47.49338" lon="6.66622">
        <ele>410.305</ele>
        <time>2016-06-04T11:59:03.458Z</time>
      </trkpt>
      <trkpt lat="47.49338" lon="6.66623">
        <ele>410.348</ele>
        <time>2016-06-04T11:59:04.458Z</time>
      </trkpt>
      <trkpt lat="47.49339" lon="6.66624">
        <ele>410.391</ele>
        <time>2016-06-04T11:59:05.458Z</time>
      </trkpt>
      <trkpt lat="47.49339" lon="6.66624">
        <ele>410.434</ele>
        <time>2016-06-04T11:59:06.458Z</time>
      </trkpt>
      <trkpt lat="47.49339" lon="6.66625">
        <ele>410.476</ele>
        <time>2016-06-04T11:59:07.458Z</time>
      </trkpt>
      <trkpt lat="47.49339" lon="6.66625">
        <ele>410.519</ele>
        <time>2016-06-04T11:59:08.458Z</time>
      </trkpt>
      <trkpt lat="47.49339" lon="6.66625">
        <ele>410.56</ele>
        <time>2016-06-04T11:59:09.458Z</time>
      </trkpt>
      <trkpt lat="47.49339" lon="6.66625">
        <ele>410.602</ele>
        <time>2016-06-04T11:59:10.458Z</time>
      </trkpt>
      <trkpt lat="47.49339" lon="6.66626">
        <ele>410.642</ele>
        <time>2016-06-04T11:59:11.458Z</time>
      </trkpt>
      <trkpt lat="47.49339" lon="6.66626">
        <ele>410.682</ele>
        <time>2016-06-04T11:59:12.458Z</time>
      </trkpt>
      <trkpt lat="47.49339" lon="6.66626">
        <ele>410.721</ele>
        <time>2016-06-04T11:59:13.458Z</time>
      </trkpt>
      <trkpt lat="47.49339" lon="6.66626">
        <ele>410.759</ele>
        <time>2016-06-04T11:59:14.458Z</time>
      </trkpt>
      <trkpt lat="47.49339" lon="6.66626">
        <ele>410.796</ele>
        <time>2016-06-04T11:59:15.458Z</time>
      </trkpt>
      <trkpt lat="47.49339" lon="6.66626">
        <ele>410.832</ele>
        <time>2016-06-04T11:59:16.458Z</time>
      </trkpt>
      <trkpt lat="47.49339" lon="6.66626">
        <ele>410.867</ele>
        <time>2016-06-04T11:59:17.458Z</time>
      </trkpt>
      <trkpt lat="47.49339" lon="6.66626">
        <ele>410.901</ele>
        <time>2016-06-04T11:59:18.458Z</time>
      </trkpt>
      <trkpt lat="47.49339" lon="6.66626">
        <ele>410.933</ele>
        <time>2016-06-04T11:59:19.458Z</time>
      </trkpt>
      <trkpt lat="47.49339" lon="6.66626">
        <ele>410.964</ele>
        <time>2016-06-04T11:59:20.458Z</time>
      </trkpt>
      <trkpt lat="47.49339" lon="6.66626">
        <ele>410.994</ele>
        <time>2016-06-04T11:59:21.458Z</time>
      </trkpt>
      <trkpt lat="47.49339" lon="6.66626">
        <ele>411.022</ele>
        <time>2016-06-04T11:59:22.458Z</time>
      </trkpt>
      <trkpt lat="47.49339" lon="6.66626">
        <ele>411.048</ele>
        <time>2016-06-04T11:59:23.458Z</time>
      </trkpt>
      <trkpt lat="47.49339" lon="6.66626">
        <ele>411.073</ele>
        <time>2016-06-04T11:59:24.458Z</time>
      </trkpt>
      <trkpt lat="47.49339" lon="6.66626">
        <ele>411.097</ele>
        <time>2016-06-04T11:59:25.458Z</time>
      </trkpt>
      <trkpt lat="47.49339" lon="6.66626">
        <ele>411.119</ele>
        <time>2016-06-04T11:59:26.458Z</time>
      </trkpt>
      <trkpt lat="47.49339" lon="6.66626">
        <ele>411.139</ele>
        <time>2016-06-04T11:59:27.458Z</time>
      </trkpt>
      <trkpt lat="47.49339" lon="6.66626">
        <ele>411.157</ele>
        <time>2016-06-04T11:59:28.458Z</time>
      </trkpt>
      <trkpt lat="47.49339" lon="6.66626">
        <ele>411.174</ele>
        <time>2016-06-04T11:59:29.458Z</time>
      </trkpt>
      <trkpt lat="47.49339" lon="6.66626">
        <ele>411.189</ele>
        <time>2016-06-04T11:59:30.458Z</time>
      </trkpt>
      <trkpt lat="47.49339" lon="6.66626">
        <ele>411.203</ele>
        <time>2016-06-04T11:59:31.458Z</time>
      </trkpt>
      <trkpt lat="47.49339" lon="6.66626">
        <ele>411.215</ele>
        <time>2016-06-04T11:59:32.458Z</time>
      </trkpt>
      <trkpt lat="47.49339" lon="6.66626">
        <ele>411.225</ele>
        <time>2016-06-04T11:59:33.458Z</time>
      </trkpt>
      <trkpt lat="47.49339" lon="6.66626">
        <ele>411.233</ele>
        <time>2016-06-04T11:59:34.458Z</time>
      </trkpt>
      <trkpt lat="47.49339" lon="6.66626">
        <ele>411.24</ele>
        <time>2016-06-04T11:59:35.458Z</time>
      </trkpt>
      <trkpt lat="47.49339" lon="6.66626">
        <ele>411.245</ele>
        <time>2016-06-04T11:59:36.458Z</time>
      </trkpt>
      <trkpt lat="47.49339" lon="6.66626">
        <ele>411.248</ele>
        <time>2016-06-04T11:59:37.458Z</time>
      </trkpt>
      <trkpt lat="47.49339" lon="6.66626">
        <ele>411.249</ele>
        <time>2016-06-04T11:59:38.458Z</time>
      </trkpt>
      <trkpt lat="47.49339" lon="6.66626">
        <ele>411.249</ele>
        <time>2016-06-04T11:59:39.458Z</time>
      </trkpt>
      <trkpt lat="47.49339" lon="6.66626">
        <ele>411.247</ele>
        <time>2016-06-04T11:59:40.458Z</time>
      </trkpt>
      <trkpt lat="47.49339" lon="6.66626">
        <ele>411.243</ele>
        <time>2016-06-04T11:59:41.458Z</time>
      </trkpt>
      <trkpt lat="47.49339" lon="6.66626">
        <ele>411.238</ele>
        <time>2016-06-04T11:59:42.458Z</time>
      </trkpt>
      <trkpt lat="47.49339" lon="6.66626">
        <ele>411.231</ele>
        <time>2016-06-04T11:59:43.458Z</time>
      </trkpt>
      <trkpt lat="47.49339" lon="6.66626">
        <ele>411.223</ele>
        <time>2016-06-04T11:59:44.458Z</time>
      </trkpt>
      <trkpt lat="47.49339" lon="6.66626">
        <ele>411.213</ele>
        <time>2016-06-04T11:59:45.458Z</time>
      </trkpt>
      <trkpt lat="47.49339" lon="6.66626">
        <ele>411.203</ele>
        <time>2016-06-04T11:59:46.458Z</time>
      </trkpt>
      <trkpt lat="47.4934" lon="6.66626">
        <ele>411.191</ele>
        <time>2016-06-04T11:59:47.458Z</time>
      </trkpt>
      <trkpt lat="47.4934" lon="6.66626">
        <ele>411.179</ele>
        <time>2016-06-04T11:59:48.458Z</time>
      </trkpt>
      <trkpt lat="47.4934" lon="6.66626">
        <ele>411.167</ele>
        <time>2016-06-04T11:59:49.458Z</time>
      </trkpt>
      <trkpt lat="47.4934" lon="6.66626">
        <ele>411.156</ele>
        <time>2016-06-04T11:59:50.458Z</time>
      </trkpt>
      <trkpt lat="47.49341" lon="6.66626">
        <ele>411.145</ele>
        <time>2016-06-04T11:59:51.458Z</time>
      </trkpt>
      <trkpt lat="47.49341" lon="6.66626">
        <ele>411.136</ele>
        <time>2016-06-04T11:59:52.458Z</time>
      </trkpt>
      <trkpt lat="47.49341" lon="6.66626">
        <ele>411.128</ele>
        <time>2016-06-04T11:59:53.458Z</time>
      </trkpt>
      <trkpt lat="47.49341" lon="6.66626">
        <ele>411.123</ele>
        <time>2016-06-04T11:59:54.458Z</time>
      </trkpt>
      <trkpt lat="47.49341" lon="6.66626">
        <ele>411.12</ele>
        <time>2016-06-04T11:59:55.458Z</time>
      </trkpt>
      <trkpt lat="47.49341" lon="6.66626">
        <ele>411.119</ele>
        <time>2016-06-04T11:59:56.458Z</time>
      </trkpt>
      <trkpt lat="47.49341" lon="6.66626">
        <ele>411.12</ele>
        <time>2016-06-04T11:59:57.458Z</time>
      </trkpt>
      <trkpt lat="47.49341" lon="6.66626">
        <ele>411.122</ele>
        <time>2016-06-04T11:59:58.458Z</time>
      </trkpt>
      <trkpt lat="47.49341" lon="6.66626">
        <ele>411.126</ele>
        <time>2016-06-04T11:59:59.458Z</time>
      </trkpt>
      <trkpt lat="47.49341" lon="6.66626">
        <ele>411.131</ele>
        <time>2016-06-04T12:00:00.458Z</time>
      </trkpt>
      <trkpt lat="47.49341" lon="6.66626">
        <ele>411.138</ele>
        <time>2016-06-04T12:00:01.458Z</time>
      </trkpt>
      <trkpt lat="47.49341" lon="6.66626">
        <ele>411.145</ele>
        <time>2016-06-04T12:00:02.458Z</time>
      </trkpt>
      <trkpt lat="47.49341" lon="6.66626">
        <ele>411.153</ele>
        <time>2016-06-04T12:00:03.458Z</time>
      </trkpt>
      <trkpt lat="47.49341" lon="6.66626">
        <ele>411.162</ele>
        <time>2016-06-04T12:00:04.458Z</time>
      </trkpt>
      <trkpt lat="47.49341" lon="6.66626">
        <ele>411.171</ele>
        <time>2016-06-04T12:00:05.458Z</time>
      </trkpt>
      <trkpt lat="47.49341" lon="6.66626">
        <ele>411.182</ele>
        <time>2016-06-04T12:00:06.458Z</time>
      </trkpt>
      <trkpt lat="47.49341" lon="6.66626">
        <ele>411.194</ele>
        <time>2016-06-04T12:00:07.458Z</time>
      </trkpt>
      <trkpt lat="47.49341" lon="6.66626">
        <ele>411.208</ele>
        <time>2016-06-04T12:00:08.458Z</time>
      </trkpt>
      <trkpt lat="47.49341" lon="6.66626">
        <ele>411.222</ele>
        <time>2016-06-04T12:00:09.458Z</time>
      </trkpt>
      <trkpt lat="47.49341" lon="6.66626">
        <ele>411.239</ele>
        <time>2016-06-04T12:00:10.458Z</time>
      </trkpt>
      <trkpt lat="47.49341" lon="6.66626">
        <ele>411.256</ele>
        <time>2016-06-04T12:00:11.458Z</time>
      </trkpt>
      <trkpt lat="47.49341" lon="6.66626">
        <ele>411.275</ele>
        <time>2016-06-04T12:00:12.458Z</time>
      </trkpt>
      <trkpt lat="47.49341" lon="6.66626">
        <ele>411.296</ele>
        <time>2016-06-04T12:00:13.458Z</time>
      </trkpt>
      <trkpt lat="47.49341" lon="6.66626">
        <ele>411.317</ele>
        <time>2016-06-04T12:00:14.458Z</time>
      </trkpt>
      <trkpt lat="47.49341" lon="6.66626">
        <ele>411.34</ele>
        <time>2016-06-04T12:00:15.458Z</time>
      </trkpt>
      <trkpt lat="47.49341" lon="6.66626">
        <ele>411.364</ele>
        <time>2016-06-04T12:00:16.458Z</time>
      </trkpt>
      <trkpt lat="47.49341" lon="6.66626">
        <ele>411.389</ele>
        <time>2016-06-04T12:00:17.458Z</time>
      </trkpt>
      <trkpt lat="47.49341" lon="6.66626">
        <ele>411.415</ele>
        <time>2016-06-04T12:00:18.458Z</time>
      </trkpt>
      <trkpt lat="47.49341" lon="6.66626">
        <ele>411.441</ele>
        <time>2016-06-04T12:00:19.458Z</time>
      </trkpt>
      <trkpt lat="47.49341" lon="6.66626">
        <ele>411.467</ele>
        <time>2016-06-04T12:00:20.458Z</time>
      </trkpt>
      <trkpt lat="47.49341" lon="6.66626">
        <ele>411.494</ele>
        <time>2016-06-04T12:00:21.458Z</time>
      </trkpt>
      <trkpt lat="47.49341" lon="6.66626">
        <ele>411.52</ele>
        <time>2016-06-04T12:00:22.458Z</time>
      </trkpt>
      <trkpt lat="47.4934" lon="6.66626">
        <ele>411.546</ele>
        <time>2016-06-04T12:00:23.458Z</time>
      </trkpt>
      <trkpt lat="47.4934" lon="6.66626">
        <ele>411.571</ele>
        <time>2016-06-04T12:00:24.458Z</time>
      </trkpt>
      <trkpt lat="47.4934" lon="6.66626">
        <ele>411.596</ele>
        <time>2016-06-04T12:00:25.458Z</time>
      </trkpt>
      <trkpt lat="47.4934" lon="6.66626">
        <ele>411.62</ele>
        <time>2016-06-04T12:00:26.458Z</time>
      </trkpt>
      <trkpt lat="47.4934" lon="6.66626">
        <ele>411.643</ele>
        <time>2016-06-04T12:00:27.458Z</time>
      </trkpt>
      <trkpt lat="47.4934" lon="6.66626">
        <ele>411.666</ele>
        <time>2016-06-04T12:00:28.458Z</time>
      </trkpt>
      <trkpt lat="47.4934" lon="6.66626">
        <ele>411.687</ele>
        <time>2016-06-04T12:00:29.458Z</time>
      </trkpt>
      <trkpt lat="47.4934" lon="6.66626">
        <ele>411.708</ele>
        <time>2016-06-04T12:00:30.458Z</time>
      </trkpt>
      <trkpt lat="47.4934" lon="6.66626">
        <ele>411.727</ele>
        <time>2016-06-04T12:00:31.458Z</time>
      </trkpt>
      <trkpt lat="47.4934" lon="6.66626">
        <ele>411.746</ele>
        <time>2016-06-04T12:00:32.458Z</time>
      </trkpt>
      <trkpt lat="47.4934" lon="6.66626">
        <ele>411.764</ele>
        <time>2016-06-04T12:00:33.458Z</time>
      </trkpt>
      <trkpt lat="47.4934" lon="6.66626">
        <ele>411.78</ele>
        <time>2016-06-04T12:00:34.458Z</time>
      </trkpt>
      <trkpt lat="47.4934" lon="6.66626">
        <ele>411.796</ele>
        <time>2016-06-04T12:00:35.458Z</time>
      </trkpt>
      <trkpt lat="47.4934" lon="6.66626">
        <ele>411.811</ele>
        <time>2016-06-04T12:00:36.458Z</time>
      </trkpt>
      <trkpt lat="47.4934" lon="6.66626">
        <ele>411.825</ele>
        <time>2016-06-04T12:00:37.458Z</time>
      </trkpt>
      <trkpt lat="47.4934" lon="6.66626">
        <ele>411.839</ele>
        <time>2016-06-04T12:00:38.458Z</time>
      </trkpt>
      <trkpt lat="47.4934" lon="6.66626">
        <ele>411.851</ele>
        <time>2016-06-04T12:00:39.458Z</time>
      </trkpt>
      <trkpt lat="47.4934" lon="6.66626">
        <ele>411.863</ele>
        <time>2016-06-04T12:00:40.458Z</time>
      </trkpt>
      <trkpt lat="47.4934" lon="6.66626">
        <ele>411.874</ele>
        <time>2016-06-04T12:00:41.458Z</time>
      </trkpt>
      <trkpt lat="47.4934" lon="6.66626">
        <ele>411.885</ele>
        <time>2016-06-04T12:00:42.458Z</time>
      </trkpt>
      <trkpt lat="47.4934" lon="6.66626">
        <ele>411.895</ele>
        <time>2016-06-04T12:00:43.458Z</time>
      </trkpt>
      <trkpt lat="47.4934" lon="6.66626">
        <ele>411.904</ele>
        <time>2016-06-04T12:00:44.458Z</time>
      </trkpt>
      <trkpt lat="47.4934" lon="6.66626">
        <ele>411.913</ele>
        <time>2016-06-04T12:00:45.458Z</time>
      </trkpt>
      <trkpt lat="47.4934" lon="6.66626">
        <ele>411.922</ele>
        <time>2016-06-04T12:00:46.458Z</time>
      </trkpt>
      <trkpt lat="47.4934" lon="6.66626">
        <ele>411.93</ele>
        <time>2016-06-04T12:00:47.458Z</time>
      </trkpt>
      <trkpt lat="47.4934" lon="6.66626">
        <ele>411.938</ele>
        <time>2016-06-04T12:00:48.458Z</time>
      </trkpt>
      <trkpt lat="47.4934" lon="6.66626">
        <ele>411.945</ele>
        <time>2016-06-04T12:00:49.458Z</time>
      </trkpt>
      <trkpt lat="47.4934" lon="6.66626">
        <ele>411.953</ele>
        <time>2016-06-04T12:00:50.458Z</time>
      </trkpt>
      <trkpt lat="47.4934" lon="6.66626">
        <ele>411.959</ele>
        <time>2016-06-04T12:00:51.458Z</time>
      </trkpt>
      <trkpt lat="47.4934" lon="6.66626">
        <ele>411.966</ele>
        <time>2016-06-04T12:00:52.458Z</time>
      </trkpt>
      <trkpt lat="47.4934" lon="6.66626">
        <ele>411.973</ele>
        <time>2016-06-04T12:00:53.458Z</time>
      </trkpt>
      <trkpt lat="47.4934" lon="6.66626">
        <ele>411.979</ele>
        <time>2016-06-04T12:00:54.458Z</time>
      </trkpt>
      <trkpt lat="47.4934" lon="6.66626">
        <ele>411.985</ele>
        <time>2016-06-04T12:00:55.458Z</time>
      </trkpt>
      <trkpt lat="47.4934" lon="6.66626">
        <ele>411.99</ele>
        <time>2016-06-04T12:00:56.458Z</time>
      </trkpt>
      <trkpt lat="47.4934" lon="6.66626">
        <ele>411.996</ele>
        <time>2016-06-04T12:00:57.458Z</time>
      </trkpt>
      <trkpt lat="47.4934" lon="6.66626">
        <ele>412.001</ele>
        <time>2016-06-04T12:00:58.458Z</time>
      </trkpt>
      <trkpt lat="47.4934" lon="6.66626">
        <ele>412.006</ele>
        <time>2016-06-04T12:00:59.458Z</time>
      </trkpt>
      <trkpt lat="47.4934" lon="6.66626">
        <ele>412.011</ele>
        <time>2016-06-04T12:01:00.458Z</time>
      </trkpt>
      <trkpt lat="47.4934" lon="6.66626">
        <ele>412.016</ele>
        <time>2016-06-04T12:01:01.458Z</time>
      </trkpt>
      <trkpt lat="47.4934" lon="6.66626">
        <ele>412.02</ele>
        <time>2016-06-04T12:01:02.458Z</time>
      </trkpt>
      <trkpt lat="47.4934" lon="6.66626">
        <ele>412.025</ele>
        <time>2016-06-04T12:01:03.458Z</time>
      </trkpt>
      <trkpt lat="47.4934" lon="6.66626">
        <ele>412.029</ele>
        <time>2016-06-04T12:01:04.458Z</time>
      </trkpt>
      <trkpt lat="47.4934" lon="6.66626">
        <ele>412.033</ele>
        <time>2016-06-04T12:01:05.458Z</time>
      </trkpt>
      <trkpt lat="47.4934" lon="6.66626">
        <ele>412.036</ele>
        <time>2016-06-04T12:01:06.458Z</time>
      </trkpt>
      <trkpt lat="47.4934" lon="6.66626">
        <ele>412.04</ele>
        <time>2016-06-04T12:01:07.458Z</time>
      </trkpt>
      <trkpt lat="47.4934" lon="6.66626">
        <ele>412.043</ele>
        <time>2016-06-04T12:01:08.458Z</time>
      </trkpt>
      <trkpt lat="47.4934" lon="6.66626">
        <ele>412.046</ele>
        <time>2016-06-04T12:01:09.458Z</time>
      </trkpt>
      <trkpt lat="47.4934" lon="6.66626">
        <ele>412.049</ele>
        <time>2016-06-04T12:01:10.458Z</time>
      </trkpt>
      <trkpt lat="47.4934" lon="6.66626">
        <ele>412.052</ele>
        <time>2016-06-04T12:01:11.458Z</time>
      </trkpt>
      <trkpt lat="47.4934" lon="6.66626">
        <ele>412.055</ele>
        <time>2016-06-04T12:01:12.458Z</time>
      </trkpt>
      <trkpt lat="47.4934" lon="6.66626">
        <ele>412.058</ele>
        <time>2016-06-04T12:01:13.458Z</time>
      </trkpt>
      <trkpt lat="47.4934" lon="6.66626">
        <ele>412.06</ele>
        <time>2016-06-04T12:01:14.458Z</time>
      </trkpt>
      <trkpt lat="47.4934" lon="6.66626">
        <ele>412.062</ele>
        <time>2016-06-04T12:01:15.458Z</time>
      </trkpt>
      <trkpt lat="47.4934" lon="6.66626">
        <ele>412.064</ele>
        <time>2016-06-04T12:01:16.458Z</time>
      </trkpt>
      <trkpt lat="47.4934" lon="6.66626">
        <ele>412.066</ele>
        <time>2016-06-04T12:01:17.458Z</time>
      </trkpt>
      <trkpt lat="47.4934" lon="6.66626">
        <ele>412.068</ele>
        <time>2016-06-04T12:01:18.458Z</time>
      </trkpt>
      <trkpt lat="47.4934" lon="6.66626">
        <ele>412.07</ele>
        <time>2016-06-04T12:01:19.458Z</time>
      </trkpt>
      <trkpt lat="47.4934" lon="6.66626">
        <ele>412.071</ele>
        <time>2016-06-04T12:01:20.458Z</time>
      </trkpt>
      <trkpt lat="47.4934" lon="6.66626">
        <ele>412.073</ele>
        <time>2016-06-04T12:01:21.458Z</time>
      </trkpt>
      <trkpt lat="47.4934" lon="6.66626">
        <ele>412.074</ele>
        <time>2016-06-04T12:01:22.458Z</time>
      </trkpt>
      <trkpt lat="47.4934" lon="6.66626">
        <ele>412.075</ele>
        <time>2016-06-04T12:01:23.458Z</time>
      </trkpt>
      <trkpt lat="47.4934" lon="6.66626">
        <ele>412.076</ele>
        <time>2016-06-04T12:01:24.458Z</time>
      </trkpt>
      <trkpt lat="47.4934" lon="6.66626">
        <ele>412.077</ele>
        <time>2016-06-04T12:01:25.458Z</time>
      </trkpt>
      <trkpt lat="47.4934" lon="6.66626">
        <ele>412.078</ele>
        <time>2016-06-04T12:01:26.458Z</time>
      </trkpt>
      <trkpt lat="47.4934" lon="6.66626">
        <ele>412.078</ele>
        <time>2016-06-04T12:01:27.458Z</time>
      </trkpt>
      <trkpt lat="47.4934" lon="6.66626">
        <ele>412.079</ele>
        <time>2016-06-04T12:01:28.458Z</time>
      </trkpt>
      <trkpt lat="47.4934" lon="6.66626">
        <ele>412.079</ele>
        <time>2016-06-04T12:01:29.458Z</time>
      </trkpt>
      <trkpt lat="47.4934" lon="6.66626">
        <ele>412.079</ele>
        <time>2016-06-04T12:01:30.458Z</time>
      </trkpt>
      <trkpt lat="47.4934" lon="6.66626">
        <ele>412.079</ele>
        <time>2016-06-04T12:01:31.458Z</time>
      </trkpt>
      <trkpt lat="47.4934" lon="6.66626">
        <ele>412.079</ele>
        <time>2016-06-04T12:01:32.458Z</time>
      </trkpt>
      <trkpt lat="47.4934" lon="6.66626">
        <ele>412.079</ele>
        <time>2016-06-04T12:01:33.458Z</time>
      </trkpt>
      <trkpt lat="47.4934" lon="6.66626">
        <ele>412.078</ele>
        <time>2016-06-04T12:01:34.458Z</time>
      </trkpt>
      <trkpt lat="47.4934" lon="6.66626">
        <ele>412.078</ele>
        <time>2016-06-04T12:01:35.458Z</time>
      </trkpt>
      <trkpt lat="47.4934" lon="6.66626">
        <ele>412.077</ele>
        <time>2016-06-04T12:01:36.458Z</time>
      </trkpt>
      <trkpt lat="47.4934" lon="6.66626">
        <ele>412.076</ele>
        <time>2016-06-04T12:01:37.458Z</time>
      </trkpt>
      <trkpt lat="47.4934" lon="6.66626">
        <ele>412.075</ele>
        <time>2016-06-04T12:01:38.458Z</time>
      </trkpt>
      <trkpt lat="47.4934" lon="6.66626">
        <ele>412.073</ele>
        <time>2016-06-04T12:01:39.458Z</time>
      </trkpt>
      <trkpt lat="47.4934" lon="6.66626">
        <ele>412.072</ele>
        <time>2016-06-04T12:01:40.458Z</time>
      </trkpt>
      <trkpt lat="47.4934" lon="6.66626">
        <ele>412.07</ele>
        <time>2016-06-04T12:01:41.458Z</time>
      </trkpt>
      <trkpt lat="47.4934" lon="6.66626">
        <ele>412.068</ele>
        <time>2016-06-04T12:01:42.458Z</time>
      </trkpt>
      <trkpt lat="47.4934" lon="6.66626">
        <ele>412.066</ele>
        <time>2016-06-04T12:01:43.458Z</time>
      </trkpt>
      <trkpt lat="47.4934" lon="6.66626">
        <ele>412.063</ele>
        <time>2016-06-04T12:01:44.458Z</time>
      </trkpt>
      <trkpt lat="47.4934" lon="6.66626">
        <ele>412.06</ele>
        <time>2016-06-04T12:01:45.458Z</time>
      </trkpt>
      <trkpt lat="47.4934" lon="6.66626">
        <ele>412.057</ele>
        <time>2016-06-04T12:01:46.458Z</time>
      </trkpt>
      <trkpt lat="47.4934" lon="6.66626">
        <ele>412.054</ele>
        <time>2016-06-04T12:01:47.458Z</time>
      </trkpt>
      <trkpt lat="47.4934" lon="6.66626">
        <ele>412.051</ele>
        <time>2016-06-04T12:01:48.458Z</time>
      </trkpt>
      <trkpt lat="47.4934" lon="6.66626">
        <ele>412.047</ele>
        <time>2016-06-04T12:01:49.458Z</time>
      </trkpt>
      <trkpt lat="47.4934" lon="6.66626">
        <ele>412.044</ele>
        <time>2016-06-04T12:01:50.458Z</time>
      </trkpt>
      <trkpt lat="47.4934" lon="6.66626">
        <ele>412.04</ele>
        <time>2016-06-04T12:01:51.458Z</time>
      </trkpt>
      <trkpt lat="47.4934" lon="6.66626">
        <ele>412.036</ele>
        <time>2016-06-04T12:01:52.458Z</time>
      </trkpt>
      <trkpt lat="47.4934" lon="6.66626">
        <ele>412.032</ele>
        <time>2016-06-04T12:01:53.458Z</time>
      </trkpt>
      <trkpt lat="47.4934" lon="6.66626">
        <ele>412.027</ele>
        <time>2016-06-04T12:01:54.458Z</time>
      </trkpt>
      <trkpt lat="47.4934" lon="6.66626">
        <ele>412.023</ele>
        <time>2016-06-04T12:01:55.458Z</time>
      </trkpt>
      <trkpt lat="47.4934" lon="6.66626">
        <ele>412.018</ele>
        <time>2016-06-04T12:01:56.458Z</time>
      </trkpt>
      <trkpt lat="47.4934" lon="6.66626">
        <ele>412.013</ele>
        <time>2016-06-04T12:01:57.458Z</time>
      </trkpt>
      <trkpt lat="47.4934" lon="6.66626">
        <ele>412.008</ele>
        <time>2016-06-04T12:01:58.458Z</time>
      </trkpt>
      <trkpt lat="47.4934" lon="6.66626">
        <ele>412.004</ele>
        <time>2016-06-04T12:01:59.458Z</time>
      </trkpt>
      <trkpt lat="47.4934" lon="6.66626">
        <ele>411.999</ele>
        <time>2016-06-04T12:02:00.458Z</time>
      </trkpt>
      <trkpt lat="47.4934" lon="6.66626">
        <ele>411.994</ele>
        <time>2016-06-04T12:02:01.458Z</time>
      </trkpt>
      <trkpt lat="47.4934" lon="6.66626">
        <ele>411.989</ele>
        <time>2016-06-04T12:02:02.458Z</time>
      </trkpt>
      <trkpt lat="47.4934" lon="6.66626">
        <ele>411.984</ele>
        <time>2016-06-04T12:02:03.458Z</time>
      </trkpt>
      <trkpt lat="47.4934" lon="6.66626">
        <ele>411.979</ele>
        <time>2016-06-04T12:02:04.458Z</time>
      </trkpt>
      <trkpt lat="47.4934" lon="6.66626">
        <ele>411.974</ele>
        <time>2016-06-04T12:02:05.458Z</time>
      </trkpt>
      <trkpt lat="47.4934" lon="6.66626">
        <ele>411.97</ele>
        <time>2016-06-04T12:02:06.458Z</time>
      </trkpt>
      <trkpt lat="47.4934" lon="6.66626">
        <ele>411.965</ele>
        <time>2016-06-04T12:02:07.458Z</time>
      </trkpt>
      <trkpt lat="47.4934" lon="6.66626">
        <ele>411.961</ele>
        <time>2016-06-04T12:02:08.458Z</time>
      </trkpt>
      <trkpt lat="47.4934" lon="6.66626">
        <ele>411.957</ele>
        <time>2016-06-04T12:02:09.458Z</time>
      </trkpt>
      <trkpt lat="47.4934" lon="6.66626">
        <ele>411.953</ele>
        <time>2016-06-04T12:02:10.458Z</time>
      </trkpt>
      <trkpt lat="47.4934" lon="6.66626">
        <ele>411.949</ele>
        <time>2016-06-04T12:02:11.458Z</time>
      </trkpt>
      <trkpt lat="47.4934" lon="6.66626">
        <ele>411.946</ele>
        <time>2016-06-04T12:02:12.458Z</time>
      </trkpt>
      <trkpt lat="47.4934" lon="6.66626">
        <ele>411.942</ele>
        <time>2016-06-04T12:02:13.458Z</time>
      </trkpt>
      <trkpt lat="47.4934" lon="6.66626">
        <ele>411.939</ele>
        <time>2016-06-04T12:02:14.458Z</time>
      </trkpt>
      <trkpt lat="47.4934" lon="6.66626">
        <ele>411.937</ele>
        <time>2016-06-04T12:02:15.458Z</time>
      </trkpt>
      <trkpt lat="47.4934" lon="6.66626">
        <ele>411.934</ele>
        <time>2016-06-04T12:02:16.458Z</time>
      </trkpt>
      <trkpt lat="47.4934" lon="6.66626">
        <ele>411.932</ele>
        <time>2016-06-04T12:02:17.458Z</time>
      </trkpt>
      <trkpt lat="47.4934" lon="6.66626">
        <ele>411.93</ele>
        <time>2016-06-04T12:02:18.458Z</time>
      </trkpt>
      <trkpt lat="47.4934" lon="6.66626">
        <ele>411.928</ele>
        <time>2016-06-04T12:02:19.458Z</time>
      </trkpt>
      <trkpt lat="47.4934" lon="6.66626">
        <ele>411.926</ele>
        <time>2016-06-04T12:02:20.458Z</time>
      </trkpt>
      <trkpt lat="47.4934" lon="6.66626">
        <ele>411.925</ele>
        <time>2016-06-04T12:02:21.458Z</time>
      </trkpt>
      <trkpt lat="47.4934" lon="6.66626">
        <ele>411.924</ele>
        <time>2016-06-04T12:02:22.458Z</time>
      </trkpt>
      <trkpt lat="47.4934" lon="6.66626">
        <ele>411.923</ele>
        <time>2016-06-04T12:02:23.458Z</time>
      </trkpt>
      <trkpt lat="47.4934" lon="6.66626">
        <ele>411.922</ele>
        <time>2016-06-04T12:02:24.458Z</time>
      </trkpt>
      <trkpt lat="47.4934" lon="6.66626">
        <ele>411.922</ele>
        <time>2016-06-04T12:02:25.458Z</time>
      </trkpt>
      <trkpt lat="47.4934" lon="6.66626">
        <ele>411.922</ele>
        <time>2016-06-04T12:02:26.458Z</time>
      </trkpt>
      <trkpt lat="47.4934" lon="6.66626">
        <ele>411.922</ele>
        <time>2016-06-04T12:02:27.458Z</time>
      </trkpt>
      <trkpt lat="47.4934" lon="6.66626">
        <ele>411.922</ele>
        <time>2016-06-04T12:02:28.458Z</time>
      </trkpt>
      <trkpt lat="47.4934" lon="6.66626">
        <ele>411.922</ele>
        <time>2016-06-04T12:02:29.458Z</time>
      </trkpt>
      <trkpt lat="47.4934" lon="6.66626">
        <ele>411.923</ele>
        <time>2016-06-04T12:02:30.458Z</time>
      </trkpt>
      <trkpt lat="47.4934" lon="6.66626">
        <ele>411.924</ele>
        <time>2016-06-04T12:02:31.458Z</time>
      </trkpt>
      <trkpt lat="47.4934" lon="6.66626">
        <ele>411.925</ele>
        <time>2016-06-04T12:02:32.458Z</time>
      </trkpt>
      <trkpt lat="47.4934" lon="6.66626">
        <ele>411.926</ele>
        <time>2016-06-04T12:02:33.458Z</time>
      </trkpt>
      <trkpt lat="47.4934" lon="6.66626">
        <ele>411.927</ele>
        <time>2016-06-04T12:02:34.458Z</time>
      </trkpt>
      <trkpt lat="47.4934" lon="6.66626">
        <ele>411.928</ele>
        <time>2016-06-04T12:02:35.458Z</time>
      </trkpt>
      <trkpt lat="47.4934" lon="6.66626">
        <ele>411.93</ele>
        <time>2016-06-04T12:02:36.458Z</time>
      </trkpt>
      <trkpt lat="47.4934" lon="6.66626">
        <ele>411.931</ele>
        <time>2016-06-04T12:02:37.458Z</time>
      </trkpt>
      <trkpt lat="47.4934" lon="6.66626">
        <ele>411.933</ele>
        <time>2016-06-04T12:02:38.458Z</time>
      </trkpt>
      <trkpt lat="47.4934" lon="6.66626">
        <ele>411.935</ele>
        <time>2016-06-04T12:02:39.458Z</time>
      </trkpt>
      <trkpt lat="47.4934" lon="6.66626">
        <ele>411.937</ele>
        <time>2016-06-04T12:02:40.458Z</time>
      </trkpt>
      <trkpt lat="47.4934" lon="6.66626">
        <ele>411.939</ele>
        <time>2016-06-04T12:02:41.458Z</time>
      </trkpt>
      <trkpt lat="47.4934" lon="6.66626">
        <ele>411.941</ele>
        <time>2016-06-04T12:02:42.458Z</time>
      </trkpt>
      <trkpt lat="47.4934" lon="6.66626">
        <ele>411.943</ele>
        <time>2016-06-04T12:02:43.458Z</time>
      </trkpt>
      <trkpt lat="47.4934" lon="6.66626">
        <ele>411.945</ele>
        <time>2016-06-04T12:02:44.458Z</time>
      </trkpt>
      <trkpt lat="47.4934" lon="6.66626">
        <ele>411.946</ele>
        <time>2016-06-04T12:02:45.458Z</time>
      </trkpt>
      <trkpt lat="47.4934" lon="6.66626">
        <ele>411.948</ele>
        <time>2016-06-04T12:02:46.458Z</time>
      </trkpt>
      <trkpt lat="47.4934" lon="6.66626">
        <ele>411.95</ele>
        <time>2016-06-04T12:02:47.458Z</time>
      </trkpt>
      <trkpt lat="47.4934" lon="6.66626">
        <ele>411.952</ele>
        <time>2016-06-04T12:02:48.458Z</time>
      </trkpt>
      <trkpt lat="47.4934" lon="6.66626">
        <ele>411.954</ele>
        <time>2016-06-04T12:02:49.458Z</time>
      </trkpt>
      <trkpt lat="47.4934" lon="6.66626">
        <ele>411.956</ele>
        <time>2016-06-04T12:02:50.458Z</time>
      </trkpt>
      <trkpt lat="47.4934" lon="6.66626">
        <ele>411.958</ele>
        <time>2016-06-04T12:02:51.458Z</time>
      </trkpt>
      <trkpt lat="47.4934" lon="6.66626">
        <ele>411.959</ele>
        <time>2016-06-04T12:02:52.458Z</time>
      </trkpt>
      <trkpt lat="47.4934" lon="6.66626">
        <ele>411.961</ele>
        <time>2016-06-04T12:02:53.458Z</time>
      </trkpt>
      <trkpt lat="47.4934" lon="6.66626">
        <ele>411.962</ele>
        <time>2016-06-04T12:02:54.458Z</time>
      </trkpt>
      <trkpt lat="47.4934" lon="6.66626">
        <ele>411.964</ele>
        <time>2016-06-04T12:02:55.458Z</time>
      </trkpt>
      <trkpt lat="47.4934" lon="6.66626">
        <ele>411.966</ele>
        <time>2016-06-04T12:02:56.458Z</time>
      </trkpt>
      <trkpt lat="47.4934" lon="6.66626">
        <ele>411.967</ele>
        <time>2016-06-04T12:02:57.458Z</time>
      </trkpt>
      <trkpt lat="47.4934" lon="6.66626">
        <ele>411.968</ele>
        <time>2016-06-04T12:02:58.458Z</time>
      </trkpt>
      <trkpt lat="47.4934" lon="6.66626">
        <ele>411.97</ele>
        <time>2016-06-04T12:02:59.458Z</time>
      </trkpt>
      <trkpt lat="47.4934" lon="6.66626">
        <ele>411.971</ele>
        <time>2016-06-04T12:03:00.458Z</time>
      </trkpt>
      <trkpt lat="47.4934" lon="6.66626">
        <ele>411.973</ele>
        <time>2016-06-04T12:03:01.458Z</time>
      </trkpt>
      <trkpt lat="47.4934" lon="6.66626">
        <ele>411.974</ele>
        <time>2016-06-04T12:03:02.458Z</time>
      </trkpt>
      <trkpt lat="47.4934" lon="6.66626">
        <ele>411.976</ele>
        <time>2016-06-04T12:03:03.458Z</time>
      </trkpt>
      <trkpt lat="47.4934" lon="6.66626">
        <ele>411.977</ele>
        <time>2016-06-04T12:03:04.458Z</time>
      </trkpt>
      <trkpt lat="47.4934" lon="6.66626">
        <ele>411.979</ele>
        <time>2016-06-04T12:03:05.458Z</time>
      </trkpt>
      <trkpt lat="47.4934" lon="6.66626">
        <ele>411.98</ele>
        <time>2016-06-04T12:03:06.458Z</time>
      </trkpt>
      <trkpt lat="47.4934" lon="6.66626">
        <ele>411.982</ele>
        <time>2016-06-04T12:03:07.458Z</time>
      </trkpt>
      <trkpt lat="47.4934" lon="6.66626">
        <ele>411.984</ele>
        <time>2016-06-04T12:03:08.458Z</time>
      </trkpt>
      <trkpt lat="47.4934" lon="6.66626">
        <ele>411.986</ele>
        <time>2016-06-04T12:03:09.458Z</time>
      </trkpt>
      <trkpt lat="47.4934" lon="6.66626">
        <ele>411.988</ele>
        <time>2016-06-04T12:03:10.458Z</time>
      </trkpt>
      <trkpt lat="47.4934" lon="6.66626">
        <ele>411.99</ele>
        <time>2016-06-04T12:03:11.458Z</time>
      </trkpt>
      <trkpt lat="47.4934" lon="6.66626">
        <ele>411.992</ele>
        <time>2016-06-04T12:03:12.458Z</time>
      </trkpt>
      <trkpt lat="47.4934" lon="6.66626">
        <ele>411.995</ele>
        <time>2016-06-04T12:03:13.458Z</time>
      </trkpt>
      <trkpt lat="47.4934" lon="6.66626">
        <ele>411.997</ele>
        <time>2016-06-04T12:03:14.458Z</time>
      </trkpt>
      <trkpt lat="47.4934" lon="6.66626">
        <ele>412</ele>
        <time>2016-06-04T12:03:15.458Z</time>
      </trkpt>
      <trkpt lat="47.4934" lon="6.66626">
        <ele>412.003</ele>
        <time>2016-06-04T12:03:16.458Z</time>
      </trkpt>
      <trkpt lat="47.4934" lon="6.66626">
        <ele>412.006</ele>
        <time>2016-06-04T12:03:17.458Z</time>
      </trkpt>
      <trkpt lat="47.4934" lon="6.66626">
        <ele>412.009</ele>
        <time>2016-06-04T12:03:18.458Z</time>
      </trkpt>
      <trkpt lat="47.4934" lon="6.66626">
        <ele>412.012</ele>
        <time>2016-06-04T12:03:19.458Z</time>
      </trkpt>
      <trkpt lat="47.4934" lon="6.66626">
        <ele>412.016</ele>
        <time>2016-06-04T12:03:20.458Z</time>
      </trkpt>
      <trkpt lat="47.4934" lon="6.66626">
        <ele>412.019</ele>
        <time>2016-06-04T12:03:21.458Z</time>
      </trkpt>
      <trkpt lat="47.4934" lon="6.66626">
        <ele>412.023</ele>
        <time>2016-06-04T12:03:22.458Z</time>
      </trkpt>
      <trkpt lat="47.4934" lon="6.66626">
        <ele>412.027</ele>
        <time>2016-06-04T12:03:23.458Z</time>
      </trkpt>
      <trkpt lat="47.4934" lon="6.66626">
        <ele>412.031</ele>
        <time>2016-06-04T12:03:24.458Z</time>
      </trkpt>
      <trkpt lat="47.4934" lon="6.66626">
        <ele>412.035</ele>
        <time>2016-06-04T12:03:25.458Z</time>
      </trkpt>
      <trkpt lat="47.4934" lon="6.66626">
        <ele>412.039</ele>
        <time>2016-06-04T12:03:26.458Z</time>
      </trkpt>
      <trkpt lat="47.4934" lon="6.66626">
        <ele>412.044</ele>
        <time>2016-06-04T12:03:27.458Z</time>
      </trkpt>
      <trkpt lat="47.4934" lon="6.66626">
        <ele>412.048</ele>
        <time>2016-06-04T12:03:28.458Z</time>
      </trkpt>
      <trkpt lat="47.4934" lon="6.66626">
        <ele>412.053</ele>
        <time>2016-06-04T12:03:29.458Z</time>
      </trkpt>
      <trkpt lat="47.4934" lon="6.66626">
        <ele>412.058</ele>
        <time>2016-06-04T12:03:30.458Z</time>
      </trkpt>
      <trkpt lat="47.4934" lon="6.66626">
        <ele>412.063</ele>
        <time>2016-06-04T12:03:31.458Z</time>
      </trkpt>
      <trkpt lat="47.4934" lon="6.66626">
        <ele>412.068</ele>
        <time>2016-06-04T12:03:32.458Z</time>
      </trkpt>
      <trkpt lat="47.4934" lon="6.66626">
        <ele>412.073</ele>
        <time>2016-06-04T12:03:33.458Z</time>
      </trkpt>
      <trkpt lat="47.4934" lon="6.66626">
        <ele>412.078</ele>
        <time>2016-06-04T12:03:34.458Z</time>
      </trkpt>
      <trkpt lat="47.4934" lon="6.66626">
        <ele>412.083</ele>
        <time>2016-06-04T12:03:35.458Z</time>
      </trkpt>
      <trkpt lat="47.4934" lon="6.66626">
        <ele>412.088</ele>
        <time>2016-06-04T12:03:36.458Z</time>
      </trkpt>
      <trkpt lat="47.4934" lon="6.66626">
        <ele>412.094</ele>
        <time>2016-06-04T12:03:37.458Z</time>
      </trkpt>
      <trkpt lat="47.4934" lon="6.66626">
        <ele>412.099</ele>
        <time>2016-06-04T12:03:38.458Z</time>
      </trkpt>
      <trkpt lat="47.4934" lon="6.66626">
        <ele>412.104</ele>
        <time>2016-06-04T12:03:39.458Z</time>
      </trkpt>
      <trkpt lat="47.4934" lon="6.66626">
        <ele>412.109</ele>
        <time>2016-06-04T12:03:40.458Z</time>
      </trkpt>
      <trkpt lat="47.4934" lon="6.66626">
        <ele>412.115</ele>
        <time>2016-06-04T12:03:41.458Z</time>
      </trkpt>
      <trkpt lat="47.4934" lon="6.66626">
        <ele>412.12</ele>
        <time>2016-06-04T12:03:42.458Z</time>
      </trkpt>
      <trkpt lat="47.4934" lon="6.66626">
        <ele>412.125</ele>
        <time>2016-06-04T12:03:43.458Z</time>
      </trkpt>
      <trkpt lat="47.4934" lon="6.66626">
        <ele>412.129</ele>
        <time>2016-06-04T12:03:44.458Z</time>
      </trkpt>
      <trkpt lat="47.4934" lon="6.66626">
        <ele>412.134</ele>
        <time>2016-06-04T12:03:45.458Z</time>
      </trkpt>
      <trkpt lat="47.4934" lon="6.66626">
        <ele>412.138</ele>
        <time>2016-06-04T12:03:46.458Z</time>
      </trkpt>
      <trkpt lat="47.4934" lon="6.66626">
        <ele>412.143</ele>
        <time>2016-06-04T12:03:47.458Z</time>
      </trkpt>
      <trkpt lat="47.4934" lon="6.66626">
        <ele>412.147</ele>
        <time>2016-06-04T12:03:48.458Z</time>
      </trkpt>
      <trkpt lat="47.4934" lon="6.66626">
        <ele>412.15</ele>
        <time>2016-06-04T12:03:49.458Z</time>
      </trkpt>
      <trkpt lat="47.4934" lon="6.66626">
        <ele>412.154</ele>
        <time>2016-06-04T12:03:50.458Z</time>
      </trkpt>
      <trkpt lat="47.4934" lon="6.66626">
        <ele>412.157</ele>
        <time>2016-06-04T12:03:51.458Z</time>
      </trkpt>
      <trkpt lat="47.4934" lon="6.66626">
        <ele>412.16</ele>
        <time>2016-06-04T12:03:52.458Z</time>
      </trkpt>
      <trkpt lat="47.4934" lon="6.66626">
        <ele>412.163</ele>
        <time>2016-06-04T12:03:53.458Z</time>
      </trkpt>
      <trkpt lat="47.4934" lon="6.66626">
        <ele>412.166</ele>
        <time>2016-06-04T12:03:54.458Z</time>
      </trkpt>
      <trkpt lat="47.4934" lon="6.66626">
        <ele>412.168</ele>
        <time>2016-06-04T12:03:55.458Z</time>
      </trkpt>
      <trkpt lat="47.4934" lon="6.66626">
        <ele>412.17</ele>
        <time>2016-06-04T12:03:56.458Z</time>
      </trkpt>
      <trkpt lat="47.4934" lon="6.66626">
        <ele>412.172</ele>
        <time>2016-06-04T12:03:57.458Z</time>
      </trkpt>
      <trkpt lat="47.4934" lon="6.66626">
        <ele>412.174</ele>
        <time>2016-06-04T12:03:58.458Z</time>
      </trkpt>
      <trkpt lat="47.4934" lon="6.66626">
        <ele>412.176</ele>
        <time>2016-06-04T12:03:59.458Z</time>
      </trkpt>
      <trkpt lat="47.4934" lon="6.66626">
        <ele>412.177</ele>
        <time>2016-06-04T12:04:00.458Z</time>
      </trkpt>
      <trkpt lat="47.4934" lon="6.66626">
        <ele>412.178</ele>
        <time>2016-06-04T12:04:01.458Z</time>
      </trkpt>
      <trkpt lat="47.4934" lon="6.66626">
        <ele>412.179</ele>
        <time>2016-06-04T12:04:02.458Z</time>
      </trkpt>
      <trkpt lat="47.4934" lon="6.66626">
        <ele>412.18</ele>
        <time>2016-06-04T12:04:03.458Z</time>
      </trkpt>
      <trkpt lat="47.4934" lon="6.66626">
        <ele>412.181</ele>
        <time>2016-06-04T12:04:04.458Z</time>
      </trkpt>
      <trkpt lat="47.4934" lon="6.66626">
        <ele>412.181</ele>
        <time>2016-06-04T12:04:05.458Z</time>
      </trkpt>
      <trkpt lat="47.4934" lon="6.66626">
        <ele>412.181</ele>
        <time>2016-06-04T12:04:06.458Z</time>
      </trkpt>
      <trkpt lat="47.4934" lon="6.66626">
        <ele>412.182</ele>
        <time>2016-06-04T12:04:07.458Z</time>
      </trkpt>
      <trkpt lat="47.4934" lon="6.66626">
        <ele>412.182</ele>
        <time>2016-06-04T12:04:08.458Z</time>
      </trkpt>
      <trkpt lat="47.4934" lon="6.66626">
        <ele>412.181</ele>
        <time>2016-06-04T12:04:09.458Z</time>
      </trkpt>
      <trkpt lat="47.4934" lon="6.66626">
        <ele>412.181</ele>
        <time>2016-06-04T12:04:10.458Z</time>
      </trkpt>
      <trkpt lat="47.4934" lon="6.66626">
        <ele>412.181</ele>
        <time>2016-06-04T12:04:11.458Z</time>
      </trkpt>
      <trkpt lat="47.4934" lon="6.66626">
        <ele>412.18</ele>
        <time>2016-06-04T12:04:12.458Z</time>
      </trkpt>
      <trkpt lat="47.4934" lon="6.66626">
        <ele>412.18</ele>
        <time>2016-06-04T12:04:13.458Z</time>
      </trkpt>
      <trkpt lat="47.4934" lon="6.66626">
        <ele>412.179</ele>
        <time>2016-06-04T12:04:14.458Z</time>
      </trkpt>
      <trkpt lat="47.4934" lon="6.66626">
        <ele>412.179</ele>
        <time>2016-06-04T12:04:15.458Z</time>
      </trkpt>
      <trkpt lat="47.4934" lon="6.66626">
        <ele>412.178</ele>
        <time>2016-06-04T12:04:16.458Z</time>
      </trkpt>
      <trkpt lat="47.4934" lon="6.66626">
        <ele>412.177</ele>
        <time>2016-06-04T12:04:17.458Z</time>
      </trkpt>
      <trkpt lat="47.4934" lon="6.66626">
        <ele>412.176</ele>
        <time>2016-06-04T12:04:18.458Z</time>
      </trkpt>
      <trkpt lat="47.4934" lon="6.66626">
        <ele>412.175</ele>
        <time>2016-06-04T12:04:19.458Z</time>
      </trkpt>
      <trkpt lat="47.4934" lon="6.66626">
        <ele>412.175</ele>
        <time>2016-06-04T12:04:20.458Z</time>
      </trkpt>
      <trkpt lat="47.4934" lon="6.66626">
        <ele>412.174</ele>
        <time>2016-06-04T12:04:21.458Z</time>
      </trkpt>
      <trkpt lat="47.4934" lon="6.66626">
        <ele>412.173</ele>
        <time>2016-06-04T12:04:22.458Z</time>
      </trkpt>
      <trkpt lat="47.4934" lon="6.66626">
        <ele>412.172</ele>
        <time>2016-06-04T12:04:23.458Z</time>
      </trkpt>
      <trkpt lat="47.4934" lon="6.66626">
        <ele>412.171</ele>
        <time>2016-06-04T12:04:24.458Z</time>
      </trkpt>
      <trkpt lat="47.4934" lon="6.66626">
        <ele>412.17</ele>
        <time>2016-06-04T12:04:25.458Z</time>
      </trkpt>
      <trkpt lat="47.4934" lon="6.66626">
        <ele>412.169</ele>
        <time>2016-06-04T12:04:26.458Z</time>
      </trkpt>
      <trkpt lat="47.4934" lon="6.66626">
        <ele>412.168</ele>
        <time>2016-06-04T12:04:27.458Z</time>
      </trkpt>
      <trkpt lat="47.4934" lon="6.66626">
        <ele>412.168</ele>
        <time>2016-06-04T12:04:28.458Z</time>
      </trkpt>
      <trkpt lat="47.4934" lon="6.66626">
        <ele>412.167</ele>
        <time>2016-06-04T12:04:29.458Z</time>
      </trkpt>
      <trkpt lat="47.4934" lon="6.66626">
        <ele>412.166</ele>
        <time>2016-06-04T12:04:30.458Z</time>
      </trkpt>
      <trkpt lat="47.4934" lon="6.66626">
        <ele>412.166</ele>
        <time>2016-06-04T12:04:31.458Z</time>
      </trkpt>
      <trkpt lat="47.4934" lon="6.66626">
        <ele>412.165</ele>
        <time>2016-06-04T12:04:32.458Z</time>
      </trkpt>
      <trkpt lat="47.4934" lon="6.66626">
        <ele>412.164</ele>
        <time>2016-06-04T12:04:33.458Z</time>
      </trkpt>
      <trkpt lat="47.4934" lon="6.66626">
        <ele>412.164</ele>
        <time>2016-06-04T12:04:34.458Z</time>
      </trkpt>
      <trkpt lat="47.4934" lon="6.66626">
        <ele>412.164</ele>
        <time>2016-06-04T12:04:35.458Z</time>
      </trkpt>
      <trkpt lat="47.4934" lon="6.66626">
        <ele>412.164</ele>
        <time>2016-06-04T12:04:36.458Z</time>
      </trkpt>
      <trkpt lat="47.4934" lon="6.66626">
        <ele>412.163</ele>
        <time>2016-06-04T12:04:37.458Z</time>
      </trkpt>
      <trkpt lat="47.4934" lon="6.66626">
        <ele>412.163</ele>
        <time>2016-06-04T12:04:38.458Z</time>
      </trkpt>
      <trkpt lat="47.4934" lon="6.66626">
        <ele>412.164</ele>
        <time>2016-06-04T12:04:39.458Z</time>
      </trkpt>
      <trkpt lat="47.4934" lon="6.66626">
        <ele>412.164</ele>
        <time>2016-06-04T12:04:40.458Z</time>
      </trkpt>
      <trkpt lat="47.4934" lon="6.66626">
        <ele>412.165</ele>
        <time>2016-06-04T12:04:41.458Z</time>
      </trkpt>
      <trkpt lat="47.4934" lon="6.66626">
        <ele>412.166</ele>
        <time>2016-06-04T12:04:42.458Z</time>
      </trkpt>
      <trkpt lat="47.4934" lon="6.66626">
        <ele>412.167</ele>
        <time>2016-06-04T12:04:43.458Z</time>
      </trkpt>
      <trkpt lat="47.4934" lon="6.66626">
        <ele>412.168</ele>
        <time>2016-06-04T12:04:44.458Z</time>
      </trkpt>
      <trkpt lat="47.4934" lon="6.66626">
        <ele>412.17</ele>
        <time>2016-06-04T12:04:45.458Z</time>
      </trkpt>
      <trkpt lat="47.4934" lon="6.66626">
        <ele>412.173</ele>
        <time>2016-06-04T12:04:46.458Z</time>
      </trkpt>
      <trkpt lat="47.4934" lon="6.66626">
        <ele>412.175</ele>
        <time>2016-06-04T12:04:47.458Z</time>
      </trkpt>
      <trkpt lat="47.4934" lon="6.66626">
        <ele>412.178</ele>
        <time>2016-06-04T12:04:48.458Z</time>
      </trkpt>
      <trkpt lat="47.4934" lon="6.66626">
        <ele>412.182</ele>
        <time>2016-06-04T12:04:49.458Z</time>
      </trkpt>
      <trkpt lat="47.4934" lon="6.66626">
        <ele>412.186</ele>
        <time>2016-06-04T12:04:50.458Z</time>
      </trkpt>
      <trkpt lat="47.4934" lon="6.66626">
        <ele>412.191</ele>
        <time>2016-06-04T12:04:51.458Z</time>
      </trkpt>
      <trkpt lat="47.4934" lon="6.66626">
        <ele>412.197</ele>
        <time>2016-06-04T12:04:52.458Z</time>
      </trkpt>
      <trkpt lat="47.4934" lon="6.66626">
        <ele>412.203</ele>
        <time>2016-06-04T12:04:53.458Z</time>
      </trkpt>
      <trkpt lat="47.4934" lon="6.66626">
        <ele>412.209</ele>
        <time>2016-06-04T12:04:54.458Z</time>
      </trkpt>
      <trkpt lat="47.4934" lon="6.66626">
        <ele>412.217</ele>
        <time>2016-06-04T12:04:55.458Z</time>
      </trkpt>
      <trkpt lat="47.4934" lon="6.66626">
        <ele>412.225</ele>
        <time>2016-06-04T12:04:56.458Z</time>
      </trkpt>
      <trkpt lat="47.4934" lon="6.66626">
        <ele>412.234</ele>
        <time>2016-06-04T12:04:57.458Z</time>
      </trkpt>
      <trkpt lat="47.4934" lon="6.66626">
        <ele>412.244</ele>
        <time>2016-06-04T12:04:58.458Z</time>
      </trkpt>
      <trkpt lat="47.4934" lon="6.66626">
        <ele>412.254</ele>
        <time>2016-06-04T12:04:59.458Z</time>
      </trkpt>
      <trkpt lat="47.4934" lon="6.66626">
        <ele>412.265</ele>
        <time>2016-06-04T12:05:00.458Z</time>
      </trkpt>
      <trkpt lat="47.4934" lon="6.66626">
        <ele>412.277</ele>
        <time>2016-06-04T12:05:01.458Z</time>
      </trkpt>
      <trkpt lat="47.4934" lon="6.66626">
        <ele>412.29</ele>
        <time>2016-06-04T12:05:02.458Z</time>
      </trkpt>
      <trkpt lat="47.4934" lon="6.66626">
        <ele>412.304</ele>
        <time>2016-06-04T12:05:03.458Z</time>
      </trkpt>
      <trkpt lat="47.4934" lon="6.66626">
        <ele>412.318</ele>
        <time>2016-06-04T12:05:04.458Z</time>
      </trkpt>
      <trkpt lat="47.4934" lon="6.66626">
        <ele>412.333</ele>
        <time>2016-06-04T12:05:05.458Z</time>
      </trkpt>
      <trkpt lat="47.4934" lon="6.66626">
        <ele>412.349</ele>
        <time>2016-06-04T12:05:06.458Z</time>
      </trkpt>
      <trkpt lat="47.4934" lon="6.66626">
        <ele>412.366</ele>
        <time>2016-06-04T12:05:07.458Z</time>
      </trkpt>
      <trkpt lat="47.4934" lon="6.66626">
        <ele>412.384</ele>
        <time>2016-06-04T12:05:08.458Z</time>
      </trkpt>
      <trkpt lat="47.4934" lon="6.66626">
        <ele>412.402</ele>
        <time>2016-06-04T12:05:09.458Z</time>
      </trkpt>
      <trkpt lat="47.4934" lon="6.66626">
        <ele>412.421</ele>
        <time>2016-06-04T12:05:10.458Z</time>
      </trkpt>
      <trkpt lat="47.4934" lon="6.66626">
        <ele>412.441</ele>
        <time>2016-06-04T12:05:11.458Z</time>
      </trkpt>
      <trkpt lat="47.4934" lon="6.66626">
        <ele>412.462</ele>
        <time>2016-06-04T12:05:12.458Z</time>
      </trkpt>
      <trkpt lat="47.4934" lon="6.66626">
        <ele>412.483</ele>
        <time>2016-06-04T12:05:13.458Z</time>
      </trkpt>
      <trkpt lat="47.4934" lon="6.66626">
        <ele>412.506</ele>
        <time>2016-06-04T12:05:14.458Z</time>
      </trkpt>
      <trkpt lat="47.4934" lon="6.66626">
        <ele>412.529</ele>
        <time>2016-06-04T12:05:15.458Z</time>
      </trkpt>
      <trkpt lat="47.4934" lon="6.66626">
        <ele>412.552</ele>
        <time>2016-06-04T12:05:16.458Z</time>
      </trkpt>
      <trkpt lat="47.4934" lon="6.66626">
        <ele>412.577</ele>
        <time>2016-06-04T12:05:17.458Z</time>
      </trkpt>
      <trkpt lat="47.4934" lon="6.66626">
        <ele>412.601</ele>
        <time>2016-06-04T12:05:18.458Z</time>
      </trkpt>
      <trkpt lat="47.4934" lon="6.66626">
        <ele>412.627</ele>
        <time>2016-06-04T12:05:19.458Z</time>
      </trkpt>
      <trkpt lat="47.4934" lon="6.66626">
        <ele>412.653</ele>
        <time>2016-06-04T12:05:20.458Z</time>
      </trkpt>
      <trkpt lat="47.4934" lon="6.66626">
        <ele>412.679</ele>
        <time>2016-06-04T12:05:21.458Z</time>
      </trkpt>
      <trkpt lat="47.4934" lon="6.66626">
        <ele>412.706</ele>
        <time>2016-06-04T12:05:22.458Z</time>
      </trkpt>
      <trkpt lat="47.49339" lon="6.66626">
        <ele>412.734</ele>
        <time>2016-06-04T12:05:23.458Z</time>
      </trkpt>
      <trkpt lat="47.49339" lon="6.66626">
        <ele>412.761</ele>
        <time>2016-06-04T12:05:24.458Z</time>
      </trkpt>
      <trkpt lat="47.49339" lon="6.66626">
        <ele>412.789</ele>
        <time>2016-06-04T12:05:25.458Z</time>
      </trkpt>
      <trkpt lat="47.49339" lon="6.66626">
        <ele>412.818</ele>
        <time>2016-06-04T12:05:26.458Z</time>
      </trkpt>
      <trkpt lat="47.49339" lon="6.66626">
        <ele>412.846</ele>
        <time>2016-06-04T12:05:27.458Z</time>
      </trkpt>
      <trkpt lat="47.49339" lon="6.66626">
        <ele>412.875</ele>
        <time>2016-06-04T12:05:28.458Z</time>
      </trkpt>
      <trkpt lat="47.49339" lon="6.66626">
        <ele>412.904</ele>
        <time>2016-06-04T12:05:29.458Z</time>
      </trkpt>
      <trkpt lat="47.49339" lon="6.66626">
        <ele>412.933</ele>
        <time>2016-06-04T12:05:30.458Z</time>
      </trkpt>
      <trkpt lat="47.49339" lon="6.66626">
        <ele>412.961</ele>
        <time>2016-06-04T12:05:31.458Z</time>
      </trkpt>
      <trkpt lat="47.49339" lon="6.66626">
        <ele>412.99</ele>
        <time>2016-06-04T12:05:32.458Z</time>
      </trkpt>
      <trkpt lat="47.49339" lon="6.66627">
        <ele>413.019</ele>
        <time>2016-06-04T12:05:33.458Z</time>
      </trkpt>
      <trkpt lat="47.49339" lon="6.66627">
        <ele>413.047</ele>
        <time>2016-06-04T12:05:34.458Z</time>
      </trkpt>
      <trkpt lat="47.49339" lon="6.66627">
        <ele>413.076</ele>
        <time>2016-06-04T12:05:35.458Z</time>
      </trkpt>
      <trkpt lat="47.49339" lon="6.66627">
        <ele>413.104</ele>
        <time>2016-06-04T12:05:36.458Z</time>
      </trkpt>
      <trkpt lat="47.49339" lon="6.66627">
        <ele>413.132</ele>
        <time>2016-06-04T12:05:37.458Z</time>
      </trkpt>
      <trkpt lat="47.49339" lon="6.66627">
        <ele>413.159</ele>
        <time>2016-06-04T12:05:38.458Z</time>
      </trkpt>
      <trkpt lat="47.49339" lon="6.66627">
        <ele>413.186</ele>
        <time>2016-06-04T12:05:39.458Z</time>
      </trkpt>
      <trkpt lat="47.49339" lon="6.66627">
        <ele>413.213</ele>
        <time>2016-06-04T12:05:40.458Z</time>
      </trkpt>
      <trkpt lat="47.49339" lon="6.66627">
        <ele>413.24</ele>
        <time>2016-06-04T12:05:41.458Z</time>
      </trkpt>
      <trkpt lat="47.49339" lon="6.66627">
        <ele>413.266</ele>
        <time>2016-06-04T12:05:42.458Z</time>
      </trkpt>
      <trkpt lat="47.49339" lon="6.66627">
        <ele>413.291</ele>
        <time>2016-06-04T12:05:43.458Z</time>
      </trkpt>
      <trkpt lat="47.49339" lon="6.66627">
        <ele>413.316</ele>
        <time>2016-06-04T12:05:44.458Z</time>
      </trkpt>
      <trkpt lat="47.49339" lon="6.66627">
        <ele>413.341</ele>
        <time>2016-06-04T12:05:45.458Z</time>
      </trkpt>
      <trkpt lat="47.49339" lon="6.66627">
        <ele>413.366</ele>
        <time>2016-06-04T12:05:46.458Z</time>
      </trkpt>
      <trkpt lat="47.49339" lon="6.66627">
        <ele>413.39</ele>
        <time>2016-06-04T12:05:47.458Z</time>
      </trkpt>
      <trkpt lat="47.49339" lon="6.66627">
        <ele>413.414</ele>
        <time>2016-06-04T12:05:48.458Z</time>
      </trkpt>
      <trkpt lat="47.49339" lon="6.66627">
        <ele>413.437</ele>
        <time>2016-06-04T12:05:49.458Z</time>
      </trkpt>
      <trkpt lat="47.49339" lon="6.66627">
        <ele>413.46</ele>
        <time>2016-06-04T12:05:50.458Z</time>
      </trkpt>
      <trkpt lat="47.49339" lon="6.66627">
        <ele>413.483</ele>
        <time>2016-06-04T12:05:51.458Z</time>
      </trkpt>
      <trkpt lat="47.49339" lon="6.66627">
        <ele>413.505</ele>
        <time>2016-06-04T12:05:52.458Z</time>
      </trkpt>
      <trkpt lat="47.49339" lon="6.66627">
        <ele>413.528</ele>
        <time>2016-06-04T12:05:53.458Z</time>
      </trkpt>
      <trkpt lat="47.49339" lon="6.66627">
        <ele>413.55</ele>
        <time>2016-06-04T12:05:54.458Z</time>
      </trkpt>
      <trkpt lat="47.49339" lon="6.66627">
        <ele>413.572</ele>
        <time>2016-06-04T12:05:55.458Z</time>
      </trkpt>
      <trkpt lat="47.49339" lon="6.66627">
        <ele>413.593</ele>
        <time>2016-06-04T12:05:56.458Z</time>
      </trkpt>
      <trkpt lat="47.49339" lon="6.66627">
        <ele>413.615</ele>
        <time>2016-06-04T12:05:57.458Z</time>
      </trkpt>
      <trkpt lat="47.49339" lon="6.66627">
        <ele>413.636</ele>
        <time>2016-06-04T12:05:58.458Z</time>
      </trkpt>
      <trkpt lat="47.49339" lon="6.66627">
        <ele>413.658</ele>
        <time>2016-06-04T12:05:59.458Z</time>
      </trkpt>
      <trkpt lat="47.49339" lon="6.66627">
        <ele>413.679</ele>
        <time>2016-06-04T12:06:00.458Z</time>
      </trkpt>
      <trkpt lat="47.49339" lon="6.66627">
        <ele>413.7</ele>
        <time>2016-06-04T12:06:01.458Z</time>
      </trkpt>
      <trkpt lat="47.49339" lon="6.66627">
        <ele>413.72</ele>
        <time>2016-06-04T12:06:02.458Z</time>
      </trkpt>
      <trkpt lat="47.49339" lon="6.66627">
        <ele>413.741</ele>
        <time>2016-06-04T12:06:03.458Z</time>
      </trkpt>
      <trkpt lat="47.49339" lon="6.66627">
        <ele>413.761</ele>
        <time>2016-06-04T12:06:04.458Z</time>
      </trkpt>
      <trkpt lat="47.49339" lon="6.66627">
        <ele>413.781</ele>
        <time>2016-06-04T12:06:05.458Z</time>
      </trkpt>
      <trkpt lat="47.49339" lon="6.66627">
        <ele>413.801</ele>
        <time>2016-06-04T12:06:06.458Z</time>
      </trkpt>
      <trkpt lat="47.49339" lon="6.66627">
        <ele>413.821</ele>
        <time>2016-06-04T12:06:07.458Z</time>
      </trkpt>
      <trkpt lat="47.49339" lon="6.66627">
        <ele>413.84</ele>
        <time>2016-06-04T12:06:08.458Z</time>
      </trkpt>
      <trkpt lat="47.49339" lon="6.66627">
        <ele>413.859</ele>
        <time>2016-06-04T12:06:09.458Z</time>
      </trkpt>
      <trkpt lat="47.49339" lon="6.66627">
        <ele>413.878</ele>
        <time>2016-06-04T12:06:10.458Z</time>
      </trkpt>
      <trkpt lat="47.49339" lon="6.66627">
        <ele>413.896</ele>
        <time>2016-06-04T12:06:11.458Z</time>
      </trkpt>
      <trkpt lat="47.49339" lon="6.66627">
        <ele>413.914</ele>
        <time>2016-06-04T12:06:12.458Z</time>
      </trkpt>
      <trkpt lat="47.49339" lon="6.66627">
        <ele>413.931</ele>
        <time>2016-06-04T12:06:13.458Z</time>
      </trkpt>
      <trkpt lat="47.49338" lon="6.66627">
        <ele>413.948</ele>
        <time>2016-06-04T12:06:14.458Z</time>
      </trkpt>
      <trkpt lat="47.49338" lon="6.66627">
        <ele>413.965</ele>
        <time>2016-06-04T12:06:15.458Z</time>
      </trkpt>
      <trkpt lat="47.49338" lon="6.66627">
        <ele>413.981</ele>
        <time>2016-06-04T12:06:16.458Z</time>
      </trkpt>
      <trkpt lat="47.49338" lon="6.66627">
        <ele>413.996</ele>
        <time>2016-06-04T12:06:17.458Z</time>
      </trkpt>
      <trkpt lat="47.49338" lon="6.66627">
        <ele>414.011</ele>
        <time>2016-06-04T12:06:18.458Z</time>
      </trkpt>
      <trkpt lat="47.49338" lon="6.66627">
        <ele>414.026</ele>
        <time>2016-06-04T12:06:19.458Z</time>
      </trkpt>
      <trkpt lat="47.49338" lon="6.66627">
        <ele>414.041</ele>
        <time>2016-06-04T12:06:20.458Z</time>
      </trkpt>
      <trkpt lat="47.49338" lon="6.66627">
        <ele>414.055</ele>
        <time>2016-06-04T12:06:21.458Z</time>
      </trkpt>
      <trkpt lat="47.49338" lon="6.66627">
        <ele>414.068</ele>
        <time>2016-06-04T12:06:22.458Z</time>
      </trkpt>
      <trkpt lat="47.49338" lon="6.66627">
        <ele>414.082</ele>
        <time>2016-06-04T12:06:23.458Z</time>
      </trkpt>
      <trkpt lat="47.49338" lon="6.66627">
        <ele>414.095</ele>
        <time>2016-06-04T12:06:24.458Z</time>
      </trkpt>
      <trkpt lat="47.49338" lon="6.66627">
        <ele>414.108</ele>
        <time>2016-06-04T12:06:25.458Z</time>
      </trkpt>
      <trkpt lat="47.49338" lon="6.66627">
        <ele>414.12</ele>
        <time>2016-06-04T12:06:26.458Z</time>
      </trkpt>
      <trkpt lat="47.49338" lon="6.66627">
        <ele>414.133</ele>
        <time>2016-06-04T12:06:27.458Z</time>
      </trkpt>
      <trkpt lat="47.49338" lon="6.66627">
        <ele>414.145</ele>
        <time>2016-06-04T12:06:28.458Z</time>
      </trkpt>
      <trkpt lat="47.49338" lon="6.66627">
        <ele>414.157</ele>
        <time>2016-06-04T12:06:29.458Z</time>
      </trkpt>
      <trkpt lat="47.49338" lon="6.66627">
        <ele>414.168</ele>
        <time>2016-06-04T12:06:30.458Z</time>
      </trkpt>
      <trkpt lat="47.49338" lon="6.66627">
        <ele>414.18</ele>
        <time>2016-06-04T12:06:31.458Z</time>
      </trkpt>
      <trkpt lat="47.49338" lon="6.66627">
        <ele>414.191</ele>
        <time>2016-06-04T12:06:32.458Z</time>
      </trkpt>
      <trkpt lat="47.49338" lon="6.66627">
        <ele>414.202</ele>
        <time>2016-06-04T12:06:33.458Z</time>
      </trkpt>
      <trkpt lat="47.49338" lon="6.66627">
        <ele>414.213</ele>
        <time>2016-06-04T12:06:34.458Z</time>
      </trkpt>
      <trkpt lat="47.49338" lon="6.66627">
        <ele>414.224</ele>
        <time>2016-06-04T12:06:35.458Z</time>
      </trkpt>
      <trkpt lat="47.49338" lon="6.66627">
        <ele>414.235</ele>
        <time>2016-06-04T12:06:36.458Z</time>
      </trkpt>
      <trkpt lat="47.49338" lon="6.66627">
        <ele>414.246</ele>
        <time>2016-06-04T12:06:37.458Z</time>
      </trkpt>
      <trkpt lat="47.49338" lon="6.66627">
        <ele>414.256</ele>
        <time>2016-06-04T12:06:38.458Z</time>
      </trkpt>
      <trkpt lat="47.49338" lon="6.66627">
        <ele>414.267</ele>
        <time>2016-06-04T12:06:39.458Z</time>
      </trkpt>
      <trkpt lat="47.49338" lon="6.66627">
        <ele>414.278</ele>
        <time>2016-06-04T12:06:40.458Z</time>
      </trkpt>
      <trkpt lat="47.49338" lon="6.66627">
        <ele>414.288</ele>
        <time>2016-06-04T12:06:41.458Z</time>
      </trkpt>
      <trkpt lat="47.49338" lon="6.66627">
        <ele>414.299</ele>
        <time>2016-06-04T12:06:42.458Z</time>
      </trkpt>
      <trkpt lat="47.49338" lon="6.66627">
        <ele>414.309</ele>
        <time>2016-06-04T12:06:43.458Z</time>
      </trkpt>
      <trkpt lat="47.49338" lon="6.66627">
        <ele>414.32</ele>
        <time>2016-06-04T12:06:44.458Z</time>
      </trkpt>
      <trkpt lat="47.49338" lon="6.66627">
        <ele>414.33</ele>
        <time>2016-06-04T12:06:45.458Z</time>
      </trkpt>
      <trkpt lat="47.49338" lon="6.66627">
        <ele>414.341</ele>
        <time>2016-06-04T12:06:46.458Z</time>
      </trkpt>
      <trkpt lat="47.49338" lon="6.66627">
        <ele>414.351</ele>
        <time>2016-06-04T12:06:47.458Z</time>
      </trkpt>
      <trkpt lat="47.49338" lon="6.66627">
        <ele>414.361</ele>
        <time>2016-06-04T12:06:48.458Z</time>
      </trkpt>
      <trkpt lat="47.49338" lon="6.66627">
        <ele>414.371</ele>
        <time>2016-06-04T12:06:49.458Z</time>
      </trkpt>
      <trkpt lat="47.49338" lon="6.66627">
        <ele>414.381</ele>
        <time>2016-06-04T12:06:50.458Z</time>
      </trkpt>
      <trkpt lat="47.49338" lon="6.66627">
        <ele>414.391</ele>
        <time>2016-06-04T12:06:51.458Z</time>
      </trkpt>
      <trkpt lat="47.49338" lon="6.66627">
        <ele>414.401</ele>
        <time>2016-06-04T12:06:52.458Z</time>
      </trkpt>
      <trkpt lat="47.49338" lon="6.66627">
        <ele>414.411</ele>
        <time>2016-06-04T12:06:53.458Z</time>
      </trkpt>
      <trkpt lat="47.49338" lon="6.66627">
        <ele>414.421</ele>
        <time>2016-06-04T12:06:54.458Z</time>
      </trkpt>
      <trkpt lat="47.49338" lon="6.66627">
        <ele>414.43</ele>
        <time>2016-06-04T12:06:55.458Z</time>
      </trkpt>
      <trkpt lat="47.49338" lon="6.66627">
        <ele>414.439</ele>
        <time>2016-06-04T12:06:56.458Z</time>
      </trkpt>
      <trkpt lat="47.49338" lon="6.66627">
        <ele>414.449</ele>
        <time>2016-06-04T12:06:57.458Z</time>
      </trkpt>
      <trkpt lat="47.49338" lon="6.66627">
        <ele>414.458</ele>
        <time>2016-06-04T12:06:58.458Z</time>
      </trkpt>
      <trkpt lat="47.49338" lon="6.66627">
        <ele>414.467</ele>
        <time>2016-06-04T12:06:59.458Z</time>
      </trkpt>
      <trkpt lat="47.49338" lon="6.66627">
        <ele>414.476</ele>
        <time>2016-06-04T12:07:00.458Z</time>
      </trkpt>
      <trkpt lat="47.49338" lon="6.66627">
        <ele>414.485</ele>
        <time>2016-06-04T12:07:01.458Z</time>
      </trkpt>
      <trkpt lat="47.49338" lon="6.66627">
        <ele>414.493</ele>
        <time>2016-06-04T12:07:02.458Z</time>
      </trkpt>
      <trkpt lat="47.49338" lon="6.66627">
        <ele>414.502</ele>
        <time>2016-06-04T12:07:03.458Z</time>
      </trkpt>
      <trkpt lat="47.49338" lon="6.66627">
        <ele>414.511</ele>
        <time>2016-06-04T12:07:04.458Z</time>
      </trkpt>
      <trkpt lat="47.49338" lon="6.66627">
        <ele>414.519</ele>
        <time>2016-06-04T12:07:05.458Z</time>
      </trkpt>
      <trkpt lat="47.49338" lon="6.66627">
        <ele>414.527</ele>
        <time>2016-06-04T12:07:06.458Z</time>
      </trkpt>
      <trkpt lat="47.49338" lon="6.66627">
        <ele>414.536</ele>
        <time>2016-06-04T12:07:07.458Z</time>
      </trkpt>
      <trkpt lat="47.49338" lon="6.66627">
        <ele>414.544</ele>
        <time>2016-06-04T12:07:08.458Z</time>
      </trkpt>
      <trkpt lat="47.49338" lon="6.66627">
        <ele>414.553</ele>
        <time>2016-06-04T12:07:09.458Z</time>
      </trkpt>
      <trkpt lat="47.49338" lon="6.66627">
        <ele>414.561</ele>
        <time>2016-06-04T12:07:10.458Z</time>
      </trkpt>
      <trkpt lat="47.49338" lon="6.66627">
        <ele>414.569</ele>
        <time>2016-06-04T12:07:11.458Z</time>
      </trkpt>
      <trkpt lat="47.49338" lon="6.66627">
        <ele>414.577</ele>
        <time>2016-06-04T12:07:12.458Z</time>
      </trkpt>
      <trkpt lat="47.49338" lon="6.66627">
        <ele>414.586</ele>
        <time>2016-06-04T12:07:13.458Z</time>
      </trkpt>
      <trkpt lat="47.49338" lon="6.66627">
        <ele>414.594</ele>
        <time>2016-06-04T12:07:14.458Z</time>
      </trkpt>
      <trkpt lat="47.49338" lon="6.66627">
        <ele>414.602</ele>
        <time>2016-06-04T12:07:15.458Z</time>
      </trkpt>
      <trkpt lat="47.49338" lon="6.66627">
        <ele>414.61</ele>
        <time>2016-06-04T12:07:16.458Z</time>
      </trkpt>
      <trkpt lat="47.49338" lon="6.66627">
        <ele>414.618</ele>
        <time>2016-06-04T12:07:17.458Z</time>
      </trkpt>
      <trkpt lat="47.49338" lon="6.66627">
        <ele>414.626</ele>
        <time>2016-06-04T12:07:18.458Z</time>
      </trkpt>
      <trkpt lat="47.49338" lon="6.66627">
        <ele>414.634</ele>
        <time>2016-06-04T12:07:19.458Z</time>
      </trkpt>
      <trkpt lat="47.49338" lon="6.66627">
        <ele>414.642</ele>
        <time>2016-06-04T12:07:20.458Z</time>
      </trkpt>
      <trkpt lat="47.49338" lon="6.66627">
        <ele>414.65</ele>
        <time>2016-06-04T12:07:21.458Z</time>
      </trkpt>
      <trkpt lat="47.49338" lon="6.66627">
        <ele>414.658</ele>
        <time>2016-06-04T12:07:22.458Z</time>
      </trkpt>
      <trkpt lat="47.49338" lon="6.66627">
        <ele>414.666</ele>
        <time>2016-06-04T12:07:23.458Z</time>
      </trkpt>
      <trkpt lat="47.49338" lon="6.66627">
        <ele>414.674</ele>
        <time>2016-06-04T12:07:24.458Z</time>
      </trkpt>
      <trkpt lat="47.49338" lon="6.66627">
        <ele>414.682</ele>
        <time>2016-06-04T12:07:25.458Z</time>
      </trkpt>
      <trkpt lat="47.49338" lon="6.66627">
        <ele>414.689</ele>
        <time>2016-06-04T12:07:26.458Z</time>
      </trkpt>
      <trkpt lat="47.49338" lon="6.66627">
        <ele>414.697</ele>
        <time>2016-06-04T12:07:27.458Z</time>
      </trkpt>
      <trkpt lat="47.49338" lon="6.66627">
        <ele>414.704</ele>
        <time>2016-06-04T12:07:28.458Z</time>
      </trkpt>
      <trkpt lat="47.49338" lon="6.66627">
        <ele>414.712</ele>
        <time>2016-06-04T12:07:29.458Z</time>
      </trkpt>
      <trkpt lat="47.49338" lon="6.66627">
        <ele>414.719</ele>
        <time>2016-06-04T12:07:30.458Z</time>
      </trkpt>
      <trkpt lat="47.49338" lon="6.66627">
        <ele>414.726</ele>
        <time>2016-06-04T12:07:31.458Z</time>
      </trkpt>
      <trkpt lat="47.49338" lon="6.66627">
        <ele>414.733</ele>
        <time>2016-06-04T12:07:32.458Z</time>
      </trkpt>
      <trkpt lat="47.49338" lon="6.66627">
        <ele>414.74</ele>
        <time>2016-06-04T12:07:33.458Z</time>
      </trkpt>
      <trkpt lat="47.49338" lon="6.66627">
        <ele>414.747</ele>
        <time>2016-06-04T12:07:34.458Z</time>
      </trkpt>
      <trkpt lat="47.49338" lon="6.66627">
        <ele>414.754</ele>
        <time>2016-06-04T12:07:35.458Z</time>
      </trkpt>
      <trkpt lat="47.49338" lon="6.66627">
        <ele>414.761</ele>
        <time>2016-06-04T12:07:36.458Z</time>
      </trkpt>
      <trkpt lat="47.49338" lon="6.66627">
        <ele>414.768</ele>
        <time>2016-06-04T12:07:37.458Z</time>
      </trkpt>
      <trkpt lat="47.49338" lon="6.66627">
        <ele>414.775</ele>
        <time>2016-06-04T12:07:38.458Z</time>
      </trkpt>
      <trkpt lat="47.49338" lon="6.66627">
        <ele>414.781</ele>
        <time>2016-06-04T12:07:39.458Z</time>
      </trkpt>
      <trkpt lat="47.49338" lon="6.66627">
        <ele>414.788</ele>
        <time>2016-06-04T12:07:40.458Z</time>
      </trkpt>
      <trkpt lat="47.49338" lon="6.66627">
        <ele>414.795</ele>
        <time>2016-06-04T12:07:41.458Z</time>
      </trkpt>
      <trkpt lat="47.49338" lon="6.66627">
        <ele>414.295</ele>
        <time>2016-06-04T12:07:42.795Z</time>
      </trkpt>
      <trkpt lat="47.49338" lon="6.66627">
        <ele>409.377</ele>
        <time>2016-06-04T12:07:43.404Z</time>
      </trkpt>
      <trkpt lat="47.49338" lon="6.66627">
        <ele>409.638</ele>
        <time>2016-06-04T12:07:44.010Z</time>
      </trkpt>
      <trkpt lat="47.49338" lon="6.66627">
        <ele>409.662</ele>
        <time>2016-06-04T12:07:45.006Z</time>
      </trkpt>
      <trkpt lat="47.49338" lon="6.66627">
        <ele>409.627</ele>
        <time>2016-06-04T12:07:46.002Z</time>
      </trkpt>
      <trkpt lat="47.49338" lon="6.66627">
        <ele>409.713</ele>
        <time>2016-06-04T12:07:47.000Z</time>
      </trkpt>
      <trkpt lat="47.49338" lon="6.66627">
        <ele>409.846</ele>
        <time>2016-06-04T12:07:48.000Z</time>
      </trkpt>
      <trkpt lat="47.49338" lon="6.66627">
        <ele>409.938</ele>
        <time>2016-06-04T12:07:49.000Z</time>
      </trkpt>
      <trkpt lat="47.49338" lon="6.66627">
        <ele>411.703</ele>
        <time>2016-06-04T12:07:50.000Z</time>
      </trkpt>
      <trkpt lat="47.49338" lon="6.66627">
        <ele>411.903</ele>
        <time>2016-06-04T12:07:51.000Z</time>
      </trkpt>
      <trkpt lat="47.49338" lon="6.66627">
        <ele>412.103</ele>
        <time>2016-06-04T12:07:52.000Z</time>
      </trkpt>
      <trkpt lat="47.49338" lon="6.66627">
        <ele>412.301</ele>
        <time>2016-06-04T12:07:53.000Z</time>
      </trkpt>
      <trkpt lat="47.49338" lon="6.66627">
        <ele>412.496</ele>
        <time>2016-06-04T12:07:54.000Z</time>
      </trkpt>
      <trkpt lat="47.49338" lon="6.66627">
        <ele>412.686</ele>
        <time>2016-06-04T12:07:55.000Z</time>
      </trkpt>
      <trkpt lat="47.49338" lon="6.66627">
        <ele>412.871</ele>
        <time>2016-06-04T12:07:56.000Z</time>
      </trkpt>
      <trkpt lat="47.49338" lon="6.66626">
        <ele>413.048</ele>
        <time>2016-06-04T12:07:57.000Z</time>
      </trkpt>
      <trkpt lat="47.49338" lon="6.66626">
        <ele>413.219</ele>
        <time>2016-06-04T12:07:58.000Z</time>
      </trkpt>
      <trkpt lat="47.49338" lon="6.66626">
        <ele>413.382</ele>
        <time>2016-06-04T12:07:59.000Z</time>
      </trkpt>
      <trkpt lat="47.49338" lon="6.66626">
        <ele>413.536</ele>
        <time>2016-06-04T12:08:00.000Z</time>
      </trkpt>
      <trkpt lat="47.49338" lon="6.66626">
        <ele>413.682</ele>
        <time>2016-06-04T12:08:01.000Z</time>
      </trkpt>
      <trkpt lat="47.49338" lon="6.66626">
        <ele>413.819</ele>
        <time>2016-06-04T12:08:02.000Z</time>
      </trkpt>
      <trkpt lat="47.49338" lon="6.66626">
        <ele>413.948</ele>
        <time>2016-06-04T12:08:03.000Z</time>
      </trkpt>
      <trkpt lat="47.49338" lon="6.66626">
        <ele>414.067</ele>
        <time>2016-06-04T12:08:04.000Z</time>
      </trkpt>
      <trkpt lat="47.49338" lon="6.66626">
        <ele>414.178</ele>
        <time>2016-06-04T12:08:05.000Z</time>
      </trkpt>
      <trkpt lat="47.49338" lon="6.66626">
        <ele>414.281</ele>
        <time>2016-06-04T12:08:06.000Z</time>
      </trkpt>
      <trkpt lat="47.49338" lon="6.66626">
        <ele>414.375</ele>
        <time>2016-06-04T12:08:07.000Z</time>
      </trkpt>
      <trkpt lat="47.49338" lon="6.66626">
        <ele>414.461</ele>
        <time>2016-06-04T12:08:08.000Z</time>
      </trkpt>
      <trkpt lat="47.49338" lon="6.66626">
        <ele>414.54</ele>
        <time>2016-06-04T12:08:09.000Z</time>
      </trkpt>
      <trkpt lat="47.49338" lon="6.66626">
        <ele>414.612</ele>
        <time>2016-06-04T12:08:10.000Z</time>
      </trkpt>
      <trkpt lat="47.49338" lon="6.66626">
        <ele>414.677</ele>
        <time>2016-06-04T12:08:11.000Z</time>
      </trkpt>
      <trkpt lat="47.49338" lon="6.66626">
        <ele>414.736</ele>
        <time>2016-06-04T12:08:12.000Z</time>
      </trkpt>
      <trkpt lat="47.49338" lon="6.66626">
        <ele>414.789</ele>
        <time>2016-06-04T12:08:13.000Z</time>
      </trkpt>
      <trkpt lat="47.49338" lon="6.66626">
        <ele>414.836</ele>
        <time>2016-06-04T12:08:14.000Z</time>
      </trkpt>
      <trkpt lat="47.49338" lon="6.66626">
        <ele>414.879</ele>
        <time>2016-06-04T12:08:15.000Z</time>
      </trkpt>
      <trkpt lat="47.49338" lon="6.66626">
        <ele>414.917</ele>
        <time>2016-06-04T12:08:16.000Z</time>
      </trkpt>
      <trkpt lat="47.49338" lon="6.66627">
        <ele>414.95</ele>
        <time>2016-06-04T12:08:17.000Z</time>
      </trkpt>
      <trkpt lat="47.49338" lon="6.66627">
        <ele>414.981</ele>
        <time>2016-06-04T12:08:18.000Z</time>
      </trkpt>
      <trkpt lat="47.49338" lon="6.66627">
        <ele>415.007</ele>
        <time>2016-06-04T12:08:19.000Z</time>
      </trkpt>
      <trkpt lat="47.49338" lon="6.66627">
        <ele>415.031</ele>
        <time>2016-06-04T12:08:20.000Z</time>
      </trkpt>
      <trkpt lat="47.49338" lon="6.66626">
        <ele>415.052</ele>
        <time>2016-06-04T12:08:21.000Z</time>
      </trkpt>
      <trkpt lat="47.49338" lon="6.66626">
        <ele>415.07</ele>
        <time>2016-06-04T12:08:22.000Z</time>
      </trkpt>
      <trkpt lat="47.49338" lon="6.66626">
        <ele>415.087</ele>
        <time>2016-06-04T12:08:23.000Z</time>
      </trkpt>
      <trkpt lat="47.49338" lon="6.66626">
        <ele>415.101</ele>
        <time>2016-06-04T12:08:24.000Z</time>
      </trkpt>
      <trkpt lat="47.49338" lon="6.66626">
        <ele>415.114</ele>
        <time>2016-06-04T12:08:25.000Z</time>
      </trkpt>
      <trkpt lat="47.49338" lon="6.66626">
        <ele>415.125</ele>
        <time>2016-06-04T12:08:26.000Z</time>
      </trkpt>
      <trkpt lat="47.49338" lon="6.66626">
        <ele>415.134</ele>
        <time>2016-06-04T12:08:27.000Z</time>
      </trkpt>
      <trkpt lat="47.49338" lon="6.66626">
        <ele>415.143</ele>
        <time>2016-06-04T12:08:28.000Z</time>
      </trkpt>
      <trkpt lat="47.49338" lon="6.66626">
        <ele>415.151</ele>
        <time>2016-06-04T12:08:29.000Z</time>
      </trkpt>
      <trkpt lat="47.49338" lon="6.66626">
        <ele>415.157</ele>
        <time>2016-06-04T12:08:30.000Z</time>
      </trkpt>
      <trkpt lat="47.49338" lon="6.66626">
        <ele>415.163</ele>
        <time>2016-06-04T12:08:31.000Z</time>
      </trkpt>
      <trkpt lat="47.49338" lon="6.66626">
        <ele>415.168</ele>
        <time>2016-06-04T12:08:32.000Z</time>
      </trkpt>
      <trkpt lat="47.49338" lon="6.66626">
        <ele>415.173</ele>
        <time>2016-06-04T12:08:33.000Z</time>
      </trkpt>
      <trkpt lat="47.49338" lon="6.66626">
        <ele>415.177</ele>
        <time>2016-06-04T12:08:34.000Z</time>
      </trkpt>
      <trkpt lat="47.49338" lon="6.66626">
        <ele>415.18</ele>
        <time>2016-06-04T12:08:35.000Z</time>
      </trkpt>
      <trkpt lat="47.49338" lon="6.66626">
        <ele>415.184</ele>
        <time>2016-06-04T12:08:36.000Z</time>
      </trkpt>
      <trkpt lat="47.49338" lon="6.66626">
        <ele>415.186</ele>
        <time>2016-06-04T12:08:37.000Z</time>
      </trkpt>
      <trkpt lat="47.49338" lon="6.66626">
        <ele>415.189</ele>
        <time>2016-06-04T12:08:38.000Z</time>
      </trkpt>
      <trkpt lat="47.49338" lon="6.66626">
        <ele>415.191</ele>
        <time>2016-06-04T12:08:39.000Z</time>
      </trkpt>
      <trkpt lat="47.49338" lon="6.66626">
        <ele>415.193</ele>
        <time>2016-06-04T12:08:40.000Z</time>
      </trkpt>
      <trkpt lat="47.49338" lon="6.66626">
        <ele>415.195</ele>
        <time>2016-06-04T12:08:41.000Z</time>
      </trkpt>
      <trkpt lat="47.49338" lon="6.66626">
        <ele>415.197</ele>
        <time>2016-06-04T12:08:42.000Z</time>
      </trkpt>
      <trkpt lat="47.49338" lon="6.66626">
        <ele>415.199</ele>
        <time>2016-06-04T12:08:43.000Z</time>
      </trkpt>
      <trkpt lat="47.49338" lon="6.66626">
        <ele>415.201</ele>
        <time>2016-06-04T12:08:44.000Z</time>
      </trkpt>
      <trkpt lat="47.49338" lon="6.66626">
        <ele>415.203</ele>
        <time>2016-06-04T12:08:45.000Z</time>
      </trkpt>
      <trkpt lat="47.49338" lon="6.66626">
        <ele>415.205</ele>
        <time>2016-06-04T12:08:46.000Z</time>
      </trkpt>
      <trkpt lat="47.49338" lon="6.66626">
        <ele>415.207</ele>
        <time>2016-06-04T12:08:47.000Z</time>
      </trkpt>
      <trkpt lat="47.49338" lon="6.66626">
        <ele>415.209</ele>
        <time>2016-06-04T12:08:48.000Z</time>
      </trkpt>
      <trkpt lat="47.49338" lon="6.66626">
        <ele>415.212</ele>
        <time>2016-06-04T12:08:49.000Z</time>
      </trkpt>
      <trkpt lat="47.49338" lon="6.66626">
        <ele>415.214</ele>
        <time>2016-06-04T12:08:50.000Z</time>
      </trkpt>
      <trkpt lat="47.49338" lon="6.66626">
        <ele>415.217</ele>
        <time>2016-06-04T12:08:51.000Z</time>
      </trkpt>
      <trkpt lat="47.49338" lon="6.66626">
        <ele>415.22</ele>
        <time>2016-06-04T12:08:52.000Z</time>
      </trkpt>
      <trkpt lat="47.49338" lon="6.66626">
        <ele>415.224</ele>
        <time>2016-06-04T12:08:53.000Z</time>
      </trkpt>
      <trkpt lat="47.49338" lon="6.66626">
        <ele>415.228</ele>
        <time>2016-06-04T12:08:54.000Z</time>
      </trkpt>
      <trkpt lat="47.49338" lon="6.66626">
        <ele>415.233</ele>
        <time>2016-06-04T12:08:55.000Z</time>
      </trkpt>
      <trkpt lat="47.49338" lon="6.66626">
        <ele>415.238</ele>
        <time>2016-06-04T12:08:56.000Z</time>
      </trkpt>
      <trkpt lat="47.49338" lon="6.66626">
        <ele>415.243</ele>
        <time>2016-06-04T12:08:57.000Z</time>
      </trkpt>
      <trkpt lat="47.49338" lon="6.66626">
        <ele>415.249</ele>
        <time>2016-06-04T12:08:58.000Z</time>
      </trkpt>
      <trkpt lat="47.49338" lon="6.66626">
        <ele>415.255</ele>
        <time>2016-06-04T12:08:59.000Z</time>
      </trkpt>
      <trkpt lat="47.49338" lon="6.66626">
        <ele>415.262</ele>
        <time>2016-06-04T12:09:00.000Z</time>
      </trkpt>
      <trkpt lat="47.49338" lon="6.66626">
        <ele>415.269</ele>
        <time>2016-06-04T12:09:01.000Z</time>
      </trkpt>
      <trkpt lat="47.49338" lon="6.66626">
        <ele>415.277</ele>
        <time>2016-06-04T12:09:02.000Z</time>
      </trkpt>
      <trkpt lat="47.49338" lon="6.66626">
        <ele>415.285</ele>
        <time>2016-06-04T12:09:03.000Z</time>
      </trkpt>
      <trkpt lat="47.49338" lon="6.66626">
        <ele>415.293</ele>
        <time>2016-06-04T12:09:04.000Z</time>
      </trkpt>
      <trkpt lat="47.49338" lon="6.66626">
        <ele>415.302</ele>
        <time>2016-06-04T12:09:05.000Z</time>
      </trkpt>
      <trkpt lat="47.49338" lon="6.66626">
        <ele>415.31</ele>
        <time>2016-06-04T12:09:06.000Z</time>
      </trkpt>
      <trkpt lat="47.49338" lon="6.66626">
        <ele>415.32</ele>
        <time>2016-06-04T12:09:07.000Z</time>
      </trkpt>
      <trkpt lat="47.49338" lon="6.66626">
        <ele>415.329</ele>
        <time>2016-06-04T12:09:08.000Z</time>
      </trkpt>
      <trkpt lat="47.49338" lon="6.66626">
        <ele>415.339</ele>
        <time>2016-06-04T12:09:09.000Z</time>
      </trkpt>
      <trkpt lat="47.49338" lon="6.66626">
        <ele>415.349</ele>
        <time>2016-06-04T12:09:10.000Z</time>
      </trkpt>
      <trkpt lat="47.49338" lon="6.66626">
        <ele>415.359</ele>
        <time>2016-06-04T12:09:11.000Z</time>
      </trkpt>
      <trkpt lat="47.49338" lon="6.66626">
        <ele>415.369</ele>
        <time>2016-06-04T12:09:12.000Z</time>
      </trkpt>
      <trkpt lat="47.49338" lon="6.66626">
        <ele>415.38</ele>
        <time>2016-06-04T12:09:13.000Z</time>
      </trkpt>
      <trkpt lat="47.49338" lon="6.66626">
        <ele>415.391</ele>
        <time>2016-06-04T12:09:14.000Z</time>
      </trkpt>
      <trkpt lat="47.49338" lon="6.66626">
        <ele>415.403</ele>
        <time>2016-06-04T12:09:15.000Z</time>
      </trkpt>
      <trkpt lat="47.49338" lon="6.66626">
        <ele>415.414</ele>
        <time>2016-06-04T12:09:16.000Z</time>
      </trkpt>
      <trkpt lat="47.49338" lon="6.66626">
        <ele>415.427</ele>
        <time>2016-06-04T12:09:17.000Z</time>
      </trkpt>
      <trkpt lat="47.49338" lon="6.66626">
        <ele>415.439</ele>
        <time>2016-06-04T12:09:18.000Z</time>
      </trkpt>
      <trkpt lat="47.49338" lon="6.66626">
        <ele>415.452</ele>
        <time>2016-06-04T12:09:19.000Z</time>
      </trkpt>
      <trkpt lat="47.49338" lon="6.66626">
        <ele>415.465</ele>
        <time>2016-06-04T12:09:20.000Z</time>
      </trkpt>
      <trkpt lat="47.49338" lon="6.66626">
        <ele>415.479</ele>
        <time>2016-06-04T12:09:21.000Z</time>
      </trkpt>
      <trkpt lat="47.49338" lon="6.66626">
        <ele>415.492</ele>
        <time>2016-06-04T12:09:22.000Z</time>
      </trkpt>
      <trkpt lat="47.49338" lon="6.66626">
        <ele>415.506</ele>
        <time>2016-06-04T12:09:23.000Z</time>
      </trkpt>
      <trkpt lat="47.49338" lon="6.66626">
        <ele>415.52</ele>
        <time>2016-06-04T12:09:24.000Z</time>
      </trkpt>
      <trkpt lat="47.49338" lon="6.66626">
        <ele>415.535</ele>
        <time>2016-06-04T12:09:25.000Z</time>
      </trkpt>
      <trkpt lat="47.49338" lon="6.66626">
        <ele>415.549</ele>
        <time>2016-06-04T12:09:26.000Z</time>
      </trkpt>
      <trkpt lat="47.49338" lon="6.66626">
        <ele>415.563</ele>
        <time>2016-06-04T12:09:27.000Z</time>
      </trkpt>
      <trkpt lat="47.49338" lon="6.66626">
        <ele>415.577</ele>
        <time>2016-06-04T12:09:28.000Z</time>
      </trkpt>
      <trkpt lat="47.49338" lon="6.66626">
        <ele>415.591</ele>
        <time>2016-06-04T12:09:29.000Z</time>
      </trkpt>
      <trkpt lat="47.49338" lon="6.66626">
        <ele>415.605</ele>
        <time>2016-06-04T12:09:30.000Z</time>
      </trkpt>
      <trkpt lat="47.49338" lon="6.66626">
        <ele>415.618</ele>
        <time>2016-06-04T12:09:31.000Z</time>
      </trkpt>
      <trkpt lat="47.49338" lon="6.66626">
        <ele>415.631</ele>
        <time>2016-06-04T12:09:32.000Z</time>
      </trkpt>
      <trkpt lat="47.49338" lon="6.66626">
        <ele>415.644</ele>
        <time>2016-06-04T12:09:33.000Z</time>
      </trkpt>
      <trkpt lat="47.49338" lon="6.66626">
        <ele>415.657</ele>
        <time>2016-06-04T12:09:34.000Z</time>
      </trkpt>
      <trkpt lat="47.49337" lon="6.66627">
        <ele>415.668</ele>
        <time>2016-06-04T12:09:35.000Z</time>
      </trkpt>
      <trkpt lat="47.49337" lon="6.66627">
        <ele>415.68</ele>
        <time>2016-06-04T12:09:36.000Z</time>
      </trkpt>
      <trkpt lat="47.49337" lon="6.66627">
        <ele>415.691</ele>
        <time>2016-06-04T12:09:37.000Z</time>
      </trkpt>
      <trkpt lat="47.49337" lon="6.66627">
        <ele>415.701</ele>
        <time>2016-06-04T12:09:38.000Z</time>
      </trkpt>
      <trkpt lat="47.49337" lon="6.66627">
        <ele>415.711</ele>
        <time>2016-06-04T12:09:39.000Z</time>
      </trkpt>
      <trkpt lat="47.49337" lon="6.66627">
        <ele>415.72</ele>
        <time>2016-06-04T12:09:40.000Z</time>
      </trkpt>
      <trkpt lat="47.49337" lon="6.66627">
        <ele>415.728</ele>
        <time>2016-06-04T12:09:41.000Z</time>
      </trkpt>
      <trkpt lat="47.49337" lon="6.66627">
        <ele>415.736</ele>
        <time>2016-06-04T12:09:42.000Z</time>
      </trkpt>
      <trkpt lat="47.49337" lon="6.66627">
        <ele>415.743</ele>
        <time>2016-06-04T12:09:43.000Z</time>
      </trkpt>
      <trkpt lat="47.49337" lon="6.66627">
        <ele>415.749</ele>
        <time>2016-06-04T12:09:44.000Z</time>
      </trkpt>
      <trkpt lat="47.49337" lon="6.66627">
        <ele>415.755</ele>
        <time>2016-06-04T12:09:45.000Z</time>
      </trkpt>
      <trkpt lat="47.49337" lon="6.66627">
        <ele>415.76</ele>
        <time>2016-06-04T12:09:46.000Z</time>
      </trkpt>
      <trkpt lat="47.49337" lon="6.66627">
        <ele>415.764</ele>
        <time>2016-06-04T12:09:47.000Z</time>
      </trkpt>
      <trkpt lat="47.49337" lon="6.66627">
        <ele>415.768</ele>
        <time>2016-06-04T12:09:48.000Z</time>
      </trkpt>
      <trkpt lat="47.49337" lon="6.66627">
        <ele>415.77</ele>
        <time>2016-06-04T12:09:49.000Z</time>
      </trkpt>
      <trkpt lat="47.49337" lon="6.66627">
        <ele>415.773</ele>
        <time>2016-06-04T12:09:50.000Z</time>
      </trkpt>
      <trkpt lat="47.49337" lon="6.66627">
        <ele>415.774</ele>
        <time>2016-06-04T12:09:51.000Z</time>
      </trkpt>
      <trkpt lat="47.49337" lon="6.66626">
        <ele>415.776</ele>
        <time>2016-06-04T12:09:52.000Z</time>
      </trkpt>
      <trkpt lat="47.49337" lon="6.66626">
        <ele>415.776</ele>
        <time>2016-06-04T12:09:53.000Z</time>
      </trkpt>
      <trkpt lat="47.49337" lon="6.66626">
        <ele>415.777</ele>
        <time>2016-06-04T12:09:54.000Z</time>
      </trkpt>
      <trkpt lat="47.49337" lon="6.66626">
        <ele>415.777</ele>
        <time>2016-06-04T12:09:55.000Z</time>
      </trkpt>
      <trkpt lat="47.49337" lon="6.66626">
        <ele>415.777</ele>
        <time>2016-06-04T12:09:56.000Z</time>
      </trkpt>
      <trkpt lat="47.49337" lon="6.66626">
        <ele>415.777</ele>
        <time>2016-06-04T12:09:57.000Z</time>
      </trkpt>
      <trkpt lat="47.49337" lon="6.66626">
        <ele>415.776</ele>
        <time>2016-06-04T12:09:58.000Z</time>
      </trkpt>
      <trkpt lat="47.49337" lon="6.66626">
        <ele>415.776</ele>
        <time>2016-06-04T12:09:59.000Z</time>
      </trkpt>
      <trkpt lat="47.49337" lon="6.66626">
        <ele>415.775</ele>
        <time>2016-06-04T12:10:00.000Z</time>
      </trkpt>
      <trkpt lat="47.49337" lon="6.66626">
        <ele>415.775</ele>
        <time>2016-06-04T12:10:01.000Z</time>
      </trkpt>
      <trkpt lat="47.49337" lon="6.66626">
        <ele>415.775</ele>
        <time>2016-06-04T12:10:02.000Z</time>
      </trkpt>
      <trkpt lat="47.49337" lon="6.66626">
        <ele>415.775</ele>
        <time>2016-06-04T12:10:03.000Z</time>
      </trkpt>
      <trkpt lat="47.49337" lon="6.66626">
        <ele>415.775</ele>
        <time>2016-06-04T12:10:04.000Z</time>
      </trkpt>
      <trkpt lat="47.49337" lon="6.66626">
        <ele>415.776</ele>
        <time>2016-06-04T12:10:05.000Z</time>
      </trkpt>
      <trkpt lat="47.49337" lon="6.66626">
        <ele>415.776</ele>
        <time>2016-06-04T12:10:06.000Z</time>
      </trkpt>
      <trkpt lat="47.49337" lon="6.66626">
        <ele>415.778</ele>
        <time>2016-06-04T12:10:07.000Z</time>
      </trkpt>
      <trkpt lat="47.49337" lon="6.66626">
        <ele>415.779</ele>
        <time>2016-06-04T12:10:08.000Z</time>
      </trkpt>
      <trkpt lat="47.49338" lon="6.66626">
        <ele>415.781</ele>
        <time>2016-06-04T12:10:09.000Z</time>
      </trkpt>
      <trkpt lat="47.49338" lon="6.66626">
        <ele>415.783</ele>
        <time>2016-06-04T12:10:10.000Z</time>
      </trkpt>
      <trkpt lat="47.49338" lon="6.66626">
        <ele>415.786</ele>
        <time>2016-06-04T12:10:11.000Z</time>
      </trkpt>
      <trkpt lat="47.49338" lon="6.66626">
        <ele>415.789</ele>
        <time>2016-06-04T12:10:12.000Z</time>
      </trkpt>
      <trkpt lat="47.49337" lon="6.66626">
        <ele>415.793</ele>
        <time>2016-06-04T12:10:13.000Z</time>
      </trkpt>
      <trkpt lat="47.49337" lon="6.66626">
        <ele>415.796</ele>
        <time>2016-06-04T12:10:14.000Z</time>
      </trkpt>
      <trkpt lat="47.49337" lon="6.66626">
        <ele>415.801</ele>
        <time>2016-06-04T12:10:15.000Z</time>
      </trkpt>
      <trkpt lat="47.49337" lon="6.66626">
        <ele>415.805</ele>
        <time>2016-06-04T12:10:16.000Z</time>
      </trkpt>
      <trkpt lat="47.49337" lon="6.66626">
        <ele>415.81</ele>
        <time>2016-06-04T12:10:17.000Z</time>
      </trkpt>
      <trkpt lat="47.49337" lon="6.66626">
        <ele>415.815</ele>
        <time>2016-06-04T12:10:18.000Z</time>
      </trkpt>
      <trkpt lat="47.49337" lon="6.66626">
        <ele>415.82</ele>
        <time>2016-06-04T12:10:19.000Z</time>
      </trkpt>
      <trkpt lat="47.49337" lon="6.66626">
        <ele>415.825</ele>
        <time>2016-06-04T12:10:20.000Z</time>
      </trkpt>
      <trkpt lat="47.49337" lon="6.66626">
        <ele>415.831</ele>
        <time>2016-06-04T12:10:21.000Z</time>
      </trkpt>
      <trkpt lat="47.49337" lon="6.66626">
        <ele>415.837</ele>
        <time>2016-06-04T12:10:22.000Z</time>
      </trkpt>
      <trkpt lat="47.49337" lon="6.66626">
        <ele>415.842</ele>
        <time>2016-06-04T12:10:23.000Z</time>
      </trkpt>
      <trkpt lat="47.49337" lon="6.66626">
        <ele>415.848</ele>
        <time>2016-06-04T12:10:24.000Z</time>
      </trkpt>
      <trkpt lat="47.49337" lon="6.66626">
        <ele>415.854</ele>
        <time>2016-06-04T12:10:25.000Z</time>
      </trkpt>
      <trkpt lat="47.49337" lon="6.66626">
        <ele>415.859</ele>
        <time>2016-06-04T12:10:26.000Z</time>
      </trkpt>
      <trkpt lat="47.49337" lon="6.66626">
        <ele>415.865</ele>
        <time>2016-06-04T12:10:27.000Z</time>
      </trkpt>
      <trkpt lat="47.49337" lon="6.66626">
        <ele>415.871</ele>
        <time>2016-06-04T12:10:28.000Z</time>
      </trkpt>
      <trkpt lat="47.49337" lon="6.66626">
        <ele>415.877</ele>
        <time>2016-06-04T12:10:29.000Z</time>
      </trkpt>
      <trkpt lat="47.49337" lon="6.66626">
        <ele>415.883</ele>
        <time>2016-06-04T12:10:30.000Z</time>
      </trkpt>
      <trkpt lat="47.49337" lon="6.66626">
        <ele>415.889</ele>
        <time>2016-06-04T12:10:31.000Z</time>
      </trkpt>
      <trkpt lat="47.49337" lon="6.66626">
        <ele>415.895</ele>
        <time>2016-06-04T12:10:32.000Z</time>
      </trkpt>
      <trkpt lat="47.49337" lon="6.66626">
        <ele>415.901</ele>
        <time>2016-06-04T12:10:33.000Z</time>
      </trkpt>
      <trkpt lat="47.49337" lon="6.66626">
        <ele>415.907</ele>
        <time>2016-06-04T12:10:34.000Z</time>
      </trkpt>
      <trkpt lat="47.49337" lon="6.66626">
        <ele>415.913</ele>
        <time>2016-06-04T12:10:35.000Z</time>
      </trkpt>
      <trkpt lat="47.49337" lon="6.66626">
        <ele>415.92</ele>
        <time>2016-06-04T12:10:36.000Z</time>
      </trkpt>
      <trkpt lat="47.49337" lon="6.66626">
        <ele>415.926</ele>
        <time>2016-06-04T12:10:37.000Z</time>
      </trkpt>
      <trkpt lat="47.49337" lon="6.66626">
        <ele>415.932</ele>
        <time>2016-06-04T12:10:38.000Z</time>
      </trkpt>
      <trkpt lat="47.49337" lon="6.66626">
        <ele>415.939</ele>
        <time>2016-06-04T12:10:39.000Z</time>
      </trkpt>
      <trkpt lat="47.49337" lon="6.66626">
        <ele>415.945</ele>
        <time>2016-06-04T12:10:40.000Z</time>
      </trkpt>
      <trkpt lat="47.49337" lon="6.66626">
        <ele>415.951</ele>
        <time>2016-06-04T12:10:41.000Z</time>
      </trkpt>
      <trkpt lat="47.49337" lon="6.66626">
        <ele>415.957</ele>
        <time>2016-06-04T12:10:42.000Z</time>
      </trkpt>
      <trkpt lat="47.49337" lon="6.66626">
        <ele>415.962</ele>
        <time>2016-06-04T12:10:43.000Z</time>
      </trkpt>
      <trkpt lat="47.49337" lon="6.66626">
        <ele>415.968</ele>
        <time>2016-06-04T12:10:44.000Z</time>
      </trkpt>
      <trkpt lat="47.49337" lon="6.66626">
        <ele>415.973</ele>
        <time>2016-06-04T12:10:45.000Z</time>
      </trkpt>
      <trkpt lat="47.49337" lon="6.66626">
        <ele>415.977</ele>
        <time>2016-06-04T12:10:46.000Z</time>
      </trkpt>
      <trkpt lat="47.49337" lon="6.66626">
        <ele>415.981</ele>
        <time>2016-06-04T12:10:47.000Z</time>
      </trkpt>
      <trkpt lat="47.49337" lon="6.66626">
        <ele>415.985</ele>
        <time>2016-06-04T12:10:48.000Z</time>
      </trkpt>
      <trkpt lat="47.49337" lon="6.66626">
        <ele>415.989</ele>
        <time>2016-06-04T12:10:49.000Z</time>
      </trkpt>
      <trkpt lat="47.49337" lon="6.66626">
        <ele>415.992</ele>
        <time>2016-06-04T12:10:50.000Z</time>
      </trkpt>
      <trkpt lat="47.49337" lon="6.66626">
        <ele>415.995</ele>
        <time>2016-06-04T12:10:51.000Z</time>
      </trkpt>
      <trkpt lat="47.49337" lon="6.66626">
        <ele>415.997</ele>
        <time>2016-06-04T12:10:52.000Z</time>
      </trkpt>
      <trkpt lat="47.49337" lon="6.66626">
        <ele>416</ele>
        <time>2016-06-04T12:10:53.000Z</time>
      </trkpt>
      <trkpt lat="47.49337" lon="6.66626">
        <ele>416.001</ele>
        <time>2016-06-04T12:10:54.000Z</time>
      </trkpt>
      <trkpt lat="47.49337" lon="6.66626">
        <ele>416.003</ele>
        <time>2016-06-04T12:10:55.000Z</time>
      </trkpt>
      <trkpt lat="47.49337" lon="6.66626">
        <ele>416.005</ele>
        <time>2016-06-04T12:10:56.000Z</time>
      </trkpt>
      <trkpt lat="47.49337" lon="6.66626">
        <ele>416.006</ele>
        <time>2016-06-04T12:10:57.000Z</time>
      </trkpt>
      <trkpt lat="47.49337" lon="6.66626">
        <ele>416.008</ele>
        <time>2016-06-04T12:10:58.000Z</time>
      </trkpt>
      <trkpt lat="47.49337" lon="6.66626">
        <ele>416.009</ele>
        <time>2016-06-04T12:10:59.000Z</time>
      </trkpt>
      <trkpt lat="47.49337" lon="6.66626">
        <ele>416.011</ele>
        <time>2016-06-04T12:11:00.000Z</time>
      </trkpt>
      <trkpt lat="47.49337" lon="6.66626">
        <ele>416.013</ele>
        <time>2016-06-04T12:11:01.000Z</time>
      </trkpt>
      <trkpt lat="47.49337" lon="6.66626">
        <ele>416.014</ele>
        <time>2016-06-04T12:11:02.000Z</time>
      </trkpt>
      <trkpt lat="47.49337" lon="6.66626">
        <ele>416.016</ele>
        <time>2016-06-04T12:11:03.000Z</time>
      </trkpt>
      <trkpt lat="47.49337" lon="6.66626">
        <ele>416.018</ele>
        <time>2016-06-04T12:11:04.000Z</time>
      </trkpt>
      <trkpt lat="47.49337" lon="6.66626">
        <ele>416.02</ele>
        <time>2016-06-04T12:11:05.000Z</time>
      </trkpt>
      <trkpt lat="47.49337" lon="6.66626">
        <ele>416.022</ele>
        <time>2016-06-04T12:11:06.000Z</time>
      </trkpt>
      <trkpt lat="47.49337" lon="6.66626">
        <ele>416.025</ele>
        <time>2016-06-04T12:11:07.000Z</time>
      </trkpt>
      <trkpt lat="47.49337" lon="6.66626">
        <ele>416.027</ele>
        <time>2016-06-04T12:11:08.000Z</time>
      </trkpt>
      <trkpt lat="47.49337" lon="6.66626">
        <ele>416.03</ele>
        <time>2016-06-04T12:11:09.000Z</time>
      </trkpt>
      <trkpt lat="47.49337" lon="6.66626">
        <ele>416.032</ele>
        <time>2016-06-04T12:11:10.000Z</time>
      </trkpt>
      <trkpt lat="47.49337" lon="6.66626">
        <ele>416.035</ele>
        <time>2016-06-04T12:11:11.000Z</time>
      </trkpt>
      <trkpt lat="47.49337" lon="6.66626">
        <ele>416.038</ele>
        <time>2016-06-04T12:11:12.000Z</time>
      </trkpt>
      <trkpt lat="47.49337" lon="6.66626">
        <ele>416.041</ele>
        <time>2016-06-04T12:11:13.000Z</time>
      </trkpt>
      <trkpt lat="47.49337" lon="6.66626">
        <ele>416.044</ele>
        <time>2016-06-04T12:11:14.000Z</time>
      </trkpt>
      <trkpt lat="47.49337" lon="6.66626">
        <ele>416.047</ele>
        <time>2016-06-04T12:11:15.000Z</time>
      </trkpt>
      <trkpt lat="47.49337" lon="6.66626">
        <ele>416.05</ele>
        <time>2016-06-04T12:11:16.000Z</time>
      </trkpt>
      <trkpt lat="47.49337" lon="6.66626">
        <ele>416.053</ele>
        <time>2016-06-04T12:11:17.000Z</time>
      </trkpt>
      <trkpt lat="47.49337" lon="6.66626">
        <ele>416.056</ele>
        <time>2016-06-04T12:11:18.000Z</time>
      </trkpt>
      <trkpt lat="47.49337" lon="6.66626">
        <ele>416.059</ele>
        <time>2016-06-04T12:11:19.000Z</time>
      </trkpt>
      <trkpt lat="47.49337" lon="6.66626">
        <ele>416.062</ele>
        <time>2016-06-04T12:11:20.000Z</time>
      </trkpt>
      <trkpt lat="47.49337" lon="6.66626">
        <ele>416.066</ele>
        <time>2016-06-04T12:11:21.000Z</time>
      </trkpt>
      <trkpt lat="47.49337" lon="6.66626">
        <ele>416.069</ele>
        <time>2016-06-04T12:11:22.000Z</time>
      </trkpt>
      <trkpt lat="47.49337" lon="6.66626">
        <ele>416.072</ele>
        <time>2016-06-04T12:11:23.000Z</time>
      </trkpt>
      <trkpt lat="47.49337" lon="6.66626">
        <ele>416.076</ele>
        <time>2016-06-04T12:11:24.000Z</time>
      </trkpt>
      <trkpt lat="47.49337" lon="6.66626">
        <ele>416.08</ele>
        <time>2016-06-04T12:11:25.000Z</time>
      </trkpt>
      <trkpt lat="47.49337" lon="6.66626">
        <ele>416.083</ele>
        <time>2016-06-04T12:11:26.000Z</time>
      </trkpt>
      <trkpt lat="47.49337" lon="6.66626">
        <ele>416.087</ele>
        <time>2016-06-04T12:11:27.000Z</time>
      </trkpt>
      <trkpt lat="47.49337" lon="6.66626">
        <ele>416.091</ele>
        <time>2016-06-04T12:11:28.000Z</time>
      </trkpt>
      <trkpt lat="47.49337" lon="6.66626">
        <ele>416.095</ele>
        <time>2016-06-04T12:11:29.000Z</time>
      </trkpt>
      <trkpt lat="47.49337" lon="6.66626">
        <ele>416.099</ele>
        <time>2016-06-04T12:11:30.000Z</time>
      </trkpt>
      <trkpt lat="47.49337" lon="6.66626">
        <ele>416.102</ele>
        <time>2016-06-04T12:11:31.000Z</time>
      </trkpt>
      <trkpt lat="47.49337" lon="6.66626">
        <ele>416.106</ele>
        <time>2016-06-04T12:11:32.000Z</time>
      </trkpt>
      <trkpt lat="47.49337" lon="6.66626">
        <ele>416.11</ele>
        <time>2016-06-04T12:11:33.000Z</time>
      </trkpt>
      <trkpt lat="47.49337" lon="6.66626">
        <ele>416.114</ele>
        <time>2016-06-04T12:11:34.000Z</time>
      </trkpt>
      <trkpt lat="47.49337" lon="6.66626">
        <ele>416.117</ele>
        <time>2016-06-04T12:11:35.000Z</time>
      </trkpt>
      <trkpt lat="47.49337" lon="6.66626">
        <ele>416.121</ele>
        <time>2016-06-04T12:11:36.000Z</time>
      </trkpt>
      <trkpt lat="47.49337" lon="6.66626">
        <ele>416.124</ele>
        <time>2016-06-04T12:11:37.000Z</time>
      </trkpt>
      <trkpt lat="47.49337" lon="6.66626">
        <ele>416.128</ele>
        <time>2016-06-04T12:11:38.000Z</time>
      </trkpt>
      <trkpt lat="47.49337" lon="6.66626">
        <ele>416.131</ele>
        <time>2016-06-04T12:11:39.000Z</time>
      </trkpt>
      <trkpt lat="47.49337" lon="6.66626">
        <ele>416.134</ele>
        <time>2016-06-04T12:11:40.000Z</time>
      </trkpt>
      <trkpt lat="47.49337" lon="6.66626">
        <ele>416.137</ele>
        <time>2016-06-04T12:11:41.000Z</time>
      </trkpt>
      <trkpt lat="47.49337" lon="6.66626">
        <ele>416.141</ele>
        <time>2016-06-04T12:11:42.000Z</time>
      </trkpt>
      <trkpt lat="47.49337" lon="6.66626">
        <ele>416.144</ele>
        <time>2016-06-04T12:11:43.000Z</time>
      </trkpt>
      <trkpt lat="47.49337" lon="6.66626">
        <ele>416.147</ele>
        <time>2016-06-04T12:11:44.000Z</time>
      </trkpt>
      <trkpt lat="47.49337" lon="6.66626">
        <ele>416.15</ele>
        <time>2016-06-04T12:11:45.000Z</time>
      </trkpt>
      <trkpt lat="47.49337" lon="6.66626">
        <ele>416.154</ele>
        <time>2016-06-04T12:11:46.000Z</time>
      </trkpt>
      <trkpt lat="47.49337" lon="6.66626">
        <ele>416.157</ele>
        <time>2016-06-04T12:11:47.000Z</time>
      </trkpt>
      <trkpt lat="47.49337" lon="6.66626">
        <ele>416.16</ele>
        <time>2016-06-04T12:11:48.000Z</time>
      </trkpt>
      <trkpt lat="47.49337" lon="6.66626">
        <ele>416.164</ele>
        <time>2016-06-04T12:11:49.000Z</time>
      </trkpt>
      <trkpt lat="47.49337" lon="6.66626">
        <ele>416.168</ele>
        <time>2016-06-04T12:11:50.000Z</time>
      </trkpt>
      <trkpt lat="47.49337" lon="6.66626">
        <ele>416.172</ele>
        <time>2016-06-04T12:11:51.000Z</time>
      </trkpt>
      <trkpt lat="47.49337" lon="6.66626">
        <ele>416.176</ele>
        <time>2016-06-04T12:11:52.000Z</time>
      </trkpt>
      <trkpt lat="47.49337" lon="6.66626">
        <ele>416.181</ele>
        <time>2016-06-04T12:11:53.000Z</time>
      </trkpt>
      <trkpt lat="47.49337" lon="6.66626">
        <ele>416.185</ele>
        <time>2016-06-04T12:11:54.000Z</time>
      </trkpt>
      <trkpt lat="47.49337" lon="6.66626">
        <ele>416.19</ele>
        <time>2016-06-04T12:11:55.000Z</time>
      </trkpt>
      <trkpt lat="47.49337" lon="6.66626">
        <ele>416.195</ele>
        <time>2016-06-04T12:11:56.000Z</time>
      </trkpt>
      <trkpt lat="47.49337" lon="6.66626">
        <ele>416.2</ele>
        <time>2016-06-04T12:11:57.000Z</time>
      </trkpt>
      <trkpt lat="47.49337" lon="6.66626">
        <ele>416.205</ele>
        <time>2016-06-04T12:11:58.000Z</time>
      </trkpt>
      <trkpt lat="47.49337" lon="6.66626">
        <ele>416.21</ele>
        <time>2016-06-04T12:11:59.000Z</time>
      </trkpt>
      <trkpt lat="47.49337" lon="6.66626">
        <ele>416.214</ele>
        <time>2016-06-04T12:12:00.000Z</time>
      </trkpt>
      <trkpt lat="47.49337" lon="6.66626">
        <ele>416.219</ele>
        <time>2016-06-04T12:12:01.000Z</time>
      </trkpt>
      <trkpt lat="47.49337" lon="6.66626">
        <ele>416.224</ele>
        <time>2016-06-04T12:12:02.000Z</time>
      </trkpt>
      <trkpt lat="47.49337" lon="6.66626">
        <ele>416.228</ele>
        <time>2016-06-04T12:12:03.000Z</time>
      </trkpt>
      <trkpt lat="47.49337" lon="6.66626">
        <ele>416.232</ele>
        <time>2016-06-04T12:12:04.000Z</time>
      </trkpt>
      <trkpt lat="47.49337" lon="6.66626">
        <ele>416.236</ele>
        <time>2016-06-04T12:12:05.000Z</time>
      </trkpt>
      <trkpt lat="47.49337" lon="6.66626">
        <ele>416.24</ele>
        <time>2016-06-04T12:12:06.000Z</time>
      </trkpt>
      <trkpt lat="47.49337" lon="6.66626">
        <ele>416.243</ele>
        <time>2016-06-04T12:12:07.000Z</time>
      </trkpt>
      <trkpt lat="47.49337" lon="6.66626">
        <ele>416.246</ele>
        <time>2016-06-04T12:12:08.000Z</time>
      </trkpt>
      <trkpt lat="47.49337" lon="6.66626">
        <ele>416.249</ele>
        <time>2016-06-04T12:12:09.000Z</time>
      </trkpt>
      <trkpt lat="47.49337" lon="6.66626">
        <ele>416.251</ele>
        <time>2016-06-04T12:12:10.000Z</time>
      </trkpt>
      <trkpt lat="47.49337" lon="6.66626">
        <ele>416.254</ele>
        <time>2016-06-04T12:12:11.000Z</time>
      </trkpt>
      <trkpt lat="47.49337" lon="6.66626">
        <ele>416.256</ele>
        <time>2016-06-04T12:12:12.000Z</time>
      </trkpt>
      <trkpt lat="47.49337" lon="6.66626">
        <ele>416.258</ele>
        <time>2016-06-04T12:12:13.000Z</time>
      </trkpt>
      <trkpt lat="47.49337" lon="6.66626">
        <ele>416.26</ele>
        <time>2016-06-04T12:12:14.000Z</time>
      </trkpt>
      <trkpt lat="47.49337" lon="6.66626">
        <ele>416.261</ele>
        <time>2016-06-04T12:12:15.000Z</time>
      </trkpt>
      <trkpt lat="47.49337" lon="6.66626">
        <ele>416.263</ele>
        <time>2016-06-04T12:12:16.000Z</time>
      </trkpt>
      <trkpt lat="47.49337" lon="6.66626">
        <ele>416.265</ele>
        <time>2016-06-04T12:12:17.000Z</time>
      </trkpt>
      <trkpt lat="47.49337" lon="6.66626">
        <ele>416.266</ele>
        <time>2016-06-04T12:12:18.000Z</time>
      </trkpt>
      <trkpt lat="47.49337" lon="6.66626">
        <ele>416.268</ele>
        <time>2016-06-04T12:12:19.000Z</time>
      </trkpt>
      <trkpt lat="47.49337" lon="6.66626">
        <ele>416.269</ele>
        <time>2016-06-04T12:12:20.000Z</time>
      </trkpt>
      <trkpt lat="47.49337" lon="6.66626">
        <ele>416.271</ele>
        <time>2016-06-04T12:12:21.000Z</time>
      </trkpt>
      <trkpt lat="47.49337" lon="6.66626">
        <ele>416.272</ele>
        <time>2016-06-04T12:12:22.000Z</time>
      </trkpt>
      <trkpt lat="47.49337" lon="6.66626">
        <ele>416.273</ele>
        <time>2016-06-04T12:12:23.000Z</time>
      </trkpt>
      <trkpt lat="47.49337" lon="6.66626">
        <ele>416.275</ele>
        <time>2016-06-04T12:12:24.000Z</time>
      </trkpt>
      <trkpt lat="47.49337" lon="6.66626">
        <ele>416.276</ele>
        <time>2016-06-04T12:12:25.000Z</time>
      </trkpt>
      <trkpt lat="47.49337" lon="6.66626">
        <ele>416.278</ele>
        <time>2016-06-04T12:12:26.000Z</time>
      </trkpt>
      <trkpt lat="47.49337" lon="6.66626">
        <ele>416.279</ele>
        <time>2016-06-04T12:12:27.000Z</time>
      </trkpt>
      <trkpt lat="47.49337" lon="6.66626">
        <ele>416.281</ele>
        <time>2016-06-04T12:12:28.000Z</time>
      </trkpt>
      <trkpt lat="47.49337" lon="6.66626">
        <ele>416.283</ele>
        <time>2016-06-04T12:12:29.000Z</time>
      </trkpt>
      <trkpt lat="47.49337" lon="6.66626">
        <ele>416.285</ele>
        <time>2016-06-04T12:12:30.000Z</time>
      </trkpt>
      <trkpt lat="47.49337" lon="6.66626">
        <ele>416.287</ele>
        <time>2016-06-04T12:12:31.000Z</time>
      </trkpt>
      <trkpt lat="47.49337" lon="6.66626">
        <ele>416.289</ele>
        <time>2016-06-04T12:12:32.000Z</time>
      </trkpt>
      <trkpt lat="47.49337" lon="6.66626">
        <ele>416.291</ele>
        <time>2016-06-04T12:12:33.000Z</time>
      </trkpt>
      <trkpt lat="47.49337" lon="6.66626">
        <ele>416.293</ele>
        <time>2016-06-04T12:12:34.000Z</time>
      </trkpt>
      <trkpt lat="47.49337" lon="6.66626">
        <ele>416.296</ele>
        <time>2016-06-04T12:12:35.000Z</time>
      </trkpt>
      <trkpt lat="47.49337" lon="6.66626">
        <ele>416.298</ele>
        <time>2016-06-04T12:12:36.000Z</time>
      </trkpt>
      <trkpt lat="47.49337" lon="6.66626">
        <ele>416.301</ele>
        <time>2016-06-04T12:12:37.000Z</time>
      </trkpt>
      <trkpt lat="47.49337" lon="6.66626">
        <ele>416.303</ele>
        <time>2016-06-04T12:12:38.000Z</time>
      </trkpt>
      <trkpt lat="47.49337" lon="6.66626">
        <ele>416.306</ele>
        <time>2016-06-04T12:12:39.000Z</time>
      </trkpt>
      <trkpt lat="47.49337" lon="6.66626">
        <ele>416.309</ele>
        <time>2016-06-04T12:12:40.000Z</time>
      </trkpt>
      <trkpt lat="47.49337" lon="6.66626">
        <ele>416.311</ele>
        <time>2016-06-04T12:12:41.000Z</time>
      </trkpt>
      <trkpt lat="47.49337" lon="6.66626">
        <ele>416.314</ele>
        <time>2016-06-04T12:12:42.000Z</time>
      </trkpt>
      <trkpt lat="47.49337" lon="6.66626">
        <ele>416.316</ele>
        <time>2016-06-04T12:12:43.000Z</time>
      </trkpt>
      <trkpt lat="47.49337" lon="6.66626">
        <ele>416.318</ele>
        <time>2016-06-04T12:12:44.000Z</time>
      </trkpt>
      <trkpt lat="47.49337" lon="6.66626">
        <ele>416.32</ele>
        <time>2016-06-04T12:12:45.000Z</time>
      </trkpt>
      <trkpt lat="47.49337" lon="6.66626">
        <ele>416.322</ele>
        <time>2016-06-04T12:12:46.000Z</time>
      </trkpt>
      <trkpt lat="47.49337" lon="6.66626">
        <ele>416.324</ele>
        <time>2016-06-04T12:12:47.000Z</time>
      </trkpt>
      <trkpt lat="47.49337" lon="6.66626">
        <ele>416.325</ele>
        <time>2016-06-04T12:12:48.000Z</time>
      </trkpt>
      <trkpt lat="47.49337" lon="6.66626">
        <ele>416.326</ele>
        <time>2016-06-04T12:12:49.000Z</time>
      </trkpt>
      <trkpt lat="47.49337" lon="6.66626">
        <ele>416.327</ele>
        <time>2016-06-04T12:12:50.000Z</time>
      </trkpt>
      <trkpt lat="47.49337" lon="6.66626">
        <ele>416.328</ele>
        <time>2016-06-04T12:12:51.000Z</time>
      </trkpt>
      <trkpt lat="47.49337" lon="6.66626">
        <ele>416.328</ele>
        <time>2016-06-04T12:12:52.000Z</time>
      </trkpt>
      <trkpt lat="47.49337" lon="6.66626">
        <ele>416.328</ele>
        <time>2016-06-04T12:12:53.000Z</time>
      </trkpt>
      <trkpt lat="47.49337" lon="6.66626">
        <ele>416.328</ele>
        <time>2016-06-04T12:12:54.000Z</time>
      </trkpt>
      <trkpt lat="47.49337" lon="6.66626">
        <ele>416.327</ele>
        <time>2016-06-04T12:12:55.000Z</time>
      </trkpt>
      <trkpt lat="47.49337" lon="6.66626">
        <ele>416.326</ele>
        <time>2016-06-04T12:12:56.000Z</time>
      </trkpt>
      <trkpt lat="47.49337" lon="6.66626">
        <ele>416.325</ele>
        <time>2016-06-04T12:12:57.000Z</time>
      </trkpt>
      <trkpt lat="47.49337" lon="6.66626">
        <ele>416.324</ele>
        <time>2016-06-04T12:12:58.000Z</time>
      </trkpt>
      <trkpt lat="47.49337" lon="6.66626">
        <ele>416.322</ele>
        <time>2016-06-04T12:12:59.000Z</time>
      </trkpt>
      <trkpt lat="47.49337" lon="6.66626">
        <ele>416.321</ele>
        <time>2016-06-04T12:13:00.000Z</time>
      </trkpt>
      <trkpt lat="47.49337" lon="6.66626">
        <ele>416.319</ele>
        <time>2016-06-04T12:13:01.000Z</time>
      </trkpt>
      <trkpt lat="47.49337" lon="6.66626">
        <ele>416.318</ele>
        <time>2016-06-04T12:13:02.000Z</time>
      </trkpt>
      <trkpt lat="47.49337" lon="6.66626">
        <ele>416.316</ele>
        <time>2016-06-04T12:13:03.000Z</time>
      </trkpt>
      <trkpt lat="47.49337" lon="6.66626">
        <ele>416.314</ele>
        <time>2016-06-04T12:13:04.000Z</time>
      </trkpt>
      <trkpt lat="47.49337" lon="6.66626">
        <ele>416.313</ele>
        <time>2016-06-04T12:13:05.000Z</time>
      </trkpt>
      <trkpt lat="47.49337" lon="6.66626">
        <ele>416.311</ele>
        <time>2016-06-04T12:13:06.000Z</time>
      </trkpt>
      <trkpt lat="47.49337" lon="6.66626">
        <ele>416.31</ele>
        <time>2016-06-04T12:13:07.000Z</time>
      </trkpt>
      <trkpt lat="47.49337" lon="6.66626">
        <ele>416.308</ele>
        <time>2016-06-04T12:13:08.000Z</time>
      </trkpt>
      <trkpt lat="47.49337" lon="6.66626">
        <ele>416.307</ele>
        <time>2016-06-04T12:13:09.000Z</time>
      </trkpt>
      <trkpt lat="47.49337" lon="6.66626">
        <ele>416.306</ele>
        <time>2016-06-04T12:13:10.000Z</time>
      </trkpt>
      <trkpt lat="47.49337" lon="6.66626">
        <ele>416.305</ele>
        <time>2016-06-04T12:13:11.000Z</time>
      </trkpt>
      <trkpt lat="47.49337" lon="6.66626">
        <ele>416.305</ele>
        <time>2016-06-04T12:13:12.000Z</time>
      </trkpt>
      <trkpt lat="47.49337" lon="6.66626">
        <ele>416.305</ele>
        <time>2016-06-04T12:13:13.000Z</time>
      </trkpt>
      <trkpt lat="47.49337" lon="6.66626">
        <ele>416.305</ele>
        <time>2016-06-04T12:13:14.000Z</time>
      </trkpt>
      <trkpt lat="47.49337" lon="6.66626">
        <ele>416.305</ele>
        <time>2016-06-04T12:13:15.000Z</time>
      </trkpt>
      <trkpt lat="47.49337" lon="6.66626">
        <ele>416.306</ele>
        <time>2016-06-04T12:13:16.000Z</time>
      </trkpt>
      <trkpt lat="47.49337" lon="6.66626">
        <ele>416.307</ele>
        <time>2016-06-04T12:13:17.000Z</time>
      </trkpt>
      <trkpt lat="47.49337" lon="6.66626">
        <ele>416.309</ele>
        <time>2016-06-04T12:13:18.000Z</time>
      </trkpt>
      <trkpt lat="47.49337" lon="6.66626">
        <ele>416.31</ele>
        <time>2016-06-04T12:13:19.000Z</time>
      </trkpt>
      <trkpt lat="47.49337" lon="6.66626">
        <ele>416.312</ele>
        <time>2016-06-04T12:13:20.000Z</time>
      </trkpt>
      <trkpt lat="47.49337" lon="6.66626">
        <ele>416.315</ele>
        <time>2016-06-04T12:13:21.000Z</time>
      </trkpt>
      <trkpt lat="47.49337" lon="6.66626">
        <ele>416.318</ele>
        <time>2016-06-04T12:13:22.000Z</time>
      </trkpt>
      <trkpt lat="47.49337" lon="6.66626">
        <ele>416.321</ele>
        <time>2016-06-04T12:13:23.000Z</time>
      </trkpt>
      <trkpt lat="47.49337" lon="6.66626">
        <ele>416.324</ele>
        <time>2016-06-04T12:13:24.000Z</time>
      </trkpt>
      <trkpt lat="47.49337" lon="6.66626">
        <ele>416.328</ele>
        <time>2016-06-04T12:13:25.000Z</time>
      </trkpt>
      <trkpt lat="47.49337" lon="6.66626">
        <ele>416.332</ele>
        <time>2016-06-04T12:13:26.000Z</time>
      </trkpt>
      <trkpt lat="47.49337" lon="6.66626">
        <ele>416.337</ele>
        <time>2016-06-04T12:13:27.000Z</time>
      </trkpt>
      <trkpt lat="47.49337" lon="6.66626">
        <ele>416.341</ele>
        <time>2016-06-04T12:13:28.000Z</time>
      </trkpt>
      <trkpt lat="47.49337" lon="6.66626">
        <ele>416.346</ele>
        <time>2016-06-04T12:13:29.000Z</time>
      </trkpt>
      <trkpt lat="47.49337" lon="6.66626">
        <ele>416.352</ele>
        <time>2016-06-04T12:13:30.000Z</time>
      </trkpt>
      <trkpt lat="47.49337" lon="6.66626">
        <ele>416.357</ele>
        <time>2016-06-04T12:13:31.000Z</time>
      </trkpt>
      <trkpt lat="47.49337" lon="6.66626">
        <ele>416.362</ele>
        <time>2016-06-04T12:13:32.000Z</time>
      </trkpt>
      <trkpt lat="47.49337" lon="6.66626">
        <ele>416.368</ele>
        <time>2016-06-04T12:13:33.000Z</time>
      </trkpt>
      <trkpt lat="47.49337" lon="6.66626">
        <ele>416.374</ele>
        <time>2016-06-04T12:13:34.000Z</time>
      </trkpt>
      <trkpt lat="47.49337" lon="6.66626">
        <ele>416.38</ele>
        <time>2016-06-04T12:13:35.000Z</time>
      </trkpt>
      <trkpt lat="47.49337" lon="6.66626">
        <ele>416.386</ele>
        <time>2016-06-04T12:13:36.000Z</time>
      </trkpt>
      <trkpt lat="47.49337" lon="6.66626">
        <ele>416.392</ele>
        <time>2016-06-04T12:13:37.000Z</time>
      </trkpt>
      <trkpt lat="47.49337" lon="6.66626">
        <ele>416.397</ele>
        <time>2016-06-04T12:13:38.000Z</time>
      </trkpt>
      <trkpt lat="47.49337" lon="6.66626">
        <ele>416.403</ele>
        <time>2016-06-04T12:13:39.000Z</time>
      </trkpt>
      <trkpt lat="47.49337" lon="6.66626">
        <ele>416.409</ele>
        <time>2016-06-04T12:13:40.000Z</time>
      </trkpt>
      <trkpt lat="47.49337" lon="6.66626">
        <ele>416.415</ele>
        <time>2016-06-04T12:13:41.000Z</time>
      </trkpt>
      <trkpt lat="47.49337" lon="6.66626">
        <ele>416.42</ele>
        <time>2016-06-04T12:13:42.000Z</time>
      </trkpt>
      <trkpt lat="47.49337" lon="6.66626">
        <ele>416.426</ele>
        <time>2016-06-04T12:13:43.000Z</time>
      </trkpt>
      <trkpt lat="47.49337" lon="6.66626">
        <ele>416.431</ele>
        <time>2016-06-04T12:13:44.000Z</time>
      </trkpt>
      <trkpt lat="47.49337" lon="6.66626">
        <ele>416.437</ele>
        <time>2016-06-04T12:13:45.000Z</time>
      </trkpt>
      <trkpt lat="47.49337" lon="6.66626">
        <ele>416.442</ele>
        <time>2016-06-04T12:13:46.000Z</time>
      </trkpt>
      <trkpt lat="47.49337" lon="6.66626">
        <ele>416.447</ele>
        <time>2016-06-04T12:13:47.000Z</time>
      </trkpt>
      <trkpt lat="47.49337" lon="6.66626">
        <ele>416.452</ele>
        <time>2016-06-04T12:13:48.000Z</time>
      </trkpt>
      <trkpt lat="47.49337" lon="6.66626">
        <ele>416.457</ele>
        <time>2016-06-04T12:13:49.000Z</time>
      </trkpt>
      <trkpt lat="47.49337" lon="6.66626">
        <ele>416.462</ele>
        <time>2016-06-04T12:13:50.000Z</time>
      </trkpt>
      <trkpt lat="47.49337" lon="6.66626">
        <ele>416.467</ele>
        <time>2016-06-04T12:13:51.000Z</time>
      </trkpt>
      <trkpt lat="47.49337" lon="6.66626">
        <ele>416.471</ele>
        <time>2016-06-04T12:13:52.000Z</time>
      </trkpt>
      <trkpt lat="47.49337" lon="6.66626">
        <ele>416.476</ele>
        <time>2016-06-04T12:13:53.000Z</time>
      </trkpt>
      <trkpt lat="47.49337" lon="6.66626">
        <ele>416.48</ele>
        <time>2016-06-04T12:13:54.000Z</time>
      </trkpt>
      <trkpt lat="47.49337" lon="6.66626">
        <ele>416.485</ele>
        <time>2016-06-04T12:13:55.000Z</time>
      </trkpt>
      <trkpt lat="47.49337" lon="6.66626">
        <ele>416.49</ele>
        <time>2016-06-04T12:13:56.000Z</time>
      </trkpt>
      <trkpt lat="47.49337" lon="6.66626">
        <ele>416.494</ele>
        <time>2016-06-04T12:13:57.000Z</time>
      </trkpt>
      <trkpt lat="47.49337" lon="6.66626">
        <ele>416.498</ele>
        <time>2016-06-04T12:13:58.000Z</time>
      </trkpt>
      <trkpt lat="47.49337" lon="6.66626">
        <ele>416.503</ele>
        <time>2016-06-04T12:13:59.000Z</time>
      </trkpt>
      <trkpt lat="47.49337" lon="6.66626">
        <ele>416.507</ele>
        <time>2016-06-04T12:14:00.000Z</time>
      </trkpt>
      <trkpt lat="47.49337" lon="6.66626">
        <ele>416.511</ele>
        <time>2016-06-04T12:14:01.000Z</time>
      </trkpt>
      <trkpt lat="47.49337" lon="6.66626">
        <ele>416.515</ele>
        <time>2016-06-04T12:14:02.000Z</time>
      </trkpt>
      <trkpt lat="47.49337" lon="6.66626">
        <ele>416.519</ele>
        <time>2016-06-04T12:14:03.000Z</time>
      </trkpt>
      <trkpt lat="47.49337" lon="6.66626">
        <ele>416.523</ele>
        <time>2016-06-04T12:14:04.000Z</time>
      </trkpt>
      <trkpt lat="47.49337" lon="6.66626">
        <ele>416.527</ele>
        <time>2016-06-04T12:14:05.000Z</time>
      </trkpt>
      <trkpt lat="47.49337" lon="6.66626">
        <ele>416.531</ele>
        <time>2016-06-04T12:14:06.000Z</time>
      </trkpt>
      <trkpt lat="47.49337" lon="6.66626">
        <ele>416.534</ele>
        <time>2016-06-04T12:14:07.000Z</time>
      </trkpt>
      <trkpt lat="47.49337" lon="6.66626">
        <ele>416.538</ele>
        <time>2016-06-04T12:14:08.000Z</time>
      </trkpt>
      <trkpt lat="47.49337" lon="6.66626">
        <ele>416.542</ele>
        <time>2016-06-04T12:14:09.000Z</time>
      </trkpt>
      <trkpt lat="47.49337" lon="6.66626">
        <ele>416.545</ele>
        <time>2016-06-04T12:14:10.000Z</time>
      </trkpt>
      <trkpt lat="47.49337" lon="6.66626">
        <ele>416.549</ele>
        <time>2016-06-04T12:14:11.000Z</time>
      </trkpt>
      <trkpt lat="47.49337" lon="6.66626">
        <ele>416.553</ele>
        <time>2016-06-04T12:14:12.000Z</time>
      </trkpt>
      <trkpt lat="47.49337" lon="6.66626">
        <ele>416.557</ele>
        <time>2016-06-04T12:14:13.000Z</time>
      </trkpt>
      <trkpt lat="47.49337" lon="6.66626">
        <ele>416.561</ele>
        <time>2016-06-04T12:14:14.000Z</time>
      </trkpt>
      <trkpt lat="47.49337" lon="6.66626">
        <ele>416.565</ele>
        <time>2016-06-04T12:14:15.000Z</time>
      </trkpt>
      <trkpt lat="47.49337" lon="6.66626">
        <ele>416.569</ele>
        <time>2016-06-04T12:14:16.000Z</time>
      </trkpt>
      <trkpt lat="47.49337" lon="6.66626">
        <ele>416.573</ele>
        <time>2016-06-04T12:14:17.000Z</time>
      </trkpt>
      <trkpt lat="47.49337" lon="6.66626">
        <ele>416.578</ele>
        <time>2016-06-04T12:14:18.000Z</time>
      </trkpt>
      <trkpt lat="47.49337" lon="6.66626">
        <ele>416.583</ele>
        <time>2016-06-04T12:14:19.000Z</time>
      </trkpt>
      <trkpt lat="47.49337" lon="6.66626">
        <ele>416.588</ele>
        <time>2016-06-04T12:14:20.000Z</time>
      </trkpt>
      <trkpt lat="47.49337" lon="6.66626">
        <ele>416.593</ele>
        <time>2016-06-04T12:14:21.000Z</time>
      </trkpt>
      <trkpt lat="47.49337" lon="6.66626">
        <ele>416.598</ele>
        <time>2016-06-04T12:14:22.000Z</time>
      </trkpt>
      <trkpt lat="47.49337" lon="6.66626">
        <ele>416.603</ele>
        <time>2016-06-04T12:14:23.000Z</time>
      </trkpt>
      <trkpt lat="47.49337" lon="6.66626">
        <ele>416.608</ele>
        <time>2016-06-04T12:14:24.000Z</time>
      </trkpt>
      <trkpt lat="47.49337" lon="6.66626">
        <ele>416.613</ele>
        <time>2016-06-04T12:14:25.000Z</time>
      </trkpt>
      <trkpt lat="47.49337" lon="6.66626">
        <ele>416.617</ele>
        <time>2016-06-04T12:14:26.000Z</time>
      </trkpt>
      <trkpt lat="47.49337" lon="6.66626">
        <ele>416.622</ele>
        <time>2016-06-04T12:14:27.000Z</time>
      </trkpt>
      <trkpt lat="47.49337" lon="6.66626">
        <ele>416.626</ele>
        <time>2016-06-04T12:14:28.000Z</time>
      </trkpt>
      <trkpt lat="47.49337" lon="6.66626">
        <ele>416.629</ele>
        <time>2016-06-04T12:14:29.000Z</time>
      </trkpt>
      <trkpt lat="47.49337" lon="6.66626">
        <ele>416.633</ele>
        <time>2016-06-04T12:14:30.000Z</time>
      </trkpt>
      <trkpt lat="47.49337" lon="6.66626">
        <ele>416.636</ele>
        <time>2016-06-04T12:14:31.000Z</time>
      </trkpt>
      <trkpt lat="47.49337" lon="6.66626">
        <ele>416.638</ele>
        <time>2016-06-04T12:14:32.000Z</time>
      </trkpt>
      <trkpt lat="47.49337" lon="6.66626">
        <ele>416.64</ele>
        <time>2016-06-04T12:14:33.000Z</time>
      </trkpt>
      <trkpt lat="47.49337" lon="6.66626">
        <ele>416.641</ele>
        <time>2016-06-04T12:14:34.000Z</time>
      </trkpt>
      <trkpt lat="47.49337" lon="6.66626">
        <ele>416.642</ele>
        <time>2016-06-04T12:14:35.000Z</time>
      </trkpt>
      <trkpt lat="47.49337" lon="6.66626">
        <ele>416.642</ele>
        <time>2016-06-04T12:14:36.000Z</time>
      </trkpt>
      <trkpt lat="47.49337" lon="6.66626">
        <ele>416.642</ele>
        <time>2016-06-04T12:14:37.000Z</time>
      </trkpt>
      <trkpt lat="47.49337" lon="6.66626">
        <ele>416.641</ele>
        <time>2016-06-04T12:14:38.000Z</time>
      </trkpt>
      <trkpt lat="47.49337" lon="6.66626">
        <ele>416.64</ele>
        <time>2016-06-04T12:14:39.000Z</time>
      </trkpt>
      <trkpt lat="47.49337" lon="6.66626">
        <ele>416.639</ele>
        <time>2016-06-04T12:14:40.000Z</time>
      </trkpt>
      <trkpt lat="47.49337" lon="6.66626">
        <ele>416.637</ele>
        <time>2016-06-04T12:14:41.000Z</time>
      </trkpt>
      <trkpt lat="47.49337" lon="6.66626">
        <ele>416.635</ele>
        <time>2016-06-04T12:14:42.000Z</time>
      </trkpt>
      <trkpt lat="47.49337" lon="6.66626">
        <ele>416.632</ele>
        <time>2016-06-04T12:14:43.000Z</time>
      </trkpt>
      <trkpt lat="47.49337" lon="6.66626">
        <ele>416.63</ele>
        <time>2016-06-04T12:14:44.000Z</time>
      </trkpt>
      <trkpt lat="47.49337" lon="6.66626">
        <ele>416.627</ele>
        <time>2016-06-04T12:14:45.000Z</time>
      </trkpt>
      <trkpt lat="47.49337" lon="6.66626">
        <ele>416.625</ele>
        <time>2016-06-04T12:14:46.000Z</time>
      </trkpt>
      <trkpt lat="47.49337" lon="6.66626">
        <ele>416.623</ele>
        <time>2016-06-04T12:14:47.000Z</time>
      </trkpt>
      <trkpt lat="47.49337" lon="6.66626">
        <ele>416.621</ele>
        <time>2016-06-04T12:14:48.000Z</time>
      </trkpt>
      <trkpt lat="47.49337" lon="6.66626">
        <ele>416.62</ele>
        <time>2016-06-04T12:14:49.000Z</time>
      </trkpt>
      <trkpt lat="47.49337" lon="6.66626">
        <ele>416.618</ele>
        <time>2016-06-04T12:14:50.000Z</time>
      </trkpt>
      <trkpt lat="47.49337" lon="6.66626">
        <ele>416.618</ele>
        <time>2016-06-04T12:14:51.000Z</time>
      </trkpt>
      <trkpt lat="47.49337" lon="6.66626">
        <ele>416.617</ele>
        <time>2016-06-04T12:14:52.000Z</time>
      </trkpt>
      <trkpt lat="47.49337" lon="6.66626">
        <ele>416.618</ele>
        <time>2016-06-04T12:14:53.000Z</time>
      </trkpt>
      <trkpt lat="47.49337" lon="6.66626">
        <ele>416.618</ele>
        <time>2016-06-04T12:14:54.000Z</time>
      </trkpt>
      <trkpt lat="47.49337" lon="6.66626">
        <ele>416.62</ele>
        <time>2016-06-04T12:14:55.000Z</time>
      </trkpt>
      <trkpt lat="47.49337" lon="6.66626">
        <ele>416.621</ele>
        <time>2016-06-04T12:14:56.000Z</time>
      </trkpt>
      <trkpt lat="47.49337" lon="6.66626">
        <ele>416.624</ele>
        <time>2016-06-04T12:14:57.000Z</time>
      </trkpt>
      <trkpt lat="47.49337" lon="6.66626">
        <ele>416.626</ele>
        <time>2016-06-04T12:14:58.000Z</time>
      </trkpt>
      <trkpt lat="47.49337" lon="6.66626">
        <ele>416.63</ele>
        <time>2016-06-04T12:14:59.000Z</time>
      </trkpt>
      <trkpt lat="47.49337" lon="6.66626">
        <ele>416.633</ele>
        <time>2016-06-04T12:15:00.000Z</time>
      </trkpt>
      <trkpt lat="47.49337" lon="6.66626">
        <ele>416.638</ele>
        <time>2016-06-04T12:15:01.000Z</time>
      </trkpt>
      <trkpt lat="47.49337" lon="6.66626">
        <ele>416.642</ele>
        <time>2016-06-04T12:15:02.000Z</time>
      </trkpt>
      <trkpt lat="47.49337" lon="6.66626">
        <ele>416.647</ele>
        <time>2016-06-04T12:15:03.000Z</time>
      </trkpt>
      <trkpt lat="47.49337" lon="6.66626">
        <ele>416.653</ele>
        <time>2016-06-04T12:15:04.000Z</time>
      </trkpt>
      <trkpt lat="47.49337" lon="6.66626">
        <ele>416.659</ele>
        <time>2016-06-04T12:15:05.000Z</time>
      </trkpt>
      <trkpt lat="47.49337" lon="6.66626">
        <ele>416.665</ele>
        <time>2016-06-04T12:15:06.000Z</time>
      </trkpt>
      <trkpt lat="47.49337" lon="6.66626">
        <ele>416.671</ele>
        <time>2016-06-04T12:15:07.000Z</time>
      </trkpt>
      <trkpt lat="47.49337" lon="6.66626">
        <ele>416.678</ele>
        <time>2016-06-04T12:15:08.000Z</time>
      </trkpt>
      <trkpt lat="47.49337" lon="6.66626">
        <ele>416.685</ele>
        <time>2016-06-04T12:15:09.000Z</time>
      </trkpt>
      <trkpt lat="47.49337" lon="6.66626">
        <ele>416.692</ele>
        <time>2016-06-04T12:15:10.000Z</time>
      </trkpt>
      <trkpt lat="47.49337" lon="6.66626">
        <ele>416.699</ele>
        <time>2016-06-04T12:15:11.000Z</time>
      </trkpt>
      <trkpt lat="47.49337" lon="6.66626">
        <ele>416.706</ele>
        <time>2016-06-04T12:15:12.000Z</time>
      </trkpt>
      <trkpt lat="47.49337" lon="6.66626">
        <ele>416.713</ele>
        <time>2016-06-04T12:15:13.000Z</time>
      </trkpt>
      <trkpt lat="47.49337" lon="6.66626">
        <ele>416.72</ele>
        <time>2016-06-04T12:15:14.000Z</time>
      </trkpt>
      <trkpt lat="47.49337" lon="6.66626">
        <ele>416.727</ele>
        <time>2016-06-04T12:15:15.000Z</time>
      </trkpt>
      <trkpt lat="47.49337" lon="6.66626">
        <ele>416.734</ele>
        <time>2016-06-04T12:15:16.000Z</time>
      </trkpt>
      <trkpt lat="47.49337" lon="6.66626">
        <ele>416.741</ele>
        <time>2016-06-04T12:15:17.000Z</time>
      </trkpt>
      <trkpt lat="47.49337" lon="6.66626">
        <ele>416.748</ele>
        <time>2016-06-04T12:15:18.000Z</time>
      </trkpt>
      <trkpt lat="47.49337" lon="6.66626">
        <ele>416.755</ele>
        <time>2016-06-04T12:15:19.000Z</time>
      </trkpt>
      <trkpt lat="47.49337" lon="6.66626">
        <ele>416.762</ele>
        <time>2016-06-04T12:15:20.000Z</time>
      </trkpt>
      <trkpt lat="47.49337" lon="6.66626">
        <ele>416.769</ele>
        <time>2016-06-04T12:15:21.000Z</time>
      </trkpt>
      <trkpt lat="47.49337" lon="6.66626">
        <ele>416.776</ele>
        <time>2016-06-04T12:15:22.000Z</time>
      </trkpt>
      <trkpt lat="47.49337" lon="6.66626">
        <ele>416.782</ele>
        <time>2016-06-04T12:15:23.000Z</time>
      </trkpt>
      <trkpt lat="47.49337" lon="6.66626">
        <ele>416.789</ele>
        <time>2016-06-04T12:15:24.000Z</time>
      </trkpt>
      <trkpt lat="47.49337" lon="6.66626">
        <ele>416.795</ele>
        <time>2016-06-04T12:15:25.000Z</time>
      </trkpt>
      <trkpt lat="47.49337" lon="6.66626">
        <ele>416.801</ele>
        <time>2016-06-04T12:15:26.000Z</time>
      </trkpt>
      <trkpt lat="47.49337" lon="6.66626">
        <ele>416.807</ele>
        <time>2016-06-04T12:15:27.000Z</time>
      </trkpt>
      <trkpt lat="47.49337" lon="6.66626">
        <ele>416.813</ele>
        <time>2016-06-04T12:15:28.000Z</time>
      </trkpt>
      <trkpt lat="47.49337" lon="6.66626">
        <ele>416.819</ele>
        <time>2016-06-04T12:15:29.000Z</time>
      </trkpt>
      <trkpt lat="47.49337" lon="6.66626">
        <ele>416.825</ele>
        <time>2016-06-04T12:15:30.000Z</time>
      </trkpt>
      <trkpt lat="47.49337" lon="6.66626">
        <ele>416.83</ele>
        <time>2016-06-04T12:15:31.000Z</time>
      </trkpt>
      <trkpt lat="47.49337" lon="6.66626">
        <ele>416.836</ele>
        <time>2016-06-04T12:15:32.000Z</time>
      </trkpt>
      <trkpt lat="47.49337" lon="6.66626">
        <ele>416.841</ele>
        <time>2016-06-04T12:15:33.000Z</time>
      </trkpt>
      <trkpt lat="47.49337" lon="6.66626">
        <ele>416.846</ele>
        <time>2016-06-04T12:15:34.000Z</time>
      </trkpt>
      <trkpt lat="47.49337" lon="6.66626">
        <ele>416.851</ele>
        <time>2016-06-04T12:15:35.000Z</time>
      </trkpt>
      <trkpt lat="47.49337" lon="6.66626">
        <ele>416.856</ele>
        <time>2016-06-04T12:15:36.000Z</time>
      </trkpt>
      <trkpt lat="47.49337" lon="6.66626">
        <ele>416.861</ele>
        <time>2016-06-04T12:15:37.000Z</time>
      </trkpt>
      <trkpt lat="47.49337" lon="6.66626">
        <ele>416.866</ele>
        <time>2016-06-04T12:15:38.000Z</time>
      </trkpt>
      <trkpt lat="47.49337" lon="6.66626">
        <ele>416.87</ele>
        <time>2016-06-04T12:15:39.000Z</time>
      </trkpt>
      <trkpt lat="47.49337" lon="6.66626">
        <ele>416.875</ele>
        <time>2016-06-04T12:15:40.000Z</time>
      </trkpt>
      <trkpt lat="47.49337" lon="6.66626">
        <ele>416.879</ele>
        <time>2016-06-04T12:15:41.000Z</time>
      </trkpt>
      <trkpt lat="47.49337" lon="6.66626">
        <ele>416.884</ele>
        <time>2016-06-04T12:15:42.000Z</time>
      </trkpt>
      <trkpt lat="47.49337" lon="6.66626">
        <ele>416.888</ele>
        <time>2016-06-04T12:15:43.000Z</time>
      </trkpt>
      <trkpt lat="47.49337" lon="6.66626">
        <ele>416.893</ele>
        <time>2016-06-04T12:15:44.000Z</time>
      </trkpt>
      <trkpt lat="47.49337" lon="6.66626">
        <ele>416.897</ele>
        <time>2016-06-04T12:15:45.000Z</time>
      </trkpt>
      <trkpt lat="47.49337" lon="6.66626">
        <ele>416.902</ele>
        <time>2016-06-04T12:15:46.000Z</time>
      </trkpt>
      <trkpt lat="47.49337" lon="6.66626">
        <ele>416.907</ele>
        <time>2016-06-04T12:15:47.000Z</time>
      </trkpt>
      <trkpt lat="47.49337" lon="6.66626">
        <ele>416.912</ele>
        <time>2016-06-04T12:15:48.000Z</time>
      </trkpt>
      <trkpt lat="47.49337" lon="6.66626">
        <ele>416.917</ele>
        <time>2016-06-04T12:15:49.000Z</time>
      </trkpt>
      <trkpt lat="47.49337" lon="6.66626">
        <ele>416.922</ele>
        <time>2016-06-04T12:15:50.000Z</time>
      </trkpt>
      <trkpt lat="47.49337" lon="6.66626">
        <ele>416.927</ele>
        <time>2016-06-04T12:15:51.000Z</time>
      </trkpt>
      <trkpt lat="47.49337" lon="6.66626">
        <ele>416.932</ele>
        <time>2016-06-04T12:15:52.000Z</time>
      </trkpt>
      <trkpt lat="47.49337" lon="6.66626">
        <ele>416.938</ele>
        <time>2016-06-04T12:15:53.000Z</time>
      </trkpt>
      <trkpt lat="47.49337" lon="6.66626">
        <ele>416.944</ele>
        <time>2016-06-04T12:15:54.000Z</time>
      </trkpt>
      <trkpt lat="47.49337" lon="6.66626">
        <ele>416.949</ele>
        <time>2016-06-04T12:15:55.000Z</time>
      </trkpt>
      <trkpt lat="47.49337" lon="6.66626">
        <ele>416.955</ele>
        <time>2016-06-04T12:15:56.000Z</time>
      </trkpt>
      <trkpt lat="47.49337" lon="6.66626">
        <ele>416.961</ele>
        <time>2016-06-04T12:15:57.000Z</time>
      </trkpt>
      <trkpt lat="47.49337" lon="6.66626">
        <ele>416.967</ele>
        <time>2016-06-04T12:15:58.000Z</time>
      </trkpt>
      <trkpt lat="47.49337" lon="6.66626">
        <ele>416.973</ele>
        <time>2016-06-04T12:15:59.000Z</time>
      </trkpt>
      <trkpt lat="47.49337" lon="6.66626">
        <ele>416.979</ele>
        <time>2016-06-04T12:16:00.000Z</time>
      </trkpt>
      <trkpt lat="47.49337" lon="6.66626">
        <ele>416.985</ele>
        <time>2016-06-04T12:16:01.000Z</time>
      </trkpt>
      <trkpt lat="47.49337" lon="6.66626">
        <ele>416.991</ele>
        <time>2016-06-04T12:16:02.000Z</time>
      </trkpt>
      <trkpt lat="47.49337" lon="6.66626">
        <ele>416.996</ele>
        <time>2016-06-04T12:16:03.000Z</time>
      </trkpt>
      <trkpt lat="47.49337" lon="6.66626">
        <ele>417.002</ele>
        <time>2016-06-04T12:16:04.000Z</time>
      </trkpt>
      <trkpt lat="47.49337" lon="6.66626">
        <ele>417.007</ele>
        <time>2016-06-04T12:16:05.000Z</time>
      </trkpt>
      <trkpt lat="47.49337" lon="6.66626">
        <ele>417.013</ele>
        <time>2016-06-04T12:16:06.000Z</time>
      </trkpt>
      <trkpt lat="47.49337" lon="6.66626">
        <ele>417.018</ele>
        <time>2016-06-04T12:16:07.000Z</time>
      </trkpt>
      <trkpt lat="47.49337" lon="6.66626">
        <ele>417.023</ele>
        <time>2016-06-04T12:16:08.000Z</time>
      </trkpt>
      <trkpt lat="47.49337" lon="6.66626">
        <ele>417.027</ele>
        <time>2016-06-04T12:16:09.000Z</time>
      </trkpt>
      <trkpt lat="47.49337" lon="6.66626">
        <ele>417.032</ele>
        <time>2016-06-04T12:16:10.000Z</time>
      </trkpt>
      <trkpt lat="47.49337" lon="6.66626">
        <ele>417.037</ele>
        <time>2016-06-04T12:16:11.000Z</time>
      </trkpt>
      <trkpt lat="47.49337" lon="6.66626">
        <ele>417.041</ele>
        <time>2016-06-04T12:16:12.000Z</time>
      </trkpt>
      <trkpt lat="47.49337" lon="6.66626">
        <ele>417.046</ele>
        <time>2016-06-04T12:16:13.000Z</time>
      </trkpt>
      <trkpt lat="47.49337" lon="6.66626">
        <ele>417.05</ele>
        <time>2016-06-04T12:16:14.000Z</time>
      </trkpt>
      <trkpt lat="47.49337" lon="6.66626">
        <ele>417.054</ele>
        <time>2016-06-04T12:16:15.000Z</time>
      </trkpt>
      <trkpt lat="47.49337" lon="6.66626">
        <ele>417.058</ele>
        <time>2016-06-04T12:16:16.000Z</time>
      </trkpt>
      <trkpt lat="47.49337" lon="6.66626">
        <ele>417.062</ele>
        <time>2016-06-04T12:16:17.000Z</time>
      </trkpt>
      <trkpt lat="47.49337" lon="6.66626">
        <ele>417.066</ele>
        <time>2016-06-04T12:16:18.000Z</time>
      </trkpt>
      <trkpt lat="47.49337" lon="6.66626">
        <ele>417.07</ele>
        <time>2016-06-04T12:16:19.000Z</time>
      </trkpt>
      <trkpt lat="47.49337" lon="6.66626">
        <ele>417.074</ele>
        <time>2016-06-04T12:16:20.000Z</time>
      </trkpt>
      <trkpt lat="47.49337" lon="6.66626">
        <ele>417.078</ele>
        <time>2016-06-04T12:16:21.000Z</time>
      </trkpt>
      <trkpt lat="47.49337" lon="6.66626">
        <ele>417.082</ele>
        <time>2016-06-04T12:16:22.000Z</time>
      </trkpt>
      <trkpt lat="47.49337" lon="6.66626">
        <ele>417.086</ele>
        <time>2016-06-04T12:16:23.000Z</time>
      </trkpt>
      <trkpt lat="47.49337" lon="6.66626">
        <ele>417.09</ele>
        <time>2016-06-04T12:16:24.000Z</time>
      </trkpt>
      <trkpt lat="47.49337" lon="6.66626">
        <ele>417.095</ele>
        <time>2016-06-04T12:16:25.000Z</time>
      </trkpt>
      <trkpt lat="47.49337" lon="6.66626">
        <ele>417.099</ele>
        <time>2016-06-04T12:16:26.000Z</time>
      </trkpt>
      <trkpt lat="47.49337" lon="6.66626">
        <ele>417.104</ele>
        <time>2016-06-04T12:16:27.000Z</time>
      </trkpt>
      <trkpt lat="47.49337" lon="6.66626">
        <ele>417.108</ele>
        <time>2016-06-04T12:16:28.000Z</time>
      </trkpt>
      <trkpt lat="47.49337" lon="6.66626">
        <ele>417.113</ele>
        <time>2016-06-04T12:16:29.000Z</time>
      </trkpt>
      <trkpt lat="47.49337" lon="6.66626">
        <ele>417.118</ele>
        <time>2016-06-04T12:16:30.000Z</time>
      </trkpt>
      <trkpt lat="47.49337" lon="6.66626">
        <ele>417.123</ele>
        <time>2016-06-04T12:16:31.000Z</time>
      </trkpt>
      <trkpt lat="47.49337" lon="6.66626">
        <ele>417.128</ele>
        <time>2016-06-04T12:16:32.000Z</time>
      </trkpt>
      <trkpt lat="47.49337" lon="6.66626">
        <ele>417.133</ele>
        <time>2016-06-04T12:16:33.000Z</time>
      </trkpt>
      <trkpt lat="47.49337" lon="6.66626">
        <ele>417.138</ele>
        <time>2016-06-04T12:16:34.000Z</time>
      </trkpt>
      <trkpt lat="47.49337" lon="6.66626">
        <ele>417.143</ele>
        <time>2016-06-04T12:16:35.000Z</time>
      </trkpt>
      <trkpt lat="47.49337" lon="6.66626">
        <ele>417.149</ele>
        <time>2016-06-04T12:16:36.000Z</time>
      </trkpt>
      <trkpt lat="47.49337" lon="6.66626">
        <ele>417.154</ele>
        <time>2016-06-04T12:16:37.000Z</time>
      </trkpt>
      <trkpt lat="47.49337" lon="6.66626">
        <ele>417.159</ele>
        <time>2016-06-04T12:16:38.000Z</time>
      </trkpt>
      <trkpt lat="47.49337" lon="6.66626">
        <ele>417.165</ele>
        <time>2016-06-04T12:16:39.000Z</time>
      </trkpt>
      <trkpt lat="47.49337" lon="6.66626">
        <ele>417.17</ele>
        <time>2016-06-04T12:16:40.000Z</time>
      </trkpt>
      <trkpt lat="47.49337" lon="6.66626">
        <ele>417.176</ele>
        <time>2016-06-04T12:16:41.000Z</time>
      </trkpt>
      <trkpt lat="47.49337" lon="6.66626">
        <ele>417.182</ele>
        <time>2016-06-04T12:16:42.000Z</time>
      </trkpt>
      <trkpt lat="47.49337" lon="6.66626">
        <ele>417.187</ele>
        <time>2016-06-04T12:16:43.000Z</time>
      </trkpt>
      <trkpt lat="47.49337" lon="6.66626">
        <ele>417.193</ele>
        <time>2016-06-04T12:16:44.000Z</time>
      </trkpt>
      <trkpt lat="47.49337" lon="6.66626">
        <ele>417.199</ele>
        <time>2016-06-04T12:16:45.000Z</time>
      </trkpt>
      <trkpt lat="47.49337" lon="6.66626">
        <ele>417.205</ele>
        <time>2016-06-04T12:16:46.000Z</time>
      </trkpt>
      <trkpt lat="47.49337" lon="6.66626">
        <ele>417.212</ele>
        <time>2016-06-04T12:16:47.000Z</time>
      </trkpt>
      <trkpt lat="47.49337" lon="6.66626">
        <ele>417.218</ele>
        <time>2016-06-04T12:16:48.000Z</time>
      </trkpt>
      <trkpt lat="47.49337" lon="6.66626">
        <ele>417.224</ele>
        <time>2016-06-04T12:16:49.000Z</time>
      </trkpt>
      <trkpt lat="47.49337" lon="6.66626">
        <ele>417.231</ele>
        <time>2016-06-04T12:16:50.000Z</time>
      </trkpt>
      <trkpt lat="47.49337" lon="6.66626">
        <ele>417.238</ele>
        <time>2016-06-04T12:16:51.000Z</time>
      </trkpt>
      <trkpt lat="47.49337" lon="6.66626">
        <ele>417.244</ele>
        <time>2016-06-04T12:16:52.000Z</time>
      </trkpt>
      <trkpt lat="47.49337" lon="6.66626">
        <ele>417.251</ele>
        <time>2016-06-04T12:16:53.000Z</time>
      </trkpt>
      <trkpt lat="47.49337" lon="6.66626">
        <ele>417.258</ele>
        <time>2016-06-04T12:16:54.000Z</time>
      </trkpt>
      <trkpt lat="47.49337" lon="6.66626">
        <ele>417.265</ele>
        <time>2016-06-04T12:16:55.000Z</time>
      </trkpt>
      <trkpt lat="47.49337" lon="6.66626">
        <ele>417.272</ele>
        <time>2016-06-04T12:16:56.000Z</time>
      </trkpt>
      <trkpt lat="47.49337" lon="6.66626">
        <ele>417.279</ele>
        <time>2016-06-04T12:16:57.000Z</time>
      </trkpt>
      <trkpt lat="47.49337" lon="6.66626">
        <ele>417.286</ele>
        <time>2016-06-04T12:16:58.000Z</time>
      </trkpt>
      <trkpt lat="47.49337" lon="6.66626">
        <ele>417.292</ele>
        <time>2016-06-04T12:16:59.000Z</time>
      </trkpt>
      <trkpt lat="47.49337" lon="6.66626">
        <ele>417.299</ele>
        <time>2016-06-04T12:17:00.000Z</time>
      </trkpt>
      <trkpt lat="47.49337" lon="6.66626">
        <ele>417.305</ele>
        <time>2016-06-04T12:17:01.000Z</time>
      </trkpt>
      <trkpt lat="47.49337" lon="6.66626">
        <ele>417.311</ele>
        <time>2016-06-04T12:17:02.000Z</time>
      </trkpt>
      <trkpt lat="47.49337" lon="6.66626">
        <ele>417.317</ele>
        <time>2016-06-04T12:17:03.000Z</time>
      </trkpt>
      <trkpt lat="47.49337" lon="6.66626">
        <ele>417.323</ele>
        <time>2016-06-04T12:17:04.000Z</time>
      </trkpt>
      <trkpt lat="47.49337" lon="6.66626">
        <ele>417.328</ele>
        <time>2016-06-04T12:17:05.000Z</time>
      </trkpt>
      <trkpt lat="47.49337" lon="6.66626">
        <ele>417.333</ele>
        <time>2016-06-04T12:17:06.000Z</time>
      </trkpt>
      <trkpt lat="47.49337" lon="6.66626">
        <ele>417.337</ele>
        <time>2016-06-04T12:17:07.000Z</time>
      </trkpt>
      <trkpt lat="47.49337" lon="6.66626">
        <ele>417.341</ele>
        <time>2016-06-04T12:17:08.000Z</time>
      </trkpt>
      <trkpt lat="47.49337" lon="6.66626">
        <ele>417.345</ele>
        <time>2016-06-04T12:17:09.000Z</time>
      </trkpt>
      <trkpt lat="47.49337" lon="6.66626">
        <ele>417.349</ele>
        <time>2016-06-04T12:17:10.000Z</time>
      </trkpt>
      <trkpt lat="47.49337" lon="6.66626">
        <ele>417.352</ele>
        <time>2016-06-04T12:17:11.000Z</time>
      </trkpt>
      <trkpt lat="47.49337" lon="6.66626">
        <ele>417.354</ele>
        <time>2016-06-04T12:17:12.000Z</time>
      </trkpt>
      <trkpt lat="47.49337" lon="6.66626">
        <ele>417.357</ele>
        <time>2016-06-04T12:17:13.000Z</time>
      </trkpt>
      <trkpt lat="47.49337" lon="6.66626">
        <ele>417.358</ele>
        <time>2016-06-04T12:17:14.000Z</time>
      </trkpt>
      <trkpt lat="47.49337" lon="6.66626">
        <ele>417.36</ele>
        <time>2016-06-04T12:17:15.000Z</time>
      </trkpt>
      <trkpt lat="47.49337" lon="6.66626">
        <ele>417.361</ele>
        <time>2016-06-04T12:17:16.000Z</time>
      </trkpt>
      <trkpt lat="47.49337" lon="6.66626">
        <ele>417.362</ele>
        <time>2016-06-04T12:17:17.000Z</time>
      </trkpt>
      <trkpt lat="47.49337" lon="6.66626">
        <ele>417.363</ele>
        <time>2016-06-04T12:17:18.000Z</time>
      </trkpt>
      <trkpt lat="47.49337" lon="6.66626">
        <ele>417.363</ele>
        <time>2016-06-04T12:17:19.000Z</time>
      </trkpt>
      <trkpt lat="47.49337" lon="6.66626">
        <ele>417.363</ele>
        <time>2016-06-04T12:17:20.000Z</time>
      </trkpt>
      <trkpt lat="47.49337" lon="6.66626">
        <ele>417.362</ele>
        <time>2016-06-04T12:17:21.000Z</time>
      </trkpt>
      <trkpt lat="47.49337" lon="6.66626">
        <ele>417.362</ele>
        <time>2016-06-04T12:17:22.000Z</time>
      </trkpt>
      <trkpt lat="47.49337" lon="6.66626">
        <ele>417.361</ele>
        <time>2016-06-04T12:17:23.000Z</time>
      </trkpt>
      <trkpt lat="47.49337" lon="6.66626">
        <ele>417.36</ele>
        <time>2016-06-04T12:17:24.000Z</time>
      </trkpt>
      <trkpt lat="47.49337" lon="6.66626">
        <ele>417.359</ele>
        <time>2016-06-04T12:17:25.000Z</time>
      </trkpt>
      <trkpt lat="47.49337" lon="6.66626">
        <ele>417.358</ele>
        <time>2016-06-04T12:17:26.000Z</time>
      </trkpt>
      <trkpt lat="47.49337" lon="6.66626">
        <ele>417.356</ele>
        <time>2016-06-04T12:17:27.000Z</time>
      </trkpt>
      <trkpt lat="47.49337" lon="6.66626">
        <ele>417.355</ele>
        <time>2016-06-04T12:17:28.000Z</time>
      </trkpt>
      <trkpt lat="47.49337" lon="6.66626">
        <ele>417.354</ele>
        <time>2016-06-04T12:17:29.000Z</time>
      </trkpt>
      <trkpt lat="47.49337" lon="6.66626">
        <ele>417.352</ele>
        <time>2016-06-04T12:17:30.000Z</time>
      </trkpt>
      <trkpt lat="47.49337" lon="6.66626">
        <ele>417.351</ele>
        <time>2016-06-04T12:17:31.000Z</time>
      </trkpt>
      <trkpt lat="47.49337" lon="6.66626">
        <ele>417.35</ele>
        <time>2016-06-04T12:17:32.000Z</time>
      </trkpt>
      <trkpt lat="47.49337" lon="6.66626">
        <ele>417.35</ele>
        <time>2016-06-04T12:17:33.000Z</time>
      </trkpt>
      <trkpt lat="47.49337" lon="6.66626">
        <ele>417.349</ele>
        <time>2016-06-04T12:17:34.000Z</time>
      </trkpt>
      <trkpt lat="47.49337" lon="6.66626">
        <ele>417.349</ele>
        <time>2016-06-04T12:17:35.000Z</time>
      </trkpt>
      <trkpt lat="47.49337" lon="6.66626">
        <ele>417.35</ele>
        <time>2016-06-04T12:17:36.000Z</time>
      </trkpt>
      <trkpt lat="47.49337" lon="6.66626">
        <ele>417.35</ele>
        <time>2016-06-04T12:17:37.000Z</time>
      </trkpt>
      <trkpt lat="47.49337" lon="6.66626">
        <ele>417.351</ele>
        <time>2016-06-04T12:17:38.000Z</time>
      </trkpt>
      <trkpt lat="47.49337" lon="6.66626">
        <ele>417.353</ele>
        <time>2016-06-04T12:17:39.000Z</time>
      </trkpt>
      <trkpt lat="47.49337" lon="6.66626">
        <ele>417.354</ele>
        <time>2016-06-04T12:17:40.000Z</time>
      </trkpt>
      <trkpt lat="47.49337" lon="6.66626">
        <ele>417.356</ele>
        <time>2016-06-04T12:17:41.000Z</time>
      </trkpt>
      <trkpt lat="47.49337" lon="6.66626">
        <ele>417.359</ele>
        <time>2016-06-04T12:17:42.000Z</time>
      </trkpt>
      <trkpt lat="47.49337" lon="6.66626">
        <ele>417.361</ele>
        <time>2016-06-04T12:17:43.000Z</time>
      </trkpt>
      <trkpt lat="47.49337" lon="6.66626">
        <ele>417.365</ele>
        <time>2016-06-04T12:17:44.000Z</time>
      </trkpt>
      <trkpt lat="47.49337" lon="6.66626">
        <ele>417.368</ele>
        <time>2016-06-04T12:17:45.000Z</time>
      </trkpt>
      <trkpt lat="47.49337" lon="6.66626">
        <ele>417.371</ele>
        <time>2016-06-04T12:17:46.000Z</time>
      </trkpt>
      <trkpt lat="47.49337" lon="6.66626">
        <ele>417.375</ele>
        <time>2016-06-04T12:17:47.000Z</time>
      </trkpt>
      <trkpt lat="47.49337" lon="6.66626">
        <ele>417.379</ele>
        <time>2016-06-04T12:17:48.000Z</time>
      </trkpt>
      <trkpt lat="47.49337" lon="6.66626">
        <ele>417.383</ele>
        <time>2016-06-04T12:17:49.000Z</time>
      </trkpt>
      <trkpt lat="47.49337" lon="6.66626">
        <ele>417.387</ele>
        <time>2016-06-04T12:17:50.000Z</time>
      </trkpt>
      <trkpt lat="47.49337" lon="6.66626">
        <ele>417.392</ele>
        <time>2016-06-04T12:17:51.000Z</time>
      </trkpt>
      <trkpt lat="47.49337" lon="6.66626">
        <ele>417.396</ele>
        <time>2016-06-04T12:17:52.000Z</time>
      </trkpt>
      <trkpt lat="47.49337" lon="6.66626">
        <ele>417.4</ele>
        <time>2016-06-04T12:17:53.000Z</time>
      </trkpt>
      <trkpt lat="47.49337" lon="6.66626">
        <ele>417.404</ele>
        <time>2016-06-04T12:17:54.000Z</time>
      </trkpt>
      <trkpt lat="47.49337" lon="6.66626">
        <ele>417.408</ele>
        <time>2016-06-04T12:17:55.000Z</time>
      </trkpt>
      <trkpt lat="47.49337" lon="6.66626">
        <ele>417.412</ele>
        <time>2016-06-04T12:17:56.000Z</time>
      </trkpt>
      <trkpt lat="47.49337" lon="6.66626">
        <ele>417.416</ele>
        <time>2016-06-04T12:17:57.000Z</time>
      </trkpt>
      <trkpt lat="47.49337" lon="6.66626">
        <ele>417.42</ele>
        <time>2016-06-04T12:17:58.000Z</time>
      </trkpt>
      <trkpt lat="47.49337" lon="6.66626">
        <ele>417.423</ele>
        <time>2016-06-04T12:17:59.000Z</time>
      </trkpt>
      <trkpt lat="47.49337" lon="6.66626">
        <ele>417.427</ele>
        <time>2016-06-04T12:18:00.000Z</time>
      </trkpt>
      <trkpt lat="47.49337" lon="6.66626">
        <ele>417.43</ele>
        <time>2016-06-04T12:18:01.000Z</time>
      </trkpt>
      <trkpt lat="47.49337" lon="6.66626">
        <ele>417.433</ele>
        <time>2016-06-04T12:18:02.000Z</time>
      </trkpt>
      <trkpt lat="47.49337" lon="6.66626">
        <ele>417.436</ele>
        <time>2016-06-04T12:18:03.000Z</time>
      </trkpt>
      <trkpt lat="47.49337" lon="6.66626">
        <ele>417.439</ele>
        <time>2016-06-04T12:18:04.000Z</time>
      </trkpt>
      <trkpt lat="47.49337" lon="6.66626">
        <ele>417.441</ele>
        <time>2016-06-04T12:18:05.000Z</time>
      </trkpt>
      <trkpt lat="47.49337" lon="6.66626">
        <ele>417.444</ele>
        <time>2016-06-04T12:18:06.000Z</time>
      </trkpt>
      <trkpt lat="47.49337" lon="6.66626">
        <ele>417.446</ele>
        <time>2016-06-04T12:18:07.000Z</time>
      </trkpt>
      <trkpt lat="47.49337" lon="6.66626">
        <ele>417.449</ele>
        <time>2016-06-04T12:18:08.000Z</time>
      </trkpt>
      <trkpt lat="47.49337" lon="6.66626">
        <ele>417.451</ele>
        <time>2016-06-04T12:18:09.000Z</time>
      </trkpt>
      <trkpt lat="47.49337" lon="6.66626">
        <ele>417.453</ele>
        <time>2016-06-04T12:18:10.000Z</time>
      </trkpt>
      <trkpt lat="47.49337" lon="6.66626">
        <ele>417.455</ele>
        <time>2016-06-04T12:18:11.000Z</time>
      </trkpt>
      <trkpt lat="47.49337" lon="6.66626">
        <ele>417.457</ele>
        <time>2016-06-04T12:18:12.000Z</time>
      </trkpt>
      <trkpt lat="47.49337" lon="6.66626">
        <ele>417.459</ele>
        <time>2016-06-04T12:18:13.000Z</time>
      </trkpt>
      <trkpt lat="47.49337" lon="6.66626">
        <ele>417.46</ele>
        <time>2016-06-04T12:18:14.000Z</time>
      </trkpt>
      <trkpt lat="47.49337" lon="6.66626">
        <ele>417.462</ele>
        <time>2016-06-04T12:18:15.000Z</time>
      </trkpt>
      <trkpt lat="47.49337" lon="6.66626">
        <ele>417.463</ele>
        <time>2016-06-04T12:18:16.000Z</time>
      </trkpt>
      <trkpt lat="47.49337" lon="6.66626">
        <ele>417.465</ele>
        <time>2016-06-04T12:18:17.000Z</time>
      </trkpt>
      <trkpt lat="47.49337" lon="6.66626">
        <ele>417.466</ele>
        <time>2016-06-04T12:18:18.000Z</time>
      </trkpt>
      <trkpt lat="47.49337" lon="6.66626">
        <ele>417.467</ele>
        <time>2016-06-04T12:18:19.000Z</time>
      </trkpt>
      <trkpt lat="47.49337" lon="6.66626">
        <ele>417.468</ele>
        <time>2016-06-04T12:18:20.000Z</time>
      </trkpt>
      <trkpt lat="47.49337" lon="6.66626">
        <ele>417.469</ele>
        <time>2016-06-04T12:18:21.000Z</time>
      </trkpt>
      <trkpt lat="47.49337" lon="6.66626">
        <ele>417.471</ele>
        <time>2016-06-04T12:18:22.000Z</time>
      </trkpt>
      <trkpt lat="47.49337" lon="6.66626">
        <ele>417.472</ele>
        <time>2016-06-04T12:18:23.000Z</time>
      </trkpt>
      <trkpt lat="47.49337" lon="6.66626">
        <ele>417.473</ele>
        <time>2016-06-04T12:18:24.000Z</time>
      </trkpt>
      <trkpt lat="47.49337" lon="6.66626">
        <ele>417.474</ele>
        <time>2016-06-04T12:18:25.000Z</time>
      </trkpt>
      <trkpt lat="47.49337" lon="6.66626">
        <ele>417.475</ele>
        <time>2016-06-04T12:18:26.000Z</time>
      </trkpt>
      <trkpt lat="47.49337" lon="6.66626">
        <ele>417.477</ele>
        <time>2016-06-04T12:18:27.000Z</time>
      </trkpt>
      <trkpt lat="47.49337" lon="6.66626">
        <ele>417.478</ele>
        <time>2016-06-04T12:18:28.000Z</time>
      </trkpt>
      <trkpt lat="47.49337" lon="6.66626">
        <ele>417.48</ele>
        <time>2016-06-04T12:18:29.000Z</time>
      </trkpt>
      <trkpt lat="47.49337" lon="6.66626">
        <ele>417.482</ele>
        <time>2016-06-04T12:18:30.000Z</time>
      </trkpt>
      <trkpt lat="47.49337" lon="6.66626">
        <ele>417.484</ele>
        <time>2016-06-04T12:18:31.000Z</time>
      </trkpt>
      <trkpt lat="47.49337" lon="6.66626">
        <ele>417.486</ele>
        <time>2016-06-04T12:18:32.000Z</time>
      </trkpt>
      <trkpt lat="47.49337" lon="6.66626">
        <ele>417.489</ele>
        <time>2016-06-04T12:18:33.000Z</time>
      </trkpt>
      <trkpt lat="47.49337" lon="6.66626">
        <ele>417.492</ele>
        <time>2016-06-04T12:18:34.000Z</time>
      </trkpt>
      <trkpt lat="47.49337" lon="6.66626">
        <ele>417.495</ele>
        <time>2016-06-04T12:18:35.000Z</time>
      </trkpt>
      <trkpt lat="47.49337" lon="6.66626">
        <ele>417.499</ele>
        <time>2016-06-04T12:18:36.000Z</time>
      </trkpt>
      <trkpt lat="47.49337" lon="6.66626">
        <ele>417.503</ele>
        <time>2016-06-04T12:18:37.000Z</time>
      </trkpt>
      <trkpt lat="47.49337" lon="6.66626">
        <ele>417.507</ele>
        <time>2016-06-04T12:18:38.000Z</time>
      </trkpt>
      <trkpt lat="47.49337" lon="6.66626">
        <ele>417.511</ele>
        <time>2016-06-04T12:18:39.000Z</time>
      </trkpt>
      <trkpt lat="47.49337" lon="6.66626">
        <ele>417.516</ele>
        <time>2016-06-04T12:18:40.000Z</time>
      </trkpt>
      <trkpt lat="47.49337" lon="6.66626">
        <ele>417.521</ele>
        <time>2016-06-04T12:18:41.000Z</time>
      </trkpt>
      <trkpt lat="47.49337" lon="6.66626">
        <ele>417.525</ele>
        <time>2016-06-04T12:18:42.000Z</time>
      </trkpt>
      <trkpt lat="47.49337" lon="6.66626">
        <ele>417.531</ele>
        <time>2016-06-04T12:18:43.000Z</time>
      </trkpt>
      <trkpt lat="47.49337" lon="6.66626">
        <ele>417.536</ele>
        <time>2016-06-04T12:18:44.000Z</time>
      </trkpt>
      <trkpt lat="47.49337" lon="6.66626">
        <ele>417.541</ele>
        <time>2016-06-04T12:18:45.000Z</time>
      </trkpt>
      <trkpt lat="47.49337" lon="6.66626">
        <ele>417.546</ele>
        <time>2016-06-04T12:18:46.000Z</time>
      </trkpt>
      <trkpt lat="47.49337" lon="6.66626">
        <ele>417.551</ele>
        <time>2016-06-04T12:18:47.000Z</time>
      </trkpt>
      <trkpt lat="47.49337" lon="6.66626">
        <ele>417.556</ele>
        <time>2016-06-04T12:18:48.000Z</time>
      </trkpt>
      <trkpt lat="47.49337" lon="6.66626">
        <ele>417.56</ele>
        <time>2016-06-04T12:18:49.000Z</time>
      </trkpt>
      <trkpt lat="47.49337" lon="6.66626">
        <ele>417.565</ele>
        <time>2016-06-04T12:18:50.000Z</time>
      </trkpt>
      <trkpt lat="47.49337" lon="6.66626">
        <ele>417.57</ele>
        <time>2016-06-04T12:18:51.000Z</time>
      </trkpt>
      <trkpt lat="47.49337" lon="6.66626">
        <ele>417.574</ele>
        <time>2016-06-04T12:18:52.000Z</time>
      </trkpt>
      <trkpt lat="47.49337" lon="6.66626">
        <ele>417.578</ele>
        <time>2016-06-04T12:18:53.000Z</time>
      </trkpt>
      <trkpt lat="47.49337" lon="6.66626">
        <ele>417.581</ele>
        <time>2016-06-04T12:18:54.000Z</time>
      </trkpt>
      <trkpt lat="47.49337" lon="6.66626">
        <ele>417.585</ele>
        <time>2016-06-04T12:18:55.000Z</time>
      </trkpt>
      <trkpt lat="47.49337" lon="6.66626">
        <ele>417.588</ele>
        <time>2016-06-04T12:18:56.000Z</time>
      </trkpt>
      <trkpt lat="47.49337" lon="6.66626">
        <ele>417.591</ele>
        <time>2016-06-04T12:18:57.000Z</time>
      </trkpt>
      <trkpt lat="47.49337" lon="6.66626">
        <ele>417.593</ele>
        <time>2016-06-04T12:18:58.000Z</time>
      </trkpt>
      <trkpt lat="47.49337" lon="6.66626">
        <ele>417.595</ele>
        <time>2016-06-04T12:18:59.000Z</time>
      </trkpt>
      <trkpt lat="47.49337" lon="6.66626">
        <ele>417.597</ele>
        <time>2016-06-04T12:19:00.000Z</time>
      </trkpt>
      <trkpt lat="47.49337" lon="6.66626">
        <ele>417.599</ele>
        <time>2016-06-04T12:19:01.000Z</time>
      </trkpt>
      <trkpt lat="47.49337" lon="6.66626">
        <ele>417.599</ele>
        <time>2016-06-04T12:19:02.000Z</time>
      </trkpt>
      <trkpt lat="47.49337" lon="6.66626">
        <ele>417.6</ele>
        <time>2016-06-04T12:19:03.000Z</time>
      </trkpt>
      <trkpt lat="47.49337" lon="6.66626">
        <ele>417.6</ele>
        <time>2016-06-04T12:19:04.000Z</time>
      </trkpt>
      <trkpt lat="47.49337" lon="6.66626">
        <ele>417.6</ele>
        <time>2016-06-04T12:19:05.000Z</time>
      </trkpt>
      <trkpt lat="47.49337" lon="6.66626">
        <ele>417.6</ele>
        <time>2016-06-04T12:19:06.000Z</time>
      </trkpt>
      <trkpt lat="47.49337" lon="6.66626">
        <ele>417.599</ele>
        <time>2016-06-04T12:19:07.000Z</time>
      </trkpt>
      <trkpt lat="47.49337" lon="6.66626">
        <ele>417.598</ele>
        <time>2016-06-04T12:19:08.000Z</time>
      </trkpt>
      <trkpt lat="47.49337" lon="6.66626">
        <ele>417.597</ele>
        <time>2016-06-04T12:19:09.000Z</time>
      </trkpt>
      <trkpt lat="47.49337" lon="6.66626">
        <ele>417.596</ele>
        <time>2016-06-04T12:19:10.000Z</time>
      </trkpt>
      <trkpt lat="47.49337" lon="6.66626">
        <ele>417.595</ele>
        <time>2016-06-04T12:19:11.000Z</time>
      </trkpt>
      <trkpt lat="47.49337" lon="6.66626">
        <ele>417.594</ele>
        <time>2016-06-04T12:19:12.000Z</time>
      </trkpt>
      <trkpt lat="47.49337" lon="6.66626">
        <ele>417.592</ele>
        <time>2016-06-04T12:19:13.000Z</time>
      </trkpt>
      <trkpt lat="47.49337" lon="6.66626">
        <ele>417.591</ele>
        <time>2016-06-04T12:19:14.000Z</time>
      </trkpt>
      <trkpt lat="47.49337" lon="6.66626">
        <ele>417.59</ele>
        <time>2016-06-04T12:19:15.000Z</time>
      </trkpt>
      <trkpt lat="47.49337" lon="6.66626">
        <ele>417.589</ele>
        <time>2016-06-04T12:19:16.000Z</time>
      </trkpt>
      <trkpt lat="47.49337" lon="6.66626">
        <ele>417.588</ele>
        <time>2016-06-04T12:19:17.000Z</time>
      </trkpt>
      <trkpt lat="47.49337" lon="6.66626">
        <ele>417.588</ele>
        <time>2016-06-04T12:19:18.000Z</time>
      </trkpt>
      <trkpt lat="47.49337" lon="6.66626">
        <ele>417.588</ele>
        <time>2016-06-04T12:19:19.000Z</time>
      </trkpt>
      <trkpt lat="47.49337" lon="6.66626">
        <ele>417.589</ele>
        <time>2016-06-04T12:19:20.000Z</time>
      </trkpt>
      <trkpt lat="47.49337" lon="6.66626">
        <ele>417.591</ele>
        <time>2016-06-04T12:19:21.000Z</time>
      </trkpt>
      <trkpt lat="47.49337" lon="6.66626">
        <ele>417.593</ele>
        <time>2016-06-04T12:19:22.000Z</time>
      </trkpt>
      <trkpt lat="47.49337" lon="6.66626">
        <ele>417.596</ele>
        <time>2016-06-04T12:19:23.000Z</time>
      </trkpt>
      <trkpt lat="47.49337" lon="6.66626">
        <ele>417.601</ele>
        <time>2016-06-04T12:19:24.000Z</time>
      </trkpt>
      <trkpt lat="47.49337" lon="6.66626">
        <ele>417.606</ele>
        <time>2016-06-04T12:19:25.000Z</time>
      </trkpt>
      <trkpt lat="47.49337" lon="6.66626">
        <ele>417.612</ele>
        <time>2016-06-04T12:19:26.000Z</time>
      </trkpt>
      <trkpt lat="47.49337" lon="6.66626">
        <ele>417.62</ele>
        <time>2016-06-04T12:19:27.000Z</time>
      </trkpt>
      <trkpt lat="47.49337" lon="6.66626">
        <ele>417.628</ele>
        <time>2016-06-04T12:19:28.000Z</time>
      </trkpt>
      <trkpt lat="47.49337" lon="6.66626">
        <ele>417.637</ele>
        <time>2016-06-04T12:19:29.000Z</time>
      </trkpt>
      <trkpt lat="47.49337" lon="6.66626">
        <ele>417.648</ele>
        <time>2016-06-04T12:19:30.000Z</time>
      </trkpt>
      <trkpt lat="47.49337" lon="6.66626">
        <ele>417.66</ele>
        <time>2016-06-04T12:19:31.000Z</time>
      </trkpt>
      <trkpt lat="47.49337" lon="6.66626">
        <ele>417.672</ele>
        <time>2016-06-04T12:19:32.000Z</time>
      </trkpt>
      <trkpt lat="47.49337" lon="6.66626">
        <ele>417.686</ele>
        <time>2016-06-04T12:19:33.000Z</time>
      </trkpt>
      <trkpt lat="47.49337" lon="6.66626">
        <ele>417.7</ele>
        <time>2016-06-04T12:19:34.000Z</time>
      </trkpt>
      <trkpt lat="47.49337" lon="6.66626">
        <ele>417.715</ele>
        <time>2016-06-04T12:19:35.000Z</time>
      </trkpt>
      <trkpt lat="47.49337" lon="6.66626">
        <ele>417.73</ele>
        <time>2016-06-04T12:19:36.000Z</time>
      </trkpt>
      <trkpt lat="47.49337" lon="6.66626">
        <ele>417.746</ele>
        <time>2016-06-04T12:19:37.000Z</time>
      </trkpt>
      <trkpt lat="47.49337" lon="6.66626">
        <ele>417.761</ele>
        <time>2016-06-04T12:19:38.000Z</time>
      </trkpt>
      <trkpt lat="47.49336" lon="6.66626">
        <ele>417.776</ele>
        <time>2016-06-04T12:19:39.000Z</time>
      </trkpt>
      <trkpt lat="47.49336" lon="6.66626">
        <ele>417.79</ele>
        <time>2016-06-04T12:19:40.000Z</time>
      </trkpt>
      <trkpt lat="47.49336" lon="6.66626">
        <ele>417.803</ele>
        <time>2016-06-04T12:19:41.000Z</time>
      </trkpt>
      <trkpt lat="47.49336" lon="6.66626">
        <ele>417.814</ele>
        <time>2016-06-04T12:19:42.000Z</time>
      </trkpt>
      <trkpt lat="47.49336" lon="6.66626">
        <ele>417.823</ele>
        <time>2016-06-04T12:19:43.000Z</time>
      </trkpt>
      <trkpt lat="47.49336" lon="6.66626">
        <ele>417.83</ele>
        <time>2016-06-04T12:19:44.000Z</time>
      </trkpt>
      <trkpt lat="47.49336" lon="6.66626">
        <ele>417.833</ele>
        <time>2016-06-04T12:19:45.000Z</time>
      </trkpt>
      <trkpt lat="47.49336" lon="6.66626">
        <ele>417.834</ele>
        <time>2016-06-04T12:19:46.000Z</time>
      </trkpt>
      <trkpt lat="47.49336" lon="6.66626">
        <ele>417.833</ele>
        <time>2016-06-04T12:19:47.000Z</time>
      </trkpt>
      <trkpt lat="47.49336" lon="6.66626">
        <ele>417.83</ele>
        <time>2016-06-04T12:19:48.000Z</time>
      </trkpt>
      <trkpt lat="47.49336" lon="6.66626">
        <ele>417.827</ele>
        <time>2016-06-04T12:19:49.000Z</time>
      </trkpt>
      <trkpt lat="47.49336" lon="6.66626">
        <ele>417.822</ele>
        <time>2016-06-04T12:19:50.000Z</time>
      </trkpt>
      <trkpt lat="47.49336" lon="6.66626">
        <ele>417.817</ele>
        <time>2016-06-04T12:19:51.000Z</time>
      </trkpt>
      <trkpt lat="47.49336" lon="6.66626">
        <ele>417.812</ele>
        <time>2016-06-04T12:19:52.000Z</time>
      </trkpt>
      <trkpt lat="47.49336" lon="6.66626">
        <ele>417.807</ele>
        <time>2016-06-04T12:19:53.000Z</time>
      </trkpt>
      <trkpt lat="47.49336" lon="6.66626">
        <ele>417.803</ele>
        <time>2016-06-04T12:19:54.000Z</time>
      </trkpt>
      <trkpt lat="47.49336" lon="6.66626">
        <ele>417.799</ele>
        <time>2016-06-04T12:19:55.000Z</time>
      </trkpt>
      <trkpt lat="47.49336" lon="6.66626">
        <ele>417.795</ele>
        <time>2016-06-04T12:19:56.000Z</time>
      </trkpt>
      <trkpt lat="47.49336" lon="6.66626">
        <ele>417.792</ele>
        <time>2016-06-04T12:19:57.000Z</time>
      </trkpt>
      <trkpt lat="47.49336" lon="6.66626">
        <ele>417.79</ele>
        <time>2016-06-04T12:19:58.000Z</time>
      </trkpt>
      <trkpt lat="47.49336" lon="6.66626">
        <ele>417.789</ele>
        <time>2016-06-04T12:19:59.000Z</time>
      </trkpt>
      <trkpt lat="47.49336" lon="6.66626">
        <ele>417.789</ele>
        <time>2016-06-04T12:20:00.000Z</time>
      </trkpt>
      <trkpt lat="47.49336" lon="6.66626">
        <ele>417.79</ele>
        <time>2016-06-04T12:20:01.000Z</time>
      </trkpt>
      <trkpt lat="47.49336" lon="6.66626">
        <ele>417.792</ele>
        <time>2016-06-04T12:20:02.000Z</time>
      </trkpt>
      <trkpt lat="47.49336" lon="6.66626">
        <ele>417.794</ele>
        <time>2016-06-04T12:20:03.000Z</time>
      </trkpt>
      <trkpt lat="47.49336" lon="6.66626">
        <ele>417.798</ele>
        <time>2016-06-04T12:20:04.000Z</time>
      </trkpt>
      <trkpt lat="47.49336" lon="6.66626">
        <ele>417.801</ele>
        <time>2016-06-04T12:20:05.000Z</time>
      </trkpt>
      <trkpt lat="47.49336" lon="6.66626">
        <ele>417.806</ele>
        <time>2016-06-04T12:20:06.000Z</time>
      </trkpt>
      <trkpt lat="47.49336" lon="6.66626">
        <ele>417.81</ele>
        <time>2016-06-04T12:20:07.000Z</time>
      </trkpt>
      <trkpt lat="47.49336" lon="6.66626">
        <ele>417.815</ele>
        <time>2016-06-04T12:20:08.000Z</time>
      </trkpt>
      <trkpt lat="47.49336" lon="6.66626">
        <ele>417.819</ele>
        <time>2016-06-04T12:20:09.000Z</time>
      </trkpt>
      <trkpt lat="47.49336" lon="6.66626">
        <ele>417.822</ele>
        <time>2016-06-04T12:20:10.000Z</time>
      </trkpt>
      <trkpt lat="47.49336" lon="6.66626">
        <ele>417.823</ele>
        <time>2016-06-04T12:20:11.000Z</time>
      </trkpt>
      <trkpt lat="47.49336" lon="6.66626">
        <ele>417.823</ele>
        <time>2016-06-04T12:20:12.000Z</time>
      </trkpt>
      <trkpt lat="47.49336" lon="6.66626">
        <ele>417.82</ele>
        <time>2016-06-04T12:20:13.000Z</time>
      </trkpt>
      <trkpt lat="47.49336" lon="6.66626">
        <ele>417.813</ele>
        <time>2016-06-04T12:20:14.000Z</time>
      </trkpt>
      <trkpt lat="47.49336" lon="6.66626">
        <ele>417.802</ele>
        <time>2016-06-04T12:20:15.000Z</time>
      </trkpt>
      <trkpt lat="47.49336" lon="6.66626">
        <ele>417.787</ele>
        <time>2016-06-04T12:20:16.000Z</time>
      </trkpt>
      <trkpt lat="47.49336" lon="6.66626">
        <ele>417.765</ele>
        <time>2016-06-04T12:20:17.000Z</time>
      </trkpt>
      <trkpt lat="47.49336" lon="6.66626">
        <ele>417.736</ele>
        <time>2016-06-04T12:20:18.000Z</time>
      </trkpt>
      <trkpt lat="47.49336" lon="6.66626">
        <ele>417.699</ele>
        <time>2016-06-04T12:20:19.000Z</time>
      </trkpt>
      <trkpt lat="47.49336" lon="6.66626">
        <ele>417.653</ele>
        <time>2016-06-04T12:20:20.000Z</time>
      </trkpt>
      <trkpt lat="47.49336" lon="6.66626">
        <ele>417.597</ele>
        <time>2016-06-04T12:20:21.000Z</time>
      </trkpt>
      <trkpt lat="47.49336" lon="6.66626">
        <ele>417.528</ele>
        <time>2016-06-04T12:20:22.000Z</time>
      </trkpt>
      <trkpt lat="47.49336" lon="6.66626">
        <ele>417.447</ele>
        <time>2016-06-04T12:20:23.000Z</time>
      </trkpt>
      <trkpt lat="47.49336" lon="6.66626">
        <ele>417.352</ele>
        <time>2016-06-04T12:20:24.000Z</time>
      </trkpt>
      <trkpt lat="47.49336" lon="6.66626">
        <ele>417.241</ele>
        <time>2016-06-04T12:20:25.000Z</time>
      </trkpt>
      <trkpt lat="47.49336" lon="6.66626">
        <ele>417.113</ele>
        <time>2016-06-04T12:20:26.000Z</time>
      </trkpt>
      <trkpt lat="47.49336" lon="6.66626">
        <ele>416.967</ele>
        <time>2016-06-04T12:20:27.000Z</time>
      </trkpt>
      <trkpt lat="47.49336" lon="6.66625">
        <ele>416.802</ele>
        <time>2016-06-04T12:20:28.000Z</time>
      </trkpt>
      <trkpt lat="47.49336" lon="6.66625">
        <ele>416.617</ele>
        <time>2016-06-04T12:20:29.000Z</time>
      </trkpt>
      <trkpt lat="47.49336" lon="6.66625">
        <ele>416.411</ele>
        <time>2016-06-04T12:20:30.000Z</time>
      </trkpt>
      <trkpt lat="47.49336" lon="6.66625">
        <ele>416.185</ele>
        <time>2016-06-04T12:20:31.000Z</time>
      </trkpt>
      <trkpt lat="47.49336" lon="6.66625">
        <ele>415.938</ele>
        <time>2016-06-04T12:20:32.000Z</time>
      </trkpt>
      <trkpt lat="47.49336" lon="6.66625">
        <ele>415.67</ele>
        <time>2016-06-04T12:20:33.000Z</time>
      </trkpt>
      <trkpt lat="47.49336" lon="6.66625">
        <ele>415.384</ele>
        <time>2016-06-04T12:20:34.000Z</time>
      </trkpt>
      <trkpt lat="47.49336" lon="6.66625">
        <ele>415.08</ele>
        <time>2016-06-04T12:20:35.000Z</time>
      </trkpt>
      <trkpt lat="47.49336" lon="6.66625">
        <ele>414.76</ele>
        <time>2016-06-04T12:20:36.000Z</time>
      </trkpt>
      <trkpt lat="47.49336" lon="6.66625">
        <ele>414.427</ele>
        <time>2016-06-04T12:20:37.000Z</time>
      </trkpt>
      <trkpt lat="47.49336" lon="6.66625">
        <ele>414.081</ele>
        <time>2016-06-04T12:20:38.000Z</time>
      </trkpt>
      <trkpt lat="47.49337" lon="6.66625">
        <ele>413.728</ele>
        <time>2016-06-04T12:20:39.000Z</time>
      </trkpt>
      <trkpt lat="47.49337" lon="6.66625">
        <ele>413.372</ele>
        <time>2016-06-04T12:20:40.000Z</time>
      </trkpt>
      <trkpt lat="47.49338" lon="6.66627">
        <ele>413.016</ele>
        <time>2016-06-04T12:20:41.000Z</time>
      </trkpt>
      <trkpt lat="47.49339" lon="6.66628">
        <ele>412.665</ele>
        <time>2016-06-04T12:20:42.000Z</time>
      </trkpt>
      <trkpt lat="47.4934" lon="6.66631">
        <ele>412.322</ele>
        <time>2016-06-04T12:20:43.000Z</time>
      </trkpt>
      <trkpt lat="47.4934" lon="6.66635">
        <ele>411.988</ele>
        <time>2016-06-04T12:20:44.000Z</time>
      </trkpt>
      <trkpt lat="47.4934" lon="6.6664">
        <ele>411.666</ele>
        <time>2016-06-04T12:20:45.000Z</time>
      </trkpt>
      <trkpt lat="47.49339" lon="6.66646">
        <ele>411.356</ele>
        <time>2016-06-04T12:20:46.000Z</time>
      </trkpt>
      <trkpt lat="47.49337" lon="6.6665">
        <ele>411.059</ele>
        <time>2016-06-04T12:20:47.000Z</time>
      </trkpt>
      <trkpt lat="47.49334" lon="6.66654">
        <ele>410.775</ele>
        <time>2016-06-04T12:20:48.000Z</time>
      </trkpt>
      <trkpt lat="47.4933" lon="6.66656">
        <ele>410.504</ele>
        <time>2016-06-04T12:20:49.000Z</time>
      </trkpt>
      <trkpt lat="47.49326" lon="6.66656">
        <ele>410.245</ele>
        <time>2016-06-04T12:20:50.000Z</time>
      </trkpt>
      <trkpt lat="47.49322" lon="6.66654">
        <ele>409.997</ele>
        <time>2016-06-04T12:20:51.000Z</time>
      </trkpt>
      <trkpt lat="47.49319" lon="6.66651">
        <ele>409.76</ele>
        <time>2016-06-04T12:20:52.000Z</time>
      </trkpt>
      <trkpt lat="47.49316" lon="6.66649">
        <ele>409.531</ele>
        <time>2016-06-04T12:20:53.000Z</time>
      </trkpt>
      <trkpt lat="47.49314" lon="6.66646">
        <ele>409.31</ele>
        <time>2016-06-04T12:20:54.000Z</time>
      </trkpt>
      <trkpt lat="47.49311" lon="6.66644">
        <ele>409.095</ele>
        <time>2016-06-04T12:20:55.000Z</time>
      </trkpt>
      <trkpt lat="47.49309" lon="6.66641">
        <ele>408.886</ele>
        <time>2016-06-04T12:20:56.000Z</time>
      </trkpt>
      <trkpt lat="47.49307" lon="6.66639">
        <ele>408.683</ele>
        <time>2016-06-04T12:20:57.000Z</time>
      </trkpt>
      <trkpt lat="47.49305" lon="6.66636">
        <ele>408.489</ele>
        <time>2016-06-04T12:20:58.000Z</time>
      </trkpt>
      <trkpt lat="47.49303" lon="6.66633">
        <ele>408.306</ele>
        <time>2016-06-04T12:20:59.000Z</time>
      </trkpt>
      <trkpt lat="47.49301" lon="6.66631">
        <ele>408.137</ele>
        <time>2016-06-04T12:21:00.000Z</time>
      </trkpt>
      <trkpt lat="47.49298" lon="6.66628">
        <ele>407.984</ele>
        <time>2016-06-04T12:21:01.000Z</time>
      </trkpt>
      <trkpt lat="47.49296" lon="6.66626">
        <ele>407.851</ele>
        <time>2016-06-04T12:21:02.000Z</time>
      </trkpt>
      <trkpt lat="47.49294" lon="6.66625">
        <ele>407.739</ele>
        <time>2016-06-04T12:21:03.000Z</time>
      </trkpt>
      <trkpt lat="47.49291" lon="6.66623">
        <ele>407.65</ele>
        <time>2016-06-04T12:21:04.000Z</time>
      </trkpt>
      <trkpt lat="47.49288" lon="6.66621">
        <ele>407.587</ele>
        <time>2016-06-04T12:21:05.000Z</time>
      </trkpt>
      <trkpt lat="47.49286" lon="6.6662">
        <ele>407.549</ele>
        <time>2016-06-04T12:21:06.000Z</time>
      </trkpt>
      <trkpt lat="47.49283" lon="6.66619">
        <ele>407.539</ele>
        <time>2016-06-04T12:21:07.000Z</time>
      </trkpt>
      <trkpt lat="47.49281" lon="6.66618">
        <ele>407.556</ele>
        <time>2016-06-04T12:21:08.000Z</time>
      </trkpt>
      <trkpt lat="47.49278" lon="6.66617">
        <ele>407.599</ele>
        <time>2016-06-04T12:21:09.000Z</time>
      </trkpt>
      <trkpt lat="47.49275" lon="6.66616">
        <ele>407.668</ele>
        <time>2016-06-04T12:21:10.000Z</time>
      </trkpt>
      <trkpt lat="47.49273" lon="6.66614">
        <ele>407.763</ele>
        <time>2016-06-04T12:21:11.000Z</time>
      </trkpt>
      <trkpt lat="47.49271" lon="6.66612">
        <ele>407.883</ele>
        <time>2016-06-04T12:21:12.000Z</time>
      </trkpt>
      <trkpt lat="47.49269" lon="6.6661">
        <ele>408.025</ele>
        <time>2016-06-04T12:21:13.000Z</time>
      </trkpt>
      <trkpt lat="47.49267" lon="6.66607">
        <ele>408.19</ele>
        <time>2016-06-04T12:21:14.000Z</time>
      </trkpt>
      <trkpt lat="47.49266" lon="6.66603">
        <ele>408.375</ele>
        <time>2016-06-04T12:21:15.000Z</time>
      </trkpt>
      <trkpt lat="47.49265" lon="6.66599">
        <ele>408.58</ele>
        <time>2016-06-04T12:21:16.000Z</time>
      </trkpt>
      <trkpt lat="47.49264" lon="6.66595">
        <ele>408.804</ele>
        <time>2016-06-04T12:21:17.000Z</time>
      </trkpt>
      <trkpt lat="47.49263" lon="6.6659">
        <ele>409.043</ele>
        <time>2016-06-04T12:21:18.000Z</time>
      </trkpt>
      <trkpt lat="47.49263" lon="6.66586">
        <ele>409.297</ele>
        <time>2016-06-04T12:21:19.000Z</time>
      </trkpt>
      <trkpt lat="47.49262" lon="6.66582">
        <ele>409.562</ele>
        <time>2016-06-04T12:21:20.000Z</time>
      </trkpt>
      <trkpt lat="47.49261" lon="6.66578">
        <ele>409.837</ele>
        <time>2016-06-04T12:21:21.000Z</time>
      </trkpt>
      <trkpt lat="47.4926" lon="6.66574">
        <ele>410.119</ele>
        <time>2016-06-04T12:21:22.000Z</time>
      </trkpt>
      <trkpt lat="47.49259" lon="6.66571">
        <ele>410.408</ele>
        <time>2016-06-04T12:21:23.000Z</time>
      </trkpt>
      <trkpt lat="47.49258" lon="6.66568">
        <ele>410.703</ele>
        <time>2016-06-04T12:21:24.000Z</time>
      </trkpt>
      <trkpt lat="47.49256" lon="6.66564">
        <ele>411.002</ele>
        <time>2016-06-04T12:21:25.000Z</time>
      </trkpt>
      <trkpt lat="47.49255" lon="6.66561">
        <ele>411.303</ele>
        <time>2016-06-04T12:21:26.000Z</time>
      </trkpt>
      <trkpt lat="47.49253" lon="6.66557">
        <ele>411.603</ele>
        <time>2016-06-04T12:21:27.000Z</time>
      </trkpt>
      <trkpt lat="47.49251" lon="6.66553">
        <ele>411.899</ele>
        <time>2016-06-04T12:21:28.000Z</time>
      </trkpt>
      <trkpt lat="47.49249" lon="6.6655">
        <ele>412.188</ele>
        <time>2016-06-04T12:21:29.000Z</time>
      </trkpt>
      <trkpt lat="47.49247" lon="6.66548">
        <ele>412.464</ele>
        <time>2016-06-04T12:21:30.000Z</time>
      </trkpt>
      <trkpt lat="47.49244" lon="6.66545">
        <ele>412.724</ele>
        <time>2016-06-04T12:21:31.000Z</time>
      </trkpt>
      <trkpt lat="47.49242" lon="6.66544">
        <ele>412.965</ele>
        <time>2016-06-04T12:21:32.000Z</time>
      </trkpt>
      <trkpt lat="47.49239" lon="6.66543">
        <ele>413.186</ele>
        <time>2016-06-04T12:21:33.000Z</time>
      </trkpt>
      <trkpt lat="47.49237" lon="6.66543">
        <ele>413.383</ele>
        <time>2016-06-04T12:21:34.000Z</time>
      </trkpt>
      <trkpt lat="47.49235" lon="6.66543">
        <ele>413.556</ele>
        <time>2016-06-04T12:21:35.000Z</time>
      </trkpt>
      <trkpt lat="47.49234" lon="6.66543">
        <ele>413.704</ele>
        <time>2016-06-04T12:21:36.000Z</time>
      </trkpt>
      <trkpt lat="47.49232" lon="6.66544">
        <ele>413.828</ele>
        <time>2016-06-04T12:21:37.000Z</time>
      </trkpt>
      <trkpt lat="47.49231" lon="6.66545">
        <ele>413.928</ele>
        <time>2016-06-04T12:21:38.000Z</time>
      </trkpt>
      <trkpt lat="47.4923" lon="6.66546">
        <ele>414.005</ele>
        <time>2016-06-04T12:21:39.000Z</time>
      </trkpt>
      <trkpt lat="47.49228" lon="6.66548">
        <ele>414.061</ele>
        <time>2016-06-04T12:21:40.000Z</time>
      </trkpt>
      <trkpt lat="47.49226" lon="6.6655">
        <ele>414.097</ele>
        <time>2016-06-04T12:21:41.000Z</time>
      </trkpt>
      <trkpt lat="47.49224" lon="6.66551">
        <ele>414.113</ele>
        <time>2016-06-04T12:21:42.000Z</time>
      </trkpt>
      <trkpt lat="47.49221" lon="6.66553">
        <ele>414.111</ele>
        <time>2016-06-04T12:21:43.000Z</time>
      </trkpt>
      <trkpt lat="47.49217" lon="6.66555">
        <ele>414.09</ele>
        <time>2016-06-04T12:21:44.000Z</time>
      </trkpt>
      <trkpt lat="47.49213" lon="6.66557">
        <ele>414.052</ele>
        <time>2016-06-04T12:21:45.000Z</time>
      </trkpt>
      <trkpt lat="47.49209" lon="6.66559">
        <ele>413.997</ele>
        <time>2016-06-04T12:21:46.000Z</time>
      </trkpt>
      <trkpt lat="47.49204" lon="6.66561">
        <ele>413.926</ele>
        <time>2016-06-04T12:21:47.000Z</time>
      </trkpt>
      <trkpt lat="47.492" lon="6.66563">
        <ele>413.841</ele>
        <time>2016-06-04T12:21:48.000Z</time>
      </trkpt>
      <trkpt lat="47.49195" lon="6.66563">
        <ele>413.744</ele>
        <time>2016-06-04T12:21:49.000Z</time>
      </trkpt>
      <trkpt lat="47.4919" lon="6.66563">
        <ele>413.638</ele>
        <time>2016-06-04T12:21:50.000Z</time>
      </trkpt>
      <trkpt lat="47.49185" lon="6.66562">
        <ele>413.526</ele>
        <time>2016-06-04T12:21:51.000Z</time>
      </trkpt>
      <trkpt lat="47.49181" lon="6.66561">
        <ele>413.412</ele>
        <time>2016-06-04T12:21:52.000Z</time>
      </trkpt>
      <trkpt lat="47.49177" lon="6.6656">
        <ele>413.298</ele>
        <time>2016-06-04T12:21:53.000Z</time>
      </trkpt>
      <trkpt lat="47.49172" lon="6.6656">
        <ele>413.185</ele>
        <time>2016-06-04T12:21:54.000Z</time>
      </trkpt>
      <trkpt lat="47.49168" lon="6.66559">
        <ele>413.074</ele>
        <time>2016-06-04T12:21:55.000Z</time>
      </trkpt>
      <trkpt lat="47.49164" lon="6.66558">
        <ele>412.961</ele>
        <time>2016-06-04T12:21:56.000Z</time>
      </trkpt>
      <trkpt lat="47.4916" lon="6.66557">
        <ele>412.846</ele>
        <time>2016-06-04T12:21:57.000Z</time>
      </trkpt>
      <trkpt lat="47.49155" lon="6.66557">
        <ele>412.724</ele>
        <time>2016-06-04T12:21:58.000Z</time>
      </trkpt>
      <trkpt lat="47.4915" lon="6.66556">
        <ele>412.594</ele>
        <time>2016-06-04T12:21:59.000Z</time>
      </trkpt>
      <trkpt lat="47.49145" lon="6.66556">
        <ele>412.454</ele>
        <time>2016-06-04T12:22:00.000Z</time>
      </trkpt>
      <trkpt lat="47.49139" lon="6.66555">
        <ele>412.304</ele>
        <time>2016-06-04T12:22:01.000Z</time>
      </trkpt>
      <trkpt lat="47.49133" lon="6.66554">
        <ele>412.145</ele>
        <time>2016-06-04T12:22:02.000Z</time>
      </trkpt>
      <trkpt lat="47.49127" lon="6.66553">
        <ele>411.98</ele>
        <time>2016-06-04T12:22:03.000Z</time>
      </trkpt>
      <trkpt lat="47.49121" lon="6.66551">
        <ele>411.812</ele>
        <time>2016-06-04T12:22:04.000Z</time>
      </trkpt>
      <trkpt lat="47.49114" lon="6.6655">
        <ele>411.644</ele>
        <time>2016-06-04T12:22:05.000Z</time>
      </trkpt>
      <trkpt lat="47.49108" lon="6.66548">
        <ele>411.481</ele>
        <time>2016-06-04T12:22:06.000Z</time>
      </trkpt>
      <trkpt lat="47.49102" lon="6.66547">
        <ele>411.324</ele>
        <time>2016-06-04T12:22:07.000Z</time>
      </trkpt>
      <trkpt lat="47.49095" lon="6.66546">
        <ele>411.178</ele>
        <time>2016-06-04T12:22:08.000Z</time>
      </trkpt>
      <trkpt lat="47.49089" lon="6.66544">
        <ele>411.045</ele>
        <time>2016-06-04T12:22:09.000Z</time>
      </trkpt>
      <trkpt lat="47.49083" lon="6.66542">
        <ele>410.927</ele>
        <time>2016-06-04T12:22:10.000Z</time>
      </trkpt>
      <trkpt lat="47.49078" lon="6.66538">
        <ele>410.825</ele>
        <time>2016-06-04T12:22:11.000Z</time>
      </trkpt>
      <trkpt lat="47.49073" lon="6.66535">
        <ele>410.738</ele>
        <time>2016-06-04T12:22:12.000Z</time>
      </trkpt>
      <trkpt lat="47.49068" lon="6.6653">
        <ele>410.667</ele>
        <time>2016-06-04T12:22:13.000Z</time>
      </trkpt>
      <trkpt lat="47.49063" lon="6.66526">
        <ele>410.609</ele>
        <time>2016-06-04T12:22:14.000Z</time>
      </trkpt>
      <trkpt lat="47.49058" lon="6.66521">
        <ele>410.564</ele>
        <time>2016-06-04T12:22:15.000Z</time>
      </trkpt>
      <trkpt lat="47.49053" lon="6.66515">
        <ele>410.531</ele>
        <time>2016-06-04T12:22:16.000Z</time>
      </trkpt>
      <trkpt lat="47.49049" lon="6.6651">
        <ele>410.508</ele>
        <time>2016-06-04T12:22:17.000Z</time>
      </trkpt>
      <trkpt lat="47.49045" lon="6.66505">
        <ele>410.495</ele>
        <time>2016-06-04T12:22:18.000Z</time>
      </trkpt>
      <trkpt lat="47.49041" lon="6.66499">
        <ele>410.493</ele>
        <time>2016-06-04T12:22:19.000Z</time>
      </trkpt>
      <trkpt lat="47.49038" lon="6.66493">
        <ele>410.501</ele>
        <time>2016-06-04T12:22:20.000Z</time>
      </trkpt>
      <trkpt lat="47.49035" lon="6.66488">
        <ele>410.518</ele>
        <time>2016-06-04T12:22:21.000Z</time>
      </trkpt>
      <trkpt lat="47.49031" lon="6.66482">
        <ele>410.543</ele>
        <time>2016-06-04T12:22:22.000Z</time>
      </trkpt>
      <trkpt lat="47.49028" lon="6.66477">
        <ele>410.575</ele>
        <time>2016-06-04T12:22:23.000Z</time>
      </trkpt>
      <trkpt lat="47.49025" lon="6.66472">
        <ele>410.612</ele>
        <time>2016-06-04T12:22:24.000Z</time>
      </trkpt>
      <trkpt lat="47.49022" lon="6.66468">
        <ele>410.65</ele>
        <time>2016-06-04T12:22:25.000Z</time>
      </trkpt>
      <trkpt lat="47.49019" lon="6.66463">
        <ele>410.686</ele>
        <time>2016-06-04T12:22:26.000Z</time>
      </trkpt>
      <trkpt lat="47.49014" lon="6.6646">
        <ele>410.718</ele>
        <time>2016-06-04T12:22:27.000Z</time>
      </trkpt>
      <trkpt lat="47.49009" lon="6.66456">
        <ele>410.744</ele>
        <time>2016-06-04T12:22:28.000Z</time>
      </trkpt>
      <trkpt lat="47.49004" lon="6.66453">
        <ele>410.764</ele>
        <time>2016-06-04T12:22:29.000Z</time>
      </trkpt>
      <trkpt lat="47.48999" lon="6.6645">
        <ele>410.777</ele>
        <time>2016-06-04T12:22:30.000Z</time>
      </trkpt>
      <trkpt lat="47.48993" lon="6.66448">
        <ele>410.784</ele>
        <time>2016-06-04T12:22:31.000Z</time>
      </trkpt>
      <trkpt lat="47.48988" lon="6.66447">
        <ele>410.788</ele>
        <time>2016-06-04T12:22:32.000Z</time>
      </trkpt>
      <trkpt lat="47.48982" lon="6.66446">
        <ele>410.788</ele>
        <time>2016-06-04T12:22:33.000Z</time>
      </trkpt>
      <trkpt lat="47.48978" lon="6.66445">
        <ele>410.786</ele>
        <time>2016-06-04T12:22:34.000Z</time>
      </trkpt>
      <trkpt lat="47.48973" lon="6.66445">
        <ele>410.785</ele>
        <time>2016-06-04T12:22:35.000Z</time>
      </trkpt>
      <trkpt lat="47.48968" lon="6.66445">
        <ele>410.784</ele>
        <time>2016-06-04T12:22:36.000Z</time>
      </trkpt>
      <trkpt lat="47.48963" lon="6.66445">
        <ele>410.784</ele>
        <time>2016-06-04T12:22:37.000Z</time>
      </trkpt>
      <trkpt lat="47.48959" lon="6.66446">
        <ele>410.783</ele>
        <time>2016-06-04T12:22:38.000Z</time>
      </trkpt>
      <trkpt lat="47.48954" lon="6.66448">
        <ele>410.782</ele>
        <time>2016-06-04T12:22:39.000Z</time>
      </trkpt>
      <trkpt lat="47.4895" lon="6.6645">
        <ele>410.777</ele>
        <time>2016-06-04T12:22:40.000Z</time>
      </trkpt>
      <trkpt lat="47.48945" lon="6.66452">
        <ele>410.77</ele>
        <time>2016-06-04T12:22:41.000Z</time>
      </trkpt>
      <trkpt lat="47.48941" lon="6.66454">
        <ele>410.758</ele>
        <time>2016-06-04T12:22:42.000Z</time>
      </trkpt>
      <trkpt lat="47.48937" lon="6.66456">
        <ele>410.742</ele>
        <time>2016-06-04T12:22:43.000Z</time>
      </trkpt>
      <trkpt lat="47.48933" lon="6.66459">
        <ele>410.721</ele>
        <time>2016-06-04T12:22:44.000Z</time>
      </trkpt>
      <trkpt lat="47.48929" lon="6.66461">
        <ele>410.698</ele>
        <time>2016-06-04T12:22:45.000Z</time>
      </trkpt>
      <trkpt lat="47.48926" lon="6.66463">
        <ele>410.672</ele>
        <time>2016-06-04T12:22:46.000Z</time>
      </trkpt>
      <trkpt lat="47.48922" lon="6.66466">
        <ele>410.644</ele>
        <time>2016-06-04T12:22:47.000Z</time>
      </trkpt>
      <trkpt lat="47.48918" lon="6.66468">
        <ele>410.615</ele>
        <time>2016-06-04T12:22:48.000Z</time>
      </trkpt>
      <trkpt lat="47.48915" lon="6.6647">
        <ele>410.585</ele>
        <time>2016-06-04T12:22:49.000Z</time>
      </trkpt>
      <trkpt lat="47.48911" lon="6.66471">
        <ele>410.555</ele>
        <time>2016-06-04T12:22:50.000Z</time>
      </trkpt>
      <trkpt lat="47.48908" lon="6.66472">
        <ele>410.526</ele>
        <time>2016-06-04T12:22:51.000Z</time>
      </trkpt>
      <trkpt lat="47.489" lon="6.66478">
        <ele>410.64</ele>
        <time>2016-06-04T12:22:52.002Z</time>
      </trkpt>
      <trkpt lat="47.48897" lon="6.66478">
        <ele>407.495</ele>
        <time>2016-06-04T12:22:53.001Z</time>
      </trkpt>
      <trkpt lat="47.48893" lon="6.66479">
        <ele>408.578</ele>
        <time>2016-06-04T12:22:54.000Z</time>
      </trkpt>
      <trkpt lat="47.48889" lon="6.6648">
        <ele>408.744</ele>
        <time>2016-06-04T12:22:55.000Z</time>
      </trkpt>
      <trkpt lat="47.48884" lon="6.66481">
        <ele>409.471</ele>
        <time>2016-06-04T12:22:56.000Z</time>
      </trkpt>
      <trkpt lat="47.4888" lon="6.66483">
        <ele>409.55</ele>
        <time>2016-06-04T12:22:57.000Z</time>
      </trkpt>
      <trkpt lat="47.48876" lon="6.66484">
        <ele>409.457</ele>
        <time>2016-06-04T12:22:58.000Z</time>
      </trkpt>
      <trkpt lat="47.48871" lon="6.66485">
        <ele>409.389</ele>
        <time>2016-06-04T12:22:59.377Z</time>
      </trkpt>
      <trkpt lat="47.48865" lon="6.66488">
        <ele>410.674</ele>
        <time>2016-06-04T12:23:00.377Z</time>
      </trkpt>
      <trkpt lat="47.48862" lon="6.66486">
        <ele>410.615</ele>
        <time>2016-06-04T12:23:01.377Z</time>
      </trkpt>
      <trkpt lat="47.48858" lon="6.66486">
        <ele>410.557</ele>
        <time>2016-06-04T12:23:02.377Z</time>
      </trkpt>
      <trkpt lat="47.48854" lon="6.66486">
        <ele>410.498</ele>
        <time>2016-06-04T12:23:03.377Z</time>
      </trkpt>
      <trkpt lat="47.4885" lon="6.66486">
        <ele>410.439</ele>
        <time>2016-06-04T12:23:04.377Z</time>
      </trkpt>
      <trkpt lat="47.48846" lon="6.66487">
        <ele>410.381</ele>
        <time>2016-06-04T12:23:05.377Z</time>
      </trkpt>
      <trkpt lat="47.48841" lon="6.66487">
        <ele>410.326</ele>
        <time>2016-06-04T12:23:06.377Z</time>
      </trkpt>
      <trkpt lat="47.48837" lon="6.66487">
        <ele>410.277</ele>
        <time>2016-06-04T12:23:07.377Z</time>
      </trkpt>
      <trkpt lat="47.48833" lon="6.66488">
        <ele>410.235</ele>
        <time>2016-06-04T12:23:08.377Z</time>
      </trkpt>
      <trkpt lat="47.48829" lon="6.66488">
        <ele>410.204</ele>
        <time>2016-06-04T12:23:09.377Z</time>
      </trkpt>
      <trkpt lat="47.48825" lon="6.66489">
        <ele>410.184</ele>
        <time>2016-06-04T12:23:10.377Z</time>
      </trkpt>
      <trkpt lat="47.48821" lon="6.6649">
        <ele>410.178</ele>
        <time>2016-06-04T12:23:11.377Z</time>
      </trkpt>
      <trkpt lat="47.48817" lon="6.6649">
        <ele>410.186</ele>
        <time>2016-06-04T12:23:12.377Z</time>
      </trkpt>
      <trkpt lat="47.48813" lon="6.66492">
        <ele>410.209</ele>
        <time>2016-06-04T12:23:13.377Z</time>
      </trkpt>
      <trkpt lat="47.48809" lon="6.66494">
        <ele>410.245</ele>
        <time>2016-06-04T12:23:14.377Z</time>
      </trkpt>
      <trkpt lat="47.48805" lon="6.66496">
        <ele>410.292</ele>
        <time>2016-06-04T12:23:15.377Z</time>
      </trkpt>
      <trkpt lat="47.48802" lon="6.66498">
        <ele>410.347</ele>
        <time>2016-06-04T12:23:16.377Z</time>
      </trkpt>
      <trkpt lat="47.48798" lon="6.665">
        <ele>410.407</ele>
        <time>2016-06-04T12:23:17.377Z</time>
      </trkpt>
      <trkpt lat="47.48795" lon="6.66503">
        <ele>410.468</ele>
        <time>2016-06-04T12:23:18.377Z</time>
      </trkpt>
      <trkpt lat="47.48792" lon="6.66506">
        <ele>410.528</ele>
        <time>2016-06-04T12:23:19.377Z</time>
      </trkpt>
      <trkpt lat="47.48788" lon="6.66511">
        <ele>410.584</ele>
        <time>2016-06-04T12:23:20.377Z</time>
      </trkpt>
      <trkpt lat="47.48784" lon="6.66515">
        <ele>410.635</ele>
        <time>2016-06-04T12:23:21.377Z</time>
      </trkpt>
      <trkpt lat="47.48781" lon="6.66518">
        <ele>410.676</ele>
        <time>2016-06-04T12:23:22.377Z</time>
      </trkpt>
      <trkpt lat="47.48778" lon="6.66522">
        <ele>410.706</ele>
        <time>2016-06-04T12:23:23.377Z</time>
      </trkpt>
      <trkpt lat="47.48774" lon="6.66526">
        <ele>410.718</ele>
        <time>2016-06-04T12:23:24.377Z</time>
      </trkpt>
      <trkpt lat="47.4877" lon="6.6653">
        <ele>410.71</ele>
        <time>2016-06-04T12:23:25.377Z</time>
      </trkpt>
      <trkpt lat="47.48766" lon="6.66533">
        <ele>410.677</ele>
        <time>2016-06-04T12:23:26.377Z</time>
      </trkpt>
      <trkpt lat="47.48762" lon="6.66537">
        <ele>410.616</ele>
        <time>2016-06-04T12:23:27.377Z</time>
      </trkpt>
      <trkpt lat="47.48759" lon="6.66541">
        <ele>410.525</ele>
        <time>2016-06-04T12:23:28.377Z</time>
      </trkpt>
      <trkpt lat="47.48755" lon="6.66544">
        <ele>410.404</ele>
        <time>2016-06-04T12:23:29.377Z</time>
      </trkpt>
      <trkpt lat="47.48751" lon="6.66548">
        <ele>410.25</ele>
        <time>2016-06-04T12:23:30.377Z</time>
      </trkpt>
      <trkpt lat="47.48747" lon="6.66552">
        <ele>410.067</ele>
        <time>2016-06-04T12:23:31.377Z</time>
      </trkpt>
      <trkpt lat="47.48742" lon="6.66556">
        <ele>409.855</ele>
        <time>2016-06-04T12:23:32.377Z</time>
      </trkpt>
      <trkpt lat="47.48738" lon="6.6656">
        <ele>409.617</ele>
        <time>2016-06-04T12:23:33.377Z</time>
      </trkpt>
      <trkpt lat="47.48733" lon="6.66564">
        <ele>409.357</ele>
        <time>2016-06-04T12:23:34.377Z</time>
      </trkpt>
      <trkpt lat="47.48728" lon="6.66568">
        <ele>409.079</ele>
        <time>2016-06-04T12:23:35.377Z</time>
      </trkpt>
      <trkpt lat="47.48724" lon="6.66573">
        <ele>408.787</ele>
        <time>2016-06-04T12:23:36.377Z</time>
      </trkpt>
      <trkpt lat="47.48719" lon="6.66577">
        <ele>408.486</ele>
        <time>2016-06-04T12:23:37.377Z</time>
      </trkpt>
      <trkpt lat="47.48714" lon="6.66582">
        <ele>408.177</ele>
        <time>2016-06-04T12:23:38.377Z</time>
      </trkpt>
      <trkpt lat="47.48709" lon="6.66586">
        <ele>407.865</ele>
        <time>2016-06-04T12:23:39.377Z</time>
      </trkpt>
      <trkpt lat="47.48704" lon="6.66589">
        <ele>407.55</ele>
        <time>2016-06-04T12:23:40.377Z</time>
      </trkpt>
      <trkpt lat="47.48698" lon="6.66593">
        <ele>407.237</ele>
        <time>2016-06-04T12:23:41.377Z</time>
      </trkpt>
      <trkpt lat="47.48692" lon="6.66597">
        <ele>406.926</ele>
        <time>2016-06-04T12:23:42.377Z</time>
      </trkpt>
      <trkpt lat="47.48686" lon="6.666">
        <ele>406.619</ele>
        <time>2016-06-04T12:23:43.377Z</time>
      </trkpt>
      <trkpt lat="47.4868" lon="6.66604">
        <ele>406.32</ele>
        <time>2016-06-04T12:23:44.377Z</time>
      </trkpt>
      <trkpt lat="47.48674" lon="6.66608">
        <ele>406.029</ele>
        <time>2016-06-04T12:23:45.377Z</time>
      </trkpt>
      <trkpt lat="47.48668" lon="6.66612">
        <ele>405.745</ele>
        <time>2016-06-04T12:23:46.377Z</time>
      </trkpt>
      <trkpt lat="47.48662" lon="6.66617">
        <ele>405.47</ele>
        <time>2016-06-04T12:23:47.377Z</time>
      </trkpt>
      <trkpt lat="47.48656" lon="6.66622">
        <ele>405.201</ele>
        <time>2016-06-04T12:23:48.377Z</time>
      </trkpt>
      <trkpt lat="47.48651" lon="6.66628">
        <ele>404.939</ele>
        <time>2016-06-04T12:23:49.377Z</time>
      </trkpt>
      <trkpt lat="47.48645" lon="6.66634">
        <ele>404.683</ele>
        <time>2016-06-04T12:23:50.377Z</time>
      </trkpt>
      <trkpt lat="47.48639" lon="6.66641">
        <ele>404.432</ele>
        <time>2016-06-04T12:23:51.377Z</time>
      </trkpt>
      <trkpt lat="47.48633" lon="6.66647">
        <ele>404.184</ele>
        <time>2016-06-04T12:23:52.377Z</time>
      </trkpt>
      <trkpt lat="47.48627" lon="6.66654">
        <ele>403.939</ele>
        <time>2016-06-04T12:23:53.377Z</time>
      </trkpt>
      <trkpt lat="47.48621" lon="6.66661">
        <ele>403.695</ele>
        <time>2016-06-04T12:23:54.377Z</time>
      </trkpt>
      <trkpt lat="47.48614" lon="6.66667">
        <ele>403.452</ele>
        <time>2016-06-04T12:23:55.377Z</time>
      </trkpt>
      <trkpt lat="47.48608" lon="6.66674">
        <ele>403.211</ele>
        <time>2016-06-04T12:23:56.377Z</time>
      </trkpt>
      <trkpt lat="47.48601" lon="6.66681">
        <ele>402.973</ele>
        <time>2016-06-04T12:23:57.377Z</time>
      </trkpt>
      <trkpt lat="47.48594" lon="6.66688">
        <ele>402.74</ele>
        <time>2016-06-04T12:23:58.377Z</time>
      </trkpt>
      <trkpt lat="47.48588" lon="6.66696">
        <ele>402.515</ele>
        <time>2016-06-04T12:23:59.377Z</time>
      </trkpt>
      <trkpt lat="47.48582" lon="6.66703">
        <ele>402.297</ele>
        <time>2016-06-04T12:24:00.377Z</time>
      </trkpt>
      <trkpt lat="47.48576" lon="6.66709">
        <ele>402.089</ele>
        <time>2016-06-04T12:24:01.377Z</time>
      </trkpt>
      <trkpt lat="47.4857" lon="6.66715">
        <ele>401.89</ele>
        <time>2016-06-04T12:24:02.377Z</time>
      </trkpt>
      <trkpt lat="47.48564" lon="6.6672">
        <ele>401.699</ele>
        <time>2016-06-04T12:24:03.377Z</time>
      </trkpt>
      <trkpt lat="47.48559" lon="6.66725">
        <ele>401.516</ele>
        <time>2016-06-04T12:24:04.377Z</time>
      </trkpt>
      <trkpt lat="47.48553" lon="6.66729">
        <ele>401.34</ele>
        <time>2016-06-04T12:24:05.377Z</time>
      </trkpt>
      <trkpt lat="47.48548" lon="6.66732">
        <ele>401.167</ele>
        <time>2016-06-04T12:24:06.377Z</time>
      </trkpt>
      <trkpt lat="47.48543" lon="6.66735">
        <ele>400.998</ele>
        <time>2016-06-04T12:24:07.377Z</time>
      </trkpt>
      <trkpt lat="47.48537" lon="6.66736">
        <ele>400.829</ele>
        <time>2016-06-04T12:24:08.377Z</time>
      </trkpt>
      <trkpt lat="47.48531" lon="6.66737">
        <ele>400.658</ele>
        <time>2016-06-04T12:24:09.377Z</time>
      </trkpt>
      <trkpt lat="47.48526" lon="6.66737">
        <ele>400.486</ele>
        <time>2016-06-04T12:24:10.377Z</time>
      </trkpt>
      <trkpt lat="47.48521" lon="6.66736">
        <ele>400.312</ele>
        <time>2016-06-04T12:24:11.377Z</time>
      </trkpt>
      <trkpt lat="47.48516" lon="6.66734">
        <ele>400.137</ele>
        <time>2016-06-04T12:24:12.377Z</time>
      </trkpt>
      <trkpt lat="47.48512" lon="6.66733">
        <ele>399.961</ele>
        <time>2016-06-04T12:24:13.377Z</time>
      </trkpt>
      <trkpt lat="47.48508" lon="6.66731">
        <ele>399.787</ele>
        <time>2016-06-04T12:24:14.377Z</time>
      </trkpt>
      <trkpt lat="47.48504" lon="6.66729">
        <ele>399.615</ele>
        <time>2016-06-04T12:24:15.377Z</time>
      </trkpt>
      <trkpt lat="47.485" lon="6.66726">
        <ele>399.447</ele>
        <time>2016-06-04T12:24:16.377Z</time>
      </trkpt>
      <trkpt lat="47.48496" lon="6.66724">
        <ele>399.285</ele>
        <time>2016-06-04T12:24:17.377Z</time>
      </trkpt>
      <trkpt lat="47.48492" lon="6.66722">
        <ele>399.132</ele>
        <time>2016-06-04T12:24:18.377Z</time>
      </trkpt>
      <trkpt lat="47.48487" lon="6.66719">
        <ele>398.989</ele>
        <time>2016-06-04T12:24:19.377Z</time>
      </trkpt>
      <trkpt lat="47.48483" lon="6.66717">
        <ele>398.86</ele>
        <time>2016-06-04T12:24:20.377Z</time>
      </trkpt>
      <trkpt lat="47.48479" lon="6.66715">
        <ele>398.747</ele>
        <time>2016-06-04T12:24:21.377Z</time>
      </trkpt>
      <trkpt lat="47.48475" lon="6.66712">
        <ele>398.652</ele>
        <time>2016-06-04T12:24:22.377Z</time>
      </trkpt>
      <trkpt lat="47.48471" lon="6.6671">
        <ele>398.577</ele>
        <time>2016-06-04T12:24:23.377Z</time>
      </trkpt>
      <trkpt lat="47.48467" lon="6.66708">
        <ele>398.524</ele>
        <time>2016-06-04T12:24:24.377Z</time>
      </trkpt>
      <trkpt lat="47.48462" lon="6.66706">
        <ele>398.495</ele>
        <time>2016-06-04T12:24:25.377Z</time>
      </trkpt>
      <trkpt lat="47.48458" lon="6.66704">
        <ele>398.49</ele>
        <time>2016-06-04T12:24:26.377Z</time>
      </trkpt>
      <trkpt lat="47.48454" lon="6.66703">
        <ele>398.511</ele>
        <time>2016-06-04T12:24:27.377Z</time>
      </trkpt>
      <trkpt lat="47.4845" lon="6.66701">
        <ele>398.557</ele>
        <time>2016-06-04T12:24:28.377Z</time>
      </trkpt>
      <trkpt lat="47.48447" lon="6.667">
        <ele>398.627</ele>
        <time>2016-06-04T12:24:29.377Z</time>
      </trkpt>
      <trkpt lat="47.48443" lon="6.667">
        <ele>398.718</ele>
        <time>2016-06-04T12:24:30.377Z</time>
      </trkpt>
      <trkpt lat="47.48439" lon="6.667">
        <ele>398.828</ele>
        <time>2016-06-04T12:24:31.377Z</time>
      </trkpt>
      <trkpt lat="47.48435" lon="6.667">
        <ele>398.953</ele>
        <time>2016-06-04T12:24:32.377Z</time>
      </trkpt>
      <trkpt lat="47.4843" lon="6.667">
        <ele>399.092</ele>
        <time>2016-06-04T12:24:33.377Z</time>
      </trkpt>
      <trkpt lat="47.48426" lon="6.66701">
        <ele>399.238</ele>
        <time>2016-06-04T12:24:34.377Z</time>
      </trkpt>
      <trkpt lat="47.48422" lon="6.66702">
        <ele>399.39</ele>
        <time>2016-06-04T12:24:35.377Z</time>
      </trkpt>
      <trkpt lat="47.48418" lon="6.66703">
        <ele>399.543</ele>
        <time>2016-06-04T12:24:36.377Z</time>
      </trkpt>
      <trkpt lat="47.48414" lon="6.66705">
        <ele>399.694</ele>
        <time>2016-06-04T12:24:37.377Z</time>
      </trkpt>
      <trkpt lat="47.48409" lon="6.66707">
        <ele>399.839</ele>
        <time>2016-06-04T12:24:38.377Z</time>
      </trkpt>
      <trkpt lat="47.48405" lon="6.66709">
        <ele>399.975</ele>
        <time>2016-06-04T12:24:39.377Z</time>
      </trkpt>
      <trkpt lat="47.484" lon="6.66712">
        <ele>400.099</ele>
        <time>2016-06-04T12:24:40.377Z</time>
      </trkpt>
      <trkpt lat="47.48396" lon="6.66714">
        <ele>400.208</ele>
        <time>2016-06-04T12:24:41.377Z</time>
      </trkpt>
      <trkpt lat="47.48392" lon="6.66717">
        <ele>400.299</ele>
        <time>2016-06-04T12:24:42.377Z</time>
      </trkpt>
      <trkpt lat="47.48387" lon="6.6672">
        <ele>400.368</ele>
        <time>2016-06-04T12:24:43.377Z</time>
      </trkpt>
      <trkpt lat="47.48383" lon="6.66724">
        <ele>400.413</ele>
        <time>2016-06-04T12:24:44.377Z</time>
      </trkpt>
      <trkpt lat="47.48378" lon="6.66728">
        <ele>400.435</ele>
        <time>2016-06-04T12:24:45.377Z</time>
      </trkpt>
      <trkpt lat="47.48373" lon="6.66732">
        <ele>400.433</ele>
        <time>2016-06-04T12:24:46.377Z</time>
      </trkpt>
      <trkpt lat="47.48369" lon="6.66737">
        <ele>400.408</ele>
        <time>2016-06-04T12:24:47.377Z</time>
      </trkpt>
      <trkpt lat="47.48365" lon="6.66742">
        <ele>400.364</ele>
        <time>2016-06-04T12:24:48.377Z</time>
      </trkpt>
      <trkpt lat="47.48362" lon="6.66747">
        <ele>400.302</ele>
        <time>2016-06-04T12:24:49.377Z</time>
      </trkpt>
      <trkpt lat="47.48359" lon="6.66752">
        <ele>400.225</ele>
        <time>2016-06-04T12:24:50.377Z</time>
      </trkpt>
      <trkpt lat="47.48355" lon="6.66757">
        <ele>400.134</ele>
        <time>2016-06-04T12:24:51.377Z</time>
      </trkpt>
      <trkpt lat="47.48352" lon="6.66762">
        <ele>400.029</ele>
        <time>2016-06-04T12:24:52.377Z</time>
      </trkpt>
      <trkpt lat="47.48349" lon="6.66768">
        <ele>399.912</ele>
        <time>2016-06-04T12:24:53.377Z</time>
      </trkpt>
      <trkpt lat="47.48346" lon="6.66774">
        <ele>399.784</ele>
        <time>2016-06-04T12:24:54.377Z</time>
      </trkpt>
      <trkpt lat="47.48343" lon="6.66781">
        <ele>399.646</ele>
        <time>2016-06-04T12:24:55.377Z</time>
      </trkpt>
      <trkpt lat="47.48341" lon="6.66787">
        <ele>399.5</ele>
        <time>2016-06-04T12:24:56.377Z</time>
      </trkpt>
      <trkpt lat="47.48338" lon="6.66793">
        <ele>399.346</ele>
        <time>2016-06-04T12:24:57.377Z</time>
      </trkpt>
      <trkpt lat="47.48336" lon="6.66799">
        <ele>399.188</ele>
        <time>2016-06-04T12:24:58.377Z</time>
      </trkpt>
      <trkpt lat="47.48335" lon="6.66805">
        <ele>399.026</ele>
        <time>2016-06-04T12:24:59.377Z</time>
      </trkpt>
      <trkpt lat="47.48333" lon="6.66811">
        <ele>398.863</ele>
        <time>2016-06-04T12:25:00.377Z</time>
      </trkpt>
      <trkpt lat="47.48331" lon="6.66817">
        <ele>398.7</ele>
        <time>2016-06-04T12:25:01.377Z</time>
      </trkpt>
      <trkpt lat="47.48329" lon="6.66823">
        <ele>398.54</ele>
        <time>2016-06-04T12:25:02.377Z</time>
      </trkpt>
      <trkpt lat="47.48327" lon="6.66829">
        <ele>398.387</ele>
        <time>2016-06-04T12:25:03.377Z</time>
      </trkpt>
      <trkpt lat="47.48325" lon="6.66836">
        <ele>398.243</ele>
        <time>2016-06-04T12:25:04.377Z</time>
      </trkpt>
      <trkpt lat="47.48323" lon="6.66842">
        <ele>398.111</ele>
        <time>2016-06-04T12:25:05.377Z</time>
      </trkpt>
      <trkpt lat="47.48321" lon="6.66849">
        <ele>397.992</ele>
        <time>2016-06-04T12:25:06.377Z</time>
      </trkpt>
      <trkpt lat="47.48319" lon="6.66855">
        <ele>397.889</ele>
        <time>2016-06-04T12:25:07.377Z</time>
      </trkpt>
      <trkpt lat="47.48317" lon="6.66862">
        <ele>397.802</ele>
        <time>2016-06-04T12:25:08.377Z</time>
      </trkpt>
      <trkpt lat="47.48315" lon="6.66868">
        <ele>397.733</ele>
        <time>2016-06-04T12:25:09.377Z</time>
      </trkpt>
      <trkpt lat="47.48313" lon="6.66875">
        <ele>397.683</ele>
        <time>2016-06-04T12:25:10.377Z</time>
      </trkpt>
      <trkpt lat="47.4831" lon="6.66882">
        <ele>397.65</ele>
        <time>2016-06-04T12:25:11.377Z</time>
      </trkpt>
      <trkpt lat="47.48308" lon="6.66888">
        <ele>397.635</ele>
        <time>2016-06-04T12:25:12.377Z</time>
      </trkpt>
      <trkpt lat="47.48306" lon="6.66895">
        <ele>397.636</ele>
        <time>2016-06-04T12:25:13.377Z</time>
      </trkpt>
      <trkpt lat="47.48304" lon="6.66901">
        <ele>397.652</ele>
        <time>2016-06-04T12:25:14.377Z</time>
      </trkpt>
      <trkpt lat="47.48302" lon="6.66908">
        <ele>397.681</ele>
        <time>2016-06-04T12:25:15.377Z</time>
      </trkpt>
      <trkpt lat="47.48301" lon="6.66914">
        <ele>397.722</ele>
        <time>2016-06-04T12:25:16.377Z</time>
      </trkpt>
      <trkpt lat="47.48299" lon="6.66921">
        <ele>397.773</ele>
        <time>2016-06-04T12:25:17.377Z</time>
      </trkpt>
      <trkpt lat="47.48297" lon="6.66928">
        <ele>397.831</ele>
        <time>2016-06-04T12:25:18.377Z</time>
      </trkpt>
      <trkpt lat="47.48295" lon="6.66935">
        <ele>397.894</ele>
        <time>2016-06-04T12:25:19.377Z</time>
      </trkpt>
      <trkpt lat="47.48293" lon="6.66942">
        <ele>397.962</ele>
        <time>2016-06-04T12:25:20.377Z</time>
      </trkpt>
      <trkpt lat="47.4829" lon="6.66948">
        <ele>398.031</ele>
        <time>2016-06-04T12:25:21.377Z</time>
      </trkpt>
      <trkpt lat="47.48288" lon="6.66955">
        <ele>398.102</ele>
        <time>2016-06-04T12:25:22.377Z</time>
      </trkpt>
      <trkpt lat="47.48286" lon="6.66962">
        <ele>398.173</ele>
        <time>2016-06-04T12:25:23.377Z</time>
      </trkpt>
      <trkpt lat="47.48284" lon="6.66969">
        <ele>398.244</ele>
        <time>2016-06-04T12:25:24.377Z</time>
      </trkpt>
      <trkpt lat="47.48282" lon="6.66976">
        <ele>398.315</ele>
        <time>2016-06-04T12:25:25.377Z</time>
      </trkpt>
      <trkpt lat="47.4828" lon="6.66983">
        <ele>398.383</ele>
        <time>2016-06-04T12:25:26.377Z</time>
      </trkpt>
      <trkpt lat="47.48279" lon="6.6699">
        <ele>398.448</ele>
        <time>2016-06-04T12:25:27.377Z</time>
      </trkpt>
      <trkpt lat="47.48277" lon="6.66997">
        <ele>398.508</ele>
        <time>2016-06-04T12:25:28.377Z</time>
      </trkpt>
      <trkpt lat="47.48275" lon="6.67004">
        <ele>398.565</ele>
        <time>2016-06-04T12:25:29.377Z</time>
      </trkpt>
      <trkpt lat="47.48273" lon="6.67011">
        <ele>398.62</ele>
        <time>2016-06-04T12:25:30.377Z</time>
      </trkpt>
      <trkpt lat="47.48271" lon="6.67018">
        <ele>398.678</ele>
        <time>2016-06-04T12:25:31.377Z</time>
      </trkpt>
      <trkpt lat="47.48269" lon="6.67025">
        <ele>398.743</ele>
        <time>2016-06-04T12:25:32.377Z</time>
      </trkpt>
      <trkpt lat="47.48268" lon="6.67032">
        <ele>398.82</ele>
        <time>2016-06-04T12:25:33.377Z</time>
      </trkpt>
      <trkpt lat="47.48266" lon="6.67039">
        <ele>398.913</ele>
        <time>2016-06-04T12:25:34.377Z</time>
      </trkpt>
      <trkpt lat="47.48265" lon="6.67045">
        <ele>399.022</ele>
        <time>2016-06-04T12:25:35.377Z</time>
      </trkpt>
      <trkpt lat="47.48264" lon="6.67052">
        <ele>399.148</ele>
        <time>2016-06-04T12:25:36.377Z</time>
      </trkpt>
      <trkpt lat="47.48262" lon="6.67059">
        <ele>399.289</ele>
        <time>2016-06-04T12:25:37.377Z</time>
      </trkpt>
      <trkpt lat="47.48261" lon="6.67066">
        <ele>399.443</ele>
        <time>2016-06-04T12:25:38.377Z</time>
      </trkpt>
      <trkpt lat="47.48259" lon="6.67073">
        <ele>399.608</ele>
        <time>2016-06-04T12:25:39.377Z</time>
      </trkpt>
      <trkpt lat="47.48258" lon="6.67079">
        <ele>399.783</ele>
        <time>2016-06-04T12:25:40.377Z</time>
      </trkpt>
      <trkpt lat="47.48257" lon="6.67086">
        <ele>399.964</ele>
        <time>2016-06-04T12:25:41.377Z</time>
      </trkpt>
      <trkpt lat="47.48255" lon="6.67093">
        <ele>400.15</ele>
        <time>2016-06-04T12:25:42.377Z</time>
      </trkpt>
      <trkpt lat="47.48254" lon="6.671">
        <ele>400.339</ele>
        <time>2016-06-04T12:25:43.377Z</time>
      </trkpt>
      <trkpt lat="47.48253" lon="6.67107">
        <ele>400.529</ele>
        <time>2016-06-04T12:25:44.377Z</time>
      </trkpt>
      <trkpt lat="47.48252" lon="6.67114">
        <ele>400.719</ele>
        <time>2016-06-04T12:25:45.377Z</time>
      </trkpt>
      <trkpt lat="47.48251" lon="6.67121">
        <ele>400.908</ele>
        <time>2016-06-04T12:25:46.377Z</time>
      </trkpt>
      <trkpt lat="47.4825" lon="6.67127">
        <ele>401.093</ele>
        <time>2016-06-04T12:25:47.377Z</time>
      </trkpt>
      <trkpt lat="47.48249" lon="6.67134">
        <ele>401.275</ele>
        <time>2016-06-04T12:25:48.377Z</time>
      </trkpt>
      <trkpt lat="47.48247" lon="6.67141">
        <ele>401.449</ele>
        <time>2016-06-04T12:25:49.377Z</time>
      </trkpt>
      <trkpt lat="47.48246" lon="6.67148">
        <ele>401.615</ele>
        <time>2016-06-04T12:25:50.377Z</time>
      </trkpt>
      <trkpt lat="47.48245" lon="6.67155">
        <ele>401.771</ele>
        <time>2016-06-04T12:25:51.377Z</time>
      </trkpt>
      <trkpt lat="47.48243" lon="6.67162">
        <ele>401.913</ele>
        <time>2016-06-04T12:25:52.377Z</time>
      </trkpt>
      <trkpt lat="47.48242" lon="6.67169">
        <ele>402.04</ele>
        <time>2016-06-04T12:25:53.377Z</time>
      </trkpt>
      <trkpt lat="47.48241" lon="6.67175">
        <ele>402.148</ele>
        <time>2016-06-04T12:25:54.377Z</time>
      </trkpt>
      <trkpt lat="47.4824" lon="6.67182">
        <ele>402.234</ele>
        <time>2016-06-04T12:25:55.377Z</time>
      </trkpt>
      <trkpt lat="47.48239" lon="6.67189">
        <ele>402.295</ele>
        <time>2016-06-04T12:25:56.377Z</time>
      </trkpt>
      <trkpt lat="47.48238" lon="6.67196">
        <ele>402.33</ele>
        <time>2016-06-04T12:25:57.377Z</time>
      </trkpt>
      <trkpt lat="47.48237" lon="6.67204">
        <ele>402.338</ele>
        <time>2016-06-04T12:25:58.377Z</time>
      </trkpt>
      <trkpt lat="47.48235" lon="6.67211">
        <ele>402.318</ele>
        <time>2016-06-04T12:25:59.377Z</time>
      </trkpt>
      <trkpt lat="47.48234" lon="6.67218">
        <ele>402.269</ele>
        <time>2016-06-04T12:26:00.377Z</time>
      </trkpt>
      <trkpt lat="47.48233" lon="6.67226">
        <ele>402.191</ele>
        <time>2016-06-04T12:26:01.377Z</time>
      </trkpt>
      <trkpt lat="47.48232" lon="6.67233">
        <ele>402.084</ele>
        <time>2016-06-04T12:26:02.377Z</time>
      </trkpt>
      <trkpt lat="47.4823" lon="6.6724">
        <ele>401.952</ele>
        <time>2016-06-04T12:26:03.377Z</time>
      </trkpt>
      <trkpt lat="47.48228" lon="6.67246">
        <ele>401.797</ele>
        <time>2016-06-04T12:26:04.377Z</time>
      </trkpt>
      <trkpt lat="47.48227" lon="6.67253">
        <ele>401.624</ele>
        <time>2016-06-04T12:26:05.377Z</time>
      </trkpt>
      <trkpt lat="47.48225" lon="6.67259">
        <ele>401.437</ele>
        <time>2016-06-04T12:26:06.377Z</time>
      </trkpt>
      <trkpt lat="47.48222" lon="6.67265">
        <ele>401.242</ele>
        <time>2016-06-04T12:26:07.377Z</time>
      </trkpt>
      <trkpt lat="47.4822" lon="6.67271">
        <ele>401.041</ele>
        <time>2016-06-04T12:26:08.377Z</time>
      </trkpt>
      <trkpt lat="47.48218" lon="6.67278">
        <ele>400.837</ele>
        <time>2016-06-04T12:26:09.377Z</time>
      </trkpt>
      <trkpt lat="47.48217" lon="6.67285">
        <ele>400.631</ele>
        <time>2016-06-04T12:26:10.377Z</time>
      </trkpt>
      <trkpt lat="47.48215" lon="6.67292">
        <ele>400.424</ele>
        <time>2016-06-04T12:26:11.377Z</time>
      </trkpt>
      <trkpt lat="47.48213" lon="6.67299">
        <ele>400.215</ele>
        <time>2016-06-04T12:26:12.377Z</time>
      </trkpt>
      <trkpt lat="47.48211" lon="6.67307">
        <ele>400.001</ele>
        <time>2016-06-04T12:26:13.377Z</time>
      </trkpt>
      <trkpt lat="47.48209" lon="6.67314">
        <ele>399.781</ele>
        <time>2016-06-04T12:26:14.377Z</time>
      </trkpt>
      <trkpt lat="47.48206" lon="6.67322">
        <ele>399.553</ele>
        <time>2016-06-04T12:26:15.377Z</time>
      </trkpt>
      <trkpt lat="47.48204" lon="6.67329">
        <ele>399.314</ele>
        <time>2016-06-04T12:26:16.377Z</time>
      </trkpt>
      <trkpt lat="47.48202" lon="6.67337">
        <ele>399.061</ele>
        <time>2016-06-04T12:26:17.377Z</time>
      </trkpt>
      <trkpt lat="47.48199" lon="6.67344">
        <ele>398.794</ele>
        <time>2016-06-04T12:26:18.377Z</time>
      </trkpt>
      <trkpt lat="47.48197" lon="6.67352">
        <ele>398.512</ele>
        <time>2016-06-04T12:26:19.377Z</time>
      </trkpt>
      <trkpt lat="47.48194" lon="6.6736">
        <ele>398.215</ele>
        <time>2016-06-04T12:26:20.377Z</time>
      </trkpt>
      <trkpt lat="47.48192" lon="6.67368">
        <ele>397.904</ele>
        <time>2016-06-04T12:26:21.377Z</time>
      </trkpt>
      <trkpt lat="47.4819" lon="6.67376">
        <ele>397.582</ele>
        <time>2016-06-04T12:26:22.377Z</time>
      </trkpt>
      <trkpt lat="47.48187" lon="6.67384">
        <ele>397.252</ele>
        <time>2016-06-04T12:26:23.377Z</time>
      </trkpt>
      <trkpt lat="47.48184" lon="6.67392">
        <ele>396.916</ele>
        <time>2016-06-04T12:26:24.377Z</time>
      </trkpt>
      <trkpt lat="47.48181" lon="6.674">
        <ele>396.578</ele>
        <time>2016-06-04T12:26:25.377Z</time>
      </trkpt>
      <trkpt lat="47.48178" lon="6.67408">
        <ele>396.243</ele>
        <time>2016-06-04T12:26:26.377Z</time>
      </trkpt>
      <trkpt lat="47.48174" lon="6.67415">
        <ele>395.915</ele>
        <time>2016-06-04T12:26:27.377Z</time>
      </trkpt>
      <trkpt lat="47.48169" lon="6.67423">
        <ele>395.596</ele>
        <time>2016-06-04T12:26:28.377Z</time>
      </trkpt>
      <trkpt lat="47.48165" lon="6.6743">
        <ele>395.291</ele>
        <time>2016-06-04T12:26:29.377Z</time>
      </trkpt>
      <trkpt lat="47.4816" lon="6.67437">
        <ele>394.999</ele>
        <time>2016-06-04T12:26:30.377Z</time>
      </trkpt>
      <trkpt lat="47.48155" lon="6.67444">
        <ele>394.722</ele>
        <time>2016-06-04T12:26:31.377Z</time>
      </trkpt>
      <trkpt lat="47.4815" lon="6.67452">
        <ele>394.457</ele>
        <time>2016-06-04T12:26:32.377Z</time>
      </trkpt>
      <trkpt lat="47.48145" lon="6.67461">
        <ele>394.204</ele>
        <time>2016-06-04T12:26:33.377Z</time>
      </trkpt>
      <trkpt lat="47.4814" lon="6.6747">
        <ele>393.963</ele>
        <time>2016-06-04T12:26:34.377Z</time>
      </trkpt>
      <trkpt lat="47.48136" lon="6.6748">
        <ele>393.732</ele>
        <time>2016-06-04T12:26:35.377Z</time>
      </trkpt>
      <trkpt lat="47.48132" lon="6.6749">
        <ele>393.512</ele>
        <time>2016-06-04T12:26:36.377Z</time>
      </trkpt>
      <trkpt lat="47.48128" lon="6.67501">
        <ele>393.302</ele>
        <time>2016-06-04T12:26:37.377Z</time>
      </trkpt>
      <trkpt lat="47.48124" lon="6.67513">
        <ele>393.103</ele>
        <time>2016-06-04T12:26:38.377Z</time>
      </trkpt>
      <trkpt lat="47.48121" lon="6.67525">
        <ele>392.915</ele>
        <time>2016-06-04T12:26:39.377Z</time>
      </trkpt>
      <trkpt lat="47.48118" lon="6.67538">
        <ele>392.74</ele>
        <time>2016-06-04T12:26:40.377Z</time>
      </trkpt>
      <trkpt lat="47.48115" lon="6.6755">
        <ele>392.578</ele>
        <time>2016-06-04T12:26:41.377Z</time>
      </trkpt>
      <trkpt lat="47.48113" lon="6.6756">
        <ele>392.429</ele>
        <time>2016-06-04T12:26:42.377Z</time>
      </trkpt>
      <trkpt lat="47.48111" lon="6.6757">
        <ele>392.295</ele>
        <time>2016-06-04T12:26:43.377Z</time>
      </trkpt>
      <trkpt lat="47.48108" lon="6.67579">
        <ele>392.173</ele>
        <time>2016-06-04T12:26:44.377Z</time>
      </trkpt>
      <trkpt lat="47.48106" lon="6.67588">
        <ele>392.063</ele>
        <time>2016-06-04T12:26:45.377Z</time>
      </trkpt>
      <trkpt lat="47.48103" lon="6.67597">
        <ele>391.963</ele>
        <time>2016-06-04T12:26:46.377Z</time>
      </trkpt>
      <trkpt lat="47.48101" lon="6.67606">
        <ele>391.874</ele>
        <time>2016-06-04T12:26:47.377Z</time>
      </trkpt>
      <trkpt lat="47.48098" lon="6.67616">
        <ele>391.796</ele>
        <time>2016-06-04T12:26:48.377Z</time>
      </trkpt>
      <trkpt lat="47.48096" lon="6.67627">
        <ele>391.728</ele>
        <time>2016-06-04T12:26:49.377Z</time>
      </trkpt>
      <trkpt lat="47.48094" lon="6.67638">
        <ele>391.671</ele>
        <time>2016-06-04T12:26:50.377Z</time>
      </trkpt>
      <trkpt lat="47.48092" lon="6.67649">
        <ele>391.625</ele>
        <time>2016-06-04T12:26:51.377Z</time>
      </trkpt>
      <trkpt lat="47.48091" lon="6.67659">
        <ele>391.593</ele>
        <time>2016-06-04T12:26:52.377Z</time>
      </trkpt>
      <trkpt lat="47.4809" lon="6.67669">
        <ele>391.574</ele>
        <time>2016-06-04T12:26:53.377Z</time>
      </trkpt>
      <trkpt lat="47.48088" lon="6.67678">
        <ele>391.571</ele>
        <time>2016-06-04T12:26:54.377Z</time>
      </trkpt>
      <trkpt lat="47.48087" lon="6.67688">
        <ele>391.583</ele>
        <time>2016-06-04T12:26:55.377Z</time>
      </trkpt>
      <trkpt lat="47.48085" lon="6.67697">
        <ele>391.61</ele>
        <time>2016-06-04T12:26:56.377Z</time>
      </trkpt>
      <trkpt lat="47.48083" lon="6.67708">
        <ele>391.652</ele>
        <time>2016-06-04T12:26:57.377Z</time>
      </trkpt>
      <trkpt lat="47.4808" lon="6.67718">
        <ele>391.707</ele>
        <time>2016-06-04T12:26:58.377Z</time>
      </trkpt>
      <trkpt lat="47.48078" lon="6.67729">
        <ele>391.775</ele>
        <time>2016-06-04T12:26:59.377Z</time>
      </trkpt>
      <trkpt lat="47.48075" lon="6.67739">
        <ele>391.857</ele>
        <time>2016-06-04T12:27:00.377Z</time>
      </trkpt>
      <trkpt lat="47.48071" lon="6.6775">
        <ele>391.951</ele>
        <time>2016-06-04T12:27:01.377Z</time>
      </trkpt>
      <trkpt lat="47.48067" lon="6.67762">
        <ele>392.059</ele>
        <time>2016-06-04T12:27:02.377Z</time>
      </trkpt>
      <trkpt lat="47.48062" lon="6.67774">
        <ele>392.18</ele>
        <time>2016-06-04T12:27:03.377Z</time>
      </trkpt>
      <trkpt lat="47.48056" lon="6.67785">
        <ele>392.315</ele>
        <time>2016-06-04T12:27:04.377Z</time>
      </trkpt>
      <trkpt lat="47.4805" lon="6.67795">
        <ele>392.463</ele>
        <time>2016-06-04T12:27:05.377Z</time>
      </trkpt>
      <trkpt lat="47.48044" lon="6.67804">
        <ele>392.624</ele>
        <time>2016-06-04T12:27:06.377Z</time>
      </trkpt>
      <trkpt lat="47.48036" lon="6.67814">
        <ele>392.799</ele>
        <time>2016-06-04T12:27:07.377Z</time>
      </trkpt>
      <trkpt lat="47.48029" lon="6.67826">
        <ele>392.985</ele>
        <time>2016-06-04T12:27:08.377Z</time>
      </trkpt>
      <trkpt lat="47.48021" lon="6.67838">
        <ele>393.181</ele>
        <time>2016-06-04T12:27:09.377Z</time>
      </trkpt>
      <trkpt lat="47.48014" lon="6.67848">
        <ele>393.385</ele>
        <time>2016-06-04T12:27:10.377Z</time>
      </trkpt>
      <trkpt lat="47.48007" lon="6.67856">
        <ele>393.591</ele>
        <time>2016-06-04T12:27:11.377Z</time>
      </trkpt>
      <trkpt lat="47.48001" lon="6.67865">
        <ele>393.798</ele>
        <time>2016-06-04T12:27:12.377Z</time>
      </trkpt>
      <trkpt lat="47.47995" lon="6.67872">
        <ele>393.999</ele>
        <time>2016-06-04T12:27:13.377Z</time>
      </trkpt>
      <trkpt lat="47.4799" lon="6.6788">
        <ele>394.189</ele>
        <time>2016-06-04T12:27:14.377Z</time>
      </trkpt>
      <trkpt lat="47.47984" lon="6.67888">
        <ele>394.363</ele>
        <time>2016-06-04T12:27:15.377Z</time>
      </trkpt>
      <trkpt lat="47.47979" lon="6.67897">
        <ele>394.515</ele>
        <time>2016-06-04T12:27:16.377Z</time>
      </trkpt>
      <trkpt lat="47.47974" lon="6.67906">
        <ele>394.641</ele>
        <time>2016-06-04T12:27:17.377Z</time>
      </trkpt>
      <trkpt lat="47.4797" lon="6.67915">
        <ele>394.734</ele>
        <time>2016-06-04T12:27:18.377Z</time>
      </trkpt>
      <trkpt lat="47.47966" lon="6.67925">
        <ele>394.791</ele>
        <time>2016-06-04T12:27:19.377Z</time>
      </trkpt>
      <trkpt lat="47.47963" lon="6.67936">
        <ele>394.806</ele>
        <time>2016-06-04T12:27:20.377Z</time>
      </trkpt>
      <trkpt lat="47.47961" lon="6.67949">
        <ele>394.778</ele>
        <time>2016-06-04T12:27:21.377Z</time>
      </trkpt>
      <trkpt lat="47.47958" lon="6.67965">
        <ele>394.702</ele>
        <time>2016-06-04T12:27:22.377Z</time>
      </trkpt>
      <trkpt lat="47.47956" lon="6.67982">
        <ele>394.58</ele>
        <time>2016-06-04T12:27:23.377Z</time>
      </trkpt>
      <trkpt lat="47.47955" lon="6.68">
        <ele>394.41</ele>
        <time>2016-06-04T12:27:24.377Z</time>
      </trkpt>
      <trkpt lat="47.47954" lon="6.68019">
        <ele>394.195</ele>
        <time>2016-06-04T12:27:25.377Z</time>
      </trkpt>
      <trkpt lat="47.47953" lon="6.68038">
        <ele>393.933</ele>
        <time>2016-06-04T12:27:26.377Z</time>
      </trkpt>
      <trkpt lat="47.47953" lon="6.68058">
        <ele>393.628</ele>
        <time>2016-06-04T12:27:27.377Z</time>
      </trkpt>
      <trkpt lat="47.47952" lon="6.68078">
        <ele>393.281</ele>
        <time>2016-06-04T12:27:28.377Z</time>
      </trkpt>
      <trkpt lat="47.4795" lon="6.68097">
        <ele>392.892</ele>
        <time>2016-06-04T12:27:29.377Z</time>
      </trkpt>
      <trkpt lat="47.47948" lon="6.68114">
        <ele>392.462</ele>
        <time>2016-06-04T12:27:30.377Z</time>
      </trkpt>
      <trkpt lat="47.47945" lon="6.68129">
        <ele>391.992</ele>
        <time>2016-06-04T12:27:31.377Z</time>
      </trkpt>
      <trkpt lat="47.47942" lon="6.68143">
        <ele>391.481</ele>
        <time>2016-06-04T12:27:32.377Z</time>
      </trkpt>
      <trkpt lat="47.47939" lon="6.68156">
        <ele>390.928</ele>
        <time>2016-06-04T12:27:33.377Z</time>
      </trkpt>
      <trkpt lat="47.47935" lon="6.6817">
        <ele>390.333</ele>
        <time>2016-06-04T12:27:34.377Z</time>
      </trkpt>
      <trkpt lat="47.47931" lon="6.68185">
        <ele>389.695</ele>
        <time>2016-06-04T12:27:35.377Z</time>
      </trkpt>
      <trkpt lat="47.47927" lon="6.68199">
        <ele>389.011</ele>
        <time>2016-06-04T12:27:36.377Z</time>
      </trkpt>
      <trkpt lat="47.47924" lon="6.68214">
        <ele>388.28</ele>
        <time>2016-06-04T12:27:37.377Z</time>
      </trkpt>
      <trkpt lat="47.47921" lon="6.68227">
        <ele>387.499</ele>
        <time>2016-06-04T12:27:38.377Z</time>
      </trkpt>
      <trkpt lat="47.47918" lon="6.6824">
        <ele>386.666</ele>
        <time>2016-06-04T12:27:39.377Z</time>
      </trkpt>
      <trkpt lat="47.47915" lon="6.68256">
        <ele>385.779</ele>
        <time>2016-06-04T12:27:40.377Z</time>
      </trkpt>
      <trkpt lat="47.47912" lon="6.68273">
        <ele>384.835</ele>
        <time>2016-06-04T12:27:41.377Z</time>
      </trkpt>
      <trkpt lat="47.47908" lon="6.6829">
        <ele>383.832</ele>
        <time>2016-06-04T12:27:42.377Z</time>
      </trkpt>
      <trkpt lat="47.47904" lon="6.68308">
        <ele>382.767</ele>
        <time>2016-06-04T12:27:43.377Z</time>
      </trkpt>
      <trkpt lat="47.47899" lon="6.68326">
        <ele>381.639</ele>
        <time>2016-06-04T12:27:44.377Z</time>
      </trkpt>
      <trkpt lat="47.47894" lon="6.68343">
        <ele>380.445</ele>
        <time>2016-06-04T12:27:45.377Z</time>
      </trkpt>
      <trkpt lat="47.47889" lon="6.68359">
        <ele>379.185</ele>
        <time>2016-06-04T12:27:46.377Z</time>
      </trkpt>
      <trkpt lat="47.47883" lon="6.68376">
        <ele>377.858</ele>
        <time>2016-06-04T12:27:47.377Z</time>
      </trkpt>
      <trkpt lat="47.47878" lon="6.68393">
        <ele>376.466</ele>
        <time>2016-06-04T12:27:48.377Z</time>
      </trkpt>
      <trkpt lat="47.47872" lon="6.6841">
        <ele>375.011</ele>
        <time>2016-06-04T12:27:49.377Z</time>
      </trkpt>
      <trkpt lat="47.47866" lon="6.68426">
        <ele>373.496</ele>
        <time>2016-06-04T12:27:50.377Z</time>
      </trkpt>
      <trkpt lat="47.4786" lon="6.68442">
        <ele>371.928</ele>
        <time>2016-06-04T12:27:51.377Z</time>
      </trkpt>
      <trkpt lat="47.47854" lon="6.68458">
        <ele>370.313</ele>
        <time>2016-06-04T12:27:52.377Z</time>
      </trkpt>
      <trkpt lat="47.47847" lon="6.68472">
        <ele>368.661</ele>
        <time>2016-06-04T12:27:53.377Z</time>
      </trkpt>
      <trkpt lat="47.47841" lon="6.68486">
        <ele>366.982</ele>
        <time>2016-06-04T12:27:54.377Z</time>
      </trkpt>
      <trkpt lat="47.47834" lon="6.68499">
        <ele>365.289</ele>
        <time>2016-06-04T12:27:55.377Z</time>
      </trkpt>
      <trkpt lat="47.47827" lon="6.68511">
        <ele>363.595</ele>
        <time>2016-06-04T12:27:56.377Z</time>
      </trkpt>
      <trkpt lat="47.4782" lon="6.68522">
        <ele>361.913</ele>
        <time>2016-06-04T12:27:57.377Z</time>
      </trkpt>
      <trkpt lat="47.47812" lon="6.68531">
        <ele>360.258</ele>
        <time>2016-06-04T12:27:58.377Z</time>
      </trkpt>
      <trkpt lat="47.47804" lon="6.68538">
        <ele>358.64</ele>
        <time>2016-06-04T12:27:59.377Z</time>
      </trkpt>
      <trkpt lat="47.47796" lon="6.68544">
        <ele>357.069</ele>
        <time>2016-06-04T12:28:00.377Z</time>
      </trkpt>
      <trkpt lat="47.47787" lon="6.68548">
        <ele>355.554</ele>
        <time>2016-06-04T12:28:01.377Z</time>
      </trkpt>
      <trkpt lat="47.47778" lon="6.68552">
        <ele>354.102</ele>
        <time>2016-06-04T12:28:02.377Z</time>
      </trkpt>
      <trkpt lat="47.47768" lon="6.68556">
        <ele>352.72</ele>
        <time>2016-06-04T12:28:03.377Z</time>
      </trkpt>
      <trkpt lat="47.47759" lon="6.6856">
        <ele>351.41</ele>
        <time>2016-06-04T12:28:04.377Z</time>
      </trkpt>
      <trkpt lat="47.47749" lon="6.68565">
        <ele>350.177</ele>
        <time>2016-06-04T12:28:05.377Z</time>
      </trkpt>
      <trkpt lat="47.4774" lon="6.68571">
        <ele>349.019</ele>
        <time>2016-06-04T12:28:06.377Z</time>
      </trkpt>
      <trkpt lat="47.47731" lon="6.68579">
        <ele>347.938</ele>
        <time>2016-06-04T12:28:07.377Z</time>
      </trkpt>
      <trkpt lat="47.47722" lon="6.68587">
        <ele>346.931</ele>
        <time>2016-06-04T12:28:08.377Z</time>
      </trkpt>
      <trkpt lat="47.47714" lon="6.68597">
        <ele>345.997</ele>
        <time>2016-06-04T12:28:09.377Z</time>
      </trkpt>
      <trkpt lat="47.47706" lon="6.68608">
        <ele>345.133</ele>
        <time>2016-06-04T12:28:10.377Z</time>
      </trkpt>
      <trkpt lat="47.47698" lon="6.68619">
        <ele>344.338</ele>
        <time>2016-06-04T12:28:11.377Z</time>
      </trkpt>
      <trkpt lat="47.4769" lon="6.6863">
        <ele>343.61</ele>
        <time>2016-06-04T12:28:12.377Z</time>
      </trkpt>
      <trkpt lat="47.47683" lon="6.68641">
        <ele>342.945</ele>
        <time>2016-06-04T12:28:13.377Z</time>
      </trkpt>
      <trkpt lat="47.47675" lon="6.68652">
        <ele>342.339</ele>
        <time>2016-06-04T12:28:14.377Z</time>
      </trkpt>
      <trkpt lat="47.47667" lon="6.68662">
        <ele>341.787</ele>
        <time>2016-06-04T12:28:15.377Z</time>
      </trkpt>
      <trkpt lat="47.4766" lon="6.68673">
        <ele>341.283</ele>
        <time>2016-06-04T12:28:16.377Z</time>
      </trkpt>
      <trkpt lat="47.47654" lon="6.68682">
        <ele>340.821</ele>
        <time>2016-06-04T12:28:17.377Z</time>
      </trkpt>
      <trkpt lat="47.47649" lon="6.6869">
        <ele>340.395</ele>
        <time>2016-06-04T12:28:18.377Z</time>
      </trkpt>
      <trkpt lat="47.47645" lon="6.687">
        <ele>339.999</ele>
        <time>2016-06-04T12:28:19.377Z</time>
      </trkpt>
      <trkpt lat="47.47642" lon="6.6871">
        <ele>339.625</ele>
        <time>2016-06-04T12:28:20.377Z</time>
      </trkpt>
      <trkpt lat="47.47639" lon="6.68721">
        <ele>339.269</ele>
        <time>2016-06-04T12:28:21.377Z</time>
      </trkpt>
      <trkpt lat="47.47638" lon="6.68734">
        <ele>338.924</ele>
        <time>2016-06-04T12:28:22.377Z</time>
      </trkpt>
      <trkpt lat="47.47636" lon="6.68746">
        <ele>338.587</ele>
        <time>2016-06-04T12:28:23.377Z</time>
      </trkpt>
      <trkpt lat="47.47635" lon="6.68757">
        <ele>338.253</ele>
        <time>2016-06-04T12:28:24.377Z</time>
      </trkpt>
      <trkpt lat="47.47633" lon="6.68767">
        <ele>337.919</ele>
        <time>2016-06-04T12:28:25.377Z</time>
      </trkpt>
      <trkpt lat="47.47632" lon="6.68776">
        <ele>337.583</ele>
        <time>2016-06-04T12:28:26.377Z</time>
      </trkpt>
      <trkpt lat="47.4763" lon="6.68784">
        <ele>337.243</ele>
        <time>2016-06-04T12:28:27.377Z</time>
      </trkpt>
      <trkpt lat="47.47629" lon="6.68791">
        <ele>336.895</ele>
        <time>2016-06-04T12:28:28.377Z</time>
      </trkpt>
      <trkpt lat="47.47627" lon="6.68797">
        <ele>336.54</ele>
        <time>2016-06-04T12:28:29.377Z</time>
      </trkpt>
      <trkpt lat="47.47626" lon="6.68802">
        <ele>336.176</ele>
        <time>2016-06-04T12:28:30.377Z</time>
      </trkpt>
      <trkpt lat="47.47623" lon="6.68807">
        <ele>335.804</ele>
        <time>2016-06-04T12:28:31.377Z</time>
      </trkpt>
      <trkpt lat="47.4762" lon="6.68811">
        <ele>335.424</ele>
        <time>2016-06-04T12:28:32.377Z</time>
      </trkpt>
      <trkpt lat="47.47617" lon="6.68814">
        <ele>335.036</ele>
        <time>2016-06-04T12:28:33.377Z</time>
      </trkpt>
      <trkpt lat="47.47612" lon="6.68818">
        <ele>334.64</ele>
        <time>2016-06-04T12:28:34.377Z</time>
      </trkpt>
      <trkpt lat="47.47607" lon="6.68821">
        <ele>334.235</ele>
        <time>2016-06-04T12:28:35.377Z</time>
      </trkpt>
      <trkpt lat="47.47602" lon="6.68824">
        <ele>333.819</ele>
        <time>2016-06-04T12:28:36.377Z</time>
      </trkpt>
      <trkpt lat="47.47596" lon="6.68828">
        <ele>333.39</ele>
        <time>2016-06-04T12:28:37.377Z</time>
      </trkpt>
      <trkpt lat="47.47591" lon="6.68831">
        <ele>332.944</ele>
        <time>2016-06-04T12:28:38.377Z</time>
      </trkpt>
      <trkpt lat="47.47585" lon="6.68835">
        <ele>332.48</ele>
        <time>2016-06-04T12:28:39.377Z</time>
      </trkpt>
      <trkpt lat="47.47579" lon="6.68837">
        <ele>331.995</ele>
        <time>2016-06-04T12:28:40.377Z</time>
      </trkpt>
      <trkpt lat="47.47573" lon="6.6884">
        <ele>331.49</ele>
        <time>2016-06-04T12:28:41.377Z</time>
      </trkpt>
      <trkpt lat="47.47566" lon="6.68842">
        <ele>330.967</ele>
        <time>2016-06-04T12:28:42.377Z</time>
      </trkpt>
      <trkpt lat="47.47559" lon="6.68844">
        <ele>330.429</ele>
        <time>2016-06-04T12:28:43.377Z</time>
      </trkpt>
      <trkpt lat="47.47552" lon="6.68847">
        <ele>329.882</ele>
        <time>2016-06-04T12:28:44.377Z</time>
      </trkpt>
      <trkpt lat="47.47544" lon="6.68849">
        <ele>329.327</ele>
        <time>2016-06-04T12:28:45.377Z</time>
      </trkpt>
      <trkpt lat="47.47537" lon="6.68852">
        <ele>328.771</ele>
        <time>2016-06-04T12:28:46.377Z</time>
      </trkpt>
      <trkpt lat="47.47529" lon="6.68854">
        <ele>328.216</ele>
        <time>2016-06-04T12:28:47.377Z</time>
      </trkpt>
      <trkpt lat="47.47521" lon="6.68856">
        <ele>327.668</ele>
        <time>2016-06-04T12:28:48.377Z</time>
      </trkpt>
      <trkpt lat="47.47513" lon="6.68857">
        <ele>327.133</ele>
        <time>2016-06-04T12:28:49.377Z</time>
      </trkpt>
      <trkpt lat="47.47504" lon="6.68858">
        <ele>326.614</ele>
        <time>2016-06-04T12:28:50.377Z</time>
      </trkpt>
      <trkpt lat="47.47494" lon="6.68859">
        <ele>326.117</ele>
        <time>2016-06-04T12:28:51.377Z</time>
      </trkpt>
      <trkpt lat="47.47484" lon="6.68859">
        <ele>325.646</ele>
        <time>2016-06-04T12:28:52.377Z</time>
      </trkpt>
      <trkpt lat="47.47475" lon="6.68856">
        <ele>325.202</ele>
        <time>2016-06-04T12:28:53.377Z</time>
      </trkpt>
      <trkpt lat="47.47466" lon="6.68853">
        <ele>324.789</ele>
        <time>2016-06-04T12:28:54.377Z</time>
      </trkpt>
      <trkpt lat="47.47457" lon="6.6885">
        <ele>324.404</ele>
        <time>2016-06-04T12:28:55.377Z</time>
      </trkpt>
      <trkpt lat="47.47448" lon="6.68849">
        <ele>324.044</ele>
        <time>2016-06-04T12:28:56.377Z</time>
      </trkpt>
      <trkpt lat="47.47441" lon="6.6885">
        <ele>323.702</ele>
        <time>2016-06-04T12:28:57.377Z</time>
      </trkpt>
      <trkpt lat="47.47434" lon="6.68855">
        <ele>323.37</ele>
        <time>2016-06-04T12:28:58.377Z</time>
      </trkpt>
      <trkpt lat="47.47427" lon="6.68862">
        <ele>323.039</ele>
        <time>2016-06-04T12:28:59.377Z</time>
      </trkpt>
      <trkpt lat="47.47422" lon="6.68871">
        <ele>322.703</ele>
        <time>2016-06-04T12:29:00.377Z</time>
      </trkpt>
      <trkpt lat="47.47416" lon="6.6888">
        <ele>322.36</ele>
        <time>2016-06-04T12:29:01.377Z</time>
      </trkpt>
      <trkpt lat="47.47409" lon="6.68888">
        <ele>322.008</ele>
        <time>2016-06-04T12:29:02.377Z</time>
      </trkpt>
      <trkpt lat="47.47403" lon="6.68897">
        <ele>321.648</ele>
        <time>2016-06-04T12:29:03.377Z</time>
      </trkpt>
      <trkpt lat="47.47395" lon="6.68907">
        <ele>321.281</ele>
        <time>2016-06-04T12:29:04.377Z</time>
      </trkpt>
      <trkpt lat="47.47388" lon="6.68918">
        <ele>320.909</ele>
        <time>2016-06-04T12:29:05.377Z</time>
      </trkpt>
      <trkpt lat="47.4738" lon="6.68927">
        <ele>320.537</ele>
        <time>2016-06-04T12:29:06.377Z</time>
      </trkpt>
      <trkpt lat="47.47372" lon="6.68937">
        <ele>320.167</ele>
        <time>2016-06-04T12:29:07.377Z</time>
      </trkpt>
      <trkpt lat="47.47365" lon="6.68947">
        <ele>319.803</ele>
        <time>2016-06-04T12:29:08.377Z</time>
      </trkpt>
      <trkpt lat="47.47357" lon="6.68957">
        <ele>319.447</ele>
        <time>2016-06-04T12:29:09.377Z</time>
      </trkpt>
      <trkpt lat="47.4735" lon="6.68967">
        <ele>319.102</ele>
        <time>2016-06-04T12:29:10.377Z</time>
      </trkpt>
      <trkpt lat="47.47343" lon="6.68978">
        <ele>318.77</ele>
        <time>2016-06-04T12:29:11.377Z</time>
      </trkpt>
      <trkpt lat="47.47337" lon="6.6899">
        <ele>318.454</ele>
        <time>2016-06-04T12:29:12.377Z</time>
      </trkpt>
      <trkpt lat="47.47332" lon="6.69002">
        <ele>318.155</ele>
        <time>2016-06-04T12:29:13.377Z</time>
      </trkpt>
      <trkpt lat="47.47328" lon="6.69015">
        <ele>317.872</ele>
        <time>2016-06-04T12:29:14.377Z</time>
      </trkpt>
      <trkpt lat="47.47324" lon="6.69029">
        <ele>317.608</ele>
        <time>2016-06-04T12:29:15.377Z</time>
      </trkpt>
      <trkpt lat="47.47321" lon="6.69041">
        <ele>317.362</ele>
        <time>2016-06-04T12:29:16.377Z</time>
      </trkpt>
      <trkpt lat="47.47319" lon="6.69052">
        <ele>317.135</ele>
        <time>2016-06-04T12:29:17.377Z</time>
      </trkpt>
      <trkpt lat="47.47316" lon="6.69062">
        <ele>316.927</ele>
        <time>2016-06-04T12:29:18.377Z</time>
      </trkpt>
      <trkpt lat="47.47313" lon="6.69072">
        <ele>316.738</ele>
        <time>2016-06-04T12:29:19.377Z</time>
      </trkpt>
      <trkpt lat="47.47309" lon="6.69081">
        <ele>316.569</ele>
        <time>2016-06-04T12:29:20.377Z</time>
      </trkpt>
      <trkpt lat="47.47305" lon="6.69088">
        <ele>316.418</ele>
        <time>2016-06-04T12:29:21.377Z</time>
      </trkpt>
      <trkpt lat="47.47302" lon="6.69094">
        <ele>316.285</ele>
        <time>2016-06-04T12:29:22.377Z</time>
      </trkpt>
      <trkpt lat="47.47298" lon="6.69098">
        <ele>316.169</ele>
        <time>2016-06-04T12:29:23.377Z</time>
      </trkpt>
      <trkpt lat="47.47296" lon="6.69101">
        <ele>316.067</ele>
        <time>2016-06-04T12:29:24.377Z</time>
      </trkpt>
      <trkpt lat="47.47294" lon="6.69103">
        <ele>315.981</ele>
        <time>2016-06-04T12:29:25.377Z</time>
      </trkpt>
      <trkpt lat="47.47293" lon="6.69103">
        <ele>315.909</ele>
        <time>2016-06-04T12:29:26.377Z</time>
      </trkpt>
      <trkpt lat="47.47293" lon="6.69104">
        <ele>315.855</ele>
        <time>2016-06-04T12:29:27.377Z</time>
      </trkpt>
      <trkpt lat="47.47293" lon="6.69105">
        <ele>315.818</ele>
        <time>2016-06-04T12:29:28.377Z</time>
      </trkpt>
      <trkpt lat="47.47292" lon="6.69105">
        <ele>315.799</ele>
        <time>2016-06-04T12:29:29.377Z</time>
      </trkpt>
      <trkpt lat="47.47291" lon="6.69106">
        <ele>315.8</ele>
        <time>2016-06-04T12:29:30.377Z</time>
      </trkpt>
      <trkpt lat="47.4729" lon="6.69108">
        <ele>315.818</ele>
        <time>2016-06-04T12:29:31.377Z</time>
      </trkpt>
      <trkpt lat="47.4729" lon="6.6911">
        <ele>315.854</ele>
        <time>2016-06-04T12:29:32.377Z</time>
      </trkpt>
      <trkpt lat="47.4729" lon="6.69113">
        <ele>315.907</ele>
        <time>2016-06-04T12:29:33.377Z</time>
      </trkpt>
      <trkpt lat="47.47291" lon="6.69117">
        <ele>315.975</ele>
        <time>2016-06-04T12:29:34.377Z</time>
      </trkpt>
      <trkpt lat="47.47293" lon="6.69121">
        <ele>316.058</ele>
        <time>2016-06-04T12:29:35.377Z</time>
      </trkpt>
      <trkpt lat="47.47295" lon="6.69126">
        <ele>316.153</ele>
        <time>2016-06-04T12:29:36.377Z</time>
      </trkpt>
      <trkpt lat="47.47298" lon="6.69131">
        <ele>316.258</ele>
        <time>2016-06-04T12:29:37.377Z</time>
      </trkpt>
      <trkpt lat="47.473" lon="6.69136">
        <ele>316.368</ele>
        <time>2016-06-04T12:29:38.377Z</time>
      </trkpt>
      <trkpt lat="47.47303" lon="6.69141">
        <ele>316.48</ele>
        <time>2016-06-04T12:29:39.377Z</time>
      </trkpt>
      <trkpt lat="47.47306" lon="6.69147">
        <ele>316.592</ele>
        <time>2016-06-04T12:29:40.377Z</time>
      </trkpt>
      <trkpt lat="47.47309" lon="6.69153">
        <ele>316.702</ele>
        <time>2016-06-04T12:29:41.377Z</time>
      </trkpt>
      <trkpt lat="47.47312" lon="6.69158">
        <ele>316.808</ele>
        <time>2016-06-04T12:29:42.377Z</time>
      </trkpt>
      <trkpt lat="47.47315" lon="6.69164">
        <ele>316.912</ele>
        <time>2016-06-04T12:29:43.377Z</time>
      </trkpt>
      <trkpt lat="47.47319" lon="6.6917">
        <ele>317.013</ele>
        <time>2016-06-04T12:29:44.377Z</time>
      </trkpt>
      <trkpt lat="47.47322" lon="6.69175">
        <ele>317.11</ele>
        <time>2016-06-04T12:29:45.377Z</time>
      </trkpt>
      <trkpt lat="47.47325" lon="6.69181">
        <ele>317.203</ele>
        <time>2016-06-04T12:29:46.377Z</time>
      </trkpt>
      <trkpt lat="47.47328" lon="6.69186">
        <ele>317.293</ele>
        <time>2016-06-04T12:29:47.377Z</time>
      </trkpt>
      <trkpt lat="47.47331" lon="6.69192">
        <ele>317.38</ele>
        <time>2016-06-04T12:29:48.377Z</time>
      </trkpt>
      <trkpt lat="47.47334" lon="6.69197">
        <ele>317.463</ele>
        <time>2016-06-04T12:29:49.377Z</time>
      </trkpt>
      <trkpt lat="47.47337" lon="6.69202">
        <ele>317.544</ele>
        <time>2016-06-04T12:29:50.377Z</time>
      </trkpt>
      <trkpt lat="47.4734" lon="6.69208">
        <ele>317.625</ele>
        <time>2016-06-04T12:29:51.377Z</time>
      </trkpt>
      <trkpt lat="47.47343" lon="6.69213">
        <ele>317.707</ele>
        <time>2016-06-04T12:29:52.377Z</time>
      </trkpt>
      <trkpt lat="47.47345" lon="6.69219">
        <ele>317.793</ele>
        <time>2016-06-04T12:29:53.377Z</time>
      </trkpt>
      <trkpt lat="47.47348" lon="6.69224">
        <ele>317.884</ele>
        <time>2016-06-04T12:29:54.377Z</time>
      </trkpt>
      <trkpt lat="47.47351" lon="6.69229">
        <ele>317.981</ele>
        <time>2016-06-04T12:29:55.377Z</time>
      </trkpt>
      <trkpt lat="47.47354" lon="6.69235">
        <ele>318.087</ele>
        <time>2016-06-04T12:29:56.377Z</time>
      </trkpt>
      <trkpt lat="47.47357" lon="6.6924">
        <ele>318.203</ele>
        <time>2016-06-04T12:29:57.377Z</time>
      </trkpt>
      <trkpt lat="47.4736" lon="6.69244">
        <ele>318.331</ele>
        <time>2016-06-04T12:29:58.377Z</time>
      </trkpt>
      <trkpt lat="47.47362" lon="6.69249">
        <ele>318.471</ele>
        <time>2016-06-04T12:29:59.377Z</time>
      </trkpt>
      <trkpt lat="47.47365" lon="6.69254">
        <ele>318.624</ele>
        <time>2016-06-04T12:30:00.377Z</time>
      </trkpt>
      <trkpt lat="47.47368" lon="6.6926">
        <ele>318.786</ele>
        <time>2016-06-04T12:30:01.377Z</time>
      </trkpt>
      <trkpt lat="47.47371" lon="6.69265">
        <ele>318.956</ele>
        <time>2016-06-04T12:30:02.377Z</time>
      </trkpt>
      <trkpt lat="47.47374" lon="6.69271">
        <ele>319.128</ele>
        <time>2016-06-04T12:30:03.377Z</time>
      </trkpt>
      <trkpt lat="47.47376" lon="6.69277">
        <ele>319.299</ele>
        <time>2016-06-04T12:30:04.377Z</time>
      </trkpt>
      <trkpt lat="47.47379" lon="6.69282">
        <ele>319.465</ele>
        <time>2016-06-04T12:30:05.377Z</time>
      </trkpt>
      <trkpt lat="47.47382" lon="6.69287">
        <ele>319.622</ele>
        <time>2016-06-04T12:30:06.377Z</time>
      </trkpt>
      <trkpt lat="47.47384" lon="6.69292">
        <ele>319.77</ele>
        <time>2016-06-04T12:30:07.377Z</time>
      </trkpt>
      <trkpt lat="47.47387" lon="6.69297">
        <ele>319.906</ele>
        <time>2016-06-04T12:30:08.377Z</time>
      </trkpt>
      <trkpt lat="47.4739" lon="6.69303">
        <ele>320.03</ele>
        <time>2016-06-04T12:30:09.377Z</time>
      </trkpt>
      <trkpt lat="47.47393" lon="6.69308">
        <ele>320.143</ele>
        <time>2016-06-04T12:30:10.377Z</time>
      </trkpt>
      <trkpt lat="47.47396" lon="6.69314">
        <ele>320.244</ele>
        <time>2016-06-04T12:30:11.377Z</time>
      </trkpt>
      <trkpt lat="47.47399" lon="6.69319">
        <ele>320.335</ele>
        <time>2016-06-04T12:30:12.377Z</time>
      </trkpt>
      <trkpt lat="47.47401" lon="6.69325">
        <ele>320.414</ele>
        <time>2016-06-04T12:30:13.377Z</time>
      </trkpt>
      <trkpt lat="47.47404" lon="6.69331">
        <ele>320.484</ele>
        <time>2016-06-04T12:30:14.377Z</time>
      </trkpt>
      <trkpt lat="47.47407" lon="6.69336">
        <ele>320.545</ele>
        <time>2016-06-04T12:30:15.377Z</time>
      </trkpt>
      <trkpt lat="47.4741" lon="6.69341">
        <ele>320.598</ele>
        <time>2016-06-04T12:30:16.377Z</time>
      </trkpt>
      <trkpt lat="47.47413" lon="6.69346">
        <ele>320.646</ele>
        <time>2016-06-04T12:30:17.377Z</time>
      </trkpt>
      <trkpt lat="47.47417" lon="6.69352">
        <ele>320.69</ele>
        <time>2016-06-04T12:30:18.377Z</time>
      </trkpt>
      <trkpt lat="47.47419" lon="6.69357">
        <ele>320.732</ele>
        <time>2016-06-04T12:30:19.377Z</time>
      </trkpt>
      <trkpt lat="47.47422" lon="6.69362">
        <ele>320.772</ele>
        <time>2016-06-04T12:30:20.377Z</time>
      </trkpt>
      <trkpt lat="47.47425" lon="6.69367">
        <ele>320.813</ele>
        <time>2016-06-04T12:30:21.377Z</time>
      </trkpt>
      <trkpt lat="47.47428" lon="6.69373">
        <ele>320.853</ele>
        <time>2016-06-04T12:30:22.377Z</time>
      </trkpt>
      <trkpt lat="47.47431" lon="6.69378">
        <ele>320.895</ele>
        <time>2016-06-04T12:30:23.377Z</time>
      </trkpt>
      <trkpt lat="47.47433" lon="6.69383">
        <ele>320.939</ele>
        <time>2016-06-04T12:30:24.377Z</time>
      </trkpt>
      <trkpt lat="47.47436" lon="6.69388">
        <ele>320.985</ele>
        <time>2016-06-04T12:30:25.377Z</time>
      </trkpt>
      <trkpt lat="47.47439" lon="6.69393">
        <ele>321.035</ele>
        <time>2016-06-04T12:30:26.377Z</time>
      </trkpt>
      <trkpt lat="47.47442" lon="6.69398">
        <ele>321.088</ele>
        <time>2016-06-04T12:30:27.377Z</time>
      </trkpt>
      <trkpt lat="47.47444" lon="6.69403">
        <ele>321.147</ele>
        <time>2016-06-04T12:30:28.377Z</time>
      </trkpt>
      <trkpt lat="47.47447" lon="6.69407">
        <ele>321.212</ele>
        <time>2016-06-04T12:30:29.377Z</time>
      </trkpt>
      <trkpt lat="47.4745" lon="6.69412">
        <ele>321.286</ele>
        <time>2016-06-04T12:30:30.377Z</time>
      </trkpt>
      <trkpt lat="47.47452" lon="6.69417">
        <ele>321.368</ele>
        <time>2016-06-04T12:30:31.377Z</time>
      </trkpt>
      <trkpt lat="47.47455" lon="6.69421">
        <ele>321.461</ele>
        <time>2016-06-04T12:30:32.377Z</time>
      </trkpt>
      <trkpt lat="47.47457" lon="6.69426">
        <ele>321.564</ele>
        <time>2016-06-04T12:30:33.377Z</time>
      </trkpt>
      <trkpt lat="47.4746" lon="6.69431">
        <ele>321.677</ele>
        <time>2016-06-04T12:30:34.377Z</time>
      </trkpt>
      <trkpt lat="47.47462" lon="6.69436">
        <ele>321.798</ele>
        <time>2016-06-04T12:30:35.377Z</time>
      </trkpt>
      <trkpt lat="47.47465" lon="6.69441">
        <ele>321.927</ele>
        <time>2016-06-04T12:30:36.377Z</time>
      </trkpt>
      <trkpt lat="47.47468" lon="6.69446">
        <ele>322.06</ele>
        <time>2016-06-04T12:30:37.377Z</time>
      </trkpt>
      <trkpt lat="47.4747" lon="6.6945">
        <ele>322.193</ele>
        <time>2016-06-04T12:30:38.377Z</time>
      </trkpt>
      <trkpt lat="47.47473" lon="6.69455">
        <ele>322.326</ele>
        <time>2016-06-04T12:30:39.377Z</time>
      </trkpt>
      <trkpt lat="47.47475" lon="6.69459">
        <ele>322.455</ele>
        <time>2016-06-04T12:30:40.377Z</time>
      </trkpt>
      <trkpt lat="47.47478" lon="6.69464">
        <ele>322.58</ele>
        <time>2016-06-04T12:30:41.377Z</time>
      </trkpt>
      <trkpt lat="47.4748" lon="6.69469">
        <ele>322.699</ele>
        <time>2016-06-04T12:30:42.377Z</time>
      </trkpt>
      <trkpt lat="47.47483" lon="6.69473">
        <ele>322.815</ele>
        <time>2016-06-04T12:30:43.377Z</time>
      </trkpt>
      <trkpt lat="47.47485" lon="6.69478">
        <ele>322.928</ele>
        <time>2016-06-04T12:30:44.377Z</time>
      </trkpt>
      <trkpt lat="47.47488" lon="6.69483">
        <ele>323.041</ele>
        <time>2016-06-04T12:30:45.377Z</time>
      </trkpt>
      <trkpt lat="47.4749" lon="6.69488">
        <ele>323.157</ele>
        <time>2016-06-04T12:30:46.377Z</time>
      </trkpt>
      <trkpt lat="47.47492" lon="6.69493">
        <ele>323.279</ele>
        <time>2016-06-04T12:30:47.377Z</time>
      </trkpt>
      <trkpt lat="47.47495" lon="6.69498">
        <ele>323.409</ele>
        <time>2016-06-04T12:30:48.377Z</time>
      </trkpt>
      <trkpt lat="47.47497" lon="6.69502">
        <ele>323.549</ele>
        <time>2016-06-04T12:30:49.377Z</time>
      </trkpt>
      <trkpt lat="47.47499" lon="6.69506">
        <ele>323.699</ele>
        <time>2016-06-04T12:30:50.377Z</time>
      </trkpt>
      <trkpt lat="47.47502" lon="6.69511">
        <ele>323.857</ele>
        <time>2016-06-04T12:30:51.377Z</time>
      </trkpt>
      <trkpt lat="47.47504" lon="6.69515">
        <ele>324.024</ele>
        <time>2016-06-04T12:30:52.377Z</time>
      </trkpt>
      <trkpt lat="47.47506" lon="6.69519">
        <ele>324.196</ele>
        <time>2016-06-04T12:30:53.377Z</time>
      </trkpt>
      <trkpt lat="47.47508" lon="6.69523">
        <ele>324.374</ele>
        <time>2016-06-04T12:30:54.377Z</time>
      </trkpt>
      <trkpt lat="47.4751" lon="6.69528">
        <ele>324.555</ele>
        <time>2016-06-04T12:30:55.377Z</time>
      </trkpt>
      <trkpt lat="47.47513" lon="6.69532">
        <ele>324.739</ele>
        <time>2016-06-04T12:30:56.377Z</time>
      </trkpt>
      <trkpt lat="47.47515" lon="6.69536">
        <ele>324.924</ele>
        <time>2016-06-04T12:30:57.377Z</time>
      </trkpt>
      <trkpt lat="47.47517" lon="6.69541">
        <ele>325.109</ele>
        <time>2016-06-04T12:30:58.377Z</time>
      </trkpt>
      <trkpt lat="47.47519" lon="6.69545">
        <ele>325.294</ele>
        <time>2016-06-04T12:30:59.377Z</time>
      </trkpt>
      <trkpt lat="47.47522" lon="6.6955">
        <ele>325.478</ele>
        <time>2016-06-04T12:31:00.377Z</time>
      </trkpt>
      <trkpt lat="47.47524" lon="6.69554">
        <ele>325.661</ele>
        <time>2016-06-04T12:31:01.377Z</time>
      </trkpt>
      <trkpt lat="47.47526" lon="6.69559">
        <ele>325.842</ele>
        <time>2016-06-04T12:31:02.377Z</time>
      </trkpt>
      <trkpt lat="47.47528" lon="6.69563">
        <ele>326.019</ele>
        <time>2016-06-04T12:31:03.377Z</time>
      </trkpt>
      <trkpt lat="47.47529" lon="6.69568">
        <ele>326.193</ele>
        <time>2016-06-04T12:31:04.377Z</time>
      </trkpt>
      <trkpt lat="47.47531" lon="6.69572">
        <ele>326.361</ele>
        <time>2016-06-04T12:31:05.377Z</time>
      </trkpt>
      <trkpt lat="47.47533" lon="6.69577">
        <ele>326.522</ele>
        <time>2016-06-04T12:31:06.377Z</time>
      </trkpt>
      <trkpt lat="47.47535" lon="6.69582">
        <ele>326.673</ele>
        <time>2016-06-04T12:31:07.377Z</time>
      </trkpt>
      <trkpt lat="47.47537" lon="6.69587">
        <ele>326.811</ele>
        <time>2016-06-04T12:31:08.377Z</time>
      </trkpt>
      <trkpt lat="47.47539" lon="6.69592">
        <ele>326.936</ele>
        <time>2016-06-04T12:31:09.377Z</time>
      </trkpt>
      <trkpt lat="47.47541" lon="6.69597">
        <ele>327.049</ele>
        <time>2016-06-04T12:31:10.377Z</time>
      </trkpt>
      <trkpt lat="47.47543" lon="6.69602">
        <ele>327.149</ele>
        <time>2016-06-04T12:31:11.377Z</time>
      </trkpt>
      <trkpt lat="47.47545" lon="6.69607">
        <ele>327.239</ele>
        <time>2016-06-04T12:31:12.377Z</time>
      </trkpt>
      <trkpt lat="47.47547" lon="6.69612">
        <ele>327.321</ele>
        <time>2016-06-04T12:31:13.377Z</time>
      </trkpt>
      <trkpt lat="47.47549" lon="6.69616">
        <ele>327.399</ele>
        <time>2016-06-04T12:31:14.377Z</time>
      </trkpt>
      <trkpt lat="47.47551" lon="6.69621">
        <ele>327.475</ele>
        <time>2016-06-04T12:31:15.377Z</time>
      </trkpt>
      <trkpt lat="47.47553" lon="6.69626">
        <ele>327.553</ele>
        <time>2016-06-04T12:31:16.377Z</time>
      </trkpt>
      <trkpt lat="47.47556" lon="6.69631">
        <ele>327.637</ele>
        <time>2016-06-04T12:31:17.377Z</time>
      </trkpt>
      <trkpt lat="47.47558" lon="6.69636">
        <ele>327.727</ele>
        <time>2016-06-04T12:31:18.377Z</time>
      </trkpt>
      <trkpt lat="47.4756" lon="6.69641">
        <ele>327.826</ele>
        <time>2016-06-04T12:31:19.377Z</time>
      </trkpt>
      <trkpt lat="47.47562" lon="6.69646">
        <ele>327.935</ele>
        <time>2016-06-04T12:31:20.377Z</time>
      </trkpt>
      <trkpt lat="47.47564" lon="6.6965">
        <ele>328.056</ele>
        <time>2016-06-04T12:31:21.377Z</time>
      </trkpt>
      <trkpt lat="47.47566" lon="6.69655">
        <ele>328.187</ele>
        <time>2016-06-04T12:31:22.377Z</time>
      </trkpt>
      <trkpt lat="47.47568" lon="6.6966">
        <ele>328.328</ele>
        <time>2016-06-04T12:31:23.377Z</time>
      </trkpt>
      <trkpt lat="47.4757" lon="6.69665">
        <ele>328.479</ele>
        <time>2016-06-04T12:31:24.377Z</time>
      </trkpt>
      <trkpt lat="47.47572" lon="6.6967">
        <ele>328.638</ele>
        <time>2016-06-04T12:31:25.377Z</time>
      </trkpt>
      <trkpt lat="47.47574" lon="6.69675">
        <ele>328.804</ele>
        <time>2016-06-04T12:31:26.377Z</time>
      </trkpt>
      <trkpt lat="47.47576" lon="6.6968">
        <ele>328.975</ele>
        <time>2016-06-04T12:31:27.377Z</time>
      </trkpt>
      <trkpt lat="47.47578" lon="6.69685">
        <ele>329.147</ele>
        <time>2016-06-04T12:31:28.377Z</time>
      </trkpt>
      <trkpt lat="47.47579" lon="6.6969">
        <ele>329.319</ele>
        <time>2016-06-04T12:31:29.377Z</time>
      </trkpt>
      <trkpt lat="47.47581" lon="6.69695">
        <ele>329.486</ele>
        <time>2016-06-04T12:31:30.377Z</time>
      </trkpt>
      <trkpt lat="47.47583" lon="6.69699">
        <ele>329.646</ele>
        <time>2016-06-04T12:31:31.377Z</time>
      </trkpt>
      <trkpt lat="47.47585" lon="6.69704">
        <ele>329.794</ele>
        <time>2016-06-04T12:31:32.377Z</time>
      </trkpt>
      <trkpt lat="47.47587" lon="6.69709">
        <ele>329.929</ele>
        <time>2016-06-04T12:31:33.377Z</time>
      </trkpt>
      <trkpt lat="47.47588" lon="6.69714">
        <ele>330.05</ele>
        <time>2016-06-04T12:31:34.377Z</time>
      </trkpt>
      <trkpt lat="47.4759" lon="6.69718">
        <ele>330.155</ele>
        <time>2016-06-04T12:31:35.377Z</time>
      </trkpt>
      <trkpt lat="47.47592" lon="6.69723">
        <ele>330.244</ele>
        <time>2016-06-04T12:31:36.377Z</time>
      </trkpt>
      <trkpt lat="47.47594" lon="6.69728">
        <ele>330.317</ele>
        <time>2016-06-04T12:31:37.377Z</time>
      </trkpt>
      <trkpt lat="47.47596" lon="6.69732">
        <ele>330.375</ele>
        <time>2016-06-04T12:31:38.377Z</time>
      </trkpt>
      <trkpt lat="47.47598" lon="6.69737">
        <ele>330.419</ele>
        <time>2016-06-04T12:31:39.377Z</time>
      </trkpt>
      <trkpt lat="47.476" lon="6.69742">
        <ele>330.451</ele>
        <time>2016-06-04T12:31:40.377Z</time>
      </trkpt>
      <trkpt lat="47.47601" lon="6.69746">
        <ele>330.473</ele>
        <time>2016-06-04T12:31:41.377Z</time>
      </trkpt>
      <trkpt lat="47.47603" lon="6.69751">
        <ele>330.487</ele>
        <time>2016-06-04T12:31:42.377Z</time>
      </trkpt>
      <trkpt lat="47.47605" lon="6.69755">
        <ele>330.497</ele>
        <time>2016-06-04T12:31:43.377Z</time>
      </trkpt>
      <trkpt lat="47.47607" lon="6.6976">
        <ele>330.504</ele>
        <time>2016-06-04T12:31:44.377Z</time>
      </trkpt>
      <trkpt lat="47.47609" lon="6.69764">
        <ele>330.51</ele>
        <time>2016-06-04T12:31:45.377Z</time>
      </trkpt>
      <trkpt lat="47.47611" lon="6.69769">
        <ele>330.516</ele>
        <time>2016-06-04T12:31:46.377Z</time>
      </trkpt>
      <trkpt lat="47.47613" lon="6.69773">
        <ele>330.523</ele>
        <time>2016-06-04T12:31:47.377Z</time>
      </trkpt>
      <trkpt lat="47.47616" lon="6.69777">
        <ele>330.529</ele>
        <time>2016-06-04T12:31:48.377Z</time>
      </trkpt>
      <trkpt lat="47.47618" lon="6.69782">
        <ele>330.536</ele>
        <time>2016-06-04T12:31:49.377Z</time>
      </trkpt>
      <trkpt lat="47.4762" lon="6.69786">
        <ele>330.539</ele>
        <time>2016-06-04T12:31:50.377Z</time>
      </trkpt>
      <trkpt lat="47.47622" lon="6.6979">
        <ele>330.538</ele>
        <time>2016-06-04T12:31:51.377Z</time>
      </trkpt>
      <trkpt lat="47.47625" lon="6.69794">
        <ele>330.53</ele>
        <time>2016-06-04T12:31:52.377Z</time>
      </trkpt>
      <trkpt lat="47.47627" lon="6.69799">
        <ele>330.515</ele>
        <time>2016-06-04T12:31:53.377Z</time>
      </trkpt>
      <trkpt lat="47.4763" lon="6.69803">
        <ele>330.491</ele>
        <time>2016-06-04T12:31:54.377Z</time>
      </trkpt>
      <trkpt lat="47.47632" lon="6.69807">
        <ele>330.459</ele>
        <time>2016-06-04T12:31:55.377Z</time>
      </trkpt>
      <trkpt lat="47.47634" lon="6.69812">
        <ele>330.417</ele>
        <time>2016-06-04T12:31:56.377Z</time>
      </trkpt>
      <trkpt lat="47.47637" lon="6.69817">
        <ele>330.365</ele>
        <time>2016-06-04T12:31:57.377Z</time>
      </trkpt>
      <trkpt lat="47.47639" lon="6.69821">
        <ele>330.301</ele>
        <time>2016-06-04T12:31:58.377Z</time>
      </trkpt>
      <trkpt lat="47.47641" lon="6.69826">
        <ele>330.224</ele>
        <time>2016-06-04T12:31:59.377Z</time>
      </trkpt>
      <trkpt lat="47.47644" lon="6.69831">
        <ele>330.134</ele>
        <time>2016-06-04T12:32:00.377Z</time>
      </trkpt>
      <trkpt lat="47.47646" lon="6.69836">
        <ele>330.032</ele>
        <time>2016-06-04T12:32:01.377Z</time>
      </trkpt>
      <trkpt lat="47.47649" lon="6.69841">
        <ele>329.918</ele>
        <time>2016-06-04T12:32:02.377Z</time>
      </trkpt>
      <trkpt lat="47.47651" lon="6.69845">
        <ele>329.794</ele>
        <time>2016-06-04T12:32:03.377Z</time>
      </trkpt>
      <trkpt lat="47.47654" lon="6.6985">
        <ele>329.663</ele>
        <time>2016-06-04T12:32:04.377Z</time>
      </trkpt>
      <trkpt lat="47.47656" lon="6.69855">
        <ele>329.529</ele>
        <time>2016-06-04T12:32:05.377Z</time>
      </trkpt>
      <trkpt lat="47.47659" lon="6.69859">
        <ele>329.393</ele>
        <time>2016-06-04T12:32:06.377Z</time>
      </trkpt>
      <trkpt lat="47.47661" lon="6.69864">
        <ele>329.26</ele>
        <time>2016-06-04T12:32:07.377Z</time>
      </trkpt>
      <trkpt lat="47.47664" lon="6.69869">
        <ele>329.133</ele>
        <time>2016-06-04T12:32:08.377Z</time>
      </trkpt>
      <trkpt lat="47.47666" lon="6.69874">
        <ele>329.015</ele>
        <time>2016-06-04T12:32:09.377Z</time>
      </trkpt>
      <trkpt lat="47.47668" lon="6.69879">
        <ele>328.908</ele>
        <time>2016-06-04T12:32:10.377Z</time>
      </trkpt>
      <trkpt lat="47.47671" lon="6.69884">
        <ele>328.818</ele>
        <time>2016-06-04T12:32:11.377Z</time>
      </trkpt>
      <trkpt lat="47.47673" lon="6.69889">
        <ele>328.747</ele>
        <time>2016-06-04T12:32:12.377Z</time>
      </trkpt>
      <trkpt lat="47.47675" lon="6.69895">
        <ele>328.701</ele>
        <time>2016-06-04T12:32:13.377Z</time>
      </trkpt>
      <trkpt lat="47.47677" lon="6.699">
        <ele>328.684</ele>
        <time>2016-06-04T12:32:14.377Z</time>
      </trkpt>
      <trkpt lat="47.47679" lon="6.69906">
        <ele>328.699</ele>
        <time>2016-06-04T12:32:15.377Z</time>
      </trkpt>
      <trkpt lat="47.47681" lon="6.69912">
        <ele>328.749</ele>
        <time>2016-06-04T12:32:16.377Z</time>
      </trkpt>
      <trkpt lat="47.47683" lon="6.69918">
        <ele>328.837</ele>
        <time>2016-06-04T12:32:17.377Z</time>
      </trkpt>
      <trkpt lat="47.47684" lon="6.69924">
        <ele>328.961</ele>
        <time>2016-06-04T12:32:18.377Z</time>
      </trkpt>
      <trkpt lat="47.47686" lon="6.69929">
        <ele>329.123</ele>
        <time>2016-06-04T12:32:19.377Z</time>
      </trkpt>
      <trkpt lat="47.47688" lon="6.69935">
        <ele>329.321</ele>
        <time>2016-06-04T12:32:20.377Z</time>
      </trkpt>
      <trkpt lat="47.4769" lon="6.69941">
        <ele>329.553</ele>
        <time>2016-06-04T12:32:21.377Z</time>
      </trkpt>
      <trkpt lat="47.47692" lon="6.69947">
        <ele>329.816</ele>
        <time>2016-06-04T12:32:22.377Z</time>
      </trkpt>
      <trkpt lat="47.47693" lon="6.69952">
        <ele>330.107</ele>
        <time>2016-06-04T12:32:23.377Z</time>
      </trkpt>
      <trkpt lat="47.47695" lon="6.69958">
        <ele>330.424</ele>
        <time>2016-06-04T12:32:24.377Z</time>
      </trkpt>
      <trkpt lat="47.47696" lon="6.69963">
        <ele>330.762</ele>
        <time>2016-06-04T12:32:25.377Z</time>
      </trkpt>
      <trkpt lat="47.47697" lon="6.69969">
        <ele>331.118</ele>
        <time>2016-06-04T12:32:26.377Z</time>
      </trkpt>
      <trkpt lat="47.47699" lon="6.69974">
        <ele>331.487</ele>
        <time>2016-06-04T12:32:27.377Z</time>
      </trkpt>
      <trkpt lat="47.477" lon="6.69979">
        <ele>331.866</ele>
        <time>2016-06-04T12:32:28.377Z</time>
      </trkpt>
      <trkpt lat="47.47701" lon="6.69984">
        <ele>332.251</ele>
        <time>2016-06-04T12:32:29.377Z</time>
      </trkpt>
      <trkpt lat="47.47701" lon="6.69989">
        <ele>332.638</ele>
        <time>2016-06-04T12:32:30.377Z</time>
      </trkpt>
      <trkpt lat="47.47702" lon="6.69994">
        <ele>333.026</ele>
        <time>2016-06-04T12:32:31.377Z</time>
      </trkpt>
      <trkpt lat="47.47703" lon="6.7">
        <ele>333.413</ele>
        <time>2016-06-04T12:32:32.377Z</time>
      </trkpt>
      <trkpt lat="47.47704" lon="6.70006">
        <ele>333.798</ele>
        <time>2016-06-04T12:32:33.377Z</time>
      </trkpt>
      <trkpt lat="47.47704" lon="6.70012">
        <ele>334.181</ele>
        <time>2016-06-04T12:32:34.377Z</time>
      </trkpt>
      <trkpt lat="47.47705" lon="6.70018">
        <ele>334.563</ele>
        <time>2016-06-04T12:32:35.377Z</time>
      </trkpt>
      <trkpt lat="47.47706" lon="6.70024">
        <ele>334.944</ele>
        <time>2016-06-04T12:32:36.377Z</time>
      </trkpt>
      <trkpt lat="47.47706" lon="6.7003">
        <ele>335.324</ele>
        <time>2016-06-04T12:32:37.377Z</time>
      </trkpt>
      <trkpt lat="47.47707" lon="6.70036">
        <ele>335.704</ele>
        <time>2016-06-04T12:32:38.377Z</time>
      </trkpt>
      <trkpt lat="47.47707" lon="6.70042">
        <ele>336.084</ele>
        <time>2016-06-04T12:32:39.377Z</time>
      </trkpt>
      <trkpt lat="47.47707" lon="6.70048">
        <ele>336.466</ele>
        <time>2016-06-04T12:32:40.377Z</time>
      </trkpt>
      <trkpt lat="47.47708" lon="6.70054">
        <ele>336.85</ele>
        <time>2016-06-04T12:32:41.377Z</time>
      </trkpt>
      <trkpt lat="47.47708" lon="6.7006">
        <ele>337.237</ele>
        <time>2016-06-04T12:32:42.377Z</time>
      </trkpt>
      <trkpt lat="47.47709" lon="6.70066">
        <ele>337.628</ele>
        <time>2016-06-04T12:32:43.377Z</time>
      </trkpt>
      <trkpt lat="47.4771" lon="6.70072">
        <ele>338.022</ele>
        <time>2016-06-04T12:32:44.377Z</time>
      </trkpt>
      <trkpt lat="47.4771" lon="6.70078">
        <ele>338.419</ele>
        <time>2016-06-04T12:32:45.377Z</time>
      </trkpt>
      <trkpt lat="47.47711" lon="6.70084">
        <ele>338.819</ele>
        <time>2016-06-04T12:32:46.377Z</time>
      </trkpt>
      <trkpt lat="47.47712" lon="6.7009">
        <ele>339.22</ele>
        <time>2016-06-04T12:32:47.377Z</time>
      </trkpt>
      <trkpt lat="47.47712" lon="6.70096">
        <ele>339.619</ele>
        <time>2016-06-04T12:32:48.377Z</time>
      </trkpt>
      <trkpt lat="47.47713" lon="6.70101">
        <ele>340.013</ele>
        <time>2016-06-04T12:32:49.377Z</time>
      </trkpt>
      <trkpt lat="47.47713" lon="6.70106">
        <ele>340.399</ele>
        <time>2016-06-04T12:32:50.377Z</time>
      </trkpt>
      <trkpt lat="47.47714" lon="6.70112">
        <ele>340.774</ele>
        <time>2016-06-04T12:32:51.377Z</time>
      </trkpt>
      <trkpt lat="47.47714" lon="6.70117">
        <ele>341.136</ele>
        <time>2016-06-04T12:32:52.377Z</time>
      </trkpt>
      <trkpt lat="47.47715" lon="6.70123">
        <ele>341.485</ele>
        <time>2016-06-04T12:32:53.377Z</time>
      </trkpt>
      <trkpt lat="47.47715" lon="6.70129">
        <ele>341.821</ele>
        <time>2016-06-04T12:32:54.377Z</time>
      </trkpt>
      <trkpt lat="47.47716" lon="6.70135">
        <ele>342.146</ele>
        <time>2016-06-04T12:32:55.377Z</time>
      </trkpt>
      <trkpt lat="47.47717" lon="6.70141">
        <ele>342.459</ele>
        <time>2016-06-04T12:32:56.377Z</time>
      </trkpt>
      <trkpt lat="47.47718" lon="6.70148">
        <ele>342.76</ele>
        <time>2016-06-04T12:32:57.377Z</time>
      </trkpt>
      <trkpt lat="47.47719" lon="6.70154">
        <ele>343.047</ele>
        <time>2016-06-04T12:32:58.377Z</time>
      </trkpt>
      <trkpt lat="47.47719" lon="6.7016">
        <ele>343.319</ele>
        <time>2016-06-04T12:32:59.377Z</time>
      </trkpt>
      <trkpt lat="47.4772" lon="6.70166">
        <ele>343.572</ele>
        <time>2016-06-04T12:33:00.377Z</time>
      </trkpt>
      <trkpt lat="47.47721" lon="6.70173">
        <ele>343.805</ele>
        <time>2016-06-04T12:33:01.377Z</time>
      </trkpt>
      <trkpt lat="47.47721" lon="6.7018">
        <ele>344.012</ele>
        <time>2016-06-04T12:33:02.377Z</time>
      </trkpt>
      <trkpt lat="47.47722" lon="6.70186">
        <ele>344.191</ele>
        <time>2016-06-04T12:33:03.377Z</time>
      </trkpt>
      <trkpt lat="47.47723" lon="6.70192">
        <ele>344.337</ele>
        <time>2016-06-04T12:33:04.377Z</time>
      </trkpt>
      <trkpt lat="47.47724" lon="6.70198">
        <ele>344.446</ele>
        <time>2016-06-04T12:33:05.377Z</time>
      </trkpt>
      <trkpt lat="47.47724" lon="6.70205">
        <ele>344.516</ele>
        <time>2016-06-04T12:33:06.377Z</time>
      </trkpt>
      <trkpt lat="47.47724" lon="6.70213">
        <ele>344.543</ele>
        <time>2016-06-04T12:33:07.377Z</time>
      </trkpt>
      <trkpt lat="47.47724" lon="6.70221">
        <ele>344.524</ele>
        <time>2016-06-04T12:33:08.377Z</time>
      </trkpt>
      <trkpt lat="47.47724" lon="6.70229">
        <ele>344.458</ele>
        <time>2016-06-04T12:33:09.377Z</time>
      </trkpt>
      <trkpt lat="47.47724" lon="6.70238">
        <ele>344.347</ele>
        <time>2016-06-04T12:33:10.377Z</time>
      </trkpt>
      <trkpt lat="47.47724" lon="6.70246">
        <ele>344.192</ele>
        <time>2016-06-04T12:33:11.377Z</time>
      </trkpt>
      <trkpt lat="47.47725" lon="6.70253">
        <ele>343.994</ele>
        <time>2016-06-04T12:33:12.377Z</time>
      </trkpt>
      <trkpt lat="47.47725" lon="6.70261">
        <ele>343.756</ele>
        <time>2016-06-04T12:33:13.377Z</time>
      </trkpt>
      <trkpt lat="47.47726" lon="6.7027">
        <ele>343.48</ele>
        <time>2016-06-04T12:33:14.377Z</time>
      </trkpt>
      <trkpt lat="47.47726" lon="6.70278">
        <ele>343.169</ele>
        <time>2016-06-04T12:33:15.377Z</time>
      </trkpt>
      <trkpt lat="47.47727" lon="6.70286">
        <ele>342.827</ele>
        <time>2016-06-04T12:33:16.377Z</time>
      </trkpt>
      <trkpt lat="47.47727" lon="6.70294">
        <ele>342.456</ele>
        <time>2016-06-04T12:33:17.377Z</time>
      </trkpt>
      <trkpt lat="47.47727" lon="6.70303">
        <ele>342.06</ele>
        <time>2016-06-04T12:33:18.377Z</time>
      </trkpt>
      <trkpt lat="47.47727" lon="6.70312">
        <ele>341.64</ele>
        <time>2016-06-04T12:33:19.377Z</time>
      </trkpt>
      <trkpt lat="47.47728" lon="6.70321">
        <ele>341.2</ele>
        <time>2016-06-04T12:33:20.377Z</time>
      </trkpt>
      <trkpt lat="47.47729" lon="6.70331">
        <ele>340.743</ele>
        <time>2016-06-04T12:33:21.377Z</time>
      </trkpt>
      <trkpt lat="47.4773" lon="6.70341">
        <ele>340.269</ele>
        <time>2016-06-04T12:33:22.377Z</time>
      </trkpt>
      <trkpt lat="47.47731" lon="6.70351">
        <ele>339.784</ele>
        <time>2016-06-04T12:33:23.377Z</time>
      </trkpt>
      <trkpt lat="47.47733" lon="6.7036">
        <ele>339.289</ele>
        <time>2016-06-04T12:33:24.377Z</time>
      </trkpt>
      <trkpt lat="47.47735" lon="6.7037">
        <ele>338.788</ele>
        <time>2016-06-04T12:33:25.377Z</time>
      </trkpt>
      <trkpt lat="47.47737" lon="6.7038">
        <ele>338.285</ele>
        <time>2016-06-04T12:33:26.377Z</time>
      </trkpt>
      <trkpt lat="47.4774" lon="6.70391">
        <ele>337.782</ele>
        <time>2016-06-04T12:33:27.377Z</time>
      </trkpt>
      <trkpt lat="47.47742" lon="6.70403">
        <ele>337.284</ele>
        <time>2016-06-04T12:33:28.377Z</time>
      </trkpt>
      <trkpt lat="47.47744" lon="6.70416">
        <ele>336.795</ele>
        <time>2016-06-04T12:33:29.377Z</time>
      </trkpt>
      <trkpt lat="47.47747" lon="6.70428">
        <ele>336.316</ele>
        <time>2016-06-04T12:33:30.377Z</time>
      </trkpt>
      <trkpt lat="47.47749" lon="6.70441">
        <ele>335.854</ele>
        <time>2016-06-04T12:33:31.377Z</time>
      </trkpt>
      <trkpt lat="47.47752" lon="6.70453">
        <ele>335.41</ele>
        <time>2016-06-04T12:33:32.377Z</time>
      </trkpt>
      <trkpt lat="47.47755" lon="6.70466">
        <ele>334.988</ele>
        <time>2016-06-04T12:33:33.377Z</time>
      </trkpt>
      <trkpt lat="47.47758" lon="6.70478">
        <ele>334.591</ele>
        <time>2016-06-04T12:33:34.377Z</time>
      </trkpt>
      <trkpt lat="47.4776" lon="6.70491">
        <ele>334.22</ele>
        <time>2016-06-04T12:33:35.377Z</time>
      </trkpt>
      <trkpt lat="47.47763" lon="6.70503">
        <ele>333.877</ele>
        <time>2016-06-04T12:33:36.377Z</time>
      </trkpt>
      <trkpt lat="47.47766" lon="6.70515">
        <ele>333.563</ele>
        <time>2016-06-04T12:33:37.377Z</time>
      </trkpt>
      <trkpt lat="47.47768" lon="6.70526">
        <ele>333.277</ele>
        <time>2016-06-04T12:33:38.377Z</time>
      </trkpt>
      <trkpt lat="47.47771" lon="6.70538">
        <ele>333.02</ele>
        <time>2016-06-04T12:33:39.377Z</time>
      </trkpt>
      <trkpt lat="47.47773" lon="6.70549">
        <ele>332.791</ele>
        <time>2016-06-04T12:33:40.377Z</time>
      </trkpt>
      <trkpt lat="47.47775" lon="6.70559">
        <ele>332.59</ele>
        <time>2016-06-04T12:33:41.377Z</time>
      </trkpt>
      <trkpt lat="47.47777" lon="6.70569">
        <ele>332.418</ele>
        <time>2016-06-04T12:33:42.377Z</time>
      </trkpt>
      <trkpt lat="47.47779" lon="6.70578">
        <ele>332.274</ele>
        <time>2016-06-04T12:33:43.377Z</time>
      </trkpt>
      <trkpt lat="47.4778" lon="6.70587">
        <ele>332.16</ele>
        <time>2016-06-04T12:33:44.377Z</time>
      </trkpt>
      <trkpt lat="47.47782" lon="6.70596">
        <ele>332.074</ele>
        <time>2016-06-04T12:33:45.377Z</time>
      </trkpt>
      <trkpt lat="47.47783" lon="6.70605">
        <ele>332.015</ele>
        <time>2016-06-04T12:33:46.377Z</time>
      </trkpt>
      <trkpt lat="47.47785" lon="6.70614">
        <ele>331.982</ele>
        <time>2016-06-04T12:33:47.377Z</time>
      </trkpt>
      <trkpt lat="47.47786" lon="6.70622">
        <ele>331.974</ele>
        <time>2016-06-04T12:33:48.377Z</time>
      </trkpt>
      <trkpt lat="47.47788" lon="6.7063">
        <ele>331.988</ele>
        <time>2016-06-04T12:33:49.377Z</time>
      </trkpt>
      <trkpt lat="47.47789" lon="6.70638">
        <ele>332.023</ele>
        <time>2016-06-04T12:33:50.377Z</time>
      </trkpt>
      <trkpt lat="47.47791" lon="6.70646">
        <ele>332.078</ele>
        <time>2016-06-04T12:33:51.377Z</time>
      </trkpt>
      <trkpt lat="47.47792" lon="6.70653">
        <ele>332.152</ele>
        <time>2016-06-04T12:33:52.377Z</time>
      </trkpt>
      <trkpt lat="47.47793" lon="6.70661">
        <ele>332.247</ele>
        <time>2016-06-04T12:33:53.377Z</time>
      </trkpt>
      <trkpt lat="47.47794" lon="6.70668">
        <ele>332.363</ele>
        <time>2016-06-04T12:33:54.377Z</time>
      </trkpt>
      <trkpt lat="47.47796" lon="6.70675">
        <ele>332.501</ele>
        <time>2016-06-04T12:33:55.377Z</time>
      </trkpt>
      <trkpt lat="47.47797" lon="6.70682">
        <ele>332.661</ele>
        <time>2016-06-04T12:33:56.377Z</time>
      </trkpt>
      <trkpt lat="47.47798" lon="6.70689">
        <ele>332.844</ele>
        <time>2016-06-04T12:33:57.377Z</time>
      </trkpt>
      <trkpt lat="47.478" lon="6.70696">
        <ele>333.049</ele>
        <time>2016-06-04T12:33:58.377Z</time>
      </trkpt>
      <trkpt lat="47.47801" lon="6.70702">
        <ele>333.276</ele>
        <time>2016-06-04T12:33:59.377Z</time>
      </trkpt>
      <trkpt lat="47.47802" lon="6.70709">
        <ele>333.521</ele>
        <time>2016-06-04T12:34:00.377Z</time>
      </trkpt>
      <trkpt lat="47.47803" lon="6.70716">
        <ele>333.783</ele>
        <time>2016-06-04T12:34:01.377Z</time>
      </trkpt>
      <trkpt lat="47.47805" lon="6.70722">
        <ele>334.059</ele>
        <time>2016-06-04T12:34:02.377Z</time>
      </trkpt>
      <trkpt lat="47.47806" lon="6.70729">
        <ele>334.344</ele>
        <time>2016-06-04T12:34:03.377Z</time>
      </trkpt>
      <trkpt lat="47.47807" lon="6.70736">
        <ele>334.632</ele>
        <time>2016-06-04T12:34:04.377Z</time>
      </trkpt>
      <trkpt lat="47.47808" lon="6.70742">
        <ele>334.916</ele>
        <time>2016-06-04T12:34:05.377Z</time>
      </trkpt>
      <trkpt lat="47.47809" lon="6.70748">
        <ele>335.189</ele>
        <time>2016-06-04T12:34:06.377Z</time>
      </trkpt>
      <trkpt lat="47.47811" lon="6.70755">
        <ele>335.443</ele>
        <time>2016-06-04T12:34:07.377Z</time>
      </trkpt>
      <trkpt lat="47.47812" lon="6.70761">
        <ele>335.673</ele>
        <time>2016-06-04T12:34:08.377Z</time>
      </trkpt>
      <trkpt lat="47.47813" lon="6.70768">
        <ele>335.871</ele>
        <time>2016-06-04T12:34:09.377Z</time>
      </trkpt>
      <trkpt lat="47.47815" lon="6.70774">
        <ele>336.034</ele>
        <time>2016-06-04T12:34:10.377Z</time>
      </trkpt>
      <trkpt lat="47.47816" lon="6.70781">
        <ele>336.158</ele>
        <time>2016-06-04T12:34:11.377Z</time>
      </trkpt>
      <trkpt lat="47.47817" lon="6.70788">
        <ele>336.239</ele>
        <time>2016-06-04T12:34:12.377Z</time>
      </trkpt>
      <trkpt lat="47.47819" lon="6.70795">
        <ele>336.275</ele>
        <time>2016-06-04T12:34:13.377Z</time>
      </trkpt>
      <trkpt lat="47.4782" lon="6.70802">
        <ele>336.265</ele>
        <time>2016-06-04T12:34:14.377Z</time>
      </trkpt>
      <trkpt lat="47.47821" lon="6.70809">
        <ele>336.209</ele>
        <time>2016-06-04T12:34:15.377Z</time>
      </trkpt>
      <trkpt lat="47.47823" lon="6.70816">
        <ele>336.109</ele>
        <time>2016-06-04T12:34:16.377Z</time>
      </trkpt>
      <trkpt lat="47.47824" lon="6.70823">
        <ele>335.968</ele>
        <time>2016-06-04T12:34:17.377Z</time>
      </trkpt>
      <trkpt lat="47.47825" lon="6.7083">
        <ele>335.791</ele>
        <time>2016-06-04T12:34:18.377Z</time>
      </trkpt>
      <trkpt lat="47.47827" lon="6.70837">
        <ele>335.581</ele>
        <time>2016-06-04T12:34:19.377Z</time>
      </trkpt>
      <trkpt lat="47.47828" lon="6.70845">
        <ele>335.346</ele>
        <time>2016-06-04T12:34:20.377Z</time>
      </trkpt>
      <trkpt lat="47.47829" lon="6.70852">
        <ele>335.092</ele>
        <time>2016-06-04T12:34:21.377Z</time>
      </trkpt>
      <trkpt lat="47.47831" lon="6.7086">
        <ele>334.826</ele>
        <time>2016-06-04T12:34:22.377Z</time>
      </trkpt>
      <trkpt lat="47.47832" lon="6.70868">
        <ele>334.555</ele>
        <time>2016-06-04T12:34:23.377Z</time>
      </trkpt>
      <trkpt lat="47.47833" lon="6.70876">
        <ele>334.287</ele>
        <time>2016-06-04T12:34:24.377Z</time>
      </trkpt>
      <trkpt lat="47.47834" lon="6.70884">
        <ele>334.027</ele>
        <time>2016-06-04T12:34:25.377Z</time>
      </trkpt>
      <trkpt lat="47.47836" lon="6.70892">
        <ele>333.78</ele>
        <time>2016-06-04T12:34:26.377Z</time>
      </trkpt>
      <trkpt lat="47.47837" lon="6.709">
        <ele>333.552</ele>
        <time>2016-06-04T12:34:27.377Z</time>
      </trkpt>
      <trkpt lat="47.47839" lon="6.70907">
        <ele>333.345</ele>
        <time>2016-06-04T12:34:28.377Z</time>
      </trkpt>
      <trkpt lat="47.4784" lon="6.70915">
        <ele>333.162</ele>
        <time>2016-06-04T12:34:29.377Z</time>
      </trkpt>
      <trkpt lat="47.47841" lon="6.70922">
        <ele>333.004</ele>
        <time>2016-06-04T12:34:30.377Z</time>
      </trkpt>
      <trkpt lat="47.47843" lon="6.7093">
        <ele>332.873</ele>
        <time>2016-06-04T12:34:31.377Z</time>
      </trkpt>
      <trkpt lat="47.47844" lon="6.70938">
        <ele>332.768</ele>
        <time>2016-06-04T12:34:32.377Z</time>
      </trkpt>
      <trkpt lat="47.47845" lon="6.70945">
        <ele>332.688</ele>
        <time>2016-06-04T12:34:33.377Z</time>
      </trkpt>
      <trkpt lat="47.47846" lon="6.70953">
        <ele>332.632</ele>
        <time>2016-06-04T12:34:34.377Z</time>
      </trkpt>
      <trkpt lat="47.47847" lon="6.7096">
        <ele>332.598</ele>
        <time>2016-06-04T12:34:35.377Z</time>
      </trkpt>
      <trkpt lat="47.47848" lon="6.70967">
        <ele>332.584</ele>
        <time>2016-06-04T12:34:36.377Z</time>
      </trkpt>
      <trkpt lat="47.47849" lon="6.70974">
        <ele>332.591</ele>
        <time>2016-06-04T12:34:37.377Z</time>
      </trkpt>
      <trkpt lat="47.4785" lon="6.70981">
        <ele>332.619</ele>
        <time>2016-06-04T12:34:38.377Z</time>
      </trkpt>
      <trkpt lat="47.47851" lon="6.70988">
        <ele>332.667</ele>
        <time>2016-06-04T12:34:39.377Z</time>
      </trkpt>
      <trkpt lat="47.47852" lon="6.70995">
        <ele>332.735</ele>
        <time>2016-06-04T12:34:40.377Z</time>
      </trkpt>
      <trkpt lat="47.47853" lon="6.71001">
        <ele>332.825</ele>
        <time>2016-06-04T12:34:41.377Z</time>
      </trkpt>
      <trkpt lat="47.47854" lon="6.71008">
        <ele>332.936</ele>
        <time>2016-06-04T12:34:42.377Z</time>
      </trkpt>
      <trkpt lat="47.47855" lon="6.71014">
        <ele>333.069</ele>
        <time>2016-06-04T12:34:43.377Z</time>
      </trkpt>
      <trkpt lat="47.47856" lon="6.7102">
        <ele>333.223</ele>
        <time>2016-06-04T12:34:44.377Z</time>
      </trkpt>
      <trkpt lat="47.47857" lon="6.71026">
        <ele>333.398</ele>
        <time>2016-06-04T12:34:45.377Z</time>
      </trkpt>
      <trkpt lat="47.47857" lon="6.71032">
        <ele>333.591</ele>
        <time>2016-06-04T12:34:46.377Z</time>
      </trkpt>
      <trkpt lat="47.47858" lon="6.71038">
        <ele>333.803</ele>
        <time>2016-06-04T12:34:47.377Z</time>
      </trkpt>
      <trkpt lat="47.47859" lon="6.71044">
        <ele>334.03</ele>
        <time>2016-06-04T12:34:48.377Z</time>
      </trkpt>
      <trkpt lat="47.4786" lon="6.7105">
        <ele>334.271</ele>
        <time>2016-06-04T12:34:49.377Z</time>
      </trkpt>
      <trkpt lat="47.47861" lon="6.71055">
        <ele>334.525</ele>
        <time>2016-06-04T12:34:50.377Z</time>
      </trkpt>
      <trkpt lat="47.47862" lon="6.71061">
        <ele>334.789</ele>
        <time>2016-06-04T12:34:51.377Z</time>
      </trkpt>
      <trkpt lat="47.47862" lon="6.71066">
        <ele>335.062</ele>
        <time>2016-06-04T12:34:52.377Z</time>
      </trkpt>
      <trkpt lat="47.47863" lon="6.71072">
        <ele>335.343</ele>
        <time>2016-06-04T12:34:53.377Z</time>
      </trkpt>
      <trkpt lat="47.47864" lon="6.71077">
        <ele>335.63</ele>
        <time>2016-06-04T12:34:54.377Z</time>
      </trkpt>
      <trkpt lat="47.47865" lon="6.71083">
        <ele>335.922</ele>
        <time>2016-06-04T12:34:55.377Z</time>
      </trkpt>
      <trkpt lat="47.47866" lon="6.71088">
        <ele>336.222</ele>
        <time>2016-06-04T12:34:56.377Z</time>
      </trkpt>
      <trkpt lat="47.47867" lon="6.71094">
        <ele>336.528</ele>
        <time>2016-06-04T12:34:57.377Z</time>
      </trkpt>
      <trkpt lat="47.47868" lon="6.71099">
        <ele>336.842</ele>
        <time>2016-06-04T12:34:58.377Z</time>
      </trkpt>
      <trkpt lat="47.47868" lon="6.71104">
        <ele>337.161</ele>
        <time>2016-06-04T12:34:59.377Z</time>
      </trkpt>
      <trkpt lat="47.47869" lon="6.71109">
        <ele>337.484</ele>
        <time>2016-06-04T12:35:00.377Z</time>
      </trkpt>
      <trkpt lat="47.4787" lon="6.71114">
        <ele>337.808</ele>
        <time>2016-06-04T12:35:01.377Z</time>
      </trkpt>
      <trkpt lat="47.47871" lon="6.7112">
        <ele>338.132</ele>
        <time>2016-06-04T12:35:02.377Z</time>
      </trkpt>
      <trkpt lat="47.47872" lon="6.71125">
        <ele>338.454</ele>
        <time>2016-06-04T12:35:03.377Z</time>
      </trkpt>
      <trkpt lat="47.47873" lon="6.71131">
        <ele>338.772</ele>
        <time>2016-06-04T12:35:04.377Z</time>
      </trkpt>
      <trkpt lat="47.47874" lon="6.71136">
        <ele>339.086</ele>
        <time>2016-06-04T12:35:05.377Z</time>
      </trkpt>
      <trkpt lat="47.47875" lon="6.71142">
        <ele>339.394</ele>
        <time>2016-06-04T12:35:06.377Z</time>
      </trkpt>
      <trkpt lat="47.47877" lon="6.71148">
        <ele>339.695</ele>
        <time>2016-06-04T12:35:07.377Z</time>
      </trkpt>
      <trkpt lat="47.47878" lon="6.71153">
        <ele>339.989</ele>
        <time>2016-06-04T12:35:08.377Z</time>
      </trkpt>
      <trkpt lat="47.47879" lon="6.71159">
        <ele>340.273</ele>
        <time>2016-06-04T12:35:09.377Z</time>
      </trkpt>
      <trkpt lat="47.47881" lon="6.71164">
        <ele>340.548</ele>
        <time>2016-06-04T12:35:10.377Z</time>
      </trkpt>
      <trkpt lat="47.47882" lon="6.7117">
        <ele>340.813</ele>
        <time>2016-06-04T12:35:11.377Z</time>
      </trkpt>
      <trkpt lat="47.47884" lon="6.71175">
        <ele>341.066</ele>
        <time>2016-06-04T12:35:12.377Z</time>
      </trkpt>
      <trkpt lat="47.47885" lon="6.71181">
        <ele>341.307</ele>
        <time>2016-06-04T12:35:13.377Z</time>
      </trkpt>
      <trkpt lat="47.47887" lon="6.71186">
        <ele>341.534</ele>
        <time>2016-06-04T12:35:14.377Z</time>
      </trkpt>
      <trkpt lat="47.47888" lon="6.71192">
        <ele>341.745</ele>
        <time>2016-06-04T12:35:15.377Z</time>
      </trkpt>
      <trkpt lat="47.4789" lon="6.71197">
        <ele>341.937</ele>
        <time>2016-06-04T12:35:16.377Z</time>
      </trkpt>
      <trkpt lat="47.47892" lon="6.71203">
        <ele>342.108</ele>
        <time>2016-06-04T12:35:17.377Z</time>
      </trkpt>
      <trkpt lat="47.47894" lon="6.71208">
        <ele>342.255</ele>
        <time>2016-06-04T12:35:18.377Z</time>
      </trkpt>
      <trkpt lat="47.47896" lon="6.71213">
        <ele>342.378</ele>
        <time>2016-06-04T12:35:19.377Z</time>
      </trkpt>
      <trkpt lat="47.47898" lon="6.71218">
        <ele>342.476</ele>
        <time>2016-06-04T12:35:20.377Z</time>
      </trkpt>
      <trkpt lat="47.479" lon="6.71223">
        <ele>342.548</ele>
        <time>2016-06-04T12:35:21.377Z</time>
      </trkpt>
      <trkpt lat="47.47902" lon="6.71228">
        <ele>342.597</ele>
        <time>2016-06-04T12:35:22.377Z</time>
      </trkpt>
      <trkpt lat="47.47904" lon="6.71234">
        <ele>342.623</ele>
        <time>2016-06-04T12:35:23.377Z</time>
      </trkpt>
      <trkpt lat="47.47906" lon="6.71239">
        <ele>342.631</ele>
        <time>2016-06-04T12:35:24.377Z</time>
      </trkpt>
      <trkpt lat="47.47908" lon="6.71244">
        <ele>342.623</ele>
        <time>2016-06-04T12:35:25.377Z</time>
      </trkpt>
      <trkpt lat="47.4791" lon="6.71249">
        <ele>342.602</ele>
        <time>2016-06-04T12:35:26.377Z</time>
      </trkpt>
      <trkpt lat="47.47913" lon="6.71254">
        <ele>342.571</ele>
        <time>2016-06-04T12:35:27.377Z</time>
      </trkpt>
      <trkpt lat="47.47915" lon="6.71259">
        <ele>342.532</ele>
        <time>2016-06-04T12:35:28.377Z</time>
      </trkpt>
      <trkpt lat="47.47918" lon="6.71263">
        <ele>342.486</ele>
        <time>2016-06-04T12:35:29.377Z</time>
      </trkpt>
      <trkpt lat="47.47921" lon="6.71268">
        <ele>342.436</ele>
        <time>2016-06-04T12:35:30.377Z</time>
      </trkpt>
      <trkpt lat="47.47924" lon="6.71273">
        <ele>342.384</ele>
        <time>2016-06-04T12:35:31.377Z</time>
      </trkpt>
      <trkpt lat="47.47927" lon="6.71278">
        <ele>342.331</ele>
        <time>2016-06-04T12:35:32.377Z</time>
      </trkpt>
      <trkpt lat="47.4793" lon="6.71283">
        <ele>342.278</ele>
        <time>2016-06-04T12:35:33.377Z</time>
      </trkpt>
      <trkpt lat="47.47933" lon="6.71288">
        <ele>342.226</ele>
        <time>2016-06-04T12:35:34.377Z</time>
      </trkpt>
      <trkpt lat="47.47936" lon="6.71294">
        <ele>342.177</ele>
        <time>2016-06-04T12:35:35.377Z</time>
      </trkpt>
      <trkpt lat="47.47939" lon="6.71299">
        <ele>342.131</ele>
        <time>2016-06-04T12:35:36.377Z</time>
      </trkpt>
      <trkpt lat="47.47943" lon="6.71305">
        <ele>342.091</ele>
        <time>2016-06-04T12:35:37.377Z</time>
      </trkpt>
      <trkpt lat="47.47946" lon="6.71311">
        <ele>342.057</ele>
        <time>2016-06-04T12:35:38.377Z</time>
      </trkpt>
      <trkpt lat="47.47949" lon="6.71317">
        <ele>342.031</ele>
        <time>2016-06-04T12:35:39.377Z</time>
      </trkpt>
      <trkpt lat="47.47952" lon="6.71323">
        <ele>342.012</ele>
        <time>2016-06-04T12:35:40.377Z</time>
      </trkpt>
      <trkpt lat="47.47955" lon="6.7133">
        <ele>341.998</ele>
        <time>2016-06-04T12:35:41.377Z</time>
      </trkpt>
      <trkpt lat="47.47957" lon="6.71336">
        <ele>341.987</ele>
        <time>2016-06-04T12:35:42.377Z</time>
      </trkpt>
      <trkpt lat="47.47959" lon="6.71343">
        <ele>341.976</ele>
        <time>2016-06-04T12:35:43.377Z</time>
      </trkpt>
      <trkpt lat="47.4796" lon="6.7135">
        <ele>341.96</ele>
        <time>2016-06-04T12:35:44.377Z</time>
      </trkpt>
      <trkpt lat="47.47962" lon="6.71357">
        <ele>341.936</ele>
        <time>2016-06-04T12:35:45.377Z</time>
      </trkpt>
      <trkpt lat="47.47963" lon="6.71364">
        <ele>341.901</ele>
        <time>2016-06-04T12:35:46.377Z</time>
      </trkpt>
      <trkpt lat="47.47964" lon="6.71371">
        <ele>341.853</ele>
        <time>2016-06-04T12:35:47.377Z</time>
      </trkpt>
      <trkpt lat="47.47965" lon="6.71378">
        <ele>341.791</ele>
        <time>2016-06-04T12:35:48.377Z</time>
      </trkpt>
      <trkpt lat="47.47966" lon="6.71386">
        <ele>341.715</ele>
        <time>2016-06-04T12:35:49.377Z</time>
      </trkpt>
      <trkpt lat="47.47967" lon="6.71394">
        <ele>341.625</ele>
        <time>2016-06-04T12:35:50.377Z</time>
      </trkpt>
      <trkpt lat="47.47968" lon="6.71401">
        <ele>341.522</ele>
        <time>2016-06-04T12:35:51.377Z</time>
      </trkpt>
      <trkpt lat="47.47969" lon="6.71409">
        <ele>341.409</ele>
        <time>2016-06-04T12:35:52.377Z</time>
      </trkpt>
      <trkpt lat="47.4797" lon="6.71417">
        <ele>341.286</ele>
        <time>2016-06-04T12:35:53.377Z</time>
      </trkpt>
      <trkpt lat="47.47971" lon="6.71425">
        <ele>341.159</ele>
        <time>2016-06-04T12:35:54.377Z</time>
      </trkpt>
      <trkpt lat="47.47972" lon="6.71433">
        <ele>341.031</ele>
        <time>2016-06-04T12:35:55.377Z</time>
      </trkpt>
      <trkpt lat="47.47973" lon="6.71442">
        <ele>340.907</ele>
        <time>2016-06-04T12:35:56.377Z</time>
      </trkpt>
      <trkpt lat="47.47974" lon="6.71451">
        <ele>340.791</ele>
        <time>2016-06-04T12:35:57.377Z</time>
      </trkpt>
      <trkpt lat="47.47975" lon="6.7146">
        <ele>340.686</ele>
        <time>2016-06-04T12:35:58.377Z</time>
      </trkpt>
      <trkpt lat="47.47976" lon="6.71469">
        <ele>340.593</ele>
        <time>2016-06-04T12:35:59.377Z</time>
      </trkpt>
      <trkpt lat="47.47977" lon="6.71479">
        <ele>340.513</ele>
        <time>2016-06-04T12:36:00.377Z</time>
      </trkpt>
      <trkpt lat="47.47978" lon="6.71489">
        <ele>340.445</ele>
        <time>2016-06-04T12:36:01.377Z</time>
      </trkpt>
      <trkpt lat="47.47979" lon="6.71499">
        <ele>340.388</ele>
        <time>2016-06-04T12:36:02.377Z</time>
      </trkpt>
      <trkpt lat="47.47979" lon="6.71509">
        <ele>340.34</ele>
        <time>2016-06-04T12:36:03.377Z</time>
      </trkpt>
      <trkpt lat="47.4798" lon="6.71519">
        <ele>340.301</ele>
        <time>2016-06-04T12:36:04.377Z</time>
      </trkpt>
      <trkpt lat="47.47981" lon="6.71528">
        <ele>340.267</ele>
        <time>2016-06-04T12:36:05.377Z</time>
      </trkpt>
      <trkpt lat="47.47982" lon="6.71537">
        <ele>340.238</ele>
        <time>2016-06-04T12:36:06.377Z</time>
      </trkpt>
      <trkpt lat="47.47982" lon="6.71547">
        <ele>340.211</ele>
        <time>2016-06-04T12:36:07.377Z</time>
      </trkpt>
      <trkpt lat="47.47983" lon="6.71555">
        <ele>340.183</ele>
        <time>2016-06-04T12:36:08.377Z</time>
      </trkpt>
      <trkpt lat="47.47983" lon="6.71564">
        <ele>340.151</ele>
        <time>2016-06-04T12:36:09.377Z</time>
      </trkpt>
      <trkpt lat="47.47984" lon="6.71573">
        <ele>340.11</ele>
        <time>2016-06-04T12:36:10.377Z</time>
      </trkpt>
      <trkpt lat="47.47984" lon="6.71581">
        <ele>340.057</ele>
        <time>2016-06-04T12:36:11.377Z</time>
      </trkpt>
      <trkpt lat="47.47984" lon="6.7159">
        <ele>339.993</ele>
        <time>2016-06-04T12:36:12.377Z</time>
      </trkpt>
      <trkpt lat="47.47985" lon="6.71598">
        <ele>339.916</ele>
        <time>2016-06-04T12:36:13.377Z</time>
      </trkpt>
      <trkpt lat="47.47985" lon="6.71607">
        <ele>339.83</ele>
        <time>2016-06-04T12:36:14.377Z</time>
      </trkpt>
      <trkpt lat="47.47986" lon="6.71615">
        <ele>339.735</ele>
        <time>2016-06-04T12:36:15.377Z</time>
      </trkpt>
      <trkpt lat="47.47986" lon="6.71623">
        <ele>339.636</ele>
        <time>2016-06-04T12:36:16.377Z</time>
      </trkpt>
      <trkpt lat="47.47987" lon="6.71631">
        <ele>339.537</ele>
        <time>2016-06-04T12:36:17.377Z</time>
      </trkpt>
      <trkpt lat="47.47987" lon="6.71639">
        <ele>339.44</ele>
        <time>2016-06-04T12:36:18.377Z</time>
      </trkpt>
      <trkpt lat="47.47987" lon="6.71647">
        <ele>339.35</ele>
        <time>2016-06-04T12:36:19.377Z</time>
      </trkpt>
      <trkpt lat="47.47988" lon="6.71655">
        <ele>339.272</ele>
        <time>2016-06-04T12:36:20.377Z</time>
      </trkpt>
      <trkpt lat="47.47988" lon="6.71663">
        <ele>339.208</ele>
        <time>2016-06-04T12:36:21.377Z</time>
      </trkpt>
      <trkpt lat="47.47989" lon="6.71671">
        <ele>339.16</ele>
        <time>2016-06-04T12:36:22.377Z</time>
      </trkpt>
      <trkpt lat="47.4799" lon="6.71679">
        <ele>339.129</ele>
        <time>2016-06-04T12:36:23.377Z</time>
      </trkpt>
      <trkpt lat="47.47991" lon="6.71687">
        <ele>339.118</ele>
        <time>2016-06-04T12:36:24.377Z</time>
      </trkpt>
      <trkpt lat="47.47992" lon="6.71695">
        <ele>339.127</ele>
        <time>2016-06-04T12:36:25.377Z</time>
      </trkpt>
      <trkpt lat="47.47993" lon="6.71703">
        <ele>339.157</ele>
        <time>2016-06-04T12:36:26.377Z</time>
      </trkpt>
      <trkpt lat="47.47995" lon="6.71711">
        <ele>339.208</ele>
        <time>2016-06-04T12:36:27.377Z</time>
      </trkpt>
      <trkpt lat="47.47996" lon="6.71718">
        <ele>339.28</ele>
        <time>2016-06-04T12:36:28.377Z</time>
      </trkpt>
      <trkpt lat="47.47998" lon="6.71726">
        <ele>339.372</ele>
        <time>2016-06-04T12:36:29.377Z</time>
      </trkpt>
      <trkpt lat="47.48" lon="6.71734">
        <ele>339.481</ele>
        <time>2016-06-04T12:36:30.377Z</time>
      </trkpt>
      <trkpt lat="47.48002" lon="6.71741">
        <ele>339.604</ele>
        <time>2016-06-04T12:36:31.377Z</time>
      </trkpt>
      <trkpt lat="47.48004" lon="6.71748">
        <ele>339.735</ele>
        <time>2016-06-04T12:36:32.377Z</time>
      </trkpt>
      <trkpt lat="47.48006" lon="6.71755">
        <ele>339.872</ele>
        <time>2016-06-04T12:36:33.377Z</time>
      </trkpt>
      <trkpt lat="47.48008" lon="6.71762">
        <ele>340.01</ele>
        <time>2016-06-04T12:36:34.377Z</time>
      </trkpt>
      <trkpt lat="47.48009" lon="6.71768">
        <ele>340.147</ele>
        <time>2016-06-04T12:36:35.377Z</time>
      </trkpt>
      <trkpt lat="47.48011" lon="6.71775">
        <ele>340.282</ele>
        <time>2016-06-04T12:36:36.377Z</time>
      </trkpt>
      <trkpt lat="47.48013" lon="6.71783">
        <ele>340.414</ele>
        <time>2016-06-04T12:36:37.377Z</time>
      </trkpt>
      <trkpt lat="47.48014" lon="6.7179">
        <ele>340.544</ele>
        <time>2016-06-04T12:36:38.377Z</time>
      </trkpt>
      <trkpt lat="47.48016" lon="6.71797">
        <ele>340.671</ele>
        <time>2016-06-04T12:36:39.377Z</time>
      </trkpt>
      <trkpt lat="47.48018" lon="6.71804">
        <ele>340.795</ele>
        <time>2016-06-04T12:36:40.377Z</time>
      </trkpt>
      <trkpt lat="47.48019" lon="6.71811">
        <ele>340.915</ele>
        <time>2016-06-04T12:36:41.377Z</time>
      </trkpt>
      <trkpt lat="47.48021" lon="6.71818">
        <ele>341.03</ele>
        <time>2016-06-04T12:36:42.377Z</time>
      </trkpt>
      <trkpt lat="47.48022" lon="6.71825">
        <ele>341.138</ele>
        <time>2016-06-04T12:36:43.377Z</time>
      </trkpt>
      <trkpt lat="47.48023" lon="6.71833">
        <ele>341.237</ele>
        <time>2016-06-04T12:36:44.377Z</time>
      </trkpt>
      <trkpt lat="47.48024" lon="6.7184">
        <ele>341.324</ele>
        <time>2016-06-04T12:36:45.377Z</time>
      </trkpt>
      <trkpt lat="47.48025" lon="6.71847">
        <ele>341.396</ele>
        <time>2016-06-04T12:36:46.377Z</time>
      </trkpt>
      <trkpt lat="47.48026" lon="6.71855">
        <ele>341.453</ele>
        <time>2016-06-04T12:36:47.377Z</time>
      </trkpt>
      <trkpt lat="47.48027" lon="6.71863">
        <ele>341.492</ele>
        <time>2016-06-04T12:36:48.377Z</time>
      </trkpt>
      <trkpt lat="47.48028" lon="6.71871">
        <ele>341.514</ele>
        <time>2016-06-04T12:36:49.377Z</time>
      </trkpt>
      <trkpt lat="47.48028" lon="6.71878">
        <ele>341.52</ele>
        <time>2016-06-04T12:36:50.377Z</time>
      </trkpt>
      <trkpt lat="47.48028" lon="6.71886">
        <ele>341.511</ele>
        <time>2016-06-04T12:36:51.377Z</time>
      </trkpt>
      <trkpt lat="47.48028" lon="6.71895">
        <ele>341.487</ele>
        <time>2016-06-04T12:36:52.377Z</time>
      </trkpt>
      <trkpt lat="47.48027" lon="6.71903">
        <ele>341.448</ele>
        <time>2016-06-04T12:36:53.377Z</time>
      </trkpt>
      <trkpt lat="47.48026" lon="6.71912">
        <ele>341.394</ele>
        <time>2016-06-04T12:36:54.377Z</time>
      </trkpt>
      <trkpt lat="47.48025" lon="6.7192">
        <ele>341.325</ele>
        <time>2016-06-04T12:36:55.377Z</time>
      </trkpt>
      <trkpt lat="47.48023" lon="6.71929">
        <ele>341.238</ele>
        <time>2016-06-04T12:36:56.377Z</time>
      </trkpt>
      <trkpt lat="47.48022" lon="6.71938">
        <ele>341.132</ele>
        <time>2016-06-04T12:36:57.377Z</time>
      </trkpt>
      <trkpt lat="47.4802" lon="6.71947">
        <ele>341.006</ele>
        <time>2016-06-04T12:36:58.377Z</time>
      </trkpt>
      <trkpt lat="47.48019" lon="6.71956">
        <ele>340.857</ele>
        <time>2016-06-04T12:36:59.377Z</time>
      </trkpt>
      <trkpt lat="47.48017" lon="6.71965">
        <ele>340.685</ele>
        <time>2016-06-04T12:37:00.377Z</time>
      </trkpt>
      <trkpt lat="47.48015" lon="6.71975">
        <ele>340.49</ele>
        <time>2016-06-04T12:37:01.377Z</time>
      </trkpt>
      <trkpt lat="47.48014" lon="6.71984">
        <ele>340.273</ele>
        <time>2016-06-04T12:37:02.377Z</time>
      </trkpt>
      <trkpt lat="47.48012" lon="6.71994">
        <ele>340.036</ele>
        <time>2016-06-04T12:37:03.377Z</time>
      </trkpt>
      <trkpt lat="47.48011" lon="6.72005">
        <ele>339.781</ele>
        <time>2016-06-04T12:37:04.377Z</time>
      </trkpt>
      <trkpt lat="47.4801" lon="6.72015">
        <ele>339.511</ele>
        <time>2016-06-04T12:37:05.377Z</time>
      </trkpt>
      <trkpt lat="47.48009" lon="6.72026">
        <ele>339.228</ele>
        <time>2016-06-04T12:37:06.377Z</time>
      </trkpt>
      <trkpt lat="47.48008" lon="6.72037">
        <ele>338.931</ele>
        <time>2016-06-04T12:37:07.377Z</time>
      </trkpt>
      <trkpt lat="47.48007" lon="6.72048">
        <ele>338.62</ele>
        <time>2016-06-04T12:37:08.377Z</time>
      </trkpt>
      <trkpt lat="47.48006" lon="6.72058">
        <ele>338.292</ele>
        <time>2016-06-04T12:37:09.377Z</time>
      </trkpt>
      <trkpt lat="47.48006" lon="6.72069">
        <ele>337.947</ele>
        <time>2016-06-04T12:37:10.377Z</time>
      </trkpt>
      <trkpt lat="47.48006" lon="6.72081">
        <ele>337.584</ele>
        <time>2016-06-04T12:37:11.377Z</time>
      </trkpt>
      <trkpt lat="47.48007" lon="6.72093">
        <ele>337.2</ele>
        <time>2016-06-04T12:37:12.377Z</time>
      </trkpt>
      <trkpt lat="47.48009" lon="6.72105">
        <ele>336.796</ele>
        <time>2016-06-04T12:37:13.377Z</time>
      </trkpt>
      <trkpt lat="47.48012" lon="6.72118">
        <ele>336.372</ele>
        <time>2016-06-04T12:37:14.377Z</time>
      </trkpt>
      <trkpt lat="47.48015" lon="6.7213">
        <ele>335.932</ele>
        <time>2016-06-04T12:37:15.377Z</time>
      </trkpt>
      <trkpt lat="47.48019" lon="6.72142">
        <ele>335.478</ele>
        <time>2016-06-04T12:37:16.377Z</time>
      </trkpt>
      <trkpt lat="47.48024" lon="6.72155">
        <ele>335.014</ele>
        <time>2016-06-04T12:37:17.377Z</time>
      </trkpt>
      <trkpt lat="47.48029" lon="6.72167">
        <ele>334.545</ele>
        <time>2016-06-04T12:37:18.377Z</time>
      </trkpt>
      <trkpt lat="47.48034" lon="6.72179">
        <ele>334.073</ele>
        <time>2016-06-04T12:37:19.377Z</time>
      </trkpt>
      <trkpt lat="47.4804" lon="6.7219">
        <ele>333.601</ele>
        <time>2016-06-04T12:37:20.377Z</time>
      </trkpt>
      <trkpt lat="47.48045" lon="6.722">
        <ele>333.134</ele>
        <time>2016-06-04T12:37:21.377Z</time>
      </trkpt>
      <trkpt lat="47.4805" lon="6.72209">
        <ele>332.672</ele>
        <time>2016-06-04T12:37:22.377Z</time>
      </trkpt>
      <trkpt lat="47.48055" lon="6.72218">
        <ele>332.22</ele>
        <time>2016-06-04T12:37:23.377Z</time>
      </trkpt>
      <trkpt lat="47.48059" lon="6.72227">
        <ele>331.779</ele>
        <time>2016-06-04T12:37:24.377Z</time>
      </trkpt>
      <trkpt lat="47.48063" lon="6.72236">
        <ele>331.349</ele>
        <time>2016-06-04T12:37:25.377Z</time>
      </trkpt>
      <trkpt lat="47.48067" lon="6.72246">
        <ele>330.93</ele>
        <time>2016-06-04T12:37:26.377Z</time>
      </trkpt>
      <trkpt lat="47.4807" lon="6.72256">
        <ele>330.523</ele>
        <time>2016-06-04T12:37:27.377Z</time>
      </trkpt>
      <trkpt lat="47.48073" lon="6.72267">
        <ele>330.127</ele>
        <time>2016-06-04T12:37:28.377Z</time>
      </trkpt>
      <trkpt lat="47.48075" lon="6.72278">
        <ele>329.742</ele>
        <time>2016-06-04T12:37:29.377Z</time>
      </trkpt>
      <trkpt lat="47.48078" lon="6.72289">
        <ele>329.367</ele>
        <time>2016-06-04T12:37:30.377Z</time>
      </trkpt>
      <trkpt lat="47.48081" lon="6.723">
        <ele>329.003</ele>
        <time>2016-06-04T12:37:31.377Z</time>
      </trkpt>
      <trkpt lat="47.48084" lon="6.72312">
        <ele>328.648</ele>
        <time>2016-06-04T12:37:32.377Z</time>
      </trkpt>
      <trkpt lat="47.48087" lon="6.72322">
        <ele>328.304</ele>
        <time>2016-06-04T12:37:33.377Z</time>
      </trkpt>
      <trkpt lat="47.4809" lon="6.72333">
        <ele>327.969</ele>
        <time>2016-06-04T12:37:34.377Z</time>
      </trkpt>
      <trkpt lat="47.48094" lon="6.72343">
        <ele>327.643</ele>
        <time>2016-06-04T12:37:35.377Z</time>
      </trkpt>
      <trkpt lat="47.48098" lon="6.72353">
        <ele>327.325</ele>
        <time>2016-06-04T12:37:36.377Z</time>
      </trkpt>
      <trkpt lat="47.48101" lon="6.72364">
        <ele>327.016</ele>
        <time>2016-06-04T12:37:37.377Z</time>
      </trkpt>
      <trkpt lat="47.48105" lon="6.72374">
        <ele>326.716</ele>
        <time>2016-06-04T12:37:38.377Z</time>
      </trkpt>
      <trkpt lat="47.48109" lon="6.72384">
        <ele>326.425</ele>
        <time>2016-06-04T12:37:39.377Z</time>
      </trkpt>
      <trkpt lat="47.48114" lon="6.72394">
        <ele>326.144</ele>
        <time>2016-06-04T12:37:40.377Z</time>
      </trkpt>
      <trkpt lat="47.48118" lon="6.72404">
        <ele>325.873</ele>
        <time>2016-06-04T12:37:41.377Z</time>
      </trkpt>
      <trkpt lat="47.48123" lon="6.72415">
        <ele>325.61</ele>
        <time>2016-06-04T12:37:42.377Z</time>
      </trkpt>
      <trkpt lat="47.48127" lon="6.72426">
        <ele>325.356</ele>
        <time>2016-06-04T12:37:43.377Z</time>
      </trkpt>
      <trkpt lat="47.48132" lon="6.72438">
        <ele>325.109</ele>
        <time>2016-06-04T12:37:44.377Z</time>
      </trkpt>
      <trkpt lat="47.48136" lon="6.72449">
        <ele>324.864</ele>
        <time>2016-06-04T12:37:45.377Z</time>
      </trkpt>
      <trkpt lat="47.48139" lon="6.72461">
        <ele>324.617</ele>
        <time>2016-06-04T12:37:46.377Z</time>
      </trkpt>
      <trkpt lat="47.48142" lon="6.72474">
        <ele>324.364</ele>
        <time>2016-06-04T12:37:47.377Z</time>
      </trkpt>
      <trkpt lat="47.48145" lon="6.72486">
        <ele>324.099</ele>
        <time>2016-06-04T12:37:48.377Z</time>
      </trkpt>
      <trkpt lat="47.48147" lon="6.725">
        <ele>323.82</ele>
        <time>2016-06-04T12:37:49.377Z</time>
      </trkpt>
      <trkpt lat="47.48148" lon="6.72514">
        <ele>323.522</ele>
        <time>2016-06-04T12:37:50.377Z</time>
      </trkpt>
      <trkpt lat="47.48149" lon="6.72528">
        <ele>323.203</ele>
        <time>2016-06-04T12:37:51.377Z</time>
      </trkpt>
      <trkpt lat="47.48149" lon="6.72543">
        <ele>322.864</ele>
        <time>2016-06-04T12:37:52.377Z</time>
      </trkpt>
      <trkpt lat="47.48149" lon="6.72557">
        <ele>322.505</ele>
        <time>2016-06-04T12:37:53.377Z</time>
      </trkpt>
      <trkpt lat="47.48148" lon="6.72571">
        <ele>322.127</ele>
        <time>2016-06-04T12:37:54.377Z</time>
      </trkpt>
      <trkpt lat="47.48146" lon="6.72584">
        <ele>321.731</ele>
        <time>2016-06-04T12:37:55.377Z</time>
      </trkpt>
      <trkpt lat="47.48145" lon="6.72596">
        <ele>321.319</ele>
        <time>2016-06-04T12:37:56.377Z</time>
      </trkpt>
      <trkpt lat="47.48145" lon="6.72608">
        <ele>320.893</ele>
        <time>2016-06-04T12:37:57.377Z</time>
      </trkpt>
      <trkpt lat="47.48144" lon="6.7262">
        <ele>320.457</ele>
        <time>2016-06-04T12:37:58.377Z</time>
      </trkpt>
      <trkpt lat="47.48144" lon="6.72632">
        <ele>320.016</ele>
        <time>2016-06-04T12:37:59.377Z</time>
      </trkpt>
      <trkpt lat="47.48145" lon="6.72642">
        <ele>319.572</ele>
        <time>2016-06-04T12:38:00.377Z</time>
      </trkpt>
      <trkpt lat="47.48146" lon="6.72652">
        <ele>319.127</ele>
        <time>2016-06-04T12:38:01.377Z</time>
      </trkpt>
      <trkpt lat="47.48145" lon="6.72675">
        <ele>318.078</ele>
        <time>2016-06-04T12:38:03.313Z</time>
      </trkpt>
      <trkpt lat="47.48145" lon="6.72686">
        <ele>316.779</ele>
        <time>2016-06-04T12:38:04.014Z</time>
      </trkpt>
      <trkpt lat="47.48145" lon="6.72696">
        <ele>316.545</ele>
        <time>2016-06-04T12:38:05.010Z</time>
      </trkpt>
      <trkpt lat="47.48145" lon="6.72706">
        <ele>315.78</ele>
        <time>2016-06-04T12:38:06.006Z</time>
      </trkpt>
      <trkpt lat="47.48145" lon="6.72716">
        <ele>315.678</ele>
        <time>2016-06-04T12:38:07.002Z</time>
      </trkpt>
      <trkpt lat="47.48145" lon="6.72725">
        <ele>315.308</ele>
        <time>2016-06-04T12:38:08.000Z</time>
      </trkpt>
      <trkpt lat="47.48146" lon="6.72735">
        <ele>315.015</ele>
        <time>2016-06-04T12:38:09.000Z</time>
      </trkpt>
      <trkpt lat="47.48145" lon="6.72744">
        <ele>314.893</ele>
        <time>2016-06-04T12:38:10.000Z</time>
      </trkpt>
      <trkpt lat="47.48144" lon="6.72755">
        <ele>314.496</ele>
        <time>2016-06-04T12:38:11.000Z</time>
      </trkpt>
      <trkpt lat="47.48145" lon="6.72763">
        <ele>314.481</ele>
        <time>2016-06-04T12:38:12.000Z</time>
      </trkpt>
      <trkpt lat="47.48145" lon="6.72772">
        <ele>314.468</ele>
        <time>2016-06-04T12:38:13.000Z</time>
      </trkpt>
      <trkpt lat="47.48145" lon="6.72781">
        <ele>314.458</ele>
        <time>2016-06-04T12:38:14.000Z</time>
      </trkpt>
      <trkpt lat="47.48144" lon="6.72791">
        <ele>314.454</ele>
        <time>2016-06-04T12:38:15.000Z</time>
      </trkpt>
      <trkpt lat="47.48143" lon="6.728">
        <ele>314.457</ele>
        <time>2016-06-04T12:38:16.000Z</time>
      </trkpt>
      <trkpt lat="47.48142" lon="6.7281">
        <ele>314.471</ele>
        <time>2016-06-04T12:38:17.000Z</time>
      </trkpt>
      <trkpt lat="47.48141" lon="6.7282">
        <ele>314.498</ele>
        <time>2016-06-04T12:38:18.000Z</time>
      </trkpt>
      <trkpt lat="47.4814" lon="6.72829">
        <ele>314.538</ele>
        <time>2016-06-04T12:38:19.000Z</time>
      </trkpt>
      <trkpt lat="47.48138" lon="6.72839">
        <ele>314.593</ele>
        <time>2016-06-04T12:38:20.000Z</time>
      </trkpt>
      <trkpt lat="47.48137" lon="6.72849">
        <ele>314.663</ele>
        <time>2016-06-04T12:38:21.000Z</time>
      </trkpt>
      <trkpt lat="47.48135" lon="6.72859">
        <ele>314.747</ele>
        <time>2016-06-04T12:38:22.000Z</time>
      </trkpt>
      <trkpt lat="47.48133" lon="6.72868">
        <ele>314.846</ele>
        <time>2016-06-04T12:38:23.000Z</time>
      </trkpt>
      <trkpt lat="47.48131" lon="6.72877">
        <ele>314.957</ele>
        <time>2016-06-04T12:38:24.000Z</time>
      </trkpt>
      <trkpt lat="47.48129" lon="6.72886">
        <ele>315.08</ele>
        <time>2016-06-04T12:38:25.000Z</time>
      </trkpt>
      <trkpt lat="47.48126" lon="6.72894">
        <ele>315.21</ele>
        <time>2016-06-04T12:38:26.000Z</time>
      </trkpt>
      <trkpt lat="47.48124" lon="6.72902">
        <ele>315.344</ele>
        <time>2016-06-04T12:38:27.000Z</time>
      </trkpt>
      <trkpt lat="47.4812" lon="6.7291">
        <ele>315.479</ele>
        <time>2016-06-04T12:38:28.000Z</time>
      </trkpt>
      <trkpt lat="47.48116" lon="6.72917">
        <ele>315.611</ele>
        <time>2016-06-04T12:38:29.000Z</time>
      </trkpt>
      <trkpt lat="47.48112" lon="6.72924">
        <ele>315.739</ele>
        <time>2016-06-04T12:38:30.000Z</time>
      </trkpt>
      <trkpt lat="47.48108" lon="6.72931">
        <ele>315.861</ele>
        <time>2016-06-04T12:38:31.000Z</time>
      </trkpt>
      <trkpt lat="47.48103" lon="6.72937">
        <ele>315.973</ele>
        <time>2016-06-04T12:38:32.000Z</time>
      </trkpt>
      <trkpt lat="47.48098" lon="6.72943">
        <ele>316.071</ele>
        <time>2016-06-04T12:38:33.000Z</time>
      </trkpt>
      <trkpt lat="47.48093" lon="6.7295">
        <ele>316.154</ele>
        <time>2016-06-04T12:38:34.000Z</time>
      </trkpt>
      <trkpt lat="47.48089" lon="6.72956">
        <ele>316.217</ele>
        <time>2016-06-04T12:38:35.000Z</time>
      </trkpt>
      <trkpt lat="47.48085" lon="6.72962">
        <ele>316.259</ele>
        <time>2016-06-04T12:38:36.000Z</time>
      </trkpt>
      <trkpt lat="47.48081" lon="6.72968">
        <ele>316.28</ele>
        <time>2016-06-04T12:38:37.000Z</time>
      </trkpt>
      <trkpt lat="47.48077" lon="6.72974">
        <ele>316.28</ele>
        <time>2016-06-04T12:38:38.000Z</time>
      </trkpt>
      <trkpt lat="47.48074" lon="6.7298">
        <ele>316.264</ele>
        <time>2016-06-04T12:38:39.000Z</time>
      </trkpt>
      <trkpt lat="47.48071" lon="6.72987">
        <ele>316.235</ele>
        <time>2016-06-04T12:38:40.000Z</time>
      </trkpt>
      <trkpt lat="47.48068" lon="6.72993">
        <ele>316.199</ele>
        <time>2016-06-04T12:38:41.000Z</time>
      </trkpt>
      <trkpt lat="47.48065" lon="6.73">
        <ele>316.164</ele>
        <time>2016-06-04T12:38:42.000Z</time>
      </trkpt>
      <trkpt lat="47.48063" lon="6.73008">
        <ele>316.135</ele>
        <time>2016-06-04T12:38:43.000Z</time>
      </trkpt>
      <trkpt lat="47.48061" lon="6.73016">
        <ele>316.118</ele>
        <time>2016-06-04T12:38:44.000Z</time>
      </trkpt>
      <trkpt lat="47.48058" lon="6.73023">
        <ele>316.116</ele>
        <time>2016-06-04T12:38:45.000Z</time>
      </trkpt>
      <trkpt lat="47.48057" lon="6.7303">
        <ele>316.135</ele>
        <time>2016-06-04T12:38:46.000Z</time>
      </trkpt>
      <trkpt lat="47.48055" lon="6.73037">
        <ele>316.175</ele>
        <time>2016-06-04T12:38:47.000Z</time>
      </trkpt>
      <trkpt lat="47.48053" lon="6.73044">
        <ele>316.239</ele>
        <time>2016-06-04T12:38:48.000Z</time>
      </trkpt>
      <trkpt lat="47.48051" lon="6.73051">
        <ele>316.326</ele>
        <time>2016-06-04T12:38:49.000Z</time>
      </trkpt>
      <trkpt lat="47.4805" lon="6.73058">
        <ele>316.434</ele>
        <time>2016-06-04T12:38:50.000Z</time>
      </trkpt>
      <trkpt lat="47.48048" lon="6.73066">
        <ele>316.561</ele>
        <time>2016-06-04T12:38:51.000Z</time>
      </trkpt>
      <trkpt lat="47.48045" lon="6.73074">
        <ele>316.706</ele>
        <time>2016-06-04T12:38:52.000Z</time>
      </trkpt>
      <trkpt lat="47.48042" lon="6.73081">
        <ele>316.866</ele>
        <time>2016-06-04T12:38:53.000Z</time>
      </trkpt>
      <trkpt lat="47.48038" lon="6.73087">
        <ele>317.037</ele>
        <time>2016-06-04T12:38:54.000Z</time>
      </trkpt>
      <trkpt lat="47.48034" lon="6.73092">
        <ele>317.212</ele>
        <time>2016-06-04T12:38:55.000Z</time>
      </trkpt>
      <trkpt lat="47.48031" lon="6.73097">
        <ele>317.385</ele>
        <time>2016-06-04T12:38:56.000Z</time>
      </trkpt>
      <trkpt lat="47.48026" lon="6.73102">
        <ele>317.546</ele>
        <time>2016-06-04T12:38:57.000Z</time>
      </trkpt>
      <trkpt lat="47.48022" lon="6.73107">
        <ele>317.688</ele>
        <time>2016-06-04T12:38:58.000Z</time>
      </trkpt>
      <trkpt lat="47.48018" lon="6.73112">
        <ele>317.806</ele>
        <time>2016-06-04T12:38:59.000Z</time>
      </trkpt>
      <trkpt lat="47.48013" lon="6.73116">
        <ele>317.897</ele>
        <time>2016-06-04T12:39:00.000Z</time>
      </trkpt>
      <trkpt lat="47.48009" lon="6.7312">
        <ele>317.963</ele>
        <time>2016-06-04T12:39:01.000Z</time>
      </trkpt>
      <trkpt lat="47.48004" lon="6.73124">
        <ele>318.002</ele>
        <time>2016-06-04T12:39:02.000Z</time>
      </trkpt>
      <trkpt lat="47.48" lon="6.73127">
        <ele>318.017</ele>
        <time>2016-06-04T12:39:03.000Z</time>
      </trkpt>
      <trkpt lat="47.47995" lon="6.7313">
        <ele>318.011</ele>
        <time>2016-06-04T12:39:04.000Z</time>
      </trkpt>
      <trkpt lat="47.47991" lon="6.73132">
        <ele>317.984</ele>
        <time>2016-06-04T12:39:05.000Z</time>
      </trkpt>
      <trkpt lat="47.47986" lon="6.73135">
        <ele>317.938</ele>
        <time>2016-06-04T12:39:06.000Z</time>
      </trkpt>
      <trkpt lat="47.47982" lon="6.73137">
        <ele>317.874</ele>
        <time>2016-06-04T12:39:07.000Z</time>
      </trkpt>
      <trkpt lat="47.47977" lon="6.7314">
        <ele>317.794</ele>
        <time>2016-06-04T12:39:08.000Z</time>
      </trkpt>
      <trkpt lat="47.47973" lon="6.73143">
        <ele>317.698</ele>
        <time>2016-06-04T12:39:09.000Z</time>
      </trkpt>
      <trkpt lat="47.47968" lon="6.73146">
        <ele>317.588</ele>
        <time>2016-06-04T12:39:10.000Z</time>
      </trkpt>
      <trkpt lat="47.47964" lon="6.73149">
        <ele>317.462</ele>
        <time>2016-06-04T12:39:11.000Z</time>
      </trkpt>
      <trkpt lat="47.47959" lon="6.73152">
        <ele>317.321</ele>
        <time>2016-06-04T12:39:12.000Z</time>
      </trkpt>
      <trkpt lat="47.47955" lon="6.73156">
        <ele>317.161</ele>
        <time>2016-06-04T12:39:13.000Z</time>
      </trkpt>
      <trkpt lat="47.47951" lon="6.73161">
        <ele>316.984</ele>
        <time>2016-06-04T12:39:14.000Z</time>
      </trkpt>
      <trkpt lat="47.47947" lon="6.73167">
        <ele>316.79</ele>
        <time>2016-06-04T12:39:15.000Z</time>
      </trkpt>
      <trkpt lat="47.47944" lon="6.73174">
        <ele>316.582</ele>
        <time>2016-06-04T12:39:16.000Z</time>
      </trkpt>
      <trkpt lat="47.47942" lon="6.73181">
        <ele>316.363</ele>
        <time>2016-06-04T12:39:17.000Z</time>
      </trkpt>
      <trkpt lat="47.4794" lon="6.73188">
        <ele>316.135</ele>
        <time>2016-06-04T12:39:18.000Z</time>
      </trkpt>
      <trkpt lat="47.47938" lon="6.73196">
        <ele>315.904</ele>
        <time>2016-06-04T12:39:19.000Z</time>
      </trkpt>
      <trkpt lat="47.47936" lon="6.73205">
        <ele>315.676</ele>
        <time>2016-06-04T12:39:20.000Z</time>
      </trkpt>
      <trkpt lat="47.47936" lon="6.73213">
        <ele>315.456</ele>
        <time>2016-06-04T12:39:21.000Z</time>
      </trkpt>
      <trkpt lat="47.47936" lon="6.73221">
        <ele>315.252</ele>
        <time>2016-06-04T12:39:22.000Z</time>
      </trkpt>
      <trkpt lat="47.47937" lon="6.73229">
        <ele>315.07</ele>
        <time>2016-06-04T12:39:23.000Z</time>
      </trkpt>
      <trkpt lat="47.47938" lon="6.73236">
        <ele>314.919</ele>
        <time>2016-06-04T12:39:24.000Z</time>
      </trkpt>
      <trkpt lat="47.4794" lon="6.73244">
        <ele>314.804</ele>
        <time>2016-06-04T12:39:25.000Z</time>
      </trkpt>
      <trkpt lat="47.47943" lon="6.73252">
        <ele>314.732</ele>
        <time>2016-06-04T12:39:26.000Z</time>
      </trkpt>
      <trkpt lat="47.47946" lon="6.73259">
        <ele>314.708</ele>
        <time>2016-06-04T12:39:27.000Z</time>
      </trkpt>
      <trkpt lat="47.47949" lon="6.73267">
        <ele>314.736</ele>
        <time>2016-06-04T12:39:28.000Z</time>
      </trkpt>
      <trkpt lat="47.47952" lon="6.73274">
        <ele>314.818</ele>
        <time>2016-06-04T12:39:29.000Z</time>
      </trkpt>
      <trkpt lat="47.47954" lon="6.73281">
        <ele>314.954</ele>
        <time>2016-06-04T12:39:30.000Z</time>
      </trkpt>
      <trkpt lat="47.47956" lon="6.73289">
        <ele>315.141</ele>
        <time>2016-06-04T12:39:31.000Z</time>
      </trkpt>
      <trkpt lat="47.47958" lon="6.73296">
        <ele>315.373</ele>
        <time>2016-06-04T12:39:32.000Z</time>
      </trkpt>
      <trkpt lat="47.4796" lon="6.73303">
        <ele>315.644</ele>
        <time>2016-06-04T12:39:33.000Z</time>
      </trkpt>
      <trkpt lat="47.47962" lon="6.73311">
        <ele>315.946</ele>
        <time>2016-06-04T12:39:34.000Z</time>
      </trkpt>
      <trkpt lat="47.47964" lon="6.73318">
        <ele>316.27</ele>
        <time>2016-06-04T12:39:35.000Z</time>
      </trkpt>
      <trkpt lat="47.47966" lon="6.73325">
        <ele>316.609</ele>
        <time>2016-06-04T12:39:36.000Z</time>
      </trkpt>
      <trkpt lat="47.47968" lon="6.73332">
        <ele>316.953</ele>
        <time>2016-06-04T12:39:37.000Z</time>
      </trkpt>
      <trkpt lat="47.4797" lon="6.73338">
        <ele>317.295</ele>
        <time>2016-06-04T12:39:38.000Z</time>
      </trkpt>
      <trkpt lat="47.47972" lon="6.73344">
        <ele>317.627</ele>
        <time>2016-06-04T12:39:39.000Z</time>
      </trkpt>
      <trkpt lat="47.47975" lon="6.7335">
        <ele>317.944</ele>
        <time>2016-06-04T12:39:40.000Z</time>
      </trkpt>
      <trkpt lat="47.47978" lon="6.73354">
        <ele>318.242</ele>
        <time>2016-06-04T12:39:41.000Z</time>
      </trkpt>
      <trkpt lat="47.4798" lon="6.73356">
        <ele>318.516</ele>
        <time>2016-06-04T12:39:42.000Z</time>
      </trkpt>
      <trkpt lat="47.47982" lon="6.73358">
        <ele>318.765</ele>
        <time>2016-06-04T12:39:43.000Z</time>
      </trkpt>
      <trkpt lat="47.47983" lon="6.73359">
        <ele>318.985</ele>
        <time>2016-06-04T12:39:44.000Z</time>
      </trkpt>
      <trkpt lat="47.47984" lon="6.73359">
        <ele>319.175</ele>
        <time>2016-06-04T12:39:45.000Z</time>
      </trkpt>
      <trkpt lat="47.47984" lon="6.73359">
        <ele>319.336</ele>
        <time>2016-06-04T12:39:46.000Z</time>
      </trkpt>
      <trkpt lat="47.47984" lon="6.73359">
        <ele>319.466</ele>
        <time>2016-06-04T12:39:47.000Z</time>
      </trkpt>
      <trkpt lat="47.47984" lon="6.73359">
        <ele>319.569</ele>
        <time>2016-06-04T12:39:48.000Z</time>
      </trkpt>
      <trkpt lat="47.47984" lon="6.73359">
        <ele>319.646</ele>
        <time>2016-06-04T12:39:49.000Z</time>
      </trkpt>
      <trkpt lat="47.47984" lon="6.73359">
        <ele>319.702</ele>
        <time>2016-06-04T12:39:50.000Z</time>
      </trkpt>
      <trkpt lat="47.47984" lon="6.73359">
        <ele>319.739</ele>
        <time>2016-06-04T12:39:51.000Z</time>
      </trkpt>
      <trkpt lat="47.47985" lon="6.73359">
        <ele>319.763</ele>
        <time>2016-06-04T12:39:52.000Z</time>
      </trkpt>
      <trkpt lat="47.47985" lon="6.7336">
        <ele>319.781</ele>
        <time>2016-06-04T12:39:53.000Z</time>
      </trkpt>
      <trkpt lat="47.47986" lon="6.73361">
        <ele>319.798</ele>
        <time>2016-06-04T12:39:54.000Z</time>
      </trkpt>
      <trkpt lat="47.47986" lon="6.73362">
        <ele>319.819</ele>
        <time>2016-06-04T12:39:55.000Z</time>
      </trkpt>
      <trkpt lat="47.47987" lon="6.73363">
        <ele>319.848</ele>
        <time>2016-06-04T12:39:56.000Z</time>
      </trkpt>
      <trkpt lat="47.47988" lon="6.73364">
        <ele>319.887</ele>
        <time>2016-06-04T12:39:57.000Z</time>
      </trkpt>
      <trkpt lat="47.47988" lon="6.73365">
        <ele>319.937</ele>
        <time>2016-06-04T12:39:58.000Z</time>
      </trkpt>
      <trkpt lat="47.47989" lon="6.73367">
        <ele>319.997</ele>
        <time>2016-06-04T12:39:59.000Z</time>
      </trkpt>
      <trkpt lat="47.47989" lon="6.73368">
        <ele>320.066</ele>
        <time>2016-06-04T12:40:00.000Z</time>
      </trkpt>
      <trkpt lat="47.4799" lon="6.73369">
        <ele>320.143</ele>
        <time>2016-06-04T12:40:01.000Z</time>
      </trkpt>
      <trkpt lat="47.4799" lon="6.73369">
        <ele>320.224</ele>
        <time>2016-06-04T12:40:02.000Z</time>
      </trkpt>
      <trkpt lat="47.4799" lon="6.7337">
        <ele>320.307</ele>
        <time>2016-06-04T12:40:03.000Z</time>
      </trkpt>
      <trkpt lat="47.47991" lon="6.73371">
        <ele>320.39</ele>
        <time>2016-06-04T12:40:04.000Z</time>
      </trkpt>
      <trkpt lat="47.47991" lon="6.73371">
        <ele>320.471</ele>
        <time>2016-06-04T12:40:05.000Z</time>
      </trkpt>
      <trkpt lat="47.47991" lon="6.73371">
        <ele>320.548</ele>
        <time>2016-06-04T12:40:06.000Z</time>
      </trkpt>
      <trkpt lat="47.4799" lon="6.73371">
        <ele>320.62</ele>
        <time>2016-06-04T12:40:07.000Z</time>
      </trkpt>
      <trkpt lat="47.4799" lon="6.73371">
        <ele>320.686</ele>
        <time>2016-06-04T12:40:08.000Z</time>
      </trkpt>
      <trkpt lat="47.4799" lon="6.73371">
        <ele>320.747</ele>
        <time>2016-06-04T12:40:09.000Z</time>
      </trkpt>
      <trkpt lat="47.4799" lon="6.73371">
        <ele>320.802</ele>
        <time>2016-06-04T12:40:10.000Z</time>
      </trkpt>
      <trkpt lat="47.4799" lon="6.73371">
        <ele>320.852</ele>
        <time>2016-06-04T12:40:11.000Z</time>
      </trkpt>
      <trkpt lat="47.4799" lon="6.73371">
        <ele>320.897</ele>
        <time>2016-06-04T12:40:12.000Z</time>
      </trkpt>
      <trkpt lat="47.4799" lon="6.73371">
        <ele>320.937</ele>
        <time>2016-06-04T12:40:13.000Z</time>
      </trkpt>
      <trkpt lat="47.4799" lon="6.73371">
        <ele>320.973</ele>
        <time>2016-06-04T12:40:14.000Z</time>
      </trkpt>
      <trkpt lat="47.4799" lon="6.73371">
        <ele>321.005</ele>
        <time>2016-06-04T12:40:15.000Z</time>
      </trkpt>
      <trkpt lat="47.4799" lon="6.73371">
        <ele>321.032</ele>
        <time>2016-06-04T12:40:16.000Z</time>
      </trkpt>
      <trkpt lat="47.4799" lon="6.73371">
        <ele>321.056</ele>
        <time>2016-06-04T12:40:17.000Z</time>
      </trkpt>
      <trkpt lat="47.4799" lon="6.73371">
        <ele>321.076</ele>
        <time>2016-06-04T12:40:18.000Z</time>
      </trkpt>
      <trkpt lat="47.4799" lon="6.73371">
        <ele>321.093</ele>
        <time>2016-06-04T12:40:19.000Z</time>
      </trkpt>
      <trkpt lat="47.4799" lon="6.73371">
        <ele>321.107</ele>
        <time>2016-06-04T12:40:20.000Z</time>
      </trkpt>
      <trkpt lat="47.4799" lon="6.73371">
        <ele>321.119</ele>
        <time>2016-06-04T12:40:21.000Z</time>
      </trkpt>
      <trkpt lat="47.4799" lon="6.73371">
        <ele>321.128</ele>
        <time>2016-06-04T12:40:22.000Z</time>
      </trkpt>
      <trkpt lat="47.4799" lon="6.73371">
        <ele>321.136</ele>
        <time>2016-06-04T12:40:23.000Z</time>
      </trkpt>
      <trkpt lat="47.4799" lon="6.73371">
        <ele>321.141</ele>
        <time>2016-06-04T12:40:24.000Z</time>
      </trkpt>
      <trkpt lat="47.4799" lon="6.73371">
        <ele>321.146</ele>
        <time>2016-06-04T12:40:25.000Z</time>
      </trkpt>
      <trkpt lat="47.4799" lon="6.73371">
        <ele>321.149</ele>
        <time>2016-06-04T12:40:26.000Z</time>
      </trkpt>
      <trkpt lat="47.4799" lon="6.73371">
        <ele>321.151</ele>
        <time>2016-06-04T12:40:27.000Z</time>
      </trkpt>
      <trkpt lat="47.4799" lon="6.73371">
        <ele>321.152</ele>
        <time>2016-06-04T12:40:28.000Z</time>
      </trkpt>
      <trkpt lat="47.4799" lon="6.73371">
        <ele>321.152</ele>
        <time>2016-06-04T12:40:29.000Z</time>
      </trkpt>
      <trkpt lat="47.4799" lon="6.73371">
        <ele>321.152</ele>
        <time>2016-06-04T12:40:30.000Z</time>
      </trkpt>
      <trkpt lat="47.4799" lon="6.73371">
        <ele>321.152</ele>
        <time>2016-06-04T12:40:31.000Z</time>
      </trkpt>
      <trkpt lat="47.4799" lon="6.73371">
        <ele>321.151</ele>
        <time>2016-06-04T12:40:32.000Z</time>
      </trkpt>
      <trkpt lat="47.4799" lon="6.73371">
        <ele>321.151</ele>
        <time>2016-06-04T12:40:33.000Z</time>
      </trkpt>
      <trkpt lat="47.4799" lon="6.73371">
        <ele>321.15</ele>
        <time>2016-06-04T12:40:34.000Z</time>
      </trkpt>
      <trkpt lat="47.4799" lon="6.73371">
        <ele>321.149</ele>
        <time>2016-06-04T12:40:35.000Z</time>
      </trkpt>
      <trkpt lat="47.4799" lon="6.73371">
        <ele>321.149</ele>
        <time>2016-06-04T12:40:36.000Z</time>
      </trkpt>
      <trkpt lat="47.4799" lon="6.73371">
        <ele>321.148</ele>
        <time>2016-06-04T12:40:37.000Z</time>
      </trkpt>
      <trkpt lat="47.4799" lon="6.73371">
        <ele>321.148</ele>
        <time>2016-06-04T12:40:38.000Z</time>
      </trkpt>
      <trkpt lat="47.4799" lon="6.73371">
        <ele>321.148</ele>
        <time>2016-06-04T12:40:39.000Z</time>
      </trkpt>
      <trkpt lat="47.4799" lon="6.73371">
        <ele>321.149</ele>
        <time>2016-06-04T12:40:40.000Z</time>
      </trkpt>
      <trkpt lat="47.4799" lon="6.73371">
        <ele>321.15</ele>
        <time>2016-06-04T12:40:41.000Z</time>
      </trkpt>
      <trkpt lat="47.4799" lon="6.73371">
        <ele>321.152</ele>
        <time>2016-06-04T12:40:42.000Z</time>
      </trkpt>
      <trkpt lat="47.4799" lon="6.73371">
        <ele>321.155</ele>
        <time>2016-06-04T12:40:43.000Z</time>
      </trkpt>
      <trkpt lat="47.4799" lon="6.73371">
        <ele>321.158</ele>
        <time>2016-06-04T12:40:44.000Z</time>
      </trkpt>
      <trkpt lat="47.4799" lon="6.73371">
        <ele>321.162</ele>
        <time>2016-06-04T12:40:45.000Z</time>
      </trkpt>
      <trkpt lat="47.4799" lon="6.73371">
        <ele>321.167</ele>
        <time>2016-06-04T12:40:46.000Z</time>
      </trkpt>
      <trkpt lat="47.4799" lon="6.73371">
        <ele>321.172</ele>
        <time>2016-06-04T12:40:47.000Z</time>
      </trkpt>
      <trkpt lat="47.4799" lon="6.73371">
        <ele>321.179</ele>
        <time>2016-06-04T12:40:48.000Z</time>
      </trkpt>
      <trkpt lat="47.4799" lon="6.73371">
        <ele>321.187</ele>
        <time>2016-06-04T12:40:49.000Z</time>
      </trkpt>
      <trkpt lat="47.4799" lon="6.73371">
        <ele>321.196</ele>
        <time>2016-06-04T12:40:50.000Z</time>
      </trkpt>
      <trkpt lat="47.4799" lon="6.73371">
        <ele>321.206</ele>
        <time>2016-06-04T12:40:51.000Z</time>
      </trkpt>
      <trkpt lat="47.4799" lon="6.73371">
        <ele>321.218</ele>
        <time>2016-06-04T12:40:52.000Z</time>
      </trkpt>
      <trkpt lat="47.4799" lon="6.73371">
        <ele>321.231</ele>
        <time>2016-06-04T12:40:53.000Z</time>
      </trkpt>
      <trkpt lat="47.4799" lon="6.73371">
        <ele>321.245</ele>
        <time>2016-06-04T12:40:54.000Z</time>
      </trkpt>
      <trkpt lat="47.4799" lon="6.73371">
        <ele>321.26</ele>
        <time>2016-06-04T12:40:55.000Z</time>
      </trkpt>
      <trkpt lat="47.4799" lon="6.73371">
        <ele>321.276</ele>
        <time>2016-06-04T12:40:56.000Z</time>
      </trkpt>
      <trkpt lat="47.4799" lon="6.73371">
        <ele>321.294</ele>
        <time>2016-06-04T12:40:57.000Z</time>
      </trkpt>
      <trkpt lat="47.4799" lon="6.73371">
        <ele>321.312</ele>
        <time>2016-06-04T12:40:58.000Z</time>
      </trkpt>
      <trkpt lat="47.4799" lon="6.73371">
        <ele>321.332</ele>
        <time>2016-06-04T12:40:59.000Z</time>
      </trkpt>
      <trkpt lat="47.4799" lon="6.73371">
        <ele>321.353</ele>
        <time>2016-06-04T12:41:00.000Z</time>
      </trkpt>
      <trkpt lat="47.47989" lon="6.73371">
        <ele>321.374</ele>
        <time>2016-06-04T12:41:01.000Z</time>
      </trkpt>
      <trkpt lat="47.47989" lon="6.73371">
        <ele>321.396</ele>
        <time>2016-06-04T12:41:02.000Z</time>
      </trkpt>
      <trkpt lat="47.47989" lon="6.73371">
        <ele>321.419</ele>
        <time>2016-06-04T12:41:03.000Z</time>
      </trkpt>
      <trkpt lat="47.47989" lon="6.73371">
        <ele>321.442</ele>
        <time>2016-06-04T12:41:04.000Z</time>
      </trkpt>
      <trkpt lat="47.47989" lon="6.73371">
        <ele>321.465</ele>
        <time>2016-06-04T12:41:05.000Z</time>
      </trkpt>
      <trkpt lat="47.47989" lon="6.73371">
        <ele>321.488</ele>
        <time>2016-06-04T12:41:06.000Z</time>
      </trkpt>
      <trkpt lat="47.47989" lon="6.73372">
        <ele>321.51</ele>
        <time>2016-06-04T12:41:07.000Z</time>
      </trkpt>
      <trkpt lat="47.47989" lon="6.73372">
        <ele>321.532</ele>
        <time>2016-06-04T12:41:08.000Z</time>
      </trkpt>
      <trkpt lat="47.47989" lon="6.73372">
        <ele>321.552</ele>
        <time>2016-06-04T12:41:09.000Z</time>
      </trkpt>
      <trkpt lat="47.47989" lon="6.73372">
        <ele>321.571</ele>
        <time>2016-06-04T12:41:10.000Z</time>
      </trkpt>
      <trkpt lat="47.47989" lon="6.73372">
        <ele>321.587</ele>
        <time>2016-06-04T12:41:11.000Z</time>
      </trkpt>
      <trkpt lat="47.47989" lon="6.73372">
        <ele>321.601</ele>
        <time>2016-06-04T12:41:12.000Z</time>
      </trkpt>
      <trkpt lat="47.47989" lon="6.73373">
        <ele>321.612</ele>
        <time>2016-06-04T12:41:13.000Z</time>
      </trkpt>
      <trkpt lat="47.47988" lon="6.73373">
        <ele>321.619</ele>
        <time>2016-06-04T12:41:14.000Z</time>
      </trkpt>
      <trkpt lat="47.47988" lon="6.73374">
        <ele>321.621</ele>
        <time>2016-06-04T12:41:15.000Z</time>
      </trkpt>
      <trkpt lat="47.47987" lon="6.73375">
        <ele>321.619</ele>
        <time>2016-06-04T12:41:16.000Z</time>
      </trkpt>
      <trkpt lat="47.47986" lon="6.73376">
        <ele>321.611</ele>
        <time>2016-06-04T12:41:17.000Z</time>
      </trkpt>
      <trkpt lat="47.47984" lon="6.73377">
        <ele>321.596</ele>
        <time>2016-06-04T12:41:18.000Z</time>
      </trkpt>
      <trkpt lat="47.47984" lon="6.73377">
        <ele>321.575</ele>
        <time>2016-06-04T12:41:19.000Z</time>
      </trkpt>
      <trkpt lat="47.47983" lon="6.73378">
        <ele>321.546</ele>
        <time>2016-06-04T12:41:20.000Z</time>
      </trkpt>
      <trkpt lat="47.47983" lon="6.73379">
        <ele>321.509</ele>
        <time>2016-06-04T12:41:21.000Z</time>
      </trkpt>
      <trkpt lat="47.47983" lon="6.73379">
        <ele>321.464</ele>
        <time>2016-06-04T12:41:22.000Z</time>
      </trkpt>
      <trkpt lat="47.47982" lon="6.73379">
        <ele>321.412</ele>
        <time>2016-06-04T12:41:23.000Z</time>
      </trkpt>
      <trkpt lat="47.47982" lon="6.73379">
        <ele>321.355</ele>
        <time>2016-06-04T12:41:24.000Z</time>
      </trkpt>
      <trkpt lat="47.47982" lon="6.73379">
        <ele>321.292</ele>
        <time>2016-06-04T12:41:25.000Z</time>
      </trkpt>
      <trkpt lat="47.47983" lon="6.73379">
        <ele>321.225</ele>
        <time>2016-06-04T12:41:26.000Z</time>
      </trkpt>
      <trkpt lat="47.47983" lon="6.73379">
        <ele>321.156</ele>
        <time>2016-06-04T12:41:27.000Z</time>
      </trkpt>
      <trkpt lat="47.47983" lon="6.73379">
        <ele>321.086</ele>
        <time>2016-06-04T12:41:28.000Z</time>
      </trkpt>
      <trkpt lat="47.47983" lon="6.73379">
        <ele>321.015</ele>
        <time>2016-06-04T12:41:29.000Z</time>
      </trkpt>
      <trkpt lat="47.47983" lon="6.73379">
        <ele>320.945</ele>
        <time>2016-06-04T12:41:30.000Z</time>
      </trkpt>
      <trkpt lat="47.47983" lon="6.73379">
        <ele>320.877</ele>
        <time>2016-06-04T12:41:31.000Z</time>
      </trkpt>
      <trkpt lat="47.47983" lon="6.73379">
        <ele>320.811</ele>
        <time>2016-06-04T12:41:32.000Z</time>
      </trkpt>
      <trkpt lat="47.47983" lon="6.73379">
        <ele>320.747</ele>
        <time>2016-06-04T12:41:33.000Z</time>
      </trkpt>
      <trkpt lat="47.47983" lon="6.73379">
        <ele>320.687</ele>
        <time>2016-06-04T12:41:34.000Z</time>
      </trkpt>
      <trkpt lat="47.47983" lon="6.73379">
        <ele>320.63</ele>
        <time>2016-06-04T12:41:35.000Z</time>
      </trkpt>
      <trkpt lat="47.47982" lon="6.73379">
        <ele>320.576</ele>
        <time>2016-06-04T12:41:36.000Z</time>
      </trkpt>
      <trkpt lat="47.47982" lon="6.73379">
        <ele>320.525</ele>
        <time>2016-06-04T12:41:37.000Z</time>
      </trkpt>
      <trkpt lat="47.47982" lon="6.73379">
        <ele>320.478</ele>
        <time>2016-06-04T12:41:38.000Z</time>
      </trkpt>
      <trkpt lat="47.47982" lon="6.7338">
        <ele>320.434</ele>
        <time>2016-06-04T12:41:39.000Z</time>
      </trkpt>
      <trkpt lat="47.47982" lon="6.7338">
        <ele>320.393</ele>
        <time>2016-06-04T12:41:40.000Z</time>
      </trkpt>
      <trkpt lat="47.47982" lon="6.7338">
        <ele>320.355</ele>
        <time>2016-06-04T12:41:41.000Z</time>
      </trkpt>
      <trkpt lat="47.47982" lon="6.7338">
        <ele>320.32</ele>
        <time>2016-06-04T12:41:42.000Z</time>
      </trkpt>
      <trkpt lat="47.47982" lon="6.7338">
        <ele>320.287</ele>
        <time>2016-06-04T12:41:43.000Z</time>
      </trkpt>
      <trkpt lat="47.47982" lon="6.7338">
        <ele>320.256</ele>
        <time>2016-06-04T12:41:44.000Z</time>
      </trkpt>
      <trkpt lat="47.47982" lon="6.7338">
        <ele>320.228</ele>
        <time>2016-06-04T12:41:45.000Z</time>
      </trkpt>
      <trkpt lat="47.47982" lon="6.7338">
        <ele>320.201</ele>
        <time>2016-06-04T12:41:46.000Z</time>
      </trkpt>
      <trkpt lat="47.47982" lon="6.7338">
        <ele>320.176</ele>
        <time>2016-06-04T12:41:47.000Z</time>
      </trkpt>
      <trkpt lat="47.47982" lon="6.7338">
        <ele>320.153</ele>
        <time>2016-06-04T12:41:48.000Z</time>
      </trkpt>
      <trkpt lat="47.47982" lon="6.7338">
        <ele>320.131</ele>
        <time>2016-06-04T12:41:49.000Z</time>
      </trkpt>
      <trkpt lat="47.47982" lon="6.7338">
        <ele>320.11</ele>
        <time>2016-06-04T12:41:50.000Z</time>
      </trkpt>
      <trkpt lat="47.47982" lon="6.7338">
        <ele>320.091</ele>
        <time>2016-06-04T12:41:51.000Z</time>
      </trkpt>
      <trkpt lat="47.47982" lon="6.7338">
        <ele>320.073</ele>
        <time>2016-06-04T12:41:52.000Z</time>
      </trkpt>
      <trkpt lat="47.47982" lon="6.7338">
        <ele>320.057</ele>
        <time>2016-06-04T12:41:53.000Z</time>
      </trkpt>
      <trkpt lat="47.47982" lon="6.7338">
        <ele>320.041</ele>
        <time>2016-06-04T12:41:54.000Z</time>
      </trkpt>
      <trkpt lat="47.47982" lon="6.7338">
        <ele>320.027</ele>
        <time>2016-06-04T12:41:55.000Z</time>
      </trkpt>
      <trkpt lat="47.47982" lon="6.7338">
        <ele>320.014</ele>
        <time>2016-06-04T12:41:56.000Z</time>
      </trkpt>
      <trkpt lat="47.47982" lon="6.7338">
        <ele>320.002</ele>
        <time>2016-06-04T12:41:57.000Z</time>
      </trkpt>
      <trkpt lat="47.47982" lon="6.7338">
        <ele>319.991</ele>
        <time>2016-06-04T12:41:58.000Z</time>
      </trkpt>
      <trkpt lat="47.47982" lon="6.7338">
        <ele>319.98</ele>
        <time>2016-06-04T12:41:59.000Z</time>
      </trkpt>
      <trkpt lat="47.47982" lon="6.7338">
        <ele>319.971</ele>
        <time>2016-06-04T12:42:00.000Z</time>
      </trkpt>
      <trkpt lat="47.47981" lon="6.7338">
        <ele>319.962</ele>
        <time>2016-06-04T12:42:01.000Z</time>
      </trkpt>
      <trkpt lat="47.47981" lon="6.7338">
        <ele>319.954</ele>
        <time>2016-06-04T12:42:02.000Z</time>
      </trkpt>
      <trkpt lat="47.47981" lon="6.7338">
        <ele>319.946</ele>
        <time>2016-06-04T12:42:03.000Z</time>
      </trkpt>
      <trkpt lat="47.47981" lon="6.7338">
        <ele>319.939</ele>
        <time>2016-06-04T12:42:04.000Z</time>
      </trkpt>
      <trkpt lat="47.47981" lon="6.7338">
        <ele>319.933</ele>
        <time>2016-06-04T12:42:05.000Z</time>
      </trkpt>
      <trkpt lat="47.47981" lon="6.7338">
        <ele>319.927</ele>
        <time>2016-06-04T12:42:06.000Z</time>
      </trkpt>
      <trkpt lat="47.47981" lon="6.7338">
        <ele>319.921</ele>
        <time>2016-06-04T12:42:07.000Z</time>
      </trkpt>
      <trkpt lat="47.47981" lon="6.7338">
        <ele>319.916</ele>
        <time>2016-06-04T12:42:08.000Z</time>
      </trkpt>
      <trkpt lat="47.47981" lon="6.7338">
        <ele>319.912</ele>
        <time>2016-06-04T12:42:09.000Z</time>
      </trkpt>
      <trkpt lat="47.47981" lon="6.7338">
        <ele>319.908</ele>
        <time>2016-06-04T12:42:10.000Z</time>
      </trkpt>
      <trkpt lat="47.47981" lon="6.7338">
        <ele>319.904</ele>
        <time>2016-06-04T12:42:11.000Z</time>
      </trkpt>
      <trkpt lat="47.47981" lon="6.7338">
        <ele>319.901</ele>
        <time>2016-06-04T12:42:12.000Z</time>
      </trkpt>
      <trkpt lat="47.47981" lon="6.7338">
        <ele>319.898</ele>
        <time>2016-06-04T12:42:13.000Z</time>
      </trkpt>
      <trkpt lat="47.47981" lon="6.7338">
        <ele>319.895</ele>
        <time>2016-06-04T12:42:14.000Z</time>
      </trkpt>
      <trkpt lat="47.47981" lon="6.7338">
        <ele>319.893</ele>
        <time>2016-06-04T12:42:15.000Z</time>
      </trkpt>
      <trkpt lat="47.47981" lon="6.7338">
        <ele>319.89</ele>
        <time>2016-06-04T12:42:16.000Z</time>
      </trkpt>
      <trkpt lat="47.47981" lon="6.7338">
        <ele>319.888</ele>
        <time>2016-06-04T12:42:17.000Z</time>
      </trkpt>
      <trkpt lat="47.47981" lon="6.7338">
        <ele>319.886</ele>
        <time>2016-06-04T12:42:18.000Z</time>
      </trkpt>
      <trkpt lat="47.47981" lon="6.7338">
        <ele>319.884</ele>
        <time>2016-06-04T12:42:19.000Z</time>
      </trkpt>
      <trkpt lat="47.47981" lon="6.7338">
        <ele>319.882</ele>
        <time>2016-06-04T12:42:20.000Z</time>
      </trkpt>
      <trkpt lat="47.47981" lon="6.7338">
        <ele>319.88</ele>
        <time>2016-06-04T12:42:21.000Z</time>
      </trkpt>
      <trkpt lat="47.47981" lon="6.7338">
        <ele>319.879</ele>
        <time>2016-06-04T12:42:22.000Z</time>
      </trkpt>
      <trkpt lat="47.47981" lon="6.7338">
        <ele>319.877</ele>
        <time>2016-06-04T12:42:23.000Z</time>
      </trkpt>
      <trkpt lat="47.47981" lon="6.7338">
        <ele>319.875</ele>
        <time>2016-06-04T12:42:24.000Z</time>
      </trkpt>
      <trkpt lat="47.47981" lon="6.7338">
        <ele>319.873</ele>
        <time>2016-06-04T12:42:25.000Z</time>
      </trkpt>
      <trkpt lat="47.47981" lon="6.7338">
        <ele>319.872</ele>
        <time>2016-06-04T12:42:26.000Z</time>
      </trkpt>
      <trkpt lat="47.47981" lon="6.7338">
        <ele>319.87</ele>
        <time>2016-06-04T12:42:27.000Z</time>
      </trkpt>
      <trkpt lat="47.47981" lon="6.7338">
        <ele>319.868</ele>
        <time>2016-06-04T12:42:28.000Z</time>
      </trkpt>
      <trkpt lat="47.47981" lon="6.7338">
        <ele>319.866</ele>
        <time>2016-06-04T12:42:29.000Z</time>
      </trkpt>
      <trkpt lat="47.47981" lon="6.7338">
        <ele>319.864</ele>
        <time>2016-06-04T12:42:30.000Z</time>
      </trkpt>
      <trkpt lat="47.47981" lon="6.7338">
        <ele>319.863</ele>
        <time>2016-06-04T12:42:31.000Z</time>
      </trkpt>
      <trkpt lat="47.47981" lon="6.7338">
        <ele>319.861</ele>
        <time>2016-06-04T12:42:32.000Z</time>
      </trkpt>
      <trkpt lat="47.47981" lon="6.7338">
        <ele>319.859</ele>
        <time>2016-06-04T12:42:33.000Z</time>
      </trkpt>
      <trkpt lat="47.47981" lon="6.7338">
        <ele>319.858</ele>
        <time>2016-06-04T12:42:34.000Z</time>
      </trkpt>
      <trkpt lat="47.47981" lon="6.7338">
        <ele>319.857</ele>
        <time>2016-06-04T12:42:35.000Z</time>
      </trkpt>
      <trkpt lat="47.47981" lon="6.7338">
        <ele>319.856</ele>
        <time>2016-06-04T12:42:36.000Z</time>
      </trkpt>
      <trkpt lat="47.47981" lon="6.7338">
        <ele>319.855</ele>
        <time>2016-06-04T12:42:37.000Z</time>
      </trkpt>
      <trkpt lat="47.47981" lon="6.7338">
        <ele>319.855</ele>
        <time>2016-06-04T12:42:38.000Z</time>
      </trkpt>
      <trkpt lat="47.47981" lon="6.7338">
        <ele>319.855</ele>
        <time>2016-06-04T12:42:39.000Z</time>
      </trkpt>
      <trkpt lat="47.47981" lon="6.7338">
        <ele>319.856</ele>
        <time>2016-06-04T12:42:40.000Z</time>
      </trkpt>
      <trkpt lat="47.47981" lon="6.7338">
        <ele>319.857</ele>
        <time>2016-06-04T12:42:41.000Z</time>
      </trkpt>
      <trkpt lat="47.47981" lon="6.7338">
        <ele>319.858</ele>
        <time>2016-06-04T12:42:42.000Z</time>
      </trkpt>
      <trkpt lat="47.47981" lon="6.7338">
        <ele>319.86</ele>
        <time>2016-06-04T12:42:43.000Z</time>
      </trkpt>
      <trkpt lat="47.47981" lon="6.7338">
        <ele>319.862</ele>
        <time>2016-06-04T12:42:44.000Z</time>
      </trkpt>
      <trkpt lat="47.47981" lon="6.7338">
        <ele>319.865</ele>
        <time>2016-06-04T12:42:45.000Z</time>
      </trkpt>
      <trkpt lat="47.47981" lon="6.7338">
        <ele>319.869</ele>
        <time>2016-06-04T12:42:46.000Z</time>
      </trkpt>
      <trkpt lat="47.47981" lon="6.7338">
        <ele>319.872</ele>
        <time>2016-06-04T12:42:47.000Z</time>
      </trkpt>
      <trkpt lat="47.47981" lon="6.7338">
        <ele>319.877</ele>
        <time>2016-06-04T12:42:48.000Z</time>
      </trkpt>
      <trkpt lat="47.47981" lon="6.7338">
        <ele>319.881</ele>
        <time>2016-06-04T12:42:49.000Z</time>
      </trkpt>
      <trkpt lat="47.47981" lon="6.7338">
        <ele>319.886</ele>
        <time>2016-06-04T12:42:50.000Z</time>
      </trkpt>
      <trkpt lat="47.47981" lon="6.7338">
        <ele>319.892</ele>
        <time>2016-06-04T12:42:51.000Z</time>
      </trkpt>
      <trkpt lat="47.47981" lon="6.7338">
        <ele>319.898</ele>
        <time>2016-06-04T12:42:52.000Z</time>
      </trkpt>
      <trkpt lat="47.47981" lon="6.7338">
        <ele>319.903</ele>
        <time>2016-06-04T12:42:53.000Z</time>
      </trkpt>
      <trkpt lat="47.47981" lon="6.73381">
        <ele>319.909</ele>
        <time>2016-06-04T12:42:54.000Z</time>
      </trkpt>
      <trkpt lat="47.47981" lon="6.73381">
        <ele>319.916</ele>
        <time>2016-06-04T12:42:55.000Z</time>
      </trkpt>
      <trkpt lat="47.47981" lon="6.73381">
        <ele>319.922</ele>
        <time>2016-06-04T12:42:56.000Z</time>
      </trkpt>
      <trkpt lat="47.47981" lon="6.73381">
        <ele>319.928</ele>
        <time>2016-06-04T12:42:57.000Z</time>
      </trkpt>
      <trkpt lat="47.4798" lon="6.73381">
        <ele>319.934</ele>
        <time>2016-06-04T12:42:58.000Z</time>
      </trkpt>
      <trkpt lat="47.4798" lon="6.73381">
        <ele>319.941</ele>
        <time>2016-06-04T12:42:59.000Z</time>
      </trkpt>
      <trkpt lat="47.4798" lon="6.73381">
        <ele>319.947</ele>
        <time>2016-06-04T12:43:00.000Z</time>
      </trkpt>
      <trkpt lat="47.4798" lon="6.73381">
        <ele>319.953</ele>
        <time>2016-06-04T12:43:01.000Z</time>
      </trkpt>
      <trkpt lat="47.4798" lon="6.73381">
        <ele>319.959</ele>
        <time>2016-06-04T12:43:02.000Z</time>
      </trkpt>
      <trkpt lat="47.4798" lon="6.73381">
        <ele>319.965</ele>
        <time>2016-06-04T12:43:03.000Z</time>
      </trkpt>
      <trkpt lat="47.4798" lon="6.73381">
        <ele>319.97</ele>
        <time>2016-06-04T12:43:04.000Z</time>
      </trkpt>
      <trkpt lat="47.4798" lon="6.73381">
        <ele>319.975</ele>
        <time>2016-06-04T12:43:05.000Z</time>
      </trkpt>
      <trkpt lat="47.4798" lon="6.73381">
        <ele>319.98</ele>
        <time>2016-06-04T12:43:06.000Z</time>
      </trkpt>
      <trkpt lat="47.4798" lon="6.73381">
        <ele>319.985</ele>
        <time>2016-06-04T12:43:07.000Z</time>
      </trkpt>
      <trkpt lat="47.4798" lon="6.73381">
        <ele>319.989</ele>
        <time>2016-06-04T12:43:08.000Z</time>
      </trkpt>
      <trkpt lat="47.4798" lon="6.73381">
        <ele>319.993</ele>
        <time>2016-06-04T12:43:09.000Z</time>
      </trkpt>
      <trkpt lat="47.4798" lon="6.73381">
        <ele>319.997</ele>
        <time>2016-06-04T12:43:10.000Z</time>
      </trkpt>
      <trkpt lat="47.4798" lon="6.73381">
        <ele>320</ele>
        <time>2016-06-04T12:43:11.000Z</time>
      </trkpt>
      <trkpt lat="47.4798" lon="6.73381">
        <ele>320.003</ele>
        <time>2016-06-04T12:43:12.000Z</time>
      </trkpt>
      <trkpt lat="47.4798" lon="6.73381">
        <ele>320.006</ele>
        <time>2016-06-04T12:43:13.000Z</time>
      </trkpt>
      <trkpt lat="47.4798" lon="6.73381">
        <ele>320.008</ele>
        <time>2016-06-04T12:43:14.000Z</time>
      </trkpt>
      <trkpt lat="47.4798" lon="6.73381">
        <ele>320.01</ele>
        <time>2016-06-04T12:43:15.000Z</time>
      </trkpt>
      <trkpt lat="47.4798" lon="6.73381">
        <ele>320.011</ele>
        <time>2016-06-04T12:43:16.000Z</time>
      </trkpt>
      <trkpt lat="47.4798" lon="6.73381">
        <ele>320.013</ele>
        <time>2016-06-04T12:43:17.000Z</time>
      </trkpt>
      <trkpt lat="47.4798" lon="6.73381">
        <ele>320.014</ele>
        <time>2016-06-04T12:43:18.000Z</time>
      </trkpt>
      <trkpt lat="47.4798" lon="6.73381">
        <ele>320.015</ele>
        <time>2016-06-04T12:43:19.000Z</time>
      </trkpt>
      <trkpt lat="47.4798" lon="6.73381">
        <ele>320.016</ele>
        <time>2016-06-04T12:43:20.000Z</time>
      </trkpt>
      <trkpt lat="47.4798" lon="6.73381">
        <ele>320.017</ele>
        <time>2016-06-04T12:43:21.000Z</time>
      </trkpt>
      <trkpt lat="47.4798" lon="6.73381">
        <ele>320.018</ele>
        <time>2016-06-04T12:43:22.000Z</time>
      </trkpt>
      <trkpt lat="47.4798" lon="6.73381">
        <ele>320.019</ele>
        <time>2016-06-04T12:43:23.000Z</time>
      </trkpt>
      <trkpt lat="47.4798" lon="6.73381">
        <ele>320.02</ele>
        <time>2016-06-04T12:43:24.000Z</time>
      </trkpt>
      <trkpt lat="47.4798" lon="6.73381">
        <ele>320.022</ele>
        <time>2016-06-04T12:43:25.000Z</time>
      </trkpt>
      <trkpt lat="47.4798" lon="6.73381">
        <ele>320.023</ele>
        <time>2016-06-04T12:43:26.000Z</time>
      </trkpt>
      <trkpt lat="47.4798" lon="6.73381">
        <ele>320.024</ele>
        <time>2016-06-04T12:43:27.000Z</time>
      </trkpt>
      <trkpt lat="47.4798" lon="6.73381">
        <ele>320.025</ele>
        <time>2016-06-04T12:43:28.000Z</time>
      </trkpt>
      <trkpt lat="47.4798" lon="6.73381">
        <ele>320.027</ele>
        <time>2016-06-04T12:43:29.000Z</time>
      </trkpt>
      <trkpt lat="47.4798" lon="6.73381">
        <ele>320.029</ele>
        <time>2016-06-04T12:43:30.000Z</time>
      </trkpt>
      <trkpt lat="47.4798" lon="6.73381">
        <ele>320.03</ele>
        <time>2016-06-04T12:43:31.000Z</time>
      </trkpt>
      <trkpt lat="47.4798" lon="6.73381">
        <ele>320.032</ele>
        <time>2016-06-04T12:43:32.000Z</time>
      </trkpt>
      <trkpt lat="47.4798" lon="6.73381">
        <ele>320.034</ele>
        <time>2016-06-04T12:43:33.000Z</time>
      </trkpt>
      <trkpt lat="47.4798" lon="6.73381">
        <ele>320.037</ele>
        <time>2016-06-04T12:43:34.000Z</time>
      </trkpt>
      <trkpt lat="47.4798" lon="6.73381">
        <ele>320.039</ele>
        <time>2016-06-04T12:43:35.000Z</time>
      </trkpt>
      <trkpt lat="47.4798" lon="6.73381">
        <ele>320.041</ele>
        <time>2016-06-04T12:43:36.000Z</time>
      </trkpt>
      <trkpt lat="47.4798" lon="6.73381">
        <ele>320.043</ele>
        <time>2016-06-04T12:43:37.000Z</time>
      </trkpt>
      <trkpt lat="47.4798" lon="6.73381">
        <ele>320.045</ele>
        <time>2016-06-04T12:43:38.000Z</time>
      </trkpt>
      <trkpt lat="47.4798" lon="6.73381">
        <ele>320.048</ele>
        <time>2016-06-04T12:43:39.000Z</time>
      </trkpt>
      <trkpt lat="47.4798" lon="6.73381">
        <ele>320.05</ele>
        <time>2016-06-04T12:43:40.000Z</time>
      </trkpt>
      <trkpt lat="47.4798" lon="6.73381">
        <ele>320.051</ele>
        <time>2016-06-04T12:43:41.000Z</time>
      </trkpt>
      <trkpt lat="47.4798" lon="6.73381">
        <ele>320.053</ele>
        <time>2016-06-04T12:43:42.000Z</time>
      </trkpt>
      <trkpt lat="47.4798" lon="6.73381">
        <ele>320.055</ele>
        <time>2016-06-04T12:43:43.000Z</time>
      </trkpt>
      <trkpt lat="47.4798" lon="6.73381">
        <ele>320.056</ele>
        <time>2016-06-04T12:43:44.000Z</time>
      </trkpt>
      <trkpt lat="47.4798" lon="6.73381">
        <ele>320.058</ele>
        <time>2016-06-04T12:43:45.000Z</time>
      </trkpt>
      <trkpt lat="47.4798" lon="6.73381">
        <ele>320.059</ele>
        <time>2016-06-04T12:43:46.000Z</time>
      </trkpt>
      <trkpt lat="47.4798" lon="6.73381">
        <ele>320.06</ele>
        <time>2016-06-04T12:43:47.000Z</time>
      </trkpt>
      <trkpt lat="47.4798" lon="6.73381">
        <ele>320.061</ele>
        <time>2016-06-04T12:43:48.000Z</time>
      </trkpt>
      <trkpt lat="47.4798" lon="6.73381">
        <ele>320.062</ele>
        <time>2016-06-04T12:43:49.000Z</time>
      </trkpt>
      <trkpt lat="47.4798" lon="6.73381">
        <ele>320.062</ele>
        <time>2016-06-04T12:43:50.000Z</time>
      </trkpt>
      <trkpt lat="47.4798" lon="6.73381">
        <ele>320.062</ele>
        <time>2016-06-04T12:43:51.000Z</time>
      </trkpt>
      <trkpt lat="47.4798" lon="6.73381">
        <ele>320.063</ele>
        <time>2016-06-04T12:43:52.000Z</time>
      </trkpt>
      <trkpt lat="47.4798" lon="6.73381">
        <ele>320.063</ele>
        <time>2016-06-04T12:43:53.000Z</time>
      </trkpt>
      <trkpt lat="47.4798" lon="6.73381">
        <ele>320.063</ele>
        <time>2016-06-04T12:43:54.000Z</time>
      </trkpt>
      <trkpt lat="47.4798" lon="6.73381">
        <ele>320.063</ele>
        <time>2016-06-04T12:43:55.000Z</time>
      </trkpt>
      <trkpt lat="47.4798" lon="6.73381">
        <ele>320.063</ele>
        <time>2016-06-04T12:43:56.000Z</time>
      </trkpt>
      <trkpt lat="47.4798" lon="6.73381">
        <ele>320.062</ele>
        <time>2016-06-04T12:43:57.000Z</time>
      </trkpt>
      <trkpt lat="47.4798" lon="6.73381">
        <ele>320.062</ele>
        <time>2016-06-04T12:43:58.000Z</time>
      </trkpt>
      <trkpt lat="47.4798" lon="6.73381">
        <ele>320.061</ele>
        <time>2016-06-04T12:43:59.000Z</time>
      </trkpt>
      <trkpt lat="47.4798" lon="6.73381">
        <ele>320.061</ele>
        <time>2016-06-04T12:44:00.000Z</time>
      </trkpt>
      <trkpt lat="47.4798" lon="6.73381">
        <ele>320.061</ele>
        <time>2016-06-04T12:44:01.000Z</time>
      </trkpt>
      <trkpt lat="47.4798" lon="6.73381">
        <ele>320.06</ele>
        <time>2016-06-04T12:44:02.000Z</time>
      </trkpt>
      <trkpt lat="47.4798" lon="6.73381">
        <ele>320.06</ele>
        <time>2016-06-04T12:44:03.000Z</time>
      </trkpt>
      <trkpt lat="47.4798" lon="6.73381">
        <ele>320.059</ele>
        <time>2016-06-04T12:44:04.000Z</time>
      </trkpt>
      <trkpt lat="47.4798" lon="6.73381">
        <ele>320.059</ele>
        <time>2016-06-04T12:44:05.000Z</time>
      </trkpt>
      <trkpt lat="47.4798" lon="6.73381">
        <ele>320.059</ele>
        <time>2016-06-04T12:44:06.000Z</time>
      </trkpt>
      <trkpt lat="47.4798" lon="6.73381">
        <ele>320.059</ele>
        <time>2016-06-04T12:44:07.000Z</time>
      </trkpt>
      <trkpt lat="47.4798" lon="6.73381">
        <ele>320.059</ele>
        <time>2016-06-04T12:44:08.000Z</time>
      </trkpt>
      <trkpt lat="47.4798" lon="6.73381">
        <ele>320.059</ele>
        <time>2016-06-04T12:44:09.000Z</time>
      </trkpt>
      <trkpt lat="47.4798" lon="6.73381">
        <ele>320.059</ele>
        <time>2016-06-04T12:44:10.000Z</time>
      </trkpt>
      <trkpt lat="47.4798" lon="6.73381">
        <ele>320.059</ele>
        <time>2016-06-04T12:44:11.000Z</time>
      </trkpt>
      <trkpt lat="47.4798" lon="6.73381">
        <ele>320.06</ele>
        <time>2016-06-04T12:44:12.000Z</time>
      </trkpt>
      <trkpt lat="47.4798" lon="6.73381">
        <ele>320.06</ele>
        <time>2016-06-04T12:44:13.000Z</time>
      </trkpt>
      <trkpt lat="47.47981" lon="6.73381">
        <ele>320.061</ele>
        <time>2016-06-04T12:44:14.000Z</time>
      </trkpt>
      <trkpt lat="47.47981" lon="6.73381">
        <ele>320.061</ele>
        <time>2016-06-04T12:44:15.000Z</time>
      </trkpt>
      <trkpt lat="47.47981" lon="6.73381">
        <ele>320.062</ele>
        <time>2016-06-04T12:44:16.000Z</time>
      </trkpt>
      <trkpt lat="47.47981" lon="6.73381">
        <ele>320.063</ele>
        <time>2016-06-04T12:44:17.000Z</time>
      </trkpt>
      <trkpt lat="47.47981" lon="6.73381">
        <ele>320.063</ele>
        <time>2016-06-04T12:44:18.000Z</time>
      </trkpt>
      <trkpt lat="47.47981" lon="6.73381">
        <ele>320.064</ele>
        <time>2016-06-04T12:44:19.000Z</time>
      </trkpt>
      <trkpt lat="47.47981" lon="6.73381">
        <ele>320.065</ele>
        <time>2016-06-04T12:44:20.000Z</time>
      </trkpt>
      <trkpt lat="47.47981" lon="6.73381">
        <ele>320.066</ele>
        <time>2016-06-04T12:44:21.000Z</time>
      </trkpt>
      <trkpt lat="47.47981" lon="6.73381">
        <ele>320.067</ele>
        <time>2016-06-04T12:44:22.000Z</time>
      </trkpt>
      <trkpt lat="47.47981" lon="6.73381">
        <ele>320.067</ele>
        <time>2016-06-04T12:44:23.000Z</time>
      </trkpt>
      <trkpt lat="47.47981" lon="6.73381">
        <ele>320.068</ele>
        <time>2016-06-04T12:44:24.000Z</time>
      </trkpt>
      <trkpt lat="47.47981" lon="6.73381">
        <ele>320.069</ele>
        <time>2016-06-04T12:44:25.000Z</time>
      </trkpt>
      <trkpt lat="47.47981" lon="6.73381">
        <ele>320.069</ele>
        <time>2016-06-04T12:44:26.000Z</time>
      </trkpt>
      <trkpt lat="47.47981" lon="6.73381">
        <ele>320.07</ele>
        <time>2016-06-04T12:44:27.000Z</time>
      </trkpt>
      <trkpt lat="47.47981" lon="6.73381">
        <ele>320.07</ele>
        <time>2016-06-04T12:44:28.000Z</time>
      </trkpt>
      <trkpt lat="47.47981" lon="6.73381">
        <ele>320.07</ele>
        <time>2016-06-04T12:44:29.000Z</time>
      </trkpt>
      <trkpt lat="47.47981" lon="6.73381">
        <ele>320.071</ele>
        <time>2016-06-04T12:44:30.000Z</time>
      </trkpt>
      <trkpt lat="47.47981" lon="6.73381">
        <ele>320.07</ele>
        <time>2016-06-04T12:44:31.000Z</time>
      </trkpt>
      <trkpt lat="47.47981" lon="6.73381">
        <ele>320.07</ele>
        <time>2016-06-04T12:44:32.000Z</time>
      </trkpt>
      <trkpt lat="47.47981" lon="6.73381">
        <ele>320.07</ele>
        <time>2016-06-04T12:44:33.000Z</time>
      </trkpt>
      <trkpt lat="47.47981" lon="6.73381">
        <ele>320.069</ele>
        <time>2016-06-04T12:44:34.000Z</time>
      </trkpt>
      <trkpt lat="47.47981" lon="6.73381">
        <ele>320.069</ele>
        <time>2016-06-04T12:44:35.000Z</time>
      </trkpt>
      <trkpt lat="47.47981" lon="6.73381">
        <ele>320.068</ele>
        <time>2016-06-04T12:44:36.000Z</time>
      </trkpt>
      <trkpt lat="47.47981" lon="6.73381">
        <ele>320.067</ele>
        <time>2016-06-04T12:44:37.000Z</time>
      </trkpt>
      <trkpt lat="47.47981" lon="6.73381">
        <ele>320.066</ele>
        <time>2016-06-04T12:44:38.000Z</time>
      </trkpt>
      <trkpt lat="47.47981" lon="6.73381">
        <ele>320.064</ele>
        <time>2016-06-04T12:44:39.000Z</time>
      </trkpt>
      <trkpt lat="47.47981" lon="6.73381">
        <ele>320.063</ele>
        <time>2016-06-04T12:44:40.000Z</time>
      </trkpt>
      <trkpt lat="47.47981" lon="6.73381">
        <ele>320.061</ele>
        <time>2016-06-04T12:44:41.000Z</time>
      </trkpt>
      <trkpt lat="47.47981" lon="6.73381">
        <ele>320.059</ele>
        <time>2016-06-04T12:44:42.000Z</time>
      </trkpt>
      <trkpt lat="47.47981" lon="6.73381">
        <ele>320.057</ele>
        <time>2016-06-04T12:44:43.000Z</time>
      </trkpt>
      <trkpt lat="47.47981" lon="6.7338">
        <ele>320.055</ele>
        <time>2016-06-04T12:44:44.000Z</time>
      </trkpt>
      <trkpt lat="47.47981" lon="6.7338">
        <ele>320.053</ele>
        <time>2016-06-04T12:44:45.000Z</time>
      </trkpt>
      <trkpt lat="47.47981" lon="6.7338">
        <ele>320.051</ele>
        <time>2016-06-04T12:44:46.000Z</time>
      </trkpt>
      <trkpt lat="47.47981" lon="6.7338">
        <ele>320.049</ele>
        <time>2016-06-04T12:44:47.000Z</time>
      </trkpt>
      <trkpt lat="47.47981" lon="6.7338">
        <ele>320.047</ele>
        <time>2016-06-04T12:44:48.000Z</time>
      </trkpt>
      <trkpt lat="47.47981" lon="6.7338">
        <ele>320.045</ele>
        <time>2016-06-04T12:44:49.000Z</time>
      </trkpt>
      <trkpt lat="47.47981" lon="6.7338">
        <ele>320.043</ele>
        <time>2016-06-04T12:44:50.000Z</time>
      </trkpt>
      <trkpt lat="47.47981" lon="6.7338">
        <ele>320.041</ele>
        <time>2016-06-04T12:44:51.000Z</time>
      </trkpt>
      <trkpt lat="47.47981" lon="6.7338">
        <ele>320.039</ele>
        <time>2016-06-04T12:44:52.000Z</time>
      </trkpt>
      <trkpt lat="47.47981" lon="6.7338">
        <ele>320.037</ele>
        <time>2016-06-04T12:44:53.000Z</time>
      </trkpt>
      <trkpt lat="47.47981" lon="6.7338">
        <ele>320.035</ele>
        <time>2016-06-04T12:44:54.000Z</time>
      </trkpt>
      <trkpt lat="47.47981" lon="6.7338">
        <ele>320.034</ele>
        <time>2016-06-04T12:44:55.000Z</time>
      </trkpt>
      <trkpt lat="47.47981" lon="6.7338">
        <ele>320.032</ele>
        <time>2016-06-04T12:44:56.000Z</time>
      </trkpt>
      <trkpt lat="47.47981" lon="6.7338">
        <ele>320.031</ele>
        <time>2016-06-04T12:44:57.000Z</time>
      </trkpt>
      <trkpt lat="47.47981" lon="6.7338">
        <ele>320.03</ele>
        <time>2016-06-04T12:44:58.000Z</time>
      </trkpt>
      <trkpt lat="47.47981" lon="6.7338">
        <ele>320.029</ele>
        <time>2016-06-04T12:44:59.000Z</time>
      </trkpt>
      <trkpt lat="47.47981" lon="6.7338">
        <ele>320.028</ele>
        <time>2016-06-04T12:45:00.000Z</time>
      </trkpt>
      <trkpt lat="47.47981" lon="6.7338">
        <ele>320.028</ele>
        <time>2016-06-04T12:45:01.000Z</time>
      </trkpt>
      <trkpt lat="47.47981" lon="6.7338">
        <ele>320.027</ele>
        <time>2016-06-04T12:45:02.000Z</time>
      </trkpt>
      <trkpt lat="47.47981" lon="6.7338">
        <ele>320.027</ele>
        <time>2016-06-04T12:45:03.000Z</time>
      </trkpt>
      <trkpt lat="47.47981" lon="6.7338">
        <ele>320.027</ele>
        <time>2016-06-04T12:45:04.000Z</time>
      </trkpt>
      <trkpt lat="47.47981" lon="6.7338">
        <ele>320.027</ele>
        <time>2016-06-04T12:45:05.000Z</time>
      </trkpt>
      <trkpt lat="47.47981" lon="6.7338">
        <ele>320.028</ele>
        <time>2016-06-04T12:45:06.000Z</time>
      </trkpt>
      <trkpt lat="47.47981" lon="6.7338">
        <ele>320.028</ele>
        <time>2016-06-04T12:45:07.000Z</time>
      </trkpt>
      <trkpt lat="47.47981" lon="6.7338">
        <ele>320.029</ele>
        <time>2016-06-04T12:45:08.000Z</time>
      </trkpt>
      <trkpt lat="47.47981" lon="6.7338">
        <ele>320.03</ele>
        <time>2016-06-04T12:45:09.000Z</time>
      </trkpt>
      <trkpt lat="47.47981" lon="6.7338">
        <ele>320.03</ele>
        <time>2016-06-04T12:45:10.000Z</time>
      </trkpt>
      <trkpt lat="47.47981" lon="6.7338">
        <ele>320.031</ele>
        <time>2016-06-04T12:45:11.000Z</time>
      </trkpt>
      <trkpt lat="47.47981" lon="6.7338">
        <ele>320.033</ele>
        <time>2016-06-04T12:45:12.000Z</time>
      </trkpt>
      <trkpt lat="47.47981" lon="6.7338">
        <ele>320.034</ele>
        <time>2016-06-04T12:45:13.000Z</time>
      </trkpt>
      <trkpt lat="47.47981" lon="6.7338">
        <ele>320.035</ele>
        <time>2016-06-04T12:45:14.000Z</time>
      </trkpt>
      <trkpt lat="47.47981" lon="6.7338">
        <ele>320.037</ele>
        <time>2016-06-04T12:45:15.000Z</time>
      </trkpt>
      <trkpt lat="47.47981" lon="6.7338">
        <ele>320.038</ele>
        <time>2016-06-04T12:45:16.000Z</time>
      </trkpt>
      <trkpt lat="47.47981" lon="6.7338">
        <ele>320.04</ele>
        <time>2016-06-04T12:45:17.000Z</time>
      </trkpt>
      <trkpt lat="47.47981" lon="6.7338">
        <ele>320.041</ele>
        <time>2016-06-04T12:45:18.000Z</time>
      </trkpt>
      <trkpt lat="47.47981" lon="6.7338">
        <ele>320.043</ele>
        <time>2016-06-04T12:45:19.000Z</time>
      </trkpt>
      <trkpt lat="47.47981" lon="6.7338">
        <ele>320.045</ele>
        <time>2016-06-04T12:45:20.000Z</time>
      </trkpt>
      <trkpt lat="47.47981" lon="6.7338">
        <ele>320.046</ele>
        <time>2016-06-04T12:45:21.000Z</time>
      </trkpt>
      <trkpt lat="47.47981" lon="6.7338">
        <ele>320.048</ele>
        <time>2016-06-04T12:45:22.000Z</time>
      </trkpt>
      <trkpt lat="47.47981" lon="6.7338">
        <ele>320.05</ele>
        <time>2016-06-04T12:45:23.000Z</time>
      </trkpt>
      <trkpt lat="47.47981" lon="6.7338">
        <ele>320.052</ele>
        <time>2016-06-04T12:45:24.000Z</time>
      </trkpt>
      <trkpt lat="47.47981" lon="6.7338">
        <ele>320.053</ele>
        <time>2016-06-04T12:45:25.000Z</time>
      </trkpt>
      <trkpt lat="47.47981" lon="6.7338">
        <ele>320.055</ele>
        <time>2016-06-04T12:45:26.000Z</time>
      </trkpt>
      <trkpt lat="47.47981" lon="6.7338">
        <ele>320.057</ele>
        <time>2016-06-04T12:45:27.000Z</time>
      </trkpt>
      <trkpt lat="47.47981" lon="6.7338">
        <ele>320.059</ele>
        <time>2016-06-04T12:45:28.000Z</time>
      </trkpt>
      <trkpt lat="47.47981" lon="6.7338">
        <ele>320.061</ele>
        <time>2016-06-04T12:45:29.000Z</time>
      </trkpt>
      <trkpt lat="47.47981" lon="6.7338">
        <ele>320.063</ele>
        <time>2016-06-04T12:45:30.000Z</time>
      </trkpt>
      <trkpt lat="47.47981" lon="6.7338">
        <ele>320.064</ele>
        <time>2016-06-04T12:45:31.000Z</time>
      </trkpt>
      <trkpt lat="47.47981" lon="6.7338">
        <ele>320.066</ele>
        <time>2016-06-04T12:45:32.000Z</time>
      </trkpt>
      <trkpt lat="47.47981" lon="6.7338">
        <ele>320.068</ele>
        <time>2016-06-04T12:45:33.000Z</time>
      </trkpt>
      <trkpt lat="47.47981" lon="6.7338">
        <ele>320.07</ele>
        <time>2016-06-04T12:45:34.000Z</time>
      </trkpt>
      <trkpt lat="47.47981" lon="6.7338">
        <ele>320.072</ele>
        <time>2016-06-04T12:45:35.000Z</time>
      </trkpt>
      <trkpt lat="47.47981" lon="6.7338">
        <ele>320.073</ele>
        <time>2016-06-04T12:45:36.000Z</time>
      </trkpt>
      <trkpt lat="47.47981" lon="6.7338">
        <ele>320.075</ele>
        <time>2016-06-04T12:45:37.000Z</time>
      </trkpt>
      <trkpt lat="47.47981" lon="6.7338">
        <ele>320.077</ele>
        <time>2016-06-04T12:45:38.000Z</time>
      </trkpt>
      <trkpt lat="47.47981" lon="6.7338">
        <ele>320.078</ele>
        <time>2016-06-04T12:45:39.000Z</time>
      </trkpt>
      <trkpt lat="47.47981" lon="6.7338">
        <ele>320.08</ele>
        <time>2016-06-04T12:45:40.000Z</time>
      </trkpt>
      <trkpt lat="47.47981" lon="6.7338">
        <ele>320.081</ele>
        <time>2016-06-04T12:45:41.000Z</time>
      </trkpt>
      <trkpt lat="47.47981" lon="6.7338">
        <ele>320.083</ele>
        <time>2016-06-04T12:45:42.000Z</time>
      </trkpt>
      <trkpt lat="47.47981" lon="6.7338">
        <ele>320.084</ele>
        <time>2016-06-04T12:45:43.000Z</time>
      </trkpt>
      <trkpt lat="47.47981" lon="6.7338">
        <ele>320.085</ele>
        <time>2016-06-04T12:45:44.000Z</time>
      </trkpt>
      <trkpt lat="47.47981" lon="6.7338">
        <ele>320.086</ele>
        <time>2016-06-04T12:45:45.000Z</time>
      </trkpt>
      <trkpt lat="47.47981" lon="6.7338">
        <ele>320.087</ele>
        <time>2016-06-04T12:45:46.000Z</time>
      </trkpt>
      <trkpt lat="47.47981" lon="6.7338">
        <ele>320.088</ele>
        <time>2016-06-04T12:45:47.000Z</time>
      </trkpt>
      <trkpt lat="47.47981" lon="6.7338">
        <ele>320.089</ele>
        <time>2016-06-04T12:45:48.000Z</time>
      </trkpt>
      <trkpt lat="47.47981" lon="6.7338">
        <ele>320.09</ele>
        <time>2016-06-04T12:45:49.000Z</time>
      </trkpt>
      <trkpt lat="47.47981" lon="6.7338">
        <ele>320.091</ele>
        <time>2016-06-04T12:45:50.000Z</time>
      </trkpt>
      <trkpt lat="47.47981" lon="6.7338">
        <ele>320.091</ele>
        <time>2016-06-04T12:45:51.000Z</time>
      </trkpt>
      <trkpt lat="47.47981" lon="6.7338">
        <ele>320.092</ele>
        <time>2016-06-04T12:45:52.000Z</time>
      </trkpt>
      <trkpt lat="47.47981" lon="6.7338">
        <ele>320.093</ele>
        <time>2016-06-04T12:45:53.000Z</time>
      </trkpt>
      <trkpt lat="47.47981" lon="6.7338">
        <ele>320.093</ele>
        <time>2016-06-04T12:45:54.000Z</time>
      </trkpt>
      <trkpt lat="47.47981" lon="6.7338">
        <ele>320.094</ele>
        <time>2016-06-04T12:45:55.000Z</time>
      </trkpt>
      <trkpt lat="47.47981" lon="6.7338">
        <ele>320.095</ele>
        <time>2016-06-04T12:45:56.000Z</time>
      </trkpt>
      <trkpt lat="47.47981" lon="6.7338">
        <ele>320.095</ele>
        <time>2016-06-04T12:45:57.000Z</time>
      </trkpt>
      <trkpt lat="47.47981" lon="6.7338">
        <ele>320.096</ele>
        <time>2016-06-04T12:45:58.000Z</time>
      </trkpt>
      <trkpt lat="47.47981" lon="6.7338">
        <ele>320.097</ele>
        <time>2016-06-04T12:45:59.000Z</time>
      </trkpt>
      <trkpt lat="47.47981" lon="6.7338">
        <ele>320.097</ele>
        <time>2016-06-04T12:46:00.000Z</time>
      </trkpt>
      <trkpt lat="47.47981" lon="6.7338">
        <ele>320.098</ele>
        <time>2016-06-04T12:46:01.000Z</time>
      </trkpt>
      <trkpt lat="47.47981" lon="6.7338">
        <ele>320.099</ele>
        <time>2016-06-04T12:46:02.000Z</time>
      </trkpt>
      <trkpt lat="47.47981" lon="6.7338">
        <ele>320.1</ele>
        <time>2016-06-04T12:46:03.000Z</time>
      </trkpt>
      <trkpt lat="47.47981" lon="6.7338">
        <ele>320.101</ele>
        <time>2016-06-04T12:46:04.000Z</time>
      </trkpt>
      <trkpt lat="47.47981" lon="6.7338">
        <ele>320.102</ele>
        <time>2016-06-04T12:46:05.000Z</time>
      </trkpt>
      <trkpt lat="47.47981" lon="6.7338">
        <ele>320.103</ele>
        <time>2016-06-04T12:46:06.000Z</time>
      </trkpt>
      <trkpt lat="47.47981" lon="6.7338">
        <ele>320.105</ele>
        <time>2016-06-04T12:46:07.000Z</time>
      </trkpt>
      <trkpt lat="47.47981" lon="6.7338">
        <ele>320.106</ele>
        <time>2016-06-04T12:46:08.000Z</time>
      </trkpt>
      <trkpt lat="47.47981" lon="6.7338">
        <ele>320.108</ele>
        <time>2016-06-04T12:46:09.000Z</time>
      </trkpt>
      <trkpt lat="47.47981" lon="6.7338">
        <ele>320.109</ele>
        <time>2016-06-04T12:46:10.000Z</time>
      </trkpt>
      <trkpt lat="47.47981" lon="6.7338">
        <ele>320.111</ele>
        <time>2016-06-04T12:46:11.000Z</time>
      </trkpt>
      <trkpt lat="47.47981" lon="6.7338">
        <ele>320.113</ele>
        <time>2016-06-04T12:46:12.000Z</time>
      </trkpt>
      <trkpt lat="47.47981" lon="6.7338">
        <ele>320.114</ele>
        <time>2016-06-04T12:46:13.000Z</time>
      </trkpt>
      <trkpt lat="47.47981" lon="6.7338">
        <ele>320.116</ele>
        <time>2016-06-04T12:46:14.000Z</time>
      </trkpt>
      <trkpt lat="47.47981" lon="6.7338">
        <ele>320.118</ele>
        <time>2016-06-04T12:46:15.000Z</time>
      </trkpt>
      <trkpt lat="47.47981" lon="6.7338">
        <ele>320.12</ele>
        <time>2016-06-04T12:46:16.000Z</time>
      </trkpt>
      <trkpt lat="47.47981" lon="6.7338">
        <ele>320.122</ele>
        <time>2016-06-04T12:46:17.000Z</time>
      </trkpt>
      <trkpt lat="47.47981" lon="6.7338">
        <ele>320.124</ele>
        <time>2016-06-04T12:46:18.000Z</time>
      </trkpt>
      <trkpt lat="47.47981" lon="6.7338">
        <ele>320.126</ele>
        <time>2016-06-04T12:46:19.000Z</time>
      </trkpt>
      <trkpt lat="47.47981" lon="6.7338">
        <ele>320.128</ele>
        <time>2016-06-04T12:46:20.000Z</time>
      </trkpt>
      <trkpt lat="47.47981" lon="6.7338">
        <ele>320.13</ele>
        <time>2016-06-04T12:46:21.000Z</time>
      </trkpt>
      <trkpt lat="47.47981" lon="6.7338">
        <ele>320.132</ele>
        <time>2016-06-04T12:46:22.000Z</time>
      </trkpt>
      <trkpt lat="47.47981" lon="6.7338">
        <ele>320.134</ele>
        <time>2016-06-04T12:46:23.000Z</time>
      </trkpt>
      <trkpt lat="47.47981" lon="6.7338">
        <ele>320.136</ele>
        <time>2016-06-04T12:46:24.000Z</time>
      </trkpt>
      <trkpt lat="47.47981" lon="6.7338">
        <ele>320.138</ele>
        <time>2016-06-04T12:46:25.000Z</time>
      </trkpt>
      <trkpt lat="47.47981" lon="6.7338">
        <ele>320.139</ele>
        <time>2016-06-04T12:46:26.000Z</time>
      </trkpt>
      <trkpt lat="47.47981" lon="6.7338">
        <ele>320.141</ele>
        <time>2016-06-04T12:46:27.000Z</time>
      </trkpt>
      <trkpt lat="47.47981" lon="6.7338">
        <ele>320.143</ele>
        <time>2016-06-04T12:46:28.000Z</time>
      </trkpt>
      <trkpt lat="47.47981" lon="6.7338">
        <ele>320.144</ele>
        <time>2016-06-04T12:46:29.000Z</time>
      </trkpt>
      <trkpt lat="47.47981" lon="6.7338">
        <ele>320.146</ele>
        <time>2016-06-04T12:46:30.000Z</time>
      </trkpt>
      <trkpt lat="47.47981" lon="6.7338">
        <ele>320.148</ele>
        <time>2016-06-04T12:46:31.000Z</time>
      </trkpt>
      <trkpt lat="47.47981" lon="6.7338">
        <ele>320.149</ele>
        <time>2016-06-04T12:46:32.000Z</time>
      </trkpt>
      <trkpt lat="47.47981" lon="6.7338">
        <ele>320.15</ele>
        <time>2016-06-04T12:46:33.000Z</time>
      </trkpt>
      <trkpt lat="47.47981" lon="6.7338">
        <ele>320.152</ele>
        <time>2016-06-04T12:46:34.000Z</time>
      </trkpt>
      <trkpt lat="47.47981" lon="6.7338">
        <ele>320.153</ele>
        <time>2016-06-04T12:46:35.000Z</time>
      </trkpt>
      <trkpt lat="47.47981" lon="6.7338">
        <ele>320.154</ele>
        <time>2016-06-04T12:46:36.000Z</time>
      </trkpt>
      <trkpt lat="47.47981" lon="6.7338">
        <ele>320.156</ele>
        <time>2016-06-04T12:46:37.000Z</time>
      </trkpt>
      <trkpt lat="47.47981" lon="6.7338">
        <ele>320.157</ele>
        <time>2016-06-04T12:46:38.000Z</time>
      </trkpt>
      <trkpt lat="47.47981" lon="6.7338">
        <ele>320.158</ele>
        <time>2016-06-04T12:46:39.000Z</time>
      </trkpt>
      <trkpt lat="47.47981" lon="6.7338">
        <ele>320.159</ele>
        <time>2016-06-04T12:46:40.000Z</time>
      </trkpt>
      <trkpt lat="47.47981" lon="6.7338">
        <ele>320.16</ele>
        <time>2016-06-04T12:46:41.000Z</time>
      </trkpt>
      <trkpt lat="47.47981" lon="6.7338">
        <ele>320.161</ele>
        <time>2016-06-04T12:46:42.000Z</time>
      </trkpt>
      <trkpt lat="47.47981" lon="6.7338">
        <ele>320.163</ele>
        <time>2016-06-04T12:46:43.000Z</time>
      </trkpt>
      <trkpt lat="47.47981" lon="6.7338">
        <ele>320.164</ele>
        <time>2016-06-04T12:46:44.000Z</time>
      </trkpt>
      <trkpt lat="47.47981" lon="6.7338">
        <ele>320.165</ele>
        <time>2016-06-04T12:46:45.000Z</time>
      </trkpt>
      <trkpt lat="47.47981" lon="6.7338">
        <ele>320.166</ele>
        <time>2016-06-04T12:46:46.000Z</time>
      </trkpt>
      <trkpt lat="47.47981" lon="6.7338">
        <ele>320.167</ele>
        <time>2016-06-04T12:46:47.000Z</time>
      </trkpt>
      <trkpt lat="47.47981" lon="6.7338">
        <ele>320.168</ele>
        <time>2016-06-04T12:46:48.000Z</time>
      </trkpt>
      <trkpt lat="47.47981" lon="6.7338">
        <ele>320.169</ele>
        <time>2016-06-04T12:46:49.000Z</time>
      </trkpt>
      <trkpt lat="47.47981" lon="6.7338">
        <ele>320.17</ele>
        <time>2016-06-04T12:46:50.000Z</time>
      </trkpt>
      <trkpt lat="47.47981" lon="6.7338">
        <ele>320.171</ele>
        <time>2016-06-04T12:46:51.000Z</time>
      </trkpt>
      <trkpt lat="47.47981" lon="6.7338">
        <ele>320.172</ele>
        <time>2016-06-04T12:46:52.000Z</time>
      </trkpt>
      <trkpt lat="47.47981" lon="6.7338">
        <ele>320.173</ele>
        <time>2016-06-04T12:46:53.000Z</time>
      </trkpt>
      <trkpt lat="47.47981" lon="6.7338">
        <ele>320.174</ele>
        <time>2016-06-04T12:46:54.000Z</time>
      </trkpt>
      <trkpt lat="47.47981" lon="6.7338">
        <ele>320.175</ele>
        <time>2016-06-04T12:46:55.000Z</time>
      </trkpt>
      <trkpt lat="47.47981" lon="6.7338">
        <ele>320.176</ele>
        <time>2016-06-04T12:46:56.000Z</time>
      </trkpt>
      <trkpt lat="47.47981" lon="6.7338">
        <ele>320.177</ele>
        <time>2016-06-04T12:46:57.000Z</time>
      </trkpt>
      <trkpt lat="47.47981" lon="6.7338">
        <ele>320.178</ele>
        <time>2016-06-04T12:46:58.000Z</time>
      </trkpt>
      <trkpt lat="47.47981" lon="6.7338">
        <ele>320.179</ele>
        <time>2016-06-04T12:46:59.000Z</time>
      </trkpt>
      <trkpt lat="47.47981" lon="6.7338">
        <ele>320.18</ele>
        <time>2016-06-04T12:47:00.000Z</time>
      </trkpt>
      <trkpt lat="47.47981" lon="6.7338">
        <ele>320.18</ele>
        <time>2016-06-04T12:47:01.000Z</time>
      </trkpt>
      <trkpt lat="47.47981" lon="6.7338">
        <ele>320.181</ele>
        <time>2016-06-04T12:47:02.000Z</time>
      </trkpt>
      <trkpt lat="47.47981" lon="6.7338">
        <ele>320.182</ele>
        <time>2016-06-04T12:47:03.000Z</time>
      </trkpt>
      <trkpt lat="47.47981" lon="6.7338">
        <ele>320.183</ele>
        <time>2016-06-04T12:47:04.000Z</time>
      </trkpt>
      <trkpt lat="47.47981" lon="6.7338">
        <ele>320.183</ele>
        <time>2016-06-04T12:47:05.000Z</time>
      </trkpt>
      <trkpt lat="47.47981" lon="6.7338">
        <ele>320.184</ele>
        <time>2016-06-04T12:47:06.000Z</time>
      </trkpt>
      <trkpt lat="47.47981" lon="6.7338">
        <ele>320.184</ele>
        <time>2016-06-04T12:47:07.000Z</time>
      </trkpt>
      <trkpt lat="47.47981" lon="6.7338">
        <ele>320.185</ele>
        <time>2016-06-04T12:47:08.000Z</time>
      </trkpt>
      <trkpt lat="47.47981" lon="6.7338">
        <ele>320.185</ele>
        <time>2016-06-04T12:47:09.000Z</time>
      </trkpt>
      <trkpt lat="47.47981" lon="6.7338">
        <ele>320.186</ele>
        <time>2016-06-04T12:47:10.000Z</time>
      </trkpt>
      <trkpt lat="47.47981" lon="6.7338">
        <ele>320.186</ele>
        <time>2016-06-04T12:47:11.000Z</time>
      </trkpt>
      <trkpt lat="47.47981" lon="6.7338">
        <ele>320.187</ele>
        <time>2016-06-04T12:47:12.000Z</time>
      </trkpt>
      <trkpt lat="47.47981" lon="6.7338">
        <ele>320.187</ele>
        <time>2016-06-04T12:47:13.000Z</time>
      </trkpt>
      <trkpt lat="47.47981" lon="6.7338">
        <ele>320.187</ele>
        <time>2016-06-04T12:47:14.000Z</time>
      </trkpt>
      <trkpt lat="47.47981" lon="6.7338">
        <ele>320.187</ele>
        <time>2016-06-04T12:47:15.000Z</time>
      </trkpt>
      <trkpt lat="47.47981" lon="6.7338">
        <ele>320.188</ele>
        <time>2016-06-04T12:47:16.000Z</time>
      </trkpt>
      <trkpt lat="47.47981" lon="6.7338">
        <ele>320.188</ele>
        <time>2016-06-04T12:47:17.000Z</time>
      </trkpt>
      <trkpt lat="47.47981" lon="6.7338">
        <ele>320.188</ele>
        <time>2016-06-04T12:47:18.000Z</time>
      </trkpt>
      <trkpt lat="47.47981" lon="6.7338">
        <ele>320.188</ele>
        <time>2016-06-04T12:47:19.000Z</time>
      </trkpt>
      <trkpt lat="47.47981" lon="6.7338">
        <ele>320.188</ele>
        <time>2016-06-04T12:47:20.000Z</time>
      </trkpt>
      <trkpt lat="47.47981" lon="6.7338">
        <ele>320.188</ele>
        <time>2016-06-04T12:47:21.000Z</time>
      </trkpt>
      <trkpt lat="47.47981" lon="6.7338">
        <ele>320.188</ele>
        <time>2016-06-04T12:47:22.000Z</time>
      </trkpt>
      <trkpt lat="47.47981" lon="6.7338">
        <ele>320.188</ele>
        <time>2016-06-04T12:47:23.000Z</time>
      </trkpt>
      <trkpt lat="47.47981" lon="6.7338">
        <ele>320.188</ele>
        <time>2016-06-04T12:47:24.000Z</time>
      </trkpt>
      <trkpt lat="47.47981" lon="6.7338">
        <ele>320.188</ele>
        <time>2016-06-04T12:47:25.000Z</time>
      </trkpt>
      <trkpt lat="47.47981" lon="6.7338">
        <ele>320.188</ele>
        <time>2016-06-04T12:47:26.000Z</time>
      </trkpt>
      <trkpt lat="47.47981" lon="6.7338">
        <ele>320.188</ele>
        <time>2016-06-04T12:47:27.000Z</time>
      </trkpt>
      <trkpt lat="47.47981" lon="6.7338">
        <ele>320.188</ele>
        <time>2016-06-04T12:47:28.000Z</time>
      </trkpt>
      <trkpt lat="47.47981" lon="6.7338">
        <ele>320.188</ele>
        <time>2016-06-04T12:47:29.000Z</time>
      </trkpt>
      <trkpt lat="47.47981" lon="6.7338">
        <ele>320.188</ele>
        <time>2016-06-04T12:47:30.000Z</time>
      </trkpt>
      <trkpt lat="47.47981" lon="6.7338">
        <ele>320.188</ele>
        <time>2016-06-04T12:47:31.000Z</time>
      </trkpt>
      <trkpt lat="47.47981" lon="6.7338">
        <ele>320.188</ele>
        <time>2016-06-04T12:47:32.000Z</time>
      </trkpt>
      <trkpt lat="47.47981" lon="6.7338">
        <ele>320.189</ele>
        <time>2016-06-04T12:47:33.000Z</time>
      </trkpt>
      <trkpt lat="47.47981" lon="6.7338">
        <ele>320.189</ele>
        <time>2016-06-04T12:47:34.000Z</time>
      </trkpt>
      <trkpt lat="47.47981" lon="6.7338">
        <ele>320.189</ele>
        <time>2016-06-04T12:47:35.000Z</time>
      </trkpt>
      <trkpt lat="47.47981" lon="6.7338">
        <ele>320.189</ele>
        <time>2016-06-04T12:47:36.000Z</time>
      </trkpt>
      <trkpt lat="47.47981" lon="6.7338">
        <ele>320.189</ele>
        <time>2016-06-04T12:47:37.000Z</time>
      </trkpt>
      <trkpt lat="47.47981" lon="6.7338">
        <ele>320.189</ele>
        <time>2016-06-04T12:47:38.000Z</time>
      </trkpt>
      <trkpt lat="47.47981" lon="6.7338">
        <ele>320.19</ele>
        <time>2016-06-04T12:47:39.000Z</time>
      </trkpt>
      <trkpt lat="47.47981" lon="6.7338">
        <ele>320.19</ele>
        <time>2016-06-04T12:47:40.000Z</time>
      </trkpt>
      <trkpt lat="47.47981" lon="6.7338">
        <ele>320.19</ele>
        <time>2016-06-04T12:47:41.000Z</time>
      </trkpt>
      <trkpt lat="47.47981" lon="6.7338">
        <ele>320.19</ele>
        <time>2016-06-04T12:47:42.000Z</time>
      </trkpt>
      <trkpt lat="47.47981" lon="6.7338">
        <ele>320.191</ele>
        <time>2016-06-04T12:47:43.000Z</time>
      </trkpt>
      <trkpt lat="47.47981" lon="6.7338">
        <ele>320.191</ele>
        <time>2016-06-04T12:47:44.000Z</time>
      </trkpt>
      <trkpt lat="47.47981" lon="6.7338">
        <ele>320.191</ele>
        <time>2016-06-04T12:47:45.000Z</time>
      </trkpt>
      <trkpt lat="47.47981" lon="6.7338">
        <ele>320.191</ele>
        <time>2016-06-04T12:47:46.000Z</time>
      </trkpt>
      <trkpt lat="47.47981" lon="6.7338">
        <ele>320.191</ele>
        <time>2016-06-04T12:47:47.000Z</time>
      </trkpt>
      <trkpt lat="47.47981" lon="6.7338">
        <ele>320.192</ele>
        <time>2016-06-04T12:47:48.000Z</time>
      </trkpt>
      <trkpt lat="47.47981" lon="6.7338">
        <ele>320.192</ele>
        <time>2016-06-04T12:47:49.000Z</time>
      </trkpt>
      <trkpt lat="47.47981" lon="6.7338">
        <ele>320.192</ele>
        <time>2016-06-04T12:47:50.000Z</time>
      </trkpt>
      <trkpt lat="47.47981" lon="6.7338">
        <ele>320.192</ele>
        <time>2016-06-04T12:47:51.000Z</time>
      </trkpt>
      <trkpt lat="47.47981" lon="6.7338">
        <ele>320.192</ele>
        <time>2016-06-04T12:47:52.000Z</time>
      </trkpt>
      <trkpt lat="47.47981" lon="6.7338">
        <ele>320.192</ele>
        <time>2016-06-04T12:47:53.000Z</time>
      </trkpt>
      <trkpt lat="47.47981" lon="6.7338">
        <ele>320.193</ele>
        <time>2016-06-04T12:47:54.000Z</time>
      </trkpt>
      <trkpt lat="47.47981" lon="6.7338">
        <ele>320.193</ele>
        <time>2016-06-04T12:47:55.000Z</time>
      </trkpt>
      <trkpt lat="47.47981" lon="6.7338">
        <ele>320.193</ele>
        <time>2016-06-04T12:47:56.000Z</time>
      </trkpt>
      <trkpt lat="47.47981" lon="6.7338">
        <ele>320.193</ele>
        <time>2016-06-04T12:47:57.000Z</time>
      </trkpt>
      <trkpt lat="47.47981" lon="6.7338">
        <ele>320.193</ele>
        <time>2016-06-04T12:47:58.000Z</time>
      </trkpt>
      <trkpt lat="47.47981" lon="6.7338">
        <ele>320.193</ele>
        <time>2016-06-04T12:47:59.000Z</time>
      </trkpt>
      <trkpt lat="47.47981" lon="6.7338">
        <ele>320.193</ele>
        <time>2016-06-04T12:48:00.000Z</time>
      </trkpt>
      <trkpt lat="47.47981" lon="6.7338">
        <ele>320.193</ele>
        <time>2016-06-04T12:48:01.000Z</time>
      </trkpt>
      <trkpt lat="47.47981" lon="6.7338">
        <ele>320.193</ele>
        <time>2016-06-04T12:48:02.000Z</time>
      </trkpt>
      <trkpt lat="47.47981" lon="6.7338">
        <ele>320.193</ele>
        <time>2016-06-04T12:48:03.000Z</time>
      </trkpt>
      <trkpt lat="47.47981" lon="6.7338">
        <ele>320.193</ele>
        <time>2016-06-04T12:48:04.000Z</time>
      </trkpt>
      <trkpt lat="47.47981" lon="6.7338">
        <ele>320.193</ele>
        <time>2016-06-04T12:48:05.000Z</time>
      </trkpt>
      <trkpt lat="47.47981" lon="6.7338">
        <ele>320.193</ele>
        <time>2016-06-04T12:48:06.000Z</time>
      </trkpt>
      <trkpt lat="47.47981" lon="6.7338">
        <ele>320.193</ele>
        <time>2016-06-04T12:48:07.000Z</time>
      </trkpt>
      <trkpt lat="47.47981" lon="6.7338">
        <ele>320.193</ele>
        <time>2016-06-04T12:48:08.000Z</time>
      </trkpt>
      <trkpt lat="47.47981" lon="6.7338">
        <ele>320.193</ele>
        <time>2016-06-04T12:48:09.000Z</time>
      </trkpt>
      <trkpt lat="47.47981" lon="6.7338">
        <ele>320.192</ele>
        <time>2016-06-04T12:48:10.000Z</time>
      </trkpt>
      <trkpt lat="47.47981" lon="6.7338">
        <ele>320.192</ele>
        <time>2016-06-04T12:48:11.000Z</time>
      </trkpt>
      <trkpt lat="47.47981" lon="6.7338">
        <ele>320.192</ele>
        <time>2016-06-04T12:48:12.000Z</time>
      </trkpt>
      <trkpt lat="47.47981" lon="6.7338">
        <ele>320.192</ele>
        <time>2016-06-04T12:48:13.000Z</time>
      </trkpt>
      <trkpt lat="47.47981" lon="6.7338">
        <ele>320.192</ele>
        <time>2016-06-04T12:48:14.000Z</time>
      </trkpt>
      <trkpt lat="47.47981" lon="6.7338">
        <ele>320.191</ele>
        <time>2016-06-04T12:48:15.000Z</time>
      </trkpt>
      <trkpt lat="47.47981" lon="6.7338">
        <ele>320.191</ele>
        <time>2016-06-04T12:48:16.000Z</time>
      </trkpt>
      <trkpt lat="47.47981" lon="6.7338">
        <ele>320.19</ele>
        <time>2016-06-04T12:48:17.000Z</time>
      </trkpt>
      <trkpt lat="47.47981" lon="6.7338">
        <ele>320.19</ele>
        <time>2016-06-04T12:48:18.000Z</time>
      </trkpt>
      <trkpt lat="47.47981" lon="6.7338">
        <ele>320.19</ele>
        <time>2016-06-04T12:48:19.000Z</time>
      </trkpt>
      <trkpt lat="47.47981" lon="6.7338">
        <ele>320.189</ele>
        <time>2016-06-04T12:48:20.000Z</time>
      </trkpt>
      <trkpt lat="47.47981" lon="6.7338">
        <ele>320.189</ele>
        <time>2016-06-04T12:48:21.000Z</time>
      </trkpt>
      <trkpt lat="47.47981" lon="6.7338">
        <ele>320.188</ele>
        <time>2016-06-04T12:48:22.000Z</time>
      </trkpt>
      <trkpt lat="47.47981" lon="6.7338">
        <ele>320.188</ele>
        <time>2016-06-04T12:48:23.000Z</time>
      </trkpt>
      <trkpt lat="47.47981" lon="6.7338">
        <ele>320.187</ele>
        <time>2016-06-04T12:48:24.000Z</time>
      </trkpt>
      <trkpt lat="47.47981" lon="6.7338">
        <ele>320.187</ele>
        <time>2016-06-04T12:48:25.000Z</time>
      </trkpt>
      <trkpt lat="47.47981" lon="6.7338">
        <ele>319.674</ele>
        <time>2016-06-04T12:48:26.288Z</time>
      </trkpt>
      <trkpt lat="47.47981" lon="6.7338">
        <ele>319.695</ele>
        <time>2016-06-04T12:48:27.309Z</time>
      </trkpt>
      <trkpt lat="47.47981" lon="6.7338">
        <ele>319.704</ele>
        <time>2016-06-04T12:48:28.008Z</time>
      </trkpt>
      <trkpt lat="47.47981" lon="6.7338">
        <ele>319.71</ele>
        <time>2016-06-04T12:48:29.004Z</time>
      </trkpt>
      <trkpt lat="47.47981" lon="6.7338">
        <ele>319.712</ele>
        <time>2016-06-04T12:48:30.000Z</time>
      </trkpt>
      <trkpt lat="47.47981" lon="6.7338">
        <ele>319.726</ele>
        <time>2016-06-04T12:48:31.000Z</time>
      </trkpt>
      <trkpt lat="47.47981" lon="6.7338">
        <ele>319.737</ele>
        <time>2016-06-04T12:48:32.000Z</time>
      </trkpt>
      <trkpt lat="47.47981" lon="6.7338">
        <ele>319.737</ele>
        <time>2016-06-04T12:48:33.000Z</time>
      </trkpt>
      <trkpt lat="47.47981" lon="6.7338">
        <ele>319.739</ele>
        <time>2016-06-04T12:48:34.000Z</time>
      </trkpt>
      <trkpt lat="47.47981" lon="6.7338">
        <ele>319.747</ele>
        <time>2016-06-04T12:48:35.000Z</time>
      </trkpt>
      <trkpt lat="47.47981" lon="6.7338">
        <ele>319.749</ele>
        <time>2016-06-04T12:48:36.000Z</time>
      </trkpt>
      <trkpt lat="47.47981" lon="6.7338">
        <ele>319.761</ele>
        <time>2016-06-04T12:48:37.000Z</time>
      </trkpt>
      <trkpt lat="47.47981" lon="6.7338">
        <ele>319.761</ele>
        <time>2016-06-04T12:48:38.000Z</time>
      </trkpt>
      <trkpt lat="47.47981" lon="6.7338">
        <ele>319.764</ele>
        <time>2016-06-04T12:48:39.000Z</time>
      </trkpt>
      <trkpt lat="47.47981" lon="6.7338">
        <ele>319.775</ele>
        <time>2016-06-04T12:48:40.000Z</time>
      </trkpt>
      <trkpt lat="47.47981" lon="6.7338">
        <ele>319.778</ele>
        <time>2016-06-04T12:48:41.000Z</time>
      </trkpt>
      <trkpt lat="47.47981" lon="6.7338">
        <ele>319.789</ele>
        <time>2016-06-04T12:48:42.281Z</time>
      </trkpt>
      <trkpt lat="47.47981" lon="6.7338">
        <ele>320.321</ele>
        <time>2016-06-04T12:48:43.281Z</time>
      </trkpt>
      <trkpt lat="47.47981" lon="6.7338">
        <ele>320.325</ele>
        <time>2016-06-04T12:48:44.281Z</time>
      </trkpt>
      <trkpt lat="47.47981" lon="6.7338">
        <ele>320.329</ele>
        <time>2016-06-04T12:48:45.281Z</time>
      </trkpt>
      <trkpt lat="47.47981" lon="6.7338">
        <ele>320.334</ele>
        <time>2016-06-04T12:48:46.281Z</time>
      </trkpt>
      <trkpt lat="47.47981" lon="6.7338">
        <ele>320.338</ele>
        <time>2016-06-04T12:48:47.281Z</time>
      </trkpt>
      <trkpt lat="47.47981" lon="6.7338">
        <ele>320.342</ele>
        <time>2016-06-04T12:48:48.281Z</time>
      </trkpt>
      <trkpt lat="47.47981" lon="6.7338">
        <ele>320.346</ele>
        <time>2016-06-04T12:48:49.281Z</time>
      </trkpt>
      <trkpt lat="47.47981" lon="6.7338">
        <ele>320.35</ele>
        <time>2016-06-04T12:48:50.281Z</time>
      </trkpt>
      <trkpt lat="47.47981" lon="6.7338">
        <ele>320.354</ele>
        <time>2016-06-04T12:48:51.281Z</time>
      </trkpt>
      <trkpt lat="47.47981" lon="6.7338">
        <ele>320.357</ele>
        <time>2016-06-04T12:48:52.281Z</time>
      </trkpt>
      <trkpt lat="47.47981" lon="6.7338">
        <ele>320.361</ele>
        <time>2016-06-04T12:48:53.281Z</time>
      </trkpt>
      <trkpt lat="47.47981" lon="6.7338">
        <ele>320.364</ele>
        <time>2016-06-04T12:48:54.281Z</time>
      </trkpt>
      <trkpt lat="47.47981" lon="6.7338">
        <ele>320.367</ele>
        <time>2016-06-04T12:48:55.281Z</time>
      </trkpt>
      <trkpt lat="47.47981" lon="6.7338">
        <ele>320.369</ele>
        <time>2016-06-04T12:48:56.281Z</time>
      </trkpt>
      <trkpt lat="47.47981" lon="6.7338">
        <ele>320.372</ele>
        <time>2016-06-04T12:48:57.281Z</time>
      </trkpt>
      <trkpt lat="47.47981" lon="6.7338">
        <ele>320.374</ele>
        <time>2016-06-04T12:48:58.281Z</time>
      </trkpt>
      <trkpt lat="47.47981" lon="6.7338">
        <ele>320.376</ele>
        <time>2016-06-04T12:48:59.281Z</time>
      </trkpt>
      <trkpt lat="47.47981" lon="6.7338">
        <ele>320.377</ele>
        <time>2016-06-04T12:49:00.281Z</time>
      </trkpt>
      <trkpt lat="47.47981" lon="6.7338">
        <ele>320.379</ele>
        <time>2016-06-04T12:49:01.281Z</time>
      </trkpt>
      <trkpt lat="47.47981" lon="6.7338">
        <ele>320.379</ele>
        <time>2016-06-04T12:49:02.281Z</time>
      </trkpt>
      <trkpt lat="47.47981" lon="6.7338">
        <ele>320.38</ele>
        <time>2016-06-04T12:49:03.281Z</time>
      </trkpt>
      <trkpt lat="47.47981" lon="6.7338">
        <ele>320.38</ele>
        <time>2016-06-04T12:49:04.281Z</time>
      </trkpt>
      <trkpt lat="47.47981" lon="6.7338">
        <ele>320.38</ele>
        <time>2016-06-04T12:49:05.281Z</time>
      </trkpt>
      <trkpt lat="47.47981" lon="6.7338">
        <ele>320.38</ele>
        <time>2016-06-04T12:49:06.281Z</time>
      </trkpt>
      <trkpt lat="47.47981" lon="6.7338">
        <ele>320.379</ele>
        <time>2016-06-04T12:49:07.281Z</time>
      </trkpt>
      <trkpt lat="47.47981" lon="6.7338">
        <ele>320.379</ele>
        <time>2016-06-04T12:49:08.281Z</time>
      </trkpt>
      <trkpt lat="47.47981" lon="6.7338">
        <ele>320.378</ele>
        <time>2016-06-04T12:49:09.281Z</time>
      </trkpt>
      <trkpt lat="47.47981" lon="6.7338">
        <ele>320.377</ele>
        <time>2016-06-04T12:49:10.281Z</time>
      </trkpt>
      <trkpt lat="47.47981" lon="6.7338">
        <ele>320.375</ele>
        <time>2016-06-04T12:49:11.281Z</time>
      </trkpt>
      <trkpt lat="47.47981" lon="6.7338">
        <ele>320.374</ele>
        <time>2016-06-04T12:49:12.281Z</time>
      </trkpt>
      <trkpt lat="47.47981" lon="6.7338">
        <ele>320.373</ele>
        <time>2016-06-04T12:49:13.281Z</time>
      </trkpt>
      <trkpt lat="47.47981" lon="6.7338">
        <ele>320.371</ele>
        <time>2016-06-04T12:49:14.281Z</time>
      </trkpt>
      <trkpt lat="47.47981" lon="6.7338">
        <ele>320.37</ele>
        <time>2016-06-04T12:49:15.281Z</time>
      </trkpt>
      <trkpt lat="47.47981" lon="6.7338">
        <ele>320.368</ele>
        <time>2016-06-04T12:49:16.281Z</time>
      </trkpt>
      <trkpt lat="47.47981" lon="6.7338">
        <ele>320.367</ele>
        <time>2016-06-04T12:49:17.281Z</time>
      </trkpt>
      <trkpt lat="47.47981" lon="6.7338">
        <ele>320.365</ele>
        <time>2016-06-04T12:49:18.281Z</time>
      </trkpt>
      <trkpt lat="47.47981" lon="6.7338">
        <ele>320.364</ele>
        <time>2016-06-04T12:49:19.281Z</time>
      </trkpt>
      <trkpt lat="47.47981" lon="6.7338">
        <ele>320.363</ele>
        <time>2016-06-04T12:49:20.281Z</time>
      </trkpt>
      <trkpt lat="47.47981" lon="6.7338">
        <ele>320.362</ele>
        <time>2016-06-04T12:49:21.281Z</time>
      </trkpt>
      <trkpt lat="47.47981" lon="6.7338">
        <ele>320.361</ele>
        <time>2016-06-04T12:49:22.281Z</time>
      </trkpt>
      <trkpt lat="47.47981" lon="6.7338">
        <ele>320.36</ele>
        <time>2016-06-04T12:49:23.281Z</time>
      </trkpt>
      <trkpt lat="47.47981" lon="6.7338">
        <ele>320.359</ele>
        <time>2016-06-04T12:49:24.281Z</time>
      </trkpt>
      <trkpt lat="47.47981" lon="6.7338">
        <ele>320.359</ele>
        <time>2016-06-04T12:49:25.281Z</time>
      </trkpt>
      <trkpt lat="47.47981" lon="6.7338">
        <ele>320.359</ele>
        <time>2016-06-04T12:49:26.281Z</time>
      </trkpt>
      <trkpt lat="47.47981" lon="6.7338">
        <ele>320.36</ele>
        <time>2016-06-04T12:49:27.281Z</time>
      </trkpt>
      <trkpt lat="47.47981" lon="6.7338">
        <ele>320.36</ele>
        <time>2016-06-04T12:49:28.281Z</time>
      </trkpt>
      <trkpt lat="47.47981" lon="6.7338">
        <ele>320.361</ele>
        <time>2016-06-04T12:49:29.281Z</time>
      </trkpt>
      <trkpt lat="47.47981" lon="6.7338">
        <ele>320.363</ele>
        <time>2016-06-04T12:49:30.281Z</time>
      </trkpt>
      <trkpt lat="47.47981" lon="6.7338">
        <ele>320.365</ele>
        <time>2016-06-04T12:49:31.281Z</time>
      </trkpt>
      <trkpt lat="47.47981" lon="6.7338">
        <ele>320.368</ele>
        <time>2016-06-04T12:49:32.281Z</time>
      </trkpt>
      <trkpt lat="47.47981" lon="6.7338">
        <ele>320.371</ele>
        <time>2016-06-04T12:49:33.281Z</time>
      </trkpt>
      <trkpt lat="47.47981" lon="6.7338">
        <ele>320.375</ele>
        <time>2016-06-04T12:49:34.281Z</time>
      </trkpt>
      <trkpt lat="47.47981" lon="6.7338">
        <ele>320.379</ele>
        <time>2016-06-04T12:49:35.281Z</time>
      </trkpt>
      <trkpt lat="47.47981" lon="6.7338">
        <ele>320.384</ele>
        <time>2016-06-04T12:49:36.281Z</time>
      </trkpt>
      <trkpt lat="47.47981" lon="6.7338">
        <ele>320.39</ele>
        <time>2016-06-04T12:49:37.281Z</time>
      </trkpt>
      <trkpt lat="47.47981" lon="6.7338">
        <ele>320.397</ele>
        <time>2016-06-04T12:49:38.281Z</time>
      </trkpt>
      <trkpt lat="47.47981" lon="6.7338">
        <ele>320.404</ele>
        <time>2016-06-04T12:49:39.281Z</time>
      </trkpt>
      <trkpt lat="47.47981" lon="6.7338">
        <ele>320.412</ele>
        <time>2016-06-04T12:49:40.281Z</time>
      </trkpt>
      <trkpt lat="47.47981" lon="6.7338">
        <ele>320.42</ele>
        <time>2016-06-04T12:49:41.281Z</time>
      </trkpt>
      <trkpt lat="47.47981" lon="6.7338">
        <ele>320.43</ele>
        <time>2016-06-04T12:49:42.281Z</time>
      </trkpt>
      <trkpt lat="47.47981" lon="6.7338">
        <ele>320.44</ele>
        <time>2016-06-04T12:49:43.281Z</time>
      </trkpt>
      <trkpt lat="47.47981" lon="6.7338">
        <ele>320.45</ele>
        <time>2016-06-04T12:49:44.281Z</time>
      </trkpt>
      <trkpt lat="47.47981" lon="6.7338">
        <ele>320.461</ele>
        <time>2016-06-04T12:49:45.281Z</time>
      </trkpt>
      <trkpt lat="47.47981" lon="6.7338">
        <ele>320.473</ele>
        <time>2016-06-04T12:49:46.281Z</time>
      </trkpt>
      <trkpt lat="47.47981" lon="6.7338">
        <ele>320.484</ele>
        <time>2016-06-04T12:49:47.281Z</time>
      </trkpt>
      <trkpt lat="47.47981" lon="6.7338">
        <ele>320.497</ele>
        <time>2016-06-04T12:49:48.281Z</time>
      </trkpt>
      <trkpt lat="47.47981" lon="6.7338">
        <ele>320.509</ele>
        <time>2016-06-04T12:49:49.281Z</time>
      </trkpt>
      <trkpt lat="47.47981" lon="6.7338">
        <ele>320.522</ele>
        <time>2016-06-04T12:49:50.281Z</time>
      </trkpt>
      <trkpt lat="47.47981" lon="6.7338">
        <ele>320.535</ele>
        <time>2016-06-04T12:49:51.281Z</time>
      </trkpt>
      <trkpt lat="47.47981" lon="6.7338">
        <ele>320.547</ele>
        <time>2016-06-04T12:49:52.281Z</time>
      </trkpt>
      <trkpt lat="47.47981" lon="6.7338">
        <ele>320.56</ele>
        <time>2016-06-04T12:49:53.281Z</time>
      </trkpt>
      <trkpt lat="47.47981" lon="6.7338">
        <ele>320.573</ele>
        <time>2016-06-04T12:49:54.281Z</time>
      </trkpt>
      <trkpt lat="47.47981" lon="6.7338">
        <ele>320.585</ele>
        <time>2016-06-04T12:49:55.281Z</time>
      </trkpt>
      <trkpt lat="47.47981" lon="6.7338">
        <ele>320.597</ele>
        <time>2016-06-04T12:49:56.281Z</time>
      </trkpt>
      <trkpt lat="47.47981" lon="6.7338">
        <ele>320.609</ele>
        <time>2016-06-04T12:49:57.281Z</time>
      </trkpt>
      <trkpt lat="47.47981" lon="6.7338">
        <ele>320.621</ele>
        <time>2016-06-04T12:49:58.281Z</time>
      </trkpt>
      <trkpt lat="47.47981" lon="6.7338">
        <ele>320.633</ele>
        <time>2016-06-04T12:49:59.281Z</time>
      </trkpt>
      <trkpt lat="47.47981" lon="6.7338">
        <ele>320.644</ele>
        <time>2016-06-04T12:50:00.281Z</time>
      </trkpt>
      <trkpt lat="47.47981" lon="6.7338">
        <ele>320.654</ele>
        <time>2016-06-04T12:50:01.281Z</time>
      </trkpt>
      <trkpt lat="47.47981" lon="6.7338">
        <ele>320.665</ele>
        <time>2016-06-04T12:50:02.281Z</time>
      </trkpt>
      <trkpt lat="47.47981" lon="6.7338">
        <ele>320.675</ele>
        <time>2016-06-04T12:50:03.281Z</time>
      </trkpt>
      <trkpt lat="47.47981" lon="6.7338">
        <ele>320.684</ele>
        <time>2016-06-04T12:50:04.281Z</time>
      </trkpt>
      <trkpt lat="47.47981" lon="6.7338">
        <ele>320.694</ele>
        <time>2016-06-04T12:50:05.281Z</time>
      </trkpt>
      <trkpt lat="47.47981" lon="6.7338">
        <ele>320.702</ele>
        <time>2016-06-04T12:50:06.281Z</time>
      </trkpt>
      <trkpt lat="47.47981" lon="6.7338">
        <ele>320.711</ele>
        <time>2016-06-04T12:50:07.281Z</time>
      </trkpt>
      <trkpt lat="47.47981" lon="6.7338">
        <ele>320.719</ele>
        <time>2016-06-04T12:50:08.281Z</time>
      </trkpt>
      <trkpt lat="47.47981" lon="6.7338">
        <ele>320.726</ele>
        <time>2016-06-04T12:50:09.281Z</time>
      </trkpt>
      <trkpt lat="47.47981" lon="6.7338">
        <ele>320.733</ele>
        <time>2016-06-04T12:50:10.281Z</time>
      </trkpt>
      <trkpt lat="47.47981" lon="6.7338">
        <ele>320.74</ele>
        <time>2016-06-04T12:50:11.281Z</time>
      </trkpt>
      <trkpt lat="47.47981" lon="6.7338">
        <ele>320.746</ele>
        <time>2016-06-04T12:50:12.281Z</time>
      </trkpt>
      <trkpt lat="47.47981" lon="6.7338">
        <ele>320.752</ele>
        <time>2016-06-04T12:50:13.281Z</time>
      </trkpt>
      <trkpt lat="47.47981" lon="6.7338">
        <ele>320.757</ele>
        <time>2016-06-04T12:50:14.281Z</time>
      </trkpt>
      <trkpt lat="47.47981" lon="6.7338">
        <ele>320.762</ele>
        <time>2016-06-04T12:50:15.281Z</time>
      </trkpt>
      <trkpt lat="47.47981" lon="6.7338">
        <ele>320.766</ele>
        <time>2016-06-04T12:50:16.281Z</time>
      </trkpt>
      <trkpt lat="47.47981" lon="6.7338">
        <ele>320.77</ele>
        <time>2016-06-04T12:50:17.281Z</time>
      </trkpt>
      <trkpt lat="47.47981" lon="6.7338">
        <ele>320.774</ele>
        <time>2016-06-04T12:50:18.281Z</time>
      </trkpt>
      <trkpt lat="47.47981" lon="6.7338">
        <ele>320.777</ele>
        <time>2016-06-04T12:50:19.281Z</time>
      </trkpt>
      <trkpt lat="47.47981" lon="6.7338">
        <ele>320.78</ele>
        <time>2016-06-04T12:50:20.281Z</time>
      </trkpt>
      <trkpt lat="47.47982" lon="6.7338">
        <ele>320.783</ele>
        <time>2016-06-04T12:50:21.281Z</time>
      </trkpt>
      <trkpt lat="47.47982" lon="6.7338">
        <ele>320.785</ele>
        <time>2016-06-04T12:50:22.281Z</time>
      </trkpt>
      <trkpt lat="47.47982" lon="6.7338">
        <ele>320.788</ele>
        <time>2016-06-04T12:50:23.281Z</time>
      </trkpt>
      <trkpt lat="47.47982" lon="6.7338">
        <ele>320.79</ele>
        <time>2016-06-04T12:50:24.281Z</time>
      </trkpt>
      <trkpt lat="47.47982" lon="6.7338">
        <ele>320.792</ele>
        <time>2016-06-04T12:50:25.281Z</time>
      </trkpt>
      <trkpt lat="47.47982" lon="6.7338">
        <ele>320.794</ele>
        <time>2016-06-04T12:50:26.281Z</time>
      </trkpt>
      <trkpt lat="47.47982" lon="6.7338">
        <ele>320.797</ele>
        <time>2016-06-04T12:50:27.281Z</time>
      </trkpt>
      <trkpt lat="47.47982" lon="6.7338">
        <ele>320.799</ele>
        <time>2016-06-04T12:50:28.281Z</time>
      </trkpt>
      <trkpt lat="47.47982" lon="6.7338">
        <ele>320.801</ele>
        <time>2016-06-04T12:50:29.281Z</time>
      </trkpt>
      <trkpt lat="47.47982" lon="6.7338">
        <ele>320.803</ele>
        <time>2016-06-04T12:50:30.281Z</time>
      </trkpt>
      <trkpt lat="47.47982" lon="6.7338">
        <ele>320.806</ele>
        <time>2016-06-04T12:50:31.281Z</time>
      </trkpt>
      <trkpt lat="47.47982" lon="6.7338">
        <ele>320.808</ele>
        <time>2016-06-04T12:50:32.281Z</time>
      </trkpt>
      <trkpt lat="47.47982" lon="6.7338">
        <ele>320.811</ele>
        <time>2016-06-04T12:50:33.281Z</time>
      </trkpt>
      <trkpt lat="47.47982" lon="6.7338">
        <ele>320.813</ele>
        <time>2016-06-04T12:50:34.281Z</time>
      </trkpt>
      <trkpt lat="47.47982" lon="6.7338">
        <ele>320.816</ele>
        <time>2016-06-04T12:50:35.281Z</time>
      </trkpt>
      <trkpt lat="47.47982" lon="6.7338">
        <ele>320.819</ele>
        <time>2016-06-04T12:50:36.281Z</time>
      </trkpt>
      <trkpt lat="47.47982" lon="6.7338">
        <ele>320.821</ele>
        <time>2016-06-04T12:50:37.281Z</time>
      </trkpt>
      <trkpt lat="47.47982" lon="6.7338">
        <ele>320.824</ele>
        <time>2016-06-04T12:50:38.281Z</time>
      </trkpt>
      <trkpt lat="47.47982" lon="6.7338">
        <ele>320.827</ele>
        <time>2016-06-04T12:50:39.281Z</time>
      </trkpt>
      <trkpt lat="47.47982" lon="6.7338">
        <ele>320.829</ele>
        <time>2016-06-04T12:50:40.281Z</time>
      </trkpt>
      <trkpt lat="47.47982" lon="6.7338">
        <ele>320.832</ele>
        <time>2016-06-04T12:50:41.281Z</time>
      </trkpt>
      <trkpt lat="47.47982" lon="6.7338">
        <ele>320.834</ele>
        <time>2016-06-04T12:50:42.281Z</time>
      </trkpt>
      <trkpt lat="47.47982" lon="6.7338">
        <ele>320.836</ele>
        <time>2016-06-04T12:50:43.281Z</time>
      </trkpt>
      <trkpt lat="47.47982" lon="6.7338">
        <ele>320.838</ele>
        <time>2016-06-04T12:50:44.281Z</time>
      </trkpt>
      <trkpt lat="47.47982" lon="6.7338">
        <ele>320.839</ele>
        <time>2016-06-04T12:50:45.281Z</time>
      </trkpt>
      <trkpt lat="47.47982" lon="6.7338">
        <ele>320.839</ele>
        <time>2016-06-04T12:50:46.281Z</time>
      </trkpt>
      <trkpt lat="47.47982" lon="6.7338">
        <ele>320.839</ele>
        <time>2016-06-04T12:50:47.281Z</time>
      </trkpt>
      <trkpt lat="47.47982" lon="6.7338">
        <ele>320.838</ele>
        <time>2016-06-04T12:50:48.281Z</time>
      </trkpt>
      <trkpt lat="47.47982" lon="6.7338">
        <ele>320.835</ele>
        <time>2016-06-04T12:50:49.281Z</time>
      </trkpt>
      <trkpt lat="47.47982" lon="6.73379">
        <ele>320.831</ele>
        <time>2016-06-04T12:50:50.281Z</time>
      </trkpt>
      <trkpt lat="47.47982" lon="6.73379">
        <ele>320.826</ele>
        <time>2016-06-04T12:50:51.281Z</time>
      </trkpt>
      <trkpt lat="47.47982" lon="6.73379">
        <ele>320.819</ele>
        <time>2016-06-04T12:50:52.281Z</time>
      </trkpt>
      <trkpt lat="47.47982" lon="6.73379">
        <ele>320.809</ele>
        <time>2016-06-04T12:50:53.281Z</time>
      </trkpt>
      <trkpt lat="47.47982" lon="6.73379">
        <ele>320.798</ele>
        <time>2016-06-04T12:50:54.281Z</time>
      </trkpt>
      <trkpt lat="47.47982" lon="6.73379">
        <ele>320.783</ele>
        <time>2016-06-04T12:50:55.281Z</time>
      </trkpt>
      <trkpt lat="47.47982" lon="6.73379">
        <ele>320.766</ele>
        <time>2016-06-04T12:50:56.281Z</time>
      </trkpt>
      <trkpt lat="47.47982" lon="6.73379">
        <ele>320.744</ele>
        <time>2016-06-04T12:50:57.281Z</time>
      </trkpt>
      <trkpt lat="47.47982" lon="6.73379">
        <ele>320.72</ele>
        <time>2016-06-04T12:50:58.281Z</time>
      </trkpt>
      <trkpt lat="47.47982" lon="6.73379">
        <ele>320.691</ele>
        <time>2016-06-04T12:50:59.281Z</time>
      </trkpt>
      <trkpt lat="47.47982" lon="6.73379">
        <ele>320.657</ele>
        <time>2016-06-04T12:51:00.281Z</time>
      </trkpt>
      <trkpt lat="47.47982" lon="6.73379">
        <ele>320.619</ele>
        <time>2016-06-04T12:51:01.281Z</time>
      </trkpt>
      <trkpt lat="47.47982" lon="6.73379">
        <ele>320.576</ele>
        <time>2016-06-04T12:51:02.281Z</time>
      </trkpt>
      <trkpt lat="47.47982" lon="6.73379">
        <ele>320.527</ele>
        <time>2016-06-04T12:51:03.281Z</time>
      </trkpt>
      <trkpt lat="47.47982" lon="6.73379">
        <ele>320.472</ele>
        <time>2016-06-04T12:51:04.281Z</time>
      </trkpt>
      <trkpt lat="47.47982" lon="6.73379">
        <ele>320.411</ele>
        <time>2016-06-04T12:51:05.281Z</time>
      </trkpt>
      <trkpt lat="47.47982" lon="6.73379">
        <ele>320.345</ele>
        <time>2016-06-04T12:51:06.281Z</time>
      </trkpt>
      <trkpt lat="47.47982" lon="6.73379">
        <ele>320.272</ele>
        <time>2016-06-04T12:51:07.281Z</time>
      </trkpt>
      <trkpt lat="47.47982" lon="6.73379">
        <ele>320.193</ele>
        <time>2016-06-04T12:51:08.281Z</time>
      </trkpt>
      <trkpt lat="47.47982" lon="6.73379">
        <ele>320.108</ele>
        <time>2016-06-04T12:51:09.281Z</time>
      </trkpt>
      <trkpt lat="47.47982" lon="6.73379">
        <ele>320.017</ele>
        <time>2016-06-04T12:51:10.281Z</time>
      </trkpt>
      <trkpt lat="47.47982" lon="6.73379">
        <ele>319.921</ele>
        <time>2016-06-04T12:51:11.281Z</time>
      </trkpt>
      <trkpt lat="47.47982" lon="6.73379">
        <ele>319.82</ele>
        <time>2016-06-04T12:51:12.281Z</time>
      </trkpt>
      <trkpt lat="47.47982" lon="6.73379">
        <ele>319.715</ele>
        <time>2016-06-04T12:51:13.281Z</time>
      </trkpt>
      <trkpt lat="47.47982" lon="6.73379">
        <ele>319.608</ele>
        <time>2016-06-04T12:51:14.281Z</time>
      </trkpt>
      <trkpt lat="47.47982" lon="6.73379">
        <ele>319.5</ele>
        <time>2016-06-04T12:51:15.281Z</time>
      </trkpt>
      <trkpt lat="47.47982" lon="6.73379">
        <ele>319.392</ele>
        <time>2016-06-04T12:51:16.281Z</time>
      </trkpt>
      <trkpt lat="47.47982" lon="6.73379">
        <ele>319.287</ele>
        <time>2016-06-04T12:51:17.281Z</time>
      </trkpt>
      <trkpt lat="47.47982" lon="6.73378">
        <ele>319.188</ele>
        <time>2016-06-04T12:51:18.281Z</time>
      </trkpt>
      <trkpt lat="47.47982" lon="6.73377">
        <ele>319.097</ele>
        <time>2016-06-04T12:51:19.281Z</time>
      </trkpt>
      <trkpt lat="47.47982" lon="6.73376">
        <ele>319.017</ele>
        <time>2016-06-04T12:51:20.281Z</time>
      </trkpt>
      <trkpt lat="47.47982" lon="6.73375">
        <ele>318.951</ele>
        <time>2016-06-04T12:51:21.281Z</time>
      </trkpt>
      <trkpt lat="47.47982" lon="6.73375">
        <ele>318.902</ele>
        <time>2016-06-04T12:51:22.281Z</time>
      </trkpt>
      <trkpt lat="47.47983" lon="6.73374">
        <ele>318.874</ele>
        <time>2016-06-04T12:51:23.281Z</time>
      </trkpt>
      <trkpt lat="47.47983" lon="6.73373">
        <ele>318.87</ele>
        <time>2016-06-04T12:51:24.281Z</time>
      </trkpt>
      <trkpt lat="47.47983" lon="6.73373">
        <ele>318.891</ele>
        <time>2016-06-04T12:51:25.281Z</time>
      </trkpt>
      <trkpt lat="47.47983" lon="6.73373">
        <ele>318.94</ele>
        <time>2016-06-04T12:51:26.281Z</time>
      </trkpt>
      <trkpt lat="47.47982" lon="6.73373">
        <ele>319.018</ele>
        <time>2016-06-04T12:51:27.281Z</time>
      </trkpt>
      <trkpt lat="47.47982" lon="6.73373">
        <ele>319.127</ele>
        <time>2016-06-04T12:51:28.281Z</time>
      </trkpt>
      <trkpt lat="47.47981" lon="6.73374">
        <ele>319.267</ele>
        <time>2016-06-04T12:51:29.281Z</time>
      </trkpt>
      <trkpt lat="47.47981" lon="6.73374">
        <ele>319.437</ele>
        <time>2016-06-04T12:51:30.281Z</time>
      </trkpt>
      <trkpt lat="47.4798" lon="6.73375">
        <ele>319.636</ele>
        <time>2016-06-04T12:51:31.281Z</time>
      </trkpt>
      <trkpt lat="47.4798" lon="6.73375">
        <ele>319.861</ele>
        <time>2016-06-04T12:51:32.281Z</time>
      </trkpt>
      <trkpt lat="47.4798" lon="6.73376">
        <ele>320.11</ele>
        <time>2016-06-04T12:51:33.281Z</time>
      </trkpt>
      <trkpt lat="47.4798" lon="6.73376">
        <ele>320.379</ele>
        <time>2016-06-04T12:51:34.281Z</time>
      </trkpt>
      <trkpt lat="47.4798" lon="6.73377">
        <ele>320.666</ele>
        <time>2016-06-04T12:51:35.281Z</time>
      </trkpt>
      <trkpt lat="47.4798" lon="6.73377">
        <ele>320.969</ele>
        <time>2016-06-04T12:51:36.281Z</time>
      </trkpt>
      <trkpt lat="47.47981" lon="6.73378">
        <ele>321.286</ele>
        <time>2016-06-04T12:51:37.281Z</time>
      </trkpt>
      <trkpt lat="47.47981" lon="6.7338">
        <ele>321.616</ele>
        <time>2016-06-04T12:51:38.281Z</time>
      </trkpt>
      <trkpt lat="47.47982" lon="6.73381">
        <ele>321.956</ele>
        <time>2016-06-04T12:51:39.281Z</time>
      </trkpt>
      <trkpt lat="47.47983" lon="6.73383">
        <ele>322.305</ele>
        <time>2016-06-04T12:51:40.281Z</time>
      </trkpt>
      <trkpt lat="47.47984" lon="6.73385">
        <ele>322.662</ele>
        <time>2016-06-04T12:51:41.281Z</time>
      </trkpt>
      <trkpt lat="47.47985" lon="6.73387">
        <ele>323.022</ele>
        <time>2016-06-04T12:51:42.281Z</time>
      </trkpt>
      <trkpt lat="47.47986" lon="6.7339">
        <ele>323.384</ele>
        <time>2016-06-04T12:51:43.281Z</time>
      </trkpt>
      <trkpt lat="47.47987" lon="6.73393">
        <ele>323.745</ele>
        <time>2016-06-04T12:51:44.281Z</time>
      </trkpt>
      <trkpt lat="47.47989" lon="6.73396">
        <ele>324.099</ele>
        <time>2016-06-04T12:51:45.281Z</time>
      </trkpt>
      <trkpt lat="47.4799" lon="6.734">
        <ele>324.444</ele>
        <time>2016-06-04T12:51:46.281Z</time>
      </trkpt>
      <trkpt lat="47.47991" lon="6.73404">
        <ele>324.775</ele>
        <time>2016-06-04T12:51:47.281Z</time>
      </trkpt>
      <trkpt lat="47.47992" lon="6.73409">
        <ele>325.087</ele>
        <time>2016-06-04T12:51:48.281Z</time>
      </trkpt>
      <trkpt lat="47.47993" lon="6.73413">
        <ele>325.377</ele>
        <time>2016-06-04T12:51:49.281Z</time>
      </trkpt>
      <trkpt lat="47.47995" lon="6.73418">
        <ele>325.64</ele>
        <time>2016-06-04T12:51:50.281Z</time>
      </trkpt>
      <trkpt lat="47.47996" lon="6.73423">
        <ele>325.872</ele>
        <time>2016-06-04T12:51:51.281Z</time>
      </trkpt>
      <trkpt lat="47.47997" lon="6.73428">
        <ele>326.068</ele>
        <time>2016-06-04T12:51:52.281Z</time>
      </trkpt>
      <trkpt lat="47.47999" lon="6.73433">
        <ele>326.224</ele>
        <time>2016-06-04T12:51:53.281Z</time>
      </trkpt>
      <trkpt lat="47.48001" lon="6.73439">
        <ele>326.336</ele>
        <time>2016-06-04T12:51:54.281Z</time>
      </trkpt>
      <trkpt lat="47.48002" lon="6.73444">
        <ele>326.399</ele>
        <time>2016-06-04T12:51:55.281Z</time>
      </trkpt>
      <trkpt lat="47.48004" lon="6.7345">
        <ele>326.411</ele>
        <time>2016-06-04T12:51:56.281Z</time>
      </trkpt>
      <trkpt lat="47.48006" lon="6.73455">
        <ele>326.369</ele>
        <time>2016-06-04T12:51:57.281Z</time>
      </trkpt>
      <trkpt lat="47.48007" lon="6.73462">
        <ele>326.271</ele>
        <time>2016-06-04T12:51:58.281Z</time>
      </trkpt>
      <trkpt lat="47.48009" lon="6.73468">
        <ele>326.117</ele>
        <time>2016-06-04T12:51:59.281Z</time>
      </trkpt>
      <trkpt lat="47.4801" lon="6.73475">
        <ele>325.906</ele>
        <time>2016-06-04T12:52:00.281Z</time>
      </trkpt>
      <trkpt lat="47.48012" lon="6.73482">
        <ele>325.642</ele>
        <time>2016-06-04T12:52:01.281Z</time>
      </trkpt>
      <trkpt lat="47.48013" lon="6.7349">
        <ele>325.329</ele>
        <time>2016-06-04T12:52:02.281Z</time>
      </trkpt>
      <trkpt lat="47.48015" lon="6.73498">
        <ele>324.971</ele>
        <time>2016-06-04T12:52:03.281Z</time>
      </trkpt>
      <trkpt lat="47.48016" lon="6.73504">
        <ele>324.574</ele>
        <time>2016-06-04T12:52:04.281Z</time>
      </trkpt>
      <trkpt lat="47.48018" lon="6.73509">
        <ele>324.146</ele>
        <time>2016-06-04T12:52:05.281Z</time>
      </trkpt>
      <trkpt lat="47.48019" lon="6.73514">
        <ele>323.691</ele>
        <time>2016-06-04T12:52:06.281Z</time>
      </trkpt>
      <trkpt lat="47.4802" lon="6.7352">
        <ele>323.217</ele>
        <time>2016-06-04T12:52:07.281Z</time>
      </trkpt>
      <trkpt lat="47.48021" lon="6.73527">
        <ele>322.73</ele>
        <time>2016-06-04T12:52:08.281Z</time>
      </trkpt>
      <trkpt lat="47.48022" lon="6.73533">
        <ele>322.237</ele>
        <time>2016-06-04T12:52:09.281Z</time>
      </trkpt>
      <trkpt lat="47.48023" lon="6.7354">
        <ele>321.744</ele>
        <time>2016-06-04T12:52:10.281Z</time>
      </trkpt>
      <trkpt lat="47.48023" lon="6.73548">
        <ele>321.256</ele>
        <time>2016-06-04T12:52:11.281Z</time>
      </trkpt>
      <trkpt lat="47.48024" lon="6.73557">
        <ele>320.779</ele>
        <time>2016-06-04T12:52:12.281Z</time>
      </trkpt>
      <trkpt lat="47.48025" lon="6.73564">
        <ele>320.317</ele>
        <time>2016-06-04T12:52:13.281Z</time>
      </trkpt>
      <trkpt lat="47.48026" lon="6.73569">
        <ele>319.875</ele>
        <time>2016-06-04T12:52:14.281Z</time>
      </trkpt>
      <trkpt lat="47.48028" lon="6.73575">
        <ele>319.457</ele>
        <time>2016-06-04T12:52:15.281Z</time>
      </trkpt>
      <trkpt lat="47.48029" lon="6.73582">
        <ele>319.068</ele>
        <time>2016-06-04T12:52:16.281Z</time>
      </trkpt>
      <trkpt lat="47.4803" lon="6.73589">
        <ele>318.708</ele>
        <time>2016-06-04T12:52:17.281Z</time>
      </trkpt>
      <trkpt lat="47.48031" lon="6.73595">
        <ele>318.381</ele>
        <time>2016-06-04T12:52:18.281Z</time>
      </trkpt>
      <trkpt lat="47.48031" lon="6.736">
        <ele>318.084</ele>
        <time>2016-06-04T12:52:19.281Z</time>
      </trkpt>
      <trkpt lat="47.48032" lon="6.73605">
        <ele>317.819</ele>
        <time>2016-06-04T12:52:20.281Z</time>
      </trkpt>
      <trkpt lat="47.48032" lon="6.73611">
        <ele>317.582</ele>
        <time>2016-06-04T12:52:21.281Z</time>
      </trkpt>
      <trkpt lat="47.48033" lon="6.73618">
        <ele>317.372</ele>
        <time>2016-06-04T12:52:22.281Z</time>
      </trkpt>
      <trkpt lat="47.48033" lon="6.73624">
        <ele>317.187</ele>
        <time>2016-06-04T12:52:23.281Z</time>
      </trkpt>
      <trkpt lat="47.48034" lon="6.7363">
        <ele>317.026</ele>
        <time>2016-06-04T12:52:24.281Z</time>
      </trkpt>
      <trkpt lat="47.48035" lon="6.73637">
        <ele>316.886</ele>
        <time>2016-06-04T12:52:25.281Z</time>
      </trkpt>
      <trkpt lat="47.48036" lon="6.73644">
        <ele>316.766</ele>
        <time>2016-06-04T12:52:26.281Z</time>
      </trkpt>
      <trkpt lat="47.48037" lon="6.73652">
        <ele>316.666</ele>
        <time>2016-06-04T12:52:27.281Z</time>
      </trkpt>
      <trkpt lat="47.48037" lon="6.7366">
        <ele>316.584</ele>
        <time>2016-06-04T12:52:28.281Z</time>
      </trkpt>
      <trkpt lat="47.48038" lon="6.73667">
        <ele>316.516</ele>
        <time>2016-06-04T12:52:29.281Z</time>
      </trkpt>
      <trkpt lat="47.48038" lon="6.73675">
        <ele>316.462</ele>
        <time>2016-06-04T12:52:30.281Z</time>
      </trkpt>
      <trkpt lat="47.48038" lon="6.73682">
        <ele>316.418</ele>
        <time>2016-06-04T12:52:31.281Z</time>
      </trkpt>
      <trkpt lat="47.48039" lon="6.7369">
        <ele>316.382</ele>
        <time>2016-06-04T12:52:32.281Z</time>
      </trkpt>
      <trkpt lat="47.48039" lon="6.73697">
        <ele>316.35</ele>
        <time>2016-06-04T12:52:33.281Z</time>
      </trkpt>
      <trkpt lat="47.48039" lon="6.73704">
        <ele>316.32</ele>
        <time>2016-06-04T12:52:34.281Z</time>
      </trkpt>
      <trkpt lat="47.48039" lon="6.7371">
        <ele>316.289</ele>
        <time>2016-06-04T12:52:35.281Z</time>
      </trkpt>
      <trkpt lat="47.4804" lon="6.73716">
        <ele>316.254</ele>
        <time>2016-06-04T12:52:36.281Z</time>
      </trkpt>
      <trkpt lat="47.4804" lon="6.73723">
        <ele>316.213</ele>
        <time>2016-06-04T12:52:37.281Z</time>
      </trkpt>
      <trkpt lat="47.48041" lon="6.73729">
        <ele>316.163</ele>
        <time>2016-06-04T12:52:38.281Z</time>
      </trkpt>
      <trkpt lat="47.48041" lon="6.73735">
        <ele>316.104</ele>
        <time>2016-06-04T12:52:39.281Z</time>
      </trkpt>
      <trkpt lat="47.48041" lon="6.73743">
        <ele>316.036</ele>
        <time>2016-06-04T12:52:40.281Z</time>
      </trkpt>
      <trkpt lat="47.48041" lon="6.7375">
        <ele>315.956</ele>
        <time>2016-06-04T12:52:41.281Z</time>
      </trkpt>
      <trkpt lat="47.48042" lon="6.73757">
        <ele>315.863</ele>
        <time>2016-06-04T12:52:42.281Z</time>
      </trkpt>
      <trkpt lat="47.48042" lon="6.73764">
        <ele>315.758</ele>
        <time>2016-06-04T12:52:43.281Z</time>
      </trkpt>
      <trkpt lat="47.48042" lon="6.7377">
        <ele>315.641</ele>
        <time>2016-06-04T12:52:44.281Z</time>
      </trkpt>
      <trkpt lat="47.48041" lon="6.73777">
        <ele>315.511</ele>
        <time>2016-06-04T12:52:45.281Z</time>
      </trkpt>
      <trkpt lat="47.48041" lon="6.73784">
        <ele>315.37</ele>
        <time>2016-06-04T12:52:46.281Z</time>
      </trkpt>
      <trkpt lat="47.4804" lon="6.73793">
        <ele>315.221</ele>
        <time>2016-06-04T12:52:47.281Z</time>
      </trkpt>
      <trkpt lat="47.48038" lon="6.73801">
        <ele>315.065</ele>
        <time>2016-06-04T12:52:48.281Z</time>
      </trkpt>
      <trkpt lat="47.48037" lon="6.73809">
        <ele>314.904</ele>
        <time>2016-06-04T12:52:49.281Z</time>
      </trkpt>
      <trkpt lat="47.48036" lon="6.73816">
        <ele>314.74</ele>
        <time>2016-06-04T12:52:50.281Z</time>
      </trkpt>
      <trkpt lat="47.48035" lon="6.73824">
        <ele>314.577</ele>
        <time>2016-06-04T12:52:51.281Z</time>
      </trkpt>
      <trkpt lat="47.48033" lon="6.73832">
        <ele>314.416</ele>
        <time>2016-06-04T12:52:52.281Z</time>
      </trkpt>
      <trkpt lat="47.48032" lon="6.73839">
        <ele>314.259</ele>
        <time>2016-06-04T12:52:53.281Z</time>
      </trkpt>
      <trkpt lat="47.48031" lon="6.73845">
        <ele>314.108</ele>
        <time>2016-06-04T12:52:54.281Z</time>
      </trkpt>
      <trkpt lat="47.4803" lon="6.7385">
        <ele>313.964</ele>
        <time>2016-06-04T12:52:55.281Z</time>
      </trkpt>
      <trkpt lat="47.48029" lon="6.73856">
        <ele>313.83</ele>
        <time>2016-06-04T12:52:56.281Z</time>
      </trkpt>
      <trkpt lat="47.48028" lon="6.73863">
        <ele>313.708</ele>
        <time>2016-06-04T12:52:57.281Z</time>
      </trkpt>
      <trkpt lat="47.48027" lon="6.73871">
        <ele>313.601</ele>
        <time>2016-06-04T12:52:58.281Z</time>
      </trkpt>
      <trkpt lat="47.48026" lon="6.73878">
        <ele>313.511</ele>
        <time>2016-06-04T12:52:59.281Z</time>
      </trkpt>
      <trkpt lat="47.48025" lon="6.73885">
        <ele>313.441</ele>
        <time>2016-06-04T12:53:00.281Z</time>
      </trkpt>
      <trkpt lat="47.48024" lon="6.73892">
        <ele>313.393</ele>
        <time>2016-06-04T12:53:01.281Z</time>
      </trkpt>
      <trkpt lat="47.48023" lon="6.73898">
        <ele>313.369</ele>
        <time>2016-06-04T12:53:02.281Z</time>
      </trkpt>
      <trkpt lat="47.48023" lon="6.73905">
        <ele>313.374</ele>
        <time>2016-06-04T12:53:03.281Z</time>
      </trkpt>
      <trkpt lat="47.48023" lon="6.73913">
        <ele>313.41</ele>
        <time>2016-06-04T12:53:04.281Z</time>
      </trkpt>
      <trkpt lat="47.48022" lon="6.73921">
        <ele>313.479</ele>
        <time>2016-06-04T12:53:05.281Z</time>
      </trkpt>
      <trkpt lat="47.48022" lon="6.73929">
        <ele>313.581</ele>
        <time>2016-06-04T12:53:06.281Z</time>
      </trkpt>
      <trkpt lat="47.48022" lon="6.73935">
        <ele>313.716</ele>
        <time>2016-06-04T12:53:07.281Z</time>
      </trkpt>
      <trkpt lat="47.48022" lon="6.73942">
        <ele>313.882</ele>
        <time>2016-06-04T12:53:08.281Z</time>
      </trkpt>
      <trkpt lat="47.48022" lon="6.73949">
        <ele>314.075</ele>
        <time>2016-06-04T12:53:09.281Z</time>
      </trkpt>
      <trkpt lat="47.48022" lon="6.73957">
        <ele>314.293</ele>
        <time>2016-06-04T12:53:10.281Z</time>
      </trkpt>
      <trkpt lat="47.48022" lon="6.73965">
        <ele>314.531</ele>
        <time>2016-06-04T12:53:11.281Z</time>
      </trkpt>
      <trkpt lat="47.48022" lon="6.73973">
        <ele>314.786</ele>
        <time>2016-06-04T12:53:12.281Z</time>
      </trkpt>
      <trkpt lat="47.48021" lon="6.7398">
        <ele>315.054</ele>
        <time>2016-06-04T12:53:13.281Z</time>
      </trkpt>
      <trkpt lat="47.4802" lon="6.73987">
        <ele>315.33</ele>
        <time>2016-06-04T12:53:14.281Z</time>
      </trkpt>
      <trkpt lat="47.48019" lon="6.73994">
        <ele>315.613</ele>
        <time>2016-06-04T12:53:15.281Z</time>
      </trkpt>
      <trkpt lat="47.48018" lon="6.74001">
        <ele>315.899</ele>
        <time>2016-06-04T12:53:16.281Z</time>
      </trkpt>
      <trkpt lat="47.48017" lon="6.74007">
        <ele>316.186</ele>
        <time>2016-06-04T12:53:17.281Z</time>
      </trkpt>
      <trkpt lat="47.48016" lon="6.74014">
        <ele>316.475</ele>
        <time>2016-06-04T12:53:18.281Z</time>
      </trkpt>
      <trkpt lat="47.48015" lon="6.74021">
        <ele>316.764</ele>
        <time>2016-06-04T12:53:19.281Z</time>
      </trkpt>
      <trkpt lat="47.48014" lon="6.74028">
        <ele>317.052</ele>
        <time>2016-06-04T12:53:20.281Z</time>
      </trkpt>
      <trkpt lat="47.48014" lon="6.74034">
        <ele>317.34</ele>
        <time>2016-06-04T12:53:21.281Z</time>
      </trkpt>
      <trkpt lat="47.48014" lon="6.74041">
        <ele>317.626</ele>
        <time>2016-06-04T12:53:22.281Z</time>
      </trkpt>
      <trkpt lat="47.48013" lon="6.74049">
        <ele>317.912</ele>
        <time>2016-06-04T12:53:23.281Z</time>
      </trkpt>
      <trkpt lat="47.48013" lon="6.74058">
        <ele>318.196</ele>
        <time>2016-06-04T12:53:24.281Z</time>
      </trkpt>
      <trkpt lat="47.48012" lon="6.74067">
        <ele>318.478</ele>
        <time>2016-06-04T12:53:25.281Z</time>
      </trkpt>
      <trkpt lat="47.48012" lon="6.74074">
        <ele>318.757</ele>
        <time>2016-06-04T12:53:26.281Z</time>
      </trkpt>
      <trkpt lat="47.48011" lon="6.7408">
        <ele>319.033</ele>
        <time>2016-06-04T12:53:27.281Z</time>
      </trkpt>
      <trkpt lat="47.4801" lon="6.74086">
        <ele>319.302</ele>
        <time>2016-06-04T12:53:28.281Z</time>
      </trkpt>
      <trkpt lat="47.48009" lon="6.74092">
        <ele>319.563</ele>
        <time>2016-06-04T12:53:29.281Z</time>
      </trkpt>
      <trkpt lat="47.48008" lon="6.74097">
        <ele>319.813</ele>
        <time>2016-06-04T12:53:30.281Z</time>
      </trkpt>
      <trkpt lat="47.48007" lon="6.74101">
        <ele>320.046</ele>
        <time>2016-06-04T12:53:31.281Z</time>
      </trkpt>
      <trkpt lat="47.48006" lon="6.74108">
        <ele>320.258</ele>
        <time>2016-06-04T12:53:32.281Z</time>
      </trkpt>
      <trkpt lat="47.48005" lon="6.74117">
        <ele>320.446</ele>
        <time>2016-06-04T12:53:33.281Z</time>
      </trkpt>
      <trkpt lat="47.48005" lon="6.74126">
        <ele>320.608</ele>
        <time>2016-06-04T12:53:34.281Z</time>
      </trkpt>
      <trkpt lat="47.48004" lon="6.74135">
        <ele>320.744</ele>
        <time>2016-06-04T12:53:35.281Z</time>
      </trkpt>
      <trkpt lat="47.48004" lon="6.74143">
        <ele>320.855</ele>
        <time>2016-06-04T12:53:36.281Z</time>
      </trkpt>
      <trkpt lat="47.48005" lon="6.74151">
        <ele>320.942</ele>
        <time>2016-06-04T12:53:37.281Z</time>
      </trkpt>
      <trkpt lat="47.48006" lon="6.74158">
        <ele>321.007</ele>
        <time>2016-06-04T12:53:38.281Z</time>
      </trkpt>
      <trkpt lat="47.48007" lon="6.74164">
        <ele>321.051</ele>
        <time>2016-06-04T12:53:39.281Z</time>
      </trkpt>
      <trkpt lat="47.48008" lon="6.74172">
        <ele>321.074</ele>
        <time>2016-06-04T12:53:40.281Z</time>
      </trkpt>
      <trkpt lat="47.48008" lon="6.7418">
        <ele>321.078</ele>
        <time>2016-06-04T12:53:41.281Z</time>
      </trkpt>
      <trkpt lat="47.48008" lon="6.74187">
        <ele>321.062</ele>
        <time>2016-06-04T12:53:42.281Z</time>
      </trkpt>
      <trkpt lat="47.48009" lon="6.74193">
        <ele>321.028</ele>
        <time>2016-06-04T12:53:43.281Z</time>
      </trkpt>
      <trkpt lat="47.48009" lon="6.74198">
        <ele>320.978</ele>
        <time>2016-06-04T12:53:44.281Z</time>
      </trkpt>
      <trkpt lat="47.48008" lon="6.74203">
        <ele>320.911</ele>
        <time>2016-06-04T12:53:45.281Z</time>
      </trkpt>
      <trkpt lat="47.48008" lon="6.74208">
        <ele>320.829</ele>
        <time>2016-06-04T12:53:46.281Z</time>
      </trkpt>
      <trkpt lat="47.48009" lon="6.74214">
        <ele>320.732</ele>
        <time>2016-06-04T12:53:47.281Z</time>
      </trkpt>
      <trkpt lat="47.48011" lon="6.7422">
        <ele>320.623</ele>
        <time>2016-06-04T12:53:48.281Z</time>
      </trkpt>
      <trkpt lat="47.48013" lon="6.74226">
        <ele>320.503</ele>
        <time>2016-06-04T12:53:49.281Z</time>
      </trkpt>
      <trkpt lat="47.48015" lon="6.74232">
        <ele>320.377</ele>
        <time>2016-06-04T12:53:50.281Z</time>
      </trkpt>
      <trkpt lat="47.48016" lon="6.7424">
        <ele>320.248</ele>
        <time>2016-06-04T12:53:51.281Z</time>
      </trkpt>
      <trkpt lat="47.48018" lon="6.74247">
        <ele>320.12</ele>
        <time>2016-06-04T12:53:52.281Z</time>
      </trkpt>
      <trkpt lat="47.48019" lon="6.74255">
        <ele>319.994</ele>
        <time>2016-06-04T12:53:53.281Z</time>
      </trkpt>
      <trkpt lat="47.48021" lon="6.74262">
        <ele>319.873</ele>
        <time>2016-06-04T12:53:54.281Z</time>
      </trkpt>
      <trkpt lat="47.48022" lon="6.7427">
        <ele>319.758</ele>
        <time>2016-06-04T12:53:55.281Z</time>
      </trkpt>
      <trkpt lat="47.48023" lon="6.74277">
        <ele>319.651</ele>
        <time>2016-06-04T12:53:56.281Z</time>
      </trkpt>
      <trkpt lat="47.48025" lon="6.74284">
        <ele>319.552</ele>
        <time>2016-06-04T12:53:57.281Z</time>
      </trkpt>
      <trkpt lat="47.48027" lon="6.74291">
        <ele>319.462</ele>
        <time>2016-06-04T12:53:58.281Z</time>
      </trkpt>
      <trkpt lat="47.48029" lon="6.74299">
        <ele>319.38</ele>
        <time>2016-06-04T12:53:59.281Z</time>
      </trkpt>
      <trkpt lat="47.48031" lon="6.74307">
        <ele>319.305</ele>
        <time>2016-06-04T12:54:00.281Z</time>
      </trkpt>
      <trkpt lat="47.48033" lon="6.74314">
        <ele>319.236</ele>
        <time>2016-06-04T12:54:01.281Z</time>
      </trkpt>
      <trkpt lat="47.48035" lon="6.74321">
        <ele>319.172</ele>
        <time>2016-06-04T12:54:02.281Z</time>
      </trkpt>
      <trkpt lat="47.48037" lon="6.74329">
        <ele>319.112</ele>
        <time>2016-06-04T12:54:03.281Z</time>
      </trkpt>
      <trkpt lat="47.48039" lon="6.74336">
        <ele>319.054</ele>
        <time>2016-06-04T12:54:04.281Z</time>
      </trkpt>
      <trkpt lat="47.4804" lon="6.74344">
        <ele>318.999</ele>
        <time>2016-06-04T12:54:05.281Z</time>
      </trkpt>
      <trkpt lat="47.48042" lon="6.74352">
        <ele>318.947</ele>
        <time>2016-06-04T12:54:06.281Z</time>
      </trkpt>
      <trkpt lat="47.48044" lon="6.7436">
        <ele>318.897</ele>
        <time>2016-06-04T12:54:07.281Z</time>
      </trkpt>
      <trkpt lat="47.48046" lon="6.74368">
        <ele>318.849</ele>
        <time>2016-06-04T12:54:08.281Z</time>
      </trkpt>
      <trkpt lat="47.48047" lon="6.74376">
        <ele>318.803</ele>
        <time>2016-06-04T12:54:09.281Z</time>
      </trkpt>
      <trkpt lat="47.48049" lon="6.74384">
        <ele>318.757</ele>
        <time>2016-06-04T12:54:10.281Z</time>
      </trkpt>
      <trkpt lat="47.4805" lon="6.74392">
        <ele>318.714</ele>
        <time>2016-06-04T12:54:11.281Z</time>
      </trkpt>
      <trkpt lat="47.48052" lon="6.744">
        <ele>318.672</ele>
        <time>2016-06-04T12:54:12.281Z</time>
      </trkpt>
      <trkpt lat="47.48053" lon="6.74408">
        <ele>318.631</ele>
        <time>2016-06-04T12:54:13.281Z</time>
      </trkpt>
      <trkpt lat="47.48054" lon="6.74415">
        <ele>318.592</ele>
        <time>2016-06-04T12:54:14.281Z</time>
      </trkpt>
      <trkpt lat="47.48055" lon="6.74423">
        <ele>318.553</ele>
        <time>2016-06-04T12:54:15.281Z</time>
      </trkpt>
      <trkpt lat="47.48057" lon="6.74429">
        <ele>318.516</ele>
        <time>2016-06-04T12:54:16.281Z</time>
      </trkpt>
      <trkpt lat="47.48058" lon="6.74435">
        <ele>318.481</ele>
        <time>2016-06-04T12:54:17.281Z</time>
      </trkpt>
      <trkpt lat="47.48059" lon="6.74443">
        <ele>318.449</ele>
        <time>2016-06-04T12:54:18.281Z</time>
      </trkpt>
      <trkpt lat="47.48059" lon="6.74451">
        <ele>318.42</ele>
        <time>2016-06-04T12:54:19.281Z</time>
      </trkpt>
      <trkpt lat="47.48059" lon="6.74459">
        <ele>318.393</ele>
        <time>2016-06-04T12:54:20.281Z</time>
      </trkpt>
      <trkpt lat="47.48059" lon="6.74466">
        <ele>318.368</ele>
        <time>2016-06-04T12:54:21.281Z</time>
      </trkpt>
      <trkpt lat="47.4806" lon="6.74473">
        <ele>318.344</ele>
        <time>2016-06-04T12:54:22.281Z</time>
      </trkpt>
      <trkpt lat="47.4806" lon="6.7448">
        <ele>318.318</ele>
        <time>2016-06-04T12:54:23.281Z</time>
      </trkpt>
      <trkpt lat="47.48061" lon="6.74486">
        <ele>318.29</ele>
        <time>2016-06-04T12:54:24.281Z</time>
      </trkpt>
      <trkpt lat="47.48061" lon="6.74493">
        <ele>318.258</ele>
        <time>2016-06-04T12:54:25.281Z</time>
      </trkpt>
      <trkpt lat="47.48062" lon="6.74498">
        <ele>318.219</ele>
        <time>2016-06-04T12:54:26.281Z</time>
      </trkpt>
      <trkpt lat="47.48063" lon="6.74505">
        <ele>318.173</ele>
        <time>2016-06-04T12:54:27.281Z</time>
      </trkpt>
      <trkpt lat="47.48063" lon="6.74511">
        <ele>318.118</ele>
        <time>2016-06-04T12:54:28.281Z</time>
      </trkpt>
      <trkpt lat="47.48064" lon="6.74518">
        <ele>318.051</ele>
        <time>2016-06-04T12:54:29.281Z</time>
      </trkpt>
      <trkpt lat="47.48064" lon="6.74527">
        <ele>317.972</ele>
        <time>2016-06-04T12:54:30.281Z</time>
      </trkpt>
      <trkpt lat="47.48065" lon="6.74535">
        <ele>317.88</ele>
        <time>2016-06-04T12:54:31.281Z</time>
      </trkpt>
      <trkpt lat="47.48066" lon="6.74542">
        <ele>317.774</ele>
        <time>2016-06-04T12:54:32.281Z</time>
      </trkpt>
      <trkpt lat="47.48067" lon="6.7455">
        <ele>317.655</ele>
        <time>2016-06-04T12:54:33.281Z</time>
      </trkpt>
      <trkpt lat="47.48068" lon="6.74558">
        <ele>317.525</ele>
        <time>2016-06-04T12:54:34.281Z</time>
      </trkpt>
      <trkpt lat="47.48069" lon="6.74568">
        <ele>317.385</ele>
        <time>2016-06-04T12:54:35.281Z</time>
      </trkpt>
      <trkpt lat="47.48071" lon="6.74577">
        <ele>317.239</ele>
        <time>2016-06-04T12:54:36.281Z</time>
      </trkpt>
      <trkpt lat="47.48072" lon="6.74587">
        <ele>317.089</ele>
        <time>2016-06-04T12:54:37.281Z</time>
      </trkpt>
      <trkpt lat="47.48073" lon="6.74598">
        <ele>316.94</ele>
        <time>2016-06-04T12:54:38.281Z</time>
      </trkpt>
      <trkpt lat="47.48073" lon="6.74608">
        <ele>316.795</ele>
        <time>2016-06-04T12:54:39.281Z</time>
      </trkpt>
      <trkpt lat="47.48074" lon="6.74617">
        <ele>316.656</ele>
        <time>2016-06-04T12:54:40.281Z</time>
      </trkpt>
      <trkpt lat="47.48074" lon="6.74625">
        <ele>316.524</ele>
        <time>2016-06-04T12:54:41.281Z</time>
      </trkpt>
      <trkpt lat="47.48075" lon="6.74632">
        <ele>316.403</ele>
        <time>2016-06-04T12:54:42.281Z</time>
      </trkpt>
      <trkpt lat="47.48075" lon="6.74639">
        <ele>316.293</ele>
        <time>2016-06-04T12:54:43.281Z</time>
      </trkpt>
      <trkpt lat="47.48075" lon="6.74645">
        <ele>316.196</ele>
        <time>2016-06-04T12:54:44.281Z</time>
      </trkpt>
      <trkpt lat="47.48075" lon="6.74653">
        <ele>316.112</ele>
        <time>2016-06-04T12:54:45.281Z</time>
      </trkpt>
      <trkpt lat="47.48076" lon="6.7466">
        <ele>316.041</ele>
        <time>2016-06-04T12:54:46.281Z</time>
      </trkpt>
      <trkpt lat="47.48076" lon="6.74669">
        <ele>315.982</ele>
        <time>2016-06-04T12:54:47.281Z</time>
      </trkpt>
      <trkpt lat="47.48075" lon="6.74677">
        <ele>315.935</ele>
        <time>2016-06-04T12:54:48.281Z</time>
      </trkpt>
      <trkpt lat="47.48075" lon="6.74685">
        <ele>315.899</ele>
        <time>2016-06-04T12:54:49.281Z</time>
      </trkpt>
      <trkpt lat="47.48076" lon="6.74691">
        <ele>315.872</ele>
        <time>2016-06-04T12:54:50.281Z</time>
      </trkpt>
      <trkpt lat="47.48077" lon="6.74697">
        <ele>315.855</ele>
        <time>2016-06-04T12:54:51.281Z</time>
      </trkpt>
      <trkpt lat="47.48078" lon="6.74703">
        <ele>315.846</ele>
        <time>2016-06-04T12:54:52.281Z</time>
      </trkpt>
      <trkpt lat="47.48079" lon="6.74711">
        <ele>315.844</ele>
        <time>2016-06-04T12:54:53.281Z</time>
      </trkpt>
      <trkpt lat="47.48079" lon="6.7472">
        <ele>315.849</ele>
        <time>2016-06-04T12:54:54.281Z</time>
      </trkpt>
      <trkpt lat="47.4808" lon="6.74727">
        <ele>315.859</ele>
        <time>2016-06-04T12:54:55.281Z</time>
      </trkpt>
      <trkpt lat="47.48081" lon="6.74733">
        <ele>315.876</ele>
        <time>2016-06-04T12:54:56.281Z</time>
      </trkpt>
      <trkpt lat="47.48082" lon="6.7474">
        <ele>315.9</ele>
        <time>2016-06-04T12:54:57.281Z</time>
      </trkpt>
      <trkpt lat="47.48082" lon="6.74749">
        <ele>315.932</ele>
        <time>2016-06-04T12:54:58.281Z</time>
      </trkpt>
      <trkpt lat="47.48082" lon="6.74758">
        <ele>315.974</ele>
        <time>2016-06-04T12:54:59.281Z</time>
      </trkpt>
      <trkpt lat="47.48081" lon="6.74769">
        <ele>316.024</ele>
        <time>2016-06-04T12:55:00.281Z</time>
      </trkpt>
      <trkpt lat="47.4808" lon="6.74778">
        <ele>316.082</ele>
        <time>2016-06-04T12:55:01.281Z</time>
      </trkpt>
      <trkpt lat="47.4808" lon="6.74788">
        <ele>316.15</ele>
        <time>2016-06-04T12:55:02.281Z</time>
      </trkpt>
      <trkpt lat="47.4808" lon="6.74796">
        <ele>316.228</ele>
        <time>2016-06-04T12:55:03.281Z</time>
      </trkpt>
      <trkpt lat="47.4808" lon="6.74802">
        <ele>316.317</ele>
        <time>2016-06-04T12:55:04.281Z</time>
      </trkpt>
      <trkpt lat="47.48079" lon="6.74809">
        <ele>316.417</ele>
        <time>2016-06-04T12:55:05.281Z</time>
      </trkpt>
      <trkpt lat="47.48079" lon="6.74816">
        <ele>316.53</ele>
        <time>2016-06-04T12:55:06.281Z</time>
      </trkpt>
      <trkpt lat="47.48078" lon="6.74824">
        <ele>316.656</ele>
        <time>2016-06-04T12:55:07.281Z</time>
      </trkpt>
      <trkpt lat="47.48077" lon="6.74832">
        <ele>316.795</ele>
        <time>2016-06-04T12:55:08.281Z</time>
      </trkpt>
      <trkpt lat="47.48076" lon="6.74841">
        <ele>316.949</ele>
        <time>2016-06-04T12:55:09.281Z</time>
      </trkpt>
      <trkpt lat="47.48075" lon="6.7485">
        <ele>317.116</ele>
        <time>2016-06-04T12:55:10.281Z</time>
      </trkpt>
      <trkpt lat="47.48075" lon="6.74857">
        <ele>317.296</ele>
        <time>2016-06-04T12:55:11.281Z</time>
      </trkpt>
      <trkpt lat="47.48074" lon="6.74862">
        <ele>317.487</ele>
        <time>2016-06-04T12:55:12.281Z</time>
      </trkpt>
      <trkpt lat="47.48073" lon="6.74868">
        <ele>317.686</ele>
        <time>2016-06-04T12:55:13.281Z</time>
      </trkpt>
      <trkpt lat="47.48072" lon="6.74875">
        <ele>317.892</ele>
        <time>2016-06-04T12:55:14.281Z</time>
      </trkpt>
      <trkpt lat="47.4807" lon="6.74881">
        <ele>318.102</ele>
        <time>2016-06-04T12:55:15.281Z</time>
      </trkpt>
      <trkpt lat="47.48068" lon="6.74888">
        <ele>318.312</ele>
        <time>2016-06-04T12:55:16.281Z</time>
      </trkpt>
      <trkpt lat="47.48066" lon="6.74896">
        <ele>318.518</ele>
        <time>2016-06-04T12:55:17.281Z</time>
      </trkpt>
      <trkpt lat="47.48063" lon="6.74905">
        <ele>318.716</ele>
        <time>2016-06-04T12:55:18.281Z</time>
      </trkpt>
      <trkpt lat="47.48062" lon="6.74912">
        <ele>318.901</ele>
        <time>2016-06-04T12:55:19.281Z</time>
      </trkpt>
      <trkpt lat="47.4806" lon="6.74917">
        <ele>319.069</ele>
        <time>2016-06-04T12:55:20.281Z</time>
      </trkpt>
      <trkpt lat="47.48058" lon="6.74924">
        <ele>319.218</ele>
        <time>2016-06-04T12:55:21.281Z</time>
      </trkpt>
      <trkpt lat="47.48057" lon="6.74931">
        <ele>319.344</ele>
        <time>2016-06-04T12:55:22.281Z</time>
      </trkpt>
      <trkpt lat="47.48055" lon="6.74937">
        <ele>319.448</ele>
        <time>2016-06-04T12:55:23.281Z</time>
      </trkpt>
      <trkpt lat="47.48053" lon="6.74944">
        <ele>319.528</ele>
        <time>2016-06-04T12:55:24.281Z</time>
      </trkpt>
      <trkpt lat="47.48051" lon="6.74951">
        <ele>319.584</ele>
        <time>2016-06-04T12:55:25.281Z</time>
      </trkpt>
      <trkpt lat="47.48049" lon="6.74957">
        <ele>319.618</ele>
        <time>2016-06-04T12:55:26.281Z</time>
      </trkpt>
      <trkpt lat="47.48047" lon="6.74964">
        <ele>319.63</ele>
        <time>2016-06-04T12:55:27.281Z</time>
      </trkpt>
      <trkpt lat="47.48045" lon="6.74972">
        <ele>319.624</ele>
        <time>2016-06-04T12:55:28.281Z</time>
      </trkpt>
      <trkpt lat="47.48043" lon="6.74981">
        <ele>319.603</ele>
        <time>2016-06-04T12:55:29.281Z</time>
      </trkpt>
      <trkpt lat="47.48042" lon="6.74989">
        <ele>319.573</ele>
        <time>2016-06-04T12:55:30.281Z</time>
      </trkpt>
      <trkpt lat="47.4804" lon="6.74996">
        <ele>319.536</ele>
        <time>2016-06-04T12:55:31.281Z</time>
      </trkpt>
      <trkpt lat="47.48038" lon="6.75003">
        <ele>319.495</ele>
        <time>2016-06-04T12:55:32.281Z</time>
      </trkpt>
      <trkpt lat="47.48036" lon="6.75011">
        <ele>319.452</ele>
        <time>2016-06-04T12:55:33.281Z</time>
      </trkpt>
      <trkpt lat="47.48034" lon="6.75019">
        <ele>319.405</ele>
        <time>2016-06-04T12:55:34.281Z</time>
      </trkpt>
      <trkpt lat="47.48032" lon="6.75026">
        <ele>319.355</ele>
        <time>2016-06-04T12:55:35.281Z</time>
      </trkpt>
      <trkpt lat="47.4803" lon="6.75033">
        <ele>319.3</ele>
        <time>2016-06-04T12:55:36.281Z</time>
      </trkpt>
      <trkpt lat="47.48029" lon="6.7504">
        <ele>319.239</ele>
        <time>2016-06-04T12:55:37.281Z</time>
      </trkpt>
      <trkpt lat="47.48027" lon="6.75047">
        <ele>319.169</ele>
        <time>2016-06-04T12:55:38.281Z</time>
      </trkpt>
      <trkpt lat="47.48025" lon="6.75055">
        <ele>319.089</ele>
        <time>2016-06-04T12:55:39.281Z</time>
      </trkpt>
      <trkpt lat="47.48024" lon="6.75063">
        <ele>318.999</ele>
        <time>2016-06-04T12:55:40.281Z</time>
      </trkpt>
      <trkpt lat="47.48022" lon="6.7507">
        <ele>318.898</ele>
        <time>2016-06-04T12:55:41.281Z</time>
      </trkpt>
      <trkpt lat="47.48021" lon="6.75077">
        <ele>318.786</ele>
        <time>2016-06-04T12:55:42.281Z</time>
      </trkpt>
      <trkpt lat="47.4802" lon="6.75084">
        <ele>318.664</ele>
        <time>2016-06-04T12:55:43.281Z</time>
      </trkpt>
      <trkpt lat="47.48019" lon="6.75091">
        <ele>318.535</ele>
        <time>2016-06-04T12:55:44.281Z</time>
      </trkpt>
      <trkpt lat="47.48018" lon="6.75098">
        <ele>318.4</ele>
        <time>2016-06-04T12:55:45.281Z</time>
      </trkpt>
      <trkpt lat="47.48017" lon="6.75106">
        <ele>318.262</ele>
        <time>2016-06-04T12:55:46.281Z</time>
      </trkpt>
      <trkpt lat="47.48015" lon="6.75114">
        <ele>318.122</ele>
        <time>2016-06-04T12:55:47.281Z</time>
      </trkpt>
      <trkpt lat="47.48014" lon="6.75122">
        <ele>317.984</ele>
        <time>2016-06-04T12:55:48.281Z</time>
      </trkpt>
      <trkpt lat="47.48013" lon="6.75131">
        <ele>317.85</ele>
        <time>2016-06-04T12:55:49.281Z</time>
      </trkpt>
      <trkpt lat="47.48012" lon="6.75139">
        <ele>317.723</ele>
        <time>2016-06-04T12:55:50.281Z</time>
      </trkpt>
      <trkpt lat="47.48011" lon="6.75147">
        <ele>317.605</ele>
        <time>2016-06-04T12:55:51.281Z</time>
      </trkpt>
      <trkpt lat="47.4801" lon="6.75155">
        <ele>317.498</ele>
        <time>2016-06-04T12:55:52.281Z</time>
      </trkpt>
      <trkpt lat="47.48009" lon="6.75164">
        <ele>317.402</ele>
        <time>2016-06-04T12:55:53.281Z</time>
      </trkpt>
      <trkpt lat="47.48008" lon="6.75171">
        <ele>317.318</ele>
        <time>2016-06-04T12:55:54.281Z</time>
      </trkpt>
      <trkpt lat="47.48007" lon="6.75179">
        <ele>317.247</ele>
        <time>2016-06-04T12:55:55.281Z</time>
      </trkpt>
      <trkpt lat="47.48006" lon="6.75187">
        <ele>317.189</ele>
        <time>2016-06-04T12:55:56.281Z</time>
      </trkpt>
      <trkpt lat="47.48005" lon="6.75195">
        <ele>317.144</ele>
        <time>2016-06-04T12:55:57.281Z</time>
      </trkpt>
      <trkpt lat="47.48005" lon="6.75203">
        <ele>317.11</ele>
        <time>2016-06-04T12:55:58.281Z</time>
      </trkpt>
      <trkpt lat="47.48004" lon="6.7521">
        <ele>317.088</ele>
        <time>2016-06-04T12:55:59.281Z</time>
      </trkpt>
      <trkpt lat="47.48003" lon="6.75217">
        <ele>317.077</ele>
        <time>2016-06-04T12:56:00.281Z</time>
      </trkpt>
      <trkpt lat="47.48002" lon="6.75223">
        <ele>317.074</ele>
        <time>2016-06-04T12:56:01.281Z</time>
      </trkpt>
      <trkpt lat="47.48002" lon="6.75229">
        <ele>317.079</ele>
        <time>2016-06-04T12:56:02.281Z</time>
      </trkpt>
      <trkpt lat="47.48001" lon="6.75234">
        <ele>317.092</ele>
        <time>2016-06-04T12:56:03.281Z</time>
      </trkpt>
      <trkpt lat="47.48" lon="6.75239">
        <ele>317.112</ele>
        <time>2016-06-04T12:56:04.281Z</time>
      </trkpt>
      <trkpt lat="47.47998" lon="6.75246">
        <ele>317.141</ele>
        <time>2016-06-04T12:56:05.281Z</time>
      </trkpt>
      <trkpt lat="47.47997" lon="6.75254">
        <ele>317.182</ele>
        <time>2016-06-04T12:56:06.281Z</time>
      </trkpt>
      <trkpt lat="47.47995" lon="6.75263">
        <ele>317.234</ele>
        <time>2016-06-04T12:56:07.281Z</time>
      </trkpt>
      <trkpt lat="47.47993" lon="6.75272">
        <ele>317.299</ele>
        <time>2016-06-04T12:56:08.281Z</time>
      </trkpt>
      <trkpt lat="47.47992" lon="6.7528">
        <ele>317.379</ele>
        <time>2016-06-04T12:56:09.281Z</time>
      </trkpt>
      <trkpt lat="47.47992" lon="6.75287">
        <ele>317.476</ele>
        <time>2016-06-04T12:56:10.281Z</time>
      </trkpt>
      <trkpt lat="47.47992" lon="6.75295">
        <ele>317.589</ele>
        <time>2016-06-04T12:56:11.281Z</time>
      </trkpt>
      <trkpt lat="47.47991" lon="6.75304">
        <ele>317.721</ele>
        <time>2016-06-04T12:56:12.281Z</time>
      </trkpt>
      <trkpt lat="47.47991" lon="6.75314">
        <ele>317.872</ele>
        <time>2016-06-04T12:56:13.281Z</time>
      </trkpt>
      <trkpt lat="47.4799" lon="6.75325">
        <ele>318.04</ele>
        <time>2016-06-04T12:56:14.281Z</time>
      </trkpt>
      <trkpt lat="47.47989" lon="6.75334">
        <ele>318.225</ele>
        <time>2016-06-04T12:56:15.281Z</time>
      </trkpt>
      <trkpt lat="47.47988" lon="6.75343">
        <ele>318.428</ele>
        <time>2016-06-04T12:56:16.281Z</time>
      </trkpt>
      <trkpt lat="47.47988" lon="6.75353">
        <ele>318.645</ele>
        <time>2016-06-04T12:56:17.281Z</time>
      </trkpt>
      <trkpt lat="47.47987" lon="6.75362">
        <ele>318.875</ele>
        <time>2016-06-04T12:56:18.281Z</time>
      </trkpt>
      <trkpt lat="47.47986" lon="6.75371">
        <ele>319.114</ele>
        <time>2016-06-04T12:56:19.281Z</time>
      </trkpt>
      <trkpt lat="47.47985" lon="6.75379">
        <ele>319.359</ele>
        <time>2016-06-04T12:56:20.281Z</time>
      </trkpt>
      <trkpt lat="47.47985" lon="6.75387">
        <ele>319.604</ele>
        <time>2016-06-04T12:56:21.281Z</time>
      </trkpt>
      <trkpt lat="47.47984" lon="6.75394">
        <ele>319.846</ele>
        <time>2016-06-04T12:56:22.281Z</time>
      </trkpt>
      <trkpt lat="47.47983" lon="6.75401">
        <ele>320.08</ele>
        <time>2016-06-04T12:56:23.281Z</time>
      </trkpt>
      <trkpt lat="47.47981" lon="6.75408">
        <ele>320.302</ele>
        <time>2016-06-04T12:56:24.281Z</time>
      </trkpt>
      <trkpt lat="47.4798" lon="6.75415">
        <ele>320.507</ele>
        <time>2016-06-04T12:56:25.281Z</time>
      </trkpt>
      <trkpt lat="47.47978" lon="6.75423">
        <ele>320.694</ele>
        <time>2016-06-04T12:56:26.281Z</time>
      </trkpt>
      <trkpt lat="47.47977" lon="6.7543">
        <ele>320.858</ele>
        <time>2016-06-04T12:56:27.281Z</time>
      </trkpt>
      <trkpt lat="47.47975" lon="6.75436">
        <ele>321</ele>
        <time>2016-06-04T12:56:28.281Z</time>
      </trkpt>
      <trkpt lat="47.47974" lon="6.75442">
        <ele>321.117</ele>
        <time>2016-06-04T12:56:29.281Z</time>
      </trkpt>
      <trkpt lat="47.47973" lon="6.75448">
        <ele>321.21</ele>
        <time>2016-06-04T12:56:30.281Z</time>
      </trkpt>
      <trkpt lat="47.47974" lon="6.75452">
        <ele>321.279</ele>
        <time>2016-06-04T12:56:31.281Z</time>
      </trkpt>
      <trkpt lat="47.47974" lon="6.75457">
        <ele>321.326</ele>
        <time>2016-06-04T12:56:32.281Z</time>
      </trkpt>
      <trkpt lat="47.47974" lon="6.75462">
        <ele>321.354</ele>
        <time>2016-06-04T12:56:33.281Z</time>
      </trkpt>
      <trkpt lat="47.47974" lon="6.75468">
        <ele>321.366</ele>
        <time>2016-06-04T12:56:34.281Z</time>
      </trkpt>
      <trkpt lat="47.47974" lon="6.75475">
        <ele>321.366</ele>
        <time>2016-06-04T12:56:35.281Z</time>
      </trkpt>
      <trkpt lat="47.47974" lon="6.75483">
        <ele>321.356</ele>
        <time>2016-06-04T12:56:36.281Z</time>
      </trkpt>
      <trkpt lat="47.47973" lon="6.75491">
        <ele>321.339</ele>
        <time>2016-06-04T12:56:37.281Z</time>
      </trkpt>
      <trkpt lat="47.47973" lon="6.75497">
        <ele>321.317</ele>
        <time>2016-06-04T12:56:38.281Z</time>
      </trkpt>
      <trkpt lat="47.47972" lon="6.75503">
        <ele>321.292</ele>
        <time>2016-06-04T12:56:39.281Z</time>
      </trkpt>
      <trkpt lat="47.47972" lon="6.75508">
        <ele>321.264</ele>
        <time>2016-06-04T12:56:40.281Z</time>
      </trkpt>
      <trkpt lat="47.47971" lon="6.75513">
        <ele>321.237</ele>
        <time>2016-06-04T12:56:41.281Z</time>
      </trkpt>
      <trkpt lat="47.4797" lon="6.75518">
        <ele>321.21</ele>
        <time>2016-06-04T12:56:42.281Z</time>
      </trkpt>
      <trkpt lat="47.47969" lon="6.75523">
        <ele>321.184</ele>
        <time>2016-06-04T12:56:43.281Z</time>
      </trkpt>
      <trkpt lat="47.47969" lon="6.75528">
        <ele>321.161</ele>
        <time>2016-06-04T12:56:44.281Z</time>
      </trkpt>
      <trkpt lat="47.47968" lon="6.75533">
        <ele>321.142</ele>
        <time>2016-06-04T12:56:45.281Z</time>
      </trkpt>
      <trkpt lat="47.47967" lon="6.75539">
        <ele>321.126</ele>
        <time>2016-06-04T12:56:46.281Z</time>
      </trkpt>
      <trkpt lat="47.47966" lon="6.75545">
        <ele>321.111</ele>
        <time>2016-06-04T12:56:47.281Z</time>
      </trkpt>
      <trkpt lat="47.47964" lon="6.75551">
        <ele>321.097</ele>
        <time>2016-06-04T12:56:48.281Z</time>
      </trkpt>
      <trkpt lat="47.47963" lon="6.75557">
        <ele>321.082</ele>
        <time>2016-06-04T12:56:49.281Z</time>
      </trkpt>
      <trkpt lat="47.47962" lon="6.75564">
        <ele>321.061</ele>
        <time>2016-06-04T12:56:50.281Z</time>
      </trkpt>
      <trkpt lat="47.47961" lon="6.7557">
        <ele>321.034</ele>
        <time>2016-06-04T12:56:51.281Z</time>
      </trkpt>
      <trkpt lat="47.4796" lon="6.75577">
        <ele>320.998</ele>
        <time>2016-06-04T12:56:52.281Z</time>
      </trkpt>
      <trkpt lat="47.47959" lon="6.75583">
        <ele>320.952</ele>
        <time>2016-06-04T12:56:53.281Z</time>
      </trkpt>
      <trkpt lat="47.47958" lon="6.75588">
        <ele>320.894</ele>
        <time>2016-06-04T12:56:54.281Z</time>
      </trkpt>
      <trkpt lat="47.47957" lon="6.75594">
        <ele>320.824</ele>
        <time>2016-06-04T12:56:55.281Z</time>
      </trkpt>
      <trkpt lat="47.47955" lon="6.75601">
        <ele>320.741</ele>
        <time>2016-06-04T12:56:56.281Z</time>
      </trkpt>
      <trkpt lat="47.47954" lon="6.75609">
        <ele>320.644</ele>
        <time>2016-06-04T12:56:57.281Z</time>
      </trkpt>
      <trkpt lat="47.47953" lon="6.75617">
        <ele>320.534</ele>
        <time>2016-06-04T12:56:58.281Z</time>
      </trkpt>
      <trkpt lat="47.47951" lon="6.75626">
        <ele>320.409</ele>
        <time>2016-06-04T12:56:59.281Z</time>
      </trkpt>
      <trkpt lat="47.4795" lon="6.75634">
        <ele>320.27</ele>
        <time>2016-06-04T12:57:00.281Z</time>
      </trkpt>
      <trkpt lat="47.47948" lon="6.75643">
        <ele>320.116</ele>
        <time>2016-06-04T12:57:01.281Z</time>
      </trkpt>
      <trkpt lat="47.47947" lon="6.7565">
        <ele>319.948</ele>
        <time>2016-06-04T12:57:02.281Z</time>
      </trkpt>
      <trkpt lat="47.47946" lon="6.75657">
        <ele>319.764</ele>
        <time>2016-06-04T12:57:03.281Z</time>
      </trkpt>
      <trkpt lat="47.47946" lon="6.75663">
        <ele>319.566</ele>
        <time>2016-06-04T12:57:04.281Z</time>
      </trkpt>
      <trkpt lat="47.47945" lon="6.7567">
        <ele>319.353</ele>
        <time>2016-06-04T12:57:05.281Z</time>
      </trkpt>
      <trkpt lat="47.47945" lon="6.75677">
        <ele>319.126</ele>
        <time>2016-06-04T12:57:06.281Z</time>
      </trkpt>
      <trkpt lat="47.47944" lon="6.75685">
        <ele>318.887</ele>
        <time>2016-06-04T12:57:07.281Z</time>
      </trkpt>
      <trkpt lat="47.47943" lon="6.75693">
        <ele>318.639</ele>
        <time>2016-06-04T12:57:08.281Z</time>
      </trkpt>
      <trkpt lat="47.47943" lon="6.757">
        <ele>318.384</ele>
        <time>2016-06-04T12:57:09.281Z</time>
      </trkpt>
      <trkpt lat="47.47943" lon="6.75709">
        <ele>318.13</ele>
        <time>2016-06-04T12:57:10.281Z</time>
      </trkpt>
      <trkpt lat="47.47942" lon="6.7572">
        <ele>317.881</ele>
        <time>2016-06-04T12:57:11.281Z</time>
      </trkpt>
      <trkpt lat="47.47941" lon="6.75729">
        <ele>317.644</ele>
        <time>2016-06-04T12:57:12.281Z</time>
      </trkpt>
      <trkpt lat="47.4794" lon="6.75737">
        <ele>317.424</ele>
        <time>2016-06-04T12:57:13.281Z</time>
      </trkpt>
      <trkpt lat="47.47939" lon="6.75744">
        <ele>317.229</ele>
        <time>2016-06-04T12:57:14.281Z</time>
      </trkpt>
      <trkpt lat="47.47938" lon="6.7575">
        <ele>317.062</ele>
        <time>2016-06-04T12:57:15.281Z</time>
      </trkpt>
      <trkpt lat="47.47938" lon="6.75757">
        <ele>316.928</ele>
        <time>2016-06-04T12:57:16.281Z</time>
      </trkpt>
      <trkpt lat="47.47937" lon="6.75764">
        <ele>316.833</ele>
        <time>2016-06-04T12:57:17.281Z</time>
      </trkpt>
      <trkpt lat="47.47936" lon="6.75772">
        <ele>316.78</ele>
        <time>2016-06-04T12:57:18.281Z</time>
      </trkpt>
      <trkpt lat="47.47935" lon="6.7578">
        <ele>316.771</ele>
        <time>2016-06-04T12:57:19.281Z</time>
      </trkpt>
      <trkpt lat="47.47933" lon="6.75787">
        <ele>316.806</ele>
        <time>2016-06-04T12:57:20.281Z</time>
      </trkpt>
      <trkpt lat="47.47933" lon="6.75793">
        <ele>316.885</ele>
        <time>2016-06-04T12:57:21.281Z</time>
      </trkpt>
      <trkpt lat="47.47932" lon="6.758">
        <ele>317.009</ele>
        <time>2016-06-04T12:57:22.281Z</time>
      </trkpt>
      <trkpt lat="47.47931" lon="6.75809">
        <ele>317.175</ele>
        <time>2016-06-04T12:57:23.281Z</time>
      </trkpt>
      <trkpt lat="47.4793" lon="6.75818">
        <ele>317.38</ele>
        <time>2016-06-04T12:57:24.281Z</time>
      </trkpt>
      <trkpt lat="47.47929" lon="6.75825">
        <ele>317.622</ele>
        <time>2016-06-04T12:57:25.281Z</time>
      </trkpt>
      <trkpt lat="47.47928" lon="6.75831">
        <ele>317.897</ele>
        <time>2016-06-04T12:57:26.281Z</time>
      </trkpt>
      <trkpt lat="47.47928" lon="6.75839">
        <ele>318.204</ele>
        <time>2016-06-04T12:57:27.281Z</time>
      </trkpt>
      <trkpt lat="47.47927" lon="6.75846">
        <ele>318.538</ele>
        <time>2016-06-04T12:57:28.281Z</time>
      </trkpt>
      <trkpt lat="47.47926" lon="6.75852">
        <ele>318.898</ele>
        <time>2016-06-04T12:57:29.281Z</time>
      </trkpt>
      <trkpt lat="47.47925" lon="6.75859">
        <ele>319.281</ele>
        <time>2016-06-04T12:57:30.281Z</time>
      </trkpt>
      <trkpt lat="47.47924" lon="6.75866">
        <ele>319.685</ele>
        <time>2016-06-04T12:57:31.281Z</time>
      </trkpt>
      <trkpt lat="47.47923" lon="6.75874">
        <ele>320.107</ele>
        <time>2016-06-04T12:57:32.281Z</time>
      </trkpt>
      <trkpt lat="47.47922" lon="6.75881">
        <ele>320.545</ele>
        <time>2016-06-04T12:57:33.281Z</time>
      </trkpt>
      <trkpt lat="47.47921" lon="6.75889">
        <ele>320.996</ele>
        <time>2016-06-04T12:57:34.281Z</time>
      </trkpt>
      <trkpt lat="47.4792" lon="6.75895">
        <ele>321.458</ele>
        <time>2016-06-04T12:57:35.281Z</time>
      </trkpt>
      <trkpt lat="47.47919" lon="6.75901">
        <ele>321.928</ele>
        <time>2016-06-04T12:57:36.281Z</time>
      </trkpt>
      <trkpt lat="47.47918" lon="6.75908">
        <ele>322.404</ele>
        <time>2016-06-04T12:57:37.281Z</time>
      </trkpt>
      <trkpt lat="47.47917" lon="6.75914">
        <ele>322.881</ele>
        <time>2016-06-04T12:57:38.281Z</time>
      </trkpt>
      <trkpt lat="47.47916" lon="6.7592">
        <ele>323.356</ele>
        <time>2016-06-04T12:57:39.281Z</time>
      </trkpt>
      <trkpt lat="47.47914" lon="6.75926">
        <ele>323.826</ele>
        <time>2016-06-04T12:57:40.281Z</time>
      </trkpt>
      <trkpt lat="47.47913" lon="6.75933">
        <ele>324.286</ele>
        <time>2016-06-04T12:57:41.281Z</time>
      </trkpt>
      <trkpt lat="47.47912" lon="6.7594">
        <ele>324.735</ele>
        <time>2016-06-04T12:57:42.281Z</time>
      </trkpt>
      <trkpt lat="47.47911" lon="6.75947">
        <ele>325.168</ele>
        <time>2016-06-04T12:57:43.281Z</time>
      </trkpt>
      <trkpt lat="47.47911" lon="6.75953">
        <ele>325.584</ele>
        <time>2016-06-04T12:57:44.281Z</time>
      </trkpt>
      <trkpt lat="47.4791" lon="6.75961">
        <ele>325.983</ele>
        <time>2016-06-04T12:57:45.281Z</time>
      </trkpt>
      <trkpt lat="47.47909" lon="6.75968">
        <ele>326.362</ele>
        <time>2016-06-04T12:57:46.281Z</time>
      </trkpt>
      <trkpt lat="47.47908" lon="6.75976">
        <ele>326.719</ele>
        <time>2016-06-04T12:57:47.281Z</time>
      </trkpt>
      <trkpt lat="47.47907" lon="6.75983">
        <ele>327.052</ele>
        <time>2016-06-04T12:57:48.281Z</time>
      </trkpt>
      <trkpt lat="47.47907" lon="6.7599">
        <ele>327.36</ele>
        <time>2016-06-04T12:57:49.281Z</time>
      </trkpt>
      <trkpt lat="47.47906" lon="6.75996">
        <ele>327.64</ele>
        <time>2016-06-04T12:57:50.281Z</time>
      </trkpt>
      <trkpt lat="47.47906" lon="6.76003">
        <ele>327.892</ele>
        <time>2016-06-04T12:57:51.281Z</time>
      </trkpt>
      <trkpt lat="47.47906" lon="6.7601">
        <ele>328.115</ele>
        <time>2016-06-04T12:57:52.281Z</time>
      </trkpt>
      <trkpt lat="47.47905" lon="6.76018">
        <ele>328.309</ele>
        <time>2016-06-04T12:57:53.281Z</time>
      </trkpt>
      <trkpt lat="47.47905" lon="6.76027">
        <ele>328.475</ele>
        <time>2016-06-04T12:57:54.281Z</time>
      </trkpt>
      <trkpt lat="47.47905" lon="6.76035">
        <ele>328.613</ele>
        <time>2016-06-04T12:57:55.281Z</time>
      </trkpt>
      <trkpt lat="47.47905" lon="6.76043">
        <ele>328.724</ele>
        <time>2016-06-04T12:57:56.281Z</time>
      </trkpt>
      <trkpt lat="47.47905" lon="6.7605">
        <ele>328.811</ele>
        <time>2016-06-04T12:57:57.281Z</time>
      </trkpt>
      <trkpt lat="47.47905" lon="6.76059">
        <ele>328.874</ele>
        <time>2016-06-04T12:57:58.281Z</time>
      </trkpt>
      <trkpt lat="47.47905" lon="6.76066">
        <ele>328.915</ele>
        <time>2016-06-04T12:57:59.281Z</time>
      </trkpt>
      <trkpt lat="47.47905" lon="6.76073">
        <ele>328.936</ele>
        <time>2016-06-04T12:58:00.281Z</time>
      </trkpt>
      <trkpt lat="47.47906" lon="6.7608">
        <ele>328.939</ele>
        <time>2016-06-04T12:58:01.281Z</time>
      </trkpt>
      <trkpt lat="47.47906" lon="6.76087">
        <ele>328.925</ele>
        <time>2016-06-04T12:58:02.281Z</time>
      </trkpt>
      <trkpt lat="47.47906" lon="6.76096">
        <ele>328.897</ele>
        <time>2016-06-04T12:58:03.281Z</time>
      </trkpt>
      <trkpt lat="47.47906" lon="6.76105">
        <ele>328.854</ele>
        <time>2016-06-04T12:58:04.281Z</time>
      </trkpt>
      <trkpt lat="47.47906" lon="6.76114">
        <ele>328.8</ele>
        <time>2016-06-04T12:58:05.281Z</time>
      </trkpt>
      <trkpt lat="47.47907" lon="6.76123">
        <ele>328.736</ele>
        <time>2016-06-04T12:58:06.281Z</time>
      </trkpt>
      <trkpt lat="47.47908" lon="6.7613">
        <ele>328.663</ele>
        <time>2016-06-04T12:58:07.281Z</time>
      </trkpt>
      <trkpt lat="47.47909" lon="6.76138">
        <ele>328.584</ele>
        <time>2016-06-04T12:58:08.281Z</time>
      </trkpt>
      <trkpt lat="47.4791" lon="6.76147">
        <ele>328.502</ele>
        <time>2016-06-04T12:58:09.281Z</time>
      </trkpt>
      <trkpt lat="47.47912" lon="6.76156">
        <ele>328.417</ele>
        <time>2016-06-04T12:58:10.281Z</time>
      </trkpt>
      <trkpt lat="47.47914" lon="6.76164">
        <ele>328.332</ele>
        <time>2016-06-04T12:58:11.281Z</time>
      </trkpt>
      <trkpt lat="47.47916" lon="6.76171">
        <ele>328.247</ele>
        <time>2016-06-04T12:58:12.281Z</time>
      </trkpt>
      <trkpt lat="47.47919" lon="6.76177">
        <ele>328.165</ele>
        <time>2016-06-04T12:58:13.281Z</time>
      </trkpt>
      <trkpt lat="47.47922" lon="6.76184">
        <ele>328.084</ele>
        <time>2016-06-04T12:58:14.281Z</time>
      </trkpt>
      <trkpt lat="47.47925" lon="6.76191">
        <ele>328.002</ele>
        <time>2016-06-04T12:58:15.281Z</time>
      </trkpt>
      <trkpt lat="47.47928" lon="6.76197">
        <ele>327.92</ele>
        <time>2016-06-04T12:58:16.281Z</time>
      </trkpt>
      <trkpt lat="47.47931" lon="6.76203">
        <ele>327.836</ele>
        <time>2016-06-04T12:58:17.281Z</time>
      </trkpt>
      <trkpt lat="47.47934" lon="6.76208">
        <ele>327.751</ele>
        <time>2016-06-04T12:58:18.281Z</time>
      </trkpt>
      <trkpt lat="47.47937" lon="6.76214">
        <ele>327.665</ele>
        <time>2016-06-04T12:58:19.281Z</time>
      </trkpt>
      <trkpt lat="47.4794" lon="6.76219">
        <ele>327.578</ele>
        <time>2016-06-04T12:58:20.281Z</time>
      </trkpt>
      <trkpt lat="47.47944" lon="6.76224">
        <ele>327.492</ele>
        <time>2016-06-04T12:58:21.281Z</time>
      </trkpt>
      <trkpt lat="47.47947" lon="6.76228">
        <ele>327.405</ele>
        <time>2016-06-04T12:58:22.281Z</time>
      </trkpt>
      <trkpt lat="47.47951" lon="6.76233">
        <ele>327.318</ele>
        <time>2016-06-04T12:58:23.281Z</time>
      </trkpt>
      <trkpt lat="47.47954" lon="6.76237">
        <ele>327.23</ele>
        <time>2016-06-04T12:58:24.281Z</time>
      </trkpt>
      <trkpt lat="47.47958" lon="6.76241">
        <ele>327.14</ele>
        <time>2016-06-04T12:58:25.281Z</time>
      </trkpt>
      <trkpt lat="47.47962" lon="6.76245">
        <ele>327.048</ele>
        <time>2016-06-04T12:58:26.281Z</time>
      </trkpt>
      <trkpt lat="47.47967" lon="6.76248">
        <ele>326.954</ele>
        <time>2016-06-04T12:58:27.281Z</time>
      </trkpt>
      <trkpt lat="47.47971" lon="6.76252">
        <ele>326.861</ele>
        <time>2016-06-04T12:58:28.281Z</time>
      </trkpt>
      <trkpt lat="47.47975" lon="6.76256">
        <ele>326.77</ele>
        <time>2016-06-04T12:58:29.281Z</time>
      </trkpt>
      <trkpt lat="47.47979" lon="6.76261">
        <ele>326.683</ele>
        <time>2016-06-04T12:58:30.281Z</time>
      </trkpt>
      <trkpt lat="47.47983" lon="6.76266">
        <ele>326.604</ele>
        <time>2016-06-04T12:58:31.281Z</time>
      </trkpt>
      <trkpt lat="47.47986" lon="6.7627">
        <ele>326.533</ele>
        <time>2016-06-04T12:58:32.281Z</time>
      </trkpt>
      <trkpt lat="47.47989" lon="6.76275">
        <ele>326.473</ele>
        <time>2016-06-04T12:58:33.281Z</time>
      </trkpt>
      <trkpt lat="47.47992" lon="6.7628">
        <ele>326.424</ele>
        <time>2016-06-04T12:58:34.281Z</time>
      </trkpt>
      <trkpt lat="47.47995" lon="6.76285">
        <ele>326.386</ele>
        <time>2016-06-04T12:58:35.281Z</time>
      </trkpt>
      <trkpt lat="47.47997" lon="6.7629">
        <ele>326.361</ele>
        <time>2016-06-04T12:58:36.281Z</time>
      </trkpt>
      <trkpt lat="47.48" lon="6.76295">
        <ele>326.345</ele>
        <time>2016-06-04T12:58:37.281Z</time>
      </trkpt>
      <trkpt lat="47.48003" lon="6.76301">
        <ele>326.341</ele>
        <time>2016-06-04T12:58:38.281Z</time>
      </trkpt>
      <trkpt lat="47.48006" lon="6.76306">
        <ele>326.345</ele>
        <time>2016-06-04T12:58:39.281Z</time>
      </trkpt>
      <trkpt lat="47.48009" lon="6.76311">
        <ele>326.359</ele>
        <time>2016-06-04T12:58:40.281Z</time>
      </trkpt>
      <trkpt lat="47.48012" lon="6.76316">
        <ele>326.381</ele>
        <time>2016-06-04T12:58:41.281Z</time>
      </trkpt>
      <trkpt lat="47.48014" lon="6.76322">
        <ele>326.413</ele>
        <time>2016-06-04T12:58:42.281Z</time>
      </trkpt>
      <trkpt lat="47.48017" lon="6.76327">
        <ele>326.453</ele>
        <time>2016-06-04T12:58:43.281Z</time>
      </trkpt>
      <trkpt lat="47.48019" lon="6.76333">
        <ele>326.504</ele>
        <time>2016-06-04T12:58:44.281Z</time>
      </trkpt>
      <trkpt lat="47.48021" lon="6.76339">
        <ele>326.564</ele>
        <time>2016-06-04T12:58:45.281Z</time>
      </trkpt>
      <trkpt lat="47.48024" lon="6.76344">
        <ele>326.634</ele>
        <time>2016-06-04T12:58:46.281Z</time>
      </trkpt>
      <trkpt lat="47.48026" lon="6.7635">
        <ele>326.712</ele>
        <time>2016-06-04T12:58:47.281Z</time>
      </trkpt>
      <trkpt lat="47.48029" lon="6.76356">
        <ele>326.798</ele>
        <time>2016-06-04T12:58:48.281Z</time>
      </trkpt>
      <trkpt lat="47.48032" lon="6.76362">
        <ele>326.891</ele>
        <time>2016-06-04T12:58:49.281Z</time>
      </trkpt>
      <trkpt lat="47.48035" lon="6.76368">
        <ele>326.989</ele>
        <time>2016-06-04T12:58:50.281Z</time>
      </trkpt>
      <trkpt lat="47.48038" lon="6.76374">
        <ele>327.093</ele>
        <time>2016-06-04T12:58:51.281Z</time>
      </trkpt>
      <trkpt lat="47.48041" lon="6.7638">
        <ele>327.201</ele>
        <time>2016-06-04T12:58:52.281Z</time>
      </trkpt>
      <trkpt lat="47.48044" lon="6.76387">
        <ele>327.309</ele>
        <time>2016-06-04T12:58:53.281Z</time>
      </trkpt>
      <trkpt lat="47.48047" lon="6.76393">
        <ele>327.415</ele>
        <time>2016-06-04T12:58:54.281Z</time>
      </trkpt>
      <trkpt lat="47.4805" lon="6.76399">
        <ele>327.514</ele>
        <time>2016-06-04T12:58:55.281Z</time>
      </trkpt>
      <trkpt lat="47.48052" lon="6.76406">
        <ele>327.602</ele>
        <time>2016-06-04T12:58:56.281Z</time>
      </trkpt>
      <trkpt lat="47.48054" lon="6.76412">
        <ele>327.675</ele>
        <time>2016-06-04T12:58:57.281Z</time>
      </trkpt>
      <trkpt lat="47.48057" lon="6.76418">
        <ele>327.727</ele>
        <time>2016-06-04T12:58:58.281Z</time>
      </trkpt>
      <trkpt lat="47.48059" lon="6.76424">
        <ele>327.755</ele>
        <time>2016-06-04T12:58:59.281Z</time>
      </trkpt>
      <trkpt lat="47.48062" lon="6.76429">
        <ele>327.755</ele>
        <time>2016-06-04T12:59:00.281Z</time>
      </trkpt>
      <trkpt lat="47.48065" lon="6.76434">
        <ele>327.727</ele>
        <time>2016-06-04T12:59:01.281Z</time>
      </trkpt>
      <trkpt lat="47.48069" lon="6.76438">
        <ele>327.667</ele>
        <time>2016-06-04T12:59:02.281Z</time>
      </trkpt>
      <trkpt lat="47.48073" lon="6.76443">
        <ele>327.577</ele>
        <time>2016-06-04T12:59:03.281Z</time>
      </trkpt>
      <trkpt lat="47.48077" lon="6.76448">
        <ele>327.458</ele>
        <time>2016-06-04T12:59:04.281Z</time>
      </trkpt>
      <trkpt lat="47.4808" lon="6.76453">
        <ele>327.31</ele>
        <time>2016-06-04T12:59:05.281Z</time>
      </trkpt>
      <trkpt lat="47.48083" lon="6.76458">
        <ele>327.137</ele>
        <time>2016-06-04T12:59:06.281Z</time>
      </trkpt>
      <trkpt lat="47.48086" lon="6.76464">
        <ele>326.941</ele>
        <time>2016-06-04T12:59:07.281Z</time>
      </trkpt>
      <trkpt lat="47.48088" lon="6.76471">
        <ele>326.727</ele>
        <time>2016-06-04T12:59:08.281Z</time>
      </trkpt>
      <trkpt lat="47.48089" lon="6.76477">
        <ele>326.499</ele>
        <time>2016-06-04T12:59:09.281Z</time>
      </trkpt>
      <trkpt lat="47.4809" lon="6.76483">
        <ele>326.263</ele>
        <time>2016-06-04T12:59:10.281Z</time>
      </trkpt>
      <trkpt lat="47.48091" lon="6.76488">
        <ele>326.026</ele>
        <time>2016-06-04T12:59:11.281Z</time>
      </trkpt>
      <trkpt lat="47.48092" lon="6.76492">
        <ele>325.793</ele>
        <time>2016-06-04T12:59:12.281Z</time>
      </trkpt>
      <trkpt lat="47.48094" lon="6.76496">
        <ele>325.571</ele>
        <time>2016-06-04T12:59:13.281Z</time>
      </trkpt>
      <trkpt lat="47.48095" lon="6.76499">
        <ele>325.366</ele>
        <time>2016-06-04T12:59:14.281Z</time>
      </trkpt>
      <trkpt lat="47.48096" lon="6.76501">
        <ele>325.183</ele>
        <time>2016-06-04T12:59:15.281Z</time>
      </trkpt>
      <trkpt lat="47.48097" lon="6.76504">
        <ele>325.027</ele>
        <time>2016-06-04T12:59:16.281Z</time>
      </trkpt>
      <trkpt lat="47.48098" lon="6.76506">
        <ele>324.901</ele>
        <time>2016-06-04T12:59:17.281Z</time>
      </trkpt>
      <trkpt lat="47.48099" lon="6.76508">
        <ele>324.809</ele>
        <time>2016-06-04T12:59:18.281Z</time>
      </trkpt>
      <trkpt lat="47.481" lon="6.7651">
        <ele>324.752</ele>
        <time>2016-06-04T12:59:19.281Z</time>
      </trkpt>
      <trkpt lat="47.48102" lon="6.76512">
        <ele>324.73</ele>
        <time>2016-06-04T12:59:20.281Z</time>
      </trkpt>
      <trkpt lat="47.48103" lon="6.76514">
        <ele>324.743</ele>
        <time>2016-06-04T12:59:21.281Z</time>
      </trkpt>
      <trkpt lat="47.48105" lon="6.76517">
        <ele>324.789</ele>
        <time>2016-06-04T12:59:22.281Z</time>
      </trkpt>
      <trkpt lat="47.48107" lon="6.7652">
        <ele>324.866</ele>
        <time>2016-06-04T12:59:23.281Z</time>
      </trkpt>
      <trkpt lat="47.48109" lon="6.76524">
        <ele>324.974</ele>
        <time>2016-06-04T12:59:24.281Z</time>
      </trkpt>
      <trkpt lat="47.4811" lon="6.76527">
        <ele>325.111</ele>
        <time>2016-06-04T12:59:25.281Z</time>
      </trkpt>
      <trkpt lat="47.48112" lon="6.76531">
        <ele>325.273</ele>
        <time>2016-06-04T12:59:26.281Z</time>
      </trkpt>
      <trkpt lat="47.48113" lon="6.76536">
        <ele>325.457</ele>
        <time>2016-06-04T12:59:27.281Z</time>
      </trkpt>
      <trkpt lat="47.48113" lon="6.76542">
        <ele>325.661</ele>
        <time>2016-06-04T12:59:28.281Z</time>
      </trkpt>
      <trkpt lat="47.48113" lon="6.76548">
        <ele>325.88</ele>
        <time>2016-06-04T12:59:29.281Z</time>
      </trkpt>
      <trkpt lat="47.48113" lon="6.76554">
        <ele>326.112</ele>
        <time>2016-06-04T12:59:30.281Z</time>
      </trkpt>
      <trkpt lat="47.48112" lon="6.76557">
        <ele>326.352</ele>
        <time>2016-06-04T12:59:31.281Z</time>
      </trkpt>
      <trkpt lat="47.48111" lon="6.76559">
        <ele>326.597</ele>
        <time>2016-06-04T12:59:32.281Z</time>
      </trkpt>
      <trkpt lat="47.48109" lon="6.76562">
        <ele>326.842</ele>
        <time>2016-06-04T12:59:33.281Z</time>
      </trkpt>
      <trkpt lat="47.48106" lon="6.76566">
        <ele>327.084</ele>
        <time>2016-06-04T12:59:34.281Z</time>
      </trkpt>
      <trkpt lat="47.48102" lon="6.76571">
        <ele>327.32</ele>
        <time>2016-06-04T12:59:35.281Z</time>
      </trkpt>
      <trkpt lat="47.48099" lon="6.76577">
        <ele>327.545</ele>
        <time>2016-06-04T12:59:36.281Z</time>
      </trkpt>
      <trkpt lat="47.48097" lon="6.76585">
        <ele>327.757</ele>
        <time>2016-06-04T12:59:37.281Z</time>
      </trkpt>
      <trkpt lat="47.48096" lon="6.76592">
        <ele>327.953</ele>
        <time>2016-06-04T12:59:38.281Z</time>
      </trkpt>
      <trkpt lat="47.48095" lon="6.76599">
        <ele>328.132</ele>
        <time>2016-06-04T12:59:39.281Z</time>
      </trkpt>
      <trkpt lat="47.48095" lon="6.76606">
        <ele>328.292</ele>
        <time>2016-06-04T12:59:40.281Z</time>
      </trkpt>
      <trkpt lat="47.48095" lon="6.76613">
        <ele>328.433</ele>
        <time>2016-06-04T12:59:41.281Z</time>
      </trkpt>
      <trkpt lat="47.48096" lon="6.7662">
        <ele>328.552</ele>
        <time>2016-06-04T12:59:42.281Z</time>
      </trkpt>
      <trkpt lat="47.48098" lon="6.76626">
        <ele>328.65</ele>
        <time>2016-06-04T12:59:43.281Z</time>
      </trkpt>
      <trkpt lat="47.48099" lon="6.76632">
        <ele>328.725</ele>
        <time>2016-06-04T12:59:44.281Z</time>
      </trkpt>
      <trkpt lat="47.48101" lon="6.76637">
        <ele>328.775</ele>
        <time>2016-06-04T12:59:45.281Z</time>
      </trkpt>
      <trkpt lat="47.48104" lon="6.76642">
        <ele>328.8</ele>
        <time>2016-06-04T12:59:46.281Z</time>
      </trkpt>
      <trkpt lat="47.48107" lon="6.76648">
        <ele>328.799</ele>
        <time>2016-06-04T12:59:47.281Z</time>
      </trkpt>
      <trkpt lat="47.4811" lon="6.76654">
        <ele>328.772</ele>
        <time>2016-06-04T12:59:48.281Z</time>
      </trkpt>
      <trkpt lat="47.48113" lon="6.7666">
        <ele>328.718</ele>
        <time>2016-06-04T12:59:49.281Z</time>
      </trkpt>
      <trkpt lat="47.48117" lon="6.76667">
        <ele>328.64</ele>
        <time>2016-06-04T12:59:50.281Z</time>
      </trkpt>
      <trkpt lat="47.48121" lon="6.76674">
        <ele>328.539</ele>
        <time>2016-06-04T12:59:51.281Z</time>
      </trkpt>
      <trkpt lat="47.48126" lon="6.76681">
        <ele>328.415</ele>
        <time>2016-06-04T12:59:52.281Z</time>
      </trkpt>
      <trkpt lat="47.4813" lon="6.76689">
        <ele>328.273</ele>
        <time>2016-06-04T12:59:53.281Z</time>
      </trkpt>
      <trkpt lat="47.48134" lon="6.76697">
        <ele>328.114</ele>
        <time>2016-06-04T12:59:54.281Z</time>
      </trkpt>
      <trkpt lat="47.48138" lon="6.76704">
        <ele>327.94</ele>
        <time>2016-06-04T12:59:55.281Z</time>
      </trkpt>
      <trkpt lat="47.48143" lon="6.76711">
        <ele>327.754</ele>
        <time>2016-06-04T12:59:56.281Z</time>
      </trkpt>
      <trkpt lat="47.48147" lon="6.76718">
        <ele>327.557</ele>
        <time>2016-06-04T12:59:57.281Z</time>
      </trkpt>
      <trkpt lat="47.48151" lon="6.76725">
        <ele>327.349</ele>
        <time>2016-06-04T12:59:58.281Z</time>
      </trkpt>
      <trkpt lat="47.48154" lon="6.76731">
        <ele>327.131</ele>
        <time>2016-06-04T12:59:59.281Z</time>
      </trkpt>
      <trkpt lat="47.48158" lon="6.76738">
        <ele>326.903</ele>
        <time>2016-06-04T13:00:00.281Z</time>
      </trkpt>
      <trkpt lat="47.48161" lon="6.76744">
        <ele>326.666</ele>
        <time>2016-06-04T13:00:01.281Z</time>
      </trkpt>
      <trkpt lat="47.48164" lon="6.76751">
        <ele>326.421</ele>
        <time>2016-06-04T13:00:02.281Z</time>
      </trkpt>
      <trkpt lat="47.48168" lon="6.76756">
        <ele>326.167</ele>
        <time>2016-06-04T13:00:03.281Z</time>
      </trkpt>
      <trkpt lat="47.48171" lon="6.76761">
        <ele>325.906</ele>
        <time>2016-06-04T13:00:04.281Z</time>
      </trkpt>
      <trkpt lat="47.48175" lon="6.76766">
        <ele>325.637</ele>
        <time>2016-06-04T13:00:05.281Z</time>
      </trkpt>
      <trkpt lat="47.48179" lon="6.7677">
        <ele>325.361</ele>
        <time>2016-06-04T13:00:06.281Z</time>
      </trkpt>
      <trkpt lat="47.48183" lon="6.76774">
        <ele>325.079</ele>
        <time>2016-06-04T13:00:07.281Z</time>
      </trkpt>
      <trkpt lat="47.48187" lon="6.76778">
        <ele>324.792</ele>
        <time>2016-06-04T13:00:08.281Z</time>
      </trkpt>
      <trkpt lat="47.48191" lon="6.76782">
        <ele>324.501</ele>
        <time>2016-06-04T13:00:09.281Z</time>
      </trkpt>
      <trkpt lat="47.48196" lon="6.76786">
        <ele>324.208</ele>
        <time>2016-06-04T13:00:10.281Z</time>
      </trkpt>
      <trkpt lat="47.482" lon="6.76789">
        <ele>323.913</ele>
        <time>2016-06-04T13:00:11.281Z</time>
      </trkpt>
      <trkpt lat="47.48206" lon="6.76792">
        <ele>323.619</ele>
        <time>2016-06-04T13:00:12.281Z</time>
      </trkpt>
      <trkpt lat="47.48211" lon="6.76794">
        <ele>323.326</ele>
        <time>2016-06-04T13:00:13.281Z</time>
      </trkpt>
      <trkpt lat="47.48216" lon="6.76796">
        <ele>323.036</ele>
        <time>2016-06-04T13:00:14.281Z</time>
      </trkpt>
      <trkpt lat="47.48221" lon="6.76798">
        <ele>322.751</ele>
        <time>2016-06-04T13:00:15.281Z</time>
      </trkpt>
      <trkpt lat="47.48226" lon="6.768">
        <ele>322.473</ele>
        <time>2016-06-04T13:00:16.281Z</time>
      </trkpt>
      <trkpt lat="47.48231" lon="6.76802">
        <ele>322.204</ele>
        <time>2016-06-04T13:00:17.281Z</time>
      </trkpt>
      <trkpt lat="47.48236" lon="6.76805">
        <ele>321.944</ele>
        <time>2016-06-04T13:00:18.281Z</time>
      </trkpt>
      <trkpt lat="47.48241" lon="6.76808">
        <ele>321.696</ele>
        <time>2016-06-04T13:00:19.281Z</time>
      </trkpt>
      <trkpt lat="47.48246" lon="6.76812">
        <ele>321.461</ele>
        <time>2016-06-04T13:00:20.281Z</time>
      </trkpt>
      <trkpt lat="47.4825" lon="6.76816">
        <ele>321.24</ele>
        <time>2016-06-04T13:00:21.281Z</time>
      </trkpt>
      <trkpt lat="47.48254" lon="6.76821">
        <ele>321.035</ele>
        <time>2016-06-04T13:00:22.281Z</time>
      </trkpt>
      <trkpt lat="47.48257" lon="6.76827">
        <ele>320.845</ele>
        <time>2016-06-04T13:00:23.281Z</time>
      </trkpt>
      <trkpt lat="47.48261" lon="6.76832">
        <ele>320.674</ele>
        <time>2016-06-04T13:00:24.281Z</time>
      </trkpt>
      <trkpt lat="47.48264" lon="6.76838">
        <ele>320.521</ele>
        <time>2016-06-04T13:00:25.281Z</time>
      </trkpt>
      <trkpt lat="47.48268" lon="6.76843">
        <ele>320.386</ele>
        <time>2016-06-04T13:00:26.281Z</time>
      </trkpt>
      <trkpt lat="47.48271" lon="6.76849">
        <ele>320.27</ele>
        <time>2016-06-04T13:00:27.281Z</time>
      </trkpt>
      <trkpt lat="47.48275" lon="6.76854">
        <ele>320.172</ele>
        <time>2016-06-04T13:00:28.281Z</time>
      </trkpt>
      <trkpt lat="47.48279" lon="6.76859">
        <ele>320.089</ele>
        <time>2016-06-04T13:00:29.281Z</time>
      </trkpt>
      <trkpt lat="47.48283" lon="6.76864">
        <ele>320.021</ele>
        <time>2016-06-04T13:00:30.281Z</time>
      </trkpt>
      <trkpt lat="47.48287" lon="6.76869">
        <ele>319.966</ele>
        <time>2016-06-04T13:00:31.281Z</time>
      </trkpt>
      <trkpt lat="47.48291" lon="6.76874">
        <ele>319.923</ele>
        <time>2016-06-04T13:00:32.281Z</time>
      </trkpt>
      <trkpt lat="47.48296" lon="6.76878">
        <ele>319.888</ele>
        <time>2016-06-04T13:00:33.281Z</time>
      </trkpt>
      <trkpt lat="47.483" lon="6.76881">
        <ele>319.861</ele>
        <time>2016-06-04T13:00:34.281Z</time>
      </trkpt>
      <trkpt lat="47.48305" lon="6.76885">
        <ele>319.839</ele>
        <time>2016-06-04T13:00:35.281Z</time>
      </trkpt>
      <trkpt lat="47.48309" lon="6.76889">
        <ele>319.818</ele>
        <time>2016-06-04T13:00:36.281Z</time>
      </trkpt>
      <trkpt lat="47.48313" lon="6.76894">
        <ele>319.797</ele>
        <time>2016-06-04T13:00:37.281Z</time>
      </trkpt>
      <trkpt lat="47.48317" lon="6.76898">
        <ele>319.774</ele>
        <time>2016-06-04T13:00:38.281Z</time>
      </trkpt>
      <trkpt lat="47.48322" lon="6.76903">
        <ele>319.747</ele>
        <time>2016-06-04T13:00:39.281Z</time>
      </trkpt>
      <trkpt lat="47.48326" lon="6.76907">
        <ele>319.717</ele>
        <time>2016-06-04T13:00:40.281Z</time>
      </trkpt>
      <trkpt lat="47.48331" lon="6.7691">
        <ele>319.687</ele>
        <time>2016-06-04T13:00:41.281Z</time>
      </trkpt>
      <trkpt lat="47.48335" lon="6.76913">
        <ele>319.658</ele>
        <time>2016-06-04T13:00:42.281Z</time>
      </trkpt>
      <trkpt lat="47.4834" lon="6.76916">
        <ele>319.634</ele>
        <time>2016-06-04T13:00:43.281Z</time>
      </trkpt>
      <trkpt lat="47.48346" lon="6.76918">
        <ele>319.615</ele>
        <time>2016-06-04T13:00:44.281Z</time>
      </trkpt>
      <trkpt lat="47.48351" lon="6.76922">
        <ele>319.603</ele>
        <time>2016-06-04T13:00:45.281Z</time>
      </trkpt>
      <trkpt lat="47.48356" lon="6.76925">
        <ele>319.6</ele>
        <time>2016-06-04T13:00:46.281Z</time>
      </trkpt>
      <trkpt lat="47.48361" lon="6.76927">
        <ele>319.605</ele>
        <time>2016-06-04T13:00:47.281Z</time>
      </trkpt>
      <trkpt lat="47.48366" lon="6.7693">
        <ele>319.619</ele>
        <time>2016-06-04T13:00:48.281Z</time>
      </trkpt>
      <trkpt lat="47.48371" lon="6.76933">
        <ele>319.642</ele>
        <time>2016-06-04T13:00:49.281Z</time>
      </trkpt>
      <trkpt lat="47.48376" lon="6.76936">
        <ele>319.673</ele>
        <time>2016-06-04T13:00:50.281Z</time>
      </trkpt>
      <trkpt lat="47.48381" lon="6.76938">
        <ele>319.711</ele>
        <time>2016-06-04T13:00:51.281Z</time>
      </trkpt>
      <trkpt lat="47.48386" lon="6.7694">
        <ele>319.754</ele>
        <time>2016-06-04T13:00:52.281Z</time>
      </trkpt>
      <trkpt lat="47.48391" lon="6.76942">
        <ele>319.801</ele>
        <time>2016-06-04T13:00:53.281Z</time>
      </trkpt>
      <trkpt lat="47.48396" lon="6.76945">
        <ele>319.852</ele>
        <time>2016-06-04T13:00:54.281Z</time>
      </trkpt>
      <trkpt lat="47.484" lon="6.76948">
        <ele>319.904</ele>
        <time>2016-06-04T13:00:55.281Z</time>
      </trkpt>
      <trkpt lat="47.48405" lon="6.7695">
        <ele>319.958</ele>
        <time>2016-06-04T13:00:56.281Z</time>
      </trkpt>
      <trkpt lat="47.48409" lon="6.76953">
        <ele>320.011</ele>
        <time>2016-06-04T13:00:57.281Z</time>
      </trkpt>
      <trkpt lat="47.48412" lon="6.76956">
        <ele>320.062</ele>
        <time>2016-06-04T13:00:58.281Z</time>
      </trkpt>
      <trkpt lat="47.48416" lon="6.7696">
        <ele>320.111</ele>
        <time>2016-06-04T13:00:59.281Z</time>
      </trkpt>
      <trkpt lat="47.48421" lon="6.76963">
        <ele>320.156</ele>
        <time>2016-06-04T13:01:00.281Z</time>
      </trkpt>
      <trkpt lat="47.48426" lon="6.76965">
        <ele>320.196</ele>
        <time>2016-06-04T13:01:01.281Z</time>
      </trkpt>
      <trkpt lat="47.48431" lon="6.76967">
        <ele>320.231</ele>
        <time>2016-06-04T13:01:02.281Z</time>
      </trkpt>
      <trkpt lat="47.48436" lon="6.76969">
        <ele>320.261</ele>
        <time>2016-06-04T13:01:03.281Z</time>
      </trkpt>
      <trkpt lat="47.48441" lon="6.76972">
        <ele>320.286</ele>
        <time>2016-06-04T13:01:04.281Z</time>
      </trkpt>
      <trkpt lat="47.48445" lon="6.76975">
        <ele>320.306</ele>
        <time>2016-06-04T13:01:05.281Z</time>
      </trkpt>
      <trkpt lat="47.48451" lon="6.76978">
        <ele>320.321</ele>
        <time>2016-06-04T13:01:06.281Z</time>
      </trkpt>
      <trkpt lat="47.48456" lon="6.76982">
        <ele>320.334</ele>
        <time>2016-06-04T13:01:07.281Z</time>
      </trkpt>
      <trkpt lat="47.48461" lon="6.76985">
        <ele>320.345</ele>
        <time>2016-06-04T13:01:08.281Z</time>
      </trkpt>
      <trkpt lat="47.48466" lon="6.76988">
        <ele>320.356</ele>
        <time>2016-06-04T13:01:09.281Z</time>
      </trkpt>
      <trkpt lat="47.48471" lon="6.76991">
        <ele>320.369</ele>
        <time>2016-06-04T13:01:10.281Z</time>
      </trkpt>
      <trkpt lat="47.48475" lon="6.76994">
        <ele>320.386</ele>
        <time>2016-06-04T13:01:11.281Z</time>
      </trkpt>
      <trkpt lat="47.4848" lon="6.76996">
        <ele>320.409</ele>
        <time>2016-06-04T13:01:12.281Z</time>
      </trkpt>
      <trkpt lat="47.48485" lon="6.76998">
        <ele>320.439</ele>
        <time>2016-06-04T13:01:13.281Z</time>
      </trkpt>
      <trkpt lat="47.48489" lon="6.77">
        <ele>320.476</ele>
        <time>2016-06-04T13:01:14.281Z</time>
      </trkpt>
      <trkpt lat="47.48494" lon="6.77003">
        <ele>320.52</ele>
        <time>2016-06-04T13:01:15.281Z</time>
      </trkpt>
      <trkpt lat="47.48497" lon="6.77007">
        <ele>320.569</ele>
        <time>2016-06-04T13:01:16.281Z</time>
      </trkpt>
      <trkpt lat="47.48501" lon="6.7701">
        <ele>320.623</ele>
        <time>2016-06-04T13:01:17.281Z</time>
      </trkpt>
      <trkpt lat="47.48505" lon="6.77014">
        <ele>320.681</ele>
        <time>2016-06-04T13:01:18.281Z</time>
      </trkpt>
      <trkpt lat="47.48508" lon="6.77019">
        <ele>320.742</ele>
        <time>2016-06-04T13:01:19.281Z</time>
      </trkpt>
      <trkpt lat="47.48512" lon="6.77023">
        <ele>320.805</ele>
        <time>2016-06-04T13:01:20.281Z</time>
      </trkpt>
      <trkpt lat="47.48516" lon="6.77027">
        <ele>320.87</ele>
        <time>2016-06-04T13:01:21.281Z</time>
      </trkpt>
      <trkpt lat="47.4852" lon="6.77031">
        <ele>320.934</ele>
        <time>2016-06-04T13:01:22.281Z</time>
      </trkpt>
      <trkpt lat="47.48525" lon="6.77035">
        <ele>320.997</ele>
        <time>2016-06-04T13:01:23.281Z</time>
      </trkpt>
      <trkpt lat="47.48529" lon="6.7704">
        <ele>321.055</ele>
        <time>2016-06-04T13:01:24.281Z</time>
      </trkpt>
      <trkpt lat="47.48534" lon="6.77044">
        <ele>321.107</ele>
        <time>2016-06-04T13:01:25.281Z</time>
      </trkpt>
      <trkpt lat="47.48539" lon="6.77047">
        <ele>321.15</ele>
        <time>2016-06-04T13:01:26.281Z</time>
      </trkpt>
      <trkpt lat="47.48544" lon="6.77048">
        <ele>321.181</ele>
        <time>2016-06-04T13:01:27.281Z</time>
      </trkpt>
      <trkpt lat="47.48549" lon="6.77049">
        <ele>321.198</ele>
        <time>2016-06-04T13:01:28.281Z</time>
      </trkpt>
      <trkpt lat="47.48553" lon="6.77049">
        <ele>321.199</ele>
        <time>2016-06-04T13:01:29.281Z</time>
      </trkpt>
      <trkpt lat="47.48558" lon="6.7705">
        <ele>321.18</ele>
        <time>2016-06-04T13:01:30.281Z</time>
      </trkpt>
      <trkpt lat="47.48562" lon="6.77052">
        <ele>321.14</ele>
        <time>2016-06-04T13:01:31.281Z</time>
      </trkpt>
      <trkpt lat="47.48567" lon="6.77055">
        <ele>321.075</ele>
        <time>2016-06-04T13:01:32.281Z</time>
      </trkpt>
      <trkpt lat="47.48571" lon="6.77058">
        <ele>320.984</ele>
        <time>2016-06-04T13:01:33.281Z</time>
      </trkpt>
      <trkpt lat="47.48576" lon="6.77061">
        <ele>320.864</ele>
        <time>2016-06-04T13:01:34.281Z</time>
      </trkpt>
      <trkpt lat="47.4858" lon="6.77063">
        <ele>320.716</ele>
        <time>2016-06-04T13:01:35.281Z</time>
      </trkpt>
      <trkpt lat="47.48585" lon="6.77066">
        <ele>320.539</ele>
        <time>2016-06-04T13:01:36.281Z</time>
      </trkpt>
      <trkpt lat="47.4859" lon="6.77068">
        <ele>320.337</ele>
        <time>2016-06-04T13:01:37.281Z</time>
      </trkpt>
      <trkpt lat="47.48595" lon="6.77071">
        <ele>320.111</ele>
        <time>2016-06-04T13:01:38.281Z</time>
      </trkpt>
      <trkpt lat="47.486" lon="6.77074">
        <ele>319.867</ele>
        <time>2016-06-04T13:01:39.281Z</time>
      </trkpt>
      <trkpt lat="47.48606" lon="6.77077">
        <ele>319.606</ele>
        <time>2016-06-04T13:01:40.281Z</time>
      </trkpt>
      <trkpt lat="47.4861" lon="6.7708">
        <ele>319.333</ele>
        <time>2016-06-04T13:01:41.281Z</time>
      </trkpt>
      <trkpt lat="47.48614" lon="6.77083">
        <ele>319.051</ele>
        <time>2016-06-04T13:01:42.281Z</time>
      </trkpt>
      <trkpt lat="47.48618" lon="6.77085">
        <ele>318.761</ele>
        <time>2016-06-04T13:01:43.281Z</time>
      </trkpt>
      <trkpt lat="47.48621" lon="6.77088">
        <ele>318.467</ele>
        <time>2016-06-04T13:01:44.281Z</time>
      </trkpt>
      <trkpt lat="47.48625" lon="6.7709">
        <ele>318.17</ele>
        <time>2016-06-04T13:01:45.281Z</time>
      </trkpt>
      <trkpt lat="47.48629" lon="6.77094">
        <ele>317.874</ele>
        <time>2016-06-04T13:01:46.281Z</time>
      </trkpt>
      <trkpt lat="47.48634" lon="6.77097">
        <ele>317.584</ele>
        <time>2016-06-04T13:01:47.281Z</time>
      </trkpt>
      <trkpt lat="47.48638" lon="6.77102">
        <ele>317.305</ele>
        <time>2016-06-04T13:01:48.281Z</time>
      </trkpt>
      <trkpt lat="47.48642" lon="6.77107">
        <ele>317.042</ele>
        <time>2016-06-04T13:01:49.281Z</time>
      </trkpt>
      <trkpt lat="47.48647" lon="6.77112">
        <ele>316.802</ele>
        <time>2016-06-04T13:01:50.281Z</time>
      </trkpt>
      <trkpt lat="47.48651" lon="6.77117">
        <ele>316.588</ele>
        <time>2016-06-04T13:01:51.281Z</time>
      </trkpt>
      <trkpt lat="47.48655" lon="6.77121">
        <ele>316.401</ele>
        <time>2016-06-04T13:01:52.281Z</time>
      </trkpt>
      <trkpt lat="47.48659" lon="6.77126">
        <ele>316.242</ele>
        <time>2016-06-04T13:01:53.281Z</time>
      </trkpt>
      <trkpt lat="47.48663" lon="6.7713">
        <ele>316.11</ele>
        <time>2016-06-04T13:01:54.281Z</time>
      </trkpt>
      <trkpt lat="47.48667" lon="6.77134">
        <ele>316.005</ele>
        <time>2016-06-04T13:01:55.281Z</time>
      </trkpt>
      <trkpt lat="47.4867" lon="6.77138">
        <ele>315.925</ele>
        <time>2016-06-04T13:01:56.281Z</time>
      </trkpt>
      <trkpt lat="47.48674" lon="6.77142">
        <ele>315.867</ele>
        <time>2016-06-04T13:01:57.281Z</time>
      </trkpt>
      <trkpt lat="47.48677" lon="6.77146">
        <ele>315.831</ele>
        <time>2016-06-04T13:01:58.281Z</time>
      </trkpt>
      <trkpt lat="47.48681" lon="6.77149">
        <ele>315.813</ele>
        <time>2016-06-04T13:01:59.281Z</time>
      </trkpt>
      <trkpt lat="47.48684" lon="6.77153">
        <ele>315.811</ele>
        <time>2016-06-04T13:02:00.281Z</time>
      </trkpt>
      <trkpt lat="47.48687" lon="6.77156">
        <ele>315.822</ele>
        <time>2016-06-04T13:02:01.281Z</time>
      </trkpt>
      <trkpt lat="47.48691" lon="6.77159">
        <ele>315.843</ele>
        <time>2016-06-04T13:02:02.281Z</time>
      </trkpt>
      <trkpt lat="47.48694" lon="6.77162">
        <ele>315.872</ele>
        <time>2016-06-04T13:02:03.281Z</time>
      </trkpt>
      <trkpt lat="47.48698" lon="6.77165">
        <ele>315.906</ele>
        <time>2016-06-04T13:02:04.281Z</time>
      </trkpt>
      <trkpt lat="47.48701" lon="6.77168">
        <ele>315.945</ele>
        <time>2016-06-04T13:02:05.281Z</time>
      </trkpt>
      <trkpt lat="47.48705" lon="6.77171">
        <ele>315.986</ele>
        <time>2016-06-04T13:02:06.281Z</time>
      </trkpt>
      <trkpt lat="47.48708" lon="6.77174">
        <ele>316.03</ele>
        <time>2016-06-04T13:02:07.281Z</time>
      </trkpt>
      <trkpt lat="47.48712" lon="6.77178">
        <ele>316.075</ele>
        <time>2016-06-04T13:02:08.281Z</time>
      </trkpt>
      <trkpt lat="47.48716" lon="6.77181">
        <ele>316.121</ele>
        <time>2016-06-04T13:02:09.281Z</time>
      </trkpt>
      <trkpt lat="47.4872" lon="6.77184">
        <ele>316.168</ele>
        <time>2016-06-04T13:02:10.281Z</time>
      </trkpt>
      <trkpt lat="47.48724" lon="6.77187">
        <ele>316.218</ele>
        <time>2016-06-04T13:02:11.281Z</time>
      </trkpt>
      <trkpt lat="47.48728" lon="6.77191">
        <ele>316.27</ele>
        <time>2016-06-04T13:02:12.281Z</time>
      </trkpt>
      <trkpt lat="47.48732" lon="6.77194">
        <ele>316.325</ele>
        <time>2016-06-04T13:02:13.281Z</time>
      </trkpt>
      <trkpt lat="47.48735" lon="6.77198">
        <ele>316.38</ele>
        <time>2016-06-04T13:02:14.281Z</time>
      </trkpt>
      <trkpt lat="47.48739" lon="6.77201">
        <ele>316.435</ele>
        <time>2016-06-04T13:02:15.281Z</time>
      </trkpt>
      <trkpt lat="47.48743" lon="6.77204">
        <ele>316.488</ele>
        <time>2016-06-04T13:02:16.281Z</time>
      </trkpt>
      <trkpt lat="47.48748" lon="6.77207">
        <ele>316.536</ele>
        <time>2016-06-04T13:02:17.281Z</time>
      </trkpt>
      <trkpt lat="47.48752" lon="6.7721">
        <ele>316.579</ele>
        <time>2016-06-04T13:02:18.281Z</time>
      </trkpt>
      <trkpt lat="47.48756" lon="6.77213">
        <ele>316.615</ele>
        <time>2016-06-04T13:02:19.281Z</time>
      </trkpt>
      <trkpt lat="47.48761" lon="6.77216">
        <ele>316.645</ele>
        <time>2016-06-04T13:02:20.281Z</time>
      </trkpt>
      <trkpt lat="47.48765" lon="6.77219">
        <ele>316.67</ele>
        <time>2016-06-04T13:02:21.281Z</time>
      </trkpt>
      <trkpt lat="47.48769" lon="6.77223">
        <ele>316.689</ele>
        <time>2016-06-04T13:02:22.281Z</time>
      </trkpt>
      <trkpt lat="47.48773" lon="6.77226">
        <ele>316.706</ele>
        <time>2016-06-04T13:02:23.281Z</time>
      </trkpt>
      <trkpt lat="47.48777" lon="6.77229">
        <ele>316.719</ele>
        <time>2016-06-04T13:02:24.281Z</time>
      </trkpt>
      <trkpt lat="47.48781" lon="6.77232">
        <ele>316.73</ele>
        <time>2016-06-04T13:02:25.281Z</time>
      </trkpt>
      <trkpt lat="47.48786" lon="6.77235">
        <ele>316.74</ele>
        <time>2016-06-04T13:02:26.281Z</time>
      </trkpt>
      <trkpt lat="47.4879" lon="6.77238">
        <ele>316.749</ele>
        <time>2016-06-04T13:02:27.281Z</time>
      </trkpt>
      <trkpt lat="47.48794" lon="6.77241">
        <ele>316.758</ele>
        <time>2016-06-04T13:02:28.281Z</time>
      </trkpt>
      <trkpt lat="47.48798" lon="6.77244">
        <ele>316.768</ele>
        <time>2016-06-04T13:02:29.281Z</time>
      </trkpt>
      <trkpt lat="47.48802" lon="6.77247">
        <ele>316.78</ele>
        <time>2016-06-04T13:02:30.281Z</time>
      </trkpt>
      <trkpt lat="47.48806" lon="6.7725">
        <ele>316.794</ele>
        <time>2016-06-04T13:02:31.281Z</time>
      </trkpt>
      <trkpt lat="47.4881" lon="6.77253">
        <ele>316.81</ele>
        <time>2016-06-04T13:02:32.281Z</time>
      </trkpt>
      <trkpt lat="47.48814" lon="6.77256">
        <ele>316.827</ele>
        <time>2016-06-04T13:02:33.281Z</time>
      </trkpt>
      <trkpt lat="47.48817" lon="6.77259">
        <ele>316.846</ele>
        <time>2016-06-04T13:02:34.281Z</time>
      </trkpt>
      <trkpt lat="47.48821" lon="6.77262">
        <ele>316.866</ele>
        <time>2016-06-04T13:02:35.281Z</time>
      </trkpt>
      <trkpt lat="47.48825" lon="6.77264">
        <ele>316.888</ele>
        <time>2016-06-04T13:02:36.281Z</time>
      </trkpt>
      <trkpt lat="47.48828" lon="6.77267">
        <ele>316.913</ele>
        <time>2016-06-04T13:02:37.281Z</time>
      </trkpt>
      <trkpt lat="47.48832" lon="6.7727">
        <ele>316.94</ele>
        <time>2016-06-04T13:02:38.281Z</time>
      </trkpt>
      <trkpt lat="47.48836" lon="6.77273">
        <ele>316.971</ele>
        <time>2016-06-04T13:02:39.281Z</time>
      </trkpt>
      <trkpt lat="47.48839" lon="6.77276">
        <ele>317.006</ele>
        <time>2016-06-04T13:02:40.281Z</time>
      </trkpt>
      <trkpt lat="47.48843" lon="6.77278">
        <ele>317.045</ele>
        <time>2016-06-04T13:02:41.281Z</time>
      </trkpt>
      <trkpt lat="47.48847" lon="6.7728">
        <ele>317.086</ele>
        <time>2016-06-04T13:02:42.281Z</time>
      </trkpt>
      <trkpt lat="47.48851" lon="6.77282">
        <ele>317.128</ele>
        <time>2016-06-04T13:02:43.281Z</time>
      </trkpt>
      <trkpt lat="47.48856" lon="6.77284">
        <ele>317.168</ele>
        <time>2016-06-04T13:02:44.281Z</time>
      </trkpt>
      <trkpt lat="47.4886" lon="6.77286">
        <ele>317.204</ele>
        <time>2016-06-04T13:02:45.281Z</time>
      </trkpt>
      <trkpt lat="47.48865" lon="6.77287">
        <ele>317.231</ele>
        <time>2016-06-04T13:02:46.281Z</time>
      </trkpt>
      <trkpt lat="47.4887" lon="6.77289">
        <ele>317.248</ele>
        <time>2016-06-04T13:02:47.281Z</time>
      </trkpt>
      <trkpt lat="47.48874" lon="6.77291">
        <ele>317.249</ele>
        <time>2016-06-04T13:02:48.281Z</time>
      </trkpt>
      <trkpt lat="47.48879" lon="6.77292">
        <ele>317.233</ele>
        <time>2016-06-04T13:02:49.281Z</time>
      </trkpt>
      <trkpt lat="47.48884" lon="6.77293">
        <ele>317.198</ele>
        <time>2016-06-04T13:02:50.281Z</time>
      </trkpt>
      <trkpt lat="47.48889" lon="6.77295">
        <ele>317.143</ele>
        <time>2016-06-04T13:02:51.281Z</time>
      </trkpt>
      <trkpt lat="47.48894" lon="6.77296">
        <ele>317.07</ele>
        <time>2016-06-04T13:02:52.281Z</time>
      </trkpt>
      <trkpt lat="47.48898" lon="6.77298">
        <ele>316.978</ele>
        <time>2016-06-04T13:02:53.281Z</time>
      </trkpt>
      <trkpt lat="47.48903" lon="6.77299">
        <ele>316.872</ele>
        <time>2016-06-04T13:02:54.281Z</time>
      </trkpt>
      <trkpt lat="47.48907" lon="6.77301">
        <ele>316.755</ele>
        <time>2016-06-04T13:02:55.281Z</time>
      </trkpt>
      <trkpt lat="47.48912" lon="6.77303">
        <ele>316.631</ele>
        <time>2016-06-04T13:02:56.281Z</time>
      </trkpt>
      <trkpt lat="47.48916" lon="6.77305">
        <ele>316.503</ele>
        <time>2016-06-04T13:02:57.281Z</time>
      </trkpt>
      <trkpt lat="47.4892" lon="6.77307">
        <ele>316.375</ele>
        <time>2016-06-04T13:02:58.281Z</time>
      </trkpt>
      <trkpt lat="47.48924" lon="6.77308">
        <ele>316.249</ele>
        <time>2016-06-04T13:02:59.281Z</time>
      </trkpt>
      <trkpt lat="47.48928" lon="6.7731">
        <ele>316.129</ele>
        <time>2016-06-04T13:03:00.281Z</time>
      </trkpt>
      <trkpt lat="47.48932" lon="6.77312">
        <ele>316.018</ele>
        <time>2016-06-04T13:03:01.281Z</time>
      </trkpt>
      <trkpt lat="47.48936" lon="6.77313">
        <ele>315.917</ele>
        <time>2016-06-04T13:03:02.281Z</time>
      </trkpt>
      <trkpt lat="47.4894" lon="6.77315">
        <ele>315.827</ele>
        <time>2016-06-04T13:03:03.281Z</time>
      </trkpt>
      <trkpt lat="47.48945" lon="6.77317">
        <ele>315.75</ele>
        <time>2016-06-04T13:03:04.281Z</time>
      </trkpt>
      <trkpt lat="47.48949" lon="6.77318">
        <ele>315.688</ele>
        <time>2016-06-04T13:03:05.281Z</time>
      </trkpt>
      <trkpt lat="47.48953" lon="6.7732">
        <ele>315.641</ele>
        <time>2016-06-04T13:03:06.281Z</time>
      </trkpt>
      <trkpt lat="47.48957" lon="6.77322">
        <ele>315.61</ele>
        <time>2016-06-04T13:03:07.281Z</time>
      </trkpt>
      <trkpt lat="47.48961" lon="6.77323">
        <ele>315.592</ele>
        <time>2016-06-04T13:03:08.281Z</time>
      </trkpt>
      <trkpt lat="47.48966" lon="6.77324">
        <ele>315.588</ele>
        <time>2016-06-04T13:03:09.281Z</time>
      </trkpt>
      <trkpt lat="47.4897" lon="6.77324">
        <ele>315.596</ele>
        <time>2016-06-04T13:03:10.281Z</time>
      </trkpt>
      <trkpt lat="47.48974" lon="6.77325">
        <ele>315.615</ele>
        <time>2016-06-04T13:03:11.281Z</time>
      </trkpt>
      <trkpt lat="47.48979" lon="6.77325">
        <ele>315.647</ele>
        <time>2016-06-04T13:03:12.281Z</time>
      </trkpt>
      <trkpt lat="47.48983" lon="6.77325">
        <ele>315.691</ele>
        <time>2016-06-04T13:03:13.281Z</time>
      </trkpt>
      <trkpt lat="47.48988" lon="6.77325">
        <ele>315.747</ele>
        <time>2016-06-04T13:03:14.281Z</time>
      </trkpt>
      <trkpt lat="47.48992" lon="6.77325">
        <ele>315.813</ele>
        <time>2016-06-04T13:03:15.281Z</time>
      </trkpt>
      <trkpt lat="47.48997" lon="6.77325">
        <ele>315.886</ele>
        <time>2016-06-04T13:03:16.281Z</time>
      </trkpt>
      <trkpt lat="47.49001" lon="6.77325">
        <ele>315.965</ele>
        <time>2016-06-04T13:03:17.281Z</time>
      </trkpt>
      <trkpt lat="47.49006" lon="6.77326">
        <ele>316.047</ele>
        <time>2016-06-04T13:03:18.281Z</time>
      </trkpt>
      <trkpt lat="47.4901" lon="6.77326">
        <ele>316.13</ele>
        <time>2016-06-04T13:03:19.281Z</time>
      </trkpt>
      <trkpt lat="47.49015" lon="6.77326">
        <ele>316.213</ele>
        <time>2016-06-04T13:03:20.281Z</time>
      </trkpt>
      <trkpt lat="47.49019" lon="6.77326">
        <ele>316.297</ele>
        <time>2016-06-04T13:03:21.281Z</time>
      </trkpt>
      <trkpt lat="47.49024" lon="6.77326">
        <ele>316.381</ele>
        <time>2016-06-04T13:03:22.281Z</time>
      </trkpt>
      <trkpt lat="47.49028" lon="6.77326">
        <ele>316.465</ele>
        <time>2016-06-04T13:03:23.281Z</time>
      </trkpt>
      <trkpt lat="47.49032" lon="6.77327">
        <ele>316.55</ele>
        <time>2016-06-04T13:03:24.281Z</time>
      </trkpt>
      <trkpt lat="47.49036" lon="6.77328">
        <ele>316.636</ele>
        <time>2016-06-04T13:03:25.281Z</time>
      </trkpt>
      <trkpt lat="47.4904" lon="6.77328">
        <ele>316.723</ele>
        <time>2016-06-04T13:03:26.281Z</time>
      </trkpt>
      <trkpt lat="47.49044" lon="6.77329">
        <ele>316.81</ele>
        <time>2016-06-04T13:03:27.281Z</time>
      </trkpt>
      <trkpt lat="47.49048" lon="6.77329">
        <ele>316.898</ele>
        <time>2016-06-04T13:03:28.281Z</time>
      </trkpt>
      <trkpt lat="47.49053" lon="6.7733">
        <ele>316.985</ele>
        <time>2016-06-04T13:03:29.281Z</time>
      </trkpt>
      <trkpt lat="47.49058" lon="6.7733">
        <ele>317.07</ele>
        <time>2016-06-04T13:03:30.281Z</time>
      </trkpt>
      <trkpt lat="47.49063" lon="6.7733">
        <ele>317.153</ele>
        <time>2016-06-04T13:03:31.281Z</time>
      </trkpt>
      <trkpt lat="47.49068" lon="6.7733">
        <ele>317.233</ele>
        <time>2016-06-04T13:03:32.281Z</time>
      </trkpt>
      <trkpt lat="47.49073" lon="6.77331">
        <ele>317.31</ele>
        <time>2016-06-04T13:03:33.281Z</time>
      </trkpt>
      <trkpt lat="47.49077" lon="6.77331">
        <ele>317.386</ele>
        <time>2016-06-04T13:03:34.281Z</time>
      </trkpt>
      <trkpt lat="47.49082" lon="6.77332">
        <ele>317.458</ele>
        <time>2016-06-04T13:03:35.281Z</time>
      </trkpt>
      <trkpt lat="47.49086" lon="6.77332">
        <ele>317.528</ele>
        <time>2016-06-04T13:03:36.281Z</time>
      </trkpt>
      <trkpt lat="47.4909" lon="6.77333">
        <ele>317.595</ele>
        <time>2016-06-04T13:03:37.281Z</time>
      </trkpt>
      <trkpt lat="47.49094" lon="6.77334">
        <ele>317.661</ele>
        <time>2016-06-04T13:03:38.281Z</time>
      </trkpt>
      <trkpt lat="47.49099" lon="6.77334">
        <ele>317.727</ele>
        <time>2016-06-04T13:03:39.281Z</time>
      </trkpt>
      <trkpt lat="47.49104" lon="6.77334">
        <ele>317.792</ele>
        <time>2016-06-04T13:03:40.281Z</time>
      </trkpt>
      <trkpt lat="47.49109" lon="6.77334">
        <ele>317.858</ele>
        <time>2016-06-04T13:03:41.281Z</time>
      </trkpt>
      <trkpt lat="47.49113" lon="6.77334">
        <ele>317.924</ele>
        <time>2016-06-04T13:03:42.281Z</time>
      </trkpt>
      <trkpt lat="47.49118" lon="6.77335">
        <ele>317.991</ele>
        <time>2016-06-04T13:03:43.281Z</time>
      </trkpt>
      <trkpt lat="47.49122" lon="6.77337">
        <ele>318.057</ele>
        <time>2016-06-04T13:03:44.281Z</time>
      </trkpt>
      <trkpt lat="47.49128" lon="6.77336">
        <ele>317.499</ele>
        <time>2016-06-04T13:03:45.854Z</time>
      </trkpt>
      <trkpt lat="47.49133" lon="6.77336">
        <ele>317.967</ele>
        <time>2016-06-04T13:03:46.353Z</time>
      </trkpt>
      <trkpt lat="47.49138" lon="6.77336">
        <ele>315.517</ele>
        <time>2016-06-04T13:03:47.015Z</time>
      </trkpt>
      <trkpt lat="47.49143" lon="6.77336">
        <ele>315.745</ele>
        <time>2016-06-04T13:03:48.011Z</time>
      </trkpt>
      <trkpt lat="47.49148" lon="6.77336">
        <ele>316.044</ele>
        <time>2016-06-04T13:03:49.007Z</time>
      </trkpt>
      <trkpt lat="47.49153" lon="6.77337">
        <ele>315.834</ele>
        <time>2016-06-04T13:03:50.003Z</time>
      </trkpt>
      <trkpt lat="47.49158" lon="6.77337">
        <ele>315.61</ele>
        <time>2016-06-04T13:03:51.000Z</time>
      </trkpt>
      <trkpt lat="47.49162" lon="6.77337">
        <ele>315.743</ele>
        <time>2016-06-04T13:03:52.000Z</time>
      </trkpt>
      <trkpt lat="47.49162" lon="6.77337">
        <ele>315.743</ele>
        <time>2016-06-04T13:04:00.000Z</time>
      </trkpt>
      <trkpt lat="47.49198" lon="6.77339">
        <ele>318.211</ele>
        <time>2016-06-04T13:04:00.000Z</time>
      </trkpt>
      <trkpt lat="47.49201" lon="6.77339">
        <ele>318.257</ele>
        <time>2016-06-04T13:04:01.000Z</time>
      </trkpt>
      <trkpt lat="47.49202" lon="6.7734">
        <ele>318.291</ele>
        <time>2016-06-04T13:04:02.000Z</time>
      </trkpt>
      <trkpt lat="47.49203" lon="6.77341">
        <ele>318.316</ele>
        <time>2016-06-04T13:04:03.000Z</time>
      </trkpt>
      <trkpt lat="47.49204" lon="6.7734">
        <ele>318.331</ele>
        <time>2016-06-04T13:04:04.000Z</time>
      </trkpt>
      <trkpt lat="47.49204" lon="6.7734">
        <ele>318.339</ele>
        <time>2016-06-04T13:04:05.000Z</time>
      </trkpt>
      <trkpt lat="47.49204" lon="6.7734">
        <ele>318.339</ele>
        <time>2016-06-04T13:04:06.000Z</time>
      </trkpt>
      <trkpt lat="47.49204" lon="6.7734">
        <ele>318.334</ele>
        <time>2016-06-04T13:04:07.000Z</time>
      </trkpt>
      <trkpt lat="47.49204" lon="6.7734">
        <ele>318.325</ele>
        <time>2016-06-04T13:04:08.000Z</time>
      </trkpt>
      <trkpt lat="47.49204" lon="6.77339">
        <ele>318.313</ele>
        <time>2016-06-04T13:04:09.000Z</time>
      </trkpt>
      <trkpt lat="47.49205" lon="6.77339">
        <ele>318.299</ele>
        <time>2016-06-04T13:04:10.000Z</time>
      </trkpt>
      <trkpt lat="47.49206" lon="6.77339">
        <ele>318.286</ele>
        <time>2016-06-04T13:04:11.000Z</time>
      </trkpt>
      <trkpt lat="47.49208" lon="6.77339">
        <ele>318.275</ele>
        <time>2016-06-04T13:04:12.000Z</time>
      </trkpt>
      <trkpt lat="47.4921" lon="6.77338">
        <ele>318.269</ele>
        <time>2016-06-04T13:04:13.000Z</time>
      </trkpt>
      <trkpt lat="47.49212" lon="6.77338">
        <ele>318.27</ele>
        <time>2016-06-04T13:04:14.000Z</time>
      </trkpt>
      <trkpt lat="47.49215" lon="6.77338">
        <ele>318.279</ele>
        <time>2016-06-04T13:04:15.000Z</time>
      </trkpt>
      <trkpt lat="47.49218" lon="6.77338">
        <ele>318.297</ele>
        <time>2016-06-04T13:04:16.000Z</time>
      </trkpt>
      <trkpt lat="47.49222" lon="6.77339">
        <ele>318.321</ele>
        <time>2016-06-04T13:04:17.000Z</time>
      </trkpt>
      <trkpt lat="47.49225" lon="6.77339">
        <ele>318.349</ele>
        <time>2016-06-04T13:04:18.000Z</time>
      </trkpt>
      <trkpt lat="47.49229" lon="6.7734">
        <ele>318.38</ele>
        <time>2016-06-04T13:04:19.000Z</time>
      </trkpt>
      <trkpt lat="47.49233" lon="6.7734">
        <ele>318.411</ele>
        <time>2016-06-04T13:04:20.000Z</time>
      </trkpt>
      <trkpt lat="47.49238" lon="6.7734">
        <ele>318.438</ele>
        <time>2016-06-04T13:04:21.000Z</time>
      </trkpt>
      <trkpt lat="47.49242" lon="6.77339">
        <ele>318.46</ele>
        <time>2016-06-04T13:04:22.000Z</time>
      </trkpt>
      <trkpt lat="47.49246" lon="6.77338">
        <ele>318.475</ele>
        <time>2016-06-04T13:04:23.000Z</time>
      </trkpt>
      <trkpt lat="47.4925" lon="6.77336">
        <ele>318.48</ele>
        <time>2016-06-04T13:04:24.000Z</time>
      </trkpt>
      <trkpt lat="47.49254" lon="6.77334">
        <ele>318.477</ele>
        <time>2016-06-04T13:04:25.000Z</time>
      </trkpt>
      <trkpt lat="47.49259" lon="6.7733">
        <ele>318.465</ele>
        <time>2016-06-04T13:04:26.000Z</time>
      </trkpt>
      <trkpt lat="47.49264" lon="6.77327">
        <ele>318.445</ele>
        <time>2016-06-04T13:04:27.000Z</time>
      </trkpt>
      <trkpt lat="47.4927" lon="6.77326">
        <ele>318.421</ele>
        <time>2016-06-04T13:04:28.000Z</time>
      </trkpt>
      <trkpt lat="47.49276" lon="6.77326">
        <ele>318.394</ele>
        <time>2016-06-04T13:04:29.000Z</time>
      </trkpt>
      <trkpt lat="47.49282" lon="6.77327">
        <ele>318.369</ele>
        <time>2016-06-04T13:04:30.000Z</time>
      </trkpt>
      <trkpt lat="47.49288" lon="6.77327">
        <ele>318.349</ele>
        <time>2016-06-04T13:04:31.000Z</time>
      </trkpt>
      <trkpt lat="47.49295" lon="6.77328">
        <ele>318.338</ele>
        <time>2016-06-04T13:04:32.000Z</time>
      </trkpt>
      <trkpt lat="47.49301" lon="6.77328">
        <ele>318.337</ele>
        <time>2016-06-04T13:04:33.000Z</time>
      </trkpt>
      <trkpt lat="47.49307" lon="6.77329">
        <ele>318.348</ele>
        <time>2016-06-04T13:04:34.000Z</time>
      </trkpt>
      <trkpt lat="47.49313" lon="6.77329">
        <ele>318.37</ele>
        <time>2016-06-04T13:04:35.000Z</time>
      </trkpt>
      <trkpt lat="47.49318" lon="6.77331">
        <ele>318.402</ele>
        <time>2016-06-04T13:04:36.000Z</time>
      </trkpt>
      <trkpt lat="47.49323" lon="6.77333">
        <ele>318.441</ele>
        <time>2016-06-04T13:04:37.000Z</time>
      </trkpt>
      <trkpt lat="47.49327" lon="6.77336">
        <ele>318.487</ele>
        <time>2016-06-04T13:04:38.000Z</time>
      </trkpt>
      <trkpt lat="47.49331" lon="6.77338">
        <ele>318.539</ele>
        <time>2016-06-04T13:04:39.000Z</time>
      </trkpt>
      <trkpt lat="47.49335" lon="6.77341">
        <ele>318.594</ele>
        <time>2016-06-04T13:04:40.000Z</time>
      </trkpt>
      <trkpt lat="47.49339" lon="6.77343">
        <ele>318.653</ele>
        <time>2016-06-04T13:04:41.000Z</time>
      </trkpt>
      <trkpt lat="47.49343" lon="6.77344">
        <ele>318.714</ele>
        <time>2016-06-04T13:04:42.000Z</time>
      </trkpt>
      <trkpt lat="47.49347" lon="6.77345">
        <ele>318.777</ele>
        <time>2016-06-04T13:04:43.000Z</time>
      </trkpt>
      <trkpt lat="47.49351" lon="6.77346">
        <ele>318.841</ele>
        <time>2016-06-04T13:04:44.000Z</time>
      </trkpt>
      <trkpt lat="47.49356" lon="6.77346">
        <ele>318.907</ele>
        <time>2016-06-04T13:04:45.000Z</time>
      </trkpt>
      <trkpt lat="47.49361" lon="6.77346">
        <ele>318.973</ele>
        <time>2016-06-04T13:04:46.000Z</time>
      </trkpt>
      <trkpt lat="47.49366" lon="6.77347">
        <ele>319.04</ele>
        <time>2016-06-04T13:04:47.000Z</time>
      </trkpt>
      <trkpt lat="47.4937" lon="6.77348">
        <ele>319.107</ele>
        <time>2016-06-04T13:04:48.000Z</time>
      </trkpt>
      <trkpt lat="47.49375" lon="6.77348">
        <ele>319.174</ele>
        <time>2016-06-04T13:04:49.000Z</time>
      </trkpt>
      <trkpt lat="47.49379" lon="6.77348">
        <ele>319.241</ele>
        <time>2016-06-04T13:04:50.000Z</time>
      </trkpt>
      <trkpt lat="47.49384" lon="6.77348">
        <ele>319.307</ele>
        <time>2016-06-04T13:04:51.000Z</time>
      </trkpt>
      <trkpt lat="47.49389" lon="6.77348">
        <ele>319.371</ele>
        <time>2016-06-04T13:04:52.000Z</time>
      </trkpt>
      <trkpt lat="47.49393" lon="6.77349">
        <ele>319.434</ele>
        <time>2016-06-04T13:04:53.000Z</time>
      </trkpt>
      <trkpt lat="47.49398" lon="6.7735">
        <ele>319.494</ele>
        <time>2016-06-04T13:04:54.000Z</time>
      </trkpt>
      <trkpt lat="47.49403" lon="6.7735">
        <ele>319.551</ele>
        <time>2016-06-04T13:04:55.000Z</time>
      </trkpt>
      <trkpt lat="47.49407" lon="6.77351">
        <ele>319.605</ele>
        <time>2016-06-04T13:04:56.000Z</time>
      </trkpt>
      <trkpt lat="47.49412" lon="6.77351">
        <ele>319.654</ele>
        <time>2016-06-04T13:04:57.000Z</time>
      </trkpt>
      <trkpt lat="47.49416" lon="6.77352">
        <ele>319.7</ele>
        <time>2016-06-04T13:04:58.000Z</time>
      </trkpt>
      <trkpt lat="47.49421" lon="6.77352">
        <ele>319.74</ele>
        <time>2016-06-04T13:04:59.000Z</time>
      </trkpt>
      <trkpt lat="47.49426" lon="6.77353">
        <ele>319.777</ele>
        <time>2016-06-04T13:05:00.000Z</time>
      </trkpt>
      <trkpt lat="47.49431" lon="6.77353">
        <ele>319.811</ele>
        <time>2016-06-04T13:05:01.000Z</time>
      </trkpt>
      <trkpt lat="47.49436" lon="6.77353">
        <ele>319.843</ele>
        <time>2016-06-04T13:05:02.000Z</time>
      </trkpt>
      <trkpt lat="47.49441" lon="6.77354">
        <ele>319.873</ele>
        <time>2016-06-04T13:05:03.000Z</time>
      </trkpt>
      <trkpt lat="47.49445" lon="6.77354">
        <ele>319.904</ele>
        <time>2016-06-04T13:05:04.000Z</time>
      </trkpt>
      <trkpt lat="47.4945" lon="6.77354">
        <ele>319.935</ele>
        <time>2016-06-04T13:05:05.000Z</time>
      </trkpt>
      <trkpt lat="47.49455" lon="6.77355">
        <ele>319.967</ele>
        <time>2016-06-04T13:05:06.000Z</time>
      </trkpt>
      <trkpt lat="47.4946" lon="6.77355">
        <ele>319.999</ele>
        <time>2016-06-04T13:05:07.000Z</time>
      </trkpt>
      <trkpt lat="47.49465" lon="6.77355">
        <ele>320.033</ele>
        <time>2016-06-04T13:05:08.000Z</time>
      </trkpt>
      <trkpt lat="47.4947" lon="6.77355">
        <ele>320.068</ele>
        <time>2016-06-04T13:05:09.000Z</time>
      </trkpt>
      <trkpt lat="47.49475" lon="6.77356">
        <ele>320.106</ele>
        <time>2016-06-04T13:05:10.000Z</time>
      </trkpt>
      <trkpt lat="47.4948" lon="6.77356">
        <ele>320.147</ele>
        <time>2016-06-04T13:05:11.000Z</time>
      </trkpt>
      <trkpt lat="47.49485" lon="6.77356">
        <ele>320.193</ele>
        <time>2016-06-04T13:05:12.000Z</time>
      </trkpt>
      <trkpt lat="47.4949" lon="6.77357">
        <ele>320.243</ele>
        <time>2016-06-04T13:05:13.000Z</time>
      </trkpt>
      <trkpt lat="47.49495" lon="6.77357">
        <ele>320.299</ele>
        <time>2016-06-04T13:05:14.000Z</time>
      </trkpt>
      <trkpt lat="47.495" lon="6.77357">
        <ele>320.361</ele>
        <time>2016-06-04T13:05:15.000Z</time>
      </trkpt>
      <trkpt lat="47.49505" lon="6.77358">
        <ele>320.429</ele>
        <time>2016-06-04T13:05:16.000Z</time>
      </trkpt>
      <trkpt lat="47.4951" lon="6.77358">
        <ele>320.505</ele>
        <time>2016-06-04T13:05:17.000Z</time>
      </trkpt>
      <trkpt lat="47.49515" lon="6.77359">
        <ele>320.586</ele>
        <time>2016-06-04T13:05:18.000Z</time>
      </trkpt>
      <trkpt lat="47.49519" lon="6.77359">
        <ele>320.671</ele>
        <time>2016-06-04T13:05:19.000Z</time>
      </trkpt>
      <trkpt lat="47.49524" lon="6.7736">
        <ele>320.759</ele>
        <time>2016-06-04T13:05:20.000Z</time>
      </trkpt>
      <trkpt lat="47.49529" lon="6.7736">
        <ele>320.847</ele>
        <time>2016-06-04T13:05:21.000Z</time>
      </trkpt>
      <trkpt lat="47.49533" lon="6.77361">
        <ele>320.935</ele>
        <time>2016-06-04T13:05:22.000Z</time>
      </trkpt>
      <trkpt lat="47.49538" lon="6.77361">
        <ele>321.021</ele>
        <time>2016-06-04T13:05:23.000Z</time>
      </trkpt>
      <trkpt lat="47.49543" lon="6.77361">
        <ele>321.106</ele>
        <time>2016-06-04T13:05:24.000Z</time>
      </trkpt>
      <trkpt lat="47.49547" lon="6.77362">
        <ele>321.188</ele>
        <time>2016-06-04T13:05:25.000Z</time>
      </trkpt>
      <trkpt lat="47.49552" lon="6.77362">
        <ele>321.267</ele>
        <time>2016-06-04T13:05:26.000Z</time>
      </trkpt>
      <trkpt lat="47.49557" lon="6.77363">
        <ele>321.34</ele>
        <time>2016-06-04T13:05:27.000Z</time>
      </trkpt>
      <trkpt lat="47.49562" lon="6.77363">
        <ele>321.406</ele>
        <time>2016-06-04T13:05:28.000Z</time>
      </trkpt>
      <trkpt lat="47.49567" lon="6.77363">
        <ele>321.465</ele>
        <time>2016-06-04T13:05:29.000Z</time>
      </trkpt>
      <trkpt lat="47.49571" lon="6.77363">
        <ele>321.516</ele>
        <time>2016-06-04T13:05:30.000Z</time>
      </trkpt>
      <trkpt lat="47.49576" lon="6.77363">
        <ele>321.557</ele>
        <time>2016-06-04T13:05:31.000Z</time>
      </trkpt>
      <trkpt lat="47.49581" lon="6.77363">
        <ele>321.588</ele>
        <time>2016-06-04T13:05:32.000Z</time>
      </trkpt>
      <trkpt lat="47.49586" lon="6.77362">
        <ele>321.608</ele>
        <time>2016-06-04T13:05:33.000Z</time>
      </trkpt>
      <trkpt lat="47.4959" lon="6.77362">
        <ele>321.615</ele>
        <time>2016-06-04T13:05:34.000Z</time>
      </trkpt>
      <trkpt lat="47.49595" lon="6.77361">
        <ele>321.608</ele>
        <time>2016-06-04T13:05:35.000Z</time>
      </trkpt>
      <trkpt lat="47.496" lon="6.77361">
        <ele>321.588</ele>
        <time>2016-06-04T13:05:36.000Z</time>
      </trkpt>
      <trkpt lat="47.49604" lon="6.7736">
        <ele>321.553</ele>
        <time>2016-06-04T13:05:37.000Z</time>
      </trkpt>
      <trkpt lat="47.49609" lon="6.77359">
        <ele>321.503</ele>
        <time>2016-06-04T13:05:38.000Z</time>
      </trkpt>
      <trkpt lat="47.49614" lon="6.77358">
        <ele>321.44</ele>
        <time>2016-06-04T13:05:39.000Z</time>
      </trkpt>
      <trkpt lat="47.49618" lon="6.77356">
        <ele>321.364</ele>
        <time>2016-06-04T13:05:40.000Z</time>
      </trkpt>
      <trkpt lat="47.49623" lon="6.77355">
        <ele>321.277</ele>
        <time>2016-06-04T13:05:41.000Z</time>
      </trkpt>
      <trkpt lat="47.49628" lon="6.77353">
        <ele>321.183</ele>
        <time>2016-06-04T13:05:42.000Z</time>
      </trkpt>
      <trkpt lat="47.49633" lon="6.77352">
        <ele>321.082</ele>
        <time>2016-06-04T13:05:43.000Z</time>
      </trkpt>
      <trkpt lat="47.49638" lon="6.77351">
        <ele>320.978</ele>
        <time>2016-06-04T13:05:44.000Z</time>
      </trkpt>
      <trkpt lat="47.49644" lon="6.7735">
        <ele>320.873</ele>
        <time>2016-06-04T13:05:45.000Z</time>
      </trkpt>
      <trkpt lat="47.49649" lon="6.77348">
        <ele>320.769</ele>
        <time>2016-06-04T13:05:46.000Z</time>
      </trkpt>
      <trkpt lat="47.49653" lon="6.77347">
        <ele>320.667</ele>
        <time>2016-06-04T13:05:47.000Z</time>
      </trkpt>
      <trkpt lat="47.49658" lon="6.77346">
        <ele>320.566</ele>
        <time>2016-06-04T13:05:48.000Z</time>
      </trkpt>
      <trkpt lat="47.49663" lon="6.77345">
        <ele>320.468</ele>
        <time>2016-06-04T13:05:49.000Z</time>
      </trkpt>
      <trkpt lat="47.49667" lon="6.77344">
        <ele>320.372</ele>
        <time>2016-06-04T13:05:50.000Z</time>
      </trkpt>
      <trkpt lat="47.49672" lon="6.77343">
        <ele>320.279</ele>
        <time>2016-06-04T13:05:51.000Z</time>
      </trkpt>
      <trkpt lat="47.49677" lon="6.77341">
        <ele>320.188</ele>
        <time>2016-06-04T13:05:52.000Z</time>
      </trkpt>
      <trkpt lat="47.49683" lon="6.7734">
        <ele>320.1</ele>
        <time>2016-06-04T13:05:53.000Z</time>
      </trkpt>
      <trkpt lat="47.49688" lon="6.77339">
        <ele>320.015</ele>
        <time>2016-06-04T13:05:54.000Z</time>
      </trkpt>
      <trkpt lat="47.49693" lon="6.77337">
        <ele>319.934</ele>
        <time>2016-06-04T13:05:55.000Z</time>
      </trkpt>
      <trkpt lat="47.49698" lon="6.77336">
        <ele>319.858</ele>
        <time>2016-06-04T13:05:56.000Z</time>
      </trkpt>
      <trkpt lat="47.49703" lon="6.77335">
        <ele>319.79</ele>
        <time>2016-06-04T13:05:57.000Z</time>
      </trkpt>
      <trkpt lat="47.49707" lon="6.77334">
        <ele>319.73</ele>
        <time>2016-06-04T13:05:58.000Z</time>
      </trkpt>
      <trkpt lat="47.49712" lon="6.77333">
        <ele>319.682</ele>
        <time>2016-06-04T13:05:59.000Z</time>
      </trkpt>
      <trkpt lat="47.49717" lon="6.77332">
        <ele>319.647</ele>
        <time>2016-06-04T13:06:00.000Z</time>
      </trkpt>
      <trkpt lat="47.49722" lon="6.77331">
        <ele>319.627</ele>
        <time>2016-06-04T13:06:01.000Z</time>
      </trkpt>
      <trkpt lat="47.49727" lon="6.77329">
        <ele>319.624</ele>
        <time>2016-06-04T13:06:02.000Z</time>
      </trkpt>
      <trkpt lat="47.49731" lon="6.77327">
        <ele>319.637</ele>
        <time>2016-06-04T13:06:03.000Z</time>
      </trkpt>
      <trkpt lat="47.49736" lon="6.77324">
        <ele>319.669</ele>
        <time>2016-06-04T13:06:04.000Z</time>
      </trkpt>
      <trkpt lat="47.49741" lon="6.77321">
        <ele>319.718</ele>
        <time>2016-06-04T13:06:05.000Z</time>
      </trkpt>
      <trkpt lat="47.49746" lon="6.77318">
        <ele>319.784</ele>
        <time>2016-06-04T13:06:06.000Z</time>
      </trkpt>
      <trkpt lat="47.49751" lon="6.77315">
        <ele>319.867</ele>
        <time>2016-06-04T13:06:07.000Z</time>
      </trkpt>
      <trkpt lat="47.49755" lon="6.77313">
        <ele>319.966</ele>
        <time>2016-06-04T13:06:08.000Z</time>
      </trkpt>
      <trkpt lat="47.4976" lon="6.77311">
        <ele>320.078</ele>
        <time>2016-06-04T13:06:09.000Z</time>
      </trkpt>
      <trkpt lat="47.49766" lon="6.7731">
        <ele>320.204</ele>
        <time>2016-06-04T13:06:10.000Z</time>
      </trkpt>
      <trkpt lat="47.49771" lon="6.7731">
        <ele>320.343</ele>
        <time>2016-06-04T13:06:11.000Z</time>
      </trkpt>
      <trkpt lat="47.49776" lon="6.7731">
        <ele>320.494</ele>
        <time>2016-06-04T13:06:12.000Z</time>
      </trkpt>
      <trkpt lat="47.49782" lon="6.7731">
        <ele>320.659</ele>
        <time>2016-06-04T13:06:13.000Z</time>
      </trkpt>
      <trkpt lat="47.49787" lon="6.7731">
        <ele>320.836</ele>
        <time>2016-06-04T13:06:14.000Z</time>
      </trkpt>
      <trkpt lat="47.49792" lon="6.7731">
        <ele>321.027</ele>
        <time>2016-06-04T13:06:15.000Z</time>
      </trkpt>
      <trkpt lat="47.49797" lon="6.7731">
        <ele>321.231</ele>
        <time>2016-06-04T13:06:16.000Z</time>
      </trkpt>
      <trkpt lat="47.49801" lon="6.7731">
        <ele>321.447</ele>
        <time>2016-06-04T13:06:17.000Z</time>
      </trkpt>
      <trkpt lat="47.49806" lon="6.77309">
        <ele>321.672</ele>
        <time>2016-06-04T13:06:18.000Z</time>
      </trkpt>
      <trkpt lat="47.4981" lon="6.77309">
        <ele>321.903</ele>
        <time>2016-06-04T13:06:19.000Z</time>
      </trkpt>
      <trkpt lat="47.49815" lon="6.77309">
        <ele>322.138</ele>
        <time>2016-06-04T13:06:20.000Z</time>
      </trkpt>
      <trkpt lat="47.49821" lon="6.77308">
        <ele>322.373</ele>
        <time>2016-06-04T13:06:21.000Z</time>
      </trkpt>
      <trkpt lat="47.49827" lon="6.77308">
        <ele>322.606</ele>
        <time>2016-06-04T13:06:22.000Z</time>
      </trkpt>
      <trkpt lat="47.49832" lon="6.77307">
        <ele>322.834</ele>
        <time>2016-06-04T13:06:23.000Z</time>
      </trkpt>
      <trkpt lat="47.49838" lon="6.77306">
        <ele>323.058</ele>
        <time>2016-06-04T13:06:24.000Z</time>
      </trkpt>
      <trkpt lat="47.49844" lon="6.77305">
        <ele>323.278</ele>
        <time>2016-06-04T13:06:25.000Z</time>
      </trkpt>
      <trkpt lat="47.49849" lon="6.77305">
        <ele>323.494</ele>
        <time>2016-06-04T13:06:26.000Z</time>
      </trkpt>
      <trkpt lat="47.49854" lon="6.77304">
        <ele>323.708</ele>
        <time>2016-06-04T13:06:27.000Z</time>
      </trkpt>
      <trkpt lat="47.49859" lon="6.77305">
        <ele>323.921</ele>
        <time>2016-06-04T13:06:28.000Z</time>
      </trkpt>
      <trkpt lat="47.49863" lon="6.77306">
        <ele>324.132</ele>
        <time>2016-06-04T13:06:29.000Z</time>
      </trkpt>
      <trkpt lat="47.49869" lon="6.77302">
        <ele>324.073</ele>
        <time>2016-06-04T13:06:30.000Z</time>
      </trkpt>
      <trkpt lat="47.49875" lon="6.773">
        <ele>324.401</ele>
        <time>2016-06-04T13:06:31.000Z</time>
      </trkpt>
      <trkpt lat="47.49877" lon="6.77302">
        <ele>319.35</ele>
        <time>2016-06-04T13:06:32.000Z</time>
      </trkpt>
      <trkpt lat="47.49879" lon="6.77301">
        <ele>319.269</ele>
        <time>2016-06-04T13:06:33.000Z</time>
      </trkpt>
      <trkpt lat="47.49884" lon="6.77299">
        <ele>318.938</ele>
        <time>2016-06-04T13:06:34.000Z</time>
      </trkpt>
      <trkpt lat="47.4989" lon="6.77296">
        <ele>318.61</ele>
        <time>2016-06-04T13:06:35.000Z</time>
      </trkpt>
      <trkpt lat="47.4989" lon="6.77296">
        <ele>318.61</ele>
        <time>2016-06-04T13:06:40.497Z</time>
      </trkpt>
      <trkpt lat="47.49917" lon="6.77282">
        <ele>321.559</ele>
        <time>2016-06-04T13:06:41.200Z</time>
      </trkpt>
      <trkpt lat="47.49922" lon="6.77279">
        <ele>317.009</ele>
        <time>2016-06-04T13:06:42.243Z</time>
      </trkpt>
      <trkpt lat="47.49927" lon="6.77276">
        <ele>317.428</ele>
        <time>2016-06-04T13:06:43.376Z</time>
      </trkpt>
      <trkpt lat="47.49931" lon="6.77273">
        <ele>317.692</ele>
        <time>2016-06-04T13:06:44.405Z</time>
      </trkpt>
      <trkpt lat="47.49936" lon="6.77271">
        <ele>317.948</ele>
        <time>2016-06-04T13:06:45.391Z</time>
      </trkpt>
      <trkpt lat="47.49942" lon="6.77265">
        <ele>320.117</ele>
        <time>2016-06-04T13:06:46.391Z</time>
      </trkpt>
      <trkpt lat="47.49944" lon="6.77266">
        <ele>320.363</ele>
        <time>2016-06-04T13:06:47.391Z</time>
      </trkpt>
      <trkpt lat="47.49948" lon="6.77264">
        <ele>320.607</ele>
        <time>2016-06-04T13:06:48.391Z</time>
      </trkpt>
      <trkpt lat="47.49952" lon="6.77263">
        <ele>320.846</ele>
        <time>2016-06-04T13:06:49.391Z</time>
      </trkpt>
      <trkpt lat="47.49956" lon="6.7726">
        <ele>321.076</ele>
        <time>2016-06-04T13:06:50.391Z</time>
      </trkpt>
      <trkpt lat="47.4996" lon="6.77257">
        <ele>321.295</ele>
        <time>2016-06-04T13:06:51.391Z</time>
      </trkpt>
      <trkpt lat="47.49965" lon="6.77255">
        <ele>321.5</ele>
        <time>2016-06-04T13:06:52.391Z</time>
      </trkpt>
      <trkpt lat="47.4997" lon="6.77252">
        <ele>321.686</ele>
        <time>2016-06-04T13:06:53.391Z</time>
      </trkpt>
      <trkpt lat="47.49975" lon="6.7725">
        <ele>321.852</ele>
        <time>2016-06-04T13:06:54.391Z</time>
      </trkpt>
      <trkpt lat="47.4998" lon="6.77247">
        <ele>321.994</ele>
        <time>2016-06-04T13:06:55.391Z</time>
      </trkpt>
      <trkpt lat="47.49986" lon="6.77245">
        <ele>322.111</ele>
        <time>2016-06-04T13:06:56.391Z</time>
      </trkpt>
      <trkpt lat="47.49991" lon="6.77243">
        <ele>322.201</ele>
        <time>2016-06-04T13:06:57.391Z</time>
      </trkpt>
      <trkpt lat="47.49996" lon="6.7724">
        <ele>322.265</ele>
        <time>2016-06-04T13:06:58.391Z</time>
      </trkpt>
      <trkpt lat="47.50001" lon="6.77238">
        <ele>322.302</ele>
        <time>2016-06-04T13:06:59.391Z</time>
      </trkpt>
      <trkpt lat="47.50006" lon="6.77236">
        <ele>322.314</ele>
        <time>2016-06-04T13:07:00.391Z</time>
      </trkpt>
      <trkpt lat="47.5001" lon="6.77236">
        <ele>322.3</ele>
        <time>2016-06-04T13:07:01.391Z</time>
      </trkpt>
      <trkpt lat="47.50013" lon="6.77237">
        <ele>322.264</ele>
        <time>2016-06-04T13:07:02.391Z</time>
      </trkpt>
      <trkpt lat="47.50015" lon="6.77241">
        <ele>322.208</ele>
        <time>2016-06-04T13:07:03.391Z</time>
      </trkpt>
      <trkpt lat="47.50017" lon="6.77245">
        <ele>322.133</ele>
        <time>2016-06-04T13:07:04.391Z</time>
      </trkpt>
      <trkpt lat="47.50017" lon="6.77251">
        <ele>322.041</ele>
        <time>2016-06-04T13:07:05.391Z</time>
      </trkpt>
      <trkpt lat="47.50018" lon="6.77258">
        <ele>321.934</ele>
        <time>2016-06-04T13:07:06.391Z</time>
      </trkpt>
      <trkpt lat="47.50019" lon="6.77265">
        <ele>321.814</ele>
        <time>2016-06-04T13:07:07.391Z</time>
      </trkpt>
      <trkpt lat="47.5002" lon="6.77272">
        <ele>321.682</ele>
        <time>2016-06-04T13:07:08.391Z</time>
      </trkpt>
      <trkpt lat="47.50021" lon="6.77279">
        <ele>321.541</ele>
        <time>2016-06-04T13:07:09.391Z</time>
      </trkpt>
      <trkpt lat="47.50022" lon="6.77287">
        <ele>321.395</ele>
        <time>2016-06-04T13:07:10.391Z</time>
      </trkpt>
      <trkpt lat="47.50023" lon="6.77295">
        <ele>321.246</ele>
        <time>2016-06-04T13:07:11.391Z</time>
      </trkpt>
      <trkpt lat="47.50025" lon="6.77302">
        <ele>321.097</ele>
        <time>2016-06-04T13:07:12.391Z</time>
      </trkpt>
      <trkpt lat="47.50026" lon="6.7731">
        <ele>320.95</ele>
        <time>2016-06-04T13:07:13.391Z</time>
      </trkpt>
      <trkpt lat="47.50028" lon="6.77317">
        <ele>320.807</ele>
        <time>2016-06-04T13:07:14.391Z</time>
      </trkpt>
      <trkpt lat="47.5003" lon="6.77325">
        <ele>320.666</ele>
        <time>2016-06-04T13:07:15.391Z</time>
      </trkpt>
      <trkpt lat="47.50032" lon="6.77332">
        <ele>320.529</ele>
        <time>2016-06-04T13:07:16.391Z</time>
      </trkpt>
      <trkpt lat="47.50034" lon="6.77339">
        <ele>320.398</ele>
        <time>2016-06-04T13:07:17.391Z</time>
      </trkpt>
      <trkpt lat="47.50037" lon="6.77346">
        <ele>320.273</ele>
        <time>2016-06-04T13:07:18.391Z</time>
      </trkpt>
      <trkpt lat="47.5004" lon="6.77353">
        <ele>320.157</ele>
        <time>2016-06-04T13:07:19.391Z</time>
      </trkpt>
      <trkpt lat="47.50044" lon="6.77359">
        <ele>320.051</ele>
        <time>2016-06-04T13:07:20.391Z</time>
      </trkpt>
      <trkpt lat="47.50048" lon="6.77365">
        <ele>319.958</ele>
        <time>2016-06-04T13:07:21.391Z</time>
      </trkpt>
      <trkpt lat="47.50052" lon="6.77371">
        <ele>319.881</ele>
        <time>2016-06-04T13:07:22.391Z</time>
      </trkpt>
      <trkpt lat="47.50057" lon="6.77377">
        <ele>319.82</ele>
        <time>2016-06-04T13:07:23.391Z</time>
      </trkpt>
      <trkpt lat="47.50061" lon="6.77382">
        <ele>319.776</ele>
        <time>2016-06-04T13:07:24.391Z</time>
      </trkpt>
      <trkpt lat="47.50066" lon="6.77385">
        <ele>319.748</ele>
        <time>2016-06-04T13:07:25.391Z</time>
      </trkpt>
      <trkpt lat="47.50072" lon="6.77385">
        <ele>319.734</ele>
        <time>2016-06-04T13:07:26.391Z</time>
      </trkpt>
      <trkpt lat="47.50077" lon="6.77384">
        <ele>319.731</ele>
        <time>2016-06-04T13:07:27.391Z</time>
      </trkpt>
      <trkpt lat="47.50083" lon="6.77382">
        <ele>319.737</ele>
        <time>2016-06-04T13:07:28.391Z</time>
      </trkpt>
      <trkpt lat="47.50088" lon="6.77381">
        <ele>319.75</ele>
        <time>2016-06-04T13:07:29.391Z</time>
      </trkpt>
      <trkpt lat="47.50092" lon="6.7738">
        <ele>319.768</ele>
        <time>2016-06-04T13:07:30.391Z</time>
      </trkpt>
      <trkpt lat="47.50096" lon="6.77379">
        <ele>319.789</ele>
        <time>2016-06-04T13:07:31.391Z</time>
      </trkpt>
      <trkpt lat="47.501" lon="6.77378">
        <ele>319.811</ele>
        <time>2016-06-04T13:07:32.391Z</time>
      </trkpt>
      <trkpt lat="47.50103" lon="6.77378">
        <ele>319.834</ele>
        <time>2016-06-04T13:07:33.391Z</time>
      </trkpt>
      <trkpt lat="47.50106" lon="6.77378">
        <ele>319.856</ele>
        <time>2016-06-04T13:07:34.391Z</time>
      </trkpt>
      <trkpt lat="47.50109" lon="6.77377">
        <ele>319.877</ele>
        <time>2016-06-04T13:07:35.391Z</time>
      </trkpt>
      <trkpt lat="47.50112" lon="6.77377">
        <ele>319.896</ele>
        <time>2016-06-04T13:07:36.391Z</time>
      </trkpt>
      <trkpt lat="47.50115" lon="6.77377">
        <ele>319.913</ele>
        <time>2016-06-04T13:07:37.391Z</time>
      </trkpt>
      <trkpt lat="47.50118" lon="6.77376">
        <ele>319.928</ele>
        <time>2016-06-04T13:07:38.391Z</time>
      </trkpt>
      <trkpt lat="47.50122" lon="6.77376">
        <ele>319.939</ele>
        <time>2016-06-04T13:07:39.391Z</time>
      </trkpt>
      <trkpt lat="47.50126" lon="6.77374">
        <ele>319.947</ele>
        <time>2016-06-04T13:07:40.391Z</time>
      </trkpt>
      <trkpt lat="47.50132" lon="6.77373">
        <ele>319.95</ele>
        <time>2016-06-04T13:07:41.391Z</time>
      </trkpt>
      <trkpt lat="47.50138" lon="6.77372">
        <ele>319.946</ele>
        <time>2016-06-04T13:07:42.391Z</time>
      </trkpt>
      <trkpt lat="47.50144" lon="6.77373">
        <ele>319.935</ele>
        <time>2016-06-04T13:07:43.391Z</time>
      </trkpt>
      <trkpt lat="47.5015" lon="6.77375">
        <ele>319.914</ele>
        <time>2016-06-04T13:07:44.391Z</time>
      </trkpt>
      <trkpt lat="47.50156" lon="6.77378">
        <ele>319.882</ele>
        <time>2016-06-04T13:07:45.391Z</time>
      </trkpt>
      <trkpt lat="47.50162" lon="6.77381">
        <ele>319.84</ele>
        <time>2016-06-04T13:07:46.391Z</time>
      </trkpt>
      <trkpt lat="47.50167" lon="6.77385">
        <ele>319.789</ele>
        <time>2016-06-04T13:07:47.391Z</time>
      </trkpt>
      <trkpt lat="47.50172" lon="6.77388">
        <ele>319.729</ele>
        <time>2016-06-04T13:07:48.391Z</time>
      </trkpt>
      <trkpt lat="47.50177" lon="6.77391">
        <ele>319.662</ele>
        <time>2016-06-04T13:07:49.391Z</time>
      </trkpt>
      <trkpt lat="47.50182" lon="6.77394">
        <ele>319.589</ele>
        <time>2016-06-04T13:07:50.391Z</time>
      </trkpt>
      <trkpt lat="47.50187" lon="6.77397">
        <ele>319.51</ele>
        <time>2016-06-04T13:07:51.391Z</time>
      </trkpt>
      <trkpt lat="47.50192" lon="6.774">
        <ele>319.424</ele>
        <time>2016-06-04T13:07:52.391Z</time>
      </trkpt>
      <trkpt lat="47.50196" lon="6.77403">
        <ele>319.33</ele>
        <time>2016-06-04T13:07:53.391Z</time>
      </trkpt>
      <trkpt lat="47.50201" lon="6.77406">
        <ele>319.229</ele>
        <time>2016-06-04T13:07:54.391Z</time>
      </trkpt>
      <trkpt lat="47.50205" lon="6.77409">
        <ele>319.12</ele>
        <time>2016-06-04T13:07:55.391Z</time>
      </trkpt>
      <trkpt lat="47.5021" lon="6.77413">
        <ele>319.002</ele>
        <time>2016-06-04T13:07:56.391Z</time>
      </trkpt>
      <trkpt lat="47.50215" lon="6.77416">
        <ele>318.874</ele>
        <time>2016-06-04T13:07:57.391Z</time>
      </trkpt>
      <trkpt lat="47.5022" lon="6.77419">
        <ele>318.735</ele>
        <time>2016-06-04T13:07:58.391Z</time>
      </trkpt>
      <trkpt lat="47.50224" lon="6.77423">
        <ele>318.587</ele>
        <time>2016-06-04T13:07:59.391Z</time>
      </trkpt>
      <trkpt lat="47.50229" lon="6.77428">
        <ele>318.431</ele>
        <time>2016-06-04T13:08:00.391Z</time>
      </trkpt>
      <trkpt lat="47.50233" lon="6.77433">
        <ele>318.268</ele>
        <time>2016-06-04T13:08:01.391Z</time>
      </trkpt>
      <trkpt lat="47.50237" lon="6.77439">
        <ele>318.103</ele>
        <time>2016-06-04T13:08:02.391Z</time>
      </trkpt>
      <trkpt lat="47.5024" lon="6.77444">
        <ele>317.936</ele>
        <time>2016-06-04T13:08:03.391Z</time>
      </trkpt>
      <trkpt lat="47.50244" lon="6.7745">
        <ele>317.77</ele>
        <time>2016-06-04T13:08:04.391Z</time>
      </trkpt>
      <trkpt lat="47.50248" lon="6.77454">
        <ele>317.607</ele>
        <time>2016-06-04T13:08:05.391Z</time>
      </trkpt>
      <trkpt lat="47.50252" lon="6.77459">
        <ele>317.449</ele>
        <time>2016-06-04T13:08:06.391Z</time>
      </trkpt>
      <trkpt lat="47.50257" lon="6.77463">
        <ele>317.296</ele>
        <time>2016-06-04T13:08:07.391Z</time>
      </trkpt>
      <trkpt lat="47.50262" lon="6.77467">
        <ele>317.149</ele>
        <time>2016-06-04T13:08:08.391Z</time>
      </trkpt>
      <trkpt lat="47.50267" lon="6.77471">
        <ele>317.01</ele>
        <time>2016-06-04T13:08:09.391Z</time>
      </trkpt>
      <trkpt lat="47.50272" lon="6.77475">
        <ele>316.878</ele>
        <time>2016-06-04T13:08:10.391Z</time>
      </trkpt>
      <trkpt lat="47.50276" lon="6.77479">
        <ele>316.755</ele>
        <time>2016-06-04T13:08:11.391Z</time>
      </trkpt>
      <trkpt lat="47.50281" lon="6.77484">
        <ele>316.64</ele>
        <time>2016-06-04T13:08:12.391Z</time>
      </trkpt>
      <trkpt lat="47.50286" lon="6.77488">
        <ele>316.534</ele>
        <time>2016-06-04T13:08:13.391Z</time>
      </trkpt>
      <trkpt lat="47.5029" lon="6.77492">
        <ele>316.436</ele>
        <time>2016-06-04T13:08:14.391Z</time>
      </trkpt>
      <trkpt lat="47.50295" lon="6.77496">
        <ele>316.349</ele>
        <time>2016-06-04T13:08:15.391Z</time>
      </trkpt>
      <trkpt lat="47.503" lon="6.775">
        <ele>316.272</ele>
        <time>2016-06-04T13:08:16.391Z</time>
      </trkpt>
      <trkpt lat="47.50305" lon="6.77504">
        <ele>316.207</ele>
        <time>2016-06-04T13:08:17.391Z</time>
      </trkpt>
      <trkpt lat="47.5031" lon="6.77509">
        <ele>316.158</ele>
        <time>2016-06-04T13:08:18.391Z</time>
      </trkpt>
      <trkpt lat="47.50315" lon="6.77513">
        <ele>316.126</ele>
        <time>2016-06-04T13:08:19.391Z</time>
      </trkpt>
      <trkpt lat="47.5032" lon="6.77517">
        <ele>316.115</ele>
        <time>2016-06-04T13:08:20.391Z</time>
      </trkpt>
      <trkpt lat="47.50324" lon="6.77521">
        <ele>316.124</ele>
        <time>2016-06-04T13:08:21.391Z</time>
      </trkpt>
      <trkpt lat="47.50329" lon="6.77525">
        <ele>316.155</ele>
        <time>2016-06-04T13:08:22.391Z</time>
      </trkpt>
      <trkpt lat="47.50333" lon="6.77528">
        <ele>316.206</ele>
        <time>2016-06-04T13:08:23.391Z</time>
      </trkpt>
      <trkpt lat="47.50338" lon="6.77532">
        <ele>316.279</ele>
        <time>2016-06-04T13:08:24.391Z</time>
      </trkpt>
      <trkpt lat="47.50342" lon="6.77536">
        <ele>316.371</ele>
        <time>2016-06-04T13:08:25.391Z</time>
      </trkpt>
      <trkpt lat="47.50346" lon="6.7754">
        <ele>316.482</ele>
        <time>2016-06-04T13:08:26.391Z</time>
      </trkpt>
      <trkpt lat="47.5035" lon="6.77544">
        <ele>316.609</ele>
        <time>2016-06-04T13:08:27.391Z</time>
      </trkpt>
      <trkpt lat="47.50353" lon="6.77548">
        <ele>316.749</ele>
        <time>2016-06-04T13:08:28.391Z</time>
      </trkpt>
      <trkpt lat="47.50357" lon="6.77551">
        <ele>316.9</ele>
        <time>2016-06-04T13:08:29.391Z</time>
      </trkpt>
      <trkpt lat="47.50361" lon="6.77554">
        <ele>317.059</ele>
        <time>2016-06-04T13:08:30.391Z</time>
      </trkpt>
      <trkpt lat="47.50365" lon="6.77558">
        <ele>317.224</ele>
        <time>2016-06-04T13:08:31.391Z</time>
      </trkpt>
      <trkpt lat="47.50369" lon="6.77561">
        <ele>317.391</ele>
        <time>2016-06-04T13:08:32.391Z</time>
      </trkpt>
      <trkpt lat="47.50374" lon="6.77564">
        <ele>317.557</ele>
        <time>2016-06-04T13:08:33.391Z</time>
      </trkpt>
      <trkpt lat="47.50378" lon="6.77567">
        <ele>317.718</ele>
        <time>2016-06-04T13:08:34.391Z</time>
      </trkpt>
      <trkpt lat="47.50382" lon="6.77571">
        <ele>317.872</ele>
        <time>2016-06-04T13:08:35.391Z</time>
      </trkpt>
      <trkpt lat="47.50386" lon="6.77576">
        <ele>318.015</ele>
        <time>2016-06-04T13:08:36.391Z</time>
      </trkpt>
      <trkpt lat="47.5039" lon="6.7758">
        <ele>318.144</ele>
        <time>2016-06-04T13:08:37.391Z</time>
      </trkpt>
      <trkpt lat="47.50394" lon="6.77585">
        <ele>318.258</ele>
        <time>2016-06-04T13:08:38.391Z</time>
      </trkpt>
      <trkpt lat="47.50398" lon="6.77589">
        <ele>318.357</ele>
        <time>2016-06-04T13:08:39.391Z</time>
      </trkpt>
      <trkpt lat="47.50401" lon="6.77594">
        <ele>318.441</ele>
        <time>2016-06-04T13:08:40.391Z</time>
      </trkpt>
      <trkpt lat="47.50405" lon="6.77599">
        <ele>318.511</ele>
        <time>2016-06-04T13:08:41.391Z</time>
      </trkpt>
      <trkpt lat="47.50409" lon="6.77604">
        <ele>318.568</ele>
        <time>2016-06-04T13:08:42.391Z</time>
      </trkpt>
      <trkpt lat="47.50412" lon="6.77609">
        <ele>318.613</ele>
        <time>2016-06-04T13:08:43.391Z</time>
      </trkpt>
      <trkpt lat="47.50416" lon="6.77614">
        <ele>318.649</ele>
        <time>2016-06-04T13:08:44.391Z</time>
      </trkpt>
      <trkpt lat="47.5042" lon="6.77619">
        <ele>318.675</ele>
        <time>2016-06-04T13:08:45.391Z</time>
      </trkpt>
      <trkpt lat="47.50424" lon="6.77624">
        <ele>318.696</ele>
        <time>2016-06-04T13:08:46.391Z</time>
      </trkpt>
      <trkpt lat="47.50427" lon="6.7763">
        <ele>318.711</ele>
        <time>2016-06-04T13:08:47.391Z</time>
      </trkpt>
      <trkpt lat="47.50431" lon="6.77635">
        <ele>318.724</ele>
        <time>2016-06-04T13:08:48.391Z</time>
      </trkpt>
      <trkpt lat="47.50435" lon="6.77641">
        <ele>318.736</ele>
        <time>2016-06-04T13:08:49.391Z</time>
      </trkpt>
      <trkpt lat="47.50438" lon="6.77647">
        <ele>318.749</ele>
        <time>2016-06-04T13:08:50.391Z</time>
      </trkpt>
      <trkpt lat="47.50442" lon="6.77653">
        <ele>318.765</ele>
        <time>2016-06-04T13:08:51.391Z</time>
      </trkpt>
      <trkpt lat="47.50445" lon="6.77659">
        <ele>318.787</ele>
        <time>2016-06-04T13:08:52.391Z</time>
      </trkpt>
      <trkpt lat="47.50448" lon="6.77665">
        <ele>318.816</ele>
        <time>2016-06-04T13:08:53.391Z</time>
      </trkpt>
      <trkpt lat="47.50452" lon="6.77671">
        <ele>318.854</ele>
        <time>2016-06-04T13:08:54.391Z</time>
      </trkpt>
      <trkpt lat="47.50455" lon="6.77677">
        <ele>318.902</ele>
        <time>2016-06-04T13:08:55.391Z</time>
      </trkpt>
      <trkpt lat="47.50458" lon="6.77683">
        <ele>318.96</ele>
        <time>2016-06-04T13:08:56.391Z</time>
      </trkpt>
      <trkpt lat="47.50461" lon="6.7769">
        <ele>319.026</ele>
        <time>2016-06-04T13:08:57.391Z</time>
      </trkpt>
      <trkpt lat="47.50463" lon="6.77696">
        <ele>319.097</ele>
        <time>2016-06-04T13:08:58.391Z</time>
      </trkpt>
      <trkpt lat="47.50465" lon="6.77702">
        <ele>319.169</ele>
        <time>2016-06-04T13:08:59.391Z</time>
      </trkpt>
      <trkpt lat="47.50467" lon="6.77709">
        <ele>319.238</ele>
        <time>2016-06-04T13:09:00.391Z</time>
      </trkpt>
      <trkpt lat="47.50469" lon="6.77716">
        <ele>319.3</ele>
        <time>2016-06-04T13:09:01.391Z</time>
      </trkpt>
      <trkpt lat="47.50471" lon="6.77722">
        <ele>319.354</ele>
        <time>2016-06-04T13:09:02.391Z</time>
      </trkpt>
      <trkpt lat="47.50473" lon="6.77729">
        <ele>319.398</ele>
        <time>2016-06-04T13:09:03.391Z</time>
      </trkpt>
      <trkpt lat="47.50475" lon="6.77735">
        <ele>319.43</ele>
        <time>2016-06-04T13:09:04.391Z</time>
      </trkpt>
      <trkpt lat="47.50478" lon="6.77741">
        <ele>319.451</ele>
        <time>2016-06-04T13:09:05.391Z</time>
      </trkpt>
      <trkpt lat="47.5048" lon="6.77747">
        <ele>319.461</ele>
        <time>2016-06-04T13:09:06.391Z</time>
      </trkpt>
      <trkpt lat="47.50483" lon="6.77753">
        <ele>319.461</ele>
        <time>2016-06-04T13:09:07.391Z</time>
      </trkpt>
      <trkpt lat="47.50485" lon="6.7776">
        <ele>319.452</ele>
        <time>2016-06-04T13:09:08.391Z</time>
      </trkpt>
      <trkpt lat="47.50487" lon="6.77766">
        <ele>319.436</ele>
        <time>2016-06-04T13:09:09.391Z</time>
      </trkpt>
      <trkpt lat="47.50488" lon="6.77773">
        <ele>319.413</ele>
        <time>2016-06-04T13:09:10.391Z</time>
      </trkpt>
      <trkpt lat="47.5049" lon="6.7778">
        <ele>319.385</ele>
        <time>2016-06-04T13:09:11.391Z</time>
      </trkpt>
      <trkpt lat="47.50492" lon="6.77787">
        <ele>319.355</ele>
        <time>2016-06-04T13:09:12.391Z</time>
      </trkpt>
      <trkpt lat="47.50494" lon="6.77794">
        <ele>319.322</ele>
        <time>2016-06-04T13:09:13.391Z</time>
      </trkpt>
      <trkpt lat="47.50496" lon="6.77801">
        <ele>319.288</ele>
        <time>2016-06-04T13:09:14.391Z</time>
      </trkpt>
      <trkpt lat="47.50498" lon="6.77808">
        <ele>319.254</ele>
        <time>2016-06-04T13:09:15.391Z</time>
      </trkpt>
      <trkpt lat="47.505" lon="6.77814">
        <ele>319.22</ele>
        <time>2016-06-04T13:09:16.391Z</time>
      </trkpt>
      <trkpt lat="47.50502" lon="6.7782">
        <ele>319.188</ele>
        <time>2016-06-04T13:09:17.391Z</time>
      </trkpt>
      <trkpt lat="47.50503" lon="6.77827">
        <ele>319.158</ele>
        <time>2016-06-04T13:09:18.391Z</time>
      </trkpt>
      <trkpt lat="47.50505" lon="6.77834">
        <ele>319.134</ele>
        <time>2016-06-04T13:09:19.391Z</time>
      </trkpt>
      <trkpt lat="47.50507" lon="6.77841">
        <ele>319.115</ele>
        <time>2016-06-04T13:09:20.391Z</time>
      </trkpt>
      <trkpt lat="47.50509" lon="6.77848">
        <ele>319.105</ele>
        <time>2016-06-04T13:09:21.391Z</time>
      </trkpt>
      <trkpt lat="47.50511" lon="6.77855">
        <ele>319.104</ele>
        <time>2016-06-04T13:09:22.391Z</time>
      </trkpt>
      <trkpt lat="47.50512" lon="6.77862">
        <ele>319.112</ele>
        <time>2016-06-04T13:09:23.391Z</time>
      </trkpt>
      <trkpt lat="47.50514" lon="6.77869">
        <ele>319.129</ele>
        <time>2016-06-04T13:09:24.391Z</time>
      </trkpt>
      <trkpt lat="47.50515" lon="6.77876">
        <ele>319.153</ele>
        <time>2016-06-04T13:09:25.391Z</time>
      </trkpt>
      <trkpt lat="47.50517" lon="6.77882">
        <ele>319.185</ele>
        <time>2016-06-04T13:09:26.391Z</time>
      </trkpt>
      <trkpt lat="47.50518" lon="6.77888">
        <ele>319.223</ele>
        <time>2016-06-04T13:09:27.391Z</time>
      </trkpt>
      <trkpt lat="47.5052" lon="6.77895">
        <ele>319.268</ele>
        <time>2016-06-04T13:09:28.391Z</time>
      </trkpt>
      <trkpt lat="47.50521" lon="6.77901">
        <ele>319.319</ele>
        <time>2016-06-04T13:09:29.391Z</time>
      </trkpt>
      <trkpt lat="47.50523" lon="6.77908">
        <ele>319.378</ele>
        <time>2016-06-04T13:09:30.391Z</time>
      </trkpt>
      <trkpt lat="47.50524" lon="6.77915">
        <ele>319.445</ele>
        <time>2016-06-04T13:09:31.391Z</time>
      </trkpt>
      <trkpt lat="47.50525" lon="6.77922">
        <ele>319.522</ele>
        <time>2016-06-04T13:09:32.391Z</time>
      </trkpt>
      <trkpt lat="47.50527" lon="6.77929">
        <ele>319.61</ele>
        <time>2016-06-04T13:09:33.391Z</time>
      </trkpt>
      <trkpt lat="47.50528" lon="6.77936">
        <ele>319.711</ele>
        <time>2016-06-04T13:09:34.391Z</time>
      </trkpt>
      <trkpt lat="47.50529" lon="6.77943">
        <ele>319.826</ele>
        <time>2016-06-04T13:09:35.391Z</time>
      </trkpt>
      <trkpt lat="47.5053" lon="6.7795">
        <ele>319.953</ele>
        <time>2016-06-04T13:09:36.391Z</time>
      </trkpt>
      <trkpt lat="47.50531" lon="6.77956">
        <ele>320.095</ele>
        <time>2016-06-04T13:09:37.391Z</time>
      </trkpt>
      <trkpt lat="47.50531" lon="6.77964">
        <ele>320.249</ele>
        <time>2016-06-04T13:09:38.391Z</time>
      </trkpt>
      <trkpt lat="47.50532" lon="6.77971">
        <ele>320.418</ele>
        <time>2016-06-04T13:09:39.391Z</time>
      </trkpt>
      <trkpt lat="47.50533" lon="6.77979">
        <ele>320.6</ele>
        <time>2016-06-04T13:09:40.391Z</time>
      </trkpt>
      <trkpt lat="47.50535" lon="6.77988">
        <ele>320.799</ele>
        <time>2016-06-04T13:09:41.391Z</time>
      </trkpt>
      <trkpt lat="47.50536" lon="6.77996">
        <ele>321.017</ele>
        <time>2016-06-04T13:09:42.391Z</time>
      </trkpt>
      <trkpt lat="47.50537" lon="6.78004">
        <ele>321.257</ele>
        <time>2016-06-04T13:09:43.391Z</time>
      </trkpt>
      <trkpt lat="47.50538" lon="6.78012">
        <ele>321.522</ele>
        <time>2016-06-04T13:09:44.391Z</time>
      </trkpt>
      <trkpt lat="47.50539" lon="6.78019">
        <ele>321.817</ele>
        <time>2016-06-04T13:09:45.391Z</time>
      </trkpt>
      <trkpt lat="47.5054" lon="6.78027">
        <ele>322.143</ele>
        <time>2016-06-04T13:09:46.391Z</time>
      </trkpt>
      <trkpt lat="47.5054" lon="6.78034">
        <ele>322.502</ele>
        <time>2016-06-04T13:09:47.391Z</time>
      </trkpt>
      <trkpt lat="47.5054" lon="6.78042">
        <ele>322.893</ele>
        <time>2016-06-04T13:09:48.391Z</time>
      </trkpt>
      <trkpt lat="47.5054" lon="6.7805">
        <ele>323.316</ele>
        <time>2016-06-04T13:09:49.391Z</time>
      </trkpt>
      <trkpt lat="47.5054" lon="6.78057">
        <ele>323.77</ele>
        <time>2016-06-04T13:09:50.391Z</time>
      </trkpt>
      <trkpt lat="47.50539" lon="6.78064">
        <ele>324.251</ele>
        <time>2016-06-04T13:09:51.391Z</time>
      </trkpt>
      <trkpt lat="47.50538" lon="6.78071">
        <ele>324.757</ele>
        <time>2016-06-04T13:09:52.391Z</time>
      </trkpt>
      <trkpt lat="47.50538" lon="6.78078">
        <ele>325.285</ele>
        <time>2016-06-04T13:09:53.391Z</time>
      </trkpt>
      <trkpt lat="47.50537" lon="6.78085">
        <ele>325.831</ele>
        <time>2016-06-04T13:09:54.391Z</time>
      </trkpt>
      <trkpt lat="47.50536" lon="6.78091">
        <ele>326.39</ele>
        <time>2016-06-04T13:09:55.391Z</time>
      </trkpt>
      <trkpt lat="47.50534" lon="6.78097">
        <ele>326.958</ele>
        <time>2016-06-04T13:09:56.391Z</time>
      </trkpt>
      <trkpt lat="47.50533" lon="6.78103">
        <ele>327.531</ele>
        <time>2016-06-04T13:09:57.391Z</time>
      </trkpt>
      <trkpt lat="47.50531" lon="6.78109">
        <ele>328.104</ele>
        <time>2016-06-04T13:09:58.391Z</time>
      </trkpt>
      <trkpt lat="47.5053" lon="6.78116">
        <ele>328.672</ele>
        <time>2016-06-04T13:09:59.391Z</time>
      </trkpt>
      <trkpt lat="47.50528" lon="6.78123">
        <ele>329.23</ele>
        <time>2016-06-04T13:10:00.391Z</time>
      </trkpt>
      <trkpt lat="47.50527" lon="6.7813">
        <ele>329.775</ele>
        <time>2016-06-04T13:10:01.391Z</time>
      </trkpt>
      <trkpt lat="47.50525" lon="6.78136">
        <ele>330.3</ele>
        <time>2016-06-04T13:10:02.391Z</time>
      </trkpt>
      <trkpt lat="47.50523" lon="6.78143">
        <ele>330.802</ele>
        <time>2016-06-04T13:10:03.391Z</time>
      </trkpt>
      <trkpt lat="47.50522" lon="6.7815">
        <ele>331.277</ele>
        <time>2016-06-04T13:10:04.391Z</time>
      </trkpt>
      <trkpt lat="47.5052" lon="6.78157">
        <ele>331.722</ele>
        <time>2016-06-04T13:10:05.391Z</time>
      </trkpt>
      <trkpt lat="47.50519" lon="6.78164">
        <ele>332.132</ele>
        <time>2016-06-04T13:10:06.391Z</time>
      </trkpt>
      <trkpt lat="47.50518" lon="6.7817">
        <ele>332.505</ele>
        <time>2016-06-04T13:10:07.391Z</time>
      </trkpt>
      <trkpt lat="47.50516" lon="6.78177">
        <ele>332.84</ele>
        <time>2016-06-04T13:10:08.391Z</time>
      </trkpt>
      <trkpt lat="47.50515" lon="6.78184">
        <ele>333.135</ele>
        <time>2016-06-04T13:10:09.391Z</time>
      </trkpt>
      <trkpt lat="47.50513" lon="6.78191">
        <ele>333.389</ele>
        <time>2016-06-04T13:10:10.391Z</time>
      </trkpt>
      <trkpt lat="47.50512" lon="6.78199">
        <ele>333.604</ele>
        <time>2016-06-04T13:10:11.391Z</time>
      </trkpt>
      <trkpt lat="47.5051" lon="6.78206">
        <ele>333.779</ele>
        <time>2016-06-04T13:10:12.391Z</time>
      </trkpt>
      <trkpt lat="47.50509" lon="6.78214">
        <ele>333.918</ele>
        <time>2016-06-04T13:10:13.391Z</time>
      </trkpt>
      <trkpt lat="47.50507" lon="6.78221">
        <ele>334.021</ele>
        <time>2016-06-04T13:10:14.391Z</time>
      </trkpt>
      <trkpt lat="47.50506" lon="6.78229">
        <ele>334.091</ele>
        <time>2016-06-04T13:10:15.391Z</time>
      </trkpt>
      <trkpt lat="47.50504" lon="6.78237">
        <ele>334.132</ele>
        <time>2016-06-04T13:10:16.391Z</time>
      </trkpt>
      <trkpt lat="47.50503" lon="6.78244">
        <ele>334.146</ele>
        <time>2016-06-04T13:10:17.391Z</time>
      </trkpt>
      <trkpt lat="47.50502" lon="6.78252">
        <ele>334.136</ele>
        <time>2016-06-04T13:10:18.391Z</time>
      </trkpt>
      <trkpt lat="47.50501" lon="6.78259">
        <ele>334.106</ele>
        <time>2016-06-04T13:10:19.391Z</time>
      </trkpt>
      <trkpt lat="47.505" lon="6.78266">
        <ele>334.058</ele>
        <time>2016-06-04T13:10:20.391Z</time>
      </trkpt>
      <trkpt lat="47.50498" lon="6.78274">
        <ele>333.995</ele>
        <time>2016-06-04T13:10:21.391Z</time>
      </trkpt>
      <trkpt lat="47.50497" lon="6.78281">
        <ele>333.92</ele>
        <time>2016-06-04T13:10:22.391Z</time>
      </trkpt>
      <trkpt lat="47.50496" lon="6.78289">
        <ele>333.835</ele>
        <time>2016-06-04T13:10:23.391Z</time>
      </trkpt>
      <trkpt lat="47.50496" lon="6.78296">
        <ele>333.743</ele>
        <time>2016-06-04T13:10:24.391Z</time>
      </trkpt>
      <trkpt lat="47.50495" lon="6.78303">
        <ele>333.645</ele>
        <time>2016-06-04T13:10:25.391Z</time>
      </trkpt>
      <trkpt lat="47.50493" lon="6.78311">
        <ele>333.543</ele>
        <time>2016-06-04T13:10:26.391Z</time>
      </trkpt>
      <trkpt lat="47.50492" lon="6.78318">
        <ele>333.437</ele>
        <time>2016-06-04T13:10:27.391Z</time>
      </trkpt>
      <trkpt lat="47.50491" lon="6.78324">
        <ele>333.329</ele>
        <time>2016-06-04T13:10:28.391Z</time>
      </trkpt>
      <trkpt lat="47.5049" lon="6.78331">
        <ele>333.22</ele>
        <time>2016-06-04T13:10:29.391Z</time>
      </trkpt>
      <trkpt lat="47.50488" lon="6.78337">
        <ele>333.112</ele>
        <time>2016-06-04T13:10:30.391Z</time>
      </trkpt>
      <trkpt lat="47.50487" lon="6.78344">
        <ele>333.005</ele>
        <time>2016-06-04T13:10:31.391Z</time>
      </trkpt>
      <trkpt lat="47.50486" lon="6.78351">
        <ele>332.903</ele>
        <time>2016-06-04T13:10:32.391Z</time>
      </trkpt>
      <trkpt lat="47.50484" lon="6.78358">
        <ele>332.805</ele>
        <time>2016-06-04T13:10:33.391Z</time>
      </trkpt>
      <trkpt lat="47.50483" lon="6.78365">
        <ele>332.715</ele>
        <time>2016-06-04T13:10:34.391Z</time>
      </trkpt>
      <trkpt lat="47.50482" lon="6.78373">
        <ele>332.633</ele>
        <time>2016-06-04T13:10:35.391Z</time>
      </trkpt>
      <trkpt lat="47.5048" lon="6.78381">
        <ele>332.562</ele>
        <time>2016-06-04T13:10:36.391Z</time>
      </trkpt>
      <trkpt lat="47.50479" lon="6.7839">
        <ele>332.505</ele>
        <time>2016-06-04T13:10:37.391Z</time>
      </trkpt>
      <trkpt lat="47.50477" lon="6.78398">
        <ele>332.464</ele>
        <time>2016-06-04T13:10:38.391Z</time>
      </trkpt>
      <trkpt lat="47.50476" lon="6.78406">
        <ele>332.442</ele>
        <time>2016-06-04T13:10:39.391Z</time>
      </trkpt>
      <trkpt lat="47.50474" lon="6.78414">
        <ele>332.442</ele>
        <time>2016-06-04T13:10:40.391Z</time>
      </trkpt>
      <trkpt lat="47.50472" lon="6.78422">
        <ele>332.467</ele>
        <time>2016-06-04T13:10:41.391Z</time>
      </trkpt>
      <trkpt lat="47.50471" lon="6.7843">
        <ele>332.518</ele>
        <time>2016-06-04T13:10:42.391Z</time>
      </trkpt>
      <trkpt lat="47.50469" lon="6.78437">
        <ele>332.598</ele>
        <time>2016-06-04T13:10:43.391Z</time>
      </trkpt>
      <trkpt lat="47.50467" lon="6.78444">
        <ele>332.708</ele>
        <time>2016-06-04T13:10:44.391Z</time>
      </trkpt>
      <trkpt lat="47.50466" lon="6.78451">
        <ele>332.848</ele>
        <time>2016-06-04T13:10:45.391Z</time>
      </trkpt>
      <trkpt lat="47.50464" lon="6.78457">
        <ele>333.019</ele>
        <time>2016-06-04T13:10:46.391Z</time>
      </trkpt>
      <trkpt lat="47.50463" lon="6.78464">
        <ele>333.219</ele>
        <time>2016-06-04T13:10:47.391Z</time>
      </trkpt>
      <trkpt lat="47.50462" lon="6.78471">
        <ele>333.446</ele>
        <time>2016-06-04T13:10:48.391Z</time>
      </trkpt>
      <trkpt lat="47.5046" lon="6.78478">
        <ele>333.696</ele>
        <time>2016-06-04T13:10:49.391Z</time>
      </trkpt>
      <trkpt lat="47.50459" lon="6.78484">
        <ele>333.966</ele>
        <time>2016-06-04T13:10:50.391Z</time>
      </trkpt>
      <trkpt lat="47.50458" lon="6.78491">
        <ele>334.249</ele>
        <time>2016-06-04T13:10:51.391Z</time>
      </trkpt>
      <trkpt lat="47.50456" lon="6.78497">
        <ele>334.542</ele>
        <time>2016-06-04T13:10:52.391Z</time>
      </trkpt>
      <trkpt lat="47.50455" lon="6.78504">
        <ele>334.837</ele>
        <time>2016-06-04T13:10:53.391Z</time>
      </trkpt>
      <trkpt lat="47.50454" lon="6.78511">
        <ele>335.132</ele>
        <time>2016-06-04T13:10:54.391Z</time>
      </trkpt>
      <trkpt lat="47.50452" lon="6.78518">
        <ele>335.42</ele>
        <time>2016-06-04T13:10:55.391Z</time>
      </trkpt>
      <trkpt lat="47.50451" lon="6.78524">
        <ele>335.699</ele>
        <time>2016-06-04T13:10:56.391Z</time>
      </trkpt>
      <trkpt lat="47.50449" lon="6.78531">
        <ele>335.964</ele>
        <time>2016-06-04T13:10:57.391Z</time>
      </trkpt>
      <trkpt lat="47.50447" lon="6.78538">
        <ele>336.212</ele>
        <time>2016-06-04T13:10:58.391Z</time>
      </trkpt>
      <trkpt lat="47.50445" lon="6.78545">
        <ele>336.44</ele>
        <time>2016-06-04T13:10:59.391Z</time>
      </trkpt>
      <trkpt lat="47.50444" lon="6.78551">
        <ele>336.642</ele>
        <time>2016-06-04T13:11:00.391Z</time>
      </trkpt>
      <trkpt lat="47.50442" lon="6.78558">
        <ele>336.816</ele>
        <time>2016-06-04T13:11:01.391Z</time>
      </trkpt>
      <trkpt lat="47.5044" lon="6.78565">
        <ele>336.959</ele>
        <time>2016-06-04T13:11:02.391Z</time>
      </trkpt>
      <trkpt lat="47.50439" lon="6.78572">
        <ele>337.067</ele>
        <time>2016-06-04T13:11:03.391Z</time>
      </trkpt>
      <trkpt lat="47.50437" lon="6.78578">
        <ele>337.139</ele>
        <time>2016-06-04T13:11:04.391Z</time>
      </trkpt>
      <trkpt lat="47.50436" lon="6.78585">
        <ele>337.173</ele>
        <time>2016-06-04T13:11:05.391Z</time>
      </trkpt>
      <trkpt lat="47.50434" lon="6.78591">
        <ele>337.169</ele>
        <time>2016-06-04T13:11:06.391Z</time>
      </trkpt>
      <trkpt lat="47.50433" lon="6.78598">
        <ele>337.125</ele>
        <time>2016-06-04T13:11:07.391Z</time>
      </trkpt>
      <trkpt lat="47.50431" lon="6.78604">
        <ele>337.043</ele>
        <time>2016-06-04T13:11:08.391Z</time>
      </trkpt>
      <trkpt lat="47.50429" lon="6.78611">
        <ele>336.925</ele>
        <time>2016-06-04T13:11:09.391Z</time>
      </trkpt>
      <trkpt lat="47.50427" lon="6.78619">
        <ele>336.771</ele>
        <time>2016-06-04T13:11:10.391Z</time>
      </trkpt>
      <trkpt lat="47.50426" lon="6.78627">
        <ele>336.585</ele>
        <time>2016-06-04T13:11:11.391Z</time>
      </trkpt>
      <trkpt lat="47.50424" lon="6.78635">
        <ele>336.37</ele>
        <time>2016-06-04T13:11:12.391Z</time>
      </trkpt>
      <trkpt lat="47.50422" lon="6.78643">
        <ele>336.13</ele>
        <time>2016-06-04T13:11:13.391Z</time>
      </trkpt>
      <trkpt lat="47.50421" lon="6.78652">
        <ele>335.868</ele>
        <time>2016-06-04T13:11:14.391Z</time>
      </trkpt>
      <trkpt lat="47.50419" lon="6.7866">
        <ele>335.589</ele>
        <time>2016-06-04T13:11:15.391Z</time>
      </trkpt>
      <trkpt lat="47.50417" lon="6.78668">
        <ele>335.299</ele>
        <time>2016-06-04T13:11:16.391Z</time>
      </trkpt>
      <trkpt lat="47.50415" lon="6.78676">
        <ele>335.004</ele>
        <time>2016-06-04T13:11:17.391Z</time>
      </trkpt>
      <trkpt lat="47.50414" lon="6.78686">
        <ele>334.709</ele>
        <time>2016-06-04T13:11:18.391Z</time>
      </trkpt>
      <trkpt lat="47.50412" lon="6.78695">
        <ele>334.421</ele>
        <time>2016-06-04T13:11:19.391Z</time>
      </trkpt>
      <trkpt lat="47.5041" lon="6.78704">
        <ele>334.147</ele>
        <time>2016-06-04T13:11:20.391Z</time>
      </trkpt>
      <trkpt lat="47.50409" lon="6.78713">
        <ele>333.893</ele>
        <time>2016-06-04T13:11:21.391Z</time>
      </trkpt>
      <trkpt lat="47.50407" lon="6.78721">
        <ele>333.662</ele>
        <time>2016-06-04T13:11:22.391Z</time>
      </trkpt>
      <trkpt lat="47.50406" lon="6.78729">
        <ele>333.458</ele>
        <time>2016-06-04T13:11:23.391Z</time>
      </trkpt>
      <trkpt lat="47.50405" lon="6.78736">
        <ele>333.281</ele>
        <time>2016-06-04T13:11:24.391Z</time>
      </trkpt>
      <trkpt lat="47.50405" lon="6.78743">
        <ele>333.133</ele>
        <time>2016-06-04T13:11:25.391Z</time>
      </trkpt>
      <trkpt lat="47.50404" lon="6.7875">
        <ele>333.012</ele>
        <time>2016-06-04T13:11:26.391Z</time>
      </trkpt>
      <trkpt lat="47.50403" lon="6.78757">
        <ele>332.918</ele>
        <time>2016-06-04T13:11:27.391Z</time>
      </trkpt>
      <trkpt lat="47.50402" lon="6.78765">
        <ele>332.849</ele>
        <time>2016-06-04T13:11:28.391Z</time>
      </trkpt>
      <trkpt lat="47.50401" lon="6.78773">
        <ele>332.802</ele>
        <time>2016-06-04T13:11:29.391Z</time>
      </trkpt>
      <trkpt lat="47.50401" lon="6.7878">
        <ele>332.776</ele>
        <time>2016-06-04T13:11:30.391Z</time>
      </trkpt>
      <trkpt lat="47.504" lon="6.78787">
        <ele>332.767</ele>
        <time>2016-06-04T13:11:31.391Z</time>
      </trkpt>
      <trkpt lat="47.50399" lon="6.78795">
        <ele>332.773</ele>
        <time>2016-06-04T13:11:32.391Z</time>
      </trkpt>
      <trkpt lat="47.50398" lon="6.78802">
        <ele>332.792</ele>
        <time>2016-06-04T13:11:33.391Z</time>
      </trkpt>
      <trkpt lat="47.50397" lon="6.78809">
        <ele>332.82</ele>
        <time>2016-06-04T13:11:34.391Z</time>
      </trkpt>
      <trkpt lat="47.50395" lon="6.78817">
        <ele>332.855</ele>
        <time>2016-06-04T13:11:35.391Z</time>
      </trkpt>
      <trkpt lat="47.50394" lon="6.78824">
        <ele>332.895</ele>
        <time>2016-06-04T13:11:36.391Z</time>
      </trkpt>
      <trkpt lat="47.50393" lon="6.78832">
        <ele>332.936</ele>
        <time>2016-06-04T13:11:37.391Z</time>
      </trkpt>
      <trkpt lat="47.50392" lon="6.7884">
        <ele>332.977</ele>
        <time>2016-06-04T13:11:38.391Z</time>
      </trkpt>
      <trkpt lat="47.50391" lon="6.78849">
        <ele>333.017</ele>
        <time>2016-06-04T13:11:39.391Z</time>
      </trkpt>
      <trkpt lat="47.50391" lon="6.78857">
        <ele>333.053</ele>
        <time>2016-06-04T13:11:40.391Z</time>
      </trkpt>
      <trkpt lat="47.5039" lon="6.78866">
        <ele>333.085</ele>
        <time>2016-06-04T13:11:41.391Z</time>
      </trkpt>
      <trkpt lat="47.50391" lon="6.78874">
        <ele>333.111</ele>
        <time>2016-06-04T13:11:42.391Z</time>
      </trkpt>
      <trkpt lat="47.50391" lon="6.78882">
        <ele>333.131</ele>
        <time>2016-06-04T13:11:43.391Z</time>
      </trkpt>
      <trkpt lat="47.50391" lon="6.7889">
        <ele>333.144</ele>
        <time>2016-06-04T13:11:44.391Z</time>
      </trkpt>
      <trkpt lat="47.50391" lon="6.78898">
        <ele>333.15</ele>
        <time>2016-06-04T13:11:45.391Z</time>
      </trkpt>
      <trkpt lat="47.50391" lon="6.78905">
        <ele>333.147</ele>
        <time>2016-06-04T13:11:46.391Z</time>
      </trkpt>
      <trkpt lat="47.50391" lon="6.78913">
        <ele>333.135</ele>
        <time>2016-06-04T13:11:47.391Z</time>
      </trkpt>
      <trkpt lat="47.50392" lon="6.7892">
        <ele>333.112</ele>
        <time>2016-06-04T13:11:48.391Z</time>
      </trkpt>
      <trkpt lat="47.50392" lon="6.78927">
        <ele>333.077</ele>
        <time>2016-06-04T13:11:49.391Z</time>
      </trkpt>
      <trkpt lat="47.50392" lon="6.78934">
        <ele>333.027</ele>
        <time>2016-06-04T13:11:50.391Z</time>
      </trkpt>
      <trkpt lat="47.50392" lon="6.78942">
        <ele>332.961</ele>
        <time>2016-06-04T13:11:51.391Z</time>
      </trkpt>
      <trkpt lat="47.50392" lon="6.78949">
        <ele>332.879</ele>
        <time>2016-06-04T13:11:52.391Z</time>
      </trkpt>
      <trkpt lat="47.50392" lon="6.78957">
        <ele>332.778</ele>
        <time>2016-06-04T13:11:53.391Z</time>
      </trkpt>
      <trkpt lat="47.50392" lon="6.78965">
        <ele>332.657</ele>
        <time>2016-06-04T13:11:54.391Z</time>
      </trkpt>
      <trkpt lat="47.50392" lon="6.78973">
        <ele>332.517</ele>
        <time>2016-06-04T13:11:55.391Z</time>
      </trkpt>
      <trkpt lat="47.50392" lon="6.78981">
        <ele>332.358</ele>
        <time>2016-06-04T13:11:56.391Z</time>
      </trkpt>
      <trkpt lat="47.50393" lon="6.78989">
        <ele>332.179</ele>
        <time>2016-06-04T13:11:57.391Z</time>
      </trkpt>
      <trkpt lat="47.50393" lon="6.78997">
        <ele>331.981</ele>
        <time>2016-06-04T13:11:58.391Z</time>
      </trkpt>
      <trkpt lat="47.50394" lon="6.79004">
        <ele>331.766</ele>
        <time>2016-06-04T13:11:59.391Z</time>
      </trkpt>
      <trkpt lat="47.50395" lon="6.79012">
        <ele>331.534</ele>
        <time>2016-06-04T13:12:00.391Z</time>
      </trkpt>
      <trkpt lat="47.50396" lon="6.79019">
        <ele>331.287</ele>
        <time>2016-06-04T13:12:01.391Z</time>
      </trkpt>
      <trkpt lat="47.50396" lon="6.79027">
        <ele>331.027</ele>
        <time>2016-06-04T13:12:02.391Z</time>
      </trkpt>
      <trkpt lat="47.50397" lon="6.79034">
        <ele>330.755</ele>
        <time>2016-06-04T13:12:03.391Z</time>
      </trkpt>
      <trkpt lat="47.50398" lon="6.79042">
        <ele>330.476</ele>
        <time>2016-06-04T13:12:04.391Z</time>
      </trkpt>
      <trkpt lat="47.50399" lon="6.79049">
        <ele>330.191</ele>
        <time>2016-06-04T13:12:05.391Z</time>
      </trkpt>
      <trkpt lat="47.504" lon="6.79056">
        <ele>329.904</ele>
        <time>2016-06-04T13:12:06.391Z</time>
      </trkpt>
      <trkpt lat="47.50401" lon="6.79063">
        <ele>329.617</ele>
        <time>2016-06-04T13:12:07.391Z</time>
      </trkpt>
      <trkpt lat="47.50401" lon="6.7907">
        <ele>329.332</ele>
        <time>2016-06-04T13:12:08.391Z</time>
      </trkpt>
      <trkpt lat="47.50402" lon="6.79077">
        <ele>329.049</ele>
        <time>2016-06-04T13:12:09.391Z</time>
      </trkpt>
      <trkpt lat="47.50403" lon="6.79084">
        <ele>328.773</ele>
        <time>2016-06-04T13:12:10.391Z</time>
      </trkpt>
      <trkpt lat="47.50405" lon="6.79091">
        <ele>328.505</ele>
        <time>2016-06-04T13:12:11.391Z</time>
      </trkpt>
      <trkpt lat="47.50407" lon="6.79098">
        <ele>328.249</ele>
        <time>2016-06-04T13:12:12.391Z</time>
      </trkpt>
      <trkpt lat="47.50409" lon="6.79105">
        <ele>328.007</ele>
        <time>2016-06-04T13:12:13.391Z</time>
      </trkpt>
      <trkpt lat="47.50412" lon="6.79112">
        <ele>327.783</ele>
        <time>2016-06-04T13:12:14.391Z</time>
      </trkpt>
      <trkpt lat="47.50415" lon="6.79119">
        <ele>327.582</ele>
        <time>2016-06-04T13:12:15.391Z</time>
      </trkpt>
      <trkpt lat="47.50419" lon="6.79126">
        <ele>327.407</ele>
        <time>2016-06-04T13:12:16.391Z</time>
      </trkpt>
      <trkpt lat="47.50422" lon="6.79133">
        <ele>327.262</ele>
        <time>2016-06-04T13:12:17.391Z</time>
      </trkpt>
      <trkpt lat="47.50426" lon="6.7914">
        <ele>327.152</ele>
        <time>2016-06-04T13:12:18.391Z</time>
      </trkpt>
      <trkpt lat="47.50429" lon="6.79146">
        <ele>327.078</ele>
        <time>2016-06-04T13:12:19.391Z</time>
      </trkpt>
      <trkpt lat="47.50432" lon="6.79153">
        <ele>327.044</ele>
        <time>2016-06-04T13:12:20.391Z</time>
      </trkpt>
      <trkpt lat="47.50434" lon="6.79159">
        <ele>327.053</ele>
        <time>2016-06-04T13:12:21.391Z</time>
      </trkpt>
      <trkpt lat="47.50436" lon="6.79165">
        <ele>327.105</ele>
        <time>2016-06-04T13:12:22.391Z</time>
      </trkpt>
      <trkpt lat="47.50438" lon="6.79172">
        <ele>327.201</ele>
        <time>2016-06-04T13:12:23.391Z</time>
      </trkpt>
      <trkpt lat="47.5044" lon="6.79179">
        <ele>327.341</ele>
        <time>2016-06-04T13:12:24.391Z</time>
      </trkpt>
      <trkpt lat="47.50441" lon="6.79187">
        <ele>327.523</ele>
        <time>2016-06-04T13:12:25.391Z</time>
      </trkpt>
      <trkpt lat="47.50443" lon="6.79194">
        <ele>327.746</ele>
        <time>2016-06-04T13:12:26.391Z</time>
      </trkpt>
      <trkpt lat="47.50444" lon="6.79201">
        <ele>328.006</ele>
        <time>2016-06-04T13:12:27.391Z</time>
      </trkpt>
      <trkpt lat="47.50445" lon="6.79209">
        <ele>328.299</ele>
        <time>2016-06-04T13:12:28.391Z</time>
      </trkpt>
      <trkpt lat="47.50446" lon="6.79216">
        <ele>328.621</ele>
        <time>2016-06-04T13:12:29.391Z</time>
      </trkpt>
      <trkpt lat="47.50447" lon="6.79223">
        <ele>328.966</ele>
        <time>2016-06-04T13:12:30.391Z</time>
      </trkpt>
      <trkpt lat="47.50448" lon="6.7923">
        <ele>329.329</ele>
        <time>2016-06-04T13:12:31.391Z</time>
      </trkpt>
      <trkpt lat="47.50449" lon="6.79237">
        <ele>329.704</ele>
        <time>2016-06-04T13:12:32.391Z</time>
      </trkpt>
      <trkpt lat="47.5045" lon="6.79244">
        <ele>330.085</ele>
        <time>2016-06-04T13:12:33.391Z</time>
      </trkpt>
      <trkpt lat="47.50451" lon="6.7925">
        <ele>330.466</ele>
        <time>2016-06-04T13:12:34.391Z</time>
      </trkpt>
      <trkpt lat="47.50452" lon="6.79256">
        <ele>330.838</ele>
        <time>2016-06-04T13:12:35.391Z</time>
      </trkpt>
      <trkpt lat="47.50453" lon="6.79261">
        <ele>331.195</ele>
        <time>2016-06-04T13:12:36.391Z</time>
      </trkpt>
      <trkpt lat="47.50453" lon="6.79265">
        <ele>331.529</ele>
        <time>2016-06-04T13:12:37.391Z</time>
      </trkpt>
      <trkpt lat="47.50454" lon="6.7927">
        <ele>331.833</ele>
        <time>2016-06-04T13:12:38.391Z</time>
      </trkpt>
      <trkpt lat="47.50455" lon="6.79273">
        <ele>332.101</ele>
        <time>2016-06-04T13:12:39.391Z</time>
      </trkpt>
      <trkpt lat="47.50456" lon="6.79277">
        <ele>332.33</ele>
        <time>2016-06-04T13:12:40.391Z</time>
      </trkpt>
      <trkpt lat="47.50457" lon="6.79279">
        <ele>332.515</ele>
        <time>2016-06-04T13:12:41.391Z</time>
      </trkpt>
      <trkpt lat="47.50458" lon="6.79282">
        <ele>332.655</ele>
        <time>2016-06-04T13:12:42.391Z</time>
      </trkpt>
      <trkpt lat="47.50458" lon="6.79284">
        <ele>332.747</ele>
        <time>2016-06-04T13:12:43.391Z</time>
      </trkpt>
      <trkpt lat="47.50459" lon="6.79287">
        <ele>332.792</ele>
        <time>2016-06-04T13:12:44.391Z</time>
      </trkpt>
      <trkpt lat="47.5046" lon="6.79289">
        <ele>332.788</ele>
        <time>2016-06-04T13:12:45.391Z</time>
      </trkpt>
      <trkpt lat="47.5046" lon="6.79291">
        <ele>332.739</ele>
        <time>2016-06-04T13:12:46.391Z</time>
      </trkpt>
      <trkpt lat="47.50461" lon="6.79294">
        <ele>332.646</ele>
        <time>2016-06-04T13:12:47.391Z</time>
      </trkpt>
      <trkpt lat="47.50462" lon="6.79296">
        <ele>332.515</ele>
        <time>2016-06-04T13:12:48.391Z</time>
      </trkpt>
      <trkpt lat="47.50462" lon="6.79298">
        <ele>332.35</ele>
        <time>2016-06-04T13:12:49.391Z</time>
      </trkpt>
      <trkpt lat="47.50463" lon="6.79299">
        <ele>332.156</ele>
        <time>2016-06-04T13:12:50.391Z</time>
      </trkpt>
      <trkpt lat="47.50463" lon="6.793">
        <ele>331.939</ele>
        <time>2016-06-04T13:12:51.391Z</time>
      </trkpt>
      <trkpt lat="47.50464" lon="6.79301">
        <ele>331.7</ele>
        <time>2016-06-04T13:12:52.391Z</time>
      </trkpt>
      <trkpt lat="47.50464" lon="6.79301">
        <ele>331.444</ele>
        <time>2016-06-04T13:12:53.391Z</time>
      </trkpt>
      <trkpt lat="47.50464" lon="6.79301">
        <ele>331.171</ele>
        <time>2016-06-04T13:12:54.391Z</time>
      </trkpt>
      <trkpt lat="47.50464" lon="6.79301">
        <ele>330.884</ele>
        <time>2016-06-04T13:12:55.391Z</time>
      </trkpt>
      <trkpt lat="47.50465" lon="6.79302">
        <ele>330.585</ele>
        <time>2016-06-04T13:12:56.391Z</time>
      </trkpt>
      <trkpt lat="47.50465" lon="6.79302">
        <ele>330.275</ele>
        <time>2016-06-04T13:12:57.391Z</time>
      </trkpt>
      <trkpt lat="47.50466" lon="6.79302">
        <ele>329.956</ele>
        <time>2016-06-04T13:12:58.391Z</time>
      </trkpt>
      <trkpt lat="47.50466" lon="6.79302">
        <ele>329.631</ele>
        <time>2016-06-04T13:12:59.391Z</time>
      </trkpt>
      <trkpt lat="47.50467" lon="6.79302">
        <ele>329.302</ele>
        <time>2016-06-04T13:13:00.391Z</time>
      </trkpt>
      <trkpt lat="47.50467" lon="6.79302">
        <ele>328.972</ele>
        <time>2016-06-04T13:13:01.391Z</time>
      </trkpt>
      <trkpt lat="47.50467" lon="6.79302">
        <ele>328.643</ele>
        <time>2016-06-04T13:13:02.391Z</time>
      </trkpt>
      <trkpt lat="47.50468" lon="6.79302">
        <ele>328.321</ele>
        <time>2016-06-04T13:13:03.391Z</time>
      </trkpt>
      <trkpt lat="47.50468" lon="6.79302">
        <ele>328.006</ele>
        <time>2016-06-04T13:13:04.391Z</time>
      </trkpt>
      <trkpt lat="47.50468" lon="6.79302">
        <ele>327.704</ele>
        <time>2016-06-04T13:13:05.391Z</time>
      </trkpt>
      <trkpt lat="47.50468" lon="6.79303">
        <ele>327.415</ele>
        <time>2016-06-04T13:13:06.391Z</time>
      </trkpt>
      <trkpt lat="47.50469" lon="6.79303">
        <ele>327.144</ele>
        <time>2016-06-04T13:13:07.391Z</time>
      </trkpt>
      <trkpt lat="47.50469" lon="6.79303">
        <ele>326.89</ele>
        <time>2016-06-04T13:13:08.391Z</time>
      </trkpt>
      <trkpt lat="47.50469" lon="6.79303">
        <ele>326.656</ele>
        <time>2016-06-04T13:13:09.391Z</time>
      </trkpt>
      <trkpt lat="47.50469" lon="6.79303">
        <ele>326.442</ele>
        <time>2016-06-04T13:13:10.391Z</time>
      </trkpt>
      <trkpt lat="47.50469" lon="6.79303">
        <ele>326.248</ele>
        <time>2016-06-04T13:13:11.391Z</time>
      </trkpt>
      <trkpt lat="47.50469" lon="6.79303">
        <ele>326.074</ele>
        <time>2016-06-04T13:13:12.391Z</time>
      </trkpt>
      <trkpt lat="47.50469" lon="6.79304">
        <ele>325.918</ele>
        <time>2016-06-04T13:13:13.391Z</time>
      </trkpt>
      <trkpt lat="47.50469" lon="6.79304">
        <ele>325.781</ele>
        <time>2016-06-04T13:13:14.391Z</time>
      </trkpt>
      <trkpt lat="47.50469" lon="6.79304">
        <ele>325.66</ele>
        <time>2016-06-04T13:13:15.391Z</time>
      </trkpt>
      <trkpt lat="47.50469" lon="6.79304">
        <ele>325.556</ele>
        <time>2016-06-04T13:13:16.391Z</time>
      </trkpt>
      <trkpt lat="47.50469" lon="6.79304">
        <ele>325.465</ele>
        <time>2016-06-04T13:13:17.391Z</time>
      </trkpt>
      <trkpt lat="47.50469" lon="6.79304">
        <ele>325.388</ele>
        <time>2016-06-04T13:13:18.391Z</time>
      </trkpt>
      <trkpt lat="47.50469" lon="6.79304">
        <ele>325.323</ele>
        <time>2016-06-04T13:13:19.391Z</time>
      </trkpt>
      <trkpt lat="47.50469" lon="6.79304">
        <ele>325.27</ele>
        <time>2016-06-04T13:13:20.391Z</time>
      </trkpt>
      <trkpt lat="47.50469" lon="6.79304">
        <ele>325.226</ele>
        <time>2016-06-04T13:13:21.391Z</time>
      </trkpt>
      <trkpt lat="47.50469" lon="6.79304">
        <ele>325.191</ele>
        <time>2016-06-04T13:13:22.391Z</time>
      </trkpt>
      <trkpt lat="47.50469" lon="6.79304">
        <ele>325.163</ele>
        <time>2016-06-04T13:13:23.391Z</time>
      </trkpt>
      <trkpt lat="47.50469" lon="6.79304">
        <ele>325.143</ele>
        <time>2016-06-04T13:13:24.391Z</time>
      </trkpt>
      <trkpt lat="47.50469" lon="6.79304">
        <ele>325.129</ele>
        <time>2016-06-04T13:13:25.391Z</time>
      </trkpt>
      <trkpt lat="47.50469" lon="6.79304">
        <ele>325.12</ele>
        <time>2016-06-04T13:13:26.391Z</time>
      </trkpt>
      <trkpt lat="47.50469" lon="6.79304">
        <ele>325.115</ele>
        <time>2016-06-04T13:13:27.391Z</time>
      </trkpt>
      <trkpt lat="47.50469" lon="6.79304">
        <ele>325.113</ele>
        <time>2016-06-04T13:13:28.391Z</time>
      </trkpt>
      <trkpt lat="47.50469" lon="6.79304">
        <ele>325.114</ele>
        <time>2016-06-04T13:13:29.391Z</time>
      </trkpt>
      <trkpt lat="47.50469" lon="6.79304">
        <ele>325.118</ele>
        <time>2016-06-04T13:13:30.391Z</time>
      </trkpt>
      <trkpt lat="47.50469" lon="6.79304">
        <ele>325.123</ele>
        <time>2016-06-04T13:13:31.391Z</time>
      </trkpt>
      <trkpt lat="47.50469" lon="6.79304">
        <ele>325.129</ele>
        <time>2016-06-04T13:13:32.391Z</time>
      </trkpt>
      <trkpt lat="47.50469" lon="6.79304">
        <ele>325.135</ele>
        <time>2016-06-04T13:13:33.391Z</time>
      </trkpt>
      <trkpt lat="47.50469" lon="6.79304">
        <ele>325.142</ele>
        <time>2016-06-04T13:13:34.391Z</time>
      </trkpt>
      <trkpt lat="47.50469" lon="6.79304">
        <ele>325.149</ele>
        <time>2016-06-04T13:13:35.391Z</time>
      </trkpt>
      <trkpt lat="47.50469" lon="6.79304">
        <ele>325.156</ele>
        <time>2016-06-04T13:13:36.391Z</time>
      </trkpt>
      <trkpt lat="47.50469" lon="6.79304">
        <ele>325.162</ele>
        <time>2016-06-04T13:13:37.391Z</time>
      </trkpt>
      <trkpt lat="47.50469" lon="6.79304">
        <ele>325.168</ele>
        <time>2016-06-04T13:13:38.391Z</time>
      </trkpt>
      <trkpt lat="47.50469" lon="6.79304">
        <ele>325.174</ele>
        <time>2016-06-04T13:13:39.391Z</time>
      </trkpt>
      <trkpt lat="47.50469" lon="6.79304">
        <ele>325.18</ele>
        <time>2016-06-04T13:13:40.391Z</time>
      </trkpt>
      <trkpt lat="47.50469" lon="6.79304">
        <ele>325.186</ele>
        <time>2016-06-04T13:13:41.391Z</time>
      </trkpt>
      <trkpt lat="47.50469" lon="6.79304">
        <ele>325.194</ele>
        <time>2016-06-04T13:13:42.391Z</time>
      </trkpt>
      <trkpt lat="47.50469" lon="6.79304">
        <ele>325.202</ele>
        <time>2016-06-04T13:13:43.391Z</time>
      </trkpt>
      <trkpt lat="47.50469" lon="6.79303">
        <ele>325.213</ele>
        <time>2016-06-04T13:13:44.391Z</time>
      </trkpt>
      <trkpt lat="47.50469" lon="6.79302">
        <ele>325.228</ele>
        <time>2016-06-04T13:13:45.391Z</time>
      </trkpt>
      <trkpt lat="47.50468" lon="6.79302">
        <ele>325.247</ele>
        <time>2016-06-04T13:13:46.391Z</time>
      </trkpt>
      <trkpt lat="47.50467" lon="6.79301">
        <ele>325.272</ele>
        <time>2016-06-04T13:13:47.391Z</time>
      </trkpt>
      <trkpt lat="47.50466" lon="6.79301">
        <ele>325.305</ele>
        <time>2016-06-04T13:13:48.391Z</time>
      </trkpt>
      <trkpt lat="47.50465" lon="6.79301">
        <ele>325.348</ele>
        <time>2016-06-04T13:13:49.391Z</time>
      </trkpt>
      <trkpt lat="47.50464" lon="6.79302">
        <ele>325.402</ele>
        <time>2016-06-04T13:13:50.391Z</time>
      </trkpt>
      <trkpt lat="47.50463" lon="6.79304">
        <ele>325.466</ele>
        <time>2016-06-04T13:13:51.391Z</time>
      </trkpt>
      <trkpt lat="47.50463" lon="6.79306">
        <ele>325.536</ele>
        <time>2016-06-04T13:13:52.391Z</time>
      </trkpt>
      <trkpt lat="47.50463" lon="6.79308">
        <ele>325.61</ele>
        <time>2016-06-04T13:13:53.391Z</time>
      </trkpt>
      <trkpt lat="47.50464" lon="6.79312">
        <ele>325.681</ele>
        <time>2016-06-04T13:13:54.391Z</time>
      </trkpt>
      <trkpt lat="47.50465" lon="6.79316">
        <ele>325.747</ele>
        <time>2016-06-04T13:13:55.391Z</time>
      </trkpt>
      <trkpt lat="47.50466" lon="6.7932">
        <ele>325.802</ele>
        <time>2016-06-04T13:13:56.391Z</time>
      </trkpt>
      <trkpt lat="47.50467" lon="6.79325">
        <ele>325.843</ele>
        <time>2016-06-04T13:13:57.391Z</time>
      </trkpt>
      <trkpt lat="47.50468" lon="6.79331">
        <ele>325.869</ele>
        <time>2016-06-04T13:13:58.391Z</time>
      </trkpt>
      <trkpt lat="47.50469" lon="6.79336">
        <ele>325.879</ele>
        <time>2016-06-04T13:13:59.391Z</time>
      </trkpt>
      <trkpt lat="47.5047" lon="6.79342">
        <ele>325.871</ele>
        <time>2016-06-04T13:14:00.391Z</time>
      </trkpt>
      <trkpt lat="47.5047" lon="6.79347">
        <ele>325.847</ele>
        <time>2016-06-04T13:14:01.391Z</time>
      </trkpt>
      <trkpt lat="47.50471" lon="6.79352">
        <ele>325.807</ele>
        <time>2016-06-04T13:14:02.391Z</time>
      </trkpt>
      <trkpt lat="47.50472" lon="6.79356">
        <ele>325.754</ele>
        <time>2016-06-04T13:14:03.391Z</time>
      </trkpt>
      <trkpt lat="47.50473" lon="6.7936">
        <ele>325.688</ele>
        <time>2016-06-04T13:14:04.391Z</time>
      </trkpt>
      <trkpt lat="47.50474" lon="6.79365">
        <ele>325.614</ele>
        <time>2016-06-04T13:14:05.391Z</time>
      </trkpt>
      <trkpt lat="47.50474" lon="6.7937">
        <ele>325.534</ele>
        <time>2016-06-04T13:14:06.391Z</time>
      </trkpt>
      <trkpt lat="47.50475" lon="6.79375">
        <ele>325.45</ele>
        <time>2016-06-04T13:14:07.391Z</time>
      </trkpt>
      <trkpt lat="47.50476" lon="6.7938">
        <ele>325.365</ele>
        <time>2016-06-04T13:14:08.391Z</time>
      </trkpt>
      <trkpt lat="47.50476" lon="6.79386">
        <ele>325.28</ele>
        <time>2016-06-04T13:14:09.391Z</time>
      </trkpt>
      <trkpt lat="47.50477" lon="6.79392">
        <ele>325.199</ele>
        <time>2016-06-04T13:14:10.391Z</time>
      </trkpt>
      <trkpt lat="47.50478" lon="6.79398">
        <ele>325.122</ele>
        <time>2016-06-04T13:14:11.391Z</time>
      </trkpt>
      <trkpt lat="47.50479" lon="6.79404">
        <ele>325.051</ele>
        <time>2016-06-04T13:14:12.391Z</time>
      </trkpt>
      <trkpt lat="47.5048" lon="6.79409">
        <ele>324.988</ele>
        <time>2016-06-04T13:14:13.391Z</time>
      </trkpt>
      <trkpt lat="47.5048" lon="6.79415">
        <ele>324.933</ele>
        <time>2016-06-04T13:14:14.391Z</time>
      </trkpt>
      <trkpt lat="47.5048" lon="6.7942">
        <ele>324.889</ele>
        <time>2016-06-04T13:14:15.391Z</time>
      </trkpt>
      <trkpt lat="47.5048" lon="6.79426">
        <ele>324.854</ele>
        <time>2016-06-04T13:14:16.391Z</time>
      </trkpt>
      <trkpt lat="47.5048" lon="6.79431">
        <ele>324.83</ele>
        <time>2016-06-04T13:14:17.391Z</time>
      </trkpt>
      <trkpt lat="47.50479" lon="6.79436">
        <ele>324.817</ele>
        <time>2016-06-04T13:14:18.391Z</time>
      </trkpt>
      <trkpt lat="47.50478" lon="6.7944">
        <ele>324.815</ele>
        <time>2016-06-04T13:14:19.391Z</time>
      </trkpt>
      <trkpt lat="47.50478" lon="6.79444">
        <ele>324.823</ele>
        <time>2016-06-04T13:14:20.391Z</time>
      </trkpt>
      <trkpt lat="47.50478" lon="6.79448">
        <ele>324.841</ele>
        <time>2016-06-04T13:14:21.391Z</time>
      </trkpt>
      <trkpt lat="47.50479" lon="6.7945">
        <ele>324.867</ele>
        <time>2016-06-04T13:14:22.391Z</time>
      </trkpt>
      <trkpt lat="47.5048" lon="6.79452">
        <ele>324.899</ele>
        <time>2016-06-04T13:14:23.391Z</time>
      </trkpt>
      <trkpt lat="47.50481" lon="6.79453">
        <ele>324.937</ele>
        <time>2016-06-04T13:14:24.391Z</time>
      </trkpt>
      <trkpt lat="47.50482" lon="6.79453">
        <ele>324.979</ele>
        <time>2016-06-04T13:14:25.391Z</time>
      </trkpt>
      <trkpt lat="47.50483" lon="6.79452">
        <ele>325.026</ele>
        <time>2016-06-04T13:14:26.391Z</time>
      </trkpt>
      <trkpt lat="47.50484" lon="6.79451">
        <ele>325.077</ele>
        <time>2016-06-04T13:14:27.391Z</time>
      </trkpt>
      <trkpt lat="47.50484" lon="6.79451">
        <ele>325.132</ele>
        <time>2016-06-04T13:14:28.391Z</time>
      </trkpt>
      <trkpt lat="47.50485" lon="6.7945">
        <ele>325.191</ele>
        <time>2016-06-04T13:14:29.391Z</time>
      </trkpt>
      <trkpt lat="47.50485" lon="6.7945">
        <ele>325.254</ele>
        <time>2016-06-04T13:14:30.391Z</time>
      </trkpt>
      <trkpt lat="47.50485" lon="6.7945">
        <ele>325.321</ele>
        <time>2016-06-04T13:14:31.391Z</time>
      </trkpt>
      <trkpt lat="47.50485" lon="6.79449">
        <ele>325.393</ele>
        <time>2016-06-04T13:14:32.391Z</time>
      </trkpt>
      <trkpt lat="47.50486" lon="6.79449">
        <ele>325.469</ele>
        <time>2016-06-04T13:14:33.391Z</time>
      </trkpt>
      <trkpt lat="47.50485" lon="6.79448">
        <ele>325.549</ele>
        <time>2016-06-04T13:14:34.391Z</time>
      </trkpt>
      <trkpt lat="47.50485" lon="6.79447">
        <ele>325.632</ele>
        <time>2016-06-04T13:14:35.391Z</time>
      </trkpt>
      <trkpt lat="47.50484" lon="6.79445">
        <ele>325.717</ele>
        <time>2016-06-04T13:14:36.391Z</time>
      </trkpt>
      <trkpt lat="47.50483" lon="6.79443">
        <ele>325.803</ele>
        <time>2016-06-04T13:14:37.391Z</time>
      </trkpt>
      <trkpt lat="47.50483" lon="6.79441">
        <ele>325.891</ele>
        <time>2016-06-04T13:14:38.391Z</time>
      </trkpt>
      <trkpt lat="47.50482" lon="6.79437">
        <ele>325.977</ele>
        <time>2016-06-04T13:14:39.391Z</time>
      </trkpt>
      <trkpt lat="47.50482" lon="6.79434">
        <ele>326.063</ele>
        <time>2016-06-04T13:14:40.391Z</time>
      </trkpt>
      <trkpt lat="47.50483" lon="6.79429">
        <ele>326.147</ele>
        <time>2016-06-04T13:14:41.391Z</time>
      </trkpt>
      <trkpt lat="47.50483" lon="6.79424">
        <ele>326.226</ele>
        <time>2016-06-04T13:14:42.391Z</time>
      </trkpt>
      <trkpt lat="47.50484" lon="6.79419">
        <ele>326.299</ele>
        <time>2016-06-04T13:14:43.391Z</time>
      </trkpt>
      <trkpt lat="47.50485" lon="6.79413">
        <ele>326.366</ele>
        <time>2016-06-04T13:14:44.391Z</time>
      </trkpt>
      <trkpt lat="47.50486" lon="6.79407">
        <ele>326.425</ele>
        <time>2016-06-04T13:14:45.391Z</time>
      </trkpt>
      <trkpt lat="47.50486" lon="6.79402">
        <ele>326.473</ele>
        <time>2016-06-04T13:14:46.391Z</time>
      </trkpt>
      <trkpt lat="47.50485" lon="6.79396">
        <ele>326.508</ele>
        <time>2016-06-04T13:14:47.391Z</time>
      </trkpt>
      <trkpt lat="47.50484" lon="6.7939">
        <ele>326.53</ele>
        <time>2016-06-04T13:14:48.391Z</time>
      </trkpt>
      <trkpt lat="47.50483" lon="6.79384">
        <ele>326.538</ele>
        <time>2016-06-04T13:14:49.391Z</time>
      </trkpt>
      <trkpt lat="47.50481" lon="6.79379">
        <ele>326.532</ele>
        <time>2016-06-04T13:14:50.391Z</time>
      </trkpt>
      <trkpt lat="47.5048" lon="6.79373">
        <ele>326.514</ele>
        <time>2016-06-04T13:14:51.391Z</time>
      </trkpt>
      <trkpt lat="47.50478" lon="6.79367">
        <ele>326.486</ele>
        <time>2016-06-04T13:14:52.391Z</time>
      </trkpt>
      <trkpt lat="47.50476" lon="6.79362">
        <ele>326.451</ele>
        <time>2016-06-04T13:14:53.391Z</time>
      </trkpt>
      <trkpt lat="47.50474" lon="6.79356">
        <ele>326.411</ele>
        <time>2016-06-04T13:14:54.391Z</time>
      </trkpt>
      <trkpt lat="47.50472" lon="6.7935">
        <ele>326.37</ele>
        <time>2016-06-04T13:14:55.391Z</time>
      </trkpt>
      <trkpt lat="47.50471" lon="6.79344">
        <ele>326.333</ele>
        <time>2016-06-04T13:14:56.391Z</time>
      </trkpt>
      <trkpt lat="47.5047" lon="6.79338">
        <ele>326.301</ele>
        <time>2016-06-04T13:14:57.391Z</time>
      </trkpt>
      <trkpt lat="47.5047" lon="6.79332">
        <ele>326.278</ele>
        <time>2016-06-04T13:14:58.391Z</time>
      </trkpt>
      <trkpt lat="47.50469" lon="6.79325">
        <ele>326.266</ele>
        <time>2016-06-04T13:14:59.391Z</time>
      </trkpt>
      <trkpt lat="47.50468" lon="6.79319">
        <ele>326.265</ele>
        <time>2016-06-04T13:15:00.391Z</time>
      </trkpt>
      <trkpt lat="47.50468" lon="6.79313">
        <ele>326.277</ele>
        <time>2016-06-04T13:15:01.391Z</time>
      </trkpt>
      <trkpt lat="47.50467" lon="6.79307">
        <ele>326.302</ele>
        <time>2016-06-04T13:15:02.391Z</time>
      </trkpt>
      <trkpt lat="47.50466" lon="6.79301">
        <ele>326.341</ele>
        <time>2016-06-04T13:15:03.391Z</time>
      </trkpt>
      <trkpt lat="47.50464" lon="6.79295">
        <ele>326.391</ele>
        <time>2016-06-04T13:15:04.391Z</time>
      </trkpt>
      <trkpt lat="47.50463" lon="6.79289">
        <ele>326.453</ele>
        <time>2016-06-04T13:15:05.391Z</time>
      </trkpt>
      <trkpt lat="47.50462" lon="6.79283">
        <ele>326.523</ele>
        <time>2016-06-04T13:15:06.391Z</time>
      </trkpt>
      <trkpt lat="47.50461" lon="6.79277">
        <ele>326.598</ele>
        <time>2016-06-04T13:15:07.391Z</time>
      </trkpt>
      <trkpt lat="47.5046" lon="6.79271">
        <ele>326.677</ele>
        <time>2016-06-04T13:15:08.391Z</time>
      </trkpt>
      <trkpt lat="47.50459" lon="6.79265">
        <ele>326.755</ele>
        <time>2016-06-04T13:15:09.391Z</time>
      </trkpt>
      <trkpt lat="47.50458" lon="6.79258">
        <ele>326.831</ele>
        <time>2016-06-04T13:15:10.391Z</time>
      </trkpt>
      <trkpt lat="47.50457" lon="6.79251">
        <ele>326.905</ele>
        <time>2016-06-04T13:15:11.391Z</time>
      </trkpt>
      <trkpt lat="47.50456" lon="6.79244">
        <ele>326.976</ele>
        <time>2016-06-04T13:15:12.391Z</time>
      </trkpt>
      <trkpt lat="47.50455" lon="6.79237">
        <ele>327.044</ele>
        <time>2016-06-04T13:15:13.391Z</time>
      </trkpt>
      <trkpt lat="47.50454" lon="6.7923">
        <ele>327.108</ele>
        <time>2016-06-04T13:15:14.391Z</time>
      </trkpt>
      <trkpt lat="47.50453" lon="6.79223">
        <ele>327.169</ele>
        <time>2016-06-04T13:15:15.391Z</time>
      </trkpt>
      <trkpt lat="47.50452" lon="6.79216">
        <ele>327.223</ele>
        <time>2016-06-04T13:15:16.391Z</time>
      </trkpt>
      <trkpt lat="47.50451" lon="6.7921">
        <ele>327.268</ele>
        <time>2016-06-04T13:15:17.391Z</time>
      </trkpt>
      <trkpt lat="47.5045" lon="6.79203">
        <ele>327.299</ele>
        <time>2016-06-04T13:15:18.391Z</time>
      </trkpt>
      <trkpt lat="47.50449" lon="6.79196">
        <ele>327.312</ele>
        <time>2016-06-04T13:15:19.391Z</time>
      </trkpt>
      <trkpt lat="47.50448" lon="6.79189">
        <ele>327.305</ele>
        <time>2016-06-04T13:15:20.391Z</time>
      </trkpt>
      <trkpt lat="47.50448" lon="6.79182">
        <ele>327.273</ele>
        <time>2016-06-04T13:15:21.391Z</time>
      </trkpt>
      <trkpt lat="47.50447" lon="6.79176">
        <ele>327.217</ele>
        <time>2016-06-04T13:15:22.391Z</time>
      </trkpt>
      <trkpt lat="47.50445" lon="6.79169">
        <ele>327.134</ele>
        <time>2016-06-04T13:15:23.391Z</time>
      </trkpt>
      <trkpt lat="47.50443" lon="6.79162">
        <ele>327.026</ele>
        <time>2016-06-04T13:15:24.391Z</time>
      </trkpt>
      <trkpt lat="47.50441" lon="6.79155">
        <ele>326.894</ele>
        <time>2016-06-04T13:15:25.391Z</time>
      </trkpt>
      <trkpt lat="47.50438" lon="6.79148">
        <ele>326.742</ele>
        <time>2016-06-04T13:15:26.391Z</time>
      </trkpt>
      <trkpt lat="47.50435" lon="6.79142">
        <ele>326.573</ele>
        <time>2016-06-04T13:15:27.391Z</time>
      </trkpt>
      <trkpt lat="47.50432" lon="6.79136">
        <ele>326.393</ele>
        <time>2016-06-04T13:15:28.391Z</time>
      </trkpt>
      <trkpt lat="47.50428" lon="6.7913">
        <ele>326.206</ele>
        <time>2016-06-04T13:15:29.391Z</time>
      </trkpt>
      <trkpt lat="47.50425" lon="6.79124">
        <ele>326.02</ele>
        <time>2016-06-04T13:15:30.391Z</time>
      </trkpt>
      <trkpt lat="47.50421" lon="6.79118">
        <ele>325.84</ele>
        <time>2016-06-04T13:15:31.391Z</time>
      </trkpt>
      <trkpt lat="47.50419" lon="6.79112">
        <ele>325.673</ele>
        <time>2016-06-04T13:15:32.391Z</time>
      </trkpt>
      <trkpt lat="47.50417" lon="6.79105">
        <ele>325.527</ele>
        <time>2016-06-04T13:15:33.391Z</time>
      </trkpt>
      <trkpt lat="47.50415" lon="6.79098">
        <ele>325.406</ele>
        <time>2016-06-04T13:15:34.391Z</time>
      </trkpt>
      <trkpt lat="47.50415" lon="6.79091">
        <ele>325.316</ele>
        <time>2016-06-04T13:15:35.391Z</time>
      </trkpt>
      <trkpt lat="47.50414" lon="6.79084">
        <ele>325.261</ele>
        <time>2016-06-04T13:15:36.391Z</time>
      </trkpt>
      <trkpt lat="47.50413" lon="6.79076">
        <ele>325.244</ele>
        <time>2016-06-04T13:15:37.391Z</time>
      </trkpt>
      <trkpt lat="47.50412" lon="6.79069">
        <ele>325.266</ele>
        <time>2016-06-04T13:15:38.391Z</time>
      </trkpt>
      <trkpt lat="47.50411" lon="6.79061">
        <ele>325.328</ele>
        <time>2016-06-04T13:15:39.391Z</time>
      </trkpt>
      <trkpt lat="47.5041" lon="6.79054">
        <ele>325.43</ele>
        <time>2016-06-04T13:15:40.391Z</time>
      </trkpt>
      <trkpt lat="47.5041" lon="6.79046">
        <ele>325.57</ele>
        <time>2016-06-04T13:15:41.391Z</time>
      </trkpt>
      <trkpt lat="47.50409" lon="6.79039">
        <ele>325.748</ele>
        <time>2016-06-04T13:15:42.391Z</time>
      </trkpt>
      <trkpt lat="47.50409" lon="6.79032">
        <ele>325.961</ele>
        <time>2016-06-04T13:15:43.391Z</time>
      </trkpt>
      <trkpt lat="47.50408" lon="6.79025">
        <ele>326.206</ele>
        <time>2016-06-04T13:15:44.391Z</time>
      </trkpt>
      <trkpt lat="47.50408" lon="6.79018">
        <ele>326.479</ele>
        <time>2016-06-04T13:15:45.391Z</time>
      </trkpt>
      <trkpt lat="47.50408" lon="6.79011">
        <ele>326.776</ele>
        <time>2016-06-04T13:15:46.391Z</time>
      </trkpt>
      <trkpt lat="47.50407" lon="6.79004">
        <ele>327.091</ele>
        <time>2016-06-04T13:15:47.391Z</time>
      </trkpt>
      <trkpt lat="47.50407" lon="6.78998">
        <ele>327.419</ele>
        <time>2016-06-04T13:15:48.391Z</time>
      </trkpt>
      <trkpt lat="47.50406" lon="6.78991">
        <ele>327.754</ele>
        <time>2016-06-04T13:15:49.391Z</time>
      </trkpt>
      <trkpt lat="47.50405" lon="6.78985">
        <ele>328.087</ele>
        <time>2016-06-04T13:15:50.391Z</time>
      </trkpt>
      <trkpt lat="47.50405" lon="6.78978">
        <ele>328.414</ele>
        <time>2016-06-04T13:15:51.391Z</time>
      </trkpt>
      <trkpt lat="47.50405" lon="6.78972">
        <ele>328.729</ele>
        <time>2016-06-04T13:15:52.391Z</time>
      </trkpt>
      <trkpt lat="47.50405" lon="6.78965">
        <ele>329.026</ele>
        <time>2016-06-04T13:15:53.391Z</time>
      </trkpt>
      <trkpt lat="47.50404" lon="6.78959">
        <ele>329.302</ele>
        <time>2016-06-04T13:15:54.391Z</time>
      </trkpt>
      <trkpt lat="47.50404" lon="6.78954">
        <ele>329.552</ele>
        <time>2016-06-04T13:15:55.391Z</time>
      </trkpt>
      <trkpt lat="47.50404" lon="6.78948">
        <ele>329.773</ele>
        <time>2016-06-04T13:15:56.391Z</time>
      </trkpt>
      <trkpt lat="47.50404" lon="6.78942">
        <ele>329.962</ele>
        <time>2016-06-04T13:15:57.391Z</time>
      </trkpt>
      <trkpt lat="47.50404" lon="6.78935">
        <ele>330.119</ele>
        <time>2016-06-04T13:15:58.391Z</time>
      </trkpt>
      <trkpt lat="47.50404" lon="6.78927">
        <ele>330.244</ele>
        <time>2016-06-04T13:15:59.391Z</time>
      </trkpt>
      <trkpt lat="47.50404" lon="6.7892">
        <ele>330.337</ele>
        <time>2016-06-04T13:16:00.391Z</time>
      </trkpt>
      <trkpt lat="47.50405" lon="6.78912">
        <ele>330.403</ele>
        <time>2016-06-04T13:16:01.391Z</time>
      </trkpt>
      <trkpt lat="47.50405" lon="6.78905">
        <ele>330.44</ele>
        <time>2016-06-04T13:16:02.391Z</time>
      </trkpt>
      <trkpt lat="47.50405" lon="6.78899">
        <ele>330.451</ele>
        <time>2016-06-04T13:16:03.391Z</time>
      </trkpt>
      <trkpt lat="47.50406" lon="6.78892">
        <ele>330.437</ele>
        <time>2016-06-04T13:16:04.391Z</time>
      </trkpt>
      <trkpt lat="47.50406" lon="6.78885">
        <ele>330.398</ele>
        <time>2016-06-04T13:16:05.391Z</time>
      </trkpt>
      <trkpt lat="47.50407" lon="6.78878">
        <ele>330.337</ele>
        <time>2016-06-04T13:16:06.391Z</time>
      </trkpt>
      <trkpt lat="47.50407" lon="6.78871">
        <ele>330.254</ele>
        <time>2016-06-04T13:16:07.391Z</time>
      </trkpt>
      <trkpt lat="47.50408" lon="6.78864">
        <ele>330.151</ele>
        <time>2016-06-04T13:16:08.391Z</time>
      </trkpt>
      <trkpt lat="47.50408" lon="6.78858">
        <ele>330.032</ele>
        <time>2016-06-04T13:16:09.391Z</time>
      </trkpt>
      <trkpt lat="47.50408" lon="6.78851">
        <ele>329.899</ele>
        <time>2016-06-04T13:16:10.391Z</time>
      </trkpt>
      <trkpt lat="47.50408" lon="6.78843">
        <ele>329.757</ele>
        <time>2016-06-04T13:16:11.391Z</time>
      </trkpt>
      <trkpt lat="47.50409" lon="6.78835">
        <ele>329.61</ele>
        <time>2016-06-04T13:16:12.391Z</time>
      </trkpt>
      <trkpt lat="47.50409" lon="6.78827">
        <ele>329.461</ele>
        <time>2016-06-04T13:16:13.391Z</time>
      </trkpt>
      <trkpt lat="47.5041" lon="6.78819">
        <ele>329.313</ele>
        <time>2016-06-04T13:16:14.391Z</time>
      </trkpt>
      <trkpt lat="47.50411" lon="6.78811">
        <ele>329.168</ele>
        <time>2016-06-04T13:16:15.391Z</time>
      </trkpt>
      <trkpt lat="47.50412" lon="6.78803">
        <ele>329.028</ele>
        <time>2016-06-04T13:16:16.391Z</time>
      </trkpt>
      <trkpt lat="47.50413" lon="6.78795">
        <ele>328.892</ele>
        <time>2016-06-04T13:16:17.391Z</time>
      </trkpt>
      <trkpt lat="47.50413" lon="6.78787">
        <ele>328.759</ele>
        <time>2016-06-04T13:16:18.391Z</time>
      </trkpt>
      <trkpt lat="47.50414" lon="6.7878">
        <ele>328.627</ele>
        <time>2016-06-04T13:16:19.391Z</time>
      </trkpt>
      <trkpt lat="47.50414" lon="6.78773">
        <ele>328.496</ele>
        <time>2016-06-04T13:16:20.391Z</time>
      </trkpt>
      <trkpt lat="47.50415" lon="6.78766">
        <ele>328.361</ele>
        <time>2016-06-04T13:16:21.391Z</time>
      </trkpt>
      <trkpt lat="47.50416" lon="6.78759">
        <ele>328.221</ele>
        <time>2016-06-04T13:16:22.391Z</time>
      </trkpt>
      <trkpt lat="47.50417" lon="6.78752">
        <ele>328.073</ele>
        <time>2016-06-04T13:16:23.391Z</time>
      </trkpt>
      <trkpt lat="47.50418" lon="6.78746">
        <ele>327.914</ele>
        <time>2016-06-04T13:16:24.391Z</time>
      </trkpt>
      <trkpt lat="47.50419" lon="6.78739">
        <ele>327.74</ele>
        <time>2016-06-04T13:16:25.391Z</time>
      </trkpt>
      <trkpt lat="47.5042" lon="6.78731">
        <ele>327.551</ele>
        <time>2016-06-04T13:16:26.391Z</time>
      </trkpt>
      <trkpt lat="47.50422" lon="6.78724">
        <ele>327.344</ele>
        <time>2016-06-04T13:16:27.391Z</time>
      </trkpt>
      <trkpt lat="47.50423" lon="6.78718">
        <ele>327.119</ele>
        <time>2016-06-04T13:16:28.391Z</time>
      </trkpt>
      <trkpt lat="47.50424" lon="6.78713">
        <ele>326.878</ele>
        <time>2016-06-04T13:16:29.391Z</time>
      </trkpt>
      <trkpt lat="47.50425" lon="6.78709">
        <ele>326.623</ele>
        <time>2016-06-04T13:16:30.391Z</time>
      </trkpt>
      <trkpt lat="47.50425" lon="6.78707">
        <ele>326.358</ele>
        <time>2016-06-04T13:16:31.391Z</time>
      </trkpt>
      <trkpt lat="47.50425" lon="6.78706">
        <ele>326.088</ele>
        <time>2016-06-04T13:16:32.391Z</time>
      </trkpt>
      <trkpt lat="47.50424" lon="6.78705">
        <ele>325.818</ele>
        <time>2016-06-04T13:16:33.391Z</time>
      </trkpt>
      <trkpt lat="47.50424" lon="6.78705">
        <ele>325.551</ele>
        <time>2016-06-04T13:16:34.391Z</time>
      </trkpt>
      <trkpt lat="47.50423" lon="6.78706">
        <ele>325.293</ele>
        <time>2016-06-04T13:16:35.391Z</time>
      </trkpt>
      <trkpt lat="47.50422" lon="6.78707">
        <ele>325.047</ele>
        <time>2016-06-04T13:16:36.391Z</time>
      </trkpt>
      <trkpt lat="47.50421" lon="6.78709">
        <ele>324.817</ele>
        <time>2016-06-04T13:16:37.391Z</time>
      </trkpt>
      <trkpt lat="47.50421" lon="6.78711">
        <ele>324.607</ele>
        <time>2016-06-04T13:16:38.391Z</time>
      </trkpt>
      <trkpt lat="47.5042" lon="6.78714">
        <ele>324.416</ele>
        <time>2016-06-04T13:16:39.391Z</time>
      </trkpt>
      <trkpt lat="47.5042" lon="6.78718">
        <ele>324.245</ele>
        <time>2016-06-04T13:16:40.391Z</time>
      </trkpt>
      <trkpt lat="47.50419" lon="6.78722">
        <ele>324.093</ele>
        <time>2016-06-04T13:16:41.391Z</time>
      </trkpt>
      <trkpt lat="47.50417" lon="6.78727">
        <ele>323.961</ele>
        <time>2016-06-04T13:16:42.391Z</time>
      </trkpt>
      <trkpt lat="47.50416" lon="6.78731">
        <ele>323.847</ele>
        <time>2016-06-04T13:16:43.391Z</time>
      </trkpt>
      <trkpt lat="47.50415" lon="6.78736">
        <ele>323.752</ele>
        <time>2016-06-04T13:16:44.391Z</time>
      </trkpt>
      <trkpt lat="47.50414" lon="6.78741">
        <ele>323.675</ele>
        <time>2016-06-04T13:16:45.391Z</time>
      </trkpt>
      <trkpt lat="47.50413" lon="6.78745">
        <ele>323.618</ele>
        <time>2016-06-04T13:16:46.391Z</time>
      </trkpt>
      <trkpt lat="47.50412" lon="6.78748">
        <ele>323.579</ele>
        <time>2016-06-04T13:16:47.391Z</time>
      </trkpt>
      <trkpt lat="47.50411" lon="6.78751">
        <ele>323.558</ele>
        <time>2016-06-04T13:16:48.391Z</time>
      </trkpt>
      <trkpt lat="47.5041" lon="6.78753">
        <ele>323.552</ele>
        <time>2016-06-04T13:16:49.391Z</time>
      </trkpt>
      <trkpt lat="47.50409" lon="6.78754">
        <ele>323.558</ele>
        <time>2016-06-04T13:16:50.391Z</time>
      </trkpt>
      <trkpt lat="47.50408" lon="6.78755">
        <ele>323.574</ele>
        <time>2016-06-04T13:16:51.391Z</time>
      </trkpt>
      <trkpt lat="47.50408" lon="6.78755">
        <ele>323.596</ele>
        <time>2016-06-04T13:16:52.391Z</time>
      </trkpt>
      <trkpt lat="47.50407" lon="6.78756">
        <ele>323.623</ele>
        <time>2016-06-04T13:16:53.391Z</time>
      </trkpt>
      <trkpt lat="47.50407" lon="6.78756">
        <ele>323.654</ele>
        <time>2016-06-04T13:16:54.391Z</time>
      </trkpt>
      <trkpt lat="47.50406" lon="6.78756">
        <ele>323.688</ele>
        <time>2016-06-04T13:16:55.391Z</time>
      </trkpt>
      <trkpt lat="47.50406" lon="6.78756">
        <ele>323.724</ele>
        <time>2016-06-04T13:16:56.391Z</time>
      </trkpt>
      <trkpt lat="47.50406" lon="6.78756">
        <ele>323.761</ele>
        <time>2016-06-04T13:16:57.391Z</time>
      </trkpt>
      <trkpt lat="47.50406" lon="6.78756">
        <ele>323.796</ele>
        <time>2016-06-04T13:16:58.391Z</time>
      </trkpt>
      <trkpt lat="47.50406" lon="6.78755">
        <ele>323.825</ele>
        <time>2016-06-04T13:16:59.391Z</time>
      </trkpt>
      <trkpt lat="47.50405" lon="6.78755">
        <ele>323.847</ele>
        <time>2016-06-04T13:17:00.391Z</time>
      </trkpt>
      <trkpt lat="47.50405" lon="6.78755">
        <ele>323.856</ele>
        <time>2016-06-04T13:17:01.391Z</time>
      </trkpt>
      <trkpt lat="47.50405" lon="6.78754">
        <ele>323.85</ele>
        <time>2016-06-04T13:17:02.391Z</time>
      </trkpt>
      <trkpt lat="47.50405" lon="6.78754">
        <ele>323.823</ele>
        <time>2016-06-04T13:17:03.391Z</time>
      </trkpt>
      <trkpt lat="47.50405" lon="6.78754">
        <ele>323.772</ele>
        <time>2016-06-04T13:17:04.391Z</time>
      </trkpt>
      <trkpt lat="47.50405" lon="6.78754">
        <ele>323.693</ele>
        <time>2016-06-04T13:17:05.391Z</time>
      </trkpt>
      <trkpt lat="47.50405" lon="6.78754">
        <ele>323.584</ele>
        <time>2016-06-04T13:17:06.391Z</time>
      </trkpt>
      <trkpt lat="47.50405" lon="6.78754">
        <ele>323.444</ele>
        <time>2016-06-04T13:17:07.391Z</time>
      </trkpt>
      <trkpt lat="47.50405" lon="6.78754">
        <ele>323.271</ele>
        <time>2016-06-04T13:17:08.391Z</time>
      </trkpt>
      <trkpt lat="47.50405" lon="6.78754">
        <ele>323.064</ele>
        <time>2016-06-04T13:17:09.391Z</time>
      </trkpt>
      <trkpt lat="47.50405" lon="6.78754">
        <ele>322.824</ele>
        <time>2016-06-04T13:17:10.391Z</time>
      </trkpt>
      <trkpt lat="47.50405" lon="6.78754">
        <ele>322.552</ele>
        <time>2016-06-04T13:17:11.391Z</time>
      </trkpt>
      <trkpt lat="47.50405" lon="6.78754">
        <ele>322.25</ele>
        <time>2016-06-04T13:17:12.391Z</time>
      </trkpt>
      <trkpt lat="47.50406" lon="6.78753">
        <ele>321.921</ele>
        <time>2016-06-04T13:17:13.391Z</time>
      </trkpt>
      <trkpt lat="47.50406" lon="6.78752">
        <ele>321.57</ele>
        <time>2016-06-04T13:17:14.391Z</time>
      </trkpt>
      <trkpt lat="47.50406" lon="6.78751">
        <ele>321.202</ele>
        <time>2016-06-04T13:17:15.391Z</time>
      </trkpt>
      <trkpt lat="47.50407" lon="6.7875">
        <ele>320.823</ele>
        <time>2016-06-04T13:17:16.391Z</time>
      </trkpt>
      <trkpt lat="47.50407" lon="6.78748">
        <ele>320.439</ele>
        <time>2016-06-04T13:17:17.391Z</time>
      </trkpt>
      <trkpt lat="47.50407" lon="6.78747">
        <ele>320.052</ele>
        <time>2016-06-04T13:17:18.391Z</time>
      </trkpt>
      <trkpt lat="47.50408" lon="6.78746">
        <ele>319.668</ele>
        <time>2016-06-04T13:17:19.391Z</time>
      </trkpt>
      <trkpt lat="47.50408" lon="6.78746">
        <ele>319.287</ele>
        <time>2016-06-04T13:17:20.391Z</time>
      </trkpt>
      <trkpt lat="47.50408" lon="6.78747">
        <ele>318.91</ele>
        <time>2016-06-04T13:17:21.391Z</time>
      </trkpt>
      <trkpt lat="47.50408" lon="6.78747">
        <ele>318.535</ele>
        <time>2016-06-04T13:17:22.391Z</time>
      </trkpt>
      <trkpt lat="47.50408" lon="6.78748">
        <ele>318.163</ele>
        <time>2016-06-04T13:17:23.391Z</time>
      </trkpt>
      <trkpt lat="47.50408" lon="6.78748">
        <ele>318.163</ele>
        <time>2016-06-04T13:17:24.098Z</time>
      </trkpt>
      <trkpt lat="47.50408" lon="6.78748">
        <ele>318.85</ele>
        <time>2016-06-04T13:17:24.269Z</time>
      </trkpt>
      <trkpt lat="47.50408" lon="6.78748">
        <ele>318.809</ele>
        <time>2016-06-04T13:17:25.264Z</time>
      </trkpt>
      <trkpt lat="47.50408" lon="6.78748">
        <ele>316.937</ele>
        <time>2016-06-04T13:17:26.009Z</time>
      </trkpt>
      <trkpt lat="47.50409" lon="6.78749">
        <ele>317.035</ele>
        <time>2016-06-04T13:17:27.005Z</time>
      </trkpt>
      <trkpt lat="47.50409" lon="6.78749">
        <ele>317.137</ele>
        <time>2016-06-04T13:17:28.001Z</time>
      </trkpt>
      <trkpt lat="47.50409" lon="6.78749">
        <ele>316.908</ele>
        <time>2016-06-04T13:17:29.000Z</time>
      </trkpt>
      <trkpt lat="47.50409" lon="6.78749">
        <ele>316.697</ele>
        <time>2016-06-04T13:17:30.000Z</time>
      </trkpt>
      <trkpt lat="47.50409" lon="6.78749">
        <ele>317.116</ele>
        <time>2016-06-04T13:17:31.000Z</time>
      </trkpt>
      <trkpt lat="47.50409" lon="6.78749">
        <ele>317.301</ele>
        <time>2016-06-04T13:17:32.000Z</time>
      </trkpt>
      <trkpt lat="47.50409" lon="6.78749">
        <ele>317.277</ele>
        <time>2016-06-04T13:17:33.000Z</time>
      </trkpt>
      <trkpt lat="47.50409" lon="6.78749">
        <ele>317.455</ele>
        <time>2016-06-04T13:17:34.000Z</time>
      </trkpt>
      <trkpt lat="47.50409" lon="6.78749">
        <ele>317.76</ele>
        <time>2016-06-04T13:17:35.000Z</time>
      </trkpt>
      <trkpt lat="47.50409" lon="6.78749">
        <ele>317.632</ele>
        <time>2016-06-04T13:17:36.000Z</time>
      </trkpt>
      <trkpt lat="47.50409" lon="6.78749">
        <ele>317.635</ele>
        <time>2016-06-04T13:17:37.000Z</time>
      </trkpt>
      <trkpt lat="47.50409" lon="6.78749">
        <ele>317.524</ele>
        <time>2016-06-04T13:17:38.000Z</time>
      </trkpt>
      <trkpt lat="47.50409" lon="6.78749">
        <ele>317.218</ele>
        <time>2016-06-04T13:17:39.000Z</time>
      </trkpt>
      <trkpt lat="47.50409" lon="6.78749">
        <ele>317.218</ele>
        <time>2016-06-04T13:17:39.876Z</time>
      </trkpt>
      <trkpt lat="47.50409" lon="6.78749">
        <ele>317.218</ele>
        <time>2016-06-04T13:17:40.073Z</time>
      </trkpt>
      <trkpt lat="47.50409" lon="6.78749">
        <ele>317.218</ele>
        <time>2016-06-04T13:17:40.096Z</time>
      </trkpt>
      <trkpt lat="47.50411" lon="6.78748">
        <ele>318.663</ele>
        <time>2016-06-04T13:17:41.000Z</time>
      </trkpt>
      <trkpt lat="47.50411" lon="6.78748">
        <ele>318.526</ele>
        <time>2016-06-04T13:17:42.000Z</time>
      </trkpt>
      <trkpt lat="47.50411" lon="6.78748">
        <ele>318.432</ele>
        <time>2016-06-04T13:17:43.000Z</time>
      </trkpt>
      <trkpt lat="47.50411" lon="6.78748">
        <ele>318.023</ele>
        <time>2016-06-04T13:17:44.000Z</time>
      </trkpt>
      <trkpt lat="47.50411" lon="6.78748">
        <ele>318.189</ele>
        <time>2016-06-04T13:17:45.000Z</time>
      </trkpt>
      <trkpt lat="47.50411" lon="6.78748">
        <ele>318.517</ele>
        <time>2016-06-04T13:17:46.000Z</time>
      </trkpt>
      <trkpt lat="47.50411" lon="6.78748">
        <ele>318.517</ele>
        <time>2016-06-04T13:17:46.545Z</time>
      </trkpt>
      <trkpt lat="47.50411" lon="6.78748">
        <ele>319.111</ele>
        <time>2016-06-04T13:17:47.000Z</time>
      </trkpt>
      <trkpt lat="47.50411" lon="6.78748">
        <ele>319.153</ele>
        <time>2016-06-04T13:17:48.000Z</time>
      </trkpt>
      <trkpt lat="47.50411" lon="6.78748">
        <ele>319.236</ele>
        <time>2016-06-04T13:17:49.000Z</time>
      </trkpt>
      <trkpt lat="47.50411" lon="6.78748">
        <ele>319.12</ele>
        <time>2016-06-04T13:17:50.000Z</time>
      </trkpt>
      <trkpt lat="47.50411" lon="6.78748">
        <ele>319.173</ele>
        <time>2016-06-04T13:17:51.000Z</time>
      </trkpt>
      <trkpt lat="47.50411" lon="6.78748">
        <ele>318.933</ele>
        <time>2016-06-04T13:17:52.000Z</time>
      </trkpt>
      <trkpt lat="47.50411" lon="6.78748">
        <ele>319.082</ele>
        <time>2016-06-04T13:17:53.000Z</time>
      </trkpt>
      <trkpt lat="47.50411" lon="6.78748">
        <ele>318.903</ele>
        <time>2016-06-04T13:17:54.000Z</time>
      </trkpt>
      <trkpt lat="47.50411" lon="6.78748">
        <ele>318.721</ele>
        <time>2016-06-04T13:17:55.000Z</time>
      </trkpt>
      <trkpt lat="47.50411" lon="6.78748">
        <ele>318.744</ele>
        <time>2016-06-04T13:17:56.000Z</time>
      </trkpt>
      <trkpt lat="47.50411" lon="6.78748">
        <ele>318.701</ele>
        <time>2016-06-04T13:17:57.000Z</time>
      </trkpt>
      <trkpt lat="47.50411" lon="6.78748">
        <ele>318.731</ele>
        <time>2016-06-04T13:17:58.000Z</time>
      </trkpt>
      <trkpt lat="47.50411" lon="6.78748">
        <ele>318.698</ele>
        <time>2016-06-04T13:17:59.000Z</time>
      </trkpt>
      <trkpt lat="47.50413" lon="6.78749">
        <ele>318.796</ele>
        <time>2016-06-04T13:18:00.000Z</time>
      </trkpt>
      <trkpt lat="47.50413" lon="6.78749">
        <ele>318.891</ele>
        <time>2016-06-04T13:18:01.000Z</time>
      </trkpt>
      <trkpt lat="47.50413" lon="6.78749">
        <ele>318.982</ele>
        <time>2016-06-04T13:18:02.000Z</time>
      </trkpt>
      <trkpt lat="47.50413" lon="6.78749">
        <ele>318.865</ele>
        <time>2016-06-04T13:18:03.000Z</time>
      </trkpt>
      <trkpt lat="47.50413" lon="6.78749">
        <ele>318.775</ele>
        <time>2016-06-04T13:18:04.000Z</time>
      </trkpt>
      <trkpt lat="47.50413" lon="6.78749">
        <ele>318.772</ele>
        <time>2016-06-04T13:18:05.000Z</time>
      </trkpt>
      <trkpt lat="47.50413" lon="6.78749">
        <ele>318.833</ele>
        <time>2016-06-04T13:18:06.000Z</time>
      </trkpt>
      <trkpt lat="47.50413" lon="6.78749">
        <ele>318.876</ele>
        <time>2016-06-04T13:18:07.000Z</time>
      </trkpt>
      <trkpt lat="47.50413" lon="6.78749">
        <ele>318.899</ele>
        <time>2016-06-04T13:18:08.000Z</time>
      </trkpt>
      <trkpt lat="47.50413" lon="6.78749">
        <ele>319.007</ele>
        <time>2016-06-04T13:18:09.000Z</time>
      </trkpt>
      <trkpt lat="47.50413" lon="6.78749">
        <ele>319.068</ele>
        <time>2016-06-04T13:18:10.000Z</time>
      </trkpt>
      <trkpt lat="47.50413" lon="6.78749">
        <ele>318.98</ele>
        <time>2016-06-04T13:18:11.000Z</time>
      </trkpt>
      <trkpt lat="47.50413" lon="6.78749">
        <ele>319.01</ele>
        <time>2016-06-04T13:18:12.000Z</time>
      </trkpt>
      <trkpt lat="47.50413" lon="6.78749">
        <ele>319.01</ele>
        <time>2016-06-04T13:18:12.690Z</time>
      </trkpt>
      <trkpt lat="47.50413" lon="6.78749">
        <ele>319.102</ele>
        <time>2016-06-04T13:18:13.000Z</time>
      </trkpt>
      <trkpt lat="47.50413" lon="6.78749">
        <ele>319.157</ele>
        <time>2016-06-04T13:18:14.000Z</time>
      </trkpt>
      <trkpt lat="47.50413" lon="6.78749">
        <ele>319.2</ele>
        <time>2016-06-04T13:18:15.000Z</time>
      </trkpt>
      <trkpt lat="47.50413" lon="6.78749">
        <ele>319.216</ele>
        <time>2016-06-04T13:18:16.000Z</time>
      </trkpt>
      <trkpt lat="47.50413" lon="6.78749">
        <ele>319.34</ele>
        <time>2016-06-04T13:18:17.000Z</time>
      </trkpt>
      <trkpt lat="47.50413" lon="6.7875">
        <ele>319.353</ele>
        <time>2016-06-04T13:18:18.000Z</time>
      </trkpt>
      <trkpt lat="47.50413" lon="6.78751">
        <ele>319.25</ele>
        <time>2016-06-04T13:18:19.000Z</time>
      </trkpt>
      <trkpt lat="47.50412" lon="6.78752">
        <ele>319.332</ele>
        <time>2016-06-04T13:18:20.000Z</time>
      </trkpt>
      <trkpt lat="47.50412" lon="6.78753">
        <ele>319.406</ele>
        <time>2016-06-04T13:18:21.000Z</time>
      </trkpt>
      <trkpt lat="47.50412" lon="6.78753">
        <ele>319.37</ele>
        <time>2016-06-04T13:18:22.000Z</time>
      </trkpt>
      <trkpt lat="47.50412" lon="6.78753">
        <ele>319.366</ele>
        <time>2016-06-04T13:18:23.000Z</time>
      </trkpt>
      <trkpt lat="47.50412" lon="6.78753">
        <ele>319.269</ele>
        <time>2016-06-04T13:18:24.000Z</time>
      </trkpt>
      <trkpt lat="47.50412" lon="6.78753">
        <ele>319.607</ele>
        <time>2016-06-04T13:18:25.000Z</time>
      </trkpt>
      <trkpt lat="47.50412" lon="6.78753">
        <ele>319.672</ele>
        <time>2016-06-04T13:18:26.000Z</time>
      </trkpt>
      <trkpt lat="47.50412" lon="6.78755">
        <ele>319.605</ele>
        <time>2016-06-04T13:18:27.000Z</time>
      </trkpt>
      <trkpt lat="47.50412" lon="6.78756">
        <ele>319.719</ele>
        <time>2016-06-04T13:18:28.000Z</time>
      </trkpt>
      <trkpt lat="47.50412" lon="6.78757">
        <ele>319.656</ele>
        <time>2016-06-04T13:18:29.000Z</time>
      </trkpt>
      <trkpt lat="47.50412" lon="6.78757">
        <ele>319.746</ele>
        <time>2016-06-04T13:18:30.000Z</time>
      </trkpt>
      <trkpt lat="47.50412" lon="6.78757">
        <ele>319.74</ele>
        <time>2016-06-04T13:18:31.000Z</time>
      </trkpt>
      <trkpt lat="47.50412" lon="6.78757">
        <ele>319.702</ele>
        <time>2016-06-04T13:18:32.000Z</time>
      </trkpt>
      <trkpt lat="47.50412" lon="6.78757">
        <ele>319.707</ele>
        <time>2016-06-04T13:18:33.000Z</time>
      </trkpt>
      <trkpt lat="47.50412" lon="6.78757">
        <ele>319.769</ele>
        <time>2016-06-04T13:18:34.000Z</time>
      </trkpt>
      <trkpt lat="47.50412" lon="6.78757">
        <ele>319.836</ele>
        <time>2016-06-04T13:18:35.000Z</time>
      </trkpt>
      <trkpt lat="47.50412" lon="6.78757">
        <ele>319.854</ele>
        <time>2016-06-04T13:18:36.000Z</time>
      </trkpt>
      <trkpt lat="47.50412" lon="6.78757">
        <ele>319.858</ele>
        <time>2016-06-04T13:18:37.000Z</time>
      </trkpt>
      <trkpt lat="47.50412" lon="6.78757">
        <ele>319.837</ele>
        <time>2016-06-04T13:18:38.000Z</time>
      </trkpt>
      <trkpt lat="47.50412" lon="6.78757">
        <ele>319.855</ele>
        <time>2016-06-04T13:18:39.000Z</time>
      </trkpt>
      <trkpt lat="47.50412" lon="6.78757">
        <ele>319.769</ele>
        <time>2016-06-04T13:18:40.000Z</time>
      </trkpt>
      <trkpt lat="47.50412" lon="6.78757">
        <ele>319.768</ele>
        <time>2016-06-04T13:18:41.000Z</time>
      </trkpt>
      <trkpt lat="47.50412" lon="6.78757">
        <ele>319.835</ele>
        <time>2016-06-04T13:18:42.000Z</time>
      </trkpt>
      <trkpt lat="47.50412" lon="6.78757">
        <ele>319.781</ele>
        <time>2016-06-04T13:18:43.000Z</time>
      </trkpt>
      <trkpt lat="47.50412" lon="6.78757">
        <ele>319.683</ele>
        <time>2016-06-04T13:18:44.000Z</time>
      </trkpt>
      <trkpt lat="47.50412" lon="6.78757">
        <ele>319.593</ele>
        <time>2016-06-04T13:18:45.000Z</time>
      </trkpt>
      <trkpt lat="47.50412" lon="6.78757">
        <ele>319.621</ele>
        <time>2016-06-04T13:18:46.000Z</time>
      </trkpt>
      <trkpt lat="47.50412" lon="6.78757">
        <ele>319.653</ele>
        <time>2016-06-04T13:18:47.000Z</time>
      </trkpt>
      <trkpt lat="47.50412" lon="6.78757">
        <ele>318.658</ele>
        <time>2016-06-04T13:18:48.000Z</time>
      </trkpt>
      <trkpt lat="47.50412" lon="6.78757">
        <ele>318.441</ele>
        <time>2016-06-04T13:18:49.000Z</time>
      </trkpt>
      <trkpt lat="47.50412" lon="6.78757">
        <ele>318.603</ele>
        <time>2016-06-04T13:18:50.000Z</time>
      </trkpt>
      <trkpt lat="47.50411" lon="6.78757">
        <ele>318.724</ele>
        <time>2016-06-04T13:18:51.000Z</time>
      </trkpt>
      <trkpt lat="47.50411" lon="6.78758">
        <ele>318.754</ele>
        <time>2016-06-04T13:18:52.000Z</time>
      </trkpt>
      <trkpt lat="47.50411" lon="6.78758">
        <ele>318.496</ele>
        <time>2016-06-04T13:18:53.000Z</time>
      </trkpt>
      <trkpt lat="47.50411" lon="6.78758">
        <ele>318.422</ele>
        <time>2016-06-04T13:18:54.000Z</time>
      </trkpt>
      <trkpt lat="47.5041" lon="6.78758">
        <ele>319.903</ele>
        <time>2016-06-04T13:18:55.000Z</time>
      </trkpt>
      <trkpt lat="47.5041" lon="6.78758">
        <ele>320.023</ele>
        <time>2016-06-04T13:18:56.000Z</time>
      </trkpt>
      <trkpt lat="47.5041" lon="6.78758">
        <ele>320.141</ele>
        <time>2016-06-04T13:18:57.000Z</time>
      </trkpt>
      <trkpt lat="47.5041" lon="6.78758">
        <ele>320.254</ele>
        <time>2016-06-04T13:18:58.000Z</time>
      </trkpt>
      <trkpt lat="47.5041" lon="6.78758">
        <ele>320.357</ele>
        <time>2016-06-04T13:18:59.000Z</time>
      </trkpt>
      <trkpt lat="47.5041" lon="6.78758">
        <ele>320.449</ele>
        <time>2016-06-04T13:19:00.000Z</time>
      </trkpt>
      <trkpt lat="47.5041" lon="6.78758">
        <ele>320.527</ele>
        <time>2016-06-04T13:19:01.000Z</time>
      </trkpt>
      <trkpt lat="47.5041" lon="6.78758">
        <ele>320.588</ele>
        <time>2016-06-04T13:19:02.000Z</time>
      </trkpt>
      <trkpt lat="47.5041" lon="6.78758">
        <ele>320.632</ele>
        <time>2016-06-04T13:19:03.000Z</time>
      </trkpt>
      <trkpt lat="47.50411" lon="6.78758">
        <ele>320.658</ele>
        <time>2016-06-04T13:19:04.000Z</time>
      </trkpt>
      <trkpt lat="47.50411" lon="6.78758">
        <ele>320.665</ele>
        <time>2016-06-04T13:19:05.000Z</time>
      </trkpt>
      <trkpt lat="47.50412" lon="6.78759">
        <ele>320.654</ele>
        <time>2016-06-04T13:19:06.000Z</time>
      </trkpt>
      <trkpt lat="47.50413" lon="6.78759">
        <ele>320.626</ele>
        <time>2016-06-04T13:19:07.000Z</time>
      </trkpt>
      <trkpt lat="47.50415" lon="6.78759">
        <ele>320.583</ele>
        <time>2016-06-04T13:19:08.000Z</time>
      </trkpt>
      <trkpt lat="47.50416" lon="6.7876">
        <ele>320.525</ele>
        <time>2016-06-04T13:19:09.000Z</time>
      </trkpt>
      <trkpt lat="47.50417" lon="6.7876">
        <ele>320.458</ele>
        <time>2016-06-04T13:19:10.000Z</time>
      </trkpt>
      <trkpt lat="47.50418" lon="6.78761">
        <ele>320.384</ele>
        <time>2016-06-04T13:19:11.000Z</time>
      </trkpt>
      <trkpt lat="47.50419" lon="6.78761">
        <ele>320.306</ele>
        <time>2016-06-04T13:19:12.000Z</time>
      </trkpt>
      <trkpt lat="47.50419" lon="6.78761">
        <ele>320.227</ele>
        <time>2016-06-04T13:19:13.000Z</time>
      </trkpt>
      <trkpt lat="47.5042" lon="6.78761">
        <ele>320.148</ele>
        <time>2016-06-04T13:19:14.000Z</time>
      </trkpt>
      <trkpt lat="47.5042" lon="6.78761">
        <ele>320.072</ele>
        <time>2016-06-04T13:19:15.000Z</time>
      </trkpt>
      <trkpt lat="47.5042" lon="6.78761">
        <ele>320</ele>
        <time>2016-06-04T13:19:16.000Z</time>
      </trkpt>
      <trkpt lat="47.5042" lon="6.78762">
        <ele>319.933</ele>
        <time>2016-06-04T13:19:17.000Z</time>
      </trkpt>
      <trkpt lat="47.5042" lon="6.78762">
        <ele>319.872</ele>
        <time>2016-06-04T13:19:18.000Z</time>
      </trkpt>
      <trkpt lat="47.5042" lon="6.78763">
        <ele>319.818</ele>
        <time>2016-06-04T13:19:19.000Z</time>
      </trkpt>
      <trkpt lat="47.50421" lon="6.78764">
        <ele>319.773</ele>
        <time>2016-06-04T13:19:20.000Z</time>
      </trkpt>
      <trkpt lat="47.50422" lon="6.78765">
        <ele>319.734</ele>
        <time>2016-06-04T13:19:21.000Z</time>
      </trkpt>
      <trkpt lat="47.50423" lon="6.78766">
        <ele>319.702</ele>
        <time>2016-06-04T13:19:22.000Z</time>
      </trkpt>
      <trkpt lat="47.50424" lon="6.78766">
        <ele>319.675</ele>
        <time>2016-06-04T13:19:23.000Z</time>
      </trkpt>
      <trkpt lat="47.50425" lon="6.78766">
        <ele>319.651</ele>
        <time>2016-06-04T13:19:24.000Z</time>
      </trkpt>
      <trkpt lat="47.50426" lon="6.78765">
        <ele>319.628</ele>
        <time>2016-06-04T13:19:25.000Z</time>
      </trkpt>
      <trkpt lat="47.50427" lon="6.78764">
        <ele>319.605</ele>
        <time>2016-06-04T13:19:26.000Z</time>
      </trkpt>
      <trkpt lat="47.50428" lon="6.78763">
        <ele>319.583</ele>
        <time>2016-06-04T13:19:27.000Z</time>
      </trkpt>
      <trkpt lat="47.50428" lon="6.78763">
        <ele>319.56</ele>
        <time>2016-06-04T13:19:28.000Z</time>
      </trkpt>
      <trkpt lat="47.50429" lon="6.78762">
        <ele>319.537</ele>
        <time>2016-06-04T13:19:29.000Z</time>
      </trkpt>
      <trkpt lat="47.50429" lon="6.78762">
        <ele>319.513</ele>
        <time>2016-06-04T13:19:30.000Z</time>
      </trkpt>
      <trkpt lat="47.50429" lon="6.78763">
        <ele>318.655</ele>
        <time>2016-06-04T13:19:32.284Z</time>
      </trkpt>
      <trkpt lat="47.50429" lon="6.78765">
        <ele>317.42</ele>
        <time>2016-06-04T13:19:32.307Z</time>
      </trkpt>
      <trkpt lat="47.5043" lon="6.78765">
        <ele>317.205</ele>
        <time>2016-06-04T13:19:33.243Z</time>
      </trkpt>
      <trkpt lat="47.5043" lon="6.78766">
        <ele>317.079</ele>
        <time>2016-06-04T13:19:34.388Z</time>
      </trkpt>
      <trkpt lat="47.5043" lon="6.78766">
        <ele>317.16</ele>
        <time>2016-06-04T13:19:35.355Z</time>
      </trkpt>
      <trkpt lat="47.5043" lon="6.78766">
        <ele>317.16</ele>
        <time>2016-06-04T13:19:36.144Z</time>
      </trkpt>
      <trkpt lat="47.5043" lon="6.78766">
        <ele>317.16</ele>
        <time>2016-06-04T13:19:36.145Z</time>
      </trkpt>
      <trkpt lat="47.5043" lon="6.78766">
        <ele>317.163</ele>
        <time>2016-06-04T13:19:36.240Z</time>
      </trkpt>
      <trkpt lat="47.5043" lon="6.78766">
        <ele>317.414</ele>
        <time>2016-06-04T13:19:37.243Z</time>
      </trkpt>
      <trkpt lat="47.5043" lon="6.78766">
        <ele>317.488</ele>
        <time>2016-06-04T13:19:38.225Z</time>
      </trkpt>
      <trkpt lat="47.5043" lon="6.78766">
        <ele>317.516</ele>
        <time>2016-06-04T13:19:39.224Z</time>
      </trkpt>
      <trkpt lat="47.5043" lon="6.78766">
        <ele>317.542</ele>
        <time>2016-06-04T13:19:40.205Z</time>
      </trkpt>
      <trkpt lat="47.5043" lon="6.78766">
        <ele>317.612</ele>
        <time>2016-06-04T13:19:41.228Z</time>
      </trkpt>
      <trkpt lat="47.5043" lon="6.78766">
        <ele>317.596</ele>
        <time>2016-06-04T13:19:42.230Z</time>
      </trkpt>
      <trkpt lat="47.5043" lon="6.78766">
        <ele>317.589</ele>
        <time>2016-06-04T13:19:43.330Z</time>
      </trkpt>
      <trkpt lat="47.50431" lon="6.78766">
        <ele>317.437</ele>
        <time>2016-06-04T13:19:44.331Z</time>
      </trkpt>
      <trkpt lat="47.50432" lon="6.78765">
        <ele>317.317</ele>
        <time>2016-06-04T13:19:45.246Z</time>
      </trkpt>
      <trkpt lat="47.50432" lon="6.78765">
        <ele>317.475</ele>
        <time>2016-06-04T13:19:46.284Z</time>
      </trkpt>
      <trkpt lat="47.50432" lon="6.78765">
        <ele>317.544</ele>
        <time>2016-06-04T13:19:47.365Z</time>
      </trkpt>
      <trkpt lat="47.50432" lon="6.78765">
        <ele>317.565</ele>
        <time>2016-06-04T13:19:48.418Z</time>
      </trkpt>
      <trkpt lat="47.50432" lon="6.78765">
        <ele>317.595</ele>
        <time>2016-06-04T13:19:49.403Z</time>
      </trkpt>
      <trkpt lat="47.50432" lon="6.78765">
        <ele>317.57</ele>
        <time>2016-06-04T13:19:50.396Z</time>
      </trkpt>
      <trkpt lat="47.50432" lon="6.78765">
        <ele>317.587</ele>
        <time>2016-06-04T13:19:51.345Z</time>
      </trkpt>
      <trkpt lat="47.50432" lon="6.78765">
        <ele>317.654</ele>
        <time>2016-06-04T13:19:52.372Z</time>
      </trkpt>
      <trkpt lat="47.50432" lon="6.78765">
        <ele>317.645</ele>
        <time>2016-06-04T13:19:53.364Z</time>
      </trkpt>
      <trkpt lat="47.50432" lon="6.78765">
        <ele>317.647</ele>
        <time>2016-06-04T13:19:54.401Z</time>
      </trkpt>
      <trkpt lat="47.50432" lon="6.78765">
        <ele>317.637</ele>
        <time>2016-06-04T13:19:55.447Z</time>
      </trkpt>
      <trkpt lat="47.50432" lon="6.78765">
        <ele>317.625</ele>
        <time>2016-06-04T13:19:56.438Z</time>
      </trkpt>
      <trkpt lat="47.50432" lon="6.78765">
        <ele>317.621</ele>
        <time>2016-06-04T13:19:57.427Z</time>
      </trkpt>
      <trkpt lat="47.50432" lon="6.78765">
        <ele>317.628</ele>
        <time>2016-06-04T13:19:58.377Z</time>
      </trkpt>
      <trkpt lat="47.50432" lon="6.78765">
        <ele>317.648</ele>
        <time>2016-06-04T13:19:59.394Z</time>
      </trkpt>
      <trkpt lat="47.50432" lon="6.78765">
        <ele>317.638</ele>
        <time>2016-06-04T13:20:00.317Z</time>
      </trkpt>
      <trkpt lat="47.50432" lon="6.78765">
        <ele>317.663</ele>
        <time>2016-06-04T13:20:01.330Z</time>
      </trkpt>
      <trkpt lat="47.50432" lon="6.78765">
        <ele>317.65</ele>
        <time>2016-06-04T13:20:02.422Z</time>
      </trkpt>
      <trkpt lat="47.50432" lon="6.78765">
        <ele>317.703</ele>
        <time>2016-06-04T13:20:03.335Z</time>
      </trkpt>
      <trkpt lat="47.50433" lon="6.78764">
        <ele>318.076</ele>
        <time>2016-06-04T13:20:04.243Z</time>
      </trkpt>
      <trkpt lat="47.50433" lon="6.78764">
        <ele>317.379</ele>
        <time>2016-06-04T13:20:05.274Z</time>
      </trkpt>
      <trkpt lat="47.50434" lon="6.78764">
        <ele>317.106</ele>
        <time>2016-06-04T13:20:06.257Z</time>
      </trkpt>
      <trkpt lat="47.50435" lon="6.78764">
        <ele>317.14</ele>
        <time>2016-06-04T13:20:07.221Z</time>
      </trkpt>
      <trkpt lat="47.50436" lon="6.78764">
        <ele>316.884</ele>
        <time>2016-06-04T13:20:08.222Z</time>
      </trkpt>
      <trkpt lat="47.50437" lon="6.78764">
        <ele>316.81</ele>
        <time>2016-06-04T13:20:09.225Z</time>
      </trkpt>
      <trkpt lat="47.50438" lon="6.78764">
        <ele>316.738</ele>
        <time>2016-06-04T13:20:10.245Z</time>
      </trkpt>
      <trkpt lat="47.50439" lon="6.78764">
        <ele>316.16</ele>
        <time>2016-06-04T13:20:11.232Z</time>
      </trkpt>
      <trkpt lat="47.5044" lon="6.78764">
        <ele>315.79</ele>
        <time>2016-06-04T13:20:12.221Z</time>
      </trkpt>
      <trkpt lat="47.5044" lon="6.78764">
        <ele>316.054</ele>
        <time>2016-06-04T13:20:13.224Z</time>
      </trkpt>
      <trkpt lat="47.5044" lon="6.78764">
        <ele>316.072</ele>
        <time>2016-06-04T13:20:14.224Z</time>
      </trkpt>
      <trkpt lat="47.5044" lon="6.78764">
        <ele>316.084</ele>
        <time>2016-06-04T13:20:15.305Z</time>
      </trkpt>
      <trkpt lat="47.5044" lon="6.78764">
        <ele>316.117</ele>
        <time>2016-06-04T13:20:16.313Z</time>
      </trkpt>
      <trkpt lat="47.5044" lon="6.78764">
        <ele>316.094</ele>
        <time>2016-06-04T13:20:17.360Z</time>
      </trkpt>
      <trkpt lat="47.5044" lon="6.78764">
        <ele>316.109</ele>
        <time>2016-06-04T13:20:18.500Z</time>
      </trkpt>
      <trkpt lat="47.5044" lon="6.78764">
        <ele>316.123</ele>
        <time>2016-06-04T13:20:19.473Z</time>
      </trkpt>
      <trkpt lat="47.5044" lon="6.78764">
        <ele>316.083</ele>
        <time>2016-06-04T13:20:20.402Z</time>
      </trkpt>
      <trkpt lat="47.5044" lon="6.78764">
        <ele>315.999</ele>
        <time>2016-06-04T13:20:21.410Z</time>
      </trkpt>
      <trkpt lat="47.50441" lon="6.78763">
        <ele>315.861</ele>
        <time>2016-06-04T13:20:22.470Z</time>
      </trkpt>
      <trkpt lat="47.50442" lon="6.78762">
        <ele>316.335</ele>
        <time>2016-06-04T13:20:23.370Z</time>
      </trkpt>
      <trkpt lat="47.50442" lon="6.78762">
        <ele>316.281</ele>
        <time>2016-06-04T13:20:24.295Z</time>
      </trkpt>
      <trkpt lat="47.50443" lon="6.78762">
        <ele>316.011</ele>
        <time>2016-06-04T13:20:25.286Z</time>
      </trkpt>
      <trkpt lat="47.50443" lon="6.78763">
        <ele>316.211</ele>
        <time>2016-06-04T13:20:26.217Z</time>
      </trkpt>
      <trkpt lat="47.50443" lon="6.78763">
        <ele>316.207</ele>
        <time>2016-06-04T13:20:27.220Z</time>
      </trkpt>
      <trkpt lat="47.50444" lon="6.78763">
        <ele>316.852</ele>
        <time>2016-06-04T13:20:28.288Z</time>
      </trkpt>
      <trkpt lat="47.50443" lon="6.78763">
        <ele>317.323</ele>
        <time>2016-06-04T13:20:29.261Z</time>
      </trkpt>
      <trkpt lat="47.50443" lon="6.78763">
        <ele>317.672</ele>
        <time>2016-06-04T13:20:30.311Z</time>
      </trkpt>
      <trkpt lat="47.50443" lon="6.78763">
        <ele>317.671</ele>
        <time>2016-06-04T13:20:31.410Z</time>
      </trkpt>
      <trkpt lat="47.50442" lon="6.78764">
        <ele>317.348</ele>
        <time>2016-06-04T13:20:32.356Z</time>
      </trkpt>
      <trkpt lat="47.50442" lon="6.78764">
        <ele>317.348</ele>
        <time>2016-06-04T13:20:33.103Z</time>
      </trkpt>
      <trkpt lat="47.50442" lon="6.78764">
        <ele>317.713</ele>
        <time>2016-06-04T13:20:33.346Z</time>
      </trkpt>
      <trkpt lat="47.50441" lon="6.78765">
        <ele>317.783</ele>
        <time>2016-06-04T13:20:34.451Z</time>
      </trkpt>
      <trkpt lat="47.5044" lon="6.78765">
        <ele>317.44</ele>
        <time>2016-06-04T13:20:35.418Z</time>
      </trkpt>
      <trkpt lat="47.50439" lon="6.78765">
        <ele>317.446</ele>
        <time>2016-06-04T13:20:36.308Z</time>
      </trkpt>
      <trkpt lat="47.50439" lon="6.78765">
        <ele>317.383</ele>
        <time>2016-06-04T13:20:37.228Z</time>
      </trkpt>
      <trkpt lat="47.50438" lon="6.78765">
        <ele>316.816</ele>
        <time>2016-06-04T13:20:38.313Z</time>
      </trkpt>
      <trkpt lat="47.50437" lon="6.78764">
        <ele>316.586</ele>
        <time>2016-06-04T13:20:39.365Z</time>
      </trkpt>
      <trkpt lat="47.50436" lon="6.78763">
        <ele>316.53</ele>
        <time>2016-06-04T13:20:40.377Z</time>
      </trkpt>
      <trkpt lat="47.50435" lon="6.78763">
        <ele>316.604</ele>
        <time>2016-06-04T13:20:41.410Z</time>
      </trkpt>
      <trkpt lat="47.50434" lon="6.78764">
        <ele>316.368</ele>
        <time>2016-06-04T13:20:42.432Z</time>
      </trkpt>
      <trkpt lat="47.50433" lon="6.78765">
        <ele>315.786</ele>
        <time>2016-06-04T13:20:43.494Z</time>
      </trkpt>
      <trkpt lat="47.50432" lon="6.78766">
        <ele>316.216</ele>
        <time>2016-06-04T13:20:44.450Z</time>
      </trkpt>
      <trkpt lat="47.50431" lon="6.78768">
        <ele>316.027</ele>
        <time>2016-06-04T13:20:45.381Z</time>
      </trkpt>
      <trkpt lat="47.50429" lon="6.78768">
        <ele>315.623</ele>
        <time>2016-06-04T13:20:46.374Z</time>
      </trkpt>
      <trkpt lat="47.50428" lon="6.78768">
        <ele>315.641</ele>
        <time>2016-06-04T13:20:47.349Z</time>
      </trkpt>
      <trkpt lat="47.50427" lon="6.78768">
        <ele>315.703</ele>
        <time>2016-06-04T13:20:48.316Z</time>
      </trkpt>
      <trkpt lat="47.50426" lon="6.78767">
        <ele>315.655</ele>
        <time>2016-06-04T13:20:49.368Z</time>
      </trkpt>
      <trkpt lat="47.50425" lon="6.78766">
        <ele>315.996</ele>
        <time>2016-06-04T13:20:50.362Z</time>
      </trkpt>
      <trkpt lat="47.50425" lon="6.78765">
        <ele>316.008</ele>
        <time>2016-06-04T13:20:51.379Z</time>
      </trkpt>
      <trkpt lat="47.50425" lon="6.78764">
        <ele>316.063</ele>
        <time>2016-06-04T13:20:52.227Z</time>
      </trkpt>
      <trkpt lat="47.50425" lon="6.78764">
        <ele>316.082</ele>
        <time>2016-06-04T13:20:53.222Z</time>
      </trkpt>
      <trkpt lat="47.50425" lon="6.78764">
        <ele>316.037</ele>
        <time>2016-06-04T13:20:54.339Z</time>
      </trkpt>
      <trkpt lat="47.50425" lon="6.78764">
        <ele>316.055</ele>
        <time>2016-06-04T13:20:55.352Z</time>
      </trkpt>
      <trkpt lat="47.50425" lon="6.78764">
        <ele>316.055</ele>
        <time>2016-06-04T13:20:56.321Z</time>
      </trkpt>
      <trkpt lat="47.50425" lon="6.78764">
        <ele>316.053</ele>
        <time>2016-06-04T13:20:57.299Z</time>
      </trkpt>
      <trkpt lat="47.50425" lon="6.78764">
        <ele>316.037</ele>
        <time>2016-06-04T13:20:58.219Z</time>
      </trkpt>
      <trkpt lat="47.50425" lon="6.78764">
        <ele>316.037</ele>
        <time>2016-06-04T13:21:06.219Z</time>
      </trkpt>
      <trkpt lat="47.50793" lon="6.78639">
        <ele>316.827</ele>
        <time>2016-06-04T13:24:48.219Z</time>
      </trkpt>
      <trkpt lat="47.50787" lon="6.78647">
        <ele>315.436</ele>
        <time>2016-06-04T13:24:49.261Z</time>
      </trkpt>
      <trkpt lat="47.50785" lon="6.78651">
        <ele>316.459</ele>
        <time>2016-06-04T13:24:50.244Z</time>
      </trkpt>
      <trkpt lat="47.50784" lon="6.78657">
        <ele>316.479</ele>
        <time>2016-06-04T13:24:51.005Z</time>
      </trkpt>
      <trkpt lat="47.50782" lon="6.78663">
        <ele>316.653</ele>
        <time>2016-06-04T13:24:52.001Z</time>
      </trkpt>
      <trkpt lat="47.5078" lon="6.78667">
        <ele>316.528</ele>
        <time>2016-06-04T13:24:53.000Z</time>
      </trkpt>
      <trkpt lat="47.50778" lon="6.78672">
        <ele>316.424</ele>
        <time>2016-06-04T13:24:54.000Z</time>
      </trkpt>
      <trkpt lat="47.50775" lon="6.78676">
        <ele>316.72</ele>
        <time>2016-06-04T13:24:55.000Z</time>
      </trkpt>
      <trkpt lat="47.50773" lon="6.7868">
        <ele>316.866</ele>
        <time>2016-06-04T13:24:56.000Z</time>
      </trkpt>
      <trkpt lat="47.5077" lon="6.78683">
        <ele>316.72</ele>
        <time>2016-06-04T13:24:57.000Z</time>
      </trkpt>
      <trkpt lat="47.50768" lon="6.78686">
        <ele>316.593</ele>
        <time>2016-06-04T13:24:58.000Z</time>
      </trkpt>
      <trkpt lat="47.50766" lon="6.78689">
        <ele>316.357</ele>
        <time>2016-06-04T13:24:59.000Z</time>
      </trkpt>
      <trkpt lat="47.50765" lon="6.78693">
        <ele>316.202</ele>
        <time>2016-06-04T13:25:00.000Z</time>
      </trkpt>
      <trkpt lat="47.50764" lon="6.78698">
        <ele>316.203</ele>
        <time>2016-06-04T13:25:01.000Z</time>
      </trkpt>
      <trkpt lat="47.50766" lon="6.78697">
        <ele>316.578</ele>
        <time>2016-06-04T13:25:02.000Z</time>
      </trkpt>
      <trkpt lat="47.50769" lon="6.78697">
        <ele>316.955</ele>
        <time>2016-06-04T13:25:03.000Z</time>
      </trkpt>
      <trkpt lat="47.50772" lon="6.78697">
        <ele>317.333</ele>
        <time>2016-06-04T13:25:04.000Z</time>
      </trkpt>
      <trkpt lat="47.50775" lon="6.78697">
        <ele>317.714</ele>
        <time>2016-06-04T13:25:05.000Z</time>
      </trkpt>
      <trkpt lat="47.50778" lon="6.78697">
        <ele>318.098</ele>
        <time>2016-06-04T13:25:06.000Z</time>
      </trkpt>
      <trkpt lat="47.50781" lon="6.78696">
        <ele>318.483</ele>
        <time>2016-06-04T13:25:07.000Z</time>
      </trkpt>
      <trkpt lat="47.50785" lon="6.78695">
        <ele>318.869</ele>
        <time>2016-06-04T13:25:08.000Z</time>
      </trkpt>
      <trkpt lat="47.50789" lon="6.78694">
        <ele>319.255</ele>
        <time>2016-06-04T13:25:09.000Z</time>
      </trkpt>
      <trkpt lat="47.50792" lon="6.78694">
        <ele>319.64</ele>
        <time>2016-06-04T13:25:10.000Z</time>
      </trkpt>
      <trkpt lat="47.50795" lon="6.78693">
        <ele>320.02</ele>
        <time>2016-06-04T13:25:11.000Z</time>
      </trkpt>
      <trkpt lat="47.50799" lon="6.78694">
        <ele>320.394</ele>
        <time>2016-06-04T13:25:12.000Z</time>
      </trkpt>
      <trkpt lat="47.50802" lon="6.78694">
        <ele>320.758</ele>
        <time>2016-06-04T13:25:13.000Z</time>
      </trkpt>
      <trkpt lat="47.50805" lon="6.78695">
        <ele>321.11</ele>
        <time>2016-06-04T13:25:14.000Z</time>
      </trkpt>
      <trkpt lat="47.50808" lon="6.78695">
        <ele>321.446</ele>
        <time>2016-06-04T13:25:15.000Z</time>
      </trkpt>
      <trkpt lat="47.50812" lon="6.78696">
        <ele>321.763</ele>
        <time>2016-06-04T13:25:16.000Z</time>
      </trkpt>
      <trkpt lat="47.50815" lon="6.78696">
        <ele>322.058</ele>
        <time>2016-06-04T13:25:17.000Z</time>
      </trkpt>
      <trkpt lat="47.50818" lon="6.78696">
        <ele>322.329</ele>
        <time>2016-06-04T13:25:18.000Z</time>
      </trkpt>
      <trkpt lat="47.50822" lon="6.78697">
        <ele>322.571</ele>
        <time>2016-06-04T13:25:19.000Z</time>
      </trkpt>
      <trkpt lat="47.50825" lon="6.78698">
        <ele>322.782</ele>
        <time>2016-06-04T13:25:20.000Z</time>
      </trkpt>
      <trkpt lat="47.50828" lon="6.78699">
        <ele>322.958</ele>
        <time>2016-06-04T13:25:21.000Z</time>
      </trkpt>
      <trkpt lat="47.50832" lon="6.787">
        <ele>323.098</ele>
        <time>2016-06-04T13:25:22.000Z</time>
      </trkpt>
      <trkpt lat="47.50835" lon="6.78701">
        <ele>323.201</ele>
        <time>2016-06-04T13:25:23.000Z</time>
      </trkpt>
      <trkpt lat="47.50838" lon="6.78702">
        <ele>323.267</ele>
        <time>2016-06-04T13:25:24.000Z</time>
      </trkpt>
      <trkpt lat="47.50841" lon="6.78703">
        <ele>323.296</ele>
        <time>2016-06-04T13:25:25.000Z</time>
      </trkpt>
      <trkpt lat="47.50844" lon="6.78704">
        <ele>323.29</ele>
        <time>2016-06-04T13:25:26.000Z</time>
      </trkpt>
      <trkpt lat="47.50848" lon="6.78705">
        <ele>323.251</ele>
        <time>2016-06-04T13:25:27.000Z</time>
      </trkpt>
      <trkpt lat="47.50851" lon="6.78706">
        <ele>323.179</ele>
        <time>2016-06-04T13:25:28.000Z</time>
      </trkpt>
      <trkpt lat="47.50854" lon="6.78707">
        <ele>323.079</ele>
        <time>2016-06-04T13:25:29.000Z</time>
      </trkpt>
      <trkpt lat="47.50858" lon="6.78708">
        <ele>322.957</ele>
        <time>2016-06-04T13:25:30.000Z</time>
      </trkpt>
      <trkpt lat="47.50862" lon="6.7871">
        <ele>322.82</ele>
        <time>2016-06-04T13:25:31.000Z</time>
      </trkpt>
      <trkpt lat="47.50865" lon="6.78711">
        <ele>322.673</ele>
        <time>2016-06-04T13:25:32.000Z</time>
      </trkpt>
      <trkpt lat="47.50869" lon="6.78712">
        <ele>322.525</ele>
        <time>2016-06-04T13:25:33.000Z</time>
      </trkpt>
      <trkpt lat="47.50873" lon="6.78714">
        <ele>322.382</ele>
        <time>2016-06-04T13:25:34.000Z</time>
      </trkpt>
      <trkpt lat="47.50877" lon="6.78716">
        <ele>322.249</ele>
        <time>2016-06-04T13:25:35.000Z</time>
      </trkpt>
      <trkpt lat="47.50882" lon="6.78719">
        <ele>322.132</ele>
        <time>2016-06-04T13:25:36.000Z</time>
      </trkpt>
      <trkpt lat="47.50886" lon="6.78721">
        <ele>322.033</ele>
        <time>2016-06-04T13:25:37.000Z</time>
      </trkpt>
      <trkpt lat="47.50891" lon="6.78724">
        <ele>321.954</ele>
        <time>2016-06-04T13:25:38.000Z</time>
      </trkpt>
      <trkpt lat="47.50896" lon="6.78726">
        <ele>321.896</ele>
        <time>2016-06-04T13:25:39.000Z</time>
      </trkpt>
      <trkpt lat="47.50901" lon="6.78728">
        <ele>321.859</ele>
        <time>2016-06-04T13:25:40.000Z</time>
      </trkpt>
      <trkpt lat="47.50905" lon="6.78729">
        <ele>321.844</ele>
        <time>2016-06-04T13:25:41.000Z</time>
      </trkpt>
      <trkpt lat="47.50908" lon="6.7873">
        <ele>321.849</ele>
        <time>2016-06-04T13:25:42.000Z</time>
      </trkpt>
      <trkpt lat="47.50911" lon="6.78731">
        <ele>321.871</ele>
        <time>2016-06-04T13:25:43.000Z</time>
      </trkpt>
      <trkpt lat="47.50912" lon="6.78731">
        <ele>321.906</ele>
        <time>2016-06-04T13:25:44.000Z</time>
      </trkpt>
      <trkpt lat="47.50914" lon="6.78732">
        <ele>321.951</ele>
        <time>2016-06-04T13:25:45.000Z</time>
      </trkpt>
      <trkpt lat="47.50914" lon="6.78732">
        <ele>322</ele>
        <time>2016-06-04T13:25:46.000Z</time>
      </trkpt>
      <trkpt lat="47.50915" lon="6.78733">
        <ele>322.049</ele>
        <time>2016-06-04T13:25:47.000Z</time>
      </trkpt>
      <trkpt lat="47.50915" lon="6.78734">
        <ele>322.094</ele>
        <time>2016-06-04T13:25:48.000Z</time>
      </trkpt>
      <trkpt lat="47.50916" lon="6.78735">
        <ele>322.13</ele>
        <time>2016-06-04T13:25:49.000Z</time>
      </trkpt>
      <trkpt lat="47.50917" lon="6.78736">
        <ele>322.154</ele>
        <time>2016-06-04T13:25:50.000Z</time>
      </trkpt>
      <trkpt lat="47.50919" lon="6.78737">
        <ele>322.167</ele>
        <time>2016-06-04T13:25:51.000Z</time>
      </trkpt>
      <trkpt lat="47.50921" lon="6.78737">
        <ele>322.167</ele>
        <time>2016-06-04T13:25:52.000Z</time>
      </trkpt>
      <trkpt lat="47.50923" lon="6.78737">
        <ele>322.155</ele>
        <time>2016-06-04T13:25:53.000Z</time>
      </trkpt>
      <trkpt lat="47.50925" lon="6.78735">
        <ele>322.131</ele>
        <time>2016-06-04T13:25:54.000Z</time>
      </trkpt>
      <trkpt lat="47.50927" lon="6.78732">
        <ele>322.098</ele>
        <time>2016-06-04T13:25:55.000Z</time>
      </trkpt>
      <trkpt lat="47.50929" lon="6.78727">
        <ele>322.057</ele>
        <time>2016-06-04T13:25:56.000Z</time>
      </trkpt>
      <trkpt lat="47.5093" lon="6.78722">
        <ele>322.011</ele>
        <time>2016-06-04T13:25:57.000Z</time>
      </trkpt>
      <trkpt lat="47.50931" lon="6.78716">
        <ele>321.962</ele>
        <time>2016-06-04T13:25:58.000Z</time>
      </trkpt>
      <trkpt lat="47.50931" lon="6.78709">
        <ele>321.913</ele>
        <time>2016-06-04T13:25:59.000Z</time>
      </trkpt>
      <trkpt lat="47.50932" lon="6.78702">
        <ele>321.867</ele>
        <time>2016-06-04T13:26:00.000Z</time>
      </trkpt>
      <trkpt lat="47.50932" lon="6.78696">
        <ele>321.826</ele>
        <time>2016-06-04T13:26:01.000Z</time>
      </trkpt>
      <trkpt lat="47.50933" lon="6.78689">
        <ele>321.79</ele>
        <time>2016-06-04T13:26:02.000Z</time>
      </trkpt>
      <trkpt lat="47.50933" lon="6.78682">
        <ele>321.761</ele>
        <time>2016-06-04T13:26:03.000Z</time>
      </trkpt>
      <trkpt lat="47.50934" lon="6.78676">
        <ele>321.739</ele>
        <time>2016-06-04T13:26:04.000Z</time>
      </trkpt>
      <trkpt lat="47.50935" lon="6.78669">
        <ele>321.728</ele>
        <time>2016-06-04T13:26:05.000Z</time>
      </trkpt>
      <trkpt lat="47.50936" lon="6.78663">
        <ele>321.73</ele>
        <time>2016-06-04T13:26:06.000Z</time>
      </trkpt>
      <trkpt lat="47.50936" lon="6.78658">
        <ele>321.746</ele>
        <time>2016-06-04T13:26:07.000Z</time>
      </trkpt>
      <trkpt lat="47.50936" lon="6.78654">
        <ele>321.78</ele>
        <time>2016-06-04T13:26:08.000Z</time>
      </trkpt>
      <trkpt lat="47.50937" lon="6.78651">
        <ele>321.836</ele>
        <time>2016-06-04T13:26:09.000Z</time>
      </trkpt>
      <trkpt lat="47.50937" lon="6.7865">
        <ele>321.915</ele>
        <time>2016-06-04T13:26:10.000Z</time>
      </trkpt>
      <trkpt lat="47.50937" lon="6.78649">
        <ele>322.021</ele>
        <time>2016-06-04T13:26:11.000Z</time>
      </trkpt>
      <trkpt lat="47.50937" lon="6.78648">
        <ele>322.153</ele>
        <time>2016-06-04T13:26:12.000Z</time>
      </trkpt>
      <trkpt lat="47.50937" lon="6.78647">
        <ele>322.311</ele>
        <time>2016-06-04T13:26:13.000Z</time>
      </trkpt>
      <trkpt lat="47.50938" lon="6.78646">
        <ele>322.492</ele>
        <time>2016-06-04T13:26:14.000Z</time>
      </trkpt>
      <trkpt lat="47.50939" lon="6.78644">
        <ele>322.695</ele>
        <time>2016-06-04T13:26:15.000Z</time>
      </trkpt>
      <trkpt lat="47.50939" lon="6.78642">
        <ele>322.916</ele>
        <time>2016-06-04T13:26:16.000Z</time>
      </trkpt>
      <trkpt lat="47.5094" lon="6.78641">
        <ele>323.151</ele>
        <time>2016-06-04T13:26:17.000Z</time>
      </trkpt>
      <trkpt lat="47.50941" lon="6.78641">
        <ele>323.399</ele>
        <time>2016-06-04T13:26:18.000Z</time>
      </trkpt>
      <trkpt lat="47.50943" lon="6.78641">
        <ele>323.654</ele>
        <time>2016-06-04T13:26:19.000Z</time>
      </trkpt>
      <trkpt lat="47.50945" lon="6.78641">
        <ele>323.915</ele>
        <time>2016-06-04T13:26:20.000Z</time>
      </trkpt>
      <trkpt lat="47.50947" lon="6.78641">
        <ele>324.18</ele>
        <time>2016-06-04T13:26:21.000Z</time>
      </trkpt>
      <trkpt lat="47.5095" lon="6.78642">
        <ele>324.447</ele>
        <time>2016-06-04T13:26:22.000Z</time>
      </trkpt>
      <trkpt lat="47.50952" lon="6.78643">
        <ele>324.719</ele>
        <time>2016-06-04T13:26:23.000Z</time>
      </trkpt>
      <trkpt lat="47.50955" lon="6.78644">
        <ele>324.997</ele>
        <time>2016-06-04T13:26:24.000Z</time>
      </trkpt>
      <trkpt lat="47.50958" lon="6.78646">
        <ele>325.282</ele>
        <time>2016-06-04T13:26:25.000Z</time>
      </trkpt>
      <trkpt lat="47.50961" lon="6.78647">
        <ele>325.576</ele>
        <time>2016-06-04T13:26:26.000Z</time>
      </trkpt>
      <trkpt lat="47.50965" lon="6.78648">
        <ele>325.881</ele>
        <time>2016-06-04T13:26:27.000Z</time>
      </trkpt>
      <trkpt lat="47.50968" lon="6.78649">
        <ele>326.198</ele>
        <time>2016-06-04T13:26:28.000Z</time>
      </trkpt>
      <trkpt lat="47.50971" lon="6.7865">
        <ele>326.528</ele>
        <time>2016-06-04T13:26:29.000Z</time>
      </trkpt>
      <trkpt lat="47.50974" lon="6.7865">
        <ele>326.87</ele>
        <time>2016-06-04T13:26:30.000Z</time>
      </trkpt>
      <trkpt lat="47.50977" lon="6.7865">
        <ele>327.224</ele>
        <time>2016-06-04T13:26:31.000Z</time>
      </trkpt>
      <trkpt lat="47.5098" lon="6.7865">
        <ele>327.586</ele>
        <time>2016-06-04T13:26:32.000Z</time>
      </trkpt>
      <trkpt lat="47.50983" lon="6.78651">
        <ele>327.956</ele>
        <time>2016-06-04T13:26:33.000Z</time>
      </trkpt>
      <trkpt lat="47.50986" lon="6.78651">
        <ele>328.329</ele>
        <time>2016-06-04T13:26:34.000Z</time>
      </trkpt>
      <trkpt lat="47.50988" lon="6.78652">
        <ele>328.702</ele>
        <time>2016-06-04T13:26:35.000Z</time>
      </trkpt>
      <trkpt lat="47.50991" lon="6.78653">
        <ele>329.07</ele>
        <time>2016-06-04T13:26:36.000Z</time>
      </trkpt>
      <trkpt lat="47.50993" lon="6.78654">
        <ele>329.427</ele>
        <time>2016-06-04T13:26:37.000Z</time>
      </trkpt>
      <trkpt lat="47.50996" lon="6.78655">
        <ele>329.768</ele>
        <time>2016-06-04T13:26:38.000Z</time>
      </trkpt>
      <trkpt lat="47.50999" lon="6.78656">
        <ele>330.088</ele>
        <time>2016-06-04T13:26:39.000Z</time>
      </trkpt>
      <trkpt lat="47.51001" lon="6.78656">
        <ele>330.381</ele>
        <time>2016-06-04T13:26:40.000Z</time>
      </trkpt>
      <trkpt lat="47.51004" lon="6.78656">
        <ele>330.642</ele>
        <time>2016-06-04T13:26:41.000Z</time>
      </trkpt>
      <trkpt lat="47.51007" lon="6.78656">
        <ele>330.867</ele>
        <time>2016-06-04T13:26:42.000Z</time>
      </trkpt>
      <trkpt lat="47.51011" lon="6.78655">
        <ele>331.052</ele>
        <time>2016-06-04T13:26:43.000Z</time>
      </trkpt>
      <trkpt lat="47.51014" lon="6.78653">
        <ele>331.194</ele>
        <time>2016-06-04T13:26:44.000Z</time>
      </trkpt>
      <trkpt lat="47.51017" lon="6.7865">
        <ele>331.291</ele>
        <time>2016-06-04T13:26:45.000Z</time>
      </trkpt>
      <trkpt lat="47.51019" lon="6.78647">
        <ele>331.342</ele>
        <time>2016-06-04T13:26:46.000Z</time>
      </trkpt>
      <trkpt lat="47.51021" lon="6.78643">
        <ele>331.349</ele>
        <time>2016-06-04T13:26:47.000Z</time>
      </trkpt>
      <trkpt lat="47.51022" lon="6.78638">
        <ele>331.313</ele>
        <time>2016-06-04T13:26:48.000Z</time>
      </trkpt>
      <trkpt lat="47.51024" lon="6.78632">
        <ele>331.237</ele>
        <time>2016-06-04T13:26:49.000Z</time>
      </trkpt>
      <trkpt lat="47.51025" lon="6.78626">
        <ele>331.126</ele>
        <time>2016-06-04T13:26:50.000Z</time>
      </trkpt>
      <trkpt lat="47.51026" lon="6.78619">
        <ele>330.984</ele>
        <time>2016-06-04T13:26:51.000Z</time>
      </trkpt>
      <trkpt lat="47.51027" lon="6.78613">
        <ele>330.817</ele>
        <time>2016-06-04T13:26:52.000Z</time>
      </trkpt>
      <trkpt lat="47.51028" lon="6.78606">
        <ele>330.628</ele>
        <time>2016-06-04T13:26:53.000Z</time>
      </trkpt>
      <trkpt lat="47.51029" lon="6.786">
        <ele>330.421</ele>
        <time>2016-06-04T13:26:54.000Z</time>
      </trkpt>
      <trkpt lat="47.5103" lon="6.78594">
        <ele>330.198</ele>
        <time>2016-06-04T13:26:55.000Z</time>
      </trkpt>
      <trkpt lat="47.51031" lon="6.78588">
        <ele>329.962</ele>
        <time>2016-06-04T13:26:56.000Z</time>
      </trkpt>
      <trkpt lat="47.51032" lon="6.78583">
        <ele>329.715</ele>
        <time>2016-06-04T13:26:57.000Z</time>
      </trkpt>
      <trkpt lat="47.51033" lon="6.78577">
        <ele>329.459</ele>
        <time>2016-06-04T13:26:58.000Z</time>
      </trkpt>
      <trkpt lat="47.51034" lon="6.78572">
        <ele>329.198</ele>
        <time>2016-06-04T13:26:59.000Z</time>
      </trkpt>
      <trkpt lat="47.51034" lon="6.78566">
        <ele>328.934</ele>
        <time>2016-06-04T13:27:00.000Z</time>
      </trkpt>
      <trkpt lat="47.51035" lon="6.78561">
        <ele>328.671</ele>
        <time>2016-06-04T13:27:01.000Z</time>
      </trkpt>
      <trkpt lat="47.51035" lon="6.78555">
        <ele>328.412</ele>
        <time>2016-06-04T13:27:02.000Z</time>
      </trkpt>
      <trkpt lat="47.51036" lon="6.7855">
        <ele>328.16</ele>
        <time>2016-06-04T13:27:03.000Z</time>
      </trkpt>
      <trkpt lat="47.51037" lon="6.78545">
        <ele>327.92</ele>
        <time>2016-06-04T13:27:04.000Z</time>
      </trkpt>
      <trkpt lat="47.51038" lon="6.7854">
        <ele>327.693</ele>
        <time>2016-06-04T13:27:05.000Z</time>
      </trkpt>
      <trkpt lat="47.5104" lon="6.78534">
        <ele>327.485</ele>
        <time>2016-06-04T13:27:06.000Z</time>
      </trkpt>
      <trkpt lat="47.51041" lon="6.78529">
        <ele>327.298</ele>
        <time>2016-06-04T13:27:07.000Z</time>
      </trkpt>
      <trkpt lat="47.51042" lon="6.78524">
        <ele>327.135</ele>
        <time>2016-06-04T13:27:08.000Z</time>
      </trkpt>
      <trkpt lat="47.51043" lon="6.78519">
        <ele>326.998</ele>
        <time>2016-06-04T13:27:09.000Z</time>
      </trkpt>
      <trkpt lat="47.51044" lon="6.78514">
        <ele>326.886</ele>
        <time>2016-06-04T13:27:10.000Z</time>
      </trkpt>
      <trkpt lat="47.51045" lon="6.78509">
        <ele>326.799</ele>
        <time>2016-06-04T13:27:11.000Z</time>
      </trkpt>
      <trkpt lat="47.51045" lon="6.78503">
        <ele>326.732</ele>
        <time>2016-06-04T13:27:12.000Z</time>
      </trkpt>
      <trkpt lat="47.51046" lon="6.78498">
        <ele>326.685</ele>
        <time>2016-06-04T13:27:13.000Z</time>
      </trkpt>
      <trkpt lat="47.51047" lon="6.78492">
        <ele>326.653</ele>
        <time>2016-06-04T13:27:14.000Z</time>
      </trkpt>
      <trkpt lat="47.51048" lon="6.78487">
        <ele>326.635</ele>
        <time>2016-06-04T13:27:15.000Z</time>
      </trkpt>
      <trkpt lat="47.51049" lon="6.78482">
        <ele>326.627</ele>
        <time>2016-06-04T13:27:16.000Z</time>
      </trkpt>
      <trkpt lat="47.5105" lon="6.78477">
        <ele>326.628</ele>
        <time>2016-06-04T13:27:17.000Z</time>
      </trkpt>
      <trkpt lat="47.51051" lon="6.78471">
        <ele>326.638</ele>
        <time>2016-06-04T13:27:18.000Z</time>
      </trkpt>
      <trkpt lat="47.51051" lon="6.78466">
        <ele>326.657</ele>
        <time>2016-06-04T13:27:19.000Z</time>
      </trkpt>
      <trkpt lat="47.51052" lon="6.7846">
        <ele>326.686</ele>
        <time>2016-06-04T13:27:20.000Z</time>
      </trkpt>
      <trkpt lat="47.51053" lon="6.78455">
        <ele>326.725</ele>
        <time>2016-06-04T13:27:21.000Z</time>
      </trkpt>
      <trkpt lat="47.51055" lon="6.78449">
        <ele>326.775</ele>
        <time>2016-06-04T13:27:22.000Z</time>
      </trkpt>
      <trkpt lat="47.51056" lon="6.78444">
        <ele>326.837</ele>
        <time>2016-06-04T13:27:23.000Z</time>
      </trkpt>
      <trkpt lat="47.51057" lon="6.78438">
        <ele>326.91</ele>
        <time>2016-06-04T13:27:24.000Z</time>
      </trkpt>
      <trkpt lat="47.51058" lon="6.78433">
        <ele>326.996</ele>
        <time>2016-06-04T13:27:25.000Z</time>
      </trkpt>
      <trkpt lat="47.5106" lon="6.78428">
        <ele>327.094</ele>
        <time>2016-06-04T13:27:26.000Z</time>
      </trkpt>
      <trkpt lat="47.51061" lon="6.78423">
        <ele>327.203</ele>
        <time>2016-06-04T13:27:27.000Z</time>
      </trkpt>
      <trkpt lat="47.51062" lon="6.78417">
        <ele>327.323</ele>
        <time>2016-06-04T13:27:28.000Z</time>
      </trkpt>
      <trkpt lat="47.51064" lon="6.78412">
        <ele>327.453</ele>
        <time>2016-06-04T13:27:29.000Z</time>
      </trkpt>
      <trkpt lat="47.51065" lon="6.78407">
        <ele>327.594</ele>
        <time>2016-06-04T13:27:30.000Z</time>
      </trkpt>
      <trkpt lat="47.51067" lon="6.78402">
        <ele>327.746</ele>
        <time>2016-06-04T13:27:31.000Z</time>
      </trkpt>
      <trkpt lat="47.51068" lon="6.78398">
        <ele>327.909</ele>
        <time>2016-06-04T13:27:32.000Z</time>
      </trkpt>
      <trkpt lat="47.51069" lon="6.78393">
        <ele>328.084</ele>
        <time>2016-06-04T13:27:33.000Z</time>
      </trkpt>
      <trkpt lat="47.51071" lon="6.78389">
        <ele>328.269</ele>
        <time>2016-06-04T13:27:34.000Z</time>
      </trkpt>
      <trkpt lat="47.51072" lon="6.78384">
        <ele>328.464</ele>
        <time>2016-06-04T13:27:35.000Z</time>
      </trkpt>
      <trkpt lat="47.51073" lon="6.7838">
        <ele>328.669</ele>
        <time>2016-06-04T13:27:36.000Z</time>
      </trkpt>
      <trkpt lat="47.51075" lon="6.78375">
        <ele>328.885</ele>
        <time>2016-06-04T13:27:37.000Z</time>
      </trkpt>
      <trkpt lat="47.51076" lon="6.78371">
        <ele>329.113</ele>
        <time>2016-06-04T13:27:38.000Z</time>
      </trkpt>
      <trkpt lat="47.51077" lon="6.78367">
        <ele>329.353</ele>
        <time>2016-06-04T13:27:39.000Z</time>
      </trkpt>
      <trkpt lat="47.51079" lon="6.78364">
        <ele>329.608</ele>
        <time>2016-06-04T13:27:40.000Z</time>
      </trkpt>
      <trkpt lat="47.5108" lon="6.78361">
        <ele>329.878</ele>
        <time>2016-06-04T13:27:41.000Z</time>
      </trkpt>
      <trkpt lat="47.51082" lon="6.78358">
        <ele>330.162</ele>
        <time>2016-06-04T13:27:42.000Z</time>
      </trkpt>
      <trkpt lat="47.51083" lon="6.78356">
        <ele>330.458</ele>
        <time>2016-06-04T13:27:43.000Z</time>
      </trkpt>
      <trkpt lat="47.51085" lon="6.78354">
        <ele>330.766</ele>
        <time>2016-06-04T13:27:44.000Z</time>
      </trkpt>
      <trkpt lat="47.51087" lon="6.78351">
        <ele>331.083</ele>
        <time>2016-06-04T13:27:45.000Z</time>
      </trkpt>
      <trkpt lat="47.51089" lon="6.78349">
        <ele>331.407</ele>
        <time>2016-06-04T13:27:46.000Z</time>
      </trkpt>
      <trkpt lat="47.51092" lon="6.78348">
        <ele>331.735</ele>
        <time>2016-06-04T13:27:47.000Z</time>
      </trkpt>
      <trkpt lat="47.51095" lon="6.78347">
        <ele>332.065</ele>
        <time>2016-06-04T13:27:48.000Z</time>
      </trkpt>
      <trkpt lat="47.51097" lon="6.78347">
        <ele>332.393</ele>
        <time>2016-06-04T13:27:49.000Z</time>
      </trkpt>
      <trkpt lat="47.511" lon="6.78347">
        <ele>332.717</ele>
        <time>2016-06-04T13:27:50.000Z</time>
      </trkpt>
      <trkpt lat="47.51103" lon="6.78347">
        <ele>333.033</ele>
        <time>2016-06-04T13:27:51.000Z</time>
      </trkpt>
      <trkpt lat="47.51106" lon="6.78347">
        <ele>333.338</ele>
        <time>2016-06-04T13:27:52.000Z</time>
      </trkpt>
      <trkpt lat="47.51108" lon="6.78348">
        <ele>333.628</ele>
        <time>2016-06-04T13:27:53.000Z</time>
      </trkpt>
      <trkpt lat="47.51111" lon="6.78349">
        <ele>333.899</ele>
        <time>2016-06-04T13:27:54.000Z</time>
      </trkpt>
      <trkpt lat="47.51113" lon="6.78349">
        <ele>334.148</ele>
        <time>2016-06-04T13:27:55.000Z</time>
      </trkpt>
      <trkpt lat="47.51115" lon="6.7835">
        <ele>334.374</ele>
        <time>2016-06-04T13:27:56.000Z</time>
      </trkpt>
      <trkpt lat="47.51118" lon="6.78351">
        <ele>334.578</ele>
        <time>2016-06-04T13:27:57.000Z</time>
      </trkpt>
      <trkpt lat="47.5112" lon="6.78352">
        <ele>334.761</ele>
        <time>2016-06-04T13:27:58.000Z</time>
      </trkpt>
      <trkpt lat="47.51122" lon="6.78353">
        <ele>334.926</ele>
        <time>2016-06-04T13:27:59.000Z</time>
      </trkpt>
      <trkpt lat="47.51124" lon="6.78354">
        <ele>335.077</ele>
        <time>2016-06-04T13:28:00.000Z</time>
      </trkpt>
      <trkpt lat="47.51127" lon="6.78355">
        <ele>335.216</ele>
        <time>2016-06-04T13:28:01.000Z</time>
      </trkpt>
      <trkpt lat="47.51129" lon="6.78356">
        <ele>335.348</ele>
        <time>2016-06-04T13:28:02.000Z</time>
      </trkpt>
      <trkpt lat="47.51132" lon="6.78357">
        <ele>335.474</ele>
        <time>2016-06-04T13:28:03.000Z</time>
      </trkpt>
      <trkpt lat="47.51134" lon="6.78358">
        <ele>335.597</ele>
        <time>2016-06-04T13:28:04.000Z</time>
      </trkpt>
      <trkpt lat="47.51137" lon="6.78358">
        <ele>335.717</ele>
        <time>2016-06-04T13:28:05.000Z</time>
      </trkpt>
      <trkpt lat="47.51139" lon="6.78359">
        <ele>335.835</ele>
        <time>2016-06-04T13:28:06.000Z</time>
      </trkpt>
      <trkpt lat="47.51142" lon="6.7836">
        <ele>335.952</ele>
        <time>2016-06-04T13:28:07.000Z</time>
      </trkpt>
      <trkpt lat="47.51145" lon="6.78361">
        <ele>336.067</ele>
        <time>2016-06-04T13:28:08.000Z</time>
      </trkpt>
      <trkpt lat="47.51147" lon="6.78362">
        <ele>336.18</ele>
        <time>2016-06-04T13:28:09.000Z</time>
      </trkpt>
      <trkpt lat="47.5115" lon="6.78363">
        <ele>336.292</ele>
        <time>2016-06-04T13:28:10.000Z</time>
      </trkpt>
      <trkpt lat="47.51152" lon="6.78364">
        <ele>336.4</ele>
        <time>2016-06-04T13:28:11.000Z</time>
      </trkpt>
      <trkpt lat="47.51155" lon="6.78364">
        <ele>336.506</ele>
        <time>2016-06-04T13:28:12.000Z</time>
      </trkpt>
      <trkpt lat="47.51158" lon="6.78365">
        <ele>336.61</ele>
        <time>2016-06-04T13:28:13.000Z</time>
      </trkpt>
      <trkpt lat="47.5116" lon="6.78366">
        <ele>336.711</ele>
        <time>2016-06-04T13:28:14.000Z</time>
      </trkpt>
      <trkpt lat="47.51163" lon="6.78367">
        <ele>336.811</ele>
        <time>2016-06-04T13:28:15.000Z</time>
      </trkpt>
      <trkpt lat="47.51165" lon="6.78368">
        <ele>336.91</ele>
        <time>2016-06-04T13:28:16.000Z</time>
      </trkpt>
      <trkpt lat="47.51168" lon="6.78369">
        <ele>337.01</ele>
        <time>2016-06-04T13:28:17.000Z</time>
      </trkpt>
      <trkpt lat="47.51171" lon="6.7837">
        <ele>337.111</ele>
        <time>2016-06-04T13:28:18.000Z</time>
      </trkpt>
      <trkpt lat="47.51173" lon="6.78371">
        <ele>337.215</ele>
        <time>2016-06-04T13:28:19.000Z</time>
      </trkpt>
      <trkpt lat="47.51176" lon="6.78371">
        <ele>337.323</ele>
        <time>2016-06-04T13:28:20.000Z</time>
      </trkpt>
      <trkpt lat="47.51178" lon="6.78371">
        <ele>337.434</ele>
        <time>2016-06-04T13:28:21.000Z</time>
      </trkpt>
      <trkpt lat="47.51181" lon="6.78371">
        <ele>337.55</ele>
        <time>2016-06-04T13:28:22.000Z</time>
      </trkpt>
      <trkpt lat="47.51183" lon="6.78371">
        <ele>337.669</ele>
        <time>2016-06-04T13:28:23.000Z</time>
      </trkpt>
      <trkpt lat="47.51185" lon="6.78371">
        <ele>337.792</ele>
        <time>2016-06-04T13:28:24.000Z</time>
      </trkpt>
      <trkpt lat="47.51188" lon="6.78371">
        <ele>337.918</ele>
        <time>2016-06-04T13:28:25.000Z</time>
      </trkpt>
      <trkpt lat="47.5119" lon="6.78371">
        <ele>338.047</ele>
        <time>2016-06-04T13:28:26.000Z</time>
      </trkpt>
      <trkpt lat="47.51192" lon="6.78371">
        <ele>338.178</ele>
        <time>2016-06-04T13:28:27.000Z</time>
      </trkpt>
      <trkpt lat="47.51194" lon="6.7837">
        <ele>338.31</ele>
        <time>2016-06-04T13:28:28.000Z</time>
      </trkpt>
      <trkpt lat="47.51196" lon="6.78368">
        <ele>338.442</ele>
        <time>2016-06-04T13:28:29.000Z</time>
      </trkpt>
      <trkpt lat="47.51198" lon="6.78366">
        <ele>338.575</ele>
        <time>2016-06-04T13:28:30.000Z</time>
      </trkpt>
      <trkpt lat="47.51199" lon="6.78364">
        <ele>338.707</ele>
        <time>2016-06-04T13:28:31.000Z</time>
      </trkpt>
      <trkpt lat="47.51201" lon="6.78361">
        <ele>338.84</ele>
        <time>2016-06-04T13:28:32.000Z</time>
      </trkpt>
      <trkpt lat="47.51202" lon="6.78358">
        <ele>338.973</ele>
        <time>2016-06-04T13:28:33.000Z</time>
      </trkpt>
      <trkpt lat="47.51203" lon="6.78356">
        <ele>339.106</ele>
        <time>2016-06-04T13:28:34.000Z</time>
      </trkpt>
      <trkpt lat="47.51205" lon="6.78353">
        <ele>339.238</ele>
        <time>2016-06-04T13:28:35.000Z</time>
      </trkpt>
      <trkpt lat="47.51206" lon="6.7835">
        <ele>339.368</ele>
        <time>2016-06-04T13:28:36.000Z</time>
      </trkpt>
      <trkpt lat="47.51207" lon="6.78348">
        <ele>339.492</ele>
        <time>2016-06-04T13:28:37.000Z</time>
      </trkpt>
      <trkpt lat="47.51208" lon="6.78345">
        <ele>339.609</ele>
        <time>2016-06-04T13:28:38.000Z</time>
      </trkpt>
      <trkpt lat="47.51209" lon="6.78341">
        <ele>339.716</ele>
        <time>2016-06-04T13:28:39.000Z</time>
      </trkpt>
      <trkpt lat="47.51209" lon="6.78338">
        <ele>339.813</ele>
        <time>2016-06-04T13:28:40.000Z</time>
      </trkpt>
      <trkpt lat="47.5121" lon="6.78335">
        <ele>339.901</ele>
        <time>2016-06-04T13:28:41.000Z</time>
      </trkpt>
      <trkpt lat="47.51211" lon="6.78332">
        <ele>339.981</ele>
        <time>2016-06-04T13:28:42.000Z</time>
      </trkpt>
      <trkpt lat="47.51212" lon="6.78328">
        <ele>340.055</ele>
        <time>2016-06-04T13:28:43.000Z</time>
      </trkpt>
      <trkpt lat="47.51212" lon="6.78325">
        <ele>340.126</ele>
        <time>2016-06-04T13:28:44.000Z</time>
      </trkpt>
      <trkpt lat="47.51213" lon="6.78321">
        <ele>340.2</ele>
        <time>2016-06-04T13:28:45.000Z</time>
      </trkpt>
      <trkpt lat="47.51214" lon="6.78318">
        <ele>340.278</ele>
        <time>2016-06-04T13:28:46.000Z</time>
      </trkpt>
      <trkpt lat="47.51214" lon="6.78314">
        <ele>340.365</ele>
        <time>2016-06-04T13:28:47.000Z</time>
      </trkpt>
      <trkpt lat="47.51215" lon="6.78311">
        <ele>340.464</ele>
        <time>2016-06-04T13:28:48.000Z</time>
      </trkpt>
      <trkpt lat="47.51215" lon="6.78307">
        <ele>340.577</ele>
        <time>2016-06-04T13:28:49.000Z</time>
      </trkpt>
      <trkpt lat="47.51216" lon="6.78303">
        <ele>340.708</ele>
        <time>2016-06-04T13:28:50.000Z</time>
      </trkpt>
      <trkpt lat="47.51217" lon="6.783">
        <ele>340.858</ele>
        <time>2016-06-04T13:28:51.000Z</time>
      </trkpt>
      <trkpt lat="47.51218" lon="6.78297">
        <ele>341.028</ele>
        <time>2016-06-04T13:28:52.000Z</time>
      </trkpt>
      <trkpt lat="47.51218" lon="6.78294">
        <ele>341.215</ele>
        <time>2016-06-04T13:28:53.000Z</time>
      </trkpt>
      <trkpt lat="47.51219" lon="6.7829">
        <ele>341.417</ele>
        <time>2016-06-04T13:28:54.000Z</time>
      </trkpt>
      <trkpt lat="47.5122" lon="6.78287">
        <ele>341.628</ele>
        <time>2016-06-04T13:28:55.000Z</time>
      </trkpt>
      <trkpt lat="47.51221" lon="6.78283">
        <ele>341.846</ele>
        <time>2016-06-04T13:28:56.000Z</time>
      </trkpt>
      <trkpt lat="47.51222" lon="6.7828">
        <ele>342.069</ele>
        <time>2016-06-04T13:28:57.000Z</time>
      </trkpt>
      <trkpt lat="47.51223" lon="6.78277">
        <ele>342.293</ele>
        <time>2016-06-04T13:28:58.000Z</time>
      </trkpt>
      <trkpt lat="47.51224" lon="6.78273">
        <ele>342.518</ele>
        <time>2016-06-04T13:28:59.000Z</time>
      </trkpt>
      <trkpt lat="47.51225" lon="6.7827">
        <ele>342.74</ele>
        <time>2016-06-04T13:29:00.000Z</time>
      </trkpt>
      <trkpt lat="47.51226" lon="6.78267">
        <ele>342.959</ele>
        <time>2016-06-04T13:29:01.000Z</time>
      </trkpt>
      <trkpt lat="47.51227" lon="6.78264">
        <ele>343.173</ele>
        <time>2016-06-04T13:29:02.000Z</time>
      </trkpt>
      <trkpt lat="47.51228" lon="6.78262">
        <ele>343.381</ele>
        <time>2016-06-04T13:29:03.000Z</time>
      </trkpt>
      <trkpt lat="47.51228" lon="6.78259">
        <ele>343.583</ele>
        <time>2016-06-04T13:29:04.000Z</time>
      </trkpt>
      <trkpt lat="47.51229" lon="6.78256">
        <ele>343.776</ele>
        <time>2016-06-04T13:29:05.000Z</time>
      </trkpt>
      <trkpt lat="47.51229" lon="6.78252">
        <ele>343.961</ele>
        <time>2016-06-04T13:29:06.000Z</time>
      </trkpt>
      <trkpt lat="47.5123" lon="6.78249">
        <ele>344.135</ele>
        <time>2016-06-04T13:29:07.000Z</time>
      </trkpt>
      <trkpt lat="47.5123" lon="6.78246">
        <ele>344.299</ele>
        <time>2016-06-04T13:29:08.000Z</time>
      </trkpt>
      <trkpt lat="47.51231" lon="6.78243">
        <ele>344.452</ele>
        <time>2016-06-04T13:29:09.000Z</time>
      </trkpt>
      <trkpt lat="47.51232" lon="6.7824">
        <ele>344.592</ele>
        <time>2016-06-04T13:29:10.000Z</time>
      </trkpt>
      <trkpt lat="47.51233" lon="6.78236">
        <ele>344.721</ele>
        <time>2016-06-04T13:29:11.000Z</time>
      </trkpt>
      <trkpt lat="47.51234" lon="6.78233">
        <ele>344.841</ele>
        <time>2016-06-04T13:29:12.000Z</time>
      </trkpt>
      <trkpt lat="47.51235" lon="6.7823">
        <ele>344.953</ele>
        <time>2016-06-04T13:29:13.000Z</time>
      </trkpt>
      <trkpt lat="47.51236" lon="6.78227">
        <ele>345.057</ele>
        <time>2016-06-04T13:29:14.000Z</time>
      </trkpt>
      <trkpt lat="47.51237" lon="6.78224">
        <ele>345.156</ele>
        <time>2016-06-04T13:29:15.000Z</time>
      </trkpt>
      <trkpt lat="47.51238" lon="6.78221">
        <ele>345.251</ele>
        <time>2016-06-04T13:29:16.000Z</time>
      </trkpt>
      <trkpt lat="47.51239" lon="6.78218">
        <ele>345.342</ele>
        <time>2016-06-04T13:29:17.000Z</time>
      </trkpt>
      <trkpt lat="47.51241" lon="6.78216">
        <ele>345.43</ele>
        <time>2016-06-04T13:29:18.000Z</time>
      </trkpt>
      <trkpt lat="47.51242" lon="6.78213">
        <ele>345.514</ele>
        <time>2016-06-04T13:29:19.000Z</time>
      </trkpt>
      <trkpt lat="47.51243" lon="6.7821">
        <ele>345.596</ele>
        <time>2016-06-04T13:29:20.000Z</time>
      </trkpt>
      <trkpt lat="47.51244" lon="6.78207">
        <ele>345.673</ele>
        <time>2016-06-04T13:29:21.000Z</time>
      </trkpt>
      <trkpt lat="47.51245" lon="6.78204">
        <ele>345.745</ele>
        <time>2016-06-04T13:29:22.000Z</time>
      </trkpt>
      <trkpt lat="47.51246" lon="6.78201">
        <ele>345.812</ele>
        <time>2016-06-04T13:29:23.000Z</time>
      </trkpt>
      <trkpt lat="47.51247" lon="6.78198">
        <ele>345.87</ele>
        <time>2016-06-04T13:29:24.000Z</time>
      </trkpt>
      <trkpt lat="47.51249" lon="6.78195">
        <ele>345.921</ele>
        <time>2016-06-04T13:29:25.000Z</time>
      </trkpt>
      <trkpt lat="47.5125" lon="6.78192">
        <ele>345.961</ele>
        <time>2016-06-04T13:29:26.000Z</time>
      </trkpt>
      <trkpt lat="47.51251" lon="6.78189">
        <ele>345.992</ele>
        <time>2016-06-04T13:29:27.000Z</time>
      </trkpt>
      <trkpt lat="47.51253" lon="6.78186">
        <ele>346.014</ele>
        <time>2016-06-04T13:29:28.000Z</time>
      </trkpt>
      <trkpt lat="47.51254" lon="6.78184">
        <ele>346.028</ele>
        <time>2016-06-04T13:29:29.000Z</time>
      </trkpt>
      <trkpt lat="47.51256" lon="6.78181">
        <ele>346.035</ele>
        <time>2016-06-04T13:29:30.000Z</time>
      </trkpt>
      <trkpt lat="47.51257" lon="6.78178">
        <ele>346.035</ele>
        <time>2016-06-04T13:29:31.000Z</time>
      </trkpt>
      <trkpt lat="47.51259" lon="6.78175">
        <ele>346.031</ele>
        <time>2016-06-04T13:29:32.000Z</time>
      </trkpt>
      <trkpt lat="47.5126" lon="6.78172">
        <ele>346.022</ele>
        <time>2016-06-04T13:29:33.000Z</time>
      </trkpt>
      <trkpt lat="47.51261" lon="6.78169">
        <ele>346.01</ele>
        <time>2016-06-04T13:29:34.000Z</time>
      </trkpt>
      <trkpt lat="47.51262" lon="6.78167">
        <ele>345.995</ele>
        <time>2016-06-04T13:29:35.000Z</time>
      </trkpt>
      <trkpt lat="47.51263" lon="6.78164">
        <ele>345.978</ele>
        <time>2016-06-04T13:29:36.000Z</time>
      </trkpt>
      <trkpt lat="47.51264" lon="6.78162">
        <ele>345.962</ele>
        <time>2016-06-04T13:29:37.000Z</time>
      </trkpt>
      <trkpt lat="47.51265" lon="6.78159">
        <ele>345.947</ele>
        <time>2016-06-04T13:29:38.000Z</time>
      </trkpt>
      <trkpt lat="47.51266" lon="6.78156">
        <ele>345.933</ele>
        <time>2016-06-04T13:29:39.000Z</time>
      </trkpt>
      <trkpt lat="47.51268" lon="6.78153">
        <ele>345.92</ele>
        <time>2016-06-04T13:29:40.000Z</time>
      </trkpt>
      <trkpt lat="47.51269" lon="6.7815">
        <ele>345.907</ele>
        <time>2016-06-04T13:29:41.000Z</time>
      </trkpt>
      <trkpt lat="47.5127" lon="6.78147">
        <ele>345.895</ele>
        <time>2016-06-04T13:29:42.000Z</time>
      </trkpt>
      <trkpt lat="47.51272" lon="6.78144">
        <ele>345.884</ele>
        <time>2016-06-04T13:29:43.000Z</time>
      </trkpt>
      <trkpt lat="47.51273" lon="6.7814">
        <ele>345.875</ele>
        <time>2016-06-04T13:29:44.000Z</time>
      </trkpt>
      <trkpt lat="47.51275" lon="6.78136">
        <ele>345.869</ele>
        <time>2016-06-04T13:29:45.000Z</time>
      </trkpt>
      <trkpt lat="47.51276" lon="6.78132">
        <ele>345.869</ele>
        <time>2016-06-04T13:29:46.000Z</time>
      </trkpt>
      <trkpt lat="47.51277" lon="6.78128">
        <ele>345.876</ele>
        <time>2016-06-04T13:29:47.000Z</time>
      </trkpt>
      <trkpt lat="47.51278" lon="6.78124">
        <ele>345.891</ele>
        <time>2016-06-04T13:29:48.000Z</time>
      </trkpt>
      <trkpt lat="47.51279" lon="6.78121">
        <ele>345.915</ele>
        <time>2016-06-04T13:29:49.000Z</time>
      </trkpt>
      <trkpt lat="47.5128" lon="6.78118">
        <ele>345.948</ele>
        <time>2016-06-04T13:29:50.000Z</time>
      </trkpt>
      <trkpt lat="47.51282" lon="6.78115">
        <ele>345.99</ele>
        <time>2016-06-04T13:29:51.000Z</time>
      </trkpt>
      <trkpt lat="47.51283" lon="6.78111">
        <ele>346.043</ele>
        <time>2016-06-04T13:29:52.000Z</time>
      </trkpt>
      <trkpt lat="47.51284" lon="6.78108">
        <ele>346.107</ele>
        <time>2016-06-04T13:29:53.000Z</time>
      </trkpt>
      <trkpt lat="47.51286" lon="6.78105">
        <ele>346.184</ele>
        <time>2016-06-04T13:29:54.000Z</time>
      </trkpt>
      <trkpt lat="47.51287" lon="6.78102">
        <ele>346.273</ele>
        <time>2016-06-04T13:29:55.000Z</time>
      </trkpt>
      <trkpt lat="47.51289" lon="6.78098">
        <ele>346.374</ele>
        <time>2016-06-04T13:29:56.000Z</time>
      </trkpt>
      <trkpt lat="47.5129" lon="6.78095">
        <ele>346.487</ele>
        <time>2016-06-04T13:29:57.000Z</time>
      </trkpt>
      <trkpt lat="47.51291" lon="6.78092">
        <ele>346.61</ele>
        <time>2016-06-04T13:29:58.000Z</time>
      </trkpt>
      <trkpt lat="47.51292" lon="6.78088">
        <ele>346.74</ele>
        <time>2016-06-04T13:29:59.000Z</time>
      </trkpt>
      <trkpt lat="47.51293" lon="6.78085">
        <ele>346.876</ele>
        <time>2016-06-04T13:30:00.000Z</time>
      </trkpt>
      <trkpt lat="47.51294" lon="6.78081">
        <ele>347.014</ele>
        <time>2016-06-04T13:30:01.000Z</time>
      </trkpt>
      <trkpt lat="47.51295" lon="6.78078">
        <ele>347.154</ele>
        <time>2016-06-04T13:30:02.000Z</time>
      </trkpt>
      <trkpt lat="47.51296" lon="6.78075">
        <ele>347.293</ele>
        <time>2016-06-04T13:30:03.000Z</time>
      </trkpt>
      <trkpt lat="47.51297" lon="6.78073">
        <ele>347.432</ele>
        <time>2016-06-04T13:30:04.000Z</time>
      </trkpt>
      <trkpt lat="47.51298" lon="6.7807">
        <ele>347.569</ele>
        <time>2016-06-04T13:30:05.000Z</time>
      </trkpt>
      <trkpt lat="47.51299" lon="6.78067">
        <ele>347.704</ele>
        <time>2016-06-04T13:30:06.000Z</time>
      </trkpt>
      <trkpt lat="47.513" lon="6.78065">
        <ele>347.839</ele>
        <time>2016-06-04T13:30:07.000Z</time>
      </trkpt>
      <trkpt lat="47.51301" lon="6.78062">
        <ele>347.975</ele>
        <time>2016-06-04T13:30:08.000Z</time>
      </trkpt>
      <trkpt lat="47.51302" lon="6.78059">
        <ele>348.115</ele>
        <time>2016-06-04T13:30:09.000Z</time>
      </trkpt>
      <trkpt lat="47.51304" lon="6.78056">
        <ele>348.262</ele>
        <time>2016-06-04T13:30:10.000Z</time>
      </trkpt>
      <trkpt lat="47.51305" lon="6.78053">
        <ele>348.419</ele>
        <time>2016-06-04T13:30:11.000Z</time>
      </trkpt>
      <trkpt lat="47.51306" lon="6.78051">
        <ele>348.591</ele>
        <time>2016-06-04T13:30:12.000Z</time>
      </trkpt>
      <trkpt lat="47.51307" lon="6.78048">
        <ele>348.779</ele>
        <time>2016-06-04T13:30:13.000Z</time>
      </trkpt>
      <trkpt lat="47.51309" lon="6.78046">
        <ele>348.988</ele>
        <time>2016-06-04T13:30:14.000Z</time>
      </trkpt>
      <trkpt lat="47.5131" lon="6.78043">
        <ele>349.216</ele>
        <time>2016-06-04T13:30:15.000Z</time>
      </trkpt>
      <trkpt lat="47.51311" lon="6.7804">
        <ele>349.463</ele>
        <time>2016-06-04T13:30:16.000Z</time>
      </trkpt>
      <trkpt lat="47.51312" lon="6.78038">
        <ele>349.727</ele>
        <time>2016-06-04T13:30:17.000Z</time>
      </trkpt>
      <trkpt lat="47.51314" lon="6.78035">
        <ele>350.006</ele>
        <time>2016-06-04T13:30:18.000Z</time>
      </trkpt>
      <trkpt lat="47.51315" lon="6.78032">
        <ele>350.298</ele>
        <time>2016-06-04T13:30:19.000Z</time>
      </trkpt>
      <trkpt lat="47.51316" lon="6.78029">
        <ele>350.598</ele>
        <time>2016-06-04T13:30:20.000Z</time>
      </trkpt>
      <trkpt lat="47.51317" lon="6.78026">
        <ele>350.902</ele>
        <time>2016-06-04T13:30:21.000Z</time>
      </trkpt>
      <trkpt lat="47.51318" lon="6.78023">
        <ele>351.208</ele>
        <time>2016-06-04T13:30:22.000Z</time>
      </trkpt>
      <trkpt lat="47.51319" lon="6.7802">
        <ele>351.511</ele>
        <time>2016-06-04T13:30:23.000Z</time>
      </trkpt>
      <trkpt lat="47.5132" lon="6.78016">
        <ele>351.809</ele>
        <time>2016-06-04T13:30:24.000Z</time>
      </trkpt>
      <trkpt lat="47.51321" lon="6.78013">
        <ele>352.101</ele>
        <time>2016-06-04T13:30:25.000Z</time>
      </trkpt>
      <trkpt lat="47.51322" lon="6.7801">
        <ele>352.384</ele>
        <time>2016-06-04T13:30:26.000Z</time>
      </trkpt>
      <trkpt lat="47.51323" lon="6.78006">
        <ele>352.659</ele>
        <time>2016-06-04T13:30:27.000Z</time>
      </trkpt>
      <trkpt lat="47.51324" lon="6.78003">
        <ele>352.925</ele>
        <time>2016-06-04T13:30:28.000Z</time>
      </trkpt>
      <trkpt lat="47.51324" lon="6.78">
        <ele>353.183</ele>
        <time>2016-06-04T13:30:29.000Z</time>
      </trkpt>
      <trkpt lat="47.51325" lon="6.77997">
        <ele>353.433</ele>
        <time>2016-06-04T13:30:30.000Z</time>
      </trkpt>
      <trkpt lat="47.51326" lon="6.77993">
        <ele>353.678</ele>
        <time>2016-06-04T13:30:31.000Z</time>
      </trkpt>
      <trkpt lat="47.51327" lon="6.7799">
        <ele>353.919</ele>
        <time>2016-06-04T13:30:32.000Z</time>
      </trkpt>
      <trkpt lat="47.51328" lon="6.77987">
        <ele>354.156</ele>
        <time>2016-06-04T13:30:33.000Z</time>
      </trkpt>
      <trkpt lat="47.51329" lon="6.77984">
        <ele>354.389</ele>
        <time>2016-06-04T13:30:34.000Z</time>
      </trkpt>
      <trkpt lat="47.5133" lon="6.77981">
        <ele>354.619</ele>
        <time>2016-06-04T13:30:35.000Z</time>
      </trkpt>
      <trkpt lat="47.51331" lon="6.77977">
        <ele>354.846</ele>
        <time>2016-06-04T13:30:36.000Z</time>
      </trkpt>
      <trkpt lat="47.51332" lon="6.77974">
        <ele>355.07</ele>
        <time>2016-06-04T13:30:37.000Z</time>
      </trkpt>
      <trkpt lat="47.51333" lon="6.77971">
        <ele>355.291</ele>
        <time>2016-06-04T13:30:38.000Z</time>
      </trkpt>
      <trkpt lat="47.51333" lon="6.77968">
        <ele>355.51</ele>
        <time>2016-06-04T13:30:39.000Z</time>
      </trkpt>
      <trkpt lat="47.51334" lon="6.77965">
        <ele>355.727</ele>
        <time>2016-06-04T13:30:40.000Z</time>
      </trkpt>
      <trkpt lat="47.51334" lon="6.77962">
        <ele>355.942</ele>
        <time>2016-06-04T13:30:41.000Z</time>
      </trkpt>
      <trkpt lat="47.51335" lon="6.77959">
        <ele>356.157</ele>
        <time>2016-06-04T13:30:42.000Z</time>
      </trkpt>
      <trkpt lat="47.51336" lon="6.77957">
        <ele>356.369</ele>
        <time>2016-06-04T13:30:43.000Z</time>
      </trkpt>
      <trkpt lat="47.51337" lon="6.77954">
        <ele>356.581</ele>
        <time>2016-06-04T13:30:44.000Z</time>
      </trkpt>
      <trkpt lat="47.51338" lon="6.7795">
        <ele>356.792</ele>
        <time>2016-06-04T13:30:45.000Z</time>
      </trkpt>
      <trkpt lat="47.51339" lon="6.77947">
        <ele>357.003</ele>
        <time>2016-06-04T13:30:46.000Z</time>
      </trkpt>
      <trkpt lat="47.51339" lon="6.77944">
        <ele>357.214</ele>
        <time>2016-06-04T13:30:47.000Z</time>
      </trkpt>
      <trkpt lat="47.5134" lon="6.77941">
        <ele>357.425</ele>
        <time>2016-06-04T13:30:48.000Z</time>
      </trkpt>
      <trkpt lat="47.51341" lon="6.77938">
        <ele>357.634</ele>
        <time>2016-06-04T13:30:49.000Z</time>
      </trkpt>
      <trkpt lat="47.51342" lon="6.77934">
        <ele>357.84</ele>
        <time>2016-06-04T13:30:50.000Z</time>
      </trkpt>
      <trkpt lat="47.51343" lon="6.77931">
        <ele>358.039</ele>
        <time>2016-06-04T13:30:51.000Z</time>
      </trkpt>
      <trkpt lat="47.51343" lon="6.77928">
        <ele>358.23</ele>
        <time>2016-06-04T13:30:52.000Z</time>
      </trkpt>
      <trkpt lat="47.51344" lon="6.77925">
        <ele>358.412</ele>
        <time>2016-06-04T13:30:53.000Z</time>
      </trkpt>
      <trkpt lat="47.51345" lon="6.77922">
        <ele>358.582</ele>
        <time>2016-06-04T13:30:54.000Z</time>
      </trkpt>
      <trkpt lat="47.51345" lon="6.77919">
        <ele>358.743</ele>
        <time>2016-06-04T13:30:55.000Z</time>
      </trkpt>
      <trkpt lat="47.51346" lon="6.77915">
        <ele>358.892</ele>
        <time>2016-06-04T13:30:56.000Z</time>
      </trkpt>
      <trkpt lat="47.51346" lon="6.77912">
        <ele>359.031</ele>
        <time>2016-06-04T13:30:57.000Z</time>
      </trkpt>
      <trkpt lat="47.51347" lon="6.77909">
        <ele>359.158</ele>
        <time>2016-06-04T13:30:58.000Z</time>
      </trkpt>
      <trkpt lat="47.51348" lon="6.77906">
        <ele>359.273</ele>
        <time>2016-06-04T13:30:59.000Z</time>
      </trkpt>
      <trkpt lat="47.51349" lon="6.77903">
        <ele>359.374</ele>
        <time>2016-06-04T13:31:00.000Z</time>
      </trkpt>
      <trkpt lat="47.5135" lon="6.779">
        <ele>359.461</ele>
        <time>2016-06-04T13:31:01.000Z</time>
      </trkpt>
      <trkpt lat="47.51351" lon="6.77897">
        <ele>359.534</ele>
        <time>2016-06-04T13:31:02.000Z</time>
      </trkpt>
      <trkpt lat="47.51352" lon="6.77893">
        <ele>359.593</ele>
        <time>2016-06-04T13:31:03.000Z</time>
      </trkpt>
      <trkpt lat="47.51354" lon="6.7789">
        <ele>359.641</ele>
        <time>2016-06-04T13:31:04.000Z</time>
      </trkpt>
      <trkpt lat="47.51355" lon="6.77887">
        <ele>359.679</ele>
        <time>2016-06-04T13:31:05.000Z</time>
      </trkpt>
      <trkpt lat="47.51356" lon="6.77883">
        <ele>359.711</ele>
        <time>2016-06-04T13:31:06.000Z</time>
      </trkpt>
      <trkpt lat="47.51357" lon="6.7788">
        <ele>359.74</ele>
        <time>2016-06-04T13:31:07.000Z</time>
      </trkpt>
      <trkpt lat="47.51358" lon="6.77877">
        <ele>359.77</ele>
        <time>2016-06-04T13:31:08.000Z</time>
      </trkpt>
      <trkpt lat="47.51359" lon="6.77874">
        <ele>359.804</ele>
        <time>2016-06-04T13:31:09.000Z</time>
      </trkpt>
      <trkpt lat="47.5136" lon="6.7787">
        <ele>359.847</ele>
        <time>2016-06-04T13:31:10.000Z</time>
      </trkpt>
      <trkpt lat="47.51362" lon="6.77867">
        <ele>359.903</ele>
        <time>2016-06-04T13:31:11.000Z</time>
      </trkpt>
      <trkpt lat="47.51363" lon="6.77864">
        <ele>359.975</ele>
        <time>2016-06-04T13:31:12.000Z</time>
      </trkpt>
      <trkpt lat="47.51364" lon="6.77861">
        <ele>360.065</ele>
        <time>2016-06-04T13:31:13.000Z</time>
      </trkpt>
      <trkpt lat="47.51365" lon="6.77859">
        <ele>360.173</ele>
        <time>2016-06-04T13:31:14.000Z</time>
      </trkpt>
      <trkpt lat="47.51366" lon="6.77856">
        <ele>360.301</ele>
        <time>2016-06-04T13:31:15.000Z</time>
      </trkpt>
      <trkpt lat="47.51367" lon="6.77853">
        <ele>360.449</ele>
        <time>2016-06-04T13:31:16.000Z</time>
      </trkpt>
      <trkpt lat="47.51368" lon="6.77851">
        <ele>360.615</ele>
        <time>2016-06-04T13:31:17.000Z</time>
      </trkpt>
      <trkpt lat="47.51369" lon="6.77848">
        <ele>360.799</ele>
        <time>2016-06-04T13:31:18.000Z</time>
      </trkpt>
      <trkpt lat="47.5137" lon="6.77846">
        <ele>360.998</ele>
        <time>2016-06-04T13:31:19.000Z</time>
      </trkpt>
      <trkpt lat="47.51371" lon="6.77844">
        <ele>361.213</ele>
        <time>2016-06-04T13:31:20.000Z</time>
      </trkpt>
      <trkpt lat="47.51372" lon="6.77842">
        <ele>361.441</ele>
        <time>2016-06-04T13:31:21.000Z</time>
      </trkpt>
      <trkpt lat="47.51374" lon="6.7784">
        <ele>361.682</ele>
        <time>2016-06-04T13:31:22.000Z</time>
      </trkpt>
      <trkpt lat="47.51375" lon="6.77838">
        <ele>361.934</ele>
        <time>2016-06-04T13:31:23.000Z</time>
      </trkpt>
      <trkpt lat="47.51376" lon="6.77836">
        <ele>362.196</ele>
        <time>2016-06-04T13:31:24.000Z</time>
      </trkpt>
      <trkpt lat="47.51378" lon="6.77834">
        <ele>362.469</ele>
        <time>2016-06-04T13:31:25.000Z</time>
      </trkpt>
      <trkpt lat="47.51379" lon="6.77832">
        <ele>362.751</ele>
        <time>2016-06-04T13:31:26.000Z</time>
      </trkpt>
      <trkpt lat="47.51381" lon="6.7783">
        <ele>363.044</ele>
        <time>2016-06-04T13:31:27.000Z</time>
      </trkpt>
      <trkpt lat="47.51383" lon="6.77828">
        <ele>363.348</ele>
        <time>2016-06-04T13:31:28.000Z</time>
      </trkpt>
      <trkpt lat="47.51384" lon="6.77826">
        <ele>363.661</ele>
        <time>2016-06-04T13:31:29.000Z</time>
      </trkpt>
      <trkpt lat="47.51387" lon="6.77825">
        <ele>363.983</ele>
        <time>2016-06-04T13:31:30.000Z</time>
      </trkpt>
      <trkpt lat="47.51389" lon="6.77823">
        <ele>364.31</ele>
        <time>2016-06-04T13:31:31.000Z</time>
      </trkpt>
      <trkpt lat="47.51391" lon="6.77821">
        <ele>364.639</ele>
        <time>2016-06-04T13:31:32.000Z</time>
      </trkpt>
      <trkpt lat="47.51393" lon="6.7782">
        <ele>364.967</ele>
        <time>2016-06-04T13:31:33.000Z</time>
      </trkpt>
      <trkpt lat="47.51395" lon="6.77818">
        <ele>365.289</ele>
        <time>2016-06-04T13:31:34.000Z</time>
      </trkpt>
      <trkpt lat="47.51397" lon="6.77817">
        <ele>365.603</ele>
        <time>2016-06-04T13:31:35.000Z</time>
      </trkpt>
      <trkpt lat="47.51399" lon="6.77815">
        <ele>365.906</ele>
        <time>2016-06-04T13:31:36.000Z</time>
      </trkpt>
      <trkpt lat="47.51401" lon="6.77813">
        <ele>366.198</ele>
        <time>2016-06-04T13:31:37.000Z</time>
      </trkpt>
      <trkpt lat="47.51403" lon="6.77811">
        <ele>366.477</ele>
        <time>2016-06-04T13:31:38.000Z</time>
      </trkpt>
      <trkpt lat="47.51405" lon="6.77809">
        <ele>366.744</ele>
        <time>2016-06-04T13:31:39.000Z</time>
      </trkpt>
      <trkpt lat="47.51407" lon="6.77808">
        <ele>367</ele>
        <time>2016-06-04T13:31:40.000Z</time>
      </trkpt>
      <trkpt lat="47.5141" lon="6.77806">
        <ele>367.243</ele>
        <time>2016-06-04T13:31:41.000Z</time>
      </trkpt>
      <trkpt lat="47.51412" lon="6.77805">
        <ele>367.476</ele>
        <time>2016-06-04T13:31:42.000Z</time>
      </trkpt>
      <trkpt lat="47.51414" lon="6.77804">
        <ele>367.698</ele>
        <time>2016-06-04T13:31:43.000Z</time>
      </trkpt>
      <trkpt lat="47.51416" lon="6.77802">
        <ele>367.909</ele>
        <time>2016-06-04T13:31:44.000Z</time>
      </trkpt>
      <trkpt lat="47.51418" lon="6.77801">
        <ele>368.111</ele>
        <time>2016-06-04T13:31:45.000Z</time>
      </trkpt>
      <trkpt lat="47.5142" lon="6.77799">
        <ele>368.306</ele>
        <time>2016-06-04T13:31:46.000Z</time>
      </trkpt>
      <trkpt lat="47.51422" lon="6.77798">
        <ele>368.494</ele>
        <time>2016-06-04T13:31:47.000Z</time>
      </trkpt>
      <trkpt lat="47.51425" lon="6.77797">
        <ele>368.679</ele>
        <time>2016-06-04T13:31:48.000Z</time>
      </trkpt>
      <trkpt lat="47.51427" lon="6.77796">
        <ele>368.863</ele>
        <time>2016-06-04T13:31:49.000Z</time>
      </trkpt>
      <trkpt lat="47.51429" lon="6.77794">
        <ele>369.048</ele>
        <time>2016-06-04T13:31:50.000Z</time>
      </trkpt>
      <trkpt lat="47.51432" lon="6.77793">
        <ele>369.238</ele>
        <time>2016-06-04T13:31:51.000Z</time>
      </trkpt>
      <trkpt lat="47.51434" lon="6.77792">
        <ele>369.432</ele>
        <time>2016-06-04T13:31:52.000Z</time>
      </trkpt>
      <trkpt lat="47.51436" lon="6.77791">
        <ele>369.634</ele>
        <time>2016-06-04T13:31:53.000Z</time>
      </trkpt>
      <trkpt lat="47.51438" lon="6.7779">
        <ele>369.844</ele>
        <time>2016-06-04T13:31:54.000Z</time>
      </trkpt>
      <trkpt lat="47.51441" lon="6.77789">
        <ele>370.063</ele>
        <time>2016-06-04T13:31:55.000Z</time>
      </trkpt>
      <trkpt lat="47.51443" lon="6.77787">
        <ele>370.292</ele>
        <time>2016-06-04T13:31:56.000Z</time>
      </trkpt>
      <trkpt lat="47.51445" lon="6.77786">
        <ele>370.53</ele>
        <time>2016-06-04T13:31:57.000Z</time>
      </trkpt>
      <trkpt lat="47.51447" lon="6.77785">
        <ele>370.778</ele>
        <time>2016-06-04T13:31:58.000Z</time>
      </trkpt>
      <trkpt lat="47.51449" lon="6.77784">
        <ele>371.035</ele>
        <time>2016-06-04T13:31:59.000Z</time>
      </trkpt>
      <trkpt lat="47.5145" lon="6.77783">
        <ele>371.299</ele>
        <time>2016-06-04T13:32:00.000Z</time>
      </trkpt>
      <trkpt lat="47.51452" lon="6.77782">
        <ele>371.567</ele>
        <time>2016-06-04T13:32:01.000Z</time>
      </trkpt>
      <trkpt lat="47.51454" lon="6.77781">
        <ele>371.837</ele>
        <time>2016-06-04T13:32:02.000Z</time>
      </trkpt>
      <trkpt lat="47.51456" lon="6.7778">
        <ele>372.101</ele>
        <time>2016-06-04T13:32:03.000Z</time>
      </trkpt>
      <trkpt lat="47.51458" lon="6.77779">
        <ele>372.357</ele>
        <time>2016-06-04T13:32:04.000Z</time>
      </trkpt>
      <trkpt lat="47.51459" lon="6.77778">
        <ele>372.597</ele>
        <time>2016-06-04T13:32:05.000Z</time>
      </trkpt>
      <trkpt lat="47.51461" lon="6.77777">
        <ele>372.817</ele>
        <time>2016-06-04T13:32:06.000Z</time>
      </trkpt>
      <trkpt lat="47.51464" lon="6.77776">
        <ele>373.014</ele>
        <time>2016-06-04T13:32:07.000Z</time>
      </trkpt>
      <trkpt lat="47.51466" lon="6.77775">
        <ele>373.184</ele>
        <time>2016-06-04T13:32:08.000Z</time>
      </trkpt>
      <trkpt lat="47.51468" lon="6.77775">
        <ele>373.327</ele>
        <time>2016-06-04T13:32:09.000Z</time>
      </trkpt>
      <trkpt lat="47.5147" lon="6.77774">
        <ele>373.441</ele>
        <time>2016-06-04T13:32:10.000Z</time>
      </trkpt>
      <trkpt lat="47.51473" lon="6.77774">
        <ele>373.531</ele>
        <time>2016-06-04T13:32:11.000Z</time>
      </trkpt>
      <trkpt lat="47.51475" lon="6.77773">
        <ele>373.597</ele>
        <time>2016-06-04T13:32:12.000Z</time>
      </trkpt>
      <trkpt lat="47.51478" lon="6.77773">
        <ele>373.643</ele>
        <time>2016-06-04T13:32:13.000Z</time>
      </trkpt>
      <trkpt lat="47.5148" lon="6.77772">
        <ele>373.673</ele>
        <time>2016-06-04T13:32:14.000Z</time>
      </trkpt>
      <trkpt lat="47.51483" lon="6.77772">
        <ele>373.69</ele>
        <time>2016-06-04T13:32:15.000Z</time>
      </trkpt>
      <trkpt lat="47.51485" lon="6.77771">
        <ele>373.696</ele>
        <time>2016-06-04T13:32:16.000Z</time>
      </trkpt>
      <trkpt lat="47.51488" lon="6.77771">
        <ele>373.694</ele>
        <time>2016-06-04T13:32:17.000Z</time>
      </trkpt>
      <trkpt lat="47.5149" lon="6.7777">
        <ele>373.686</ele>
        <time>2016-06-04T13:32:18.000Z</time>
      </trkpt>
      <trkpt lat="47.51493" lon="6.7777">
        <ele>373.671</ele>
        <time>2016-06-04T13:32:19.000Z</time>
      </trkpt>
      <trkpt lat="47.51495" lon="6.77769">
        <ele>373.649</ele>
        <time>2016-06-04T13:32:20.000Z</time>
      </trkpt>
      <trkpt lat="47.51498" lon="6.77768">
        <ele>373.622</ele>
        <time>2016-06-04T13:32:21.000Z</time>
      </trkpt>
      <trkpt lat="47.515" lon="6.77768">
        <ele>373.59</ele>
        <time>2016-06-04T13:32:22.000Z</time>
      </trkpt>
      <trkpt lat="47.51502" lon="6.77767">
        <ele>373.553</ele>
        <time>2016-06-04T13:32:23.000Z</time>
      </trkpt>
      <trkpt lat="47.51505" lon="6.77766">
        <ele>373.513</ele>
        <time>2016-06-04T13:32:24.000Z</time>
      </trkpt>
      <trkpt lat="47.51507" lon="6.77766">
        <ele>373.475</ele>
        <time>2016-06-04T13:32:25.000Z</time>
      </trkpt>
      <trkpt lat="47.5151" lon="6.77765">
        <ele>373.442</ele>
        <time>2016-06-04T13:32:26.000Z</time>
      </trkpt>
      <trkpt lat="47.51512" lon="6.77764">
        <ele>373.42</ele>
        <time>2016-06-04T13:32:27.000Z</time>
      </trkpt>
      <trkpt lat="47.51515" lon="6.77763">
        <ele>373.415</ele>
        <time>2016-06-04T13:32:28.000Z</time>
      </trkpt>
      <trkpt lat="47.51517" lon="6.77762">
        <ele>373.431</ele>
        <time>2016-06-04T13:32:29.000Z</time>
      </trkpt>
      <trkpt lat="47.51519" lon="6.77762">
        <ele>373.471</ele>
        <time>2016-06-04T13:32:30.000Z</time>
      </trkpt>
      <trkpt lat="47.51522" lon="6.77761">
        <ele>373.537</ele>
        <time>2016-06-04T13:32:31.000Z</time>
      </trkpt>
      <trkpt lat="47.51524" lon="6.77761">
        <ele>373.632</ele>
        <time>2016-06-04T13:32:32.000Z</time>
      </trkpt>
      <trkpt lat="47.51526" lon="6.7776">
        <ele>373.756</ele>
        <time>2016-06-04T13:32:33.000Z</time>
      </trkpt>
      <trkpt lat="47.51528" lon="6.7776">
        <ele>373.912</ele>
        <time>2016-06-04T13:32:34.000Z</time>
      </trkpt>
      <trkpt lat="47.51531" lon="6.7776">
        <ele>374.101</ele>
        <time>2016-06-04T13:32:35.000Z</time>
      </trkpt>
      <trkpt lat="47.51533" lon="6.7776">
        <ele>374.324</ele>
        <time>2016-06-04T13:32:36.000Z</time>
      </trkpt>
      <trkpt lat="47.51536" lon="6.7776">
        <ele>374.583</ele>
        <time>2016-06-04T13:32:37.000Z</time>
      </trkpt>
      <trkpt lat="47.51538" lon="6.7776">
        <ele>374.878</ele>
        <time>2016-06-04T13:32:38.000Z</time>
      </trkpt>
      <trkpt lat="47.51541" lon="6.77761">
        <ele>375.211</ele>
        <time>2016-06-04T13:32:39.000Z</time>
      </trkpt>
      <trkpt lat="47.51543" lon="6.77761">
        <ele>375.58</ele>
        <time>2016-06-04T13:32:40.000Z</time>
      </trkpt>
      <trkpt lat="47.51546" lon="6.77762">
        <ele>375.985</ele>
        <time>2016-06-04T13:32:41.000Z</time>
      </trkpt>
      <trkpt lat="47.51548" lon="6.77762">
        <ele>376.422</ele>
        <time>2016-06-04T13:32:42.000Z</time>
      </trkpt>
      <trkpt lat="47.5155" lon="6.77763">
        <ele>376.887</ele>
        <time>2016-06-04T13:32:43.000Z</time>
      </trkpt>
      <trkpt lat="47.51552" lon="6.77763">
        <ele>377.372</ele>
        <time>2016-06-04T13:32:44.000Z</time>
      </trkpt>
      <trkpt lat="47.51554" lon="6.77763">
        <ele>377.87</ele>
        <time>2016-06-04T13:32:45.000Z</time>
      </trkpt>
      <trkpt lat="47.51556" lon="6.77763">
        <ele>378.371</ele>
        <time>2016-06-04T13:32:46.000Z</time>
      </trkpt>
      <trkpt lat="47.51558" lon="6.77763">
        <ele>378.869</ele>
        <time>2016-06-04T13:32:47.000Z</time>
      </trkpt>
      <trkpt lat="47.51559" lon="6.77763">
        <ele>379.355</ele>
        <time>2016-06-04T13:32:48.000Z</time>
      </trkpt>
      <trkpt lat="47.51561" lon="6.77762">
        <ele>379.822</ele>
        <time>2016-06-04T13:32:49.000Z</time>
      </trkpt>
      <trkpt lat="47.51562" lon="6.77762">
        <ele>380.264</ele>
        <time>2016-06-04T13:32:50.000Z</time>
      </trkpt>
      <trkpt lat="47.51564" lon="6.77761">
        <ele>380.675</ele>
        <time>2016-06-04T13:32:51.000Z</time>
      </trkpt>
      <trkpt lat="47.51565" lon="6.77761">
        <ele>381.049</ele>
        <time>2016-06-04T13:32:52.000Z</time>
      </trkpt>
      <trkpt lat="47.51567" lon="6.77761">
        <ele>381.382</ele>
        <time>2016-06-04T13:32:53.000Z</time>
      </trkpt>
      <trkpt lat="47.51569" lon="6.77761">
        <ele>381.673</ele>
        <time>2016-06-04T13:32:54.000Z</time>
      </trkpt>
      <trkpt lat="47.5157" lon="6.7776">
        <ele>381.919</ele>
        <time>2016-06-04T13:32:55.000Z</time>
      </trkpt>
      <trkpt lat="47.51573" lon="6.7776">
        <ele>382.12</ele>
        <time>2016-06-04T13:32:56.000Z</time>
      </trkpt>
      <trkpt lat="47.51575" lon="6.77759">
        <ele>382.28</ele>
        <time>2016-06-04T13:32:57.000Z</time>
      </trkpt>
      <trkpt lat="47.51578" lon="6.77759">
        <ele>382.401</ele>
        <time>2016-06-04T13:32:58.000Z</time>
      </trkpt>
      <trkpt lat="47.5158" lon="6.77758">
        <ele>382.487</ele>
        <time>2016-06-04T13:32:59.000Z</time>
      </trkpt>
      <trkpt lat="47.51583" lon="6.77757">
        <ele>382.541</ele>
        <time>2016-06-04T13:33:00.000Z</time>
      </trkpt>
      <trkpt lat="47.51584" lon="6.77755">
        <ele>382.568</ele>
        <time>2016-06-04T13:33:01.000Z</time>
      </trkpt>
      <trkpt lat="47.51586" lon="6.77753">
        <ele>382.571</ele>
        <time>2016-06-04T13:33:02.000Z</time>
      </trkpt>
      <trkpt lat="47.51587" lon="6.77749">
        <ele>382.552</ele>
        <time>2016-06-04T13:33:03.000Z</time>
      </trkpt>
      <trkpt lat="47.51587" lon="6.77745">
        <ele>382.515</ele>
        <time>2016-06-04T13:33:04.000Z</time>
      </trkpt>
      <trkpt lat="47.51587" lon="6.77742">
        <ele>382.464</ele>
        <time>2016-06-04T13:33:05.000Z</time>
      </trkpt>
      <trkpt lat="47.51587" lon="6.77738">
        <ele>382.4</ele>
        <time>2016-06-04T13:33:06.000Z</time>
      </trkpt>
      <trkpt lat="47.51587" lon="6.77735">
        <ele>382.328</ele>
        <time>2016-06-04T13:33:07.000Z</time>
      </trkpt>
      <trkpt lat="47.51587" lon="6.77732">
        <ele>382.249</ele>
        <time>2016-06-04T13:33:08.000Z</time>
      </trkpt>
      <trkpt lat="47.51586" lon="6.77728">
        <ele>382.166</ele>
        <time>2016-06-04T13:33:09.000Z</time>
      </trkpt>
      <trkpt lat="47.51586" lon="6.77725">
        <ele>382.082</ele>
        <time>2016-06-04T13:33:10.000Z</time>
      </trkpt>
      <trkpt lat="47.51585" lon="6.77721">
        <ele>381.999</ele>
        <time>2016-06-04T13:33:11.000Z</time>
      </trkpt>
      <trkpt lat="47.51585" lon="6.77718">
        <ele>381.92</ele>
        <time>2016-06-04T13:33:12.000Z</time>
      </trkpt>
      <trkpt lat="47.51584" lon="6.77714">
        <ele>381.847</ele>
        <time>2016-06-04T13:33:13.000Z</time>
      </trkpt>
      <trkpt lat="47.51584" lon="6.77711">
        <ele>381.783</ele>
        <time>2016-06-04T13:33:14.000Z</time>
      </trkpt>
      <trkpt lat="47.51582" lon="6.77708">
        <ele>381.732</ele>
        <time>2016-06-04T13:33:15.000Z</time>
      </trkpt>
      <trkpt lat="47.51581" lon="6.77706">
        <ele>381.696</ele>
        <time>2016-06-04T13:33:16.000Z</time>
      </trkpt>
      <trkpt lat="47.51579" lon="6.77703">
        <ele>381.676</ele>
        <time>2016-06-04T13:33:17.000Z</time>
      </trkpt>
      <trkpt lat="47.51577" lon="6.77702">
        <ele>381.673</ele>
        <time>2016-06-04T13:33:18.000Z</time>
      </trkpt>
      <trkpt lat="47.51574" lon="6.77701">
        <ele>381.689</ele>
        <time>2016-06-04T13:33:19.000Z</time>
      </trkpt>
      <trkpt lat="47.51572" lon="6.777">
        <ele>381.723</ele>
        <time>2016-06-04T13:33:20.000Z</time>
      </trkpt>
      <trkpt lat="47.51569" lon="6.777">
        <ele>381.775</ele>
        <time>2016-06-04T13:33:21.000Z</time>
      </trkpt>
      <trkpt lat="47.51566" lon="6.77699">
        <ele>381.844</ele>
        <time>2016-06-04T13:33:22.000Z</time>
      </trkpt>
      <trkpt lat="47.51563" lon="6.77699">
        <ele>381.928</ele>
        <time>2016-06-04T13:33:23.000Z</time>
      </trkpt>
      <trkpt lat="47.51561" lon="6.77698">
        <ele>382.024</ele>
        <time>2016-06-04T13:33:24.000Z</time>
      </trkpt>
      <trkpt lat="47.51558" lon="6.77698">
        <ele>382.132</ele>
        <time>2016-06-04T13:33:25.000Z</time>
      </trkpt>
      <trkpt lat="47.51555" lon="6.77697">
        <ele>382.25</ele>
        <time>2016-06-04T13:33:26.000Z</time>
      </trkpt>
      <trkpt lat="47.51553" lon="6.77696">
        <ele>382.378</ele>
        <time>2016-06-04T13:33:27.000Z</time>
      </trkpt>
      <trkpt lat="47.5155" lon="6.77695">
        <ele>382.517</ele>
        <time>2016-06-04T13:33:28.000Z</time>
      </trkpt>
      <trkpt lat="47.51548" lon="6.77694">
        <ele>382.67</ele>
        <time>2016-06-04T13:33:29.000Z</time>
      </trkpt>
      <trkpt lat="47.51546" lon="6.77693">
        <ele>382.838</ele>
        <time>2016-06-04T13:33:30.000Z</time>
      </trkpt>
      <trkpt lat="47.51544" lon="6.77692">
        <ele>383.023</ele>
        <time>2016-06-04T13:33:31.000Z</time>
      </trkpt>
      <trkpt lat="47.51543" lon="6.77691">
        <ele>383.223</ele>
        <time>2016-06-04T13:33:32.000Z</time>
      </trkpt>
      <trkpt lat="47.51541" lon="6.77689">
        <ele>383.438</ele>
        <time>2016-06-04T13:33:33.000Z</time>
      </trkpt>
      <trkpt lat="47.51539" lon="6.77688">
        <ele>383.664</ele>
        <time>2016-06-04T13:33:34.000Z</time>
      </trkpt>
      <trkpt lat="47.51538" lon="6.77687">
        <ele>383.896</ele>
        <time>2016-06-04T13:33:35.000Z</time>
      </trkpt>
      <trkpt lat="47.51536" lon="6.77686">
        <ele>384.129</ele>
        <time>2016-06-04T13:33:36.000Z</time>
      </trkpt>
      <trkpt lat="47.51534" lon="6.77685">
        <ele>384.358</ele>
        <time>2016-06-04T13:33:37.000Z</time>
      </trkpt>
      <trkpt lat="47.51533" lon="6.77684">
        <ele>384.576</ele>
        <time>2016-06-04T13:33:38.000Z</time>
      </trkpt>
      <trkpt lat="47.51531" lon="6.77683">
        <ele>384.778</ele>
        <time>2016-06-04T13:33:39.000Z</time>
      </trkpt>
      <trkpt lat="47.5153" lon="6.77682">
        <ele>384.959</ele>
        <time>2016-06-04T13:33:40.000Z</time>
      </trkpt>
      <trkpt lat="47.51528" lon="6.7768">
        <ele>385.118</ele>
        <time>2016-06-04T13:33:41.000Z</time>
      </trkpt>
      <trkpt lat="47.51526" lon="6.77678">
        <ele>385.254</ele>
        <time>2016-06-04T13:33:42.000Z</time>
      </trkpt>
      <trkpt lat="47.51525" lon="6.77676">
        <ele>385.368</ele>
        <time>2016-06-04T13:33:43.000Z</time>
      </trkpt>
      <trkpt lat="47.51523" lon="6.77674">
        <ele>385.462</ele>
        <time>2016-06-04T13:33:44.000Z</time>
      </trkpt>
      <trkpt lat="47.51522" lon="6.77671">
        <ele>385.538</ele>
        <time>2016-06-04T13:33:45.000Z</time>
      </trkpt>
      <trkpt lat="47.5152" lon="6.77669">
        <ele>385.596</ele>
        <time>2016-06-04T13:33:46.000Z</time>
      </trkpt>
      <trkpt lat="47.51518" lon="6.77666">
        <ele>385.637</ele>
        <time>2016-06-04T13:33:47.000Z</time>
      </trkpt>
      <trkpt lat="47.51517" lon="6.77664">
        <ele>385.662</ele>
        <time>2016-06-04T13:33:48.000Z</time>
      </trkpt>
      <trkpt lat="47.51516" lon="6.77661">
        <ele>385.671</ele>
        <time>2016-06-04T13:33:49.000Z</time>
      </trkpt>
      <trkpt lat="47.51515" lon="6.77658">
        <ele>385.663</ele>
        <time>2016-06-04T13:33:50.000Z</time>
      </trkpt>
      <trkpt lat="47.51514" lon="6.77655">
        <ele>385.638</ele>
        <time>2016-06-04T13:33:51.000Z</time>
      </trkpt>
      <trkpt lat="47.51513" lon="6.77651">
        <ele>385.597</ele>
        <time>2016-06-04T13:33:52.000Z</time>
      </trkpt>
      <trkpt lat="47.51512" lon="6.77648">
        <ele>385.54</ele>
        <time>2016-06-04T13:33:53.000Z</time>
      </trkpt>
      <trkpt lat="47.51512" lon="6.77645">
        <ele>385.466</ele>
        <time>2016-06-04T13:33:54.000Z</time>
      </trkpt>
      <trkpt lat="47.51511" lon="6.77642">
        <ele>385.376</ele>
        <time>2016-06-04T13:33:55.000Z</time>
      </trkpt>
      <trkpt lat="47.51511" lon="6.77638">
        <ele>385.271</ele>
        <time>2016-06-04T13:33:56.000Z</time>
      </trkpt>
      <trkpt lat="47.5151" lon="6.77635">
        <ele>385.152</ele>
        <time>2016-06-04T13:33:57.000Z</time>
      </trkpt>
      <trkpt lat="47.5151" lon="6.77632">
        <ele>385.02</ele>
        <time>2016-06-04T13:33:58.000Z</time>
      </trkpt>
      <trkpt lat="47.51509" lon="6.77628">
        <ele>384.881</ele>
        <time>2016-06-04T13:33:59.000Z</time>
      </trkpt>
      <trkpt lat="47.51508" lon="6.77625">
        <ele>384.737</ele>
        <time>2016-06-04T13:34:00.000Z</time>
      </trkpt>
      <trkpt lat="47.51508" lon="6.77621">
        <ele>384.595</ele>
        <time>2016-06-04T13:34:01.000Z</time>
      </trkpt>
      <trkpt lat="47.51507" lon="6.77617">
        <ele>384.458</ele>
        <time>2016-06-04T13:34:02.000Z</time>
      </trkpt>
      <trkpt lat="47.51506" lon="6.77613">
        <ele>384.331</ele>
        <time>2016-06-04T13:34:03.000Z</time>
      </trkpt>
      <trkpt lat="47.51505" lon="6.77609">
        <ele>384.218</ele>
        <time>2016-06-04T13:34:04.000Z</time>
      </trkpt>
      <trkpt lat="47.51504" lon="6.77605">
        <ele>384.123</ele>
        <time>2016-06-04T13:34:05.000Z</time>
      </trkpt>
      <trkpt lat="47.51503" lon="6.77601">
        <ele>384.049</ele>
        <time>2016-06-04T13:34:06.000Z</time>
      </trkpt>
      <trkpt lat="47.51502" lon="6.77596">
        <ele>384</ele>
        <time>2016-06-04T13:34:07.000Z</time>
      </trkpt>
      <trkpt lat="47.51502" lon="6.77592">
        <ele>383.976</ele>
        <time>2016-06-04T13:34:08.000Z</time>
      </trkpt>
      <trkpt lat="47.51501" lon="6.77588">
        <ele>383.981</ele>
        <time>2016-06-04T13:34:09.000Z</time>
      </trkpt>
      <trkpt lat="47.51501" lon="6.77584">
        <ele>384.014</ele>
        <time>2016-06-04T13:34:10.000Z</time>
      </trkpt>
      <trkpt lat="47.515" lon="6.77581">
        <ele>384.075</ele>
        <time>2016-06-04T13:34:11.000Z</time>
      </trkpt>
      <trkpt lat="47.515" lon="6.77577">
        <ele>384.161</ele>
        <time>2016-06-04T13:34:12.000Z</time>
      </trkpt>
      <trkpt lat="47.515" lon="6.77573">
        <ele>384.269</ele>
        <time>2016-06-04T13:34:13.000Z</time>
      </trkpt>
      <trkpt lat="47.515" lon="6.77569">
        <ele>384.395</ele>
        <time>2016-06-04T13:34:14.000Z</time>
      </trkpt>
      <trkpt lat="47.515" lon="6.77565">
        <ele>384.535</ele>
        <time>2016-06-04T13:34:15.000Z</time>
      </trkpt>
      <trkpt lat="47.515" lon="6.7756">
        <ele>384.685</ele>
        <time>2016-06-04T13:34:16.000Z</time>
      </trkpt>
      <trkpt lat="47.51499" lon="6.77556">
        <ele>384.842</ele>
        <time>2016-06-04T13:34:17.000Z</time>
      </trkpt>
      <trkpt lat="47.51499" lon="6.77551">
        <ele>385</ele>
        <time>2016-06-04T13:34:18.000Z</time>
      </trkpt>
      <trkpt lat="47.51499" lon="6.77547">
        <ele>385.158</ele>
        <time>2016-06-04T13:34:19.000Z</time>
      </trkpt>
      <trkpt lat="47.51499" lon="6.77543">
        <ele>385.311</ele>
        <time>2016-06-04T13:34:20.000Z</time>
      </trkpt>
      <trkpt lat="47.51499" lon="6.77539">
        <ele>385.459</ele>
        <time>2016-06-04T13:34:21.000Z</time>
      </trkpt>
      <trkpt lat="47.51499" lon="6.77535">
        <ele>385.598</ele>
        <time>2016-06-04T13:34:22.000Z</time>
      </trkpt>
      <trkpt lat="47.515" lon="6.77532">
        <ele>385.728</ele>
        <time>2016-06-04T13:34:23.000Z</time>
      </trkpt>
      <trkpt lat="47.515" lon="6.77528">
        <ele>385.847</ele>
        <time>2016-06-04T13:34:24.000Z</time>
      </trkpt>
      <trkpt lat="47.515" lon="6.77524">
        <ele>385.954</ele>
        <time>2016-06-04T13:34:25.000Z</time>
      </trkpt>
      <trkpt lat="47.515" lon="6.77519">
        <ele>386.046</ele>
        <time>2016-06-04T13:34:26.000Z</time>
      </trkpt>
      <trkpt lat="47.51501" lon="6.77514">
        <ele>386.123</ele>
        <time>2016-06-04T13:34:27.000Z</time>
      </trkpt>
      <trkpt lat="47.51501" lon="6.7751">
        <ele>386.183</ele>
        <time>2016-06-04T13:34:28.000Z</time>
      </trkpt>
      <trkpt lat="47.51501" lon="6.77506">
        <ele>386.224</ele>
        <time>2016-06-04T13:34:29.000Z</time>
      </trkpt>
      <trkpt lat="47.51501" lon="6.77501">
        <ele>386.246</ele>
        <time>2016-06-04T13:34:30.000Z</time>
      </trkpt>
      <trkpt lat="47.51501" lon="6.77496">
        <ele>386.246</ele>
        <time>2016-06-04T13:34:31.000Z</time>
      </trkpt>
      <trkpt lat="47.51501" lon="6.77491">
        <ele>386.225</ele>
        <time>2016-06-04T13:34:32.000Z</time>
      </trkpt>
      <trkpt lat="47.51501" lon="6.77486">
        <ele>386.181</ele>
        <time>2016-06-04T13:34:33.000Z</time>
      </trkpt>
      <trkpt lat="47.51501" lon="6.7748">
        <ele>386.113</ele>
        <time>2016-06-04T13:34:34.000Z</time>
      </trkpt>
      <trkpt lat="47.51501" lon="6.77475">
        <ele>386.02</ele>
        <time>2016-06-04T13:34:35.000Z</time>
      </trkpt>
      <trkpt lat="47.51501" lon="6.77469">
        <ele>385.903</ele>
        <time>2016-06-04T13:34:36.000Z</time>
      </trkpt>
      <trkpt lat="47.515" lon="6.77464">
        <ele>385.763</ele>
        <time>2016-06-04T13:34:37.000Z</time>
      </trkpt>
      <trkpt lat="47.515" lon="6.77459">
        <ele>385.602</ele>
        <time>2016-06-04T13:34:38.000Z</time>
      </trkpt>
      <trkpt lat="47.515" lon="6.77453">
        <ele>385.421</ele>
        <time>2016-06-04T13:34:39.000Z</time>
      </trkpt>
      <trkpt lat="47.515" lon="6.77447">
        <ele>385.222</ele>
        <time>2016-06-04T13:34:40.000Z</time>
      </trkpt>
      <trkpt lat="47.51499" lon="6.77441">
        <ele>385.008</ele>
        <time>2016-06-04T13:34:41.000Z</time>
      </trkpt>
      <trkpt lat="47.51499" lon="6.77435">
        <ele>384.78</ele>
        <time>2016-06-04T13:34:42.000Z</time>
      </trkpt>
      <trkpt lat="47.51498" lon="6.77428">
        <ele>384.543</ele>
        <time>2016-06-04T13:34:43.000Z</time>
      </trkpt>
      <trkpt lat="47.51497" lon="6.77422">
        <ele>384.299</ele>
        <time>2016-06-04T13:34:44.000Z</time>
      </trkpt>
      <trkpt lat="47.51496" lon="6.77415">
        <ele>384.054</ele>
        <time>2016-06-04T13:34:45.000Z</time>
      </trkpt>
      <trkpt lat="47.51495" lon="6.77408">
        <ele>383.813</ele>
        <time>2016-06-04T13:34:46.000Z</time>
      </trkpt>
      <trkpt lat="47.51494" lon="6.774">
        <ele>383.58</ele>
        <time>2016-06-04T13:34:47.000Z</time>
      </trkpt>
      <trkpt lat="47.51493" lon="6.77393">
        <ele>383.358</ele>
        <time>2016-06-04T13:34:48.000Z</time>
      </trkpt>
      <trkpt lat="47.51493" lon="6.77386">
        <ele>383.15</ele>
        <time>2016-06-04T13:34:49.000Z</time>
      </trkpt>
      <trkpt lat="47.51493" lon="6.77379">
        <ele>382.955</ele>
        <time>2016-06-04T13:34:50.000Z</time>
      </trkpt>
      <trkpt lat="47.51493" lon="6.77372">
        <ele>382.775</ele>
        <time>2016-06-04T13:34:51.000Z</time>
      </trkpt>
      <trkpt lat="47.51492" lon="6.77365">
        <ele>382.61</ele>
        <time>2016-06-04T13:34:52.000Z</time>
      </trkpt>
      <trkpt lat="47.51492" lon="6.77358">
        <ele>382.457</ele>
        <time>2016-06-04T13:34:53.000Z</time>
      </trkpt>
      <trkpt lat="47.51492" lon="6.77351">
        <ele>382.317</ele>
        <time>2016-06-04T13:34:54.000Z</time>
      </trkpt>
      <trkpt lat="47.51492" lon="6.77344">
        <ele>382.188</ele>
        <time>2016-06-04T13:34:55.000Z</time>
      </trkpt>
      <trkpt lat="47.51492" lon="6.77337">
        <ele>382.067</ele>
        <time>2016-06-04T13:34:56.000Z</time>
      </trkpt>
      <trkpt lat="47.51492" lon="6.7733">
        <ele>381.956</ele>
        <time>2016-06-04T13:34:57.000Z</time>
      </trkpt>
      <trkpt lat="47.51492" lon="6.77323">
        <ele>381.851</ele>
        <time>2016-06-04T13:34:58.000Z</time>
      </trkpt>
      <trkpt lat="47.51492" lon="6.77316">
        <ele>381.755</ele>
        <time>2016-06-04T13:34:59.000Z</time>
      </trkpt>
      <trkpt lat="47.51491" lon="6.77309">
        <ele>381.667</ele>
        <time>2016-06-04T13:35:00.000Z</time>
      </trkpt>
      <trkpt lat="47.51491" lon="6.77302">
        <ele>381.587</ele>
        <time>2016-06-04T13:35:01.000Z</time>
      </trkpt>
      <trkpt lat="47.51491" lon="6.77295">
        <ele>381.516</ele>
        <time>2016-06-04T13:35:02.000Z</time>
      </trkpt>
      <trkpt lat="47.51491" lon="6.77287">
        <ele>381.452</ele>
        <time>2016-06-04T13:35:03.000Z</time>
      </trkpt>
      <trkpt lat="47.5149" lon="6.7728">
        <ele>381.395</ele>
        <time>2016-06-04T13:35:04.000Z</time>
      </trkpt>
      <trkpt lat="47.5149" lon="6.77273">
        <ele>381.343</ele>
        <time>2016-06-04T13:35:05.000Z</time>
      </trkpt>
      <trkpt lat="47.5149" lon="6.77265">
        <ele>381.294</ele>
        <time>2016-06-04T13:35:06.000Z</time>
      </trkpt>
      <trkpt lat="47.51489" lon="6.77258">
        <ele>381.247</ele>
        <time>2016-06-04T13:35:07.000Z</time>
      </trkpt>
      <trkpt lat="47.51489" lon="6.7725">
        <ele>381.197</ele>
        <time>2016-06-04T13:35:08.000Z</time>
      </trkpt>
      <trkpt lat="47.51488" lon="6.77243">
        <ele>381.143</ele>
        <time>2016-06-04T13:35:09.000Z</time>
      </trkpt>
      <trkpt lat="47.51488" lon="6.77235">
        <ele>381.08</ele>
        <time>2016-06-04T13:35:10.000Z</time>
      </trkpt>
      <trkpt lat="47.51487" lon="6.77228">
        <ele>381.006</ele>
        <time>2016-06-04T13:35:11.000Z</time>
      </trkpt>
      <trkpt lat="47.51487" lon="6.7722">
        <ele>380.921</ele>
        <time>2016-06-04T13:35:12.000Z</time>
      </trkpt>
      <trkpt lat="47.51486" lon="6.77213">
        <ele>380.822</ele>
        <time>2016-06-04T13:35:13.000Z</time>
      </trkpt>
      <trkpt lat="47.51486" lon="6.77205">
        <ele>380.71</ele>
        <time>2016-06-04T13:35:14.000Z</time>
      </trkpt>
      <trkpt lat="47.51486" lon="6.77197">
        <ele>380.586</ele>
        <time>2016-06-04T13:35:15.000Z</time>
      </trkpt>
      <trkpt lat="47.51485" lon="6.77189">
        <ele>380.45</ele>
        <time>2016-06-04T13:35:16.000Z</time>
      </trkpt>
      <trkpt lat="47.51485" lon="6.77181">
        <ele>380.303</ele>
        <time>2016-06-04T13:35:17.000Z</time>
      </trkpt>
      <trkpt lat="47.51485" lon="6.77173">
        <ele>380.148</ele>
        <time>2016-06-04T13:35:18.000Z</time>
      </trkpt>
      <trkpt lat="47.51486" lon="6.77165">
        <ele>379.989</ele>
        <time>2016-06-04T13:35:19.000Z</time>
      </trkpt>
      <trkpt lat="47.51486" lon="6.77158">
        <ele>379.828</ele>
        <time>2016-06-04T13:35:20.000Z</time>
      </trkpt>
      <trkpt lat="47.51487" lon="6.7715">
        <ele>379.67</ele>
        <time>2016-06-04T13:35:21.000Z</time>
      </trkpt>
      <trkpt lat="47.51488" lon="6.77143">
        <ele>379.517</ele>
        <time>2016-06-04T13:35:22.000Z</time>
      </trkpt>
      <trkpt lat="47.51489" lon="6.77135">
        <ele>379.373</ele>
        <time>2016-06-04T13:35:23.000Z</time>
      </trkpt>
      <trkpt lat="47.5149" lon="6.77128">
        <ele>379.238</ele>
        <time>2016-06-04T13:35:24.000Z</time>
      </trkpt>
      <trkpt lat="47.51492" lon="6.77121">
        <ele>379.115</ele>
        <time>2016-06-04T13:35:25.000Z</time>
      </trkpt>
      <trkpt lat="47.51494" lon="6.77114">
        <ele>379.003</ele>
        <time>2016-06-04T13:35:26.000Z</time>
      </trkpt>
      <trkpt lat="47.51496" lon="6.77107">
        <ele>378.901</ele>
        <time>2016-06-04T13:35:27.000Z</time>
      </trkpt>
      <trkpt lat="47.51498" lon="6.771">
        <ele>378.809</ele>
        <time>2016-06-04T13:35:28.000Z</time>
      </trkpt>
      <trkpt lat="47.515" lon="6.77093">
        <ele>378.725</ele>
        <time>2016-06-04T13:35:29.000Z</time>
      </trkpt>
      <trkpt lat="47.51503" lon="6.77087">
        <ele>378.649</ele>
        <time>2016-06-04T13:35:30.000Z</time>
      </trkpt>
      <trkpt lat="47.51505" lon="6.7708">
        <ele>378.581</ele>
        <time>2016-06-04T13:35:31.000Z</time>
      </trkpt>
      <trkpt lat="47.51508" lon="6.77074">
        <ele>378.521</ele>
        <time>2016-06-04T13:35:32.000Z</time>
      </trkpt>
      <trkpt lat="47.5151" lon="6.77067">
        <ele>378.471</ele>
        <time>2016-06-04T13:35:33.000Z</time>
      </trkpt>
      <trkpt lat="47.51513" lon="6.77061">
        <ele>378.429</ele>
        <time>2016-06-04T13:35:34.000Z</time>
      </trkpt>
      <trkpt lat="47.51516" lon="6.77055">
        <ele>378.397</ele>
        <time>2016-06-04T13:35:35.000Z</time>
      </trkpt>
      <trkpt lat="47.51518" lon="6.77048">
        <ele>378.375</ele>
        <time>2016-06-04T13:35:36.000Z</time>
      </trkpt>
      <trkpt lat="47.51521" lon="6.77041">
        <ele>378.362</ele>
        <time>2016-06-04T13:35:37.000Z</time>
      </trkpt>
      <trkpt lat="47.51524" lon="6.77034">
        <ele>378.357</ele>
        <time>2016-06-04T13:35:38.000Z</time>
      </trkpt>
      <trkpt lat="47.51526" lon="6.77028">
        <ele>378.362</ele>
        <time>2016-06-04T13:35:39.000Z</time>
      </trkpt>
      <trkpt lat="47.51529" lon="6.77021">
        <ele>378.377</ele>
        <time>2016-06-04T13:35:40.000Z</time>
      </trkpt>
      <trkpt lat="47.51531" lon="6.77014">
        <ele>378.401</ele>
        <time>2016-06-04T13:35:41.000Z</time>
      </trkpt>
      <trkpt lat="47.51534" lon="6.77007">
        <ele>378.434</ele>
        <time>2016-06-04T13:35:42.000Z</time>
      </trkpt>
      <trkpt lat="47.51537" lon="6.77">
        <ele>378.477</ele>
        <time>2016-06-04T13:35:43.000Z</time>
      </trkpt>
      <trkpt lat="47.5154" lon="6.76994">
        <ele>378.528</ele>
        <time>2016-06-04T13:35:44.000Z</time>
      </trkpt>
      <trkpt lat="47.51542" lon="6.76987">
        <ele>378.587</ele>
        <time>2016-06-04T13:35:45.000Z</time>
      </trkpt>
      <trkpt lat="47.51545" lon="6.7698">
        <ele>378.654</ele>
        <time>2016-06-04T13:35:46.000Z</time>
      </trkpt>
      <trkpt lat="47.51548" lon="6.76974">
        <ele>378.727</ele>
        <time>2016-06-04T13:35:47.000Z</time>
      </trkpt>
      <trkpt lat="47.5155" lon="6.76968">
        <ele>378.807</ele>
        <time>2016-06-04T13:35:48.000Z</time>
      </trkpt>
      <trkpt lat="47.51553" lon="6.76961">
        <ele>378.892</ele>
        <time>2016-06-04T13:35:49.000Z</time>
      </trkpt>
      <trkpt lat="47.51555" lon="6.76955">
        <ele>378.98</ele>
        <time>2016-06-04T13:35:50.000Z</time>
      </trkpt>
      <trkpt lat="47.51558" lon="6.76949">
        <ele>379.069</ele>
        <time>2016-06-04T13:35:51.000Z</time>
      </trkpt>
      <trkpt lat="47.51561" lon="6.76942">
        <ele>379.155</ele>
        <time>2016-06-04T13:35:52.000Z</time>
      </trkpt>
      <trkpt lat="47.51563" lon="6.76936">
        <ele>379.233</ele>
        <time>2016-06-04T13:35:53.000Z</time>
      </trkpt>
      <trkpt lat="47.51566" lon="6.76929">
        <ele>379.3</ele>
        <time>2016-06-04T13:35:54.000Z</time>
      </trkpt>
      <trkpt lat="47.51569" lon="6.76922">
        <ele>379.354</ele>
        <time>2016-06-04T13:35:55.000Z</time>
      </trkpt>
      <trkpt lat="47.51572" lon="6.76915">
        <ele>379.391</ele>
        <time>2016-06-04T13:35:56.000Z</time>
      </trkpt>
      <trkpt lat="47.51574" lon="6.76909">
        <ele>379.41</ele>
        <time>2016-06-04T13:35:57.000Z</time>
      </trkpt>
      <trkpt lat="47.51576" lon="6.76902">
        <ele>379.411</ele>
        <time>2016-06-04T13:35:58.000Z</time>
      </trkpt>
      <trkpt lat="47.51578" lon="6.76896">
        <ele>379.395</ele>
        <time>2016-06-04T13:35:59.000Z</time>
      </trkpt>
      <trkpt lat="47.51581" lon="6.76889">
        <ele>379.363</ele>
        <time>2016-06-04T13:36:00.000Z</time>
      </trkpt>
      <trkpt lat="47.51583" lon="6.76882">
        <ele>379.318</ele>
        <time>2016-06-04T13:36:01.000Z</time>
      </trkpt>
      <trkpt lat="47.51586" lon="6.76875">
        <ele>379.265</ele>
        <time>2016-06-04T13:36:02.000Z</time>
      </trkpt>
      <trkpt lat="47.51588" lon="6.76867">
        <ele>379.204</ele>
        <time>2016-06-04T13:36:03.000Z</time>
      </trkpt>
      <trkpt lat="47.51591" lon="6.76859">
        <ele>379.14</ele>
        <time>2016-06-04T13:36:04.000Z</time>
      </trkpt>
      <trkpt lat="47.51593" lon="6.76852">
        <ele>379.075</ele>
        <time>2016-06-04T13:36:05.000Z</time>
      </trkpt>
      <trkpt lat="47.51596" lon="6.76846">
        <ele>379.01</ele>
        <time>2016-06-04T13:36:06.000Z</time>
      </trkpt>
      <trkpt lat="47.51598" lon="6.76839">
        <ele>378.946</ele>
        <time>2016-06-04T13:36:07.000Z</time>
      </trkpt>
      <trkpt lat="47.51601" lon="6.76832">
        <ele>378.886</ele>
        <time>2016-06-04T13:36:08.000Z</time>
      </trkpt>
      <trkpt lat="47.51604" lon="6.76825">
        <ele>378.83</ele>
        <time>2016-06-04T13:36:09.000Z</time>
      </trkpt>
      <trkpt lat="47.51607" lon="6.76818">
        <ele>378.78</ele>
        <time>2016-06-04T13:36:10.000Z</time>
      </trkpt>
      <trkpt lat="47.5161" lon="6.76811">
        <ele>378.736</ele>
        <time>2016-06-04T13:36:11.000Z</time>
      </trkpt>
      <trkpt lat="47.51613" lon="6.76804">
        <ele>378.701</ele>
        <time>2016-06-04T13:36:12.000Z</time>
      </trkpt>
      <trkpt lat="47.51615" lon="6.76797">
        <ele>378.675</ele>
        <time>2016-06-04T13:36:13.000Z</time>
      </trkpt>
      <trkpt lat="47.51618" lon="6.76789">
        <ele>378.662</ele>
        <time>2016-06-04T13:36:14.000Z</time>
      </trkpt>
      <trkpt lat="47.51621" lon="6.76782">
        <ele>378.664</ele>
        <time>2016-06-04T13:36:15.000Z</time>
      </trkpt>
      <trkpt lat="47.51623" lon="6.76775">
        <ele>378.684</ele>
        <time>2016-06-04T13:36:16.000Z</time>
      </trkpt>
      <trkpt lat="47.51626" lon="6.76769">
        <ele>378.724</ele>
        <time>2016-06-04T13:36:17.000Z</time>
      </trkpt>
      <trkpt lat="47.51628" lon="6.76762">
        <ele>378.784</ele>
        <time>2016-06-04T13:36:18.000Z</time>
      </trkpt>
      <trkpt lat="47.51631" lon="6.76756">
        <ele>378.865</ele>
        <time>2016-06-04T13:36:19.000Z</time>
      </trkpt>
      <trkpt lat="47.51634" lon="6.76749">
        <ele>378.962</ele>
        <time>2016-06-04T13:36:20.000Z</time>
      </trkpt>
      <trkpt lat="47.51637" lon="6.76742">
        <ele>379.072</ele>
        <time>2016-06-04T13:36:21.000Z</time>
      </trkpt>
      <trkpt lat="47.51639" lon="6.76736">
        <ele>379.191</ele>
        <time>2016-06-04T13:36:22.000Z</time>
      </trkpt>
      <trkpt lat="47.51642" lon="6.76729">
        <ele>379.312</ele>
        <time>2016-06-04T13:36:23.000Z</time>
      </trkpt>
      <trkpt lat="47.51644" lon="6.76723">
        <ele>379.431</ele>
        <time>2016-06-04T13:36:24.000Z</time>
      </trkpt>
      <trkpt lat="47.51647" lon="6.76717">
        <ele>379.544</ele>
        <time>2016-06-04T13:36:25.000Z</time>
      </trkpt>
      <trkpt lat="47.51649" lon="6.76711">
        <ele>379.648</ele>
        <time>2016-06-04T13:36:26.000Z</time>
      </trkpt>
      <trkpt lat="47.51651" lon="6.76706">
        <ele>379.74</ele>
        <time>2016-06-04T13:36:27.000Z</time>
      </trkpt>
      <trkpt lat="47.51654" lon="6.767">
        <ele>379.819</ele>
        <time>2016-06-04T13:36:28.000Z</time>
      </trkpt>
      <trkpt lat="47.51656" lon="6.76694">
        <ele>379.884</ele>
        <time>2016-06-04T13:36:29.000Z</time>
      </trkpt>
      <trkpt lat="47.51658" lon="6.76689">
        <ele>379.935</ele>
        <time>2016-06-04T13:36:30.000Z</time>
      </trkpt>
      <trkpt lat="47.5166" lon="6.76683">
        <ele>379.973</ele>
        <time>2016-06-04T13:36:31.000Z</time>
      </trkpt>
      <trkpt lat="47.51662" lon="6.76677">
        <ele>379.998</ele>
        <time>2016-06-04T13:36:32.000Z</time>
      </trkpt>
      <trkpt lat="47.51664" lon="6.76671">
        <ele>380.01</ele>
        <time>2016-06-04T13:36:33.000Z</time>
      </trkpt>
      <trkpt lat="47.51666" lon="6.76666">
        <ele>380.012</ele>
        <time>2016-06-04T13:36:34.000Z</time>
      </trkpt>
      <trkpt lat="47.51668" lon="6.7666">
        <ele>380.006</ele>
        <time>2016-06-04T13:36:35.000Z</time>
      </trkpt>
      <trkpt lat="47.5167" lon="6.76655">
        <ele>379.995</ele>
        <time>2016-06-04T13:36:36.000Z</time>
      </trkpt>
      <trkpt lat="47.51672" lon="6.76649">
        <ele>379.982</ele>
        <time>2016-06-04T13:36:37.000Z</time>
      </trkpt>
      <trkpt lat="47.51674" lon="6.76644">
        <ele>379.971</ele>
        <time>2016-06-04T13:36:38.000Z</time>
      </trkpt>
      <trkpt lat="47.51676" lon="6.76639">
        <ele>379.966</ele>
        <time>2016-06-04T13:36:39.000Z</time>
      </trkpt>
      <trkpt lat="47.51678" lon="6.76633">
        <ele>379.971</ele>
        <time>2016-06-04T13:36:40.000Z</time>
      </trkpt>
      <trkpt lat="47.5168" lon="6.76628">
        <ele>379.99</ele>
        <time>2016-06-04T13:36:41.000Z</time>
      </trkpt>
      <trkpt lat="47.51682" lon="6.76623">
        <ele>380.026</ele>
        <time>2016-06-04T13:36:42.000Z</time>
      </trkpt>
      <trkpt lat="47.51684" lon="6.76618">
        <ele>380.081</ele>
        <time>2016-06-04T13:36:43.000Z</time>
      </trkpt>
      <trkpt lat="47.51686" lon="6.76613">
        <ele>380.155</ele>
        <time>2016-06-04T13:36:44.000Z</time>
      </trkpt>
      <trkpt lat="47.51688" lon="6.76608">
        <ele>380.249</ele>
        <time>2016-06-04T13:36:45.000Z</time>
      </trkpt>
      <trkpt lat="47.5169" lon="6.76603">
        <ele>380.36</ele>
        <time>2016-06-04T13:36:46.000Z</time>
      </trkpt>
      <trkpt lat="47.51692" lon="6.76597">
        <ele>380.486</ele>
        <time>2016-06-04T13:36:47.000Z</time>
      </trkpt>
      <trkpt lat="47.51693" lon="6.76592">
        <ele>380.626</ele>
        <time>2016-06-04T13:36:48.000Z</time>
      </trkpt>
      <trkpt lat="47.51695" lon="6.76587">
        <ele>380.778</ele>
        <time>2016-06-04T13:36:49.000Z</time>
      </trkpt>
      <trkpt lat="47.51697" lon="6.76582">
        <ele>380.942</ele>
        <time>2016-06-04T13:36:50.000Z</time>
      </trkpt>
      <trkpt lat="47.51699" lon="6.76578">
        <ele>381.119</ele>
        <time>2016-06-04T13:36:51.000Z</time>
      </trkpt>
      <trkpt lat="47.51701" lon="6.76573">
        <ele>381.309</ele>
        <time>2016-06-04T13:36:52.000Z</time>
      </trkpt>
      <trkpt lat="47.51703" lon="6.76568">
        <ele>381.513</ele>
        <time>2016-06-04T13:36:53.000Z</time>
      </trkpt>
      <trkpt lat="47.51705" lon="6.76563">
        <ele>381.731</ele>
        <time>2016-06-04T13:36:54.000Z</time>
      </trkpt>
      <trkpt lat="47.51707" lon="6.76559">
        <ele>381.96</ele>
        <time>2016-06-04T13:36:55.000Z</time>
      </trkpt>
      <trkpt lat="47.51708" lon="6.76554">
        <ele>382.199</ele>
        <time>2016-06-04T13:36:56.000Z</time>
      </trkpt>
      <trkpt lat="47.5171" lon="6.7655">
        <ele>382.446</ele>
        <time>2016-06-04T13:36:57.000Z</time>
      </trkpt>
      <trkpt lat="47.51712" lon="6.76546">
        <ele>382.699</ele>
        <time>2016-06-04T13:36:58.000Z</time>
      </trkpt>
      <trkpt lat="47.51713" lon="6.76542">
        <ele>382.954</ele>
        <time>2016-06-04T13:36:59.000Z</time>
      </trkpt>
      <trkpt lat="47.51715" lon="6.76537">
        <ele>383.209</ele>
        <time>2016-06-04T13:37:00.000Z</time>
      </trkpt>
      <trkpt lat="47.51717" lon="6.76532">
        <ele>383.462</ele>
        <time>2016-06-04T13:37:01.000Z</time>
      </trkpt>
      <trkpt lat="47.51718" lon="6.76527">
        <ele>383.709</ele>
        <time>2016-06-04T13:37:02.000Z</time>
      </trkpt>
      <trkpt lat="47.5172" lon="6.76522">
        <ele>383.947</ele>
        <time>2016-06-04T13:37:03.000Z</time>
      </trkpt>
      <trkpt lat="47.51721" lon="6.76517">
        <ele>384.172</ele>
        <time>2016-06-04T13:37:04.000Z</time>
      </trkpt>
      <trkpt lat="47.51723" lon="6.76512">
        <ele>384.382</ele>
        <time>2016-06-04T13:37:05.000Z</time>
      </trkpt>
      <trkpt lat="47.51724" lon="6.76507">
        <ele>384.573</ele>
        <time>2016-06-04T13:37:06.000Z</time>
      </trkpt>
      <trkpt lat="47.51725" lon="6.76503">
        <ele>384.741</ele>
        <time>2016-06-04T13:37:07.000Z</time>
      </trkpt>
      <trkpt lat="47.51726" lon="6.76498">
        <ele>384.886</ele>
        <time>2016-06-04T13:37:08.000Z</time>
      </trkpt>
      <trkpt lat="47.51727" lon="6.76493">
        <ele>385.004</ele>
        <time>2016-06-04T13:37:09.000Z</time>
      </trkpt>
      <trkpt lat="47.51728" lon="6.76488">
        <ele>385.097</ele>
        <time>2016-06-04T13:37:10.000Z</time>
      </trkpt>
      <trkpt lat="47.51729" lon="6.76484">
        <ele>385.165</ele>
        <time>2016-06-04T13:37:11.000Z</time>
      </trkpt>
      <trkpt lat="47.51731" lon="6.76479">
        <ele>385.212</ele>
        <time>2016-06-04T13:37:12.000Z</time>
      </trkpt>
      <trkpt lat="47.51732" lon="6.76474">
        <ele>385.24</ele>
        <time>2016-06-04T13:37:13.000Z</time>
      </trkpt>
      <trkpt lat="47.51734" lon="6.7647">
        <ele>385.253</ele>
        <time>2016-06-04T13:37:14.000Z</time>
      </trkpt>
      <trkpt lat="47.51736" lon="6.76465">
        <ele>385.254</ele>
        <time>2016-06-04T13:37:15.000Z</time>
      </trkpt>
      <trkpt lat="47.51738" lon="6.76461">
        <ele>385.249</ele>
        <time>2016-06-04T13:37:16.000Z</time>
      </trkpt>
      <trkpt lat="47.5174" lon="6.76457">
        <ele>385.242</ele>
        <time>2016-06-04T13:37:17.000Z</time>
      </trkpt>
      <trkpt lat="47.51741" lon="6.76453">
        <ele>385.238</ele>
        <time>2016-06-04T13:37:18.000Z</time>
      </trkpt>
      <trkpt lat="47.51743" lon="6.76449">
        <ele>385.244</ele>
        <time>2016-06-04T13:37:19.000Z</time>
      </trkpt>
      <trkpt lat="47.51745" lon="6.76446">
        <ele>385.263</ele>
        <time>2016-06-04T13:37:20.000Z</time>
      </trkpt>
      <trkpt lat="47.51747" lon="6.76442">
        <ele>385.301</ele>
        <time>2016-06-04T13:37:21.000Z</time>
      </trkpt>
      <trkpt lat="47.51749" lon="6.76437">
        <ele>385.363</ele>
        <time>2016-06-04T13:37:22.000Z</time>
      </trkpt>
      <trkpt lat="47.51751" lon="6.76433">
        <ele>385.453</ele>
        <time>2016-06-04T13:37:23.000Z</time>
      </trkpt>
      <trkpt lat="47.51753" lon="6.76429">
        <ele>385.576</ele>
        <time>2016-06-04T13:37:24.000Z</time>
      </trkpt>
      <trkpt lat="47.51755" lon="6.76425">
        <ele>385.733</ele>
        <time>2016-06-04T13:37:25.000Z</time>
      </trkpt>
      <trkpt lat="47.51756" lon="6.7642">
        <ele>385.927</ele>
        <time>2016-06-04T13:37:26.000Z</time>
      </trkpt>
      <trkpt lat="47.51758" lon="6.76415">
        <ele>386.157</ele>
        <time>2016-06-04T13:37:27.000Z</time>
      </trkpt>
      <trkpt lat="47.5176" lon="6.7641">
        <ele>386.425</ele>
        <time>2016-06-04T13:37:28.000Z</time>
      </trkpt>
      <trkpt lat="47.51761" lon="6.76404">
        <ele>386.729</ele>
        <time>2016-06-04T13:37:29.000Z</time>
      </trkpt>
      <trkpt lat="47.51763" lon="6.76399">
        <ele>387.069</ele>
        <time>2016-06-04T13:37:30.000Z</time>
      </trkpt>
      <trkpt lat="47.51764" lon="6.76395">
        <ele>387.444</ele>
        <time>2016-06-04T13:37:31.000Z</time>
      </trkpt>
      <trkpt lat="47.51765" lon="6.7639">
        <ele>387.85</ele>
        <time>2016-06-04T13:37:32.000Z</time>
      </trkpt>
      <trkpt lat="47.51767" lon="6.76386">
        <ele>388.287</ele>
        <time>2016-06-04T13:37:33.000Z</time>
      </trkpt>
      <trkpt lat="47.51769" lon="6.76381">
        <ele>388.749</ele>
        <time>2016-06-04T13:37:34.000Z</time>
      </trkpt>
      <trkpt lat="47.5177" lon="6.76377">
        <ele>389.232</ele>
        <time>2016-06-04T13:37:35.000Z</time>
      </trkpt>
      <trkpt lat="47.51772" lon="6.76372">
        <ele>389.731</ele>
        <time>2016-06-04T13:37:36.000Z</time>
      </trkpt>
      <trkpt lat="47.51773" lon="6.76368">
        <ele>390.24</ele>
        <time>2016-06-04T13:37:37.000Z</time>
      </trkpt>
      <trkpt lat="47.51774" lon="6.76365">
        <ele>390.753</ele>
        <time>2016-06-04T13:37:38.000Z</time>
      </trkpt>
      <trkpt lat="47.51775" lon="6.76361">
        <ele>391.263</ele>
        <time>2016-06-04T13:37:39.000Z</time>
      </trkpt>
      <trkpt lat="47.51777" lon="6.76357">
        <ele>391.763</ele>
        <time>2016-06-04T13:37:40.000Z</time>
      </trkpt>
      <trkpt lat="47.51778" lon="6.76353">
        <ele>392.247</ele>
        <time>2016-06-04T13:37:41.000Z</time>
      </trkpt>
      <trkpt lat="47.51779" lon="6.76348">
        <ele>392.709</ele>
        <time>2016-06-04T13:37:42.000Z</time>
      </trkpt>
      <trkpt lat="47.51781" lon="6.76343">
        <ele>393.141</ele>
        <time>2016-06-04T13:37:43.000Z</time>
      </trkpt>
      <trkpt lat="47.51782" lon="6.76338">
        <ele>393.538</ele>
        <time>2016-06-04T13:37:44.000Z</time>
      </trkpt>
      <trkpt lat="47.51783" lon="6.76333">
        <ele>393.895</ele>
        <time>2016-06-04T13:37:45.000Z</time>
      </trkpt>
      <trkpt lat="47.51784" lon="6.76328">
        <ele>394.207</ele>
        <time>2016-06-04T13:37:46.000Z</time>
      </trkpt>
      <trkpt lat="47.51786" lon="6.76323">
        <ele>394.471</ele>
        <time>2016-06-04T13:37:47.000Z</time>
      </trkpt>
      <trkpt lat="47.51787" lon="6.76318">
        <ele>394.686</ele>
        <time>2016-06-04T13:37:48.000Z</time>
      </trkpt>
      <trkpt lat="47.51788" lon="6.76313">
        <ele>394.852</ele>
        <time>2016-06-04T13:37:49.000Z</time>
      </trkpt>
      <trkpt lat="47.5179" lon="6.76308">
        <ele>394.97</ele>
        <time>2016-06-04T13:37:50.000Z</time>
      </trkpt>
      <trkpt lat="47.51792" lon="6.76303">
        <ele>395.043</ele>
        <time>2016-06-04T13:37:51.000Z</time>
      </trkpt>
      <trkpt lat="47.51793" lon="6.76298">
        <ele>395.076</ele>
        <time>2016-06-04T13:37:52.000Z</time>
      </trkpt>
      <trkpt lat="47.51795" lon="6.76293">
        <ele>395.075</ele>
        <time>2016-06-04T13:37:53.000Z</time>
      </trkpt>
      <trkpt lat="47.51797" lon="6.76287">
        <ele>395.044</ele>
        <time>2016-06-04T13:37:54.000Z</time>
      </trkpt>
      <trkpt lat="47.518" lon="6.76282">
        <ele>394.991</ele>
        <time>2016-06-04T13:37:55.000Z</time>
      </trkpt>
      <trkpt lat="47.51802" lon="6.76277">
        <ele>394.921</ele>
        <time>2016-06-04T13:37:56.000Z</time>
      </trkpt>
      <trkpt lat="47.51804" lon="6.76272">
        <ele>394.841</ele>
        <time>2016-06-04T13:37:57.000Z</time>
      </trkpt>
      <trkpt lat="47.51807" lon="6.76267">
        <ele>394.757</ele>
        <time>2016-06-04T13:37:58.000Z</time>
      </trkpt>
      <trkpt lat="47.51809" lon="6.76263">
        <ele>394.673</ele>
        <time>2016-06-04T13:37:59.000Z</time>
      </trkpt>
      <trkpt lat="47.51811" lon="6.76259">
        <ele>394.595</ele>
        <time>2016-06-04T13:38:00.000Z</time>
      </trkpt>
      <trkpt lat="47.51814" lon="6.76254">
        <ele>394.526</ele>
        <time>2016-06-04T13:38:01.000Z</time>
      </trkpt>
      <trkpt lat="47.51816" lon="6.7625">
        <ele>394.468</ele>
        <time>2016-06-04T13:38:02.000Z</time>
      </trkpt>
      <trkpt lat="47.51819" lon="6.76246">
        <ele>394.423</ele>
        <time>2016-06-04T13:38:03.000Z</time>
      </trkpt>
      <trkpt lat="47.51822" lon="6.76242">
        <ele>394.392</ele>
        <time>2016-06-04T13:38:04.000Z</time>
      </trkpt>
      <trkpt lat="47.51824" lon="6.76238">
        <ele>394.376</ele>
        <time>2016-06-04T13:38:05.000Z</time>
      </trkpt>
      <trkpt lat="47.51827" lon="6.76234">
        <ele>394.375</ele>
        <time>2016-06-04T13:38:06.000Z</time>
      </trkpt>
      <trkpt lat="47.51829" lon="6.76231">
        <ele>394.388</ele>
        <time>2016-06-04T13:38:07.000Z</time>
      </trkpt>
      <trkpt lat="47.51832" lon="6.76227">
        <ele>394.417</ele>
        <time>2016-06-04T13:38:08.000Z</time>
      </trkpt>
      <trkpt lat="47.51835" lon="6.76224">
        <ele>394.459</ele>
        <time>2016-06-04T13:38:09.000Z</time>
      </trkpt>
      <trkpt lat="47.51838" lon="6.7622">
        <ele>394.515</ele>
        <time>2016-06-04T13:38:10.000Z</time>
      </trkpt>
      <trkpt lat="47.51841" lon="6.76216">
        <ele>394.583</ele>
        <time>2016-06-04T13:38:11.000Z</time>
      </trkpt>
      <trkpt lat="47.51844" lon="6.76213">
        <ele>394.665</ele>
        <time>2016-06-04T13:38:12.000Z</time>
      </trkpt>
      <trkpt lat="47.51847" lon="6.7621">
        <ele>394.759</ele>
        <time>2016-06-04T13:38:13.000Z</time>
      </trkpt>
      <trkpt lat="47.51851" lon="6.76208">
        <ele>394.867</ele>
        <time>2016-06-04T13:38:14.000Z</time>
      </trkpt>
      <trkpt lat="47.51854" lon="6.76205">
        <ele>394.988</ele>
        <time>2016-06-04T13:38:15.000Z</time>
      </trkpt>
      <trkpt lat="47.51857" lon="6.76203">
        <ele>395.126</ele>
        <time>2016-06-04T13:38:16.000Z</time>
      </trkpt>
      <trkpt lat="47.5186" lon="6.762">
        <ele>395.281</ele>
        <time>2016-06-04T13:38:17.000Z</time>
      </trkpt>
      <trkpt lat="47.51864" lon="6.76197">
        <ele>395.455</ele>
        <time>2016-06-04T13:38:18.000Z</time>
      </trkpt>
      <trkpt lat="47.51868" lon="6.76195">
        <ele>395.649</ele>
        <time>2016-06-04T13:38:19.000Z</time>
      </trkpt>
      <trkpt lat="47.51872" lon="6.76192">
        <ele>395.863</ele>
        <time>2016-06-04T13:38:20.000Z</time>
      </trkpt>
      <trkpt lat="47.51875" lon="6.7619">
        <ele>396.099</ele>
        <time>2016-06-04T13:38:21.000Z</time>
      </trkpt>
      <trkpt lat="47.51879" lon="6.76187">
        <ele>396.353</ele>
        <time>2016-06-04T13:38:22.000Z</time>
      </trkpt>
      <trkpt lat="47.51883" lon="6.76184">
        <ele>396.626</ele>
        <time>2016-06-04T13:38:23.000Z</time>
      </trkpt>
      <trkpt lat="47.51887" lon="6.76181">
        <ele>396.914</ele>
        <time>2016-06-04T13:38:24.000Z</time>
      </trkpt>
      <trkpt lat="47.51891" lon="6.76178">
        <ele>397.214</ele>
        <time>2016-06-04T13:38:25.000Z</time>
      </trkpt>
      <trkpt lat="47.51895" lon="6.76176">
        <ele>397.522</ele>
        <time>2016-06-04T13:38:26.000Z</time>
      </trkpt>
      <trkpt lat="47.51899" lon="6.76174">
        <ele>397.833</ele>
        <time>2016-06-04T13:38:27.000Z</time>
      </trkpt>
      <trkpt lat="47.51903" lon="6.76173">
        <ele>398.142</ele>
        <time>2016-06-04T13:38:28.000Z</time>
      </trkpt>
      <trkpt lat="47.51907" lon="6.76171">
        <ele>398.442</ele>
        <time>2016-06-04T13:38:29.000Z</time>
      </trkpt>
      <trkpt lat="47.51911" lon="6.7617">
        <ele>398.727</ele>
        <time>2016-06-04T13:38:30.000Z</time>
      </trkpt>
      <trkpt lat="47.51916" lon="6.76168">
        <ele>398.992</ele>
        <time>2016-06-04T13:38:31.000Z</time>
      </trkpt>
      <trkpt lat="47.51921" lon="6.76165">
        <ele>399.234</ele>
        <time>2016-06-04T13:38:32.000Z</time>
      </trkpt>
      <trkpt lat="47.51926" lon="6.76163">
        <ele>399.448</ele>
        <time>2016-06-04T13:38:33.000Z</time>
      </trkpt>
      <trkpt lat="47.51932" lon="6.76161">
        <ele>399.631</ele>
        <time>2016-06-04T13:38:34.000Z</time>
      </trkpt>
      <trkpt lat="47.51938" lon="6.76159">
        <ele>399.782</ele>
        <time>2016-06-04T13:38:35.000Z</time>
      </trkpt>
      <trkpt lat="47.51944" lon="6.76156">
        <ele>399.898</ele>
        <time>2016-06-04T13:38:36.000Z</time>
      </trkpt>
      <trkpt lat="47.5195" lon="6.76154">
        <ele>399.981</ele>
        <time>2016-06-04T13:38:37.000Z</time>
      </trkpt>
      <trkpt lat="47.51956" lon="6.76151">
        <ele>400.029</ele>
        <time>2016-06-04T13:38:38.000Z</time>
      </trkpt>
      <trkpt lat="47.51962" lon="6.76148">
        <ele>400.044</ele>
        <time>2016-06-04T13:38:39.000Z</time>
      </trkpt>
      <trkpt lat="47.51967" lon="6.76147">
        <ele>400.027</ele>
        <time>2016-06-04T13:38:40.000Z</time>
      </trkpt>
      <trkpt lat="47.51973" lon="6.76145">
        <ele>399.978</ele>
        <time>2016-06-04T13:38:41.000Z</time>
      </trkpt>
      <trkpt lat="47.51978" lon="6.76143">
        <ele>399.899</ele>
        <time>2016-06-04T13:38:42.000Z</time>
      </trkpt>
      <trkpt lat="47.51984" lon="6.76141">
        <ele>399.79</ele>
        <time>2016-06-04T13:38:43.000Z</time>
      </trkpt>
      <trkpt lat="47.51989" lon="6.76138">
        <ele>399.652</ele>
        <time>2016-06-04T13:38:44.000Z</time>
      </trkpt>
      <trkpt lat="47.51995" lon="6.76134">
        <ele>399.484</ele>
        <time>2016-06-04T13:38:45.000Z</time>
      </trkpt>
      <trkpt lat="47.52" lon="6.76131">
        <ele>399.287</ele>
        <time>2016-06-04T13:38:46.000Z</time>
      </trkpt>
      <trkpt lat="47.52006" lon="6.76127">
        <ele>399.06</ele>
        <time>2016-06-04T13:38:47.000Z</time>
      </trkpt>
      <trkpt lat="47.52011" lon="6.76123">
        <ele>398.802</ele>
        <time>2016-06-04T13:38:48.000Z</time>
      </trkpt>
      <trkpt lat="47.52017" lon="6.76119">
        <ele>398.513</ele>
        <time>2016-06-04T13:38:49.000Z</time>
      </trkpt>
      <trkpt lat="47.52023" lon="6.76116">
        <ele>398.192</ele>
        <time>2016-06-04T13:38:50.000Z</time>
      </trkpt>
      <trkpt lat="47.52029" lon="6.76112">
        <ele>397.839</ele>
        <time>2016-06-04T13:38:51.000Z</time>
      </trkpt>
      <trkpt lat="47.52035" lon="6.76107">
        <ele>397.452</ele>
        <time>2016-06-04T13:38:52.000Z</time>
      </trkpt>
      <trkpt lat="47.52041" lon="6.76102">
        <ele>397.033</ele>
        <time>2016-06-04T13:38:53.000Z</time>
      </trkpt>
      <trkpt lat="47.52048" lon="6.76096">
        <ele>396.581</ele>
        <time>2016-06-04T13:38:54.000Z</time>
      </trkpt>
      <trkpt lat="47.52055" lon="6.76091">
        <ele>396.097</ele>
        <time>2016-06-04T13:38:55.000Z</time>
      </trkpt>
      <trkpt lat="47.52062" lon="6.76085">
        <ele>395.582</ele>
        <time>2016-06-04T13:38:56.000Z</time>
      </trkpt>
      <trkpt lat="47.52068" lon="6.7608">
        <ele>395.038</ele>
        <time>2016-06-04T13:38:57.000Z</time>
      </trkpt>
      <trkpt lat="47.52075" lon="6.76075">
        <ele>394.465</ele>
        <time>2016-06-04T13:38:58.000Z</time>
      </trkpt>
      <trkpt lat="47.52081" lon="6.7607">
        <ele>393.866</ele>
        <time>2016-06-04T13:38:59.000Z</time>
      </trkpt>
      <trkpt lat="47.52088" lon="6.76065">
        <ele>393.243</ele>
        <time>2016-06-04T13:39:00.000Z</time>
      </trkpt>
      <trkpt lat="47.52094" lon="6.76059">
        <ele>392.596</ele>
        <time>2016-06-04T13:39:01.000Z</time>
      </trkpt>
      <trkpt lat="47.52101" lon="6.76053">
        <ele>391.929</ele>
        <time>2016-06-04T13:39:02.000Z</time>
      </trkpt>
      <trkpt lat="47.52107" lon="6.76047">
        <ele>391.243</ele>
        <time>2016-06-04T13:39:03.000Z</time>
      </trkpt>
      <trkpt lat="47.52113" lon="6.7604">
        <ele>390.538</ele>
        <time>2016-06-04T13:39:04.000Z</time>
      </trkpt>
      <trkpt lat="47.5212" lon="6.76033">
        <ele>389.816</ele>
        <time>2016-06-04T13:39:05.000Z</time>
      </trkpt>
      <trkpt lat="47.52127" lon="6.76026">
        <ele>389.078</ele>
        <time>2016-06-04T13:39:06.000Z</time>
      </trkpt>
      <trkpt lat="47.52134" lon="6.76018">
        <ele>388.322</ele>
        <time>2016-06-04T13:39:07.000Z</time>
      </trkpt>
      <trkpt lat="47.52141" lon="6.76011">
        <ele>387.549</ele>
        <time>2016-06-04T13:39:08.000Z</time>
      </trkpt>
      <trkpt lat="47.52148" lon="6.76004">
        <ele>386.758</ele>
        <time>2016-06-04T13:39:09.000Z</time>
      </trkpt>
      <trkpt lat="47.52155" lon="6.75999">
        <ele>385.949</ele>
        <time>2016-06-04T13:39:10.000Z</time>
      </trkpt>
      <trkpt lat="47.52162" lon="6.75994">
        <ele>385.12</ele>
        <time>2016-06-04T13:39:11.000Z</time>
      </trkpt>
      <trkpt lat="47.52168" lon="6.7599">
        <ele>384.27</ele>
        <time>2016-06-04T13:39:12.000Z</time>
      </trkpt>
      <trkpt lat="47.52175" lon="6.75985">
        <ele>383.399</ele>
        <time>2016-06-04T13:39:13.000Z</time>
      </trkpt>
      <trkpt lat="47.52182" lon="6.75979">
        <ele>382.504</ele>
        <time>2016-06-04T13:39:14.000Z</time>
      </trkpt>
      <trkpt lat="47.52189" lon="6.75972">
        <ele>381.587</ele>
        <time>2016-06-04T13:39:15.000Z</time>
      </trkpt>
      <trkpt lat="47.52196" lon="6.75963">
        <ele>380.646</ele>
        <time>2016-06-04T13:39:16.000Z</time>
      </trkpt>
      <trkpt lat="47.52203" lon="6.75953">
        <ele>379.682</ele>
        <time>2016-06-04T13:39:17.000Z</time>
      </trkpt>
      <trkpt lat="47.5221" lon="6.75941">
        <ele>378.694</ele>
        <time>2016-06-04T13:39:18.000Z</time>
      </trkpt>
      <trkpt lat="47.52216" lon="6.75928">
        <ele>377.685</ele>
        <time>2016-06-04T13:39:19.000Z</time>
      </trkpt>
      <trkpt lat="47.52221" lon="6.75917">
        <ele>376.657</ele>
        <time>2016-06-04T13:39:20.000Z</time>
      </trkpt>
      <trkpt lat="47.52225" lon="6.75908">
        <ele>375.61</ele>
        <time>2016-06-04T13:39:21.000Z</time>
      </trkpt>
      <trkpt lat="47.52227" lon="6.759">
        <ele>374.547</ele>
        <time>2016-06-04T13:39:22.000Z</time>
      </trkpt>
      <trkpt lat="47.52229" lon="6.7589">
        <ele>373.472</ele>
        <time>2016-06-04T13:39:23.000Z</time>
      </trkpt>
      <trkpt lat="47.52232" lon="6.75878">
        <ele>372.386</ele>
        <time>2016-06-04T13:39:24.000Z</time>
      </trkpt>
      <trkpt lat="47.52235" lon="6.75864">
        <ele>371.295</ele>
        <time>2016-06-04T13:39:25.000Z</time>
      </trkpt>
      <trkpt lat="47.52238" lon="6.75849">
        <ele>370.204</ele>
        <time>2016-06-04T13:39:26.000Z</time>
      </trkpt>
      <trkpt lat="47.52241" lon="6.75833">
        <ele>369.116</ele>
        <time>2016-06-04T13:39:27.000Z</time>
      </trkpt>
      <trkpt lat="47.52244" lon="6.75819">
        <ele>368.038</ele>
        <time>2016-06-04T13:39:28.000Z</time>
      </trkpt>
      <trkpt lat="47.52246" lon="6.75804">
        <ele>366.977</ele>
        <time>2016-06-04T13:39:29.000Z</time>
      </trkpt>
      <trkpt lat="47.52249" lon="6.7579">
        <ele>365.939</ele>
        <time>2016-06-04T13:39:30.000Z</time>
      </trkpt>
      <trkpt lat="47.52251" lon="6.75776">
        <ele>364.933</ele>
        <time>2016-06-04T13:39:31.000Z</time>
      </trkpt>
      <trkpt lat="47.52254" lon="6.75763">
        <ele>363.964</ele>
        <time>2016-06-04T13:39:32.000Z</time>
      </trkpt>
      <trkpt lat="47.52256" lon="6.75749">
        <ele>363.041</ele>
        <time>2016-06-04T13:39:33.000Z</time>
      </trkpt>
      <trkpt lat="47.52259" lon="6.75735">
        <ele>362.168</ele>
        <time>2016-06-04T13:39:34.000Z</time>
      </trkpt>
      <trkpt lat="47.52261" lon="6.75722">
        <ele>361.348</ele>
        <time>2016-06-04T13:39:35.000Z</time>
      </trkpt>
      <trkpt lat="47.52264" lon="6.75708">
        <ele>360.584</ele>
        <time>2016-06-04T13:39:36.000Z</time>
      </trkpt>
      <trkpt lat="47.52267" lon="6.75695">
        <ele>359.877</ele>
        <time>2016-06-04T13:39:37.000Z</time>
      </trkpt>
      <trkpt lat="47.5227" lon="6.75682">
        <ele>359.225</ele>
        <time>2016-06-04T13:39:38.000Z</time>
      </trkpt>
      <trkpt lat="47.52274" lon="6.75669">
        <ele>358.626</ele>
        <time>2016-06-04T13:39:39.000Z</time>
      </trkpt>
      <trkpt lat="47.52277" lon="6.75656">
        <ele>358.077</ele>
        <time>2016-06-04T13:39:40.000Z</time>
      </trkpt>
      <trkpt lat="47.5228" lon="6.75643">
        <ele>357.576</ele>
        <time>2016-06-04T13:39:41.000Z</time>
      </trkpt>
      <trkpt lat="47.52283" lon="6.7563">
        <ele>357.12</ele>
        <time>2016-06-04T13:39:42.000Z</time>
      </trkpt>
      <trkpt lat="47.52287" lon="6.75618">
        <ele>356.706</ele>
        <time>2016-06-04T13:39:43.000Z</time>
      </trkpt>
      <trkpt lat="47.5229" lon="6.75605">
        <ele>356.329</ele>
        <time>2016-06-04T13:39:44.000Z</time>
      </trkpt>
      <trkpt lat="47.52293" lon="6.75592">
        <ele>355.987</ele>
        <time>2016-06-04T13:39:45.000Z</time>
      </trkpt>
      <trkpt lat="47.52294" lon="6.75579">
        <ele>355.673</ele>
        <time>2016-06-04T13:39:46.000Z</time>
      </trkpt>
      <trkpt lat="47.52295" lon="6.75567">
        <ele>355.384</ele>
        <time>2016-06-04T13:39:47.000Z</time>
      </trkpt>
      <trkpt lat="47.52295" lon="6.75556">
        <ele>355.115</ele>
        <time>2016-06-04T13:39:48.000Z</time>
      </trkpt>
      <trkpt lat="47.52294" lon="6.75544">
        <ele>354.86</ele>
        <time>2016-06-04T13:39:49.000Z</time>
      </trkpt>
      <trkpt lat="47.52292" lon="6.75533">
        <ele>354.615</ele>
        <time>2016-06-04T13:39:50.000Z</time>
      </trkpt>
      <trkpt lat="47.52289" lon="6.75522">
        <ele>354.376</ele>
        <time>2016-06-04T13:39:51.000Z</time>
      </trkpt>
      <trkpt lat="47.52284" lon="6.75513">
        <ele>354.139</ele>
        <time>2016-06-04T13:39:52.000Z</time>
      </trkpt>
      <trkpt lat="47.52278" lon="6.75504">
        <ele>353.902</ele>
        <time>2016-06-04T13:39:53.000Z</time>
      </trkpt>
      <trkpt lat="47.52271" lon="6.75496">
        <ele>353.664</ele>
        <time>2016-06-04T13:39:54.000Z</time>
      </trkpt>
      <trkpt lat="47.52265" lon="6.75487">
        <ele>353.426</ele>
        <time>2016-06-04T13:39:55.000Z</time>
      </trkpt>
      <trkpt lat="47.52258" lon="6.7548">
        <ele>353.19</ele>
        <time>2016-06-04T13:39:56.000Z</time>
      </trkpt>
      <trkpt lat="47.52251" lon="6.75472">
        <ele>352.955</ele>
        <time>2016-06-04T13:39:57.000Z</time>
      </trkpt>
      <trkpt lat="47.52244" lon="6.75464">
        <ele>352.723</ele>
        <time>2016-06-04T13:39:58.000Z</time>
      </trkpt>
      <trkpt lat="47.52237" lon="6.75456">
        <ele>352.493</ele>
        <time>2016-06-04T13:39:59.000Z</time>
      </trkpt>
      <trkpt lat="47.52231" lon="6.75448">
        <ele>352.266</ele>
        <time>2016-06-04T13:40:00.000Z</time>
      </trkpt>
      <trkpt lat="47.52225" lon="6.7544">
        <ele>352.04</ele>
        <time>2016-06-04T13:40:01.000Z</time>
      </trkpt>
      <trkpt lat="47.52219" lon="6.75432">
        <ele>351.815</ele>
        <time>2016-06-04T13:40:02.000Z</time>
      </trkpt>
      <trkpt lat="47.52207" lon="6.75417">
        <ele>351.774</ele>
        <time>2016-06-04T13:40:04.216Z</time>
      </trkpt>
      <trkpt lat="47.52201" lon="6.75408">
        <ele>349.994</ele>
        <time>2016-06-04T13:40:05.015Z</time>
      </trkpt>
      <trkpt lat="47.52196" lon="6.754">
        <ele>349.042</ele>
        <time>2016-06-04T13:40:06.011Z</time>
      </trkpt>
      <trkpt lat="47.5219" lon="6.75391">
        <ele>348.663</ele>
        <time>2016-06-04T13:40:07.007Z</time>
      </trkpt>
      <trkpt lat="47.5219" lon="6.75391">
        <ele>348.663</ele>
        <time>2016-06-04T13:40:07.687Z</time>
      </trkpt>
      <trkpt lat="47.52184" lon="6.75382">
        <ele>347.769</ele>
        <time>2016-06-04T13:40:08.003Z</time>
      </trkpt>
      <trkpt lat="47.52178" lon="6.75374">
        <ele>347.83</ele>
        <time>2016-06-04T13:40:09.000Z</time>
      </trkpt>
      <trkpt lat="47.52171" lon="6.75364">
        <ele>347.832</ele>
        <time>2016-06-04T13:40:10.000Z</time>
      </trkpt>
      <trkpt lat="47.52171" lon="6.75364">
        <ele>347.832</ele>
        <time>2016-06-04T13:40:18.000Z</time>
      </trkpt>
      <trkpt lat="47.52766" lon="6.72787">
        <ele>341.866</ele>
        <time>2016-06-04T13:49:55.000Z</time>
      </trkpt>
      <trkpt lat="47.52766" lon="6.72787">
        <ele>341.058</ele>
        <time>2016-06-04T13:49:57.252Z</time>
      </trkpt>
      <trkpt lat="47.52766" lon="6.72787">
        <ele>340.007</ele>
        <time>2016-06-04T13:49:58.008Z</time>
      </trkpt>
      <trkpt lat="47.52766" lon="6.72787">
        <ele>339.93</ele>
        <time>2016-06-04T13:49:59.005Z</time>
      </trkpt>
      <trkpt lat="47.52766" lon="6.72787">
        <ele>340.086</ele>
        <time>2016-06-04T13:50:00.001Z</time>
      </trkpt>
      <trkpt lat="47.52766" lon="6.72787">
        <ele>340.198</ele>
        <time>2016-06-04T13:50:01.000Z</time>
      </trkpt>
      <trkpt lat="47.52766" lon="6.72787">
        <ele>340.177</ele>
        <time>2016-06-04T13:50:02.000Z</time>
      </trkpt>
      <trkpt lat="47.52766" lon="6.72787">
        <ele>340.19</ele>
        <time>2016-06-04T13:50:03.000Z</time>
      </trkpt>
      <trkpt lat="47.52766" lon="6.72787">
        <ele>340.183</ele>
        <time>2016-06-04T13:50:04.000Z</time>
      </trkpt>
      <trkpt lat="47.52766" lon="6.72787">
        <ele>340.139</ele>
        <time>2016-06-04T13:50:05.000Z</time>
      </trkpt>
      <trkpt lat="47.52766" lon="6.72787">
        <ele>340.054</ele>
        <time>2016-06-04T13:50:06.000Z</time>
      </trkpt>
      <trkpt lat="47.52766" lon="6.72787">
        <ele>339.965</ele>
        <time>2016-06-04T13:50:07.000Z</time>
      </trkpt>
      <trkpt lat="47.52766" lon="6.72787">
        <ele>340.052</ele>
        <time>2016-06-04T13:50:08.000Z</time>
      </trkpt>
      <trkpt lat="47.52766" lon="6.72787">
        <ele>340.073</ele>
        <time>2016-06-04T13:50:09.000Z</time>
      </trkpt>
      <trkpt lat="47.52766" lon="6.72787">
        <ele>340.084</ele>
        <time>2016-06-04T13:50:10.000Z</time>
      </trkpt>
      <trkpt lat="47.52766" lon="6.72787">
        <ele>340.136</ele>
        <time>2016-06-04T13:50:11.000Z</time>
      </trkpt>
      <trkpt lat="47.52766" lon="6.72787">
        <ele>340.146</ele>
        <time>2016-06-04T13:50:12.000Z</time>
      </trkpt>
      <trkpt lat="47.52766" lon="6.72787">
        <ele>340.141</ele>
        <time>2016-06-04T13:50:13.000Z</time>
      </trkpt>
      <trkpt lat="47.52766" lon="6.72787">
        <ele>340.149</ele>
        <time>2016-06-04T13:50:14.000Z</time>
      </trkpt>
      <trkpt lat="47.52769" lon="6.72788">
        <ele>340.18</ele>
        <time>2016-06-04T13:50:15.000Z</time>
      </trkpt>
      <trkpt lat="47.52768" lon="6.72788">
        <ele>340.048</ele>
        <time>2016-06-04T13:50:16.000Z</time>
      </trkpt>
      <trkpt lat="47.52769" lon="6.72788">
        <ele>339.581</ele>
        <time>2016-06-04T13:50:17.000Z</time>
      </trkpt>
      <trkpt lat="47.52769" lon="6.72788">
        <ele>339.647</ele>
        <time>2016-06-04T13:50:18.000Z</time>
      </trkpt>
      <trkpt lat="47.52769" lon="6.72788">
        <ele>339.712</ele>
        <time>2016-06-04T13:50:19.000Z</time>
      </trkpt>
      <trkpt lat="47.52769" lon="6.72788">
        <ele>339.704</ele>
        <time>2016-06-04T13:50:20.000Z</time>
      </trkpt>
      <trkpt lat="47.52768" lon="6.72788">
        <ele>339.717</ele>
        <time>2016-06-04T13:50:21.000Z</time>
      </trkpt>
      <trkpt lat="47.52768" lon="6.72788">
        <ele>339.717</ele>
        <time>2016-06-04T13:50:22.145Z</time>
      </trkpt>
      <trkpt lat="47.52768" lon="6.72788">
        <ele>339.732</ele>
        <time>2016-06-04T13:50:23.000Z</time>
      </trkpt>
      <trkpt lat="47.52768" lon="6.72788">
        <ele>339.682</ele>
        <time>2016-06-04T13:50:24.000Z</time>
      </trkpt>
      <trkpt lat="47.52768" lon="6.72788">
        <ele>339.611</ele>
        <time>2016-06-04T13:50:25.000Z</time>
      </trkpt>
      <trkpt lat="47.52768" lon="6.72788">
        <ele>339.799</ele>
        <time>2016-06-04T13:50:26.000Z</time>
      </trkpt>
      <trkpt lat="47.52768" lon="6.72788">
        <ele>339.883</ele>
        <time>2016-06-04T13:50:27.000Z</time>
      </trkpt>
      <trkpt lat="47.52768" lon="6.72788">
        <ele>339.881</ele>
        <time>2016-06-04T13:50:28.000Z</time>
      </trkpt>
      <trkpt lat="47.52768" lon="6.72788">
        <ele>339.934</ele>
        <time>2016-06-04T13:50:29.000Z</time>
      </trkpt>
      <trkpt lat="47.52768" lon="6.72788">
        <ele>339.929</ele>
        <time>2016-06-04T13:50:30.299Z</time>
      </trkpt>
      <trkpt lat="47.52767" lon="6.72788">
        <ele>340.971</ele>
        <time>2016-06-04T13:50:31.299Z</time>
      </trkpt>
      <trkpt lat="47.52767" lon="6.72788">
        <ele>341.012</ele>
        <time>2016-06-04T13:50:32.299Z</time>
      </trkpt>
      <trkpt lat="47.52767" lon="6.72788">
        <ele>341.054</ele>
        <time>2016-06-04T13:50:33.299Z</time>
      </trkpt>
      <trkpt lat="47.52767" lon="6.72788">
        <ele>341.094</ele>
        <time>2016-06-04T13:50:34.299Z</time>
      </trkpt>
      <trkpt lat="47.52767" lon="6.72788">
        <ele>341.133</ele>
        <time>2016-06-04T13:50:35.299Z</time>
      </trkpt>
      <trkpt lat="47.52767" lon="6.72788">
        <ele>341.17</ele>
        <time>2016-06-04T13:50:36.299Z</time>
      </trkpt>
      <trkpt lat="47.52767" lon="6.72788">
        <ele>341.204</ele>
        <time>2016-06-04T13:50:37.299Z</time>
      </trkpt>
      <trkpt lat="47.52767" lon="6.72788">
        <ele>341.236</ele>
        <time>2016-06-04T13:50:38.299Z</time>
      </trkpt>
      <trkpt lat="47.52767" lon="6.72788">
        <ele>341.264</ele>
        <time>2016-06-04T13:50:39.299Z</time>
      </trkpt>
      <trkpt lat="47.52767" lon="6.72788">
        <ele>341.289</ele>
        <time>2016-06-04T13:50:40.299Z</time>
      </trkpt>
      <trkpt lat="47.52767" lon="6.72788">
        <ele>341.311</ele>
        <time>2016-06-04T13:50:41.299Z</time>
      </trkpt>
      <trkpt lat="47.52767" lon="6.72788">
        <ele>341.33</ele>
        <time>2016-06-04T13:50:42.299Z</time>
      </trkpt>
      <trkpt lat="47.52767" lon="6.72788">
        <ele>341.347</ele>
        <time>2016-06-04T13:50:43.299Z</time>
      </trkpt>
      <trkpt lat="47.52767" lon="6.72788">
        <ele>341.36</ele>
        <time>2016-06-04T13:50:44.299Z</time>
      </trkpt>
      <trkpt lat="47.52767" lon="6.72788">
        <ele>341.371</ele>
        <time>2016-06-04T13:50:45.299Z</time>
      </trkpt>
      <trkpt lat="47.52767" lon="6.72788">
        <ele>341.38</ele>
        <time>2016-06-04T13:50:46.299Z</time>
      </trkpt>
      <trkpt lat="47.52767" lon="6.72788">
        <ele>341.387</ele>
        <time>2016-06-04T13:50:47.299Z</time>
      </trkpt>
      <trkpt lat="47.52767" lon="6.72788">
        <ele>341.392</ele>
        <time>2016-06-04T13:50:48.299Z</time>
      </trkpt>
      <trkpt lat="47.52767" lon="6.72788">
        <ele>341.395</ele>
        <time>2016-06-04T13:50:49.299Z</time>
      </trkpt>
      <trkpt lat="47.52767" lon="6.72788">
        <ele>341.397</ele>
        <time>2016-06-04T13:50:50.299Z</time>
      </trkpt>
      <trkpt lat="47.52767" lon="6.72788">
        <ele>341.398</ele>
        <time>2016-06-04T13:50:51.299Z</time>
      </trkpt>
      <trkpt lat="47.52767" lon="6.72788">
        <ele>341.397</ele>
        <time>2016-06-04T13:50:52.299Z</time>
      </trkpt>
      <trkpt lat="47.52767" lon="6.72788">
        <ele>341.395</ele>
        <time>2016-06-04T13:50:53.299Z</time>
      </trkpt>
      <trkpt lat="47.52767" lon="6.72788">
        <ele>341.393</ele>
        <time>2016-06-04T13:50:54.299Z</time>
      </trkpt>
      <trkpt lat="47.52767" lon="6.72788">
        <ele>341.39</ele>
        <time>2016-06-04T13:50:55.299Z</time>
      </trkpt>
      <trkpt lat="47.52767" lon="6.72788">
        <ele>341.387</ele>
        <time>2016-06-04T13:50:56.299Z</time>
      </trkpt>
      <trkpt lat="47.52767" lon="6.72788">
        <ele>341.383</ele>
        <time>2016-06-04T13:50:57.299Z</time>
      </trkpt>
      <trkpt lat="47.52767" lon="6.72788">
        <ele>341.38</ele>
        <time>2016-06-04T13:50:58.299Z</time>
      </trkpt>
      <trkpt lat="47.52767" lon="6.72788">
        <ele>341.376</ele>
        <time>2016-06-04T13:50:59.299Z</time>
      </trkpt>
      <trkpt lat="47.52767" lon="6.72788">
        <ele>341.373</ele>
        <time>2016-06-04T13:51:00.299Z</time>
      </trkpt>
      <trkpt lat="47.52767" lon="6.72788">
        <ele>341.37</ele>
        <time>2016-06-04T13:51:01.299Z</time>
      </trkpt>
      <trkpt lat="47.52767" lon="6.72788">
        <ele>341.368</ele>
        <time>2016-06-04T13:51:02.299Z</time>
      </trkpt>
      <trkpt lat="47.52767" lon="6.72788">
        <ele>341.366</ele>
        <time>2016-06-04T13:51:03.299Z</time>
      </trkpt>
      <trkpt lat="47.52767" lon="6.72788">
        <ele>341.365</ele>
        <time>2016-06-04T13:51:04.299Z</time>
      </trkpt>
      <trkpt lat="47.52767" lon="6.72788">
        <ele>341.365</ele>
        <time>2016-06-04T13:51:05.299Z</time>
      </trkpt>
      <trkpt lat="47.52767" lon="6.72788">
        <ele>341.365</ele>
        <time>2016-06-04T13:51:06.299Z</time>
      </trkpt>
      <trkpt lat="47.52767" lon="6.72788">
        <ele>341.367</ele>
        <time>2016-06-04T13:51:07.299Z</time>
      </trkpt>
      <trkpt lat="47.52767" lon="6.72788">
        <ele>341.369</ele>
        <time>2016-06-04T13:51:08.299Z</time>
      </trkpt>
      <trkpt lat="47.52767" lon="6.72788">
        <ele>341.372</ele>
        <time>2016-06-04T13:51:09.299Z</time>
      </trkpt>
      <trkpt lat="47.52767" lon="6.72788">
        <ele>341.376</ele>
        <time>2016-06-04T13:51:10.299Z</time>
      </trkpt>
      <trkpt lat="47.52767" lon="6.72788">
        <ele>341.38</ele>
        <time>2016-06-04T13:51:11.299Z</time>
      </trkpt>
      <trkpt lat="47.52767" lon="6.72788">
        <ele>341.386</ele>
        <time>2016-06-04T13:51:12.299Z</time>
      </trkpt>
      <trkpt lat="47.52767" lon="6.72788">
        <ele>341.391</ele>
        <time>2016-06-04T13:51:13.299Z</time>
      </trkpt>
      <trkpt lat="47.52767" lon="6.72788">
        <ele>341.397</ele>
        <time>2016-06-04T13:51:14.299Z</time>
      </trkpt>
      <trkpt lat="47.52767" lon="6.72787">
        <ele>341.403</ele>
        <time>2016-06-04T13:51:15.299Z</time>
      </trkpt>
      <trkpt lat="47.52767" lon="6.72787">
        <ele>341.409</ele>
        <time>2016-06-04T13:51:16.299Z</time>
      </trkpt>
      <trkpt lat="47.52767" lon="6.72787">
        <ele>341.415</ele>
        <time>2016-06-04T13:51:17.299Z</time>
      </trkpt>
      <trkpt lat="47.52767" lon="6.72787">
        <ele>341.42</ele>
        <time>2016-06-04T13:51:18.299Z</time>
      </trkpt>
      <trkpt lat="47.52767" lon="6.72787">
        <ele>341.425</ele>
        <time>2016-06-04T13:51:19.299Z</time>
      </trkpt>
      <trkpt lat="47.52767" lon="6.72787">
        <ele>341.429</ele>
        <time>2016-06-04T13:51:20.299Z</time>
      </trkpt>
      <trkpt lat="47.52767" lon="6.72787">
        <ele>341.432</ele>
        <time>2016-06-04T13:51:21.299Z</time>
      </trkpt>
      <trkpt lat="47.52767" lon="6.72787">
        <ele>341.434</ele>
        <time>2016-06-04T13:51:22.299Z</time>
      </trkpt>
      <trkpt lat="47.52767" lon="6.72787">
        <ele>341.436</ele>
        <time>2016-06-04T13:51:23.299Z</time>
      </trkpt>
      <trkpt lat="47.52767" lon="6.72787">
        <ele>341.436</ele>
        <time>2016-06-04T13:51:24.299Z</time>
      </trkpt>
      <trkpt lat="47.52767" lon="6.72787">
        <ele>341.435</ele>
        <time>2016-06-04T13:51:25.299Z</time>
      </trkpt>
      <trkpt lat="47.52767" lon="6.72787">
        <ele>341.433</ele>
        <time>2016-06-04T13:51:26.299Z</time>
      </trkpt>
      <trkpt lat="47.52767" lon="6.72787">
        <ele>341.431</ele>
        <time>2016-06-04T13:51:27.299Z</time>
      </trkpt>
      <trkpt lat="47.52767" lon="6.72787">
        <ele>341.427</ele>
        <time>2016-06-04T13:51:28.299Z</time>
      </trkpt>
      <trkpt lat="47.52767" lon="6.72787">
        <ele>341.423</ele>
        <time>2016-06-04T13:51:29.299Z</time>
      </trkpt>
      <trkpt lat="47.52767" lon="6.72787">
        <ele>341.419</ele>
        <time>2016-06-04T13:51:30.299Z</time>
      </trkpt>
      <trkpt lat="47.52767" lon="6.72787">
        <ele>341.414</ele>
        <time>2016-06-04T13:51:31.299Z</time>
      </trkpt>
      <trkpt lat="47.52767" lon="6.72787">
        <ele>341.409</ele>
        <time>2016-06-04T13:51:32.299Z</time>
      </trkpt>
      <trkpt lat="47.52767" lon="6.72787">
        <ele>341.404</ele>
        <time>2016-06-04T13:51:33.299Z</time>
      </trkpt>
      <trkpt lat="47.52767" lon="6.72787">
        <ele>341.399</ele>
        <time>2016-06-04T13:51:34.299Z</time>
      </trkpt>
      <trkpt lat="47.52767" lon="6.72787">
        <ele>341.395</ele>
        <time>2016-06-04T13:51:35.299Z</time>
      </trkpt>
      <trkpt lat="47.52767" lon="6.72787">
        <ele>341.392</ele>
        <time>2016-06-04T13:51:36.299Z</time>
      </trkpt>
      <trkpt lat="47.52767" lon="6.72787">
        <ele>341.389</ele>
        <time>2016-06-04T13:51:37.299Z</time>
      </trkpt>
      <trkpt lat="47.52767" lon="6.72787">
        <ele>341.388</ele>
        <time>2016-06-04T13:51:38.299Z</time>
      </trkpt>
      <trkpt lat="47.52767" lon="6.72787">
        <ele>341.387</ele>
        <time>2016-06-04T13:51:39.299Z</time>
      </trkpt>
      <trkpt lat="47.52767" lon="6.72787">
        <ele>341.387</ele>
        <time>2016-06-04T13:51:40.299Z</time>
      </trkpt>
      <trkpt lat="47.52767" lon="6.72787">
        <ele>341.389</ele>
        <time>2016-06-04T13:51:41.299Z</time>
      </trkpt>
      <trkpt lat="47.52767" lon="6.72787">
        <ele>341.392</ele>
        <time>2016-06-04T13:51:42.299Z</time>
      </trkpt>
      <trkpt lat="47.52767" lon="6.72787">
        <ele>341.396</ele>
        <time>2016-06-04T13:51:43.299Z</time>
      </trkpt>
      <trkpt lat="47.52767" lon="6.72787">
        <ele>341.4</ele>
        <time>2016-06-04T13:51:44.299Z</time>
      </trkpt>
      <trkpt lat="47.52767" lon="6.72787">
        <ele>341.406</ele>
        <time>2016-06-04T13:51:45.299Z</time>
      </trkpt>
      <trkpt lat="47.52767" lon="6.72787">
        <ele>341.412</ele>
        <time>2016-06-04T13:51:46.299Z</time>
      </trkpt>
      <trkpt lat="47.52767" lon="6.72787">
        <ele>341.418</ele>
        <time>2016-06-04T13:51:47.299Z</time>
      </trkpt>
      <trkpt lat="47.52767" lon="6.72787">
        <ele>341.425</ele>
        <time>2016-06-04T13:51:48.299Z</time>
      </trkpt>
      <trkpt lat="47.52767" lon="6.72787">
        <ele>341.431</ele>
        <time>2016-06-04T13:51:49.299Z</time>
      </trkpt>
      <trkpt lat="47.52767" lon="6.72787">
        <ele>341.437</ele>
        <time>2016-06-04T13:51:50.299Z</time>
      </trkpt>
      <trkpt lat="47.52767" lon="6.72787">
        <ele>341.443</ele>
        <time>2016-06-04T13:51:51.299Z</time>
      </trkpt>
      <trkpt lat="47.52767" lon="6.72787">
        <ele>341.449</ele>
        <time>2016-06-04T13:51:52.299Z</time>
      </trkpt>
      <trkpt lat="47.52767" lon="6.72787">
        <ele>341.454</ele>
        <time>2016-06-04T13:51:53.299Z</time>
      </trkpt>
      <trkpt lat="47.52767" lon="6.72787">
        <ele>341.458</ele>
        <time>2016-06-04T13:51:54.299Z</time>
      </trkpt>
      <trkpt lat="47.52767" lon="6.72787">
        <ele>341.462</ele>
        <time>2016-06-04T13:51:55.299Z</time>
      </trkpt>
      <trkpt lat="47.52767" lon="6.72787">
        <ele>341.465</ele>
        <time>2016-06-04T13:51:56.299Z</time>
      </trkpt>
      <trkpt lat="47.52767" lon="6.72787">
        <ele>341.468</ele>
        <time>2016-06-04T13:51:57.299Z</time>
      </trkpt>
      <trkpt lat="47.52767" lon="6.72787">
        <ele>341.471</ele>
        <time>2016-06-04T13:51:58.299Z</time>
      </trkpt>
      <trkpt lat="47.52767" lon="6.72787">
        <ele>341.473</ele>
        <time>2016-06-04T13:51:59.299Z</time>
      </trkpt>
      <trkpt lat="47.52767" lon="6.72787">
        <ele>341.474</ele>
        <time>2016-06-04T13:52:00.299Z</time>
      </trkpt>
      <trkpt lat="47.52767" lon="6.72787">
        <ele>341.475</ele>
        <time>2016-06-04T13:52:01.299Z</time>
      </trkpt>
      <trkpt lat="47.52767" lon="6.72787">
        <ele>341.476</ele>
        <time>2016-06-04T13:52:02.299Z</time>
      </trkpt>
      <trkpt lat="47.52767" lon="6.72787">
        <ele>341.476</ele>
        <time>2016-06-04T13:52:03.299Z</time>
      </trkpt>
      <trkpt lat="47.52767" lon="6.72787">
        <ele>341.476</ele>
        <time>2016-06-04T13:52:04.299Z</time>
      </trkpt>
      <trkpt lat="47.52767" lon="6.72787">
        <ele>341.476</ele>
        <time>2016-06-04T13:52:05.299Z</time>
      </trkpt>
      <trkpt lat="47.52767" lon="6.72787">
        <ele>341.475</ele>
        <time>2016-06-04T13:52:06.299Z</time>
      </trkpt>
      <trkpt lat="47.52767" lon="6.72787">
        <ele>341.474</ele>
        <time>2016-06-04T13:52:07.299Z</time>
      </trkpt>
      <trkpt lat="47.52767" lon="6.72787">
        <ele>341.473</ele>
        <time>2016-06-04T13:52:08.299Z</time>
      </trkpt>
      <trkpt lat="47.52767" lon="6.72787">
        <ele>341.471</ele>
        <time>2016-06-04T13:52:09.299Z</time>
      </trkpt>
      <trkpt lat="47.52767" lon="6.72787">
        <ele>341.469</ele>
        <time>2016-06-04T13:52:10.299Z</time>
      </trkpt>
      <trkpt lat="47.52767" lon="6.72787">
        <ele>341.467</ele>
        <time>2016-06-04T13:52:11.299Z</time>
      </trkpt>
      <trkpt lat="47.52767" lon="6.72787">
        <ele>341.465</ele>
        <time>2016-06-04T13:52:12.299Z</time>
      </trkpt>
      <trkpt lat="47.52767" lon="6.72787">
        <ele>341.462</ele>
        <time>2016-06-04T13:52:13.299Z</time>
      </trkpt>
      <trkpt lat="47.52767" lon="6.72787">
        <ele>341.459</ele>
        <time>2016-06-04T13:52:14.299Z</time>
      </trkpt>
      <trkpt lat="47.52767" lon="6.72787">
        <ele>341.456</ele>
        <time>2016-06-04T13:52:15.299Z</time>
      </trkpt>
      <trkpt lat="47.52767" lon="6.72787">
        <ele>341.453</ele>
        <time>2016-06-04T13:52:16.299Z</time>
      </trkpt>
      <trkpt lat="47.52767" lon="6.72787">
        <ele>341.449</ele>
        <time>2016-06-04T13:52:17.299Z</time>
      </trkpt>
      <trkpt lat="47.52767" lon="6.72787">
        <ele>341.446</ele>
        <time>2016-06-04T13:52:18.299Z</time>
      </trkpt>
      <trkpt lat="47.52767" lon="6.72787">
        <ele>341.442</ele>
        <time>2016-06-04T13:52:19.299Z</time>
      </trkpt>
      <trkpt lat="47.52767" lon="6.72787">
        <ele>341.438</ele>
        <time>2016-06-04T13:52:20.299Z</time>
      </trkpt>
      <trkpt lat="47.52767" lon="6.72787">
        <ele>341.434</ele>
        <time>2016-06-04T13:52:21.299Z</time>
      </trkpt>
      <trkpt lat="47.52767" lon="6.72787">
        <ele>341.429</ele>
        <time>2016-06-04T13:52:22.299Z</time>
      </trkpt>
      <trkpt lat="47.52767" lon="6.72787">
        <ele>341.424</ele>
        <time>2016-06-04T13:52:23.299Z</time>
      </trkpt>
      <trkpt lat="47.52767" lon="6.72787">
        <ele>341.419</ele>
        <time>2016-06-04T13:52:24.299Z</time>
      </trkpt>
      <trkpt lat="47.52767" lon="6.72787">
        <ele>341.414</ele>
        <time>2016-06-04T13:52:25.299Z</time>
      </trkpt>
      <trkpt lat="47.52767" lon="6.72787">
        <ele>341.408</ele>
        <time>2016-06-04T13:52:26.299Z</time>
      </trkpt>
      <trkpt lat="47.52767" lon="6.72787">
        <ele>341.402</ele>
        <time>2016-06-04T13:52:27.299Z</time>
      </trkpt>
      <trkpt lat="47.52767" lon="6.72787">
        <ele>341.396</ele>
        <time>2016-06-04T13:52:28.299Z</time>
      </trkpt>
      <trkpt lat="47.52767" lon="6.72787">
        <ele>341.389</ele>
        <time>2016-06-04T13:52:29.299Z</time>
      </trkpt>
      <trkpt lat="47.52767" lon="6.72787">
        <ele>341.383</ele>
        <time>2016-06-04T13:52:30.299Z</time>
      </trkpt>
      <trkpt lat="47.52767" lon="6.72787">
        <ele>341.376</ele>
        <time>2016-06-04T13:52:31.299Z</time>
      </trkpt>
      <trkpt lat="47.52767" lon="6.72787">
        <ele>341.369</ele>
        <time>2016-06-04T13:52:32.299Z</time>
      </trkpt>
      <trkpt lat="47.52767" lon="6.72787">
        <ele>341.362</ele>
        <time>2016-06-04T13:52:33.299Z</time>
      </trkpt>
      <trkpt lat="47.52767" lon="6.72787">
        <ele>341.355</ele>
        <time>2016-06-04T13:52:34.299Z</time>
      </trkpt>
      <trkpt lat="47.52767" lon="6.72787">
        <ele>341.348</ele>
        <time>2016-06-04T13:52:35.299Z</time>
      </trkpt>
      <trkpt lat="47.52767" lon="6.72787">
        <ele>341.341</ele>
        <time>2016-06-04T13:52:36.299Z</time>
      </trkpt>
      <trkpt lat="47.52767" lon="6.72787">
        <ele>341.335</ele>
        <time>2016-06-04T13:52:37.299Z</time>
      </trkpt>
      <trkpt lat="47.52767" lon="6.72787">
        <ele>341.329</ele>
        <time>2016-06-04T13:52:38.299Z</time>
      </trkpt>
      <trkpt lat="47.52767" lon="6.72787">
        <ele>341.324</ele>
        <time>2016-06-04T13:52:39.299Z</time>
      </trkpt>
      <trkpt lat="47.52767" lon="6.72787">
        <ele>341.319</ele>
        <time>2016-06-04T13:52:40.299Z</time>
      </trkpt>
      <trkpt lat="47.52767" lon="6.72787">
        <ele>341.315</ele>
        <time>2016-06-04T13:52:41.299Z</time>
      </trkpt>
      <trkpt lat="47.52767" lon="6.72787">
        <ele>341.311</ele>
        <time>2016-06-04T13:52:42.299Z</time>
      </trkpt>
      <trkpt lat="47.52767" lon="6.72787">
        <ele>341.309</ele>
        <time>2016-06-04T13:52:43.299Z</time>
      </trkpt>
      <trkpt lat="47.52767" lon="6.72787">
        <ele>341.307</ele>
        <time>2016-06-04T13:52:44.299Z</time>
      </trkpt>
      <trkpt lat="47.52767" lon="6.72787">
        <ele>341.306</ele>
        <time>2016-06-04T13:52:45.299Z</time>
      </trkpt>
      <trkpt lat="47.52767" lon="6.72787">
        <ele>341.306</ele>
        <time>2016-06-04T13:52:46.299Z</time>
      </trkpt>
      <trkpt lat="47.52767" lon="6.72787">
        <ele>341.306</ele>
        <time>2016-06-04T13:52:47.299Z</time>
      </trkpt>
      <trkpt lat="47.52767" lon="6.72787">
        <ele>341.308</ele>
        <time>2016-06-04T13:52:48.299Z</time>
      </trkpt>
      <trkpt lat="47.52767" lon="6.72787">
        <ele>341.31</ele>
        <time>2016-06-04T13:52:49.299Z</time>
      </trkpt>
      <trkpt lat="47.52767" lon="6.72787">
        <ele>341.312</ele>
        <time>2016-06-04T13:52:50.299Z</time>
      </trkpt>
      <trkpt lat="47.52767" lon="6.72787">
        <ele>341.315</ele>
        <time>2016-06-04T13:52:51.299Z</time>
      </trkpt>
      <trkpt lat="47.52767" lon="6.72787">
        <ele>341.319</ele>
        <time>2016-06-04T13:52:52.299Z</time>
      </trkpt>
      <trkpt lat="47.52767" lon="6.72787">
        <ele>341.323</ele>
        <time>2016-06-04T13:52:53.299Z</time>
      </trkpt>
      <trkpt lat="47.52767" lon="6.72787">
        <ele>341.327</ele>
        <time>2016-06-04T13:52:54.299Z</time>
      </trkpt>
      <trkpt lat="47.52767" lon="6.72787">
        <ele>341.331</ele>
        <time>2016-06-04T13:52:55.299Z</time>
      </trkpt>
      <trkpt lat="47.52767" lon="6.72787">
        <ele>341.335</ele>
        <time>2016-06-04T13:52:56.299Z</time>
      </trkpt>
      <trkpt lat="47.52767" lon="6.72787">
        <ele>341.34</ele>
        <time>2016-06-04T13:52:57.299Z</time>
      </trkpt>
      <trkpt lat="47.52767" lon="6.72787">
        <ele>341.344</ele>
        <time>2016-06-04T13:52:58.299Z</time>
      </trkpt>
      <trkpt lat="47.52767" lon="6.72787">
        <ele>341.348</ele>
        <time>2016-06-04T13:52:59.299Z</time>
      </trkpt>
      <trkpt lat="47.52767" lon="6.72787">
        <ele>341.352</ele>
        <time>2016-06-04T13:53:00.299Z</time>
      </trkpt>
      <trkpt lat="47.52767" lon="6.72787">
        <ele>341.355</ele>
        <time>2016-06-04T13:53:01.299Z</time>
      </trkpt>
      <trkpt lat="47.52767" lon="6.72787">
        <ele>341.359</ele>
        <time>2016-06-04T13:53:02.299Z</time>
      </trkpt>
      <trkpt lat="47.52767" lon="6.72787">
        <ele>341.362</ele>
        <time>2016-06-04T13:53:03.299Z</time>
      </trkpt>
      <trkpt lat="47.52767" lon="6.72787">
        <ele>341.365</ele>
        <time>2016-06-04T13:53:04.299Z</time>
      </trkpt>
      <trkpt lat="47.52767" lon="6.72787">
        <ele>341.368</ele>
        <time>2016-06-04T13:53:05.299Z</time>
      </trkpt>
      <trkpt lat="47.52767" lon="6.72787">
        <ele>341.371</ele>
        <time>2016-06-04T13:53:06.299Z</time>
      </trkpt>
      <trkpt lat="47.52767" lon="6.72787">
        <ele>341.375</ele>
        <time>2016-06-04T13:53:07.299Z</time>
      </trkpt>
      <trkpt lat="47.52767" lon="6.72787">
        <ele>341.378</ele>
        <time>2016-06-04T13:53:08.299Z</time>
      </trkpt>
      <trkpt lat="47.52767" lon="6.72787">
        <ele>341.382</ele>
        <time>2016-06-04T13:53:09.299Z</time>
      </trkpt>
      <trkpt lat="47.52767" lon="6.72787">
        <ele>341.387</ele>
        <time>2016-06-04T13:53:10.299Z</time>
      </trkpt>
      <trkpt lat="47.52767" lon="6.72787">
        <ele>341.391</ele>
        <time>2016-06-04T13:53:11.299Z</time>
      </trkpt>
      <trkpt lat="47.52767" lon="6.72787">
        <ele>341.396</ele>
        <time>2016-06-04T13:53:12.299Z</time>
      </trkpt>
      <trkpt lat="47.52767" lon="6.72787">
        <ele>341.401</ele>
        <time>2016-06-04T13:53:13.299Z</time>
      </trkpt>
      <trkpt lat="47.52767" lon="6.72787">
        <ele>341.407</ele>
        <time>2016-06-04T13:53:14.299Z</time>
      </trkpt>
      <trkpt lat="47.52767" lon="6.72787">
        <ele>341.413</ele>
        <time>2016-06-04T13:53:15.299Z</time>
      </trkpt>
      <trkpt lat="47.52767" lon="6.72787">
        <ele>341.419</ele>
        <time>2016-06-04T13:53:16.299Z</time>
      </trkpt>
      <trkpt lat="47.52767" lon="6.72787">
        <ele>341.425</ele>
        <time>2016-06-04T13:53:17.299Z</time>
      </trkpt>
      <trkpt lat="47.52767" lon="6.72787">
        <ele>341.431</ele>
        <time>2016-06-04T13:53:18.299Z</time>
      </trkpt>
      <trkpt lat="47.52767" lon="6.72787">
        <ele>341.437</ele>
        <time>2016-06-04T13:53:19.299Z</time>
      </trkpt>
      <trkpt lat="47.52767" lon="6.72787">
        <ele>341.444</ele>
        <time>2016-06-04T13:53:20.299Z</time>
      </trkpt>
      <trkpt lat="47.52767" lon="6.72787">
        <ele>341.45</ele>
        <time>2016-06-04T13:53:21.299Z</time>
      </trkpt>
      <trkpt lat="47.52767" lon="6.72787">
        <ele>341.457</ele>
        <time>2016-06-04T13:53:22.299Z</time>
      </trkpt>
      <trkpt lat="47.52767" lon="6.72787">
        <ele>341.463</ele>
        <time>2016-06-04T13:53:23.299Z</time>
      </trkpt>
      <trkpt lat="47.52767" lon="6.72787">
        <ele>341.469</ele>
        <time>2016-06-04T13:53:24.299Z</time>
      </trkpt>
      <trkpt lat="47.52767" lon="6.72787">
        <ele>341.475</ele>
        <time>2016-06-04T13:53:25.299Z</time>
      </trkpt>
      <trkpt lat="47.52767" lon="6.72787">
        <ele>341.48</ele>
        <time>2016-06-04T13:53:26.299Z</time>
      </trkpt>
      <trkpt lat="47.52767" lon="6.72787">
        <ele>341.485</ele>
        <time>2016-06-04T13:53:27.299Z</time>
      </trkpt>
      <trkpt lat="47.52767" lon="6.72787">
        <ele>341.49</ele>
        <time>2016-06-04T13:53:28.299Z</time>
      </trkpt>
      <trkpt lat="47.52767" lon="6.72787">
        <ele>341.495</ele>
        <time>2016-06-04T13:53:29.299Z</time>
      </trkpt>
      <trkpt lat="47.52767" lon="6.72787">
        <ele>341.499</ele>
        <time>2016-06-04T13:53:30.299Z</time>
      </trkpt>
      <trkpt lat="47.52767" lon="6.72787">
        <ele>341.502</ele>
        <time>2016-06-04T13:53:31.299Z</time>
      </trkpt>
      <trkpt lat="47.52767" lon="6.72787">
        <ele>341.506</ele>
        <time>2016-06-04T13:53:32.299Z</time>
      </trkpt>
      <trkpt lat="47.52767" lon="6.72787">
        <ele>341.508</ele>
        <time>2016-06-04T13:53:33.299Z</time>
      </trkpt>
      <trkpt lat="47.52767" lon="6.72787">
        <ele>341.511</ele>
        <time>2016-06-04T13:53:34.299Z</time>
      </trkpt>
      <trkpt lat="47.52767" lon="6.72787">
        <ele>341.513</ele>
        <time>2016-06-04T13:53:35.299Z</time>
      </trkpt>
      <trkpt lat="47.52767" lon="6.72787">
        <ele>341.515</ele>
        <time>2016-06-04T13:53:36.299Z</time>
      </trkpt>
      <trkpt lat="47.52767" lon="6.72787">
        <ele>341.516</ele>
        <time>2016-06-04T13:53:37.299Z</time>
      </trkpt>
      <trkpt lat="47.52767" lon="6.72787">
        <ele>341.517</ele>
        <time>2016-06-04T13:53:38.299Z</time>
      </trkpt>
      <trkpt lat="47.52767" lon="6.72787">
        <ele>341.518</ele>
        <time>2016-06-04T13:53:39.299Z</time>
      </trkpt>
      <trkpt lat="47.52767" lon="6.72787">
        <ele>341.519</ele>
        <time>2016-06-04T13:53:40.299Z</time>
      </trkpt>
      <trkpt lat="47.52767" lon="6.72787">
        <ele>341.52</ele>
        <time>2016-06-04T13:53:41.299Z</time>
      </trkpt>
      <trkpt lat="47.52767" lon="6.72787">
        <ele>341.521</ele>
        <time>2016-06-04T13:53:42.299Z</time>
      </trkpt>
      <trkpt lat="47.52767" lon="6.72787">
        <ele>341.521</ele>
        <time>2016-06-04T13:53:43.299Z</time>
      </trkpt>
      <trkpt lat="47.52767" lon="6.72787">
        <ele>341.522</ele>
        <time>2016-06-04T13:53:44.299Z</time>
      </trkpt>
      <trkpt lat="47.52767" lon="6.72787">
        <ele>341.523</ele>
        <time>2016-06-04T13:53:45.299Z</time>
      </trkpt>
      <trkpt lat="47.52767" lon="6.72787">
        <ele>341.524</ele>
        <time>2016-06-04T13:53:46.299Z</time>
      </trkpt>
      <trkpt lat="47.52767" lon="6.72787">
        <ele>341.525</ele>
        <time>2016-06-04T13:53:47.299Z</time>
      </trkpt>
      <trkpt lat="47.52767" lon="6.72787">
        <ele>341.527</ele>
        <time>2016-06-04T13:53:48.299Z</time>
      </trkpt>
      <trkpt lat="47.52767" lon="6.72787">
        <ele>341.528</ele>
        <time>2016-06-04T13:53:49.299Z</time>
      </trkpt>
      <trkpt lat="47.52767" lon="6.72787">
        <ele>341.53</ele>
        <time>2016-06-04T13:53:50.299Z</time>
      </trkpt>
      <trkpt lat="47.52767" lon="6.72787">
        <ele>341.533</ele>
        <time>2016-06-04T13:53:51.299Z</time>
      </trkpt>
      <trkpt lat="47.52767" lon="6.72787">
        <ele>341.536</ele>
        <time>2016-06-04T13:53:52.299Z</time>
      </trkpt>
      <trkpt lat="47.52767" lon="6.72787">
        <ele>341.539</ele>
        <time>2016-06-04T13:53:53.299Z</time>
      </trkpt>
      <trkpt lat="47.52767" lon="6.72787">
        <ele>341.543</ele>
        <time>2016-06-04T13:53:54.299Z</time>
      </trkpt>
      <trkpt lat="47.52768" lon="6.72787">
        <ele>341.548</ele>
        <time>2016-06-04T13:53:55.299Z</time>
      </trkpt>
      <trkpt lat="47.52768" lon="6.72787">
        <ele>341.554</ele>
        <time>2016-06-04T13:53:56.299Z</time>
      </trkpt>
      <trkpt lat="47.52768" lon="6.72787">
        <ele>341.56</ele>
        <time>2016-06-04T13:53:57.299Z</time>
      </trkpt>
      <trkpt lat="47.52768" lon="6.72787">
        <ele>341.567</ele>
        <time>2016-06-04T13:53:58.299Z</time>
      </trkpt>
      <trkpt lat="47.52768" lon="6.72787">
        <ele>341.574</ele>
        <time>2016-06-04T13:53:59.299Z</time>
      </trkpt>
      <trkpt lat="47.52767" lon="6.72787">
        <ele>341.582</ele>
        <time>2016-06-04T13:54:00.299Z</time>
      </trkpt>
      <trkpt lat="47.52767" lon="6.72787">
        <ele>341.591</ele>
        <time>2016-06-04T13:54:01.299Z</time>
      </trkpt>
      <trkpt lat="47.52767" lon="6.72787">
        <ele>341.6</ele>
        <time>2016-06-04T13:54:02.299Z</time>
      </trkpt>
      <trkpt lat="47.52767" lon="6.72787">
        <ele>341.61</ele>
        <time>2016-06-04T13:54:03.299Z</time>
      </trkpt>
      <trkpt lat="47.52767" lon="6.72787">
        <ele>341.619</ele>
        <time>2016-06-04T13:54:04.299Z</time>
      </trkpt>
      <trkpt lat="47.52767" lon="6.72787">
        <ele>341.629</ele>
        <time>2016-06-04T13:54:05.299Z</time>
      </trkpt>
      <trkpt lat="47.52767" lon="6.72787">
        <ele>341.64</ele>
        <time>2016-06-04T13:54:06.299Z</time>
      </trkpt>
      <trkpt lat="47.52767" lon="6.72787">
        <ele>341.65</ele>
        <time>2016-06-04T13:54:07.299Z</time>
      </trkpt>
      <trkpt lat="47.52767" lon="6.72787">
        <ele>341.66</ele>
        <time>2016-06-04T13:54:08.299Z</time>
      </trkpt>
      <trkpt lat="47.52767" lon="6.72787">
        <ele>341.67</ele>
        <time>2016-06-04T13:54:09.299Z</time>
      </trkpt>
      <trkpt lat="47.52767" lon="6.72787">
        <ele>341.68</ele>
        <time>2016-06-04T13:54:10.299Z</time>
      </trkpt>
      <trkpt lat="47.52767" lon="6.72787">
        <ele>341.69</ele>
        <time>2016-06-04T13:54:11.299Z</time>
      </trkpt>
      <trkpt lat="47.52767" lon="6.72787">
        <ele>341.699</ele>
        <time>2016-06-04T13:54:12.299Z</time>
      </trkpt>
      <trkpt lat="47.52767" lon="6.72787">
        <ele>341.709</ele>
        <time>2016-06-04T13:54:13.299Z</time>
      </trkpt>
      <trkpt lat="47.52767" lon="6.72787">
        <ele>341.718</ele>
        <time>2016-06-04T13:54:14.299Z</time>
      </trkpt>
      <trkpt lat="47.52767" lon="6.72787">
        <ele>341.728</ele>
        <time>2016-06-04T13:54:15.299Z</time>
      </trkpt>
      <trkpt lat="47.52767" lon="6.72787">
        <ele>341.737</ele>
        <time>2016-06-04T13:54:16.299Z</time>
      </trkpt>
      <trkpt lat="47.52767" lon="6.72787">
        <ele>341.746</ele>
        <time>2016-06-04T13:54:17.299Z</time>
      </trkpt>
      <trkpt lat="47.52767" lon="6.72787">
        <ele>341.756</ele>
        <time>2016-06-04T13:54:18.299Z</time>
      </trkpt>
      <trkpt lat="47.52767" lon="6.72787">
        <ele>341.765</ele>
        <time>2016-06-04T13:54:19.299Z</time>
      </trkpt>
      <trkpt lat="47.52767" lon="6.72787">
        <ele>341.774</ele>
        <time>2016-06-04T13:54:20.299Z</time>
      </trkpt>
      <trkpt lat="47.52767" lon="6.72787">
        <ele>341.783</ele>
        <time>2016-06-04T13:54:21.299Z</time>
      </trkpt>
      <trkpt lat="47.52767" lon="6.72787">
        <ele>341.792</ele>
        <time>2016-06-04T13:54:22.299Z</time>
      </trkpt>
      <trkpt lat="47.52767" lon="6.72787">
        <ele>341.8</ele>
        <time>2016-06-04T13:54:23.299Z</time>
      </trkpt>
      <trkpt lat="47.52767" lon="6.72787">
        <ele>341.809</ele>
        <time>2016-06-04T13:54:24.299Z</time>
      </trkpt>
      <trkpt lat="47.52767" lon="6.72787">
        <ele>341.816</ele>
        <time>2016-06-04T13:54:25.299Z</time>
      </trkpt>
      <trkpt lat="47.52767" lon="6.72787">
        <ele>341.823</ele>
        <time>2016-06-04T13:54:26.299Z</time>
      </trkpt>
      <trkpt lat="47.52767" lon="6.72787">
        <ele>341.83</ele>
        <time>2016-06-04T13:54:27.299Z</time>
      </trkpt>
      <trkpt lat="47.52767" lon="6.72787">
        <ele>341.835</ele>
        <time>2016-06-04T13:54:28.299Z</time>
      </trkpt>
      <trkpt lat="47.52767" lon="6.72787">
        <ele>341.84</ele>
        <time>2016-06-04T13:54:29.299Z</time>
      </trkpt>
      <trkpt lat="47.52767" lon="6.72787">
        <ele>341.843</ele>
        <time>2016-06-04T13:54:30.299Z</time>
      </trkpt>
      <trkpt lat="47.52767" lon="6.72787">
        <ele>341.846</ele>
        <time>2016-06-04T13:54:31.299Z</time>
      </trkpt>
      <trkpt lat="47.52767" lon="6.72787">
        <ele>341.848</ele>
        <time>2016-06-04T13:54:32.299Z</time>
      </trkpt>
      <trkpt lat="47.52767" lon="6.72787">
        <ele>341.848</ele>
        <time>2016-06-04T13:54:33.299Z</time>
      </trkpt>
      <trkpt lat="47.52767" lon="6.72787">
        <ele>341.848</ele>
        <time>2016-06-04T13:54:34.299Z</time>
      </trkpt>
      <trkpt lat="47.52767" lon="6.72787">
        <ele>341.847</ele>
        <time>2016-06-04T13:54:35.299Z</time>
      </trkpt>
      <trkpt lat="47.52767" lon="6.72787">
        <ele>341.845</ele>
        <time>2016-06-04T13:54:36.299Z</time>
      </trkpt>
      <trkpt lat="47.52767" lon="6.72787">
        <ele>341.842</ele>
        <time>2016-06-04T13:54:37.299Z</time>
      </trkpt>
      <trkpt lat="47.52767" lon="6.72787">
        <ele>341.839</ele>
        <time>2016-06-04T13:54:38.299Z</time>
      </trkpt>
      <trkpt lat="47.52767" lon="6.72787">
        <ele>341.836</ele>
        <time>2016-06-04T13:54:39.299Z</time>
      </trkpt>
      <trkpt lat="47.52767" lon="6.72787">
        <ele>341.832</ele>
        <time>2016-06-04T13:54:40.299Z</time>
      </trkpt>
      <trkpt lat="47.52767" lon="6.72787">
        <ele>341.829</ele>
        <time>2016-06-04T13:54:41.299Z</time>
      </trkpt>
      <trkpt lat="47.52767" lon="6.72787">
        <ele>341.825</ele>
        <time>2016-06-04T13:54:42.299Z</time>
      </trkpt>
      <trkpt lat="47.52767" lon="6.72787">
        <ele>341.822</ele>
        <time>2016-06-04T13:54:43.299Z</time>
      </trkpt>
      <trkpt lat="47.52767" lon="6.72787">
        <ele>341.82</ele>
        <time>2016-06-04T13:54:44.299Z</time>
      </trkpt>
      <trkpt lat="47.52767" lon="6.72787">
        <ele>341.817</ele>
        <time>2016-06-04T13:54:45.299Z</time>
      </trkpt>
      <trkpt lat="47.52767" lon="6.72787">
        <ele>341.815</ele>
        <time>2016-06-04T13:54:46.299Z</time>
      </trkpt>
      <trkpt lat="47.52767" lon="6.72787">
        <ele>341.814</ele>
        <time>2016-06-04T13:54:47.299Z</time>
      </trkpt>
      <trkpt lat="47.52767" lon="6.72787">
        <ele>341.814</ele>
        <time>2016-06-04T13:54:48.299Z</time>
      </trkpt>
      <trkpt lat="47.52767" lon="6.72787">
        <ele>341.814</ele>
        <time>2016-06-04T13:54:49.299Z</time>
      </trkpt>
      <trkpt lat="47.52767" lon="6.72787">
        <ele>341.814</ele>
        <time>2016-06-04T13:54:50.299Z</time>
      </trkpt>
      <trkpt lat="47.52767" lon="6.72787">
        <ele>341.815</ele>
        <time>2016-06-04T13:54:51.299Z</time>
      </trkpt>
      <trkpt lat="47.52767" lon="6.72787">
        <ele>341.816</ele>
        <time>2016-06-04T13:54:52.299Z</time>
      </trkpt>
      <trkpt lat="47.52767" lon="6.72787">
        <ele>341.817</ele>
        <time>2016-06-04T13:54:53.299Z</time>
      </trkpt>
      <trkpt lat="47.52767" lon="6.72787">
        <ele>341.819</ele>
        <time>2016-06-04T13:54:54.299Z</time>
      </trkpt>
      <trkpt lat="47.52767" lon="6.72787">
        <ele>341.82</ele>
        <time>2016-06-04T13:54:55.299Z</time>
      </trkpt>
      <trkpt lat="47.52767" lon="6.72787">
        <ele>341.822</ele>
        <time>2016-06-04T13:54:56.299Z</time>
      </trkpt>
      <trkpt lat="47.52767" lon="6.72787">
        <ele>341.823</ele>
        <time>2016-06-04T13:54:57.299Z</time>
      </trkpt>
      <trkpt lat="47.52767" lon="6.72787">
        <ele>341.824</ele>
        <time>2016-06-04T13:54:58.299Z</time>
      </trkpt>
      <trkpt lat="47.52767" lon="6.72787">
        <ele>341.825</ele>
        <time>2016-06-04T13:54:59.299Z</time>
      </trkpt>
      <trkpt lat="47.52767" lon="6.72787">
        <ele>341.826</ele>
        <time>2016-06-04T13:55:00.299Z</time>
      </trkpt>
      <trkpt lat="47.52767" lon="6.72787">
        <ele>341.826</ele>
        <time>2016-06-04T13:55:01.299Z</time>
      </trkpt>
      <trkpt lat="47.52767" lon="6.72787">
        <ele>341.825</ele>
        <time>2016-06-04T13:55:02.299Z</time>
      </trkpt>
      <trkpt lat="47.52767" lon="6.72787">
        <ele>341.824</ele>
        <time>2016-06-04T13:55:03.299Z</time>
      </trkpt>
      <trkpt lat="47.52767" lon="6.72787">
        <ele>341.822</ele>
        <time>2016-06-04T13:55:04.299Z</time>
      </trkpt>
      <trkpt lat="47.52767" lon="6.72787">
        <ele>341.82</ele>
        <time>2016-06-04T13:55:05.299Z</time>
      </trkpt>
      <trkpt lat="47.52767" lon="6.72787">
        <ele>341.816</ele>
        <time>2016-06-04T13:55:06.299Z</time>
      </trkpt>
      <trkpt lat="47.52767" lon="6.72787">
        <ele>341.812</ele>
        <time>2016-06-04T13:55:07.299Z</time>
      </trkpt>
      <trkpt lat="47.52767" lon="6.72787">
        <ele>341.808</ele>
        <time>2016-06-04T13:55:08.299Z</time>
      </trkpt>
      <trkpt lat="47.52767" lon="6.72787">
        <ele>341.803</ele>
        <time>2016-06-04T13:55:09.299Z</time>
      </trkpt>
      <trkpt lat="47.52767" lon="6.72787">
        <ele>341.797</ele>
        <time>2016-06-04T13:55:10.299Z</time>
      </trkpt>
      <trkpt lat="47.52767" lon="6.72787">
        <ele>341.792</ele>
        <time>2016-06-04T13:55:11.299Z</time>
      </trkpt>
      <trkpt lat="47.52767" lon="6.72787">
        <ele>341.787</ele>
        <time>2016-06-04T13:55:12.299Z</time>
      </trkpt>
      <trkpt lat="47.52768" lon="6.72787">
        <ele>341.782</ele>
        <time>2016-06-04T13:55:13.299Z</time>
      </trkpt>
      <trkpt lat="47.52768" lon="6.72787">
        <ele>341.777</ele>
        <time>2016-06-04T13:55:14.299Z</time>
      </trkpt>
      <trkpt lat="47.52768" lon="6.72787">
        <ele>341.773</ele>
        <time>2016-06-04T13:55:15.299Z</time>
      </trkpt>
      <trkpt lat="47.52768" lon="6.72787">
        <ele>341.77</ele>
        <time>2016-06-04T13:55:16.299Z</time>
      </trkpt>
      <trkpt lat="47.52768" lon="6.72787">
        <ele>341.767</ele>
        <time>2016-06-04T13:55:17.299Z</time>
      </trkpt>
      <trkpt lat="47.52768" lon="6.72787">
        <ele>341.765</ele>
        <time>2016-06-04T13:55:18.299Z</time>
      </trkpt>
      <trkpt lat="47.52768" lon="6.72787">
        <ele>341.764</ele>
        <time>2016-06-04T13:55:19.299Z</time>
      </trkpt>
      <trkpt lat="47.52768" lon="6.72787">
        <ele>341.763</ele>
        <time>2016-06-04T13:55:20.299Z</time>
      </trkpt>
      <trkpt lat="47.52768" lon="6.72787">
        <ele>341.764</ele>
        <time>2016-06-04T13:55:21.299Z</time>
      </trkpt>
      <trkpt lat="47.52768" lon="6.72787">
        <ele>341.764</ele>
        <time>2016-06-04T13:55:22.299Z</time>
      </trkpt>
      <trkpt lat="47.52768" lon="6.72787">
        <ele>341.765</ele>
        <time>2016-06-04T13:55:23.299Z</time>
      </trkpt>
      <trkpt lat="47.52768" lon="6.72787">
        <ele>341.767</ele>
        <time>2016-06-04T13:55:24.299Z</time>
      </trkpt>
      <trkpt lat="47.52768" lon="6.72787">
        <ele>341.768</ele>
        <time>2016-06-04T13:55:25.299Z</time>
      </trkpt>
      <trkpt lat="47.52768" lon="6.72787">
        <ele>341.77</ele>
        <time>2016-06-04T13:55:26.299Z</time>
      </trkpt>
      <trkpt lat="47.52768" lon="6.72787">
        <ele>341.772</ele>
        <time>2016-06-04T13:55:27.299Z</time>
      </trkpt>
      <trkpt lat="47.52768" lon="6.72787">
        <ele>341.773</ele>
        <time>2016-06-04T13:55:28.299Z</time>
      </trkpt>
      <trkpt lat="47.52768" lon="6.72787">
        <ele>341.774</ele>
        <time>2016-06-04T13:55:29.299Z</time>
      </trkpt>
      <trkpt lat="47.52768" lon="6.72787">
        <ele>341.774</ele>
        <time>2016-06-04T13:55:30.299Z</time>
      </trkpt>
      <trkpt lat="47.52768" lon="6.72787">
        <ele>341.775</ele>
        <time>2016-06-04T13:55:31.299Z</time>
      </trkpt>
      <trkpt lat="47.52768" lon="6.72787">
        <ele>341.774</ele>
        <time>2016-06-04T13:55:32.299Z</time>
      </trkpt>
      <trkpt lat="47.52768" lon="6.72787">
        <ele>341.773</ele>
        <time>2016-06-04T13:55:33.299Z</time>
      </trkpt>
      <trkpt lat="47.52768" lon="6.72787">
        <ele>341.772</ele>
        <time>2016-06-04T13:55:34.299Z</time>
      </trkpt>
      <trkpt lat="47.52768" lon="6.72787">
        <ele>341.77</ele>
        <time>2016-06-04T13:55:35.299Z</time>
      </trkpt>
      <trkpt lat="47.52768" lon="6.72787">
        <ele>341.767</ele>
        <time>2016-06-04T13:55:36.299Z</time>
      </trkpt>
      <trkpt lat="47.52768" lon="6.72787">
        <ele>341.765</ele>
        <time>2016-06-04T13:55:37.299Z</time>
      </trkpt>
      <trkpt lat="47.52768" lon="6.72787">
        <ele>341.761</ele>
        <time>2016-06-04T13:55:38.299Z</time>
      </trkpt>
      <trkpt lat="47.52768" lon="6.72787">
        <ele>341.758</ele>
        <time>2016-06-04T13:55:39.299Z</time>
      </trkpt>
      <trkpt lat="47.52768" lon="6.72787">
        <ele>341.754</ele>
        <time>2016-06-04T13:55:40.299Z</time>
      </trkpt>
      <trkpt lat="47.52768" lon="6.72787">
        <ele>341.751</ele>
        <time>2016-06-04T13:55:41.299Z</time>
      </trkpt>
      <trkpt lat="47.52768" lon="6.72787">
        <ele>341.747</ele>
        <time>2016-06-04T13:55:42.299Z</time>
      </trkpt>
      <trkpt lat="47.52768" lon="6.72787">
        <ele>341.743</ele>
        <time>2016-06-04T13:55:43.299Z</time>
      </trkpt>
      <trkpt lat="47.52768" lon="6.72787">
        <ele>341.739</ele>
        <time>2016-06-04T13:55:44.299Z</time>
      </trkpt>
      <trkpt lat="47.52768" lon="6.72787">
        <ele>341.736</ele>
        <time>2016-06-04T13:55:45.299Z</time>
      </trkpt>
      <trkpt lat="47.52768" lon="6.72787">
        <ele>341.732</ele>
        <time>2016-06-04T13:55:46.299Z</time>
      </trkpt>
      <trkpt lat="47.52768" lon="6.72787">
        <ele>341.729</ele>
        <time>2016-06-04T13:55:47.299Z</time>
      </trkpt>
      <trkpt lat="47.52768" lon="6.72787">
        <ele>341.727</ele>
        <time>2016-06-04T13:55:48.299Z</time>
      </trkpt>
      <trkpt lat="47.52768" lon="6.72787">
        <ele>341.725</ele>
        <time>2016-06-04T13:55:49.299Z</time>
      </trkpt>
      <trkpt lat="47.52768" lon="6.72787">
        <ele>341.723</ele>
        <time>2016-06-04T13:55:50.299Z</time>
      </trkpt>
      <trkpt lat="47.52768" lon="6.72787">
        <ele>341.722</ele>
        <time>2016-06-04T13:55:51.299Z</time>
      </trkpt>
      <trkpt lat="47.52768" lon="6.72787">
        <ele>341.722</ele>
        <time>2016-06-04T13:55:52.299Z</time>
      </trkpt>
      <trkpt lat="47.52768" lon="6.72787">
        <ele>341.722</ele>
        <time>2016-06-04T13:55:53.299Z</time>
      </trkpt>
      <trkpt lat="47.52768" lon="6.72787">
        <ele>341.723</ele>
        <time>2016-06-04T13:55:54.299Z</time>
      </trkpt>
      <trkpt lat="47.52768" lon="6.72787">
        <ele>341.724</ele>
        <time>2016-06-04T13:55:55.299Z</time>
      </trkpt>
      <trkpt lat="47.52768" lon="6.72787">
        <ele>341.726</ele>
        <time>2016-06-04T13:55:56.299Z</time>
      </trkpt>
      <trkpt lat="47.52768" lon="6.72787">
        <ele>341.729</ele>
        <time>2016-06-04T13:55:57.299Z</time>
      </trkpt>
      <trkpt lat="47.52768" lon="6.72787">
        <ele>341.731</ele>
        <time>2016-06-04T13:55:58.299Z</time>
      </trkpt>
      <trkpt lat="47.52768" lon="6.72787">
        <ele>341.735</ele>
        <time>2016-06-04T13:55:59.299Z</time>
      </trkpt>
      <trkpt lat="47.52768" lon="6.72787">
        <ele>341.738</ele>
        <time>2016-06-04T13:56:00.299Z</time>
      </trkpt>
      <trkpt lat="47.52768" lon="6.72787">
        <ele>341.742</ele>
        <time>2016-06-04T13:56:01.299Z</time>
      </trkpt>
      <trkpt lat="47.52768" lon="6.72787">
        <ele>341.745</ele>
        <time>2016-06-04T13:56:02.299Z</time>
      </trkpt>
      <trkpt lat="47.52768" lon="6.72787">
        <ele>341.749</ele>
        <time>2016-06-04T13:56:03.299Z</time>
      </trkpt>
      <trkpt lat="47.52768" lon="6.72787">
        <ele>341.752</ele>
        <time>2016-06-04T13:56:04.299Z</time>
      </trkpt>
      <trkpt lat="47.52768" lon="6.72787">
        <ele>341.754</ele>
        <time>2016-06-04T13:56:05.299Z</time>
      </trkpt>
      <trkpt lat="47.52768" lon="6.72787">
        <ele>341.756</ele>
        <time>2016-06-04T13:56:06.299Z</time>
      </trkpt>
      <trkpt lat="47.52768" lon="6.72787">
        <ele>341.756</ele>
        <time>2016-06-04T13:56:07.299Z</time>
      </trkpt>
      <trkpt lat="47.52768" lon="6.72787">
        <ele>341.756</ele>
        <time>2016-06-04T13:56:08.299Z</time>
      </trkpt>
      <trkpt lat="47.52768" lon="6.72787">
        <ele>341.753</ele>
        <time>2016-06-04T13:56:09.299Z</time>
      </trkpt>
      <trkpt lat="47.52768" lon="6.72787">
        <ele>341.749</ele>
        <time>2016-06-04T13:56:10.299Z</time>
      </trkpt>
      <trkpt lat="47.52768" lon="6.72787">
        <ele>341.743</ele>
        <time>2016-06-04T13:56:11.299Z</time>
      </trkpt>
      <trkpt lat="47.52768" lon="6.72787">
        <ele>341.734</ele>
        <time>2016-06-04T13:56:12.299Z</time>
      </trkpt>
      <trkpt lat="47.52768" lon="6.72787">
        <ele>341.723</ele>
        <time>2016-06-04T13:56:13.299Z</time>
      </trkpt>
      <trkpt lat="47.52768" lon="6.72787">
        <ele>341.709</ele>
        <time>2016-06-04T13:56:14.299Z</time>
      </trkpt>
      <trkpt lat="47.52768" lon="6.72787">
        <ele>341.692</ele>
        <time>2016-06-04T13:56:15.299Z</time>
      </trkpt>
      <trkpt lat="47.52768" lon="6.72787">
        <ele>341.673</ele>
        <time>2016-06-04T13:56:16.299Z</time>
      </trkpt>
      <trkpt lat="47.52768" lon="6.72787">
        <ele>341.65</ele>
        <time>2016-06-04T13:56:17.299Z</time>
      </trkpt>
      <trkpt lat="47.52768" lon="6.72787">
        <ele>341.625</ele>
        <time>2016-06-04T13:56:18.299Z</time>
      </trkpt>
      <trkpt lat="47.52768" lon="6.72787">
        <ele>341.598</ele>
        <time>2016-06-04T13:56:19.299Z</time>
      </trkpt>
      <trkpt lat="47.52768" lon="6.72787">
        <ele>341.57</ele>
        <time>2016-06-04T13:56:20.299Z</time>
      </trkpt>
      <trkpt lat="47.52769" lon="6.72787">
        <ele>341.542</ele>
        <time>2016-06-04T13:56:21.299Z</time>
      </trkpt>
      <trkpt lat="47.52769" lon="6.72787">
        <ele>341.515</ele>
        <time>2016-06-04T13:56:22.299Z</time>
      </trkpt>
      <trkpt lat="47.52769" lon="6.72787">
        <ele>341.492</ele>
        <time>2016-06-04T13:56:23.299Z</time>
      </trkpt>
      <trkpt lat="47.52769" lon="6.72787">
        <ele>341.473</ele>
        <time>2016-06-04T13:56:24.299Z</time>
      </trkpt>
      <trkpt lat="47.52769" lon="6.72787">
        <ele>341.46</ele>
        <time>2016-06-04T13:56:25.299Z</time>
      </trkpt>
      <trkpt lat="47.52769" lon="6.72787">
        <ele>341.456</ele>
        <time>2016-06-04T13:56:26.299Z</time>
      </trkpt>
      <trkpt lat="47.52769" lon="6.72787">
        <ele>341.46</ele>
        <time>2016-06-04T13:56:27.299Z</time>
      </trkpt>
      <trkpt lat="47.52769" lon="6.72787">
        <ele>341.476</ele>
        <time>2016-06-04T13:56:28.299Z</time>
      </trkpt>
      <trkpt lat="47.5277" lon="6.72787">
        <ele>341.504</ele>
        <time>2016-06-04T13:56:29.299Z</time>
      </trkpt>
      <trkpt lat="47.52771" lon="6.72787">
        <ele>341.547</ele>
        <time>2016-06-04T13:56:30.299Z</time>
      </trkpt>
      <trkpt lat="47.52773" lon="6.72788">
        <ele>341.604</ele>
        <time>2016-06-04T13:56:31.299Z</time>
      </trkpt>
      <trkpt lat="47.52775" lon="6.72788">
        <ele>341.677</ele>
        <time>2016-06-04T13:56:32.299Z</time>
      </trkpt>
      <trkpt lat="47.52777" lon="6.72788">
        <ele>341.763</ele>
        <time>2016-06-04T13:56:33.299Z</time>
      </trkpt>
      <trkpt lat="47.52779" lon="6.72787">
        <ele>341.861</ele>
        <time>2016-06-04T13:56:34.299Z</time>
      </trkpt>
      <trkpt lat="47.52782" lon="6.72786">
        <ele>341.967</ele>
        <time>2016-06-04T13:56:35.299Z</time>
      </trkpt>
      <trkpt lat="47.52785" lon="6.72784">
        <ele>342.079</ele>
        <time>2016-06-04T13:56:36.299Z</time>
      </trkpt>
      <trkpt lat="47.52788" lon="6.72782">
        <ele>342.191</ele>
        <time>2016-06-04T13:56:37.299Z</time>
      </trkpt>
      <trkpt lat="47.52791" lon="6.72779">
        <ele>342.297</ele>
        <time>2016-06-04T13:56:38.299Z</time>
      </trkpt>
      <trkpt lat="47.52794" lon="6.72776">
        <ele>342.394</ele>
        <time>2016-06-04T13:56:39.299Z</time>
      </trkpt>
      <trkpt lat="47.52797" lon="6.72773">
        <ele>342.475</ele>
        <time>2016-06-04T13:56:40.299Z</time>
      </trkpt>
      <trkpt lat="47.528" lon="6.7277">
        <ele>342.535</ele>
        <time>2016-06-04T13:56:41.299Z</time>
      </trkpt>
      <trkpt lat="47.52803" lon="6.72767">
        <ele>342.57</ele>
        <time>2016-06-04T13:56:42.299Z</time>
      </trkpt>
      <trkpt lat="47.52807" lon="6.72763">
        <ele>342.578</ele>
        <time>2016-06-04T13:56:43.299Z</time>
      </trkpt>
      <trkpt lat="47.52811" lon="6.72761">
        <ele>342.556</ele>
        <time>2016-06-04T13:56:44.299Z</time>
      </trkpt>
      <trkpt lat="47.52815" lon="6.72758">
        <ele>342.506</ele>
        <time>2016-06-04T13:56:45.299Z</time>
      </trkpt>
      <trkpt lat="47.5282" lon="6.72756">
        <ele>342.428</ele>
        <time>2016-06-04T13:56:46.299Z</time>
      </trkpt>
      <trkpt lat="47.52824" lon="6.72756">
        <ele>342.325</ele>
        <time>2016-06-04T13:56:47.299Z</time>
      </trkpt>
      <trkpt lat="47.52829" lon="6.72756">
        <ele>342.199</ele>
        <time>2016-06-04T13:56:48.299Z</time>
      </trkpt>
      <trkpt lat="47.52834" lon="6.72757">
        <ele>342.052</ele>
        <time>2016-06-04T13:56:49.299Z</time>
      </trkpt>
      <trkpt lat="47.52839" lon="6.72759">
        <ele>341.89</ele>
        <time>2016-06-04T13:56:50.299Z</time>
      </trkpt>
      <trkpt lat="47.52843" lon="6.72761">
        <ele>341.715</ele>
        <time>2016-06-04T13:56:51.299Z</time>
      </trkpt>
      <trkpt lat="47.52848" lon="6.72763">
        <ele>341.533</ele>
        <time>2016-06-04T13:56:52.299Z</time>
      </trkpt>
      <trkpt lat="47.52852" lon="6.72766">
        <ele>341.348</ele>
        <time>2016-06-04T13:56:53.299Z</time>
      </trkpt>
      <trkpt lat="47.52857" lon="6.72769">
        <ele>341.164</ele>
        <time>2016-06-04T13:56:54.299Z</time>
      </trkpt>
      <trkpt lat="47.52861" lon="6.72772">
        <ele>340.985</ele>
        <time>2016-06-04T13:56:55.299Z</time>
      </trkpt>
      <trkpt lat="47.52865" lon="6.72776">
        <ele>340.817</ele>
        <time>2016-06-04T13:56:56.299Z</time>
      </trkpt>
      <trkpt lat="47.52869" lon="6.72779">
        <ele>340.664</ele>
        <time>2016-06-04T13:56:57.299Z</time>
      </trkpt>
      <trkpt lat="47.52873" lon="6.72783">
        <ele>340.529</ele>
        <time>2016-06-04T13:56:58.299Z</time>
      </trkpt>
      <trkpt lat="47.52877" lon="6.72787">
        <ele>340.415</ele>
        <time>2016-06-04T13:56:59.299Z</time>
      </trkpt>
      <trkpt lat="47.52881" lon="6.7279">
        <ele>340.321</ele>
        <time>2016-06-04T13:57:00.299Z</time>
      </trkpt>
      <trkpt lat="47.52885" lon="6.72793">
        <ele>340.247</ele>
        <time>2016-06-04T13:57:01.299Z</time>
      </trkpt>
      <trkpt lat="47.52889" lon="6.72795">
        <ele>340.19</ele>
        <time>2016-06-04T13:57:02.299Z</time>
      </trkpt>
      <trkpt lat="47.52893" lon="6.72797">
        <ele>340.148</ele>
        <time>2016-06-04T13:57:03.299Z</time>
      </trkpt>
      <trkpt lat="47.52897" lon="6.72799">
        <ele>340.118</ele>
        <time>2016-06-04T13:57:04.299Z</time>
      </trkpt>
      <trkpt lat="47.52901" lon="6.728">
        <ele>340.096</ele>
        <time>2016-06-04T13:57:05.299Z</time>
      </trkpt>
      <trkpt lat="47.52905" lon="6.72801">
        <ele>340.08</ele>
        <time>2016-06-04T13:57:06.299Z</time>
      </trkpt>
      <trkpt lat="47.52909" lon="6.72802">
        <ele>340.067</ele>
        <time>2016-06-04T13:57:07.299Z</time>
      </trkpt>
      <trkpt lat="47.52913" lon="6.72802">
        <ele>340.055</ele>
        <time>2016-06-04T13:57:08.299Z</time>
      </trkpt>
      <trkpt lat="47.52917" lon="6.72802">
        <ele>340.044</ele>
        <time>2016-06-04T13:57:09.299Z</time>
      </trkpt>
      <trkpt lat="47.52921" lon="6.72802">
        <ele>340.032</ele>
        <time>2016-06-04T13:57:10.299Z</time>
      </trkpt>
      <trkpt lat="47.52925" lon="6.72801">
        <ele>340.02</ele>
        <time>2016-06-04T13:57:11.299Z</time>
      </trkpt>
      <trkpt lat="47.5293" lon="6.728">
        <ele>340.007</ele>
        <time>2016-06-04T13:57:12.299Z</time>
      </trkpt>
      <trkpt lat="47.52934" lon="6.72799">
        <ele>339.994</ele>
        <time>2016-06-04T13:57:13.299Z</time>
      </trkpt>
      <trkpt lat="47.52938" lon="6.72798">
        <ele>339.982</ele>
        <time>2016-06-04T13:57:14.299Z</time>
      </trkpt>
      <trkpt lat="47.52942" lon="6.72797">
        <ele>339.971</ele>
        <time>2016-06-04T13:57:15.299Z</time>
      </trkpt>
      <trkpt lat="47.52947" lon="6.72796">
        <ele>339.96</ele>
        <time>2016-06-04T13:57:16.299Z</time>
      </trkpt>
      <trkpt lat="47.52951" lon="6.72794">
        <ele>339.948</ele>
        <time>2016-06-04T13:57:17.299Z</time>
      </trkpt>
      <trkpt lat="47.52955" lon="6.72792">
        <ele>339.931</ele>
        <time>2016-06-04T13:57:18.299Z</time>
      </trkpt>
      <trkpt lat="47.5296" lon="6.72791">
        <ele>339.909</ele>
        <time>2016-06-04T13:57:19.299Z</time>
      </trkpt>
      <trkpt lat="47.52964" lon="6.72789">
        <ele>339.877</ele>
        <time>2016-06-04T13:57:20.299Z</time>
      </trkpt>
      <trkpt lat="47.52968" lon="6.72789">
        <ele>339.833</ele>
        <time>2016-06-04T13:57:21.299Z</time>
      </trkpt>
      <trkpt lat="47.52972" lon="6.72787">
        <ele>339.777</ele>
        <time>2016-06-04T13:57:22.299Z</time>
      </trkpt>
      <trkpt lat="47.52975" lon="6.72784">
        <ele>339.706</ele>
        <time>2016-06-04T13:57:23.299Z</time>
      </trkpt>
      <trkpt lat="47.52977" lon="6.72778">
        <ele>339.622</ele>
        <time>2016-06-04T13:57:24.299Z</time>
      </trkpt>
      <trkpt lat="47.52978" lon="6.72771">
        <ele>339.526</ele>
        <time>2016-06-04T13:57:25.299Z</time>
      </trkpt>
      <trkpt lat="47.52977" lon="6.72762">
        <ele>339.422</ele>
        <time>2016-06-04T13:57:26.299Z</time>
      </trkpt>
      <trkpt lat="47.52976" lon="6.72754">
        <ele>339.314</ele>
        <time>2016-06-04T13:57:27.299Z</time>
      </trkpt>
      <trkpt lat="47.52976" lon="6.72746">
        <ele>339.204</ele>
        <time>2016-06-04T13:57:28.299Z</time>
      </trkpt>
      <trkpt lat="47.52976" lon="6.72738">
        <ele>339.098</ele>
        <time>2016-06-04T13:57:29.299Z</time>
      </trkpt>
      <trkpt lat="47.52976" lon="6.72731">
        <ele>339</ele>
        <time>2016-06-04T13:57:30.299Z</time>
      </trkpt>
      <trkpt lat="47.52976" lon="6.72724">
        <ele>338.914</ele>
        <time>2016-06-04T13:57:31.299Z</time>
      </trkpt>
      <trkpt lat="47.52976" lon="6.72718">
        <ele>338.841</ele>
        <time>2016-06-04T13:57:32.299Z</time>
      </trkpt>
      <trkpt lat="47.52977" lon="6.72711">
        <ele>338.784</ele>
        <time>2016-06-04T13:57:33.299Z</time>
      </trkpt>
      <trkpt lat="47.52977" lon="6.72703">
        <ele>338.743</ele>
        <time>2016-06-04T13:57:34.299Z</time>
      </trkpt>
      <trkpt lat="47.52977" lon="6.72696">
        <ele>338.72</ele>
        <time>2016-06-04T13:57:35.299Z</time>
      </trkpt>
      <trkpt lat="47.52978" lon="6.72689">
        <ele>338.713</ele>
        <time>2016-06-04T13:57:36.299Z</time>
      </trkpt>
      <trkpt lat="47.52978" lon="6.72682">
        <ele>338.724</ele>
        <time>2016-06-04T13:57:37.299Z</time>
      </trkpt>
      <trkpt lat="47.5298" lon="6.72676">
        <ele>338.75</ele>
        <time>2016-06-04T13:57:38.299Z</time>
      </trkpt>
      <trkpt lat="47.52981" lon="6.72671">
        <ele>338.791</ele>
        <time>2016-06-04T13:57:39.299Z</time>
      </trkpt>
      <trkpt lat="47.52983" lon="6.72666">
        <ele>338.846</ele>
        <time>2016-06-04T13:57:40.299Z</time>
      </trkpt>
      <trkpt lat="47.52986" lon="6.7266">
        <ele>338.911</ele>
        <time>2016-06-04T13:57:41.299Z</time>
      </trkpt>
      <trkpt lat="47.52989" lon="6.72655">
        <ele>338.985</ele>
        <time>2016-06-04T13:57:42.299Z</time>
      </trkpt>
      <trkpt lat="47.52992" lon="6.72649">
        <ele>339.067</ele>
        <time>2016-06-04T13:57:43.299Z</time>
      </trkpt>
      <trkpt lat="47.52995" lon="6.72645">
        <ele>339.153</ele>
        <time>2016-06-04T13:57:44.299Z</time>
      </trkpt>
      <trkpt lat="47.52998" lon="6.72641">
        <ele>339.241</ele>
        <time>2016-06-04T13:57:45.299Z</time>
      </trkpt>
      <trkpt lat="47.53001" lon="6.72637">
        <ele>339.329</ele>
        <time>2016-06-04T13:57:46.299Z</time>
      </trkpt>
      <trkpt lat="47.53005" lon="6.72633">
        <ele>339.413</ele>
        <time>2016-06-04T13:57:47.299Z</time>
      </trkpt>
      <trkpt lat="47.53008" lon="6.7263">
        <ele>339.49</ele>
        <time>2016-06-04T13:57:48.299Z</time>
      </trkpt>
      <trkpt lat="47.53011" lon="6.72626">
        <ele>339.556</ele>
        <time>2016-06-04T13:57:49.299Z</time>
      </trkpt>
      <trkpt lat="47.53014" lon="6.72622">
        <ele>339.609</ele>
        <time>2016-06-04T13:57:50.299Z</time>
      </trkpt>
      <trkpt lat="47.53017" lon="6.72618">
        <ele>339.645</ele>
        <time>2016-06-04T13:57:51.299Z</time>
      </trkpt>
      <trkpt lat="47.53021" lon="6.72615">
        <ele>339.664</ele>
        <time>2016-06-04T13:57:52.299Z</time>
      </trkpt>
      <trkpt lat="47.53024" lon="6.72611">
        <ele>339.668</ele>
        <time>2016-06-04T13:57:53.299Z</time>
      </trkpt>
      <trkpt lat="47.53027" lon="6.72607">
        <ele>339.658</ele>
        <time>2016-06-04T13:57:54.299Z</time>
      </trkpt>
      <trkpt lat="47.5303" lon="6.72603">
        <ele>339.635</ele>
        <time>2016-06-04T13:57:55.299Z</time>
      </trkpt>
      <trkpt lat="47.53033" lon="6.72599">
        <ele>339.602</ele>
        <time>2016-06-04T13:57:56.299Z</time>
      </trkpt>
      <trkpt lat="47.53036" lon="6.72594">
        <ele>339.56</ele>
        <time>2016-06-04T13:57:57.299Z</time>
      </trkpt>
      <trkpt lat="47.53039" lon="6.7259">
        <ele>339.512</ele>
        <time>2016-06-04T13:57:58.299Z</time>
      </trkpt>
      <trkpt lat="47.53042" lon="6.72586">
        <ele>339.46</ele>
        <time>2016-06-04T13:57:59.299Z</time>
      </trkpt>
      <trkpt lat="47.53044" lon="6.72582">
        <ele>339.409</ele>
        <time>2016-06-04T13:58:00.299Z</time>
      </trkpt>
      <trkpt lat="47.53046" lon="6.72578">
        <ele>339.361</ele>
        <time>2016-06-04T13:58:01.299Z</time>
      </trkpt>
      <trkpt lat="47.53049" lon="6.72574">
        <ele>339.319</ele>
        <time>2016-06-04T13:58:02.299Z</time>
      </trkpt>
      <trkpt lat="47.53051" lon="6.7257">
        <ele>339.286</ele>
        <time>2016-06-04T13:58:03.299Z</time>
      </trkpt>
      <trkpt lat="47.53053" lon="6.72566">
        <ele>339.263</ele>
        <time>2016-06-04T13:58:04.299Z</time>
      </trkpt>
      <trkpt lat="47.53055" lon="6.72563">
        <ele>339.252</ele>
        <time>2016-06-04T13:58:05.299Z</time>
      </trkpt>
      <trkpt lat="47.53057" lon="6.72559">
        <ele>339.255</ele>
        <time>2016-06-04T13:58:06.299Z</time>
      </trkpt>
      <trkpt lat="47.53059" lon="6.72556">
        <ele>339.272</ele>
        <time>2016-06-04T13:58:07.299Z</time>
      </trkpt>
      <trkpt lat="47.53061" lon="6.72553">
        <ele>339.306</ele>
        <time>2016-06-04T13:58:08.299Z</time>
      </trkpt>
      <trkpt lat="47.53062" lon="6.72551">
        <ele>339.355</ele>
        <time>2016-06-04T13:58:09.299Z</time>
      </trkpt>
      <trkpt lat="47.53064" lon="6.72549">
        <ele>339.419</ele>
        <time>2016-06-04T13:58:10.299Z</time>
      </trkpt>
      <trkpt lat="47.53066" lon="6.72546">
        <ele>339.494</ele>
        <time>2016-06-04T13:58:11.299Z</time>
      </trkpt>
      <trkpt lat="47.53068" lon="6.72544">
        <ele>339.579</ele>
        <time>2016-06-04T13:58:12.299Z</time>
      </trkpt>
      <trkpt lat="47.53069" lon="6.72542">
        <ele>339.669</ele>
        <time>2016-06-04T13:58:13.299Z</time>
      </trkpt>
      <trkpt lat="47.53071" lon="6.7254">
        <ele>339.763</ele>
        <time>2016-06-04T13:58:14.299Z</time>
      </trkpt>
      <trkpt lat="47.53072" lon="6.72538">
        <ele>339.858</ele>
        <time>2016-06-04T13:58:15.299Z</time>
      </trkpt>
      <trkpt lat="47.53073" lon="6.72536">
        <ele>339.952</ele>
        <time>2016-06-04T13:58:16.299Z</time>
      </trkpt>
      <trkpt lat="47.53075" lon="6.72534">
        <ele>340.045</ele>
        <time>2016-06-04T13:58:17.299Z</time>
      </trkpt>
      <trkpt lat="47.53077" lon="6.72532">
        <ele>340.136</ele>
        <time>2016-06-04T13:58:18.299Z</time>
      </trkpt>
      <trkpt lat="47.53078" lon="6.7253">
        <ele>340.228</ele>
        <time>2016-06-04T13:58:19.299Z</time>
      </trkpt>
      <trkpt lat="47.5308" lon="6.72529">
        <ele>340.322</ele>
        <time>2016-06-04T13:58:20.299Z</time>
      </trkpt>
      <trkpt lat="47.53081" lon="6.72527">
        <ele>340.421</ele>
        <time>2016-06-04T13:58:21.299Z</time>
      </trkpt>
      <trkpt lat="47.53083" lon="6.72525">
        <ele>340.529</ele>
        <time>2016-06-04T13:58:22.299Z</time>
      </trkpt>
      <trkpt lat="47.53084" lon="6.72523">
        <ele>340.647</ele>
        <time>2016-06-04T13:58:23.299Z</time>
      </trkpt>
      <trkpt lat="47.53086" lon="6.7252">
        <ele>340.777</ele>
        <time>2016-06-04T13:58:24.299Z</time>
      </trkpt>
      <trkpt lat="47.53087" lon="6.72517">
        <ele>340.918</ele>
        <time>2016-06-04T13:58:25.299Z</time>
      </trkpt>
      <trkpt lat="47.53089" lon="6.72515">
        <ele>341.07</ele>
        <time>2016-06-04T13:58:26.299Z</time>
      </trkpt>
      <trkpt lat="47.5309" lon="6.72512">
        <ele>341.231</ele>
        <time>2016-06-04T13:58:27.299Z</time>
      </trkpt>
      <trkpt lat="47.53092" lon="6.72508">
        <ele>341.397</ele>
        <time>2016-06-04T13:58:28.299Z</time>
      </trkpt>
      <trkpt lat="47.53093" lon="6.72505">
        <ele>341.566</ele>
        <time>2016-06-04T13:58:29.299Z</time>
      </trkpt>
      <trkpt lat="47.53095" lon="6.72501">
        <ele>341.736</ele>
        <time>2016-06-04T13:58:30.299Z</time>
      </trkpt>
      <trkpt lat="47.53096" lon="6.72498">
        <ele>341.902</ele>
        <time>2016-06-04T13:58:31.299Z</time>
      </trkpt>
      <trkpt lat="47.53098" lon="6.72494">
        <ele>342.062</ele>
        <time>2016-06-04T13:58:32.299Z</time>
      </trkpt>
      <trkpt lat="47.53099" lon="6.7249">
        <ele>342.213</ele>
        <time>2016-06-04T13:58:33.299Z</time>
      </trkpt>
      <trkpt lat="47.53101" lon="6.72487">
        <ele>342.353</ele>
        <time>2016-06-04T13:58:34.299Z</time>
      </trkpt>
      <trkpt lat="47.53102" lon="6.72483">
        <ele>342.48</ele>
        <time>2016-06-04T13:58:35.299Z</time>
      </trkpt>
      <trkpt lat="47.53103" lon="6.7248">
        <ele>342.593</ele>
        <time>2016-06-04T13:58:36.299Z</time>
      </trkpt>
      <trkpt lat="47.53105" lon="6.72477">
        <ele>342.691</ele>
        <time>2016-06-04T13:58:37.299Z</time>
      </trkpt>
      <trkpt lat="47.53106" lon="6.72475">
        <ele>342.776</ele>
        <time>2016-06-04T13:58:38.299Z</time>
      </trkpt>
      <trkpt lat="47.53106" lon="6.72474">
        <ele>342.848</ele>
        <time>2016-06-04T13:58:39.299Z</time>
      </trkpt>
      <trkpt lat="47.53106" lon="6.72474">
        <ele>342.909</ele>
        <time>2016-06-04T13:58:40.299Z</time>
      </trkpt>
      <trkpt lat="47.53107" lon="6.72474">
        <ele>342.96</ele>
        <time>2016-06-04T13:58:41.299Z</time>
      </trkpt>
      <trkpt lat="47.53107" lon="6.72474">
        <ele>343.002</ele>
        <time>2016-06-04T13:58:42.299Z</time>
      </trkpt>
      <trkpt lat="47.53107" lon="6.72474">
        <ele>343.037</ele>
        <time>2016-06-04T13:58:43.299Z</time>
      </trkpt>
      <trkpt lat="47.53107" lon="6.72474">
        <ele>343.065</ele>
        <time>2016-06-04T13:58:44.299Z</time>
      </trkpt>
      <trkpt lat="47.53107" lon="6.72474">
        <ele>343.087</ele>
        <time>2016-06-04T13:58:45.299Z</time>
      </trkpt>
      <trkpt lat="47.53107" lon="6.72474">
        <ele>343.103</ele>
        <time>2016-06-04T13:58:46.299Z</time>
      </trkpt>
      <trkpt lat="47.53107" lon="6.72474">
        <ele>343.114</ele>
        <time>2016-06-04T13:58:47.299Z</time>
      </trkpt>
      <trkpt lat="47.53107" lon="6.72474">
        <ele>343.118</ele>
        <time>2016-06-04T13:58:48.299Z</time>
      </trkpt>
      <trkpt lat="47.53108" lon="6.72474">
        <ele>343.118</ele>
        <time>2016-06-04T13:58:49.299Z</time>
      </trkpt>
      <trkpt lat="47.53108" lon="6.72475">
        <ele>343.114</ele>
        <time>2016-06-04T13:58:50.299Z</time>
      </trkpt>
      <trkpt lat="47.53108" lon="6.72475">
        <ele>343.105</ele>
        <time>2016-06-04T13:58:51.299Z</time>
      </trkpt>
      <trkpt lat="47.53108" lon="6.72475">
        <ele>343.094</ele>
        <time>2016-06-04T13:58:52.299Z</time>
      </trkpt>
      <trkpt lat="47.53108" lon="6.72475">
        <ele>343.079</ele>
        <time>2016-06-04T13:58:53.299Z</time>
      </trkpt>
      <trkpt lat="47.53108" lon="6.72475">
        <ele>343.062</ele>
        <time>2016-06-04T13:58:54.299Z</time>
      </trkpt>
      <trkpt lat="47.53108" lon="6.72475">
        <ele>343.043</ele>
        <time>2016-06-04T13:58:55.299Z</time>
      </trkpt>
      <trkpt lat="47.53108" lon="6.72474">
        <ele>343.023</ele>
        <time>2016-06-04T13:58:56.299Z</time>
      </trkpt>
      <trkpt lat="47.53108" lon="6.72474">
        <ele>343.002</ele>
        <time>2016-06-04T13:58:57.299Z</time>
      </trkpt>
      <trkpt lat="47.53108" lon="6.72474">
        <ele>342.982</ele>
        <time>2016-06-04T13:58:58.299Z</time>
      </trkpt>
      <trkpt lat="47.53108" lon="6.72474">
        <ele>342.962</ele>
        <time>2016-06-04T13:58:59.299Z</time>
      </trkpt>
      <trkpt lat="47.53108" lon="6.72473">
        <ele>342.945</ele>
        <time>2016-06-04T13:59:00.299Z</time>
      </trkpt>
      <trkpt lat="47.53108" lon="6.72473">
        <ele>342.93</ele>
        <time>2016-06-04T13:59:01.299Z</time>
      </trkpt>
      <trkpt lat="47.53107" lon="6.72473">
        <ele>342.916</ele>
        <time>2016-06-04T13:59:02.299Z</time>
      </trkpt>
      <trkpt lat="47.53107" lon="6.72473">
        <ele>342.903</ele>
        <time>2016-06-04T13:59:03.299Z</time>
      </trkpt>
      <trkpt lat="47.53107" lon="6.72473">
        <ele>342.889</ele>
        <time>2016-06-04T13:59:04.299Z</time>
      </trkpt>
      <trkpt lat="47.53107" lon="6.72472">
        <ele>342.874</ele>
        <time>2016-06-04T13:59:05.299Z</time>
      </trkpt>
      <trkpt lat="47.53107" lon="6.72472">
        <ele>342.859</ele>
        <time>2016-06-04T13:59:06.299Z</time>
      </trkpt>
      <trkpt lat="47.53107" lon="6.72472">
        <ele>342.844</ele>
        <time>2016-06-04T13:59:07.299Z</time>
      </trkpt>
      <trkpt lat="47.53107" lon="6.72473">
        <ele>342.83</ele>
        <time>2016-06-04T13:59:08.299Z</time>
      </trkpt>
      <trkpt lat="47.53107" lon="6.72473">
        <ele>342.82</ele>
        <time>2016-06-04T13:59:09.299Z</time>
      </trkpt>
      <trkpt lat="47.53107" lon="6.72473">
        <ele>342.814</ele>
        <time>2016-06-04T13:59:10.299Z</time>
      </trkpt>
      <trkpt lat="47.53107" lon="6.72473">
        <ele>342.813</ele>
        <time>2016-06-04T13:59:11.299Z</time>
      </trkpt>
      <trkpt lat="47.53107" lon="6.72473">
        <ele>342.819</ele>
        <time>2016-06-04T13:59:12.299Z</time>
      </trkpt>
      <trkpt lat="47.53107" lon="6.72473">
        <ele>342.834</ele>
        <time>2016-06-04T13:59:13.299Z</time>
      </trkpt>
      <trkpt lat="47.53107" lon="6.72473">
        <ele>342.857</ele>
        <time>2016-06-04T13:59:14.299Z</time>
      </trkpt>
      <trkpt lat="47.53107" lon="6.72473">
        <ele>342.89</ele>
        <time>2016-06-04T13:59:15.299Z</time>
      </trkpt>
      <trkpt lat="47.53107" lon="6.72473">
        <ele>342.935</ele>
        <time>2016-06-04T13:59:16.299Z</time>
      </trkpt>
      <trkpt lat="47.53107" lon="6.72473">
        <ele>342.99</ele>
        <time>2016-06-04T13:59:17.299Z</time>
      </trkpt>
      <trkpt lat="47.53107" lon="6.72473">
        <ele>343.058</ele>
        <time>2016-06-04T13:59:18.299Z</time>
      </trkpt>
      <trkpt lat="47.53107" lon="6.72473">
        <ele>343.138</ele>
        <time>2016-06-04T13:59:19.299Z</time>
      </trkpt>
      <trkpt lat="47.53107" lon="6.72473">
        <ele>343.229</ele>
        <time>2016-06-04T13:59:20.299Z</time>
      </trkpt>
      <trkpt lat="47.53107" lon="6.72472">
        <ele>343.331</ele>
        <time>2016-06-04T13:59:21.299Z</time>
      </trkpt>
      <trkpt lat="47.53108" lon="6.72471">
        <ele>343.442</ele>
        <time>2016-06-04T13:59:22.299Z</time>
      </trkpt>
      <trkpt lat="47.53108" lon="6.72469">
        <ele>343.562</ele>
        <time>2016-06-04T13:59:23.299Z</time>
      </trkpt>
      <trkpt lat="47.53109" lon="6.72467">
        <ele>343.687</ele>
        <time>2016-06-04T13:59:24.299Z</time>
      </trkpt>
      <trkpt lat="47.53109" lon="6.72464">
        <ele>343.816</ele>
        <time>2016-06-04T13:59:25.299Z</time>
      </trkpt>
      <trkpt lat="47.5311" lon="6.72461">
        <ele>343.947</ele>
        <time>2016-06-04T13:59:26.299Z</time>
      </trkpt>
      <trkpt lat="47.53112" lon="6.72458">
        <ele>344.077</ele>
        <time>2016-06-04T13:59:27.299Z</time>
      </trkpt>
      <trkpt lat="47.53113" lon="6.72454">
        <ele>344.204</ele>
        <time>2016-06-04T13:59:28.299Z</time>
      </trkpt>
      <trkpt lat="47.53114" lon="6.72451">
        <ele>344.326</ele>
        <time>2016-06-04T13:59:29.299Z</time>
      </trkpt>
      <trkpt lat="47.53115" lon="6.72447">
        <ele>344.444</ele>
        <time>2016-06-04T13:59:30.299Z</time>
      </trkpt>
      <trkpt lat="47.53117" lon="6.72443">
        <ele>344.557</ele>
        <time>2016-06-04T13:59:31.299Z</time>
      </trkpt>
      <trkpt lat="47.53118" lon="6.72439">
        <ele>344.666</ele>
        <time>2016-06-04T13:59:32.299Z</time>
      </trkpt>
      <trkpt lat="47.5312" lon="6.72435">
        <ele>344.774</ele>
        <time>2016-06-04T13:59:33.299Z</time>
      </trkpt>
      <trkpt lat="47.53121" lon="6.72431">
        <ele>344.88</ele>
        <time>2016-06-04T13:59:34.299Z</time>
      </trkpt>
      <trkpt lat="47.53122" lon="6.72427">
        <ele>344.988</ele>
        <time>2016-06-04T13:59:35.299Z</time>
      </trkpt>
      <trkpt lat="47.53124" lon="6.72423">
        <ele>345.097</ele>
        <time>2016-06-04T13:59:36.299Z</time>
      </trkpt>
      <trkpt lat="47.53125" lon="6.7242">
        <ele>345.208</ele>
        <time>2016-06-04T13:59:37.299Z</time>
      </trkpt>
      <trkpt lat="47.53126" lon="6.72416">
        <ele>345.32</ele>
        <time>2016-06-04T13:59:38.299Z</time>
      </trkpt>
      <trkpt lat="47.53128" lon="6.72412">
        <ele>345.433</ele>
        <time>2016-06-04T13:59:39.299Z</time>
      </trkpt>
      <trkpt lat="47.53129" lon="6.72409">
        <ele>345.547</ele>
        <time>2016-06-04T13:59:40.299Z</time>
      </trkpt>
      <trkpt lat="47.5313" lon="6.72405">
        <ele>345.661</ele>
        <time>2016-06-04T13:59:41.299Z</time>
      </trkpt>
      <trkpt lat="47.53132" lon="6.72401">
        <ele>345.776</ele>
        <time>2016-06-04T13:59:42.299Z</time>
      </trkpt>
      <trkpt lat="47.53133" lon="6.72397">
        <ele>345.893</ele>
        <time>2016-06-04T13:59:43.299Z</time>
      </trkpt>
      <trkpt lat="47.53135" lon="6.72394">
        <ele>346.012</ele>
        <time>2016-06-04T13:59:44.299Z</time>
      </trkpt>
      <trkpt lat="47.53136" lon="6.72391">
        <ele>346.135</ele>
        <time>2016-06-04T13:59:45.299Z</time>
      </trkpt>
      <trkpt lat="47.53138" lon="6.72388">
        <ele>346.262</ele>
        <time>2016-06-04T13:59:46.299Z</time>
      </trkpt>
      <trkpt lat="47.5314" lon="6.72384">
        <ele>346.394</ele>
        <time>2016-06-04T13:59:47.299Z</time>
      </trkpt>
      <trkpt lat="47.53142" lon="6.7238">
        <ele>346.534</ele>
        <time>2016-06-04T13:59:48.299Z</time>
      </trkpt>
      <trkpt lat="47.53144" lon="6.72377">
        <ele>346.682</ele>
        <time>2016-06-04T13:59:49.299Z</time>
      </trkpt>
      <trkpt lat="47.53145" lon="6.72373">
        <ele>346.84</ele>
        <time>2016-06-04T13:59:50.299Z</time>
      </trkpt>
      <trkpt lat="47.53147" lon="6.7237">
        <ele>347.005</ele>
        <time>2016-06-04T13:59:51.299Z</time>
      </trkpt>
      <trkpt lat="47.53148" lon="6.72366">
        <ele>347.179</ele>
        <time>2016-06-04T13:59:52.299Z</time>
      </trkpt>
      <trkpt lat="47.53149" lon="6.72363">
        <ele>347.359</ele>
        <time>2016-06-04T13:59:53.299Z</time>
      </trkpt>
      <trkpt lat="47.53151" lon="6.72359">
        <ele>347.546</ele>
        <time>2016-06-04T13:59:54.299Z</time>
      </trkpt>
      <trkpt lat="47.53152" lon="6.72356">
        <ele>347.737</ele>
        <time>2016-06-04T13:59:55.299Z</time>
      </trkpt>
      <trkpt lat="47.53153" lon="6.72353">
        <ele>347.93</ele>
        <time>2016-06-04T13:59:56.299Z</time>
      </trkpt>
      <trkpt lat="47.53155" lon="6.7235">
        <ele>348.124</ele>
        <time>2016-06-04T13:59:57.299Z</time>
      </trkpt>
      <trkpt lat="47.53156" lon="6.72347">
        <ele>348.315</ele>
        <time>2016-06-04T13:59:58.299Z</time>
      </trkpt>
      <trkpt lat="47.53158" lon="6.72344">
        <ele>348.501</ele>
        <time>2016-06-04T13:59:59.299Z</time>
      </trkpt>
      <trkpt lat="47.5316" lon="6.72341">
        <ele>348.679</ele>
        <time>2016-06-04T14:00:00.299Z</time>
      </trkpt>
      <trkpt lat="47.53162" lon="6.72338">
        <ele>348.846</ele>
        <time>2016-06-04T14:00:01.299Z</time>
      </trkpt>
      <trkpt lat="47.53164" lon="6.72335">
        <ele>349.001</ele>
        <time>2016-06-04T14:00:02.299Z</time>
      </trkpt>
      <trkpt lat="47.53166" lon="6.72333">
        <ele>349.141</ele>
        <time>2016-06-04T14:00:03.299Z</time>
      </trkpt>
      <trkpt lat="47.53168" lon="6.7233">
        <ele>349.264</ele>
        <time>2016-06-04T14:00:04.299Z</time>
      </trkpt>
      <trkpt lat="47.5317" lon="6.72327">
        <ele>349.369</ele>
        <time>2016-06-04T14:00:05.299Z</time>
      </trkpt>
      <trkpt lat="47.53172" lon="6.72324">
        <ele>349.455</ele>
        <time>2016-06-04T14:00:06.299Z</time>
      </trkpt>
      <trkpt lat="47.53174" lon="6.72322">
        <ele>349.521</ele>
        <time>2016-06-04T14:00:07.299Z</time>
      </trkpt>
      <trkpt lat="47.53175" lon="6.72319">
        <ele>349.569</ele>
        <time>2016-06-04T14:00:08.299Z</time>
      </trkpt>
      <trkpt lat="47.53177" lon="6.72316">
        <ele>349.599</ele>
        <time>2016-06-04T14:00:09.299Z</time>
      </trkpt>
      <trkpt lat="47.53179" lon="6.72314">
        <ele>349.616</ele>
        <time>2016-06-04T14:00:10.299Z</time>
      </trkpt>
      <trkpt lat="47.53181" lon="6.72311">
        <ele>349.622</ele>
        <time>2016-06-04T14:00:11.299Z</time>
      </trkpt>
      <trkpt lat="47.53183" lon="6.72307">
        <ele>349.622</ele>
        <time>2016-06-04T14:00:12.299Z</time>
      </trkpt>
      <trkpt lat="47.53185" lon="6.72304">
        <ele>349.622</ele>
        <time>2016-06-04T14:00:13.299Z</time>
      </trkpt>
      <trkpt lat="47.53187" lon="6.72302">
        <ele>349.629</ele>
        <time>2016-06-04T14:00:14.299Z</time>
      </trkpt>
      <trkpt lat="47.53189" lon="6.723">
        <ele>349.648</ele>
        <time>2016-06-04T14:00:15.299Z</time>
      </trkpt>
      <trkpt lat="47.53192" lon="6.72298">
        <ele>349.684</ele>
        <time>2016-06-04T14:00:16.299Z</time>
      </trkpt>
      <trkpt lat="47.53194" lon="6.72296">
        <ele>349.741</ele>
        <time>2016-06-04T14:00:17.299Z</time>
      </trkpt>
      <trkpt lat="47.53196" lon="6.72293">
        <ele>349.819</ele>
        <time>2016-06-04T14:00:18.299Z</time>
      </trkpt>
      <trkpt lat="47.53198" lon="6.7229">
        <ele>349.919</ele>
        <time>2016-06-04T14:00:19.299Z</time>
      </trkpt>
      <trkpt lat="47.53199" lon="6.72288">
        <ele>350.042</ele>
        <time>2016-06-04T14:00:20.299Z</time>
      </trkpt>
      <trkpt lat="47.53201" lon="6.72285">
        <ele>350.186</ele>
        <time>2016-06-04T14:00:21.299Z</time>
      </trkpt>
      <trkpt lat="47.53202" lon="6.72283">
        <ele>350.35</ele>
        <time>2016-06-04T14:00:22.299Z</time>
      </trkpt>
      <trkpt lat="47.53204" lon="6.72281">
        <ele>350.531</ele>
        <time>2016-06-04T14:00:23.299Z</time>
      </trkpt>
      <trkpt lat="47.53206" lon="6.72279">
        <ele>350.729</ele>
        <time>2016-06-04T14:00:24.299Z</time>
      </trkpt>
      <trkpt lat="47.53208" lon="6.72277">
        <ele>350.942</ele>
        <time>2016-06-04T14:00:25.299Z</time>
      </trkpt>
      <trkpt lat="47.5321" lon="6.72275">
        <ele>351.168</ele>
        <time>2016-06-04T14:00:26.299Z</time>
      </trkpt>
      <trkpt lat="47.53212" lon="6.72273">
        <ele>351.407</ele>
        <time>2016-06-04T14:00:27.299Z</time>
      </trkpt>
      <trkpt lat="47.53214" lon="6.72271">
        <ele>351.658</ele>
        <time>2016-06-04T14:00:28.299Z</time>
      </trkpt>
      <trkpt lat="47.53216" lon="6.72269">
        <ele>351.924</ele>
        <time>2016-06-04T14:00:29.299Z</time>
      </trkpt>
      <trkpt lat="47.53218" lon="6.72267">
        <ele>352.203</ele>
        <time>2016-06-04T14:00:30.299Z</time>
      </trkpt>
      <trkpt lat="47.5322" lon="6.72266">
        <ele>352.495</ele>
        <time>2016-06-04T14:00:31.299Z</time>
      </trkpt>
      <trkpt lat="47.53223" lon="6.72264">
        <ele>352.799</ele>
        <time>2016-06-04T14:00:32.299Z</time>
      </trkpt>
      <trkpt lat="47.53225" lon="6.72262">
        <ele>353.114</ele>
        <time>2016-06-04T14:00:33.299Z</time>
      </trkpt>
      <trkpt lat="47.53227" lon="6.72261">
        <ele>353.436</ele>
        <time>2016-06-04T14:00:34.299Z</time>
      </trkpt>
      <trkpt lat="47.5323" lon="6.7226">
        <ele>353.764</ele>
        <time>2016-06-04T14:00:35.299Z</time>
      </trkpt>
      <trkpt lat="47.53232" lon="6.72259">
        <ele>354.093</ele>
        <time>2016-06-04T14:00:36.299Z</time>
      </trkpt>
      <trkpt lat="47.53235" lon="6.72258">
        <ele>354.421</ele>
        <time>2016-06-04T14:00:37.299Z</time>
      </trkpt>
      <trkpt lat="47.53237" lon="6.72256">
        <ele>354.741</ele>
        <time>2016-06-04T14:00:38.299Z</time>
      </trkpt>
      <trkpt lat="47.5324" lon="6.72255">
        <ele>355.051</ele>
        <time>2016-06-04T14:00:39.299Z</time>
      </trkpt>
      <trkpt lat="47.53242" lon="6.72254">
        <ele>355.346</ele>
        <time>2016-06-04T14:00:40.299Z</time>
      </trkpt>
      <trkpt lat="47.53245" lon="6.72253">
        <ele>355.623</ele>
        <time>2016-06-04T14:00:41.299Z</time>
      </trkpt>
      <trkpt lat="47.53248" lon="6.72252">
        <ele>355.88</ele>
        <time>2016-06-04T14:00:42.299Z</time>
      </trkpt>
      <trkpt lat="47.5325" lon="6.7225">
        <ele>356.117</ele>
        <time>2016-06-04T14:00:43.299Z</time>
      </trkpt>
      <trkpt lat="47.53252" lon="6.72249">
        <ele>356.332</ele>
        <time>2016-06-04T14:00:44.299Z</time>
      </trkpt>
      <trkpt lat="47.53255" lon="6.72247">
        <ele>356.526</ele>
        <time>2016-06-04T14:00:45.299Z</time>
      </trkpt>
      <trkpt lat="47.53258" lon="6.72246">
        <ele>356.698</ele>
        <time>2016-06-04T14:00:46.299Z</time>
      </trkpt>
      <trkpt lat="47.5326" lon="6.72245">
        <ele>356.85</ele>
        <time>2016-06-04T14:00:47.299Z</time>
      </trkpt>
      <trkpt lat="47.53263" lon="6.72244">
        <ele>356.983</ele>
        <time>2016-06-04T14:00:48.299Z</time>
      </trkpt>
      <trkpt lat="47.53266" lon="6.72243">
        <ele>357.096</ele>
        <time>2016-06-04T14:00:49.299Z</time>
      </trkpt>
      <trkpt lat="47.53269" lon="6.72242">
        <ele>357.191</ele>
        <time>2016-06-04T14:00:50.299Z</time>
      </trkpt>
      <trkpt lat="47.53272" lon="6.72241">
        <ele>357.268</ele>
        <time>2016-06-04T14:00:51.299Z</time>
      </trkpt>
      <trkpt lat="47.53275" lon="6.7224">
        <ele>357.326</ele>
        <time>2016-06-04T14:00:52.299Z</time>
      </trkpt>
      <trkpt lat="47.53278" lon="6.72239">
        <ele>357.366</ele>
        <time>2016-06-04T14:00:53.299Z</time>
      </trkpt>
      <trkpt lat="47.53281" lon="6.72238">
        <ele>357.389</ele>
        <time>2016-06-04T14:00:54.299Z</time>
      </trkpt>
      <trkpt lat="47.53285" lon="6.72236">
        <ele>357.396</ele>
        <time>2016-06-04T14:00:55.299Z</time>
      </trkpt>
      <trkpt lat="47.53288" lon="6.72235">
        <ele>357.387</ele>
        <time>2016-06-04T14:00:56.299Z</time>
      </trkpt>
      <trkpt lat="47.53291" lon="6.72234">
        <ele>357.363</ele>
        <time>2016-06-04T14:00:57.299Z</time>
      </trkpt>
      <trkpt lat="47.53294" lon="6.72232">
        <ele>357.328</ele>
        <time>2016-06-04T14:00:58.299Z</time>
      </trkpt>
      <trkpt lat="47.53298" lon="6.72231">
        <ele>357.281</ele>
        <time>2016-06-04T14:00:59.299Z</time>
      </trkpt>
      <trkpt lat="47.53301" lon="6.72229">
        <ele>357.224</ele>
        <time>2016-06-04T14:01:00.299Z</time>
      </trkpt>
      <trkpt lat="47.53304" lon="6.72228">
        <ele>357.16</ele>
        <time>2016-06-04T14:01:01.299Z</time>
      </trkpt>
      <trkpt lat="47.53308" lon="6.72226">
        <ele>357.089</ele>
        <time>2016-06-04T14:01:02.299Z</time>
      </trkpt>
      <trkpt lat="47.53311" lon="6.72225">
        <ele>357.013</ele>
        <time>2016-06-04T14:01:03.299Z</time>
      </trkpt>
      <trkpt lat="47.53315" lon="6.72223">
        <ele>356.934</ele>
        <time>2016-06-04T14:01:04.299Z</time>
      </trkpt>
      <trkpt lat="47.53318" lon="6.72222">
        <ele>356.853</ele>
        <time>2016-06-04T14:01:05.299Z</time>
      </trkpt>
      <trkpt lat="47.53322" lon="6.72221">
        <ele>356.773</ele>
        <time>2016-06-04T14:01:06.299Z</time>
      </trkpt>
      <trkpt lat="47.53325" lon="6.7222">
        <ele>356.695</ele>
        <time>2016-06-04T14:01:07.299Z</time>
      </trkpt>
      <trkpt lat="47.53329" lon="6.72219">
        <ele>356.622</ele>
        <time>2016-06-04T14:01:08.299Z</time>
      </trkpt>
      <trkpt lat="47.53332" lon="6.72218">
        <ele>356.555</ele>
        <time>2016-06-04T14:01:09.299Z</time>
      </trkpt>
      <trkpt lat="47.53336" lon="6.72216">
        <ele>356.497</ele>
        <time>2016-06-04T14:01:10.299Z</time>
      </trkpt>
      <trkpt lat="47.53339" lon="6.72215">
        <ele>356.447</ele>
        <time>2016-06-04T14:01:11.299Z</time>
      </trkpt>
      <trkpt lat="47.53342" lon="6.72212">
        <ele>356.406</ele>
        <time>2016-06-04T14:01:12.299Z</time>
      </trkpt>
      <trkpt lat="47.53345" lon="6.72209">
        <ele>356.374</ele>
        <time>2016-06-04T14:01:13.299Z</time>
      </trkpt>
      <trkpt lat="47.53348" lon="6.72205">
        <ele>356.351</ele>
        <time>2016-06-04T14:01:14.299Z</time>
      </trkpt>
      <trkpt lat="47.53351" lon="6.72201">
        <ele>356.336</ele>
        <time>2016-06-04T14:01:15.299Z</time>
      </trkpt>
      <trkpt lat="47.53353" lon="6.72196">
        <ele>356.329</ele>
        <time>2016-06-04T14:01:16.299Z</time>
      </trkpt>
      <trkpt lat="47.53355" lon="6.72192">
        <ele>356.327</ele>
        <time>2016-06-04T14:01:17.299Z</time>
      </trkpt>
      <trkpt lat="47.53356" lon="6.72186">
        <ele>356.331</ele>
        <time>2016-06-04T14:01:18.299Z</time>
      </trkpt>
      <trkpt lat="47.53358" lon="6.72181">
        <ele>356.338</ele>
        <time>2016-06-04T14:01:19.299Z</time>
      </trkpt>
      <trkpt lat="47.53359" lon="6.72176">
        <ele>356.349</ele>
        <time>2016-06-04T14:01:20.299Z</time>
      </trkpt>
      <trkpt lat="47.53361" lon="6.7217">
        <ele>356.362</ele>
        <time>2016-06-04T14:01:21.299Z</time>
      </trkpt>
      <trkpt lat="47.53362" lon="6.72165">
        <ele>356.379</ele>
        <time>2016-06-04T14:01:22.299Z</time>
      </trkpt>
      <trkpt lat="47.53363" lon="6.72159">
        <ele>356.399</ele>
        <time>2016-06-04T14:01:23.299Z</time>
      </trkpt>
      <trkpt lat="47.53364" lon="6.72154">
        <ele>356.423</ele>
        <time>2016-06-04T14:01:24.299Z</time>
      </trkpt>
      <trkpt lat="47.53365" lon="6.72148">
        <ele>356.451</ele>
        <time>2016-06-04T14:01:25.299Z</time>
      </trkpt>
      <trkpt lat="47.53366" lon="6.72142">
        <ele>356.485</ele>
        <time>2016-06-04T14:01:26.299Z</time>
      </trkpt>
      <trkpt lat="47.53366" lon="6.72137">
        <ele>356.525</ele>
        <time>2016-06-04T14:01:27.299Z</time>
      </trkpt>
      <trkpt lat="47.53367" lon="6.72131">
        <ele>356.573</ele>
        <time>2016-06-04T14:01:28.299Z</time>
      </trkpt>
      <trkpt lat="47.53367" lon="6.72125">
        <ele>356.627</ele>
        <time>2016-06-04T14:01:29.299Z</time>
      </trkpt>
      <trkpt lat="47.53367" lon="6.7212">
        <ele>356.689</ele>
        <time>2016-06-04T14:01:30.299Z</time>
      </trkpt>
      <trkpt lat="47.53368" lon="6.72115">
        <ele>356.757</ele>
        <time>2016-06-04T14:01:31.299Z</time>
      </trkpt>
      <trkpt lat="47.53368" lon="6.72109">
        <ele>356.83</ele>
        <time>2016-06-04T14:01:32.299Z</time>
      </trkpt>
      <trkpt lat="47.53368" lon="6.72104">
        <ele>356.905</ele>
        <time>2016-06-04T14:01:33.299Z</time>
      </trkpt>
      <trkpt lat="47.53368" lon="6.72099">
        <ele>356.984</ele>
        <time>2016-06-04T14:01:34.299Z</time>
      </trkpt>
      <trkpt lat="47.53367" lon="6.72094">
        <ele>357.066</ele>
        <time>2016-06-04T14:01:35.299Z</time>
      </trkpt>
      <trkpt lat="47.53366" lon="6.7209">
        <ele>357.149</ele>
        <time>2016-06-04T14:01:36.299Z</time>
      </trkpt>
      <trkpt lat="47.53365" lon="6.72085">
        <ele>357.234</ele>
        <time>2016-06-04T14:01:37.299Z</time>
      </trkpt>
      <trkpt lat="47.53364" lon="6.72081">
        <ele>357.32</ele>
        <time>2016-06-04T14:01:38.299Z</time>
      </trkpt>
      <trkpt lat="47.53363" lon="6.72077">
        <ele>357.406</ele>
        <time>2016-06-04T14:01:39.299Z</time>
      </trkpt>
      <trkpt lat="47.53361" lon="6.72074">
        <ele>357.493</ele>
        <time>2016-06-04T14:01:40.299Z</time>
      </trkpt>
      <trkpt lat="47.53359" lon="6.7207">
        <ele>357.58</ele>
        <time>2016-06-04T14:01:41.299Z</time>
      </trkpt>
      <trkpt lat="47.53357" lon="6.72067">
        <ele>357.669</ele>
        <time>2016-06-04T14:01:42.299Z</time>
      </trkpt>
      <trkpt lat="47.53355" lon="6.72064">
        <ele>357.761</ele>
        <time>2016-06-04T14:01:43.299Z</time>
      </trkpt>
      <trkpt lat="47.53353" lon="6.72061">
        <ele>357.858</ele>
        <time>2016-06-04T14:01:44.299Z</time>
      </trkpt>
      <trkpt lat="47.5335" lon="6.72059">
        <ele>357.959</ele>
        <time>2016-06-04T14:01:45.299Z</time>
      </trkpt>
      <trkpt lat="47.53348" lon="6.72056">
        <ele>358.065</ele>
        <time>2016-06-04T14:01:46.299Z</time>
      </trkpt>
      <trkpt lat="47.53346" lon="6.72054">
        <ele>358.175</ele>
        <time>2016-06-04T14:01:47.299Z</time>
      </trkpt>
      <trkpt lat="47.53343" lon="6.72052">
        <ele>358.286</ele>
        <time>2016-06-04T14:01:48.299Z</time>
      </trkpt>
      <trkpt lat="47.53341" lon="6.7205">
        <ele>358.395</ele>
        <time>2016-06-04T14:01:49.299Z</time>
      </trkpt>
      <trkpt lat="47.53339" lon="6.72048">
        <ele>358.499</ele>
        <time>2016-06-04T14:01:50.299Z</time>
      </trkpt>
      <trkpt lat="47.53337" lon="6.72046">
        <ele>358.595</ele>
        <time>2016-06-04T14:01:51.299Z</time>
      </trkpt>
      <trkpt lat="47.53335" lon="6.72044">
        <ele>358.681</ele>
        <time>2016-06-04T14:01:52.299Z</time>
      </trkpt>
      <trkpt lat="47.53333" lon="6.72042">
        <ele>358.755</ele>
        <time>2016-06-04T14:01:53.299Z</time>
      </trkpt>
      <trkpt lat="47.53331" lon="6.72041">
        <ele>358.817</ele>
        <time>2016-06-04T14:01:54.299Z</time>
      </trkpt>
      <trkpt lat="47.53329" lon="6.72039">
        <ele>358.866</ele>
        <time>2016-06-04T14:01:55.299Z</time>
      </trkpt>
      <trkpt lat="47.53327" lon="6.72037">
        <ele>358.901</ele>
        <time>2016-06-04T14:01:56.299Z</time>
      </trkpt>
      <trkpt lat="47.53325" lon="6.72035">
        <ele>358.923</ele>
        <time>2016-06-04T14:01:57.299Z</time>
      </trkpt>
      <trkpt lat="47.53322" lon="6.72034">
        <ele>358.931</ele>
        <time>2016-06-04T14:01:58.299Z</time>
      </trkpt>
      <trkpt lat="47.5332" lon="6.72032">
        <ele>358.926</ele>
        <time>2016-06-04T14:01:59.299Z</time>
      </trkpt>
      <trkpt lat="47.53318" lon="6.7203">
        <ele>358.908</ele>
        <time>2016-06-04T14:02:00.299Z</time>
      </trkpt>
      <trkpt lat="47.53316" lon="6.72028">
        <ele>358.879</ele>
        <time>2016-06-04T14:02:01.299Z</time>
      </trkpt>
      <trkpt lat="47.53315" lon="6.72026">
        <ele>358.84</ele>
        <time>2016-06-04T14:02:02.299Z</time>
      </trkpt>
      <trkpt lat="47.53313" lon="6.72024">
        <ele>358.793</ele>
        <time>2016-06-04T14:02:03.299Z</time>
      </trkpt>
      <trkpt lat="47.53312" lon="6.72022">
        <ele>358.738</ele>
        <time>2016-06-04T14:02:04.299Z</time>
      </trkpt>
      <trkpt lat="47.5331" lon="6.7202">
        <ele>358.678</ele>
        <time>2016-06-04T14:02:05.299Z</time>
      </trkpt>
      <trkpt lat="47.53308" lon="6.72017">
        <ele>358.611</ele>
        <time>2016-06-04T14:02:06.299Z</time>
      </trkpt>
      <trkpt lat="47.53306" lon="6.72014">
        <ele>358.539</ele>
        <time>2016-06-04T14:02:07.299Z</time>
      </trkpt>
      <trkpt lat="47.53304" lon="6.7201">
        <ele>358.461</ele>
        <time>2016-06-04T14:02:08.299Z</time>
      </trkpt>
      <trkpt lat="47.53302" lon="6.72006">
        <ele>358.378</ele>
        <time>2016-06-04T14:02:09.299Z</time>
      </trkpt>
      <trkpt lat="47.53301" lon="6.72001">
        <ele>358.292</ele>
        <time>2016-06-04T14:02:10.299Z</time>
      </trkpt>
      <trkpt lat="47.53299" lon="6.71996">
        <ele>358.205</ele>
        <time>2016-06-04T14:02:11.299Z</time>
      </trkpt>
      <trkpt lat="47.53298" lon="6.71991">
        <ele>358.12</ele>
        <time>2016-06-04T14:02:12.299Z</time>
      </trkpt>
      <trkpt lat="47.53297" lon="6.71985">
        <ele>358.036</ele>
        <time>2016-06-04T14:02:13.299Z</time>
      </trkpt>
      <trkpt lat="47.53296" lon="6.71978">
        <ele>357.955</ele>
        <time>2016-06-04T14:02:14.299Z</time>
      </trkpt>
      <trkpt lat="47.53296" lon="6.71972">
        <ele>357.873</ele>
        <time>2016-06-04T14:02:15.299Z</time>
      </trkpt>
      <trkpt lat="47.53297" lon="6.71966">
        <ele>357.787</ele>
        <time>2016-06-04T14:02:16.299Z</time>
      </trkpt>
      <trkpt lat="47.53297" lon="6.71959">
        <ele>357.694</ele>
        <time>2016-06-04T14:02:17.299Z</time>
      </trkpt>
      <trkpt lat="47.53298" lon="6.71953">
        <ele>357.59</ele>
        <time>2016-06-04T14:02:18.299Z</time>
      </trkpt>
      <trkpt lat="47.53299" lon="6.71948">
        <ele>357.47</ele>
        <time>2016-06-04T14:02:19.299Z</time>
      </trkpt>
      <trkpt lat="47.533" lon="6.71944">
        <ele>357.329</ele>
        <time>2016-06-04T14:02:20.299Z</time>
      </trkpt>
      <trkpt lat="47.53299" lon="6.7194">
        <ele>357.167</ele>
        <time>2016-06-04T14:02:21.299Z</time>
      </trkpt>
      <trkpt lat="47.53297" lon="6.71936">
        <ele>356.98</ele>
        <time>2016-06-04T14:02:22.299Z</time>
      </trkpt>
      <trkpt lat="47.53294" lon="6.71933">
        <ele>356.77</ele>
        <time>2016-06-04T14:02:23.299Z</time>
      </trkpt>
      <trkpt lat="47.53291" lon="6.71931">
        <ele>356.538</ele>
        <time>2016-06-04T14:02:24.299Z</time>
      </trkpt>
      <trkpt lat="47.53286" lon="6.71929">
        <ele>356.285</ele>
        <time>2016-06-04T14:02:25.299Z</time>
      </trkpt>
      <trkpt lat="47.53282" lon="6.71927">
        <ele>356.013</ele>
        <time>2016-06-04T14:02:26.299Z</time>
      </trkpt>
      <trkpt lat="47.53278" lon="6.71925">
        <ele>355.723</ele>
        <time>2016-06-04T14:02:27.299Z</time>
      </trkpt>
      <trkpt lat="47.53273" lon="6.71924">
        <ele>355.417</ele>
        <time>2016-06-04T14:02:28.299Z</time>
      </trkpt>
      <trkpt lat="47.53269" lon="6.71922">
        <ele>355.098</ele>
        <time>2016-06-04T14:02:29.299Z</time>
      </trkpt>
      <trkpt lat="47.53264" lon="6.7192">
        <ele>354.765</ele>
        <time>2016-06-04T14:02:30.299Z</time>
      </trkpt>
      <trkpt lat="47.5326" lon="6.71918">
        <ele>354.42</ele>
        <time>2016-06-04T14:02:31.299Z</time>
      </trkpt>
      <trkpt lat="47.53256" lon="6.71916">
        <ele>354.061</ele>
        <time>2016-06-04T14:02:32.299Z</time>
      </trkpt>
      <trkpt lat="47.53252" lon="6.71915">
        <ele>353.685</ele>
        <time>2016-06-04T14:02:33.299Z</time>
      </trkpt>
      <trkpt lat="47.53247" lon="6.71915">
        <ele>353.293</ele>
        <time>2016-06-04T14:02:34.299Z</time>
      </trkpt>
      <trkpt lat="47.53243" lon="6.71915">
        <ele>352.885</ele>
        <time>2016-06-04T14:02:35.299Z</time>
      </trkpt>
      <trkpt lat="47.53238" lon="6.71916">
        <ele>352.464</ele>
        <time>2016-06-04T14:02:36.299Z</time>
      </trkpt>
      <trkpt lat="47.53234" lon="6.71916">
        <ele>352.031</ele>
        <time>2016-06-04T14:02:37.299Z</time>
      </trkpt>
      <trkpt lat="47.53231" lon="6.71915">
        <ele>351.589</ele>
        <time>2016-06-04T14:02:38.299Z</time>
      </trkpt>
      <trkpt lat="47.53227" lon="6.71913">
        <ele>351.14</ele>
        <time>2016-06-04T14:02:39.299Z</time>
      </trkpt>
      <trkpt lat="47.53225" lon="6.71908">
        <ele>350.688</ele>
        <time>2016-06-04T14:02:40.299Z</time>
      </trkpt>
      <trkpt lat="47.53224" lon="6.71901">
        <ele>350.232</ele>
        <time>2016-06-04T14:02:41.299Z</time>
      </trkpt>
      <trkpt lat="47.53224" lon="6.71895">
        <ele>349.775</ele>
        <time>2016-06-04T14:02:42.299Z</time>
      </trkpt>
      <trkpt lat="47.53224" lon="6.71888">
        <ele>349.317</ele>
        <time>2016-06-04T14:02:43.299Z</time>
      </trkpt>
      <trkpt lat="47.53224" lon="6.7188">
        <ele>348.861</ele>
        <time>2016-06-04T14:02:44.299Z</time>
      </trkpt>
      <trkpt lat="47.53224" lon="6.71872">
        <ele>348.408</ele>
        <time>2016-06-04T14:02:45.299Z</time>
      </trkpt>
      <trkpt lat="47.53225" lon="6.71864">
        <ele>347.959</ele>
        <time>2016-06-04T14:02:46.299Z</time>
      </trkpt>
      <trkpt lat="47.53225" lon="6.71856">
        <ele>347.518</ele>
        <time>2016-06-04T14:02:47.299Z</time>
      </trkpt>
      <trkpt lat="47.53227" lon="6.71848">
        <ele>347.087</ele>
        <time>2016-06-04T14:02:48.299Z</time>
      </trkpt>
      <trkpt lat="47.53228" lon="6.7184">
        <ele>346.669</ele>
        <time>2016-06-04T14:02:49.299Z</time>
      </trkpt>
      <trkpt lat="47.5323" lon="6.71832">
        <ele>346.266</ele>
        <time>2016-06-04T14:02:50.299Z</time>
      </trkpt>
      <trkpt lat="47.53232" lon="6.71825">
        <ele>345.881</ele>
        <time>2016-06-04T14:02:51.299Z</time>
      </trkpt>
      <trkpt lat="47.53234" lon="6.71819">
        <ele>345.515</ele>
        <time>2016-06-04T14:02:52.299Z</time>
      </trkpt>
      <trkpt lat="47.53236" lon="6.71812">
        <ele>345.171</ele>
        <time>2016-06-04T14:02:53.299Z</time>
      </trkpt>
      <trkpt lat="47.53237" lon="6.71806">
        <ele>344.85</ele>
        <time>2016-06-04T14:02:54.299Z</time>
      </trkpt>
      <trkpt lat="47.53237" lon="6.718">
        <ele>344.552</ele>
        <time>2016-06-04T14:02:55.299Z</time>
      </trkpt>
      <trkpt lat="47.53235" lon="6.71794">
        <ele>344.28</ele>
        <time>2016-06-04T14:02:56.299Z</time>
      </trkpt>
      <trkpt lat="47.53232" lon="6.71789">
        <ele>344.03</ele>
        <time>2016-06-04T14:02:57.299Z</time>
      </trkpt>
      <trkpt lat="47.53228" lon="6.71784">
        <ele>343.8</ele>
        <time>2016-06-04T14:02:58.299Z</time>
      </trkpt>
      <trkpt lat="47.53223" lon="6.7178">
        <ele>343.586</ele>
        <time>2016-06-04T14:02:59.299Z</time>
      </trkpt>
      <trkpt lat="47.53218" lon="6.71777">
        <ele>343.384</ele>
        <time>2016-06-04T14:03:00.299Z</time>
      </trkpt>
      <trkpt lat="47.53212" lon="6.71773">
        <ele>343.192</ele>
        <time>2016-06-04T14:03:01.299Z</time>
      </trkpt>
      <trkpt lat="47.53207" lon="6.71769">
        <ele>343.006</ele>
        <time>2016-06-04T14:03:02.299Z</time>
      </trkpt>
      <trkpt lat="47.53201" lon="6.71765">
        <ele>342.826</ele>
        <time>2016-06-04T14:03:03.299Z</time>
      </trkpt>
      <trkpt lat="47.53197" lon="6.7176">
        <ele>342.651</ele>
        <time>2016-06-04T14:03:04.299Z</time>
      </trkpt>
      <trkpt lat="47.53193" lon="6.71755">
        <ele>342.48</ele>
        <time>2016-06-04T14:03:05.299Z</time>
      </trkpt>
      <trkpt lat="47.53189" lon="6.71749">
        <ele>342.312</ele>
        <time>2016-06-04T14:03:06.299Z</time>
      </trkpt>
      <trkpt lat="47.53186" lon="6.71743">
        <ele>342.15</ele>
        <time>2016-06-04T14:03:07.299Z</time>
      </trkpt>
      <trkpt lat="47.53183" lon="6.71737">
        <ele>341.996</ele>
        <time>2016-06-04T14:03:08.299Z</time>
      </trkpt>
      <trkpt lat="47.53181" lon="6.71732">
        <ele>341.853</ele>
        <time>2016-06-04T14:03:09.299Z</time>
      </trkpt>
      <trkpt lat="47.53179" lon="6.71726">
        <ele>341.725</ele>
        <time>2016-06-04T14:03:10.299Z</time>
      </trkpt>
      <trkpt lat="47.53176" lon="6.7172">
        <ele>341.619</ele>
        <time>2016-06-04T14:03:11.299Z</time>
      </trkpt>
      <trkpt lat="47.53173" lon="6.71715">
        <ele>341.54</ele>
        <time>2016-06-04T14:03:12.299Z</time>
      </trkpt>
      <trkpt lat="47.53171" lon="6.71709">
        <ele>341.491</ele>
        <time>2016-06-04T14:03:13.299Z</time>
      </trkpt>
      <trkpt lat="47.53168" lon="6.71704">
        <ele>341.474</ele>
        <time>2016-06-04T14:03:14.299Z</time>
      </trkpt>
      <trkpt lat="47.53165" lon="6.71698">
        <ele>341.491</ele>
        <time>2016-06-04T14:03:15.299Z</time>
      </trkpt>
      <trkpt lat="47.53163" lon="6.71693">
        <ele>341.539</ele>
        <time>2016-06-04T14:03:16.299Z</time>
      </trkpt>
      <trkpt lat="47.53159" lon="6.71688">
        <ele>341.615</ele>
        <time>2016-06-04T14:03:17.299Z</time>
      </trkpt>
      <trkpt lat="47.53156" lon="6.71683">
        <ele>341.716</ele>
        <time>2016-06-04T14:03:18.299Z</time>
      </trkpt>
      <trkpt lat="47.53153" lon="6.71678">
        <ele>341.837</ele>
        <time>2016-06-04T14:03:19.299Z</time>
      </trkpt>
      <trkpt lat="47.53149" lon="6.71673">
        <ele>341.974</ele>
        <time>2016-06-04T14:03:20.299Z</time>
      </trkpt>
      <trkpt lat="47.53146" lon="6.71668">
        <ele>342.123</ele>
        <time>2016-06-04T14:03:21.299Z</time>
      </trkpt>
      <trkpt lat="47.53143" lon="6.71662">
        <ele>342.281</ele>
        <time>2016-06-04T14:03:22.299Z</time>
      </trkpt>
      <trkpt lat="47.53141" lon="6.71657">
        <ele>342.444</ele>
        <time>2016-06-04T14:03:23.299Z</time>
      </trkpt>
      <trkpt lat="47.53138" lon="6.71651">
        <ele>342.607</ele>
        <time>2016-06-04T14:03:24.299Z</time>
      </trkpt>
      <trkpt lat="47.53136" lon="6.71647">
        <ele>342.769</ele>
        <time>2016-06-04T14:03:25.299Z</time>
      </trkpt>
      <trkpt lat="47.53133" lon="6.71644">
        <ele>342.924</ele>
        <time>2016-06-04T14:03:26.299Z</time>
      </trkpt>
      <trkpt lat="47.5313" lon="6.71642">
        <ele>343.069</ele>
        <time>2016-06-04T14:03:27.299Z</time>
      </trkpt>
      <trkpt lat="47.53127" lon="6.71641">
        <ele>343.204</ele>
        <time>2016-06-04T14:03:28.299Z</time>
      </trkpt>
      <trkpt lat="47.53123" lon="6.71641">
        <ele>343.33</ele>
        <time>2016-06-04T14:03:29.299Z</time>
      </trkpt>
      <trkpt lat="47.53119" lon="6.71642">
        <ele>343.447</ele>
        <time>2016-06-04T14:03:30.299Z</time>
      </trkpt>
      <trkpt lat="47.53115" lon="6.71644">
        <ele>343.557</ele>
        <time>2016-06-04T14:03:31.299Z</time>
      </trkpt>
      <trkpt lat="47.53112" lon="6.71646">
        <ele>343.66</ele>
        <time>2016-06-04T14:03:32.299Z</time>
      </trkpt>
      <trkpt lat="47.53108" lon="6.71649">
        <ele>343.754</ele>
        <time>2016-06-04T14:03:33.299Z</time>
      </trkpt>
      <trkpt lat="47.53105" lon="6.71653">
        <ele>343.837</ele>
        <time>2016-06-04T14:03:34.299Z</time>
      </trkpt>
      <trkpt lat="47.53102" lon="6.71656">
        <ele>343.906</ele>
        <time>2016-06-04T14:03:35.299Z</time>
      </trkpt>
      <trkpt lat="47.53098" lon="6.71659">
        <ele>343.959</ele>
        <time>2016-06-04T14:03:36.299Z</time>
      </trkpt>
      <trkpt lat="47.53095" lon="6.71661">
        <ele>343.993</ele>
        <time>2016-06-04T14:03:37.299Z</time>
      </trkpt>
      <trkpt lat="47.53092" lon="6.71663">
        <ele>344.009</ele>
        <time>2016-06-04T14:03:38.299Z</time>
      </trkpt>
      <trkpt lat="47.53089" lon="6.71665">
        <ele>344.007</ele>
        <time>2016-06-04T14:03:39.299Z</time>
      </trkpt>
      <trkpt lat="47.53086" lon="6.71667">
        <ele>343.987</ele>
        <time>2016-06-04T14:03:40.299Z</time>
      </trkpt>
      <trkpt lat="47.53083" lon="6.71668">
        <ele>343.954</ele>
        <time>2016-06-04T14:03:41.299Z</time>
      </trkpt>
      <trkpt lat="47.5308" lon="6.71669">
        <ele>343.911</ele>
        <time>2016-06-04T14:03:42.299Z</time>
      </trkpt>
      <trkpt lat="47.53077" lon="6.71669">
        <ele>343.862</ele>
        <time>2016-06-04T14:03:43.299Z</time>
      </trkpt>
      <trkpt lat="47.53074" lon="6.71668">
        <ele>343.808</ele>
        <time>2016-06-04T14:03:44.299Z</time>
      </trkpt>
      <trkpt lat="47.53071" lon="6.71666">
        <ele>343.753</ele>
        <time>2016-06-04T14:03:45.299Z</time>
      </trkpt>
      <trkpt lat="47.53068" lon="6.71663">
        <ele>343.701</ele>
        <time>2016-06-04T14:03:46.299Z</time>
      </trkpt>
      <trkpt lat="47.53065" lon="6.71659">
        <ele>343.654</ele>
        <time>2016-06-04T14:03:47.299Z</time>
      </trkpt>
      <trkpt lat="47.53062" lon="6.71655">
        <ele>343.614</ele>
        <time>2016-06-04T14:03:48.299Z</time>
      </trkpt>
      <trkpt lat="47.53059" lon="6.71651">
        <ele>343.584</ele>
        <time>2016-06-04T14:03:49.299Z</time>
      </trkpt>
      <trkpt lat="47.53056" lon="6.71646">
        <ele>343.566</ele>
        <time>2016-06-04T14:03:50.299Z</time>
      </trkpt>
      <trkpt lat="47.53053" lon="6.71641">
        <ele>343.563</ele>
        <time>2016-06-04T14:03:51.299Z</time>
      </trkpt>
      <trkpt lat="47.5305" lon="6.71636">
        <ele>343.577</ele>
        <time>2016-06-04T14:03:52.299Z</time>
      </trkpt>
      <trkpt lat="47.53047" lon="6.71631">
        <ele>343.608</ele>
        <time>2016-06-04T14:03:53.299Z</time>
      </trkpt>
      <trkpt lat="47.53044" lon="6.71627">
        <ele>343.657</ele>
        <time>2016-06-04T14:03:54.299Z</time>
      </trkpt>
      <trkpt lat="47.53041" lon="6.71622">
        <ele>343.725</ele>
        <time>2016-06-04T14:03:55.299Z</time>
      </trkpt>
      <trkpt lat="47.53038" lon="6.71617">
        <ele>343.81</ele>
        <time>2016-06-04T14:03:56.299Z</time>
      </trkpt>
      <trkpt lat="47.53035" lon="6.71613">
        <ele>343.912</ele>
        <time>2016-06-04T14:03:57.299Z</time>
      </trkpt>
      <trkpt lat="47.53033" lon="6.71608">
        <ele>344.027</ele>
        <time>2016-06-04T14:03:58.299Z</time>
      </trkpt>
      <trkpt lat="47.5303" lon="6.71603">
        <ele>344.154</ele>
        <time>2016-06-04T14:03:59.299Z</time>
      </trkpt>
      <trkpt lat="47.53028" lon="6.71598">
        <ele>344.289</ele>
        <time>2016-06-04T14:04:00.299Z</time>
      </trkpt>
      <trkpt lat="47.53026" lon="6.71593">
        <ele>344.43</ele>
        <time>2016-06-04T14:04:01.299Z</time>
      </trkpt>
      <trkpt lat="47.53024" lon="6.71588">
        <ele>344.574</ele>
        <time>2016-06-04T14:04:02.299Z</time>
      </trkpt>
      <trkpt lat="47.53022" lon="6.71583">
        <ele>344.716</ele>
        <time>2016-06-04T14:04:03.299Z</time>
      </trkpt>
      <trkpt lat="47.53019" lon="6.71579">
        <ele>344.855</ele>
        <time>2016-06-04T14:04:04.299Z</time>
      </trkpt>
      <trkpt lat="47.53017" lon="6.71574">
        <ele>344.988</ele>
        <time>2016-06-04T14:04:05.299Z</time>
      </trkpt>
      <trkpt lat="47.53015" lon="6.71569">
        <ele>345.112</ele>
        <time>2016-06-04T14:04:06.299Z</time>
      </trkpt>
      <trkpt lat="47.53013" lon="6.71564">
        <ele>345.224</ele>
        <time>2016-06-04T14:04:07.299Z</time>
      </trkpt>
      <trkpt lat="47.53011" lon="6.71559">
        <ele>345.324</ele>
        <time>2016-06-04T14:04:08.299Z</time>
      </trkpt>
      <trkpt lat="47.53009" lon="6.71554">
        <ele>345.41</ele>
        <time>2016-06-04T14:04:09.299Z</time>
      </trkpt>
      <trkpt lat="47.53007" lon="6.71549">
        <ele>345.479</ele>
        <time>2016-06-04T14:04:10.299Z</time>
      </trkpt>
      <trkpt lat="47.53005" lon="6.71545">
        <ele>345.532</ele>
        <time>2016-06-04T14:04:11.299Z</time>
      </trkpt>
      <trkpt lat="47.53004" lon="6.7154">
        <ele>345.566</ele>
        <time>2016-06-04T14:04:12.299Z</time>
      </trkpt>
      <trkpt lat="47.53002" lon="6.71536">
        <ele>345.582</ele>
        <time>2016-06-04T14:04:13.299Z</time>
      </trkpt>
      <trkpt lat="47.53" lon="6.71532">
        <ele>345.58</ele>
        <time>2016-06-04T14:04:14.299Z</time>
      </trkpt>
      <trkpt lat="47.52998" lon="6.71528">
        <ele>345.56</ele>
        <time>2016-06-04T14:04:15.299Z</time>
      </trkpt>
      <trkpt lat="47.52996" lon="6.71524">
        <ele>345.524</ele>
        <time>2016-06-04T14:04:16.299Z</time>
      </trkpt>
      <trkpt lat="47.52993" lon="6.7152">
        <ele>345.473</ele>
        <time>2016-06-04T14:04:17.299Z</time>
      </trkpt>
      <trkpt lat="47.52991" lon="6.71516">
        <ele>345.409</ele>
        <time>2016-06-04T14:04:18.299Z</time>
      </trkpt>
      <trkpt lat="47.52989" lon="6.71512">
        <ele>345.334</ele>
        <time>2016-06-04T14:04:19.299Z</time>
      </trkpt>
      <trkpt lat="47.52987" lon="6.71507">
        <ele>345.25</ele>
        <time>2016-06-04T14:04:20.299Z</time>
      </trkpt>
      <trkpt lat="47.52985" lon="6.71503">
        <ele>345.159</ele>
        <time>2016-06-04T14:04:21.299Z</time>
      </trkpt>
      <trkpt lat="47.52982" lon="6.71498">
        <ele>345.063</ele>
        <time>2016-06-04T14:04:22.299Z</time>
      </trkpt>
      <trkpt lat="47.52979" lon="6.71493">
        <ele>344.962</ele>
        <time>2016-06-04T14:04:23.299Z</time>
      </trkpt>
      <trkpt lat="47.52977" lon="6.71488">
        <ele>344.859</ele>
        <time>2016-06-04T14:04:24.299Z</time>
      </trkpt>
      <trkpt lat="47.52974" lon="6.71483">
        <ele>344.752</ele>
        <time>2016-06-04T14:04:25.299Z</time>
      </trkpt>
      <trkpt lat="47.52972" lon="6.71478">
        <ele>344.645</ele>
        <time>2016-06-04T14:04:26.299Z</time>
      </trkpt>
      <trkpt lat="47.52969" lon="6.71474">
        <ele>344.537</ele>
        <time>2016-06-04T14:04:27.299Z</time>
      </trkpt>
      <trkpt lat="47.52967" lon="6.71469">
        <ele>344.43</ele>
        <time>2016-06-04T14:04:28.299Z</time>
      </trkpt>
      <trkpt lat="47.52965" lon="6.71465">
        <ele>344.326</ele>
        <time>2016-06-04T14:04:29.299Z</time>
      </trkpt>
      <trkpt lat="47.52963" lon="6.7146">
        <ele>344.226</ele>
        <time>2016-06-04T14:04:30.299Z</time>
      </trkpt>
      <trkpt lat="47.5296" lon="6.71455">
        <ele>344.129</ele>
        <time>2016-06-04T14:04:31.299Z</time>
      </trkpt>
      <trkpt lat="47.52958" lon="6.7145">
        <ele>344.037</ele>
        <time>2016-06-04T14:04:32.299Z</time>
      </trkpt>
      <trkpt lat="47.52955" lon="6.71445">
        <ele>343.949</ele>
        <time>2016-06-04T14:04:33.299Z</time>
      </trkpt>
      <trkpt lat="47.52953" lon="6.7144">
        <ele>343.865</ele>
        <time>2016-06-04T14:04:34.299Z</time>
      </trkpt>
      <trkpt lat="47.5295" lon="6.71434">
        <ele>343.785</ele>
        <time>2016-06-04T14:04:35.299Z</time>
      </trkpt>
      <trkpt lat="47.52948" lon="6.71429">
        <ele>343.708</ele>
        <time>2016-06-04T14:04:36.299Z</time>
      </trkpt>
      <trkpt lat="47.52945" lon="6.71424">
        <ele>343.635</ele>
        <time>2016-06-04T14:04:37.299Z</time>
      </trkpt>
      <trkpt lat="47.52943" lon="6.71419">
        <ele>343.566</ele>
        <time>2016-06-04T14:04:38.299Z</time>
      </trkpt>
      <trkpt lat="47.5294" lon="6.71414">
        <ele>343.501</ele>
        <time>2016-06-04T14:04:39.299Z</time>
      </trkpt>
      <trkpt lat="47.52937" lon="6.71409">
        <ele>343.442</ele>
        <time>2016-06-04T14:04:40.299Z</time>
      </trkpt>
      <trkpt lat="47.52934" lon="6.71404">
        <ele>343.389</ele>
        <time>2016-06-04T14:04:41.299Z</time>
      </trkpt>
      <trkpt lat="47.52932" lon="6.71399">
        <ele>343.345</ele>
        <time>2016-06-04T14:04:42.299Z</time>
      </trkpt>
      <trkpt lat="47.52929" lon="6.71393">
        <ele>343.312</ele>
        <time>2016-06-04T14:04:43.299Z</time>
      </trkpt>
      <trkpt lat="47.52926" lon="6.71388">
        <ele>343.292</ele>
        <time>2016-06-04T14:04:44.299Z</time>
      </trkpt>
      <trkpt lat="47.52922" lon="6.71383">
        <ele>343.287</ele>
        <time>2016-06-04T14:04:45.299Z</time>
      </trkpt>
      <trkpt lat="47.52919" lon="6.71378">
        <ele>343.299</ele>
        <time>2016-06-04T14:04:46.299Z</time>
      </trkpt>
      <trkpt lat="47.52915" lon="6.71373">
        <ele>343.328</ele>
        <time>2016-06-04T14:04:47.299Z</time>
      </trkpt>
      <trkpt lat="47.52912" lon="6.71368">
        <ele>343.376</ele>
        <time>2016-06-04T14:04:48.299Z</time>
      </trkpt>
      <trkpt lat="47.52908" lon="6.71363">
        <ele>343.442</ele>
        <time>2016-06-04T14:04:49.299Z</time>
      </trkpt>
      <trkpt lat="47.52904" lon="6.71357">
        <ele>343.527</ele>
        <time>2016-06-04T14:04:50.299Z</time>
      </trkpt>
      <trkpt lat="47.52901" lon="6.71353">
        <ele>343.633</ele>
        <time>2016-06-04T14:04:51.299Z</time>
      </trkpt>
      <trkpt lat="47.52897" lon="6.71348">
        <ele>343.76</ele>
        <time>2016-06-04T14:04:52.299Z</time>
      </trkpt>
      <trkpt lat="47.52893" lon="6.71344">
        <ele>343.907</ele>
        <time>2016-06-04T14:04:53.299Z</time>
      </trkpt>
      <trkpt lat="47.5289" lon="6.7134">
        <ele>344.077</ele>
        <time>2016-06-04T14:04:54.299Z</time>
      </trkpt>
      <trkpt lat="47.52886" lon="6.71336">
        <ele>344.267</ele>
        <time>2016-06-04T14:04:55.299Z</time>
      </trkpt>
      <trkpt lat="47.52881" lon="6.71332">
        <ele>344.477</ele>
        <time>2016-06-04T14:04:56.299Z</time>
      </trkpt>
      <trkpt lat="47.52877" lon="6.71327">
        <ele>344.704</ele>
        <time>2016-06-04T14:04:57.299Z</time>
      </trkpt>
      <trkpt lat="47.52872" lon="6.71323">
        <ele>344.946</ele>
        <time>2016-06-04T14:04:58.299Z</time>
      </trkpt>
      <trkpt lat="47.52867" lon="6.71319">
        <ele>345.199</ele>
        <time>2016-06-04T14:04:59.299Z</time>
      </trkpt>
      <trkpt lat="47.52863" lon="6.71316">
        <ele>345.46</ele>
        <time>2016-06-04T14:05:00.299Z</time>
      </trkpt>
      <trkpt lat="47.52859" lon="6.71313">
        <ele>345.726</ele>
        <time>2016-06-04T14:05:01.299Z</time>
      </trkpt>
      <trkpt lat="47.52854" lon="6.71312">
        <ele>345.996</ele>
        <time>2016-06-04T14:05:02.299Z</time>
      </trkpt>
      <trkpt lat="47.52849" lon="6.71311">
        <ele>346.267</ele>
        <time>2016-06-04T14:05:03.299Z</time>
      </trkpt>
      <trkpt lat="47.52845" lon="6.71311">
        <ele>346.539</ele>
        <time>2016-06-04T14:05:04.299Z</time>
      </trkpt>
      <trkpt lat="47.5284" lon="6.7131">
        <ele>346.811</ele>
        <time>2016-06-04T14:05:05.299Z</time>
      </trkpt>
      <trkpt lat="47.52835" lon="6.71309">
        <ele>347.081</ele>
        <time>2016-06-04T14:05:06.299Z</time>
      </trkpt>
      <trkpt lat="47.5283" lon="6.71308">
        <ele>347.348</ele>
        <time>2016-06-04T14:05:07.299Z</time>
      </trkpt>
      <trkpt lat="47.52826" lon="6.71307">
        <ele>347.613</ele>
        <time>2016-06-04T14:05:08.299Z</time>
      </trkpt>
      <trkpt lat="47.52822" lon="6.71306">
        <ele>347.873</ele>
        <time>2016-06-04T14:05:09.299Z</time>
      </trkpt>
      <trkpt lat="47.52818" lon="6.71305">
        <ele>348.13</ele>
        <time>2016-06-04T14:05:10.299Z</time>
      </trkpt>
      <trkpt lat="47.52815" lon="6.71304">
        <ele>348.383</ele>
        <time>2016-06-04T14:05:11.299Z</time>
      </trkpt>
      <trkpt lat="47.52812" lon="6.71303">
        <ele>348.631</ele>
        <time>2016-06-04T14:05:12.299Z</time>
      </trkpt>
      <trkpt lat="47.52809" lon="6.71302">
        <ele>348.875</ele>
        <time>2016-06-04T14:05:13.299Z</time>
      </trkpt>
      <trkpt lat="47.52807" lon="6.71302">
        <ele>349.114</ele>
        <time>2016-06-04T14:05:14.299Z</time>
      </trkpt>
      <trkpt lat="47.52803" lon="6.71301">
        <ele>349.349</ele>
        <time>2016-06-04T14:05:15.299Z</time>
      </trkpt>
      <trkpt lat="47.528" lon="6.713">
        <ele>349.578</ele>
        <time>2016-06-04T14:05:16.299Z</time>
      </trkpt>
      <trkpt lat="47.52797" lon="6.71299">
        <ele>349.802</ele>
        <time>2016-06-04T14:05:17.299Z</time>
      </trkpt>
      <trkpt lat="47.52793" lon="6.71298">
        <ele>350.02</ele>
        <time>2016-06-04T14:05:18.299Z</time>
      </trkpt>
      <trkpt lat="47.5279" lon="6.71297">
        <ele>350.231</ele>
        <time>2016-06-04T14:05:19.299Z</time>
      </trkpt>
      <trkpt lat="47.52787" lon="6.71296">
        <ele>350.436</ele>
        <time>2016-06-04T14:05:20.299Z</time>
      </trkpt>
      <trkpt lat="47.52784" lon="6.71295">
        <ele>350.635</ele>
        <time>2016-06-04T14:05:21.299Z</time>
      </trkpt>
      <trkpt lat="47.52781" lon="6.71293">
        <ele>350.827</ele>
        <time>2016-06-04T14:05:22.299Z</time>
      </trkpt>
      <trkpt lat="47.52778" lon="6.71292">
        <ele>351.014</ele>
        <time>2016-06-04T14:05:23.299Z</time>
      </trkpt>
      <trkpt lat="47.52775" lon="6.71291">
        <ele>351.197</ele>
        <time>2016-06-04T14:05:24.299Z</time>
      </trkpt>
      <trkpt lat="47.52771" lon="6.7129">
        <ele>351.375</ele>
        <time>2016-06-04T14:05:25.299Z</time>
      </trkpt>
      <trkpt lat="47.52768" lon="6.71289">
        <ele>351.548</ele>
        <time>2016-06-04T14:05:26.299Z</time>
      </trkpt>
      <trkpt lat="47.52765" lon="6.71288">
        <ele>351.719</ele>
        <time>2016-06-04T14:05:27.299Z</time>
      </trkpt>
      <trkpt lat="47.52761" lon="6.71287">
        <ele>351.886</ele>
        <time>2016-06-04T14:05:28.299Z</time>
      </trkpt>
      <trkpt lat="47.52759" lon="6.71285">
        <ele>352.051</ele>
        <time>2016-06-04T14:05:29.299Z</time>
      </trkpt>
      <trkpt lat="47.52756" lon="6.71283">
        <ele>352.215</ele>
        <time>2016-06-04T14:05:30.299Z</time>
      </trkpt>
      <trkpt lat="47.52754" lon="6.71281">
        <ele>352.378</ele>
        <time>2016-06-04T14:05:31.299Z</time>
      </trkpt>
      <trkpt lat="47.52753" lon="6.71279">
        <ele>352.54</ele>
        <time>2016-06-04T14:05:32.299Z</time>
      </trkpt>
      <trkpt lat="47.52747" lon="6.7128">
        <ele>350.779</ele>
        <time>2016-06-04T14:05:33.813Z</time>
      </trkpt>
      <trkpt lat="47.52744" lon="6.71278">
        <ele>350.495</ele>
        <time>2016-06-04T14:05:34.279Z</time>
      </trkpt>
      <trkpt lat="47.52741" lon="6.71277">
        <ele>353.191</ele>
        <time>2016-06-04T14:05:35.015Z</time>
      </trkpt>
      <trkpt lat="47.52738" lon="6.71276">
        <ele>353.498</ele>
        <time>2016-06-04T14:05:36.012Z</time>
      </trkpt>
      <trkpt lat="47.52735" lon="6.71275">
        <ele>353.628</ele>
        <time>2016-06-04T14:05:37.008Z</time>
      </trkpt>
      <trkpt lat="47.52731" lon="6.71274">
        <ele>353.816</ele>
        <time>2016-06-04T14:05:38.004Z</time>
      </trkpt>
      <trkpt lat="47.52728" lon="6.71273">
        <ele>353.685</ele>
        <time>2016-06-04T14:05:39.000Z</time>
      </trkpt>
      <trkpt lat="47.52725" lon="6.71271">
        <ele>353.446</ele>
        <time>2016-06-04T14:05:40.000Z</time>
      </trkpt>
      <trkpt lat="47.52721" lon="6.7127">
        <ele>353.529</ele>
        <time>2016-06-04T14:05:41.000Z</time>
      </trkpt>
      <trkpt lat="47.52718" lon="6.7127">
        <ele>353.721</ele>
        <time>2016-06-04T14:05:42.000Z</time>
      </trkpt>
      <trkpt lat="47.52714" lon="6.7127">
        <ele>354.016</ele>
        <time>2016-06-04T14:05:43.000Z</time>
      </trkpt>
      <trkpt lat="47.5271" lon="6.71271">
        <ele>354.078</ele>
        <time>2016-06-04T14:05:44.000Z</time>
      </trkpt>
      <trkpt lat="47.52705" lon="6.71275">
        <ele>353.69</ele>
        <time>2016-06-04T14:05:45.000Z</time>
      </trkpt>
      <trkpt lat="47.52703" lon="6.71275">
        <ele>353.436</ele>
        <time>2016-06-04T14:05:46.000Z</time>
      </trkpt>
      <trkpt lat="47.527" lon="6.71276">
        <ele>353.183</ele>
        <time>2016-06-04T14:05:47.000Z</time>
      </trkpt>
      <trkpt lat="47.52698" lon="6.71276">
        <ele>352.934</ele>
        <time>2016-06-04T14:05:48.000Z</time>
      </trkpt>
      <trkpt lat="47.52695" lon="6.71277">
        <ele>352.691</ele>
        <time>2016-06-04T14:05:49.000Z</time>
      </trkpt>
      <trkpt lat="47.52692" lon="6.71277">
        <ele>352.456</ele>
        <time>2016-06-04T14:05:50.000Z</time>
      </trkpt>
      <trkpt lat="47.52689" lon="6.71278">
        <ele>352.23</ele>
        <time>2016-06-04T14:05:51.000Z</time>
      </trkpt>
      <trkpt lat="47.52687" lon="6.71278">
        <ele>352.017</ele>
        <time>2016-06-04T14:05:52.000Z</time>
      </trkpt>
      <trkpt lat="47.52684" lon="6.71279">
        <ele>351.816</ele>
        <time>2016-06-04T14:05:53.000Z</time>
      </trkpt>
      <trkpt lat="47.52682" lon="6.7128">
        <ele>351.627</ele>
        <time>2016-06-04T14:05:54.000Z</time>
      </trkpt>
      <trkpt lat="47.52679" lon="6.7128">
        <ele>351.45</ele>
        <time>2016-06-04T14:05:55.000Z</time>
      </trkpt>
      <trkpt lat="47.52676" lon="6.71279">
        <ele>351.284</ele>
        <time>2016-06-04T14:05:56.000Z</time>
      </trkpt>
      <trkpt lat="47.52673" lon="6.71279">
        <ele>351.128</ele>
        <time>2016-06-04T14:05:57.000Z</time>
      </trkpt>
      <trkpt lat="47.5267" lon="6.71278">
        <ele>350.981</ele>
        <time>2016-06-04T14:05:58.000Z</time>
      </trkpt>
      <trkpt lat="47.52667" lon="6.71277">
        <ele>350.844</ele>
        <time>2016-06-04T14:05:59.000Z</time>
      </trkpt>
      <trkpt lat="47.52665" lon="6.71276">
        <ele>350.717</ele>
        <time>2016-06-04T14:06:00.000Z</time>
      </trkpt>
      <trkpt lat="47.52662" lon="6.71275">
        <ele>350.603</ele>
        <time>2016-06-04T14:06:01.000Z</time>
      </trkpt>
      <trkpt lat="47.52659" lon="6.71275">
        <ele>350.502</ele>
        <time>2016-06-04T14:06:02.000Z</time>
      </trkpt>
      <trkpt lat="47.52656" lon="6.71274">
        <ele>350.416</ele>
        <time>2016-06-04T14:06:03.000Z</time>
      </trkpt>
      <trkpt lat="47.52653" lon="6.71273">
        <ele>350.346</ele>
        <time>2016-06-04T14:06:04.000Z</time>
      </trkpt>
      <trkpt lat="47.5265" lon="6.71272">
        <ele>350.293</ele>
        <time>2016-06-04T14:06:05.000Z</time>
      </trkpt>
      <trkpt lat="47.52648" lon="6.71271">
        <ele>350.26</ele>
        <time>2016-06-04T14:06:06.000Z</time>
      </trkpt>
      <trkpt lat="47.52645" lon="6.7127">
        <ele>350.247</ele>
        <time>2016-06-04T14:06:07.000Z</time>
      </trkpt>
      <trkpt lat="47.52642" lon="6.71269">
        <ele>350.254</ele>
        <time>2016-06-04T14:06:08.000Z</time>
      </trkpt>
      <trkpt lat="47.52639" lon="6.71268">
        <ele>350.281</ele>
        <time>2016-06-04T14:06:09.000Z</time>
      </trkpt>
      <trkpt lat="47.52636" lon="6.71267">
        <ele>350.329</ele>
        <time>2016-06-04T14:06:10.000Z</time>
      </trkpt>
      <trkpt lat="47.52633" lon="6.71266">
        <ele>350.395</ele>
        <time>2016-06-04T14:06:11.000Z</time>
      </trkpt>
      <trkpt lat="47.5263" lon="6.71265">
        <ele>350.48</ele>
        <time>2016-06-04T14:06:12.000Z</time>
      </trkpt>
      <trkpt lat="47.52627" lon="6.71265">
        <ele>350.58</ele>
        <time>2016-06-04T14:06:13.000Z</time>
      </trkpt>
      <trkpt lat="47.52623" lon="6.71264">
        <ele>350.693</ele>
        <time>2016-06-04T14:06:14.000Z</time>
      </trkpt>
      <trkpt lat="47.5262" lon="6.71263">
        <ele>350.818</ele>
        <time>2016-06-04T14:06:15.000Z</time>
      </trkpt>
      <trkpt lat="47.52617" lon="6.71261">
        <ele>350.951</ele>
        <time>2016-06-04T14:06:16.000Z</time>
      </trkpt>
      <trkpt lat="47.52614" lon="6.71261">
        <ele>351.09</ele>
        <time>2016-06-04T14:06:17.000Z</time>
      </trkpt>
      <trkpt lat="47.52612" lon="6.7126">
        <ele>351.233</ele>
        <time>2016-06-04T14:06:18.000Z</time>
      </trkpt>
      <trkpt lat="47.52609" lon="6.71259">
        <ele>351.38</ele>
        <time>2016-06-04T14:06:19.000Z</time>
      </trkpt>
      <trkpt lat="47.52607" lon="6.71259">
        <ele>351.53</ele>
        <time>2016-06-04T14:06:20.000Z</time>
      </trkpt>
      <trkpt lat="47.52604" lon="6.71259">
        <ele>351.683</ele>
        <time>2016-06-04T14:06:21.000Z</time>
      </trkpt>
      <trkpt lat="47.52601" lon="6.71258">
        <ele>351.838</ele>
        <time>2016-06-04T14:06:22.000Z</time>
      </trkpt>
      <trkpt lat="47.52599" lon="6.71258">
        <ele>351.995</ele>
        <time>2016-06-04T14:06:23.000Z</time>
      </trkpt>
      <trkpt lat="47.52597" lon="6.71258">
        <ele>352.151</ele>
        <time>2016-06-04T14:06:24.000Z</time>
      </trkpt>
      <trkpt lat="47.52594" lon="6.71257">
        <ele>352.307</ele>
        <time>2016-06-04T14:06:25.000Z</time>
      </trkpt>
      <trkpt lat="47.52592" lon="6.71257">
        <ele>352.458</ele>
        <time>2016-06-04T14:06:26.000Z</time>
      </trkpt>
      <trkpt lat="47.52589" lon="6.71257">
        <ele>352.603</ele>
        <time>2016-06-04T14:06:27.000Z</time>
      </trkpt>
      <trkpt lat="47.52586" lon="6.71256">
        <ele>352.739</ele>
        <time>2016-06-04T14:06:28.000Z</time>
      </trkpt>
      <trkpt lat="47.52582" lon="6.71255">
        <ele>352.864</ele>
        <time>2016-06-04T14:06:29.000Z</time>
      </trkpt>
      <trkpt lat="47.52579" lon="6.71253">
        <ele>352.976</ele>
        <time>2016-06-04T14:06:30.000Z</time>
      </trkpt>
      <trkpt lat="47.52575" lon="6.71252">
        <ele>353.074</ele>
        <time>2016-06-04T14:06:31.000Z</time>
      </trkpt>
      <trkpt lat="47.52571" lon="6.7125">
        <ele>353.156</ele>
        <time>2016-06-04T14:06:32.000Z</time>
      </trkpt>
      <trkpt lat="47.52567" lon="6.71249">
        <ele>353.224</ele>
        <time>2016-06-04T14:06:33.000Z</time>
      </trkpt>
      <trkpt lat="47.52563" lon="6.71247">
        <ele>353.277</ele>
        <time>2016-06-04T14:06:34.000Z</time>
      </trkpt>
      <trkpt lat="47.52559" lon="6.71245">
        <ele>353.318</ele>
        <time>2016-06-04T14:06:35.000Z</time>
      </trkpt>
      <trkpt lat="47.52555" lon="6.71243">
        <ele>353.347</ele>
        <time>2016-06-04T14:06:36.000Z</time>
      </trkpt>
      <trkpt lat="47.52551" lon="6.71242">
        <ele>353.368</ele>
        <time>2016-06-04T14:06:37.000Z</time>
      </trkpt>
      <trkpt lat="47.52547" lon="6.7124">
        <ele>353.381</ele>
        <time>2016-06-04T14:06:38.000Z</time>
      </trkpt>
      <trkpt lat="47.52544" lon="6.71239">
        <ele>353.391</ele>
        <time>2016-06-04T14:06:39.000Z</time>
      </trkpt>
      <trkpt lat="47.5254" lon="6.71237">
        <ele>353.398</ele>
        <time>2016-06-04T14:06:40.000Z</time>
      </trkpt>
      <trkpt lat="47.52537" lon="6.71235">
        <ele>353.406</ele>
        <time>2016-06-04T14:06:41.000Z</time>
      </trkpt>
      <trkpt lat="47.52534" lon="6.71233">
        <ele>353.415</ele>
        <time>2016-06-04T14:06:42.000Z</time>
      </trkpt>
      <trkpt lat="47.52531" lon="6.71231">
        <ele>353.427</ele>
        <time>2016-06-04T14:06:43.000Z</time>
      </trkpt>
      <trkpt lat="47.52527" lon="6.71228">
        <ele>353.443</ele>
        <time>2016-06-04T14:06:44.000Z</time>
      </trkpt>
      <trkpt lat="47.52524" lon="6.71226">
        <ele>353.465</ele>
        <time>2016-06-04T14:06:45.000Z</time>
      </trkpt>
      <trkpt lat="47.52521" lon="6.71223">
        <ele>353.495</ele>
        <time>2016-06-04T14:06:46.000Z</time>
      </trkpt>
      <trkpt lat="47.52518" lon="6.7122">
        <ele>353.536</ele>
        <time>2016-06-04T14:06:47.000Z</time>
      </trkpt>
      <trkpt lat="47.52515" lon="6.71218">
        <ele>353.59</ele>
        <time>2016-06-04T14:06:48.000Z</time>
      </trkpt>
      <trkpt lat="47.52512" lon="6.71215">
        <ele>353.66</ele>
        <time>2016-06-04T14:06:49.000Z</time>
      </trkpt>
      <trkpt lat="47.52509" lon="6.71211">
        <ele>353.748</ele>
        <time>2016-06-04T14:06:50.000Z</time>
      </trkpt>
      <trkpt lat="47.52506" lon="6.71208">
        <ele>353.856</ele>
        <time>2016-06-04T14:06:51.000Z</time>
      </trkpt>
      <trkpt lat="47.52503" lon="6.71204">
        <ele>353.987</ele>
        <time>2016-06-04T14:06:52.000Z</time>
      </trkpt>
      <trkpt lat="47.525" lon="6.712">
        <ele>354.143</ele>
        <time>2016-06-04T14:06:53.000Z</time>
      </trkpt>
      <trkpt lat="47.52498" lon="6.71196">
        <ele>354.326</ele>
        <time>2016-06-04T14:06:54.000Z</time>
      </trkpt>
      <trkpt lat="47.52495" lon="6.71192">
        <ele>354.539</ele>
        <time>2016-06-04T14:06:55.000Z</time>
      </trkpt>
      <trkpt lat="47.52493" lon="6.71188">
        <ele>354.782</ele>
        <time>2016-06-04T14:06:56.000Z</time>
      </trkpt>
      <trkpt lat="47.52491" lon="6.71185">
        <ele>355.056</ele>
        <time>2016-06-04T14:06:57.000Z</time>
      </trkpt>
      <trkpt lat="47.52488" lon="6.71181">
        <ele>355.36</ele>
        <time>2016-06-04T14:06:58.000Z</time>
      </trkpt>
      <trkpt lat="47.52486" lon="6.71179">
        <ele>355.695</ele>
        <time>2016-06-04T14:06:59.000Z</time>
      </trkpt>
      <trkpt lat="47.52484" lon="6.71176">
        <ele>356.056</ele>
        <time>2016-06-04T14:07:00.000Z</time>
      </trkpt>
      <trkpt lat="47.52482" lon="6.71175">
        <ele>356.439</ele>
        <time>2016-06-04T14:07:01.000Z</time>
      </trkpt>
      <trkpt lat="47.5248" lon="6.71174">
        <ele>356.839</ele>
        <time>2016-06-04T14:07:02.000Z</time>
      </trkpt>
      <trkpt lat="47.52477" lon="6.71173">
        <ele>357.251</ele>
        <time>2016-06-04T14:07:03.000Z</time>
      </trkpt>
      <trkpt lat="47.52474" lon="6.71172">
        <ele>357.668</ele>
        <time>2016-06-04T14:07:04.000Z</time>
      </trkpt>
      <trkpt lat="47.52471" lon="6.71172">
        <ele>358.085</ele>
        <time>2016-06-04T14:07:05.000Z</time>
      </trkpt>
      <trkpt lat="47.52467" lon="6.71172">
        <ele>358.495</ele>
        <time>2016-06-04T14:07:06.000Z</time>
      </trkpt>
      <trkpt lat="47.52464" lon="6.71172">
        <ele>358.895</ele>
        <time>2016-06-04T14:07:07.000Z</time>
      </trkpt>
      <trkpt lat="47.5246" lon="6.71172">
        <ele>359.28</ele>
        <time>2016-06-04T14:07:08.000Z</time>
      </trkpt>
      <trkpt lat="47.52457" lon="6.71173">
        <ele>359.647</ele>
        <time>2016-06-04T14:07:09.000Z</time>
      </trkpt>
      <trkpt lat="47.52453" lon="6.71174">
        <ele>359.995</ele>
        <time>2016-06-04T14:07:10.000Z</time>
      </trkpt>
      <trkpt lat="47.52449" lon="6.71174">
        <ele>360.323</ele>
        <time>2016-06-04T14:07:11.000Z</time>
      </trkpt>
      <trkpt lat="47.52446" lon="6.71175">
        <ele>360.633</ele>
        <time>2016-06-04T14:07:12.000Z</time>
      </trkpt>
      <trkpt lat="47.52442" lon="6.71175">
        <ele>360.925</ele>
        <time>2016-06-04T14:07:13.000Z</time>
      </trkpt>
      <trkpt lat="47.52439" lon="6.71176">
        <ele>361.202</ele>
        <time>2016-06-04T14:07:14.000Z</time>
      </trkpt>
      <trkpt lat="47.52436" lon="6.71176">
        <ele>361.467</ele>
        <time>2016-06-04T14:07:15.000Z</time>
      </trkpt>
      <trkpt lat="47.52432" lon="6.71177">
        <ele>361.722</ele>
        <time>2016-06-04T14:07:16.000Z</time>
      </trkpt>
      <trkpt lat="47.52429" lon="6.71178">
        <ele>361.969</ele>
        <time>2016-06-04T14:07:17.000Z</time>
      </trkpt>
      <trkpt lat="47.52426" lon="6.71179">
        <ele>362.211</ele>
        <time>2016-06-04T14:07:18.000Z</time>
      </trkpt>
      <trkpt lat="47.52423" lon="6.7118">
        <ele>362.449</ele>
        <time>2016-06-04T14:07:19.000Z</time>
      </trkpt>
      <trkpt lat="47.5242" lon="6.71182">
        <ele>362.684</ele>
        <time>2016-06-04T14:07:20.000Z</time>
      </trkpt>
      <trkpt lat="47.52416" lon="6.71183">
        <ele>362.919</ele>
        <time>2016-06-04T14:07:21.000Z</time>
      </trkpt>
      <trkpt lat="47.52413" lon="6.71184">
        <ele>363.154</ele>
        <time>2016-06-04T14:07:22.000Z</time>
      </trkpt>
      <trkpt lat="47.5241" lon="6.71184">
        <ele>363.391</ele>
        <time>2016-06-04T14:07:23.000Z</time>
      </trkpt>
      <trkpt lat="47.52407" lon="6.71185">
        <ele>363.63</ele>
        <time>2016-06-04T14:07:24.000Z</time>
      </trkpt>
      <trkpt lat="47.52403" lon="6.71185">
        <ele>363.872</ele>
        <time>2016-06-04T14:07:25.000Z</time>
      </trkpt>
      <trkpt lat="47.524" lon="6.71186">
        <ele>364.117</ele>
        <time>2016-06-04T14:07:26.000Z</time>
      </trkpt>
      <trkpt lat="47.52397" lon="6.71186">
        <ele>364.365</ele>
        <time>2016-06-04T14:07:27.000Z</time>
      </trkpt>
      <trkpt lat="47.52394" lon="6.71186">
        <ele>364.617</ele>
        <time>2016-06-04T14:07:28.000Z</time>
      </trkpt>
      <trkpt lat="47.5239" lon="6.71186">
        <ele>364.873</ele>
        <time>2016-06-04T14:07:29.000Z</time>
      </trkpt>
      <trkpt lat="47.52387" lon="6.71186">
        <ele>365.13</ele>
        <time>2016-06-04T14:07:30.000Z</time>
      </trkpt>
      <trkpt lat="47.52384" lon="6.71185">
        <ele>365.386</ele>
        <time>2016-06-04T14:07:31.000Z</time>
      </trkpt>
      <trkpt lat="47.52381" lon="6.71185">
        <ele>365.639</ele>
        <time>2016-06-04T14:07:32.000Z</time>
      </trkpt>
      <trkpt lat="47.52378" lon="6.71184">
        <ele>365.884</ele>
        <time>2016-06-04T14:07:33.000Z</time>
      </trkpt>
      <trkpt lat="47.52375" lon="6.71184">
        <ele>366.119</ele>
        <time>2016-06-04T14:07:34.000Z</time>
      </trkpt>
      <trkpt lat="47.52372" lon="6.71183">
        <ele>366.34</ele>
        <time>2016-06-04T14:07:35.000Z</time>
      </trkpt>
      <trkpt lat="47.52369" lon="6.71182">
        <ele>366.545</ele>
        <time>2016-06-04T14:07:36.000Z</time>
      </trkpt>
      <trkpt lat="47.52367" lon="6.71181">
        <ele>366.73</ele>
        <time>2016-06-04T14:07:37.000Z</time>
      </trkpt>
      <trkpt lat="47.52365" lon="6.71179">
        <ele>366.893</ele>
        <time>2016-06-04T14:07:38.000Z</time>
      </trkpt>
      <trkpt lat="47.52363" lon="6.71177">
        <ele>367.032</ele>
        <time>2016-06-04T14:07:39.000Z</time>
      </trkpt>
      <trkpt lat="47.52361" lon="6.71176">
        <ele>367.145</ele>
        <time>2016-06-04T14:07:40.000Z</time>
      </trkpt>
      <trkpt lat="47.52358" lon="6.71173">
        <ele>367.231</ele>
        <time>2016-06-04T14:07:41.000Z</time>
      </trkpt>
      <trkpt lat="47.52356" lon="6.7117">
        <ele>367.29</ele>
        <time>2016-06-04T14:07:42.000Z</time>
      </trkpt>
      <trkpt lat="47.52354" lon="6.71167">
        <ele>367.324</ele>
        <time>2016-06-04T14:07:43.000Z</time>
      </trkpt>
      <trkpt lat="47.52352" lon="6.71165">
        <ele>367.335</ele>
        <time>2016-06-04T14:07:44.000Z</time>
      </trkpt>
      <trkpt lat="47.5235" lon="6.71162">
        <ele>367.325</ele>
        <time>2016-06-04T14:07:45.000Z</time>
      </trkpt>
      <trkpt lat="47.52347" lon="6.7116">
        <ele>367.298</ele>
        <time>2016-06-04T14:07:46.000Z</time>
      </trkpt>
      <trkpt lat="47.52344" lon="6.71159">
        <ele>367.26</ele>
        <time>2016-06-04T14:07:47.000Z</time>
      </trkpt>
      <trkpt lat="47.52341" lon="6.71158">
        <ele>367.216</ele>
        <time>2016-06-04T14:07:48.000Z</time>
      </trkpt>
      <trkpt lat="47.52338" lon="6.71157">
        <ele>367.169</ele>
        <time>2016-06-04T14:07:49.000Z</time>
      </trkpt>
      <trkpt lat="47.52334" lon="6.71156">
        <ele>367.127</ele>
        <time>2016-06-04T14:07:50.000Z</time>
      </trkpt>
      <trkpt lat="47.52331" lon="6.71156">
        <ele>367.094</ele>
        <time>2016-06-04T14:07:51.000Z</time>
      </trkpt>
      <trkpt lat="47.52327" lon="6.71156">
        <ele>367.075</ele>
        <time>2016-06-04T14:07:52.000Z</time>
      </trkpt>
      <trkpt lat="47.52323" lon="6.71158">
        <ele>367.075</ele>
        <time>2016-06-04T14:07:53.000Z</time>
      </trkpt>
      <trkpt lat="47.5232" lon="6.7116">
        <ele>367.094</ele>
        <time>2016-06-04T14:07:54.000Z</time>
      </trkpt>
      <trkpt lat="47.52317" lon="6.71163">
        <ele>367.135</ele>
        <time>2016-06-04T14:07:55.000Z</time>
      </trkpt>
      <trkpt lat="47.52314" lon="6.71166">
        <ele>367.196</ele>
        <time>2016-06-04T14:07:56.000Z</time>
      </trkpt>
      <trkpt lat="47.52311" lon="6.7117">
        <ele>367.277</ele>
        <time>2016-06-04T14:07:57.000Z</time>
      </trkpt>
      <trkpt lat="47.52309" lon="6.71173">
        <ele>367.377</ele>
        <time>2016-06-04T14:07:58.000Z</time>
      </trkpt>
      <trkpt lat="47.52306" lon="6.71177">
        <ele>367.493</ele>
        <time>2016-06-04T14:07:59.000Z</time>
      </trkpt>
      <trkpt lat="47.52304" lon="6.7118">
        <ele>367.623</ele>
        <time>2016-06-04T14:08:00.000Z</time>
      </trkpt>
      <trkpt lat="47.52301" lon="6.71184">
        <ele>367.763</ele>
        <time>2016-06-04T14:08:01.000Z</time>
      </trkpt>
      <trkpt lat="47.52298" lon="6.71188">
        <ele>367.909</ele>
        <time>2016-06-04T14:08:02.000Z</time>
      </trkpt>
      <trkpt lat="47.52296" lon="6.71192">
        <ele>368.056</ele>
        <time>2016-06-04T14:08:03.000Z</time>
      </trkpt>
      <trkpt lat="47.52293" lon="6.71195">
        <ele>368.2</ele>
        <time>2016-06-04T14:08:04.000Z</time>
      </trkpt>
      <trkpt lat="47.52291" lon="6.71199">
        <ele>368.336</ele>
        <time>2016-06-04T14:08:05.000Z</time>
      </trkpt>
      <trkpt lat="47.52289" lon="6.71202">
        <ele>368.461</ele>
        <time>2016-06-04T14:08:06.000Z</time>
      </trkpt>
      <trkpt lat="47.52286" lon="6.71206">
        <ele>368.573</ele>
        <time>2016-06-04T14:08:07.000Z</time>
      </trkpt>
      <trkpt lat="47.52283" lon="6.71209">
        <ele>368.671</ele>
        <time>2016-06-04T14:08:08.000Z</time>
      </trkpt>
      <trkpt lat="47.52281" lon="6.71212">
        <ele>368.752</ele>
        <time>2016-06-04T14:08:09.000Z</time>
      </trkpt>
      <trkpt lat="47.52278" lon="6.71215">
        <ele>368.815</ele>
        <time>2016-06-04T14:08:10.000Z</time>
      </trkpt>
      <trkpt lat="47.52275" lon="6.71217">
        <ele>368.859</ele>
        <time>2016-06-04T14:08:11.000Z</time>
      </trkpt>
      <trkpt lat="47.52272" lon="6.71219">
        <ele>368.882</ele>
        <time>2016-06-04T14:08:12.000Z</time>
      </trkpt>
      <trkpt lat="47.5227" lon="6.7122">
        <ele>368.884</ele>
        <time>2016-06-04T14:08:13.000Z</time>
      </trkpt>
      <trkpt lat="47.52266" lon="6.7122">
        <ele>368.866</ele>
        <time>2016-06-04T14:08:14.000Z</time>
      </trkpt>
      <trkpt lat="47.52263" lon="6.71219">
        <ele>368.826</ele>
        <time>2016-06-04T14:08:15.000Z</time>
      </trkpt>
      <trkpt lat="47.5226" lon="6.71217">
        <ele>368.763</ele>
        <time>2016-06-04T14:08:16.000Z</time>
      </trkpt>
      <trkpt lat="47.52257" lon="6.71214">
        <ele>368.677</ele>
        <time>2016-06-04T14:08:17.000Z</time>
      </trkpt>
      <trkpt lat="47.52255" lon="6.7121">
        <ele>368.566</ele>
        <time>2016-06-04T14:08:18.000Z</time>
      </trkpt>
      <trkpt lat="47.52252" lon="6.71206">
        <ele>368.43</ele>
        <time>2016-06-04T14:08:19.000Z</time>
      </trkpt>
      <trkpt lat="47.5225" lon="6.71202">
        <ele>368.267</ele>
        <time>2016-06-04T14:08:20.000Z</time>
      </trkpt>
      <trkpt lat="47.52247" lon="6.71198">
        <ele>368.077</ele>
        <time>2016-06-04T14:08:21.000Z</time>
      </trkpt>
      <trkpt lat="47.52245" lon="6.71193">
        <ele>367.862</ele>
        <time>2016-06-04T14:08:22.000Z</time>
      </trkpt>
      <trkpt lat="47.52242" lon="6.71188">
        <ele>367.622</ele>
        <time>2016-06-04T14:08:23.000Z</time>
      </trkpt>
      <trkpt lat="47.52239" lon="6.71183">
        <ele>367.362</ele>
        <time>2016-06-04T14:08:24.000Z</time>
      </trkpt>
      <trkpt lat="47.52236" lon="6.71178">
        <ele>367.083</ele>
        <time>2016-06-04T14:08:25.000Z</time>
      </trkpt>
      <trkpt lat="47.52233" lon="6.71172">
        <ele>366.79</ele>
        <time>2016-06-04T14:08:26.000Z</time>
      </trkpt>
      <trkpt lat="47.5223" lon="6.71166">
        <ele>366.486</ele>
        <time>2016-06-04T14:08:27.000Z</time>
      </trkpt>
      <trkpt lat="47.52227" lon="6.7116">
        <ele>366.174</ele>
        <time>2016-06-04T14:08:28.000Z</time>
      </trkpt>
      <trkpt lat="47.52223" lon="6.71154">
        <ele>365.86</ele>
        <time>2016-06-04T14:08:29.000Z</time>
      </trkpt>
      <trkpt lat="47.5222" lon="6.71148">
        <ele>365.545</ele>
        <time>2016-06-04T14:08:30.000Z</time>
      </trkpt>
      <trkpt lat="47.52215" lon="6.71141">
        <ele>365.234</ele>
        <time>2016-06-04T14:08:31.000Z</time>
      </trkpt>
      <trkpt lat="47.52211" lon="6.71135">
        <ele>364.93</ele>
        <time>2016-06-04T14:08:32.000Z</time>
      </trkpt>
      <trkpt lat="47.52207" lon="6.71129">
        <ele>364.636</ele>
        <time>2016-06-04T14:08:33.000Z</time>
      </trkpt>
      <trkpt lat="47.52202" lon="6.71123">
        <ele>364.357</ele>
        <time>2016-06-04T14:08:34.000Z</time>
      </trkpt>
      <trkpt lat="47.52197" lon="6.71117">
        <ele>364.096</ele>
        <time>2016-06-04T14:08:35.000Z</time>
      </trkpt>
      <trkpt lat="47.52192" lon="6.71111">
        <ele>363.854</ele>
        <time>2016-06-04T14:08:36.000Z</time>
      </trkpt>
      <trkpt lat="47.52187" lon="6.71106">
        <ele>363.633</ele>
        <time>2016-06-04T14:08:37.000Z</time>
      </trkpt>
      <trkpt lat="47.52182" lon="6.711">
        <ele>363.431</ele>
        <time>2016-06-04T14:08:38.000Z</time>
      </trkpt>
      <trkpt lat="47.52177" lon="6.71095">
        <ele>363.245</ele>
        <time>2016-06-04T14:08:39.000Z</time>
      </trkpt>
      <trkpt lat="47.52172" lon="6.7109">
        <ele>363.073</ele>
        <time>2016-06-04T14:08:40.000Z</time>
      </trkpt>
      <trkpt lat="47.52167" lon="6.71086">
        <ele>362.911</ele>
        <time>2016-06-04T14:08:41.000Z</time>
      </trkpt>
      <trkpt lat="47.52163" lon="6.71082">
        <ele>362.754</ele>
        <time>2016-06-04T14:08:42.000Z</time>
      </trkpt>
      <trkpt lat="47.52158" lon="6.71079">
        <ele>362.598</ele>
        <time>2016-06-04T14:08:43.000Z</time>
      </trkpt>
      <trkpt lat="47.52153" lon="6.71075">
        <ele>362.438</ele>
        <time>2016-06-04T14:08:44.000Z</time>
      </trkpt>
      <trkpt lat="47.52148" lon="6.71072">
        <ele>362.271</ele>
        <time>2016-06-04T14:08:45.000Z</time>
      </trkpt>
      <trkpt lat="47.52143" lon="6.71069">
        <ele>362.097</ele>
        <time>2016-06-04T14:08:46.000Z</time>
      </trkpt>
      <trkpt lat="47.52138" lon="6.71066">
        <ele>361.914</ele>
        <time>2016-06-04T14:08:47.000Z</time>
      </trkpt>
      <trkpt lat="47.52134" lon="6.71063">
        <ele>361.727</ele>
        <time>2016-06-04T14:08:48.000Z</time>
      </trkpt>
      <trkpt lat="47.5213" lon="6.71061">
        <ele>361.539</ele>
        <time>2016-06-04T14:08:49.000Z</time>
      </trkpt>
      <trkpt lat="47.52126" lon="6.71059">
        <ele>361.356</ele>
        <time>2016-06-04T14:08:50.000Z</time>
      </trkpt>
      <trkpt lat="47.52123" lon="6.71057">
        <ele>361.187</ele>
        <time>2016-06-04T14:08:51.000Z</time>
      </trkpt>
      <trkpt lat="47.5212" lon="6.71054">
        <ele>361.04</ele>
        <time>2016-06-04T14:08:52.000Z</time>
      </trkpt>
      <trkpt lat="47.52116" lon="6.71051">
        <ele>360.924</ele>
        <time>2016-06-04T14:08:53.000Z</time>
      </trkpt>
      <trkpt lat="47.52112" lon="6.71047">
        <ele>360.846</ele>
        <time>2016-06-04T14:08:54.000Z</time>
      </trkpt>
      <trkpt lat="47.52108" lon="6.71043">
        <ele>360.812</ele>
        <time>2016-06-04T14:08:55.000Z</time>
      </trkpt>
      <trkpt lat="47.52104" lon="6.71039">
        <ele>360.827</ele>
        <time>2016-06-04T14:08:56.000Z</time>
      </trkpt>
      <trkpt lat="47.52099" lon="6.71035">
        <ele>360.891</ele>
        <time>2016-06-04T14:08:57.000Z</time>
      </trkpt>
      <trkpt lat="47.52094" lon="6.7103">
        <ele>361.001</ele>
        <time>2016-06-04T14:08:58.000Z</time>
      </trkpt>
      <trkpt lat="47.52089" lon="6.71025">
        <ele>361.151</ele>
        <time>2016-06-04T14:08:59.000Z</time>
      </trkpt>
      <trkpt lat="47.52084" lon="6.7102">
        <ele>361.334</ele>
        <time>2016-06-04T14:09:00.000Z</time>
      </trkpt>
      <trkpt lat="47.5208" lon="6.71014">
        <ele>361.539</ele>
        <time>2016-06-04T14:09:01.000Z</time>
      </trkpt>
      <trkpt lat="47.52076" lon="6.71009">
        <ele>361.758</ele>
        <time>2016-06-04T14:09:02.000Z</time>
      </trkpt>
      <trkpt lat="47.52073" lon="6.71004">
        <ele>361.98</ele>
        <time>2016-06-04T14:09:03.000Z</time>
      </trkpt>
      <trkpt lat="47.5207" lon="6.71">
        <ele>362.195</ele>
        <time>2016-06-04T14:09:04.000Z</time>
      </trkpt>
      <trkpt lat="47.52066" lon="6.70996">
        <ele>362.398</ele>
        <time>2016-06-04T14:09:05.000Z</time>
      </trkpt>
      <trkpt lat="47.52062" lon="6.70991">
        <ele>362.585</ele>
        <time>2016-06-04T14:09:06.000Z</time>
      </trkpt>
      <trkpt lat="47.52058" lon="6.70987">
        <ele>362.752</ele>
        <time>2016-06-04T14:09:07.000Z</time>
      </trkpt>
      <trkpt lat="47.52054" lon="6.70982">
        <ele>362.898</ele>
        <time>2016-06-04T14:09:08.000Z</time>
      </trkpt>
      <trkpt lat="47.5205" lon="6.70978">
        <ele>363.021</ele>
        <time>2016-06-04T14:09:09.000Z</time>
      </trkpt>
      <trkpt lat="47.52046" lon="6.70974">
        <ele>363.121</ele>
        <time>2016-06-04T14:09:10.000Z</time>
      </trkpt>
      <trkpt lat="47.52043" lon="6.7097">
        <ele>363.198</ele>
        <time>2016-06-04T14:09:11.000Z</time>
      </trkpt>
      <trkpt lat="47.52039" lon="6.70966">
        <ele>363.255</ele>
        <time>2016-06-04T14:09:12.000Z</time>
      </trkpt>
      <trkpt lat="47.52035" lon="6.70962">
        <ele>363.292</ele>
        <time>2016-06-04T14:09:13.000Z</time>
      </trkpt>
      <trkpt lat="47.52031" lon="6.70958">
        <ele>363.31</ele>
        <time>2016-06-04T14:09:14.000Z</time>
      </trkpt>
      <trkpt lat="47.52027" lon="6.70955">
        <ele>363.312</ele>
        <time>2016-06-04T14:09:15.000Z</time>
      </trkpt>
      <trkpt lat="47.52023" lon="6.70951">
        <ele>363.298</ele>
        <time>2016-06-04T14:09:16.000Z</time>
      </trkpt>
      <trkpt lat="47.5202" lon="6.70947">
        <ele>363.269</ele>
        <time>2016-06-04T14:09:17.000Z</time>
      </trkpt>
      <trkpt lat="47.52016" lon="6.70942">
        <ele>363.228</ele>
        <time>2016-06-04T14:09:18.000Z</time>
      </trkpt>
      <trkpt lat="47.52012" lon="6.70938">
        <ele>363.181</ele>
        <time>2016-06-04T14:09:19.000Z</time>
      </trkpt>
      <trkpt lat="47.52008" lon="6.70933">
        <ele>363.134</ele>
        <time>2016-06-04T14:09:20.000Z</time>
      </trkpt>
      <trkpt lat="47.52003" lon="6.70928">
        <ele>363.094</ele>
        <time>2016-06-04T14:09:21.000Z</time>
      </trkpt>
      <trkpt lat="47.51998" lon="6.70924">
        <ele>363.066</ele>
        <time>2016-06-04T14:09:22.000Z</time>
      </trkpt>
      <trkpt lat="47.51994" lon="6.70919">
        <ele>363.055</ele>
        <time>2016-06-04T14:09:23.000Z</time>
      </trkpt>
      <trkpt lat="47.51989" lon="6.70915">
        <ele>363.065</ele>
        <time>2016-06-04T14:09:24.000Z</time>
      </trkpt>
      <trkpt lat="47.51984" lon="6.70911">
        <ele>363.096</ele>
        <time>2016-06-04T14:09:25.000Z</time>
      </trkpt>
      <trkpt lat="47.51979" lon="6.70907">
        <ele>363.151</ele>
        <time>2016-06-04T14:09:26.000Z</time>
      </trkpt>
      <trkpt lat="47.51975" lon="6.70904">
        <ele>363.231</ele>
        <time>2016-06-04T14:09:27.000Z</time>
      </trkpt>
      <trkpt lat="47.51971" lon="6.70901">
        <ele>363.335</ele>
        <time>2016-06-04T14:09:28.000Z</time>
      </trkpt>
      <trkpt lat="47.51966" lon="6.70898">
        <ele>363.462</ele>
        <time>2016-06-04T14:09:29.000Z</time>
      </trkpt>
      <trkpt lat="47.51962" lon="6.70895">
        <ele>363.61</ele>
        <time>2016-06-04T14:09:30.000Z</time>
      </trkpt>
      <trkpt lat="47.51958" lon="6.70892">
        <ele>363.777</ele>
        <time>2016-06-04T14:09:31.000Z</time>
      </trkpt>
      <trkpt lat="47.51954" lon="6.70889">
        <ele>363.958</ele>
        <time>2016-06-04T14:09:32.000Z</time>
      </trkpt>
      <trkpt lat="47.5195" lon="6.70886">
        <ele>364.15</ele>
        <time>2016-06-04T14:09:33.000Z</time>
      </trkpt>
      <trkpt lat="47.51946" lon="6.70883">
        <ele>364.347</ele>
        <time>2016-06-04T14:09:34.000Z</time>
      </trkpt>
      <trkpt lat="47.51942" lon="6.7088">
        <ele>364.546</ele>
        <time>2016-06-04T14:09:35.000Z</time>
      </trkpt>
      <trkpt lat="47.51937" lon="6.70877">
        <ele>364.744</ele>
        <time>2016-06-04T14:09:36.000Z</time>
      </trkpt>
      <trkpt lat="47.51933" lon="6.70874">
        <ele>364.938</ele>
        <time>2016-06-04T14:09:37.000Z</time>
      </trkpt>
      <trkpt lat="47.51929" lon="6.70871">
        <ele>365.125</ele>
        <time>2016-06-04T14:09:38.000Z</time>
      </trkpt>
      <trkpt lat="47.51924" lon="6.70867">
        <ele>365.302</ele>
        <time>2016-06-04T14:09:39.000Z</time>
      </trkpt>
      <trkpt lat="47.5192" lon="6.70864">
        <ele>365.469</ele>
        <time>2016-06-04T14:09:40.000Z</time>
      </trkpt>
      <trkpt lat="47.51916" lon="6.70861">
        <ele>365.622</ele>
        <time>2016-06-04T14:09:41.000Z</time>
      </trkpt>
      <trkpt lat="47.51911" lon="6.70858">
        <ele>365.76</ele>
        <time>2016-06-04T14:09:42.000Z</time>
      </trkpt>
      <trkpt lat="47.51907" lon="6.70855">
        <ele>365.879</ele>
        <time>2016-06-04T14:09:43.000Z</time>
      </trkpt>
      <trkpt lat="47.51903" lon="6.70852">
        <ele>365.977</ele>
        <time>2016-06-04T14:09:44.000Z</time>
      </trkpt>
      <trkpt lat="47.51898" lon="6.70849">
        <ele>366.052</ele>
        <time>2016-06-04T14:09:45.000Z</time>
      </trkpt>
      <trkpt lat="47.51894" lon="6.70846">
        <ele>366.098</ele>
        <time>2016-06-04T14:09:46.000Z</time>
      </trkpt>
      <trkpt lat="47.5189" lon="6.70842">
        <ele>366.113</ele>
        <time>2016-06-04T14:09:47.000Z</time>
      </trkpt>
      <trkpt lat="47.51886" lon="6.70839">
        <ele>366.094</ele>
        <time>2016-06-04T14:09:48.000Z</time>
      </trkpt>
      <trkpt lat="47.51882" lon="6.70836">
        <ele>366.038</ele>
        <time>2016-06-04T14:09:49.000Z</time>
      </trkpt>
      <trkpt lat="47.51878" lon="6.70832">
        <ele>365.946</ele>
        <time>2016-06-04T14:09:50.000Z</time>
      </trkpt>
      <trkpt lat="47.51874" lon="6.70829">
        <ele>365.817</ele>
        <time>2016-06-04T14:09:51.000Z</time>
      </trkpt>
      <trkpt lat="47.5187" lon="6.70825">
        <ele>365.654</ele>
        <time>2016-06-04T14:09:52.000Z</time>
      </trkpt>
      <trkpt lat="47.51866" lon="6.70821">
        <ele>365.459</ele>
        <time>2016-06-04T14:09:53.000Z</time>
      </trkpt>
      <trkpt lat="47.51861" lon="6.70817">
        <ele>365.234</ele>
        <time>2016-06-04T14:09:54.000Z</time>
      </trkpt>
      <trkpt lat="47.51857" lon="6.70813">
        <ele>364.982</ele>
        <time>2016-06-04T14:09:55.000Z</time>
      </trkpt>
      <trkpt lat="47.51853" lon="6.7081">
        <ele>364.707</ele>
        <time>2016-06-04T14:09:56.000Z</time>
      </trkpt>
      <trkpt lat="47.51848" lon="6.70806">
        <ele>364.41</ele>
        <time>2016-06-04T14:09:57.000Z</time>
      </trkpt>
      <trkpt lat="47.51844" lon="6.70802">
        <ele>364.095</ele>
        <time>2016-06-04T14:09:58.000Z</time>
      </trkpt>
      <trkpt lat="47.5184" lon="6.70799">
        <ele>363.765</ele>
        <time>2016-06-04T14:09:59.000Z</time>
      </trkpt>
      <trkpt lat="47.51836" lon="6.70795">
        <ele>363.424</ele>
        <time>2016-06-04T14:10:00.000Z</time>
      </trkpt>
      <trkpt lat="47.51831" lon="6.70791">
        <ele>363.075</ele>
        <time>2016-06-04T14:10:01.000Z</time>
      </trkpt>
      <trkpt lat="47.51827" lon="6.70787">
        <ele>362.724</ele>
        <time>2016-06-04T14:10:02.000Z</time>
      </trkpt>
      <trkpt lat="47.51823" lon="6.70784">
        <ele>362.375</ele>
        <time>2016-06-04T14:10:03.000Z</time>
      </trkpt>
      <trkpt lat="47.51819" lon="6.7078">
        <ele>362.033</ele>
        <time>2016-06-04T14:10:04.000Z</time>
      </trkpt>
      <trkpt lat="47.51814" lon="6.70777">
        <ele>361.702</ele>
        <time>2016-06-04T14:10:05.000Z</time>
      </trkpt>
      <trkpt lat="47.5181" lon="6.70773">
        <ele>361.386</ele>
        <time>2016-06-04T14:10:06.000Z</time>
      </trkpt>
      <trkpt lat="47.51806" lon="6.7077">
        <ele>361.09</ele>
        <time>2016-06-04T14:10:07.000Z</time>
      </trkpt>
      <trkpt lat="47.51802" lon="6.70766">
        <ele>360.815</ele>
        <time>2016-06-04T14:10:08.000Z</time>
      </trkpt>
      <trkpt lat="47.51798" lon="6.70762">
        <ele>360.566</ele>
        <time>2016-06-04T14:10:09.000Z</time>
      </trkpt>
      <trkpt lat="47.51794" lon="6.70759">
        <ele>360.343</ele>
        <time>2016-06-04T14:10:10.000Z</time>
      </trkpt>
      <trkpt lat="47.51791" lon="6.70755">
        <ele>360.146</ele>
        <time>2016-06-04T14:10:11.000Z</time>
      </trkpt>
      <trkpt lat="47.51787" lon="6.70751">
        <ele>359.978</ele>
        <time>2016-06-04T14:10:12.000Z</time>
      </trkpt>
      <trkpt lat="47.51783" lon="6.70748">
        <ele>359.836</ele>
        <time>2016-06-04T14:10:13.000Z</time>
      </trkpt>
      <trkpt lat="47.51779" lon="6.70744">
        <ele>359.72</ele>
        <time>2016-06-04T14:10:14.000Z</time>
      </trkpt>
      <trkpt lat="47.51775" lon="6.70741">
        <ele>359.627</ele>
        <time>2016-06-04T14:10:15.000Z</time>
      </trkpt>
      <trkpt lat="47.51771" lon="6.70738">
        <ele>359.556</ele>
        <time>2016-06-04T14:10:16.000Z</time>
      </trkpt>
      <trkpt lat="47.51767" lon="6.70734">
        <ele>359.505</ele>
        <time>2016-06-04T14:10:17.000Z</time>
      </trkpt>
      <trkpt lat="47.51764" lon="6.70731">
        <ele>359.475</ele>
        <time>2016-06-04T14:10:18.000Z</time>
      </trkpt>
      <trkpt lat="47.5176" lon="6.70727">
        <ele>359.465</ele>
        <time>2016-06-04T14:10:19.000Z</time>
      </trkpt>
      <trkpt lat="47.51756" lon="6.70724">
        <ele>359.476</ele>
        <time>2016-06-04T14:10:20.000Z</time>
      </trkpt>
      <trkpt lat="47.51752" lon="6.7072">
        <ele>359.507</ele>
        <time>2016-06-04T14:10:21.000Z</time>
      </trkpt>
      <trkpt lat="47.51748" lon="6.70717">
        <ele>359.556</ele>
        <time>2016-06-04T14:10:22.000Z</time>
      </trkpt>
      <trkpt lat="47.51744" lon="6.70713">
        <ele>359.623</ele>
        <time>2016-06-04T14:10:23.000Z</time>
      </trkpt>
      <trkpt lat="47.5174" lon="6.70708">
        <ele>359.707</ele>
        <time>2016-06-04T14:10:24.000Z</time>
      </trkpt>
      <trkpt lat="47.51736" lon="6.70704">
        <ele>359.806</ele>
        <time>2016-06-04T14:10:25.000Z</time>
      </trkpt>
      <trkpt lat="47.51733" lon="6.70699">
        <ele>359.915</ele>
        <time>2016-06-04T14:10:26.000Z</time>
      </trkpt>
      <trkpt lat="47.5173" lon="6.70695">
        <ele>360.031</ele>
        <time>2016-06-04T14:10:27.000Z</time>
      </trkpt>
      <trkpt lat="47.51726" lon="6.70691">
        <ele>360.149</ele>
        <time>2016-06-04T14:10:28.000Z</time>
      </trkpt>
      <trkpt lat="47.51723" lon="6.70687">
        <ele>360.263</ele>
        <time>2016-06-04T14:10:29.000Z</time>
      </trkpt>
      <trkpt lat="47.51719" lon="6.70683">
        <ele>360.37</ele>
        <time>2016-06-04T14:10:30.000Z</time>
      </trkpt>
      <trkpt lat="47.51716" lon="6.70679">
        <ele>360.464</ele>
        <time>2016-06-04T14:10:31.000Z</time>
      </trkpt>
      <trkpt lat="47.51713" lon="6.70675">
        <ele>360.544</ele>
        <time>2016-06-04T14:10:32.000Z</time>
      </trkpt>
      <trkpt lat="47.5171" lon="6.70671">
        <ele>360.607</ele>
        <time>2016-06-04T14:10:33.000Z</time>
      </trkpt>
      <trkpt lat="47.51707" lon="6.70667">
        <ele>360.65</ele>
        <time>2016-06-04T14:10:34.000Z</time>
      </trkpt>
      <trkpt lat="47.51704" lon="6.70663">
        <ele>360.673</ele>
        <time>2016-06-04T14:10:35.000Z</time>
      </trkpt>
      <trkpt lat="47.51701" lon="6.7066">
        <ele>360.674</ele>
        <time>2016-06-04T14:10:36.000Z</time>
      </trkpt>
      <trkpt lat="47.51698" lon="6.70656">
        <ele>360.65</ele>
        <time>2016-06-04T14:10:37.000Z</time>
      </trkpt>
      <trkpt lat="47.51695" lon="6.70652">
        <ele>360.602</ele>
        <time>2016-06-04T14:10:38.000Z</time>
      </trkpt>
      <trkpt lat="47.51692" lon="6.70649">
        <ele>360.528</ele>
        <time>2016-06-04T14:10:39.000Z</time>
      </trkpt>
      <trkpt lat="47.51689" lon="6.70645">
        <ele>360.429</ele>
        <time>2016-06-04T14:10:40.000Z</time>
      </trkpt>
      <trkpt lat="47.51686" lon="6.70641">
        <ele>360.303</ele>
        <time>2016-06-04T14:10:41.000Z</time>
      </trkpt>
      <trkpt lat="47.51684" lon="6.70637">
        <ele>360.152</ele>
        <time>2016-06-04T14:10:42.000Z</time>
      </trkpt>
      <trkpt lat="47.51681" lon="6.70633">
        <ele>359.978</ele>
        <time>2016-06-04T14:10:43.000Z</time>
      </trkpt>
      <trkpt lat="47.51678" lon="6.70629">
        <ele>359.781</ele>
        <time>2016-06-04T14:10:44.000Z</time>
      </trkpt>
      <trkpt lat="47.51674" lon="6.70625">
        <ele>359.565</ele>
        <time>2016-06-04T14:10:45.000Z</time>
      </trkpt>
      <trkpt lat="47.51671" lon="6.70621">
        <ele>359.335</ele>
        <time>2016-06-04T14:10:46.000Z</time>
      </trkpt>
      <trkpt lat="47.51668" lon="6.70617">
        <ele>359.094</ele>
        <time>2016-06-04T14:10:47.000Z</time>
      </trkpt>
      <trkpt lat="47.51664" lon="6.70613">
        <ele>358.848</ele>
        <time>2016-06-04T14:10:48.000Z</time>
      </trkpt>
      <trkpt lat="47.51661" lon="6.70609">
        <ele>358.603</ele>
        <time>2016-06-04T14:10:49.000Z</time>
      </trkpt>
      <trkpt lat="47.51658" lon="6.70604">
        <ele>358.364</ele>
        <time>2016-06-04T14:10:50.000Z</time>
      </trkpt>
      <trkpt lat="47.51655" lon="6.70599">
        <ele>358.138</ele>
        <time>2016-06-04T14:10:51.000Z</time>
      </trkpt>
      <trkpt lat="47.51652" lon="6.70595">
        <ele>357.93</ele>
        <time>2016-06-04T14:10:52.000Z</time>
      </trkpt>
      <trkpt lat="47.51649" lon="6.7059">
        <ele>357.745</ele>
        <time>2016-06-04T14:10:53.000Z</time>
      </trkpt>
      <trkpt lat="47.51646" lon="6.70584">
        <ele>357.585</ele>
        <time>2016-06-04T14:10:54.000Z</time>
      </trkpt>
      <trkpt lat="47.51644" lon="6.70579">
        <ele>357.454</ele>
        <time>2016-06-04T14:10:55.000Z</time>
      </trkpt>
      <trkpt lat="47.51642" lon="6.70574">
        <ele>357.355</ele>
        <time>2016-06-04T14:10:56.000Z</time>
      </trkpt>
      <trkpt lat="47.51641" lon="6.70568">
        <ele>357.288</ele>
        <time>2016-06-04T14:10:57.000Z</time>
      </trkpt>
      <trkpt lat="47.5164" lon="6.70562">
        <ele>357.256</ele>
        <time>2016-06-04T14:10:58.000Z</time>
      </trkpt>
      <trkpt lat="47.51639" lon="6.70556">
        <ele>357.26</ele>
        <time>2016-06-04T14:10:59.000Z</time>
      </trkpt>
      <trkpt lat="47.51638" lon="6.7055">
        <ele>357.299</ele>
        <time>2016-06-04T14:11:00.000Z</time>
      </trkpt>
      <trkpt lat="47.51637" lon="6.70543">
        <ele>357.375</ele>
        <time>2016-06-04T14:11:01.000Z</time>
      </trkpt>
      <trkpt lat="47.51637" lon="6.70536">
        <ele>357.49</ele>
        <time>2016-06-04T14:11:02.000Z</time>
      </trkpt>
      <trkpt lat="47.51636" lon="6.70529">
        <ele>357.645</ele>
        <time>2016-06-04T14:11:03.000Z</time>
      </trkpt>
      <trkpt lat="47.51635" lon="6.70522">
        <ele>357.839</ele>
        <time>2016-06-04T14:11:04.000Z</time>
      </trkpt>
      <trkpt lat="47.51634" lon="6.70515">
        <ele>358.073</ele>
        <time>2016-06-04T14:11:05.000Z</time>
      </trkpt>
      <trkpt lat="47.51632" lon="6.70509">
        <ele>358.346</ele>
        <time>2016-06-04T14:11:06.000Z</time>
      </trkpt>
      <trkpt lat="47.5163" lon="6.70502">
        <ele>358.656</ele>
        <time>2016-06-04T14:11:07.000Z</time>
      </trkpt>
      <trkpt lat="47.51628" lon="6.70496">
        <ele>358.998</ele>
        <time>2016-06-04T14:11:08.000Z</time>
      </trkpt>
      <trkpt lat="47.51626" lon="6.70491">
        <ele>359.37</ele>
        <time>2016-06-04T14:11:09.000Z</time>
      </trkpt>
      <trkpt lat="47.51624" lon="6.70485">
        <ele>359.766</ele>
        <time>2016-06-04T14:11:10.000Z</time>
      </trkpt>
      <trkpt lat="47.51622" lon="6.7048">
        <ele>360.182</ele>
        <time>2016-06-04T14:11:11.000Z</time>
      </trkpt>
      <trkpt lat="47.51619" lon="6.70476">
        <ele>360.613</ele>
        <time>2016-06-04T14:11:12.000Z</time>
      </trkpt>
      <trkpt lat="47.51617" lon="6.70471">
        <ele>361.053</ele>
        <time>2016-06-04T14:11:13.000Z</time>
      </trkpt>
      <trkpt lat="47.51614" lon="6.70467">
        <ele>361.5</ele>
        <time>2016-06-04T14:11:14.000Z</time>
      </trkpt>
      <trkpt lat="47.51611" lon="6.70463">
        <ele>361.948</ele>
        <time>2016-06-04T14:11:15.000Z</time>
      </trkpt>
      <trkpt lat="47.51608" lon="6.70459">
        <ele>362.393</ele>
        <time>2016-06-04T14:11:16.000Z</time>
      </trkpt>
      <trkpt lat="47.51605" lon="6.70456">
        <ele>362.833</ele>
        <time>2016-06-04T14:11:17.000Z</time>
      </trkpt>
      <trkpt lat="47.51602" lon="6.70452">
        <ele>363.264</ele>
        <time>2016-06-04T14:11:18.000Z</time>
      </trkpt>
      <trkpt lat="47.51598" lon="6.70449">
        <ele>363.685</ele>
        <time>2016-06-04T14:11:19.000Z</time>
      </trkpt>
      <trkpt lat="47.51595" lon="6.70446">
        <ele>364.095</ele>
        <time>2016-06-04T14:11:20.000Z</time>
      </trkpt>
      <trkpt lat="47.51592" lon="6.70442">
        <ele>364.493</ele>
        <time>2016-06-04T14:11:21.000Z</time>
      </trkpt>
      <trkpt lat="47.51589" lon="6.70439">
        <ele>364.879</ele>
        <time>2016-06-04T14:11:22.000Z</time>
      </trkpt>
      <trkpt lat="47.51586" lon="6.70436">
        <ele>365.251</ele>
        <time>2016-06-04T14:11:23.000Z</time>
      </trkpt>
      <trkpt lat="47.51583" lon="6.70433">
        <ele>365.609</ele>
        <time>2016-06-04T14:11:24.000Z</time>
      </trkpt>
      <trkpt lat="47.5158" lon="6.70431">
        <ele>365.951</ele>
        <time>2016-06-04T14:11:25.000Z</time>
      </trkpt>
      <trkpt lat="47.51576" lon="6.70428">
        <ele>366.278</ele>
        <time>2016-06-04T14:11:26.000Z</time>
      </trkpt>
      <trkpt lat="47.51572" lon="6.70425">
        <ele>366.587</ele>
        <time>2016-06-04T14:11:27.000Z</time>
      </trkpt>
      <trkpt lat="47.51568" lon="6.70422">
        <ele>366.877</ele>
        <time>2016-06-04T14:11:28.000Z</time>
      </trkpt>
      <trkpt lat="47.51565" lon="6.70419">
        <ele>367.148</ele>
        <time>2016-06-04T14:11:29.000Z</time>
      </trkpt>
      <trkpt lat="47.51561" lon="6.70416">
        <ele>367.398</ele>
        <time>2016-06-04T14:11:30.000Z</time>
      </trkpt>
      <trkpt lat="47.51558" lon="6.70413">
        <ele>367.627</ele>
        <time>2016-06-04T14:11:31.000Z</time>
      </trkpt>
      <trkpt lat="47.51554" lon="6.70411">
        <ele>367.836</ele>
        <time>2016-06-04T14:11:32.000Z</time>
      </trkpt>
      <trkpt lat="47.5155" lon="6.70409">
        <ele>368.024</ele>
        <time>2016-06-04T14:11:33.000Z</time>
      </trkpt>
      <trkpt lat="47.51546" lon="6.70406">
        <ele>368.19</ele>
        <time>2016-06-04T14:11:34.000Z</time>
      </trkpt>
      <trkpt lat="47.51541" lon="6.70404">
        <ele>368.335</ele>
        <time>2016-06-04T14:11:35.000Z</time>
      </trkpt>
      <trkpt lat="47.51537" lon="6.70402">
        <ele>368.459</ele>
        <time>2016-06-04T14:11:36.000Z</time>
      </trkpt>
      <trkpt lat="47.51532" lon="6.70399">
        <ele>368.563</ele>
        <time>2016-06-04T14:11:37.000Z</time>
      </trkpt>
      <trkpt lat="47.51528" lon="6.70397">
        <ele>368.645</ele>
        <time>2016-06-04T14:11:38.000Z</time>
      </trkpt>
      <trkpt lat="47.51524" lon="6.70394">
        <ele>368.707</ele>
        <time>2016-06-04T14:11:39.000Z</time>
      </trkpt>
      <trkpt lat="47.51519" lon="6.70392">
        <ele>368.749</ele>
        <time>2016-06-04T14:11:40.000Z</time>
      </trkpt>
      <trkpt lat="47.51514" lon="6.70389">
        <ele>368.77</ele>
        <time>2016-06-04T14:11:41.000Z</time>
      </trkpt>
      <trkpt lat="47.51509" lon="6.70387">
        <ele>368.772</ele>
        <time>2016-06-04T14:11:42.000Z</time>
      </trkpt>
      <trkpt lat="47.51505" lon="6.70384">
        <ele>368.754</ele>
        <time>2016-06-04T14:11:43.000Z</time>
      </trkpt>
      <trkpt lat="47.515" lon="6.70381">
        <ele>368.719</ele>
        <time>2016-06-04T14:11:44.000Z</time>
      </trkpt>
      <trkpt lat="47.51495" lon="6.70378">
        <ele>368.668</ele>
        <time>2016-06-04T14:11:45.000Z</time>
      </trkpt>
      <trkpt lat="47.51491" lon="6.70375">
        <ele>368.603</ele>
        <time>2016-06-04T14:11:46.000Z</time>
      </trkpt>
      <trkpt lat="47.51486" lon="6.70372">
        <ele>368.526</ele>
        <time>2016-06-04T14:11:47.000Z</time>
      </trkpt>
      <trkpt lat="47.51482" lon="6.70369">
        <ele>368.439</ele>
        <time>2016-06-04T14:11:48.000Z</time>
      </trkpt>
      <trkpt lat="47.51477" lon="6.70367">
        <ele>368.344</ele>
        <time>2016-06-04T14:11:49.000Z</time>
      </trkpt>
      <trkpt lat="47.51473" lon="6.70364">
        <ele>368.241</ele>
        <time>2016-06-04T14:11:50.000Z</time>
      </trkpt>
      <trkpt lat="47.51468" lon="6.70361">
        <ele>368.132</ele>
        <time>2016-06-04T14:11:51.000Z</time>
      </trkpt>
      <trkpt lat="47.51464" lon="6.70357">
        <ele>368.018</ele>
        <time>2016-06-04T14:11:52.000Z</time>
      </trkpt>
      <trkpt lat="47.5146" lon="6.70354">
        <ele>367.901</ele>
        <time>2016-06-04T14:11:53.000Z</time>
      </trkpt>
      <trkpt lat="47.51455" lon="6.7035">
        <ele>367.782</ele>
        <time>2016-06-04T14:11:54.000Z</time>
      </trkpt>
      <trkpt lat="47.51452" lon="6.70346">
        <ele>367.662</ele>
        <time>2016-06-04T14:11:55.000Z</time>
      </trkpt>
      <trkpt lat="47.51448" lon="6.70341">
        <ele>367.541</ele>
        <time>2016-06-04T14:11:56.000Z</time>
      </trkpt>
      <trkpt lat="47.51441" lon="6.70342">
        <ele>365.955</ele>
        <time>2016-06-04T14:11:57.239Z</time>
      </trkpt>
      <trkpt lat="47.51438" lon="6.70342">
        <ele>366.357</ele>
        <time>2016-06-04T14:11:58.198Z</time>
      </trkpt>
      <trkpt lat="47.51434" lon="6.7034">
        <ele>369.068</ele>
        <time>2016-06-04T14:11:59.261Z</time>
      </trkpt>
      <trkpt lat="47.51431" lon="6.70337">
        <ele>368.818</ele>
        <time>2016-06-04T14:12:00.261Z</time>
      </trkpt>
      <trkpt lat="47.51427" lon="6.70333">
        <ele>368.825</ele>
        <time>2016-06-04T14:12:01.376Z</time>
      </trkpt>
      <trkpt lat="47.51423" lon="6.7033">
        <ele>368.821</ele>
        <time>2016-06-04T14:12:02.395Z</time>
      </trkpt>
      <trkpt lat="47.51417" lon="6.70327">
        <ele>368.851</ele>
        <time>2016-06-04T14:12:03.334Z</time>
      </trkpt>
      <trkpt lat="47.51412" lon="6.70324">
        <ele>368.583</ele>
        <time>2016-06-04T14:12:04.422Z</time>
      </trkpt>
      <trkpt lat="47.51407" lon="6.7032">
        <ele>368.535</ele>
        <time>2016-06-04T14:12:05.350Z</time>
      </trkpt>
      <trkpt lat="47.51401" lon="6.70316">
        <ele>368.053</ele>
        <time>2016-06-04T14:12:06.286Z</time>
      </trkpt>
      <trkpt lat="47.51396" lon="6.70312">
        <ele>367.63</ele>
        <time>2016-06-04T14:12:07.279Z</time>
      </trkpt>
      <trkpt lat="47.5139" lon="6.70308">
        <ele>367.833</ele>
        <time>2016-06-04T14:12:08.220Z</time>
      </trkpt>
      <trkpt lat="47.51385" lon="6.70302">
        <ele>367.662</ele>
        <time>2016-06-04T14:12:09.222Z</time>
      </trkpt>
      <trkpt lat="47.5138" lon="6.70296">
        <ele>367.261</ele>
        <time>2016-06-04T14:12:10.231Z</time>
      </trkpt>
      <trkpt lat="47.51376" lon="6.70289">
        <ele>367.337</ele>
        <time>2016-06-04T14:12:11.324Z</time>
      </trkpt>
      <trkpt lat="47.51372" lon="6.7028">
        <ele>367.221</ele>
        <time>2016-06-04T14:12:12.314Z</time>
      </trkpt>
      <trkpt lat="47.51368" lon="6.70273">
        <ele>367.261</ele>
        <time>2016-06-04T14:12:13.330Z</time>
      </trkpt>
      <trkpt lat="47.51368" lon="6.70273">
        <ele>367.261</ele>
        <time>2016-06-04T14:12:21.330Z</time>
      </trkpt>
      <trkpt lat="47.51337" lon="6.70214">
        <ele>367.649</ele>
        <time>2016-06-04T14:12:22.330Z</time>
      </trkpt>
      <trkpt lat="47.51334" lon="6.70209">
        <ele>367.633</ele>
        <time>2016-06-04T14:12:23.330Z</time>
      </trkpt>
      <trkpt lat="47.5133" lon="6.70204">
        <ele>367.624</ele>
        <time>2016-06-04T14:12:24.330Z</time>
      </trkpt>
      <trkpt lat="47.51326" lon="6.70199">
        <ele>367.621</ele>
        <time>2016-06-04T14:12:25.330Z</time>
      </trkpt>
      <trkpt lat="47.51323" lon="6.70195">
        <ele>367.627</ele>
        <time>2016-06-04T14:12:26.330Z</time>
      </trkpt>
      <trkpt lat="47.51319" lon="6.70191">
        <ele>367.642</ele>
        <time>2016-06-04T14:12:27.330Z</time>
      </trkpt>
      <trkpt lat="47.51315" lon="6.70187">
        <ele>367.668</ele>
        <time>2016-06-04T14:12:28.330Z</time>
      </trkpt>
      <trkpt lat="47.51312" lon="6.70183">
        <ele>367.705</ele>
        <time>2016-06-04T14:12:29.330Z</time>
      </trkpt>
      <trkpt lat="47.51308" lon="6.70179">
        <ele>367.754</ele>
        <time>2016-06-04T14:12:30.330Z</time>
      </trkpt>
      <trkpt lat="47.51305" lon="6.70175">
        <ele>367.815</ele>
        <time>2016-06-04T14:12:31.330Z</time>
      </trkpt>
      <trkpt lat="47.51302" lon="6.70171">
        <ele>367.888</ele>
        <time>2016-06-04T14:12:32.330Z</time>
      </trkpt>
      <trkpt lat="47.51299" lon="6.70167">
        <ele>367.971</ele>
        <time>2016-06-04T14:12:33.330Z</time>
      </trkpt>
      <trkpt lat="47.51297" lon="6.70163">
        <ele>368.065</ele>
        <time>2016-06-04T14:12:34.330Z</time>
      </trkpt>
      <trkpt lat="47.51294" lon="6.7016">
        <ele>368.167</ele>
        <time>2016-06-04T14:12:35.330Z</time>
      </trkpt>
      <trkpt lat="47.51291" lon="6.70157">
        <ele>368.278</ele>
        <time>2016-06-04T14:12:36.330Z</time>
      </trkpt>
      <trkpt lat="47.51289" lon="6.70154">
        <ele>368.398</ele>
        <time>2016-06-04T14:12:37.330Z</time>
      </trkpt>
      <trkpt lat="47.51287" lon="6.70151">
        <ele>368.525</ele>
        <time>2016-06-04T14:12:38.330Z</time>
      </trkpt>
      <trkpt lat="47.51284" lon="6.70148">
        <ele>368.661</ele>
        <time>2016-06-04T14:12:39.330Z</time>
      </trkpt>
      <trkpt lat="47.51282" lon="6.70145">
        <ele>368.803</ele>
        <time>2016-06-04T14:12:40.330Z</time>
      </trkpt>
      <trkpt lat="47.51279" lon="6.70142">
        <ele>368.951</ele>
        <time>2016-06-04T14:12:41.330Z</time>
      </trkpt>
      <trkpt lat="47.51277" lon="6.70139">
        <ele>369.104</ele>
        <time>2016-06-04T14:12:42.330Z</time>
      </trkpt>
      <trkpt lat="47.51274" lon="6.70135">
        <ele>369.261</ele>
        <time>2016-06-04T14:12:43.330Z</time>
      </trkpt>
      <trkpt lat="47.51272" lon="6.70132">
        <ele>369.421</ele>
        <time>2016-06-04T14:12:44.330Z</time>
      </trkpt>
      <trkpt lat="47.51269" lon="6.70129">
        <ele>369.582</ele>
        <time>2016-06-04T14:12:45.330Z</time>
      </trkpt>
      <trkpt lat="47.51267" lon="6.70125">
        <ele>369.743</ele>
        <time>2016-06-04T14:12:46.330Z</time>
      </trkpt>
      <trkpt lat="47.51264" lon="6.70122">
        <ele>369.903</ele>
        <time>2016-06-04T14:12:47.330Z</time>
      </trkpt>
      <trkpt lat="47.51262" lon="6.70119">
        <ele>370.058</ele>
        <time>2016-06-04T14:12:48.330Z</time>
      </trkpt>
      <trkpt lat="47.51259" lon="6.70115">
        <ele>370.207</ele>
        <time>2016-06-04T14:12:49.330Z</time>
      </trkpt>
      <trkpt lat="47.51257" lon="6.70112">
        <ele>370.346</ele>
        <time>2016-06-04T14:12:50.330Z</time>
      </trkpt>
      <trkpt lat="47.51254" lon="6.70108">
        <ele>370.476</ele>
        <time>2016-06-04T14:12:51.330Z</time>
      </trkpt>
      <trkpt lat="47.51252" lon="6.70105">
        <ele>370.592</ele>
        <time>2016-06-04T14:12:52.330Z</time>
      </trkpt>
      <trkpt lat="47.51249" lon="6.70101">
        <ele>370.695</ele>
        <time>2016-06-04T14:12:53.330Z</time>
      </trkpt>
      <trkpt lat="47.51246" lon="6.70098">
        <ele>370.784</ele>
        <time>2016-06-04T14:12:54.330Z</time>
      </trkpt>
      <trkpt lat="47.51244" lon="6.70094">
        <ele>370.857</ele>
        <time>2016-06-04T14:12:55.330Z</time>
      </trkpt>
      <trkpt lat="47.51241" lon="6.70091">
        <ele>370.917</ele>
        <time>2016-06-04T14:12:56.330Z</time>
      </trkpt>
      <trkpt lat="47.51238" lon="6.70087">
        <ele>370.961</ele>
        <time>2016-06-04T14:12:57.330Z</time>
      </trkpt>
      <trkpt lat="47.51236" lon="6.70084">
        <ele>370.991</ele>
        <time>2016-06-04T14:12:58.330Z</time>
      </trkpt>
      <trkpt lat="47.51233" lon="6.7008">
        <ele>371.007</ele>
        <time>2016-06-04T14:12:59.330Z</time>
      </trkpt>
      <trkpt lat="47.51231" lon="6.70077">
        <ele>371.009</ele>
        <time>2016-06-04T14:13:00.330Z</time>
      </trkpt>
      <trkpt lat="47.51228" lon="6.70073">
        <ele>370.998</ele>
        <time>2016-06-04T14:13:01.330Z</time>
      </trkpt>
      <trkpt lat="47.51226" lon="6.7007">
        <ele>370.976</ele>
        <time>2016-06-04T14:13:02.330Z</time>
      </trkpt>
      <trkpt lat="47.51223" lon="6.70066">
        <ele>370.945</ele>
        <time>2016-06-04T14:13:03.330Z</time>
      </trkpt>
      <trkpt lat="47.51221" lon="6.70062">
        <ele>370.906</ele>
        <time>2016-06-04T14:13:04.330Z</time>
      </trkpt>
      <trkpt lat="47.51218" lon="6.70058">
        <ele>370.865</ele>
        <time>2016-06-04T14:13:05.330Z</time>
      </trkpt>
      <trkpt lat="47.51216" lon="6.70055">
        <ele>370.822</ele>
        <time>2016-06-04T14:13:06.330Z</time>
      </trkpt>
      <trkpt lat="47.51214" lon="6.70051">
        <ele>370.782</ele>
        <time>2016-06-04T14:13:07.330Z</time>
      </trkpt>
      <trkpt lat="47.51211" lon="6.70047">
        <ele>370.748</ele>
        <time>2016-06-04T14:13:08.330Z</time>
      </trkpt>
      <trkpt lat="47.51209" lon="6.70043">
        <ele>370.723</ele>
        <time>2016-06-04T14:13:09.330Z</time>
      </trkpt>
      <trkpt lat="47.51207" lon="6.70039">
        <ele>370.711</ele>
        <time>2016-06-04T14:13:10.330Z</time>
      </trkpt>
      <trkpt lat="47.51204" lon="6.70036">
        <ele>370.714</ele>
        <time>2016-06-04T14:13:11.330Z</time>
      </trkpt>
      <trkpt lat="47.51202" lon="6.70032">
        <ele>370.736</ele>
        <time>2016-06-04T14:13:12.330Z</time>
      </trkpt>
      <trkpt lat="47.512" lon="6.70028">
        <ele>370.779</ele>
        <time>2016-06-04T14:13:13.330Z</time>
      </trkpt>
      <trkpt lat="47.51197" lon="6.70024">
        <ele>370.845</ele>
        <time>2016-06-04T14:13:14.330Z</time>
      </trkpt>
      <trkpt lat="47.51195" lon="6.7002">
        <ele>370.937</ele>
        <time>2016-06-04T14:13:15.330Z</time>
      </trkpt>
      <trkpt lat="47.51193" lon="6.70017">
        <ele>371.055</ele>
        <time>2016-06-04T14:13:16.330Z</time>
      </trkpt>
      <trkpt lat="47.51191" lon="6.70013">
        <ele>371.202</ele>
        <time>2016-06-04T14:13:17.330Z</time>
      </trkpt>
      <trkpt lat="47.51188" lon="6.70009">
        <ele>371.379</ele>
        <time>2016-06-04T14:13:18.330Z</time>
      </trkpt>
      <trkpt lat="47.51186" lon="6.70005">
        <ele>371.587</ele>
        <time>2016-06-04T14:13:19.330Z</time>
      </trkpt>
      <trkpt lat="47.51185" lon="6.70002">
        <ele>371.826</ele>
        <time>2016-06-04T14:13:20.330Z</time>
      </trkpt>
      <trkpt lat="47.51183" lon="6.69998">
        <ele>372.096</ele>
        <time>2016-06-04T14:13:21.330Z</time>
      </trkpt>
      <trkpt lat="47.51181" lon="6.69995">
        <ele>372.394</ele>
        <time>2016-06-04T14:13:22.330Z</time>
      </trkpt>
      <trkpt lat="47.5118" lon="6.69991">
        <ele>372.718</ele>
        <time>2016-06-04T14:13:23.330Z</time>
      </trkpt>
      <trkpt lat="47.51178" lon="6.69988">
        <ele>373.067</ele>
        <time>2016-06-04T14:13:24.330Z</time>
      </trkpt>
      <trkpt lat="47.51177" lon="6.69985">
        <ele>373.436</ele>
        <time>2016-06-04T14:13:25.330Z</time>
      </trkpt>
      <trkpt lat="47.51175" lon="6.69981">
        <ele>373.823</ele>
        <time>2016-06-04T14:13:26.330Z</time>
      </trkpt>
      <trkpt lat="47.51174" lon="6.69978">
        <ele>374.223</ele>
        <time>2016-06-04T14:13:27.330Z</time>
      </trkpt>
      <trkpt lat="47.51173" lon="6.69975">
        <ele>374.631</ele>
        <time>2016-06-04T14:13:28.330Z</time>
      </trkpt>
      <trkpt lat="47.51171" lon="6.69971">
        <ele>375.041</ele>
        <time>2016-06-04T14:13:29.330Z</time>
      </trkpt>
      <trkpt lat="47.5117" lon="6.69968">
        <ele>375.449</ele>
        <time>2016-06-04T14:13:30.330Z</time>
      </trkpt>
      <trkpt lat="47.51169" lon="6.69964">
        <ele>375.852</ele>
        <time>2016-06-04T14:13:31.330Z</time>
      </trkpt>
      <trkpt lat="47.51168" lon="6.69961">
        <ele>376.245</ele>
        <time>2016-06-04T14:13:32.330Z</time>
      </trkpt>
      <trkpt lat="47.51166" lon="6.69958">
        <ele>376.624</ele>
        <time>2016-06-04T14:13:33.330Z</time>
      </trkpt>
      <trkpt lat="47.51165" lon="6.69954">
        <ele>376.988</ele>
        <time>2016-06-04T14:13:34.330Z</time>
      </trkpt>
      <trkpt lat="47.51164" lon="6.69951">
        <ele>377.333</ele>
        <time>2016-06-04T14:13:35.330Z</time>
      </trkpt>
      <trkpt lat="47.51163" lon="6.69948">
        <ele>377.657</ele>
        <time>2016-06-04T14:13:36.330Z</time>
      </trkpt>
      <trkpt lat="47.51161" lon="6.69945">
        <ele>377.959</ele>
        <time>2016-06-04T14:13:37.330Z</time>
      </trkpt>
      <trkpt lat="47.5116" lon="6.69942">
        <ele>378.238</ele>
        <time>2016-06-04T14:13:38.330Z</time>
      </trkpt>
      <trkpt lat="47.51159" lon="6.69939">
        <ele>378.492</ele>
        <time>2016-06-04T14:13:39.330Z</time>
      </trkpt>
      <trkpt lat="47.51157" lon="6.69935">
        <ele>378.72</ele>
        <time>2016-06-04T14:13:40.330Z</time>
      </trkpt>
      <trkpt lat="47.51156" lon="6.69932">
        <ele>378.92</ele>
        <time>2016-06-04T14:13:41.330Z</time>
      </trkpt>
      <trkpt lat="47.51155" lon="6.69929">
        <ele>379.09</ele>
        <time>2016-06-04T14:13:42.330Z</time>
      </trkpt>
      <trkpt lat="47.51153" lon="6.69926">
        <ele>379.229</ele>
        <time>2016-06-04T14:13:43.330Z</time>
      </trkpt>
      <trkpt lat="47.51152" lon="6.69923">
        <ele>379.336</ele>
        <time>2016-06-04T14:13:44.330Z</time>
      </trkpt>
      <trkpt lat="47.5115" lon="6.6992">
        <ele>379.409</ele>
        <time>2016-06-04T14:13:45.330Z</time>
      </trkpt>
      <trkpt lat="47.51149" lon="6.69916">
        <ele>379.449</ele>
        <time>2016-06-04T14:13:46.330Z</time>
      </trkpt>
      <trkpt lat="47.51147" lon="6.69913">
        <ele>379.457</ele>
        <time>2016-06-04T14:13:47.330Z</time>
      </trkpt>
      <trkpt lat="47.51146" lon="6.69909">
        <ele>379.436</ele>
        <time>2016-06-04T14:13:48.330Z</time>
      </trkpt>
      <trkpt lat="47.51144" lon="6.69905">
        <ele>379.389</ele>
        <time>2016-06-04T14:13:49.330Z</time>
      </trkpt>
      <trkpt lat="47.51142" lon="6.69902">
        <ele>379.322</ele>
        <time>2016-06-04T14:13:50.330Z</time>
      </trkpt>
      <trkpt lat="47.5114" lon="6.69898">
        <ele>379.241</ele>
        <time>2016-06-04T14:13:51.330Z</time>
      </trkpt>
      <trkpt lat="47.51138" lon="6.69894">
        <ele>379.15</ele>
        <time>2016-06-04T14:13:52.330Z</time>
      </trkpt>
      <trkpt lat="47.51136" lon="6.6989">
        <ele>379.057</ele>
        <time>2016-06-04T14:13:53.330Z</time>
      </trkpt>
      <trkpt lat="47.51134" lon="6.69887">
        <ele>378.966</ele>
        <time>2016-06-04T14:13:54.330Z</time>
      </trkpt>
      <trkpt lat="47.51133" lon="6.69883">
        <ele>378.884</ele>
        <time>2016-06-04T14:13:55.330Z</time>
      </trkpt>
      <trkpt lat="47.51131" lon="6.69879">
        <ele>378.813</ele>
        <time>2016-06-04T14:13:56.330Z</time>
      </trkpt>
      <trkpt lat="47.51129" lon="6.69876">
        <ele>378.758</ele>
        <time>2016-06-04T14:13:57.330Z</time>
      </trkpt>
      <trkpt lat="47.51127" lon="6.69872">
        <ele>378.722</ele>
        <time>2016-06-04T14:13:58.330Z</time>
      </trkpt>
      <trkpt lat="47.51126" lon="6.69868">
        <ele>378.706</ele>
        <time>2016-06-04T14:13:59.330Z</time>
      </trkpt>
      <trkpt lat="47.51124" lon="6.69864">
        <ele>378.712</ele>
        <time>2016-06-04T14:14:00.330Z</time>
      </trkpt>
      <trkpt lat="47.51122" lon="6.6986">
        <ele>378.739</ele>
        <time>2016-06-04T14:14:01.330Z</time>
      </trkpt>
      <trkpt lat="47.5112" lon="6.69857">
        <ele>378.783</ele>
        <time>2016-06-04T14:14:02.330Z</time>
      </trkpt>
      <trkpt lat="47.51119" lon="6.69853">
        <ele>378.844</ele>
        <time>2016-06-04T14:14:03.330Z</time>
      </trkpt>
      <trkpt lat="47.51117" lon="6.6985">
        <ele>378.919</ele>
        <time>2016-06-04T14:14:04.330Z</time>
      </trkpt>
      <trkpt lat="47.51115" lon="6.69846">
        <ele>379.002</ele>
        <time>2016-06-04T14:14:05.330Z</time>
      </trkpt>
      <trkpt lat="47.51113" lon="6.69843">
        <ele>379.092</ele>
        <time>2016-06-04T14:14:06.330Z</time>
      </trkpt>
      <trkpt lat="47.51111" lon="6.6984">
        <ele>379.183</ele>
        <time>2016-06-04T14:14:07.330Z</time>
      </trkpt>
      <trkpt lat="47.51109" lon="6.69837">
        <ele>379.272</ele>
        <time>2016-06-04T14:14:08.330Z</time>
      </trkpt>
      <trkpt lat="47.51107" lon="6.69834">
        <ele>379.356</ele>
        <time>2016-06-04T14:14:09.330Z</time>
      </trkpt>
      <trkpt lat="47.51105" lon="6.6983">
        <ele>379.434</ele>
        <time>2016-06-04T14:14:10.330Z</time>
      </trkpt>
      <trkpt lat="47.51103" lon="6.69827">
        <ele>379.503</ele>
        <time>2016-06-04T14:14:11.330Z</time>
      </trkpt>
      <trkpt lat="47.51101" lon="6.69824">
        <ele>379.564</ele>
        <time>2016-06-04T14:14:12.330Z</time>
      </trkpt>
      <trkpt lat="47.51098" lon="6.6982">
        <ele>379.615</ele>
        <time>2016-06-04T14:14:13.330Z</time>
      </trkpt>
      <trkpt lat="47.51096" lon="6.69816">
        <ele>379.655</ele>
        <time>2016-06-04T14:14:14.330Z</time>
      </trkpt>
      <trkpt lat="47.51094" lon="6.69812">
        <ele>379.681</ele>
        <time>2016-06-04T14:14:15.330Z</time>
      </trkpt>
      <trkpt lat="47.51093" lon="6.69808">
        <ele>379.693</ele>
        <time>2016-06-04T14:14:16.330Z</time>
      </trkpt>
      <trkpt lat="47.51091" lon="6.69804">
        <ele>379.691</ele>
        <time>2016-06-04T14:14:17.330Z</time>
      </trkpt>
      <trkpt lat="47.51089" lon="6.698">
        <ele>379.675</ele>
        <time>2016-06-04T14:14:18.330Z</time>
      </trkpt>
      <trkpt lat="47.51087" lon="6.69796">
        <ele>379.646</ele>
        <time>2016-06-04T14:14:19.330Z</time>
      </trkpt>
      <trkpt lat="47.51085" lon="6.69792">
        <ele>379.607</ele>
        <time>2016-06-04T14:14:20.330Z</time>
      </trkpt>
      <trkpt lat="47.51084" lon="6.69788">
        <ele>379.558</ele>
        <time>2016-06-04T14:14:21.330Z</time>
      </trkpt>
      <trkpt lat="47.51082" lon="6.69785">
        <ele>379.503</ele>
        <time>2016-06-04T14:14:22.330Z</time>
      </trkpt>
      <trkpt lat="47.5108" lon="6.69781">
        <ele>379.443</ele>
        <time>2016-06-04T14:14:23.330Z</time>
      </trkpt>
      <trkpt lat="47.51077" lon="6.69777">
        <ele>379.381</ele>
        <time>2016-06-04T14:14:24.330Z</time>
      </trkpt>
      <trkpt lat="47.51075" lon="6.69774">
        <ele>379.321</ele>
        <time>2016-06-04T14:14:25.330Z</time>
      </trkpt>
      <trkpt lat="47.51073" lon="6.6977">
        <ele>379.265</ele>
        <time>2016-06-04T14:14:26.330Z</time>
      </trkpt>
      <trkpt lat="47.5107" lon="6.69766">
        <ele>379.219</ele>
        <time>2016-06-04T14:14:27.330Z</time>
      </trkpt>
      <trkpt lat="47.51068" lon="6.69763">
        <ele>379.185</ele>
        <time>2016-06-04T14:14:28.330Z</time>
      </trkpt>
      <trkpt lat="47.51066" lon="6.69759">
        <ele>379.168</ele>
        <time>2016-06-04T14:14:29.330Z</time>
      </trkpt>
      <trkpt lat="47.51063" lon="6.69755">
        <ele>379.169</ele>
        <time>2016-06-04T14:14:30.330Z</time>
      </trkpt>
      <trkpt lat="47.51061" lon="6.69751">
        <ele>379.188</ele>
        <time>2016-06-04T14:14:31.330Z</time>
      </trkpt>
      <trkpt lat="47.51058" lon="6.69747">
        <ele>379.225</ele>
        <time>2016-06-04T14:14:32.330Z</time>
      </trkpt>
      <trkpt lat="47.51055" lon="6.69743">
        <ele>379.28</ele>
        <time>2016-06-04T14:14:33.330Z</time>
      </trkpt>
      <trkpt lat="47.51053" lon="6.69739">
        <ele>379.352</ele>
        <time>2016-06-04T14:14:34.330Z</time>
      </trkpt>
      <trkpt lat="47.5105" lon="6.69734">
        <ele>379.438</ele>
        <time>2016-06-04T14:14:35.330Z</time>
      </trkpt>
      <trkpt lat="47.51047" lon="6.69729">
        <ele>379.538</ele>
        <time>2016-06-04T14:14:36.330Z</time>
      </trkpt>
      <trkpt lat="47.51044" lon="6.69724">
        <ele>379.647</ele>
        <time>2016-06-04T14:14:37.330Z</time>
      </trkpt>
      <trkpt lat="47.51041" lon="6.69719">
        <ele>379.765</ele>
        <time>2016-06-04T14:14:38.330Z</time>
      </trkpt>
      <trkpt lat="47.51038" lon="6.69713">
        <ele>379.887</ele>
        <time>2016-06-04T14:14:39.330Z</time>
      </trkpt>
      <trkpt lat="47.51035" lon="6.69707">
        <ele>380.012</ele>
        <time>2016-06-04T14:14:40.330Z</time>
      </trkpt>
      <trkpt lat="47.51032" lon="6.69702">
        <ele>380.137</ele>
        <time>2016-06-04T14:14:41.330Z</time>
      </trkpt>
      <trkpt lat="47.51029" lon="6.69696">
        <ele>380.262</ele>
        <time>2016-06-04T14:14:42.330Z</time>
      </trkpt>
      <trkpt lat="47.51026" lon="6.69691">
        <ele>380.386</ele>
        <time>2016-06-04T14:14:43.330Z</time>
      </trkpt>
      <trkpt lat="47.51023" lon="6.69685">
        <ele>380.511</ele>
        <time>2016-06-04T14:14:44.330Z</time>
      </trkpt>
      <trkpt lat="47.51021" lon="6.6968">
        <ele>380.638</ele>
        <time>2016-06-04T14:14:45.330Z</time>
      </trkpt>
      <trkpt lat="47.51019" lon="6.69675">
        <ele>380.768</ele>
        <time>2016-06-04T14:14:46.330Z</time>
      </trkpt>
      <trkpt lat="47.51016" lon="6.69669">
        <ele>380.904</ele>
        <time>2016-06-04T14:14:47.330Z</time>
      </trkpt>
      <trkpt lat="47.51014" lon="6.69665">
        <ele>381.045</ele>
        <time>2016-06-04T14:14:48.330Z</time>
      </trkpt>
      <trkpt lat="47.51012" lon="6.6966">
        <ele>381.192</ele>
        <time>2016-06-04T14:14:49.330Z</time>
      </trkpt>
      <trkpt lat="47.51009" lon="6.69655">
        <ele>381.344</ele>
        <time>2016-06-04T14:14:50.330Z</time>
      </trkpt>
      <trkpt lat="47.51006" lon="6.6965">
        <ele>381.501</ele>
        <time>2016-06-04T14:14:51.330Z</time>
      </trkpt>
      <trkpt lat="47.51004" lon="6.69644">
        <ele>381.661</ele>
        <time>2016-06-04T14:14:52.330Z</time>
      </trkpt>
      <trkpt lat="47.51001" lon="6.69639">
        <ele>381.827</ele>
        <time>2016-06-04T14:14:53.330Z</time>
      </trkpt>
      <trkpt lat="47.50999" lon="6.69633">
        <ele>381.999</ele>
        <time>2016-06-04T14:14:54.330Z</time>
      </trkpt>
      <trkpt lat="47.50997" lon="6.69628">
        <ele>382.179</ele>
        <time>2016-06-04T14:14:55.330Z</time>
      </trkpt>
      <trkpt lat="47.50995" lon="6.69622">
        <ele>382.366</ele>
        <time>2016-06-04T14:14:56.330Z</time>
      </trkpt>
      <trkpt lat="47.50992" lon="6.69617">
        <ele>382.561</ele>
        <time>2016-06-04T14:14:57.330Z</time>
      </trkpt>
      <trkpt lat="47.5099" lon="6.69612">
        <ele>382.76</ele>
        <time>2016-06-04T14:14:58.330Z</time>
      </trkpt>
      <trkpt lat="47.50988" lon="6.69606">
        <ele>382.959</ele>
        <time>2016-06-04T14:14:59.330Z</time>
      </trkpt>
      <trkpt lat="47.50986" lon="6.69601">
        <ele>383.155</ele>
        <time>2016-06-04T14:15:00.330Z</time>
      </trkpt>
      <trkpt lat="47.50983" lon="6.69596">
        <ele>383.344</ele>
        <time>2016-06-04T14:15:01.330Z</time>
      </trkpt>
      <trkpt lat="47.5098" lon="6.69592">
        <ele>383.523</ele>
        <time>2016-06-04T14:15:02.330Z</time>
      </trkpt>
      <trkpt lat="47.50978" lon="6.69587">
        <ele>383.689</ele>
        <time>2016-06-04T14:15:03.330Z</time>
      </trkpt>
      <trkpt lat="47.50975" lon="6.69583">
        <ele>383.841</ele>
        <time>2016-06-04T14:15:04.330Z</time>
      </trkpt>
      <trkpt lat="47.50971" lon="6.69578">
        <ele>383.976</ele>
        <time>2016-06-04T14:15:05.330Z</time>
      </trkpt>
      <trkpt lat="47.50968" lon="6.69574">
        <ele>384.094</ele>
        <time>2016-06-04T14:15:06.330Z</time>
      </trkpt>
      <trkpt lat="47.50965" lon="6.6957">
        <ele>384.194</ele>
        <time>2016-06-04T14:15:07.330Z</time>
      </trkpt>
      <trkpt lat="47.50961" lon="6.69567">
        <ele>384.273</ele>
        <time>2016-06-04T14:15:08.330Z</time>
      </trkpt>
      <trkpt lat="47.50958" lon="6.69563">
        <ele>384.332</ele>
        <time>2016-06-04T14:15:09.330Z</time>
      </trkpt>
      <trkpt lat="47.50955" lon="6.6956">
        <ele>384.367</ele>
        <time>2016-06-04T14:15:10.330Z</time>
      </trkpt>
      <trkpt lat="47.50951" lon="6.69558">
        <ele>384.378</ele>
        <time>2016-06-04T14:15:11.330Z</time>
      </trkpt>
      <trkpt lat="47.50947" lon="6.69555">
        <ele>384.363</ele>
        <time>2016-06-04T14:15:12.330Z</time>
      </trkpt>
      <trkpt lat="47.50944" lon="6.69553">
        <ele>384.322</ele>
        <time>2016-06-04T14:15:13.330Z</time>
      </trkpt>
      <trkpt lat="47.5094" lon="6.69552">
        <ele>384.257</ele>
        <time>2016-06-04T14:15:14.330Z</time>
      </trkpt>
      <trkpt lat="47.50936" lon="6.6955">
        <ele>384.167</ele>
        <time>2016-06-04T14:15:15.330Z</time>
      </trkpt>
      <trkpt lat="47.50932" lon="6.69548">
        <ele>384.054</ele>
        <time>2016-06-04T14:15:16.330Z</time>
      </trkpt>
      <trkpt lat="47.50928" lon="6.69546">
        <ele>383.919</ele>
        <time>2016-06-04T14:15:17.330Z</time>
      </trkpt>
      <trkpt lat="47.50924" lon="6.69544">
        <ele>383.764</ele>
        <time>2016-06-04T14:15:18.330Z</time>
      </trkpt>
      <trkpt lat="47.5092" lon="6.69542">
        <ele>383.589</ele>
        <time>2016-06-04T14:15:19.330Z</time>
      </trkpt>
      <trkpt lat="47.50916" lon="6.69539">
        <ele>383.398</ele>
        <time>2016-06-04T14:15:20.330Z</time>
      </trkpt>
      <trkpt lat="47.50913" lon="6.69535">
        <ele>383.192</ele>
        <time>2016-06-04T14:15:21.330Z</time>
      </trkpt>
      <trkpt lat="47.50909" lon="6.69531">
        <ele>382.974</ele>
        <time>2016-06-04T14:15:22.330Z</time>
      </trkpt>
      <trkpt lat="47.50905" lon="6.69527">
        <ele>382.748</ele>
        <time>2016-06-04T14:15:23.330Z</time>
      </trkpt>
      <trkpt lat="47.50902" lon="6.69523">
        <ele>382.516</ele>
        <time>2016-06-04T14:15:24.330Z</time>
      </trkpt>
      <trkpt lat="47.50898" lon="6.69518">
        <ele>382.284</ele>
        <time>2016-06-04T14:15:25.330Z</time>
      </trkpt>
      <trkpt lat="47.50895" lon="6.69513">
        <ele>382.055</ele>
        <time>2016-06-04T14:15:26.330Z</time>
      </trkpt>
      <trkpt lat="47.50892" lon="6.69508">
        <ele>381.835</ele>
        <time>2016-06-04T14:15:27.330Z</time>
      </trkpt>
      <trkpt lat="47.5089" lon="6.69501">
        <ele>381.628</ele>
        <time>2016-06-04T14:15:28.330Z</time>
      </trkpt>
      <trkpt lat="47.50888" lon="6.69495">
        <ele>381.441</ele>
        <time>2016-06-04T14:15:29.330Z</time>
      </trkpt>
      <trkpt lat="47.50888" lon="6.69488">
        <ele>381.277</ele>
        <time>2016-06-04T14:15:30.330Z</time>
      </trkpt>
      <trkpt lat="47.50888" lon="6.69482">
        <ele>381.141</ele>
        <time>2016-06-04T14:15:31.330Z</time>
      </trkpt>
      <trkpt lat="47.50888" lon="6.69475">
        <ele>381.035</ele>
        <time>2016-06-04T14:15:32.330Z</time>
      </trkpt>
      <trkpt lat="47.50889" lon="6.69468">
        <ele>380.96</ele>
        <time>2016-06-04T14:15:33.330Z</time>
      </trkpt>
      <trkpt lat="47.50889" lon="6.69461">
        <ele>380.916</ele>
        <time>2016-06-04T14:15:34.330Z</time>
      </trkpt>
      <trkpt lat="47.50889" lon="6.69454">
        <ele>380.899</ele>
        <time>2016-06-04T14:15:35.330Z</time>
      </trkpt>
      <trkpt lat="47.5089" lon="6.69447">
        <ele>380.907</ele>
        <time>2016-06-04T14:15:36.330Z</time>
      </trkpt>
      <trkpt lat="47.5089" lon="6.6944">
        <ele>380.935</ele>
        <time>2016-06-04T14:15:37.330Z</time>
      </trkpt>
      <trkpt lat="47.50891" lon="6.69434">
        <ele>380.979</ele>
        <time>2016-06-04T14:15:38.330Z</time>
      </trkpt>
      <trkpt lat="47.50891" lon="6.69428">
        <ele>381.033</ele>
        <time>2016-06-04T14:15:39.330Z</time>
      </trkpt>
      <trkpt lat="47.50892" lon="6.69422">
        <ele>381.096</ele>
        <time>2016-06-04T14:15:40.330Z</time>
      </trkpt>
      <trkpt lat="47.50893" lon="6.69416">
        <ele>381.163</ele>
        <time>2016-06-04T14:15:41.330Z</time>
      </trkpt>
      <trkpt lat="47.50894" lon="6.6941">
        <ele>381.233</ele>
        <time>2016-06-04T14:15:42.330Z</time>
      </trkpt>
      <trkpt lat="47.50895" lon="6.69404">
        <ele>381.301</ele>
        <time>2016-06-04T14:15:43.330Z</time>
      </trkpt>
      <trkpt lat="47.50896" lon="6.69398">
        <ele>381.364</ele>
        <time>2016-06-04T14:15:44.330Z</time>
      </trkpt>
      <trkpt lat="47.50897" lon="6.69392">
        <ele>381.422</ele>
        <time>2016-06-04T14:15:45.330Z</time>
      </trkpt>
      <trkpt lat="47.50899" lon="6.69386">
        <ele>381.472</ele>
        <time>2016-06-04T14:15:46.330Z</time>
      </trkpt>
      <trkpt lat="47.509" lon="6.69381">
        <ele>381.514</ele>
        <time>2016-06-04T14:15:47.330Z</time>
      </trkpt>
      <trkpt lat="47.50901" lon="6.69375">
        <ele>381.549</ele>
        <time>2016-06-04T14:15:48.330Z</time>
      </trkpt>
      <trkpt lat="47.50903" lon="6.69369">
        <ele>381.575</ele>
        <time>2016-06-04T14:15:49.330Z</time>
      </trkpt>
      <trkpt lat="47.50904" lon="6.69364">
        <ele>381.596</ele>
        <time>2016-06-04T14:15:50.330Z</time>
      </trkpt>
      <trkpt lat="47.50906" lon="6.69358">
        <ele>381.611</ele>
        <time>2016-06-04T14:15:51.330Z</time>
      </trkpt>
      <trkpt lat="47.50908" lon="6.69353">
        <ele>381.621</ele>
        <time>2016-06-04T14:15:52.330Z</time>
      </trkpt>
      <trkpt lat="47.50911" lon="6.69346">
        <ele>381.625</ele>
        <time>2016-06-04T14:15:53.330Z</time>
      </trkpt>
      <trkpt lat="47.50914" lon="6.6934">
        <ele>381.622</ele>
        <time>2016-06-04T14:15:54.330Z</time>
      </trkpt>
      <trkpt lat="47.50916" lon="6.69334">
        <ele>381.61</ele>
        <time>2016-06-04T14:15:55.330Z</time>
      </trkpt>
      <trkpt lat="47.50919" lon="6.69328">
        <ele>381.586</ele>
        <time>2016-06-04T14:15:56.330Z</time>
      </trkpt>
      <trkpt lat="47.50922" lon="6.69321">
        <ele>381.549</ele>
        <time>2016-06-04T14:15:57.330Z</time>
      </trkpt>
      <trkpt lat="47.50926" lon="6.69315">
        <ele>381.498</ele>
        <time>2016-06-04T14:15:58.330Z</time>
      </trkpt>
      <trkpt lat="47.50929" lon="6.69308">
        <ele>381.43</ele>
        <time>2016-06-04T14:15:59.330Z</time>
      </trkpt>
      <trkpt lat="47.50932" lon="6.693">
        <ele>381.345</ele>
        <time>2016-06-04T14:16:00.330Z</time>
      </trkpt>
      <trkpt lat="47.50936" lon="6.69293">
        <ele>381.241</ele>
        <time>2016-06-04T14:16:01.330Z</time>
      </trkpt>
      <trkpt lat="47.50939" lon="6.69286">
        <ele>381.117</ele>
        <time>2016-06-04T14:16:02.330Z</time>
      </trkpt>
      <trkpt lat="47.50943" lon="6.69279">
        <ele>380.972</ele>
        <time>2016-06-04T14:16:03.330Z</time>
      </trkpt>
      <trkpt lat="47.50947" lon="6.69271">
        <ele>380.804</ele>
        <time>2016-06-04T14:16:04.330Z</time>
      </trkpt>
      <trkpt lat="47.5095" lon="6.69264">
        <ele>380.615</ele>
        <time>2016-06-04T14:16:05.330Z</time>
      </trkpt>
      <trkpt lat="47.50954" lon="6.69256">
        <ele>380.406</ele>
        <time>2016-06-04T14:16:06.330Z</time>
      </trkpt>
      <trkpt lat="47.50958" lon="6.69249">
        <ele>380.182</ele>
        <time>2016-06-04T14:16:07.330Z</time>
      </trkpt>
      <trkpt lat="47.50962" lon="6.69242">
        <ele>379.946</ele>
        <time>2016-06-04T14:16:08.330Z</time>
      </trkpt>
      <trkpt lat="47.50966" lon="6.69235">
        <ele>379.703</ele>
        <time>2016-06-04T14:16:09.330Z</time>
      </trkpt>
      <trkpt lat="47.5097" lon="6.69227">
        <ele>379.459</ele>
        <time>2016-06-04T14:16:10.330Z</time>
      </trkpt>
      <trkpt lat="47.50973" lon="6.69219">
        <ele>379.218</ele>
        <time>2016-06-04T14:16:11.330Z</time>
      </trkpt>
      <trkpt lat="47.50977" lon="6.6921">
        <ele>378.985</ele>
        <time>2016-06-04T14:16:12.330Z</time>
      </trkpt>
      <trkpt lat="47.5098" lon="6.69201">
        <ele>378.763</ele>
        <time>2016-06-04T14:16:13.330Z</time>
      </trkpt>
      <trkpt lat="47.50984" lon="6.69192">
        <ele>378.556</ele>
        <time>2016-06-04T14:16:14.330Z</time>
      </trkpt>
      <trkpt lat="47.50987" lon="6.69183">
        <ele>378.367</ele>
        <time>2016-06-04T14:16:15.330Z</time>
      </trkpt>
      <trkpt lat="47.5099" lon="6.69173">
        <ele>378.2</ele>
        <time>2016-06-04T14:16:16.330Z</time>
      </trkpt>
      <trkpt lat="47.50994" lon="6.69164">
        <ele>378.054</ele>
        <time>2016-06-04T14:16:17.330Z</time>
      </trkpt>
      <trkpt lat="47.50997" lon="6.69155">
        <ele>377.928</ele>
        <time>2016-06-04T14:16:18.330Z</time>
      </trkpt>
      <trkpt lat="47.51001" lon="6.69146">
        <ele>377.818</ele>
        <time>2016-06-04T14:16:19.330Z</time>
      </trkpt>
      <trkpt lat="47.51004" lon="6.69136">
        <ele>377.718</ele>
        <time>2016-06-04T14:16:20.330Z</time>
      </trkpt>
      <trkpt lat="47.51007" lon="6.69126">
        <ele>377.624</ele>
        <time>2016-06-04T14:16:21.330Z</time>
      </trkpt>
      <trkpt lat="47.5101" lon="6.69116">
        <ele>377.532</ele>
        <time>2016-06-04T14:16:22.330Z</time>
      </trkpt>
      <trkpt lat="47.51013" lon="6.69106">
        <ele>377.437</ele>
        <time>2016-06-04T14:16:23.330Z</time>
      </trkpt>
      <trkpt lat="47.51016" lon="6.69096">
        <ele>377.337</ele>
        <time>2016-06-04T14:16:24.330Z</time>
      </trkpt>
      <trkpt lat="47.51018" lon="6.69086">
        <ele>377.229</ele>
        <time>2016-06-04T14:16:25.330Z</time>
      </trkpt>
      <trkpt lat="47.5102" lon="6.69076">
        <ele>377.111</ele>
        <time>2016-06-04T14:16:26.330Z</time>
      </trkpt>
      <trkpt lat="47.51023" lon="6.69067">
        <ele>376.981</ele>
        <time>2016-06-04T14:16:27.330Z</time>
      </trkpt>
      <trkpt lat="47.51024" lon="6.69057">
        <ele>376.839</ele>
        <time>2016-06-04T14:16:28.330Z</time>
      </trkpt>
      <trkpt lat="47.51026" lon="6.69048">
        <ele>376.683</ele>
        <time>2016-06-04T14:16:29.330Z</time>
      </trkpt>
      <trkpt lat="47.51028" lon="6.69038">
        <ele>376.516</ele>
        <time>2016-06-04T14:16:30.330Z</time>
      </trkpt>
      <trkpt lat="47.51029" lon="6.69029">
        <ele>376.339</ele>
        <time>2016-06-04T14:16:31.330Z</time>
      </trkpt>
      <trkpt lat="47.5103" lon="6.69019">
        <ele>376.156</ele>
        <time>2016-06-04T14:16:32.330Z</time>
      </trkpt>
      <trkpt lat="47.51032" lon="6.69009">
        <ele>375.97</ele>
        <time>2016-06-04T14:16:33.330Z</time>
      </trkpt>
      <trkpt lat="47.51033" lon="6.69">
        <ele>375.785</ele>
        <time>2016-06-04T14:16:34.330Z</time>
      </trkpt>
      <trkpt lat="47.51034" lon="6.68991">
        <ele>375.606</ele>
        <time>2016-06-04T14:16:35.330Z</time>
      </trkpt>
      <trkpt lat="47.51035" lon="6.68982">
        <ele>375.437</ele>
        <time>2016-06-04T14:16:36.330Z</time>
      </trkpt>
      <trkpt lat="47.51036" lon="6.68973">
        <ele>375.283</ele>
        <time>2016-06-04T14:16:37.330Z</time>
      </trkpt>
      <trkpt lat="47.51037" lon="6.68965">
        <ele>375.148</ele>
        <time>2016-06-04T14:16:38.330Z</time>
      </trkpt>
      <trkpt lat="47.51038" lon="6.68957">
        <ele>375.036</ele>
        <time>2016-06-04T14:16:39.330Z</time>
      </trkpt>
      <trkpt lat="47.51039" lon="6.6895">
        <ele>374.948</ele>
        <time>2016-06-04T14:16:40.330Z</time>
      </trkpt>
      <trkpt lat="47.5104" lon="6.68942">
        <ele>374.884</ele>
        <time>2016-06-04T14:16:41.330Z</time>
      </trkpt>
      <trkpt lat="47.51041" lon="6.68934">
        <ele>374.844</ele>
        <time>2016-06-04T14:16:42.330Z</time>
      </trkpt>
      <trkpt lat="47.51042" lon="6.68926">
        <ele>374.824</ele>
        <time>2016-06-04T14:16:43.330Z</time>
      </trkpt>
      <trkpt lat="47.51042" lon="6.68919">
        <ele>374.823</ele>
        <time>2016-06-04T14:16:44.330Z</time>
      </trkpt>
      <trkpt lat="47.51043" lon="6.68911">
        <ele>374.836</ele>
        <time>2016-06-04T14:16:45.330Z</time>
      </trkpt>
      <trkpt lat="47.51044" lon="6.68903">
        <ele>374.861</ele>
        <time>2016-06-04T14:16:46.330Z</time>
      </trkpt>
      <trkpt lat="47.51045" lon="6.68896">
        <ele>374.896</ele>
        <time>2016-06-04T14:16:47.330Z</time>
      </trkpt>
      <trkpt lat="47.51047" lon="6.68889">
        <ele>374.938</ele>
        <time>2016-06-04T14:16:48.330Z</time>
      </trkpt>
      <trkpt lat="47.51048" lon="6.68881">
        <ele>374.984</ele>
        <time>2016-06-04T14:16:49.330Z</time>
      </trkpt>
      <trkpt lat="47.51049" lon="6.68874">
        <ele>375.035</ele>
        <time>2016-06-04T14:16:50.330Z</time>
      </trkpt>
      <trkpt lat="47.5105" lon="6.68867">
        <ele>375.09</ele>
        <time>2016-06-04T14:16:51.330Z</time>
      </trkpt>
      <trkpt lat="47.5105" lon="6.68861">
        <ele>375.148</ele>
        <time>2016-06-04T14:16:52.330Z</time>
      </trkpt>
      <trkpt lat="47.51051" lon="6.68854">
        <ele>375.211</ele>
        <time>2016-06-04T14:16:53.330Z</time>
      </trkpt>
      <trkpt lat="47.51052" lon="6.68848">
        <ele>375.276</ele>
        <time>2016-06-04T14:16:54.330Z</time>
      </trkpt>
      <trkpt lat="47.51053" lon="6.68841">
        <ele>375.345</ele>
        <time>2016-06-04T14:16:55.330Z</time>
      </trkpt>
      <trkpt lat="47.51055" lon="6.68834">
        <ele>375.416</ele>
        <time>2016-06-04T14:16:56.330Z</time>
      </trkpt>
      <trkpt lat="47.51056" lon="6.68828">
        <ele>375.489</ele>
        <time>2016-06-04T14:16:57.330Z</time>
      </trkpt>
      <trkpt lat="47.51058" lon="6.68822">
        <ele>375.565</ele>
        <time>2016-06-04T14:16:58.330Z</time>
      </trkpt>
      <trkpt lat="47.51059" lon="6.68815">
        <ele>375.643</ele>
        <time>2016-06-04T14:16:59.330Z</time>
      </trkpt>
      <trkpt lat="47.5106" lon="6.68809">
        <ele>375.724</ele>
        <time>2016-06-04T14:17:00.330Z</time>
      </trkpt>
      <trkpt lat="47.51061" lon="6.68803">
        <ele>375.81</ele>
        <time>2016-06-04T14:17:01.330Z</time>
      </trkpt>
      <trkpt lat="47.51063" lon="6.68797">
        <ele>375.902</ele>
        <time>2016-06-04T14:17:02.330Z</time>
      </trkpt>
      <trkpt lat="47.51064" lon="6.68791">
        <ele>376</ele>
        <time>2016-06-04T14:17:03.330Z</time>
      </trkpt>
      <trkpt lat="47.51065" lon="6.68785">
        <ele>376.106</ele>
        <time>2016-06-04T14:17:04.330Z</time>
      </trkpt>
      <trkpt lat="47.51066" lon="6.68779">
        <ele>376.222</ele>
        <time>2016-06-04T14:17:05.330Z</time>
      </trkpt>
      <trkpt lat="47.51067" lon="6.68773">
        <ele>376.349</ele>
        <time>2016-06-04T14:17:06.330Z</time>
      </trkpt>
      <trkpt lat="47.51069" lon="6.68767">
        <ele>376.488</ele>
        <time>2016-06-04T14:17:07.330Z</time>
      </trkpt>
      <trkpt lat="47.5107" lon="6.6876">
        <ele>376.638</ele>
        <time>2016-06-04T14:17:08.330Z</time>
      </trkpt>
      <trkpt lat="47.51071" lon="6.68754">
        <ele>376.8</ele>
        <time>2016-06-04T14:17:09.330Z</time>
      </trkpt>
      <trkpt lat="47.51073" lon="6.68748">
        <ele>376.972</ele>
        <time>2016-06-04T14:17:10.330Z</time>
      </trkpt>
      <trkpt lat="47.51074" lon="6.68742">
        <ele>377.154</ele>
        <time>2016-06-04T14:17:11.330Z</time>
      </trkpt>
      <trkpt lat="47.51075" lon="6.68736">
        <ele>377.342</ele>
        <time>2016-06-04T14:17:12.330Z</time>
      </trkpt>
      <trkpt lat="47.51076" lon="6.6873">
        <ele>377.536</ele>
        <time>2016-06-04T14:17:13.330Z</time>
      </trkpt>
      <trkpt lat="47.51077" lon="6.68724">
        <ele>377.733</ele>
        <time>2016-06-04T14:17:14.330Z</time>
      </trkpt>
      <trkpt lat="47.51078" lon="6.68718">
        <ele>377.931</ele>
        <time>2016-06-04T14:17:15.330Z</time>
      </trkpt>
      <trkpt lat="47.5108" lon="6.68712">
        <ele>378.128</ele>
        <time>2016-06-04T14:17:16.330Z</time>
      </trkpt>
      <trkpt lat="47.51081" lon="6.68706">
        <ele>378.32</ele>
        <time>2016-06-04T14:17:17.330Z</time>
      </trkpt>
      <trkpt lat="47.51082" lon="6.687">
        <ele>378.508</ele>
        <time>2016-06-04T14:17:18.330Z</time>
      </trkpt>
      <trkpt lat="47.51084" lon="6.68694">
        <ele>378.689</ele>
        <time>2016-06-04T14:17:19.330Z</time>
      </trkpt>
      <trkpt lat="47.51085" lon="6.68688">
        <ele>378.861</ele>
        <time>2016-06-04T14:17:20.330Z</time>
      </trkpt>
      <trkpt lat="47.51086" lon="6.68682">
        <ele>379.025</ele>
        <time>2016-06-04T14:17:21.330Z</time>
      </trkpt>
      <trkpt lat="47.51087" lon="6.68676">
        <ele>379.179</ele>
        <time>2016-06-04T14:17:22.330Z</time>
      </trkpt>
      <trkpt lat="47.51088" lon="6.6867">
        <ele>379.325</ele>
        <time>2016-06-04T14:17:23.330Z</time>
      </trkpt>
      <trkpt lat="47.51089" lon="6.68664">
        <ele>379.463</ele>
        <time>2016-06-04T14:17:24.330Z</time>
      </trkpt>
      <trkpt lat="47.51091" lon="6.68658">
        <ele>379.593</ele>
        <time>2016-06-04T14:17:25.330Z</time>
      </trkpt>
      <trkpt lat="47.51092" lon="6.68652">
        <ele>379.717</ele>
        <time>2016-06-04T14:17:26.330Z</time>
      </trkpt>
      <trkpt lat="47.51093" lon="6.68647">
        <ele>379.834</ele>
        <time>2016-06-04T14:17:27.330Z</time>
      </trkpt>
      <trkpt lat="47.51094" lon="6.68641">
        <ele>379.944</ele>
        <time>2016-06-04T14:17:28.330Z</time>
      </trkpt>
      <trkpt lat="47.51096" lon="6.68635">
        <ele>380.047</ele>
        <time>2016-06-04T14:17:29.330Z</time>
      </trkpt>
      <trkpt lat="47.51097" lon="6.68628">
        <ele>380.141</ele>
        <time>2016-06-04T14:17:30.330Z</time>
      </trkpt>
      <trkpt lat="47.51098" lon="6.68622">
        <ele>380.226</ele>
        <time>2016-06-04T14:17:31.330Z</time>
      </trkpt>
      <trkpt lat="47.51099" lon="6.68616">
        <ele>380.301</ele>
        <time>2016-06-04T14:17:32.330Z</time>
      </trkpt>
      <trkpt lat="47.511" lon="6.68609">
        <ele>380.364</ele>
        <time>2016-06-04T14:17:33.330Z</time>
      </trkpt>
      <trkpt lat="47.51102" lon="6.68602">
        <ele>380.414</ele>
        <time>2016-06-04T14:17:34.330Z</time>
      </trkpt>
      <trkpt lat="47.51103" lon="6.68595">
        <ele>380.449</ele>
        <time>2016-06-04T14:17:35.330Z</time>
      </trkpt>
      <trkpt lat="47.51104" lon="6.68589">
        <ele>380.469</ele>
        <time>2016-06-04T14:17:36.330Z</time>
      </trkpt>
      <trkpt lat="47.51106" lon="6.68582">
        <ele>380.476</ele>
        <time>2016-06-04T14:17:37.330Z</time>
      </trkpt>
      <trkpt lat="47.51107" lon="6.68574">
        <ele>380.47</ele>
        <time>2016-06-04T14:17:38.330Z</time>
      </trkpt>
      <trkpt lat="47.51109" lon="6.68567">
        <ele>380.45</ele>
        <time>2016-06-04T14:17:39.330Z</time>
      </trkpt>
      <trkpt lat="47.5111" lon="6.6856">
        <ele>380.417</ele>
        <time>2016-06-04T14:17:40.330Z</time>
      </trkpt>
      <trkpt lat="47.51111" lon="6.68553">
        <ele>380.372</ele>
        <time>2016-06-04T14:17:41.330Z</time>
      </trkpt>
      <trkpt lat="47.51113" lon="6.68546">
        <ele>380.316</ele>
        <time>2016-06-04T14:17:42.330Z</time>
      </trkpt>
      <trkpt lat="47.51114" lon="6.68538">
        <ele>380.251</ele>
        <time>2016-06-04T14:17:43.330Z</time>
      </trkpt>
      <trkpt lat="47.51116" lon="6.68531">
        <ele>380.181</ele>
        <time>2016-06-04T14:17:44.330Z</time>
      </trkpt>
      <trkpt lat="47.51117" lon="6.68524">
        <ele>380.107</ele>
        <time>2016-06-04T14:17:45.330Z</time>
      </trkpt>
      <trkpt lat="47.51119" lon="6.68517">
        <ele>380.033</ele>
        <time>2016-06-04T14:17:46.330Z</time>
      </trkpt>
      <trkpt lat="47.5112" lon="6.68511">
        <ele>379.961</ele>
        <time>2016-06-04T14:17:47.330Z</time>
      </trkpt>
      <trkpt lat="47.51122" lon="6.68504">
        <ele>379.895</ele>
        <time>2016-06-04T14:17:48.330Z</time>
      </trkpt>
      <trkpt lat="47.51123" lon="6.68497">
        <ele>379.836</ele>
        <time>2016-06-04T14:17:49.330Z</time>
      </trkpt>
      <trkpt lat="47.51124" lon="6.68491">
        <ele>379.788</ele>
        <time>2016-06-04T14:17:50.330Z</time>
      </trkpt>
      <trkpt lat="47.51125" lon="6.68484">
        <ele>379.752</ele>
        <time>2016-06-04T14:17:51.330Z</time>
      </trkpt>
      <trkpt lat="47.51126" lon="6.68478">
        <ele>379.729</ele>
        <time>2016-06-04T14:17:52.330Z</time>
      </trkpt>
      <trkpt lat="47.51128" lon="6.68471">
        <ele>379.719</ele>
        <time>2016-06-04T14:17:53.330Z</time>
      </trkpt>
      <trkpt lat="47.51129" lon="6.68465">
        <ele>379.725</ele>
        <time>2016-06-04T14:17:54.330Z</time>
      </trkpt>
      <trkpt lat="47.5113" lon="6.68458">
        <ele>379.746</ele>
        <time>2016-06-04T14:17:55.330Z</time>
      </trkpt>
      <trkpt lat="47.51132" lon="6.68451">
        <ele>379.783</ele>
        <time>2016-06-04T14:17:56.330Z</time>
      </trkpt>
      <trkpt lat="47.51133" lon="6.68445">
        <ele>379.836</ele>
        <time>2016-06-04T14:17:57.330Z</time>
      </trkpt>
      <trkpt lat="47.51134" lon="6.68438">
        <ele>379.905</ele>
        <time>2016-06-04T14:17:58.330Z</time>
      </trkpt>
      <trkpt lat="47.51135" lon="6.68432">
        <ele>379.989</ele>
        <time>2016-06-04T14:17:59.330Z</time>
      </trkpt>
      <trkpt lat="47.51137" lon="6.68425">
        <ele>380.087</ele>
        <time>2016-06-04T14:18:00.330Z</time>
      </trkpt>
      <trkpt lat="47.51138" lon="6.68418">
        <ele>380.198</ele>
        <time>2016-06-04T14:18:01.330Z</time>
      </trkpt>
      <trkpt lat="47.51139" lon="6.68411">
        <ele>380.319</ele>
        <time>2016-06-04T14:18:02.330Z</time>
      </trkpt>
      <trkpt lat="47.51141" lon="6.68404">
        <ele>380.45</ele>
        <time>2016-06-04T14:18:03.330Z</time>
      </trkpt>
      <trkpt lat="47.51142" lon="6.68397">
        <ele>380.588</ele>
        <time>2016-06-04T14:18:04.330Z</time>
      </trkpt>
      <trkpt lat="47.51144" lon="6.6839">
        <ele>380.73</ele>
        <time>2016-06-04T14:18:05.330Z</time>
      </trkpt>
      <trkpt lat="47.51146" lon="6.68382">
        <ele>380.875</ele>
        <time>2016-06-04T14:18:06.330Z</time>
      </trkpt>
      <trkpt lat="47.51147" lon="6.68375">
        <ele>381.018</ele>
        <time>2016-06-04T14:18:07.330Z</time>
      </trkpt>
      <trkpt lat="47.51149" lon="6.68368">
        <ele>381.157</ele>
        <time>2016-06-04T14:18:08.330Z</time>
      </trkpt>
      <trkpt lat="47.51151" lon="6.68361">
        <ele>381.289</ele>
        <time>2016-06-04T14:18:09.330Z</time>
      </trkpt>
      <trkpt lat="47.51153" lon="6.68354">
        <ele>381.413</ele>
        <time>2016-06-04T14:18:10.330Z</time>
      </trkpt>
      <trkpt lat="47.51154" lon="6.68347">
        <ele>381.528</ele>
        <time>2016-06-04T14:18:11.330Z</time>
      </trkpt>
      <trkpt lat="47.51156" lon="6.6834">
        <ele>381.634</ele>
        <time>2016-06-04T14:18:12.330Z</time>
      </trkpt>
      <trkpt lat="47.51157" lon="6.68334">
        <ele>381.73</ele>
        <time>2016-06-04T14:18:13.330Z</time>
      </trkpt>
      <trkpt lat="47.51159" lon="6.68327">
        <ele>381.817</ele>
        <time>2016-06-04T14:18:14.330Z</time>
      </trkpt>
      <trkpt lat="47.5116" lon="6.68321">
        <ele>381.896</ele>
        <time>2016-06-04T14:18:15.330Z</time>
      </trkpt>
      <trkpt lat="47.51161" lon="6.68315">
        <ele>381.966</ele>
        <time>2016-06-04T14:18:16.330Z</time>
      </trkpt>
      <trkpt lat="47.51163" lon="6.68308">
        <ele>382.027</ele>
        <time>2016-06-04T14:18:17.330Z</time>
      </trkpt>
      <trkpt lat="47.51164" lon="6.68302">
        <ele>382.078</ele>
        <time>2016-06-04T14:18:18.330Z</time>
      </trkpt>
      <trkpt lat="47.51165" lon="6.68296">
        <ele>382.12</ele>
        <time>2016-06-04T14:18:19.330Z</time>
      </trkpt>
      <trkpt lat="47.51167" lon="6.6829">
        <ele>382.152</ele>
        <time>2016-06-04T14:18:20.330Z</time>
      </trkpt>
      <trkpt lat="47.51168" lon="6.68283">
        <ele>382.175</ele>
        <time>2016-06-04T14:18:21.330Z</time>
      </trkpt>
      <trkpt lat="47.51169" lon="6.68277">
        <ele>382.19</ele>
        <time>2016-06-04T14:18:22.330Z</time>
      </trkpt>
      <trkpt lat="47.51171" lon="6.6827">
        <ele>382.197</ele>
        <time>2016-06-04T14:18:23.330Z</time>
      </trkpt>
      <trkpt lat="47.51172" lon="6.68263">
        <ele>382.196</ele>
        <time>2016-06-04T14:18:24.330Z</time>
      </trkpt>
      <trkpt lat="47.51173" lon="6.68257">
        <ele>382.189</ele>
        <time>2016-06-04T14:18:25.330Z</time>
      </trkpt>
      <trkpt lat="47.51175" lon="6.6825">
        <ele>382.174</ele>
        <time>2016-06-04T14:18:26.330Z</time>
      </trkpt>
      <trkpt lat="47.51177" lon="6.68243">
        <ele>382.153</ele>
        <time>2016-06-04T14:18:27.330Z</time>
      </trkpt>
      <trkpt lat="47.51178" lon="6.68236">
        <ele>382.128</ele>
        <time>2016-06-04T14:18:28.330Z</time>
      </trkpt>
      <trkpt lat="47.5118" lon="6.68229">
        <ele>382.101</ele>
        <time>2016-06-04T14:18:29.330Z</time>
      </trkpt>
      <trkpt lat="47.51181" lon="6.68221">
        <ele>382.075</ele>
        <time>2016-06-04T14:18:30.330Z</time>
      </trkpt>
      <trkpt lat="47.51183" lon="6.68214">
        <ele>382.053</ele>
        <time>2016-06-04T14:18:31.330Z</time>
      </trkpt>
      <trkpt lat="47.51185" lon="6.68206">
        <ele>382.04</ele>
        <time>2016-06-04T14:18:32.330Z</time>
      </trkpt>
      <trkpt lat="47.51186" lon="6.68198">
        <ele>382.039</ele>
        <time>2016-06-04T14:18:33.330Z</time>
      </trkpt>
      <trkpt lat="47.51188" lon="6.68191">
        <ele>382.051</ele>
        <time>2016-06-04T14:18:34.330Z</time>
      </trkpt>
      <trkpt lat="47.5119" lon="6.68183">
        <ele>382.081</ele>
        <time>2016-06-04T14:18:35.330Z</time>
      </trkpt>
      <trkpt lat="47.51192" lon="6.68175">
        <ele>382.13</ele>
        <time>2016-06-04T14:18:36.330Z</time>
      </trkpt>
      <trkpt lat="47.51193" lon="6.68167">
        <ele>382.199</ele>
        <time>2016-06-04T14:18:37.330Z</time>
      </trkpt>
      <trkpt lat="47.51195" lon="6.68159">
        <ele>382.289</ele>
        <time>2016-06-04T14:18:38.330Z</time>
      </trkpt>
      <trkpt lat="47.51197" lon="6.68152">
        <ele>382.4</ele>
        <time>2016-06-04T14:18:39.330Z</time>
      </trkpt>
      <trkpt lat="47.51198" lon="6.68144">
        <ele>382.531</ele>
        <time>2016-06-04T14:18:40.330Z</time>
      </trkpt>
      <trkpt lat="47.512" lon="6.68137">
        <ele>382.68</ele>
        <time>2016-06-04T14:18:41.330Z</time>
      </trkpt>
      <trkpt lat="47.51202" lon="6.6813">
        <ele>382.846</ele>
        <time>2016-06-04T14:18:42.330Z</time>
      </trkpt>
      <trkpt lat="47.51203" lon="6.68123">
        <ele>383.025</ele>
        <time>2016-06-04T14:18:43.330Z</time>
      </trkpt>
      <trkpt lat="47.51205" lon="6.68117">
        <ele>383.214</ele>
        <time>2016-06-04T14:18:44.330Z</time>
      </trkpt>
      <trkpt lat="47.51206" lon="6.6811">
        <ele>383.407</ele>
        <time>2016-06-04T14:18:45.330Z</time>
      </trkpt>
      <trkpt lat="47.51208" lon="6.68104">
        <ele>383.601</ele>
        <time>2016-06-04T14:18:46.330Z</time>
      </trkpt>
      <trkpt lat="47.51209" lon="6.68097">
        <ele>383.79</ele>
        <time>2016-06-04T14:18:47.330Z</time>
      </trkpt>
      <trkpt lat="47.5121" lon="6.6809">
        <ele>383.972</ele>
        <time>2016-06-04T14:18:48.330Z</time>
      </trkpt>
      <trkpt lat="47.51212" lon="6.68084">
        <ele>384.143</ele>
        <time>2016-06-04T14:18:49.330Z</time>
      </trkpt>
      <trkpt lat="47.51213" lon="6.68077">
        <ele>384.301</ele>
        <time>2016-06-04T14:18:50.330Z</time>
      </trkpt>
      <trkpt lat="47.51214" lon="6.6807">
        <ele>384.444</ele>
        <time>2016-06-04T14:18:51.330Z</time>
      </trkpt>
      <trkpt lat="47.51216" lon="6.68064">
        <ele>384.572</ele>
        <time>2016-06-04T14:18:52.330Z</time>
      </trkpt>
      <trkpt lat="47.51217" lon="6.68058">
        <ele>384.684</ele>
        <time>2016-06-04T14:18:53.330Z</time>
      </trkpt>
      <trkpt lat="47.51218" lon="6.68051">
        <ele>384.78</ele>
        <time>2016-06-04T14:18:54.330Z</time>
      </trkpt>
      <trkpt lat="47.5122" lon="6.68045">
        <ele>384.861</ele>
        <time>2016-06-04T14:18:55.330Z</time>
      </trkpt>
      <trkpt lat="47.51221" lon="6.68038">
        <ele>384.926</ele>
        <time>2016-06-04T14:18:56.330Z</time>
      </trkpt>
      <trkpt lat="47.51223" lon="6.68031">
        <ele>384.976</ele>
        <time>2016-06-04T14:18:57.330Z</time>
      </trkpt>
      <trkpt lat="47.51224" lon="6.68024">
        <ele>385.011</ele>
        <time>2016-06-04T14:18:58.330Z</time>
      </trkpt>
      <trkpt lat="47.51225" lon="6.68017">
        <ele>385.028</ele>
        <time>2016-06-04T14:18:59.330Z</time>
      </trkpt>
      <trkpt lat="47.51227" lon="6.6801">
        <ele>385.029</ele>
        <time>2016-06-04T14:19:00.330Z</time>
      </trkpt>
      <trkpt lat="47.51229" lon="6.68002">
        <ele>385.013</ele>
        <time>2016-06-04T14:19:01.330Z</time>
      </trkpt>
      <trkpt lat="47.5123" lon="6.67995">
        <ele>384.98</ele>
        <time>2016-06-04T14:19:02.330Z</time>
      </trkpt>
      <trkpt lat="47.51232" lon="6.67988">
        <ele>384.933</ele>
        <time>2016-06-04T14:19:03.330Z</time>
      </trkpt>
      <trkpt lat="47.51233" lon="6.67981">
        <ele>384.873</ele>
        <time>2016-06-04T14:19:04.330Z</time>
      </trkpt>
      <trkpt lat="47.51235" lon="6.67974">
        <ele>384.802</ele>
        <time>2016-06-04T14:19:05.330Z</time>
      </trkpt>
      <trkpt lat="47.51236" lon="6.67968">
        <ele>384.721</ele>
        <time>2016-06-04T14:19:06.330Z</time>
      </trkpt>
      <trkpt lat="47.51238" lon="6.67961">
        <ele>384.633</ele>
        <time>2016-06-04T14:19:07.330Z</time>
      </trkpt>
      <trkpt lat="47.51239" lon="6.67954">
        <ele>384.539</ele>
        <time>2016-06-04T14:19:08.330Z</time>
      </trkpt>
      <trkpt lat="47.51241" lon="6.67947">
        <ele>384.441</ele>
        <time>2016-06-04T14:19:09.330Z</time>
      </trkpt>
      <trkpt lat="47.51242" lon="6.6794">
        <ele>384.341</ele>
        <time>2016-06-04T14:19:10.330Z</time>
      </trkpt>
      <trkpt lat="47.51244" lon="6.67933">
        <ele>384.242</ele>
        <time>2016-06-04T14:19:11.330Z</time>
      </trkpt>
      <trkpt lat="47.51245" lon="6.67926">
        <ele>384.146</ele>
        <time>2016-06-04T14:19:12.330Z</time>
      </trkpt>
      <trkpt lat="47.51246" lon="6.67919">
        <ele>384.057</ele>
        <time>2016-06-04T14:19:13.330Z</time>
      </trkpt>
      <trkpt lat="47.51248" lon="6.67912">
        <ele>383.976</ele>
        <time>2016-06-04T14:19:14.330Z</time>
      </trkpt>
      <trkpt lat="47.51249" lon="6.67905">
        <ele>383.904</ele>
        <time>2016-06-04T14:19:15.330Z</time>
      </trkpt>
      <trkpt lat="47.5125" lon="6.67898">
        <ele>383.843</ele>
        <time>2016-06-04T14:19:16.330Z</time>
      </trkpt>
      <trkpt lat="47.51252" lon="6.67891">
        <ele>383.792</ele>
        <time>2016-06-04T14:19:17.330Z</time>
      </trkpt>
      <trkpt lat="47.51253" lon="6.67885">
        <ele>383.751</ele>
        <time>2016-06-04T14:19:18.330Z</time>
      </trkpt>
      <trkpt lat="47.51254" lon="6.67878">
        <ele>383.719</ele>
        <time>2016-06-04T14:19:19.330Z</time>
      </trkpt>
      <trkpt lat="47.51256" lon="6.67871">
        <ele>383.693</ele>
        <time>2016-06-04T14:19:20.330Z</time>
      </trkpt>
      <trkpt lat="47.51257" lon="6.67864">
        <ele>383.673</ele>
        <time>2016-06-04T14:19:21.330Z</time>
      </trkpt>
      <trkpt lat="47.51258" lon="6.67858">
        <ele>383.656</ele>
        <time>2016-06-04T14:19:22.330Z</time>
      </trkpt>
      <trkpt lat="47.5126" lon="6.67851">
        <ele>383.643</ele>
        <time>2016-06-04T14:19:23.330Z</time>
      </trkpt>
      <trkpt lat="47.51261" lon="6.67844">
        <ele>383.632</ele>
        <time>2016-06-04T14:19:24.330Z</time>
      </trkpt>
      <trkpt lat="47.51263" lon="6.67837">
        <ele>383.625</ele>
        <time>2016-06-04T14:19:25.330Z</time>
      </trkpt>
      <trkpt lat="47.51264" lon="6.67831">
        <ele>383.622</ele>
        <time>2016-06-04T14:19:26.330Z</time>
      </trkpt>
      <trkpt lat="47.51266" lon="6.67824">
        <ele>383.624</ele>
        <time>2016-06-04T14:19:27.330Z</time>
      </trkpt>
      <trkpt lat="47.51267" lon="6.67817">
        <ele>383.632</ele>
        <time>2016-06-04T14:19:28.330Z</time>
      </trkpt>
      <trkpt lat="47.51268" lon="6.6781">
        <ele>383.649</ele>
        <time>2016-06-04T14:19:29.330Z</time>
      </trkpt>
      <trkpt lat="47.5127" lon="6.67803">
        <ele>383.675</ele>
        <time>2016-06-04T14:19:30.330Z</time>
      </trkpt>
      <trkpt lat="47.51271" lon="6.67796">
        <ele>383.713</ele>
        <time>2016-06-04T14:19:31.330Z</time>
      </trkpt>
      <trkpt lat="47.51273" lon="6.6779">
        <ele>383.762</ele>
        <time>2016-06-04T14:19:32.330Z</time>
      </trkpt>
      <trkpt lat="47.51274" lon="6.67783">
        <ele>383.824</ele>
        <time>2016-06-04T14:19:33.330Z</time>
      </trkpt>
      <trkpt lat="47.51276" lon="6.67776">
        <ele>383.898</ele>
        <time>2016-06-04T14:19:34.330Z</time>
      </trkpt>
      <trkpt lat="47.51277" lon="6.67769">
        <ele>383.983</ele>
        <time>2016-06-04T14:19:35.330Z</time>
      </trkpt>
      <trkpt lat="47.51279" lon="6.67761">
        <ele>384.076</ele>
        <time>2016-06-04T14:19:36.330Z</time>
      </trkpt>
      <trkpt lat="47.5128" lon="6.67754">
        <ele>384.176</ele>
        <time>2016-06-04T14:19:37.330Z</time>
      </trkpt>
      <trkpt lat="47.51282" lon="6.67747">
        <ele>384.281</ele>
        <time>2016-06-04T14:19:38.330Z</time>
      </trkpt>
      <trkpt lat="47.51283" lon="6.67741">
        <ele>384.39</ele>
        <time>2016-06-04T14:19:39.330Z</time>
      </trkpt>
      <trkpt lat="47.51285" lon="6.67734">
        <ele>384.499</ele>
        <time>2016-06-04T14:19:40.330Z</time>
      </trkpt>
      <trkpt lat="47.51286" lon="6.67727">
        <ele>384.608</ele>
        <time>2016-06-04T14:19:41.330Z</time>
      </trkpt>
      <trkpt lat="47.51288" lon="6.6772">
        <ele>384.713</ele>
        <time>2016-06-04T14:19:42.330Z</time>
      </trkpt>
      <trkpt lat="47.51289" lon="6.67713">
        <ele>384.814</ele>
        <time>2016-06-04T14:19:43.330Z</time>
      </trkpt>
      <trkpt lat="47.5129" lon="6.67706">
        <ele>384.908</ele>
        <time>2016-06-04T14:19:44.330Z</time>
      </trkpt>
      <trkpt lat="47.51292" lon="6.67698">
        <ele>384.996</ele>
        <time>2016-06-04T14:19:45.330Z</time>
      </trkpt>
      <trkpt lat="47.51293" lon="6.67692">
        <ele>385.078</ele>
        <time>2016-06-04T14:19:46.330Z</time>
      </trkpt>
      <trkpt lat="47.51295" lon="6.67685">
        <ele>385.154</ele>
        <time>2016-06-04T14:19:47.330Z</time>
      </trkpt>
      <trkpt lat="47.51296" lon="6.67678">
        <ele>385.225</ele>
        <time>2016-06-04T14:19:48.330Z</time>
      </trkpt>
      <trkpt lat="47.51297" lon="6.67672">
        <ele>385.292</ele>
        <time>2016-06-04T14:19:49.330Z</time>
      </trkpt>
      <trkpt lat="47.51298" lon="6.67665">
        <ele>385.355</ele>
        <time>2016-06-04T14:19:50.330Z</time>
      </trkpt>
      <trkpt lat="47.513" lon="6.67659">
        <ele>385.417</ele>
        <time>2016-06-04T14:19:51.330Z</time>
      </trkpt>
      <trkpt lat="47.51301" lon="6.67652">
        <ele>385.48</ele>
        <time>2016-06-04T14:19:52.330Z</time>
      </trkpt>
      <trkpt lat="47.51303" lon="6.67646">
        <ele>385.546</ele>
        <time>2016-06-04T14:19:53.330Z</time>
      </trkpt>
      <trkpt lat="47.51304" lon="6.67639">
        <ele>385.619</ele>
        <time>2016-06-04T14:19:54.330Z</time>
      </trkpt>
      <trkpt lat="47.51305" lon="6.67633">
        <ele>385.698</ele>
        <time>2016-06-04T14:19:55.330Z</time>
      </trkpt>
      <trkpt lat="47.51307" lon="6.67627">
        <ele>385.783</ele>
        <time>2016-06-04T14:19:56.330Z</time>
      </trkpt>
      <trkpt lat="47.51308" lon="6.67621">
        <ele>385.876</ele>
        <time>2016-06-04T14:19:57.330Z</time>
      </trkpt>
      <trkpt lat="47.51309" lon="6.67615">
        <ele>385.975</ele>
        <time>2016-06-04T14:19:58.330Z</time>
      </trkpt>
      <trkpt lat="47.5131" lon="6.67609">
        <ele>386.079</ele>
        <time>2016-06-04T14:19:59.330Z</time>
      </trkpt>
      <trkpt lat="47.51312" lon="6.67604">
        <ele>386.188</ele>
        <time>2016-06-04T14:20:00.330Z</time>
      </trkpt>
      <trkpt lat="47.51313" lon="6.67598">
        <ele>386.301</ele>
        <time>2016-06-04T14:20:01.330Z</time>
      </trkpt>
      <trkpt lat="47.51314" lon="6.67592">
        <ele>386.418</ele>
        <time>2016-06-04T14:20:02.330Z</time>
      </trkpt>
      <trkpt lat="47.51315" lon="6.67585">
        <ele>386.538</ele>
        <time>2016-06-04T14:20:03.330Z</time>
      </trkpt>
      <trkpt lat="47.51316" lon="6.67579">
        <ele>386.661</ele>
        <time>2016-06-04T14:20:04.330Z</time>
      </trkpt>
      <trkpt lat="47.51318" lon="6.67573">
        <ele>386.788</ele>
        <time>2016-06-04T14:20:05.330Z</time>
      </trkpt>
      <trkpt lat="47.51319" lon="6.67567">
        <ele>386.918</ele>
        <time>2016-06-04T14:20:06.330Z</time>
      </trkpt>
      <trkpt lat="47.5132" lon="6.6756">
        <ele>387.051</ele>
        <time>2016-06-04T14:20:07.330Z</time>
      </trkpt>
      <trkpt lat="47.51321" lon="6.67554">
        <ele>387.187</ele>
        <time>2016-06-04T14:20:08.330Z</time>
      </trkpt>
      <trkpt lat="47.51323" lon="6.67547">
        <ele>387.327</ele>
        <time>2016-06-04T14:20:09.330Z</time>
      </trkpt>
      <trkpt lat="47.51324" lon="6.67541">
        <ele>387.468</ele>
        <time>2016-06-04T14:20:10.330Z</time>
      </trkpt>
      <trkpt lat="47.51326" lon="6.67534">
        <ele>387.609</ele>
        <time>2016-06-04T14:20:11.330Z</time>
      </trkpt>
      <trkpt lat="47.51327" lon="6.67528">
        <ele>387.749</ele>
        <time>2016-06-04T14:20:12.330Z</time>
      </trkpt>
      <trkpt lat="47.51329" lon="6.67521">
        <ele>387.886</ele>
        <time>2016-06-04T14:20:13.330Z</time>
      </trkpt>
      <trkpt lat="47.5133" lon="6.67515">
        <ele>388.018</ele>
        <time>2016-06-04T14:20:14.330Z</time>
      </trkpt>
      <trkpt lat="47.51331" lon="6.67509">
        <ele>388.146</ele>
        <time>2016-06-04T14:20:15.330Z</time>
      </trkpt>
      <trkpt lat="47.51332" lon="6.67502">
        <ele>388.268</ele>
        <time>2016-06-04T14:20:16.330Z</time>
      </trkpt>
      <trkpt lat="47.51334" lon="6.67496">
        <ele>388.385</ele>
        <time>2016-06-04T14:20:17.330Z</time>
      </trkpt>
      <trkpt lat="47.51335" lon="6.67489">
        <ele>388.495</ele>
        <time>2016-06-04T14:20:18.330Z</time>
      </trkpt>
      <trkpt lat="47.51336" lon="6.67482">
        <ele>388.597</ele>
        <time>2016-06-04T14:20:19.330Z</time>
      </trkpt>
      <trkpt lat="47.51337" lon="6.67476">
        <ele>388.691</ele>
        <time>2016-06-04T14:20:20.330Z</time>
      </trkpt>
      <trkpt lat="47.51338" lon="6.67469">
        <ele>388.773</ele>
        <time>2016-06-04T14:20:21.330Z</time>
      </trkpt>
      <trkpt lat="47.51339" lon="6.67462">
        <ele>388.841</ele>
        <time>2016-06-04T14:20:22.330Z</time>
      </trkpt>
      <trkpt lat="47.51341" lon="6.67456">
        <ele>388.891</ele>
        <time>2016-06-04T14:20:23.330Z</time>
      </trkpt>
      <trkpt lat="47.51342" lon="6.67449">
        <ele>388.922</ele>
        <time>2016-06-04T14:20:24.330Z</time>
      </trkpt>
      <trkpt lat="47.51343" lon="6.67443">
        <ele>388.929</ele>
        <time>2016-06-04T14:20:25.330Z</time>
      </trkpt>
      <trkpt lat="47.51345" lon="6.67436">
        <ele>388.911</ele>
        <time>2016-06-04T14:20:26.330Z</time>
      </trkpt>
      <trkpt lat="47.51346" lon="6.6743">
        <ele>388.866</ele>
        <time>2016-06-04T14:20:27.330Z</time>
      </trkpt>
      <trkpt lat="47.51347" lon="6.67424">
        <ele>388.795</ele>
        <time>2016-06-04T14:20:28.330Z</time>
      </trkpt>
      <trkpt lat="47.51348" lon="6.67417">
        <ele>388.697</ele>
        <time>2016-06-04T14:20:29.330Z</time>
      </trkpt>
      <trkpt lat="47.51349" lon="6.6741">
        <ele>388.576</ele>
        <time>2016-06-04T14:20:30.330Z</time>
      </trkpt>
      <trkpt lat="47.51351" lon="6.67404">
        <ele>388.432</ele>
        <time>2016-06-04T14:20:31.330Z</time>
      </trkpt>
      <trkpt lat="47.51352" lon="6.67397">
        <ele>388.271</ele>
        <time>2016-06-04T14:20:32.330Z</time>
      </trkpt>
      <trkpt lat="47.51353" lon="6.67391">
        <ele>388.097</ele>
        <time>2016-06-04T14:20:33.330Z</time>
      </trkpt>
      <trkpt lat="47.51355" lon="6.67384">
        <ele>387.914</ele>
        <time>2016-06-04T14:20:34.330Z</time>
      </trkpt>
      <trkpt lat="47.51356" lon="6.67378">
        <ele>387.727</ele>
        <time>2016-06-04T14:20:35.330Z</time>
      </trkpt>
      <trkpt lat="47.51358" lon="6.67371">
        <ele>387.54</ele>
        <time>2016-06-04T14:20:36.330Z</time>
      </trkpt>
      <trkpt lat="47.51359" lon="6.67364">
        <ele>387.358</ele>
        <time>2016-06-04T14:20:37.330Z</time>
      </trkpt>
      <trkpt lat="47.51361" lon="6.67357">
        <ele>387.185</ele>
        <time>2016-06-04T14:20:38.330Z</time>
      </trkpt>
      <trkpt lat="47.51362" lon="6.67351">
        <ele>387.025</ele>
        <time>2016-06-04T14:20:39.330Z</time>
      </trkpt>
      <trkpt lat="47.51363" lon="6.67344">
        <ele>386.881</ele>
        <time>2016-06-04T14:20:40.330Z</time>
      </trkpt>
      <trkpt lat="47.51365" lon="6.67337">
        <ele>386.753</ele>
        <time>2016-06-04T14:20:41.330Z</time>
      </trkpt>
      <trkpt lat="47.51366" lon="6.6733">
        <ele>386.644</ele>
        <time>2016-06-04T14:20:42.330Z</time>
      </trkpt>
      <trkpt lat="47.51367" lon="6.67323">
        <ele>386.554</ele>
        <time>2016-06-04T14:20:43.330Z</time>
      </trkpt>
      <trkpt lat="47.51369" lon="6.67316">
        <ele>386.483</ele>
        <time>2016-06-04T14:20:44.330Z</time>
      </trkpt>
      <trkpt lat="47.5137" lon="6.6731">
        <ele>386.429</ele>
        <time>2016-06-04T14:20:45.330Z</time>
      </trkpt>
      <trkpt lat="47.51372" lon="6.67303">
        <ele>386.39</ele>
        <time>2016-06-04T14:20:46.330Z</time>
      </trkpt>
      <trkpt lat="47.51373" lon="6.67296">
        <ele>386.363</ele>
        <time>2016-06-04T14:20:47.330Z</time>
      </trkpt>
      <trkpt lat="47.51375" lon="6.67289">
        <ele>386.345</ele>
        <time>2016-06-04T14:20:48.330Z</time>
      </trkpt>
      <trkpt lat="47.51376" lon="6.67282">
        <ele>386.331</ele>
        <time>2016-06-04T14:20:49.330Z</time>
      </trkpt>
      <trkpt lat="47.51378" lon="6.67275">
        <ele>386.319</ele>
        <time>2016-06-04T14:20:50.330Z</time>
      </trkpt>
      <trkpt lat="47.51379" lon="6.67268">
        <ele>386.304</ele>
        <time>2016-06-04T14:20:51.330Z</time>
      </trkpt>
      <trkpt lat="47.51381" lon="6.67261">
        <ele>386.283</ele>
        <time>2016-06-04T14:20:52.330Z</time>
      </trkpt>
      <trkpt lat="47.51382" lon="6.67254">
        <ele>386.254</ele>
        <time>2016-06-04T14:20:53.330Z</time>
      </trkpt>
      <trkpt lat="47.51383" lon="6.67247">
        <ele>386.215</ele>
        <time>2016-06-04T14:20:54.330Z</time>
      </trkpt>
      <trkpt lat="47.51385" lon="6.6724">
        <ele>386.163</ele>
        <time>2016-06-04T14:20:55.330Z</time>
      </trkpt>
      <trkpt lat="47.51386" lon="6.67233">
        <ele>386.097</ele>
        <time>2016-06-04T14:20:56.330Z</time>
      </trkpt>
      <trkpt lat="47.51388" lon="6.67226">
        <ele>386.019</ele>
        <time>2016-06-04T14:20:57.330Z</time>
      </trkpt>
      <trkpt lat="47.51389" lon="6.67219">
        <ele>385.928</ele>
        <time>2016-06-04T14:20:58.330Z</time>
      </trkpt>
      <trkpt lat="47.5139" lon="6.67212">
        <ele>385.826</ele>
        <time>2016-06-04T14:20:59.330Z</time>
      </trkpt>
      <trkpt lat="47.51392" lon="6.67205">
        <ele>385.716</ele>
        <time>2016-06-04T14:21:00.330Z</time>
      </trkpt>
      <trkpt lat="47.51393" lon="6.67198">
        <ele>385.601</ele>
        <time>2016-06-04T14:21:01.330Z</time>
      </trkpt>
      <trkpt lat="47.51394" lon="6.6719">
        <ele>385.485</ele>
        <time>2016-06-04T14:21:02.330Z</time>
      </trkpt>
      <trkpt lat="47.51396" lon="6.67183">
        <ele>385.372</ele>
        <time>2016-06-04T14:21:03.330Z</time>
      </trkpt>
      <trkpt lat="47.51397" lon="6.67175">
        <ele>385.266</ele>
        <time>2016-06-04T14:21:04.330Z</time>
      </trkpt>
      <trkpt lat="47.51398" lon="6.67168">
        <ele>385.167</ele>
        <time>2016-06-04T14:21:05.330Z</time>
      </trkpt>
      <trkpt lat="47.514" lon="6.67161">
        <ele>385.078</ele>
        <time>2016-06-04T14:21:06.330Z</time>
      </trkpt>
      <trkpt lat="47.51401" lon="6.67154">
        <ele>384.999</ele>
        <time>2016-06-04T14:21:07.330Z</time>
      </trkpt>
      <trkpt lat="47.51403" lon="6.67147">
        <ele>384.929</ele>
        <time>2016-06-04T14:21:08.330Z</time>
      </trkpt>
      <trkpt lat="47.51405" lon="6.6714">
        <ele>384.867</ele>
        <time>2016-06-04T14:21:09.330Z</time>
      </trkpt>
      <trkpt lat="47.51406" lon="6.67133">
        <ele>384.814</ele>
        <time>2016-06-04T14:21:10.330Z</time>
      </trkpt>
      <trkpt lat="47.51407" lon="6.67126">
        <ele>384.769</ele>
        <time>2016-06-04T14:21:11.330Z</time>
      </trkpt>
      <trkpt lat="47.51408" lon="6.6712">
        <ele>384.733</ele>
        <time>2016-06-04T14:21:12.330Z</time>
      </trkpt>
      <trkpt lat="47.5141" lon="6.67113">
        <ele>384.706</ele>
        <time>2016-06-04T14:21:13.330Z</time>
      </trkpt>
      <trkpt lat="47.51411" lon="6.67106">
        <ele>384.685</ele>
        <time>2016-06-04T14:21:14.330Z</time>
      </trkpt>
      <trkpt lat="47.51412" lon="6.67099">
        <ele>384.672</ele>
        <time>2016-06-04T14:21:15.330Z</time>
      </trkpt>
      <trkpt lat="47.51413" lon="6.67093">
        <ele>384.662</ele>
        <time>2016-06-04T14:21:16.330Z</time>
      </trkpt>
      <trkpt lat="47.51415" lon="6.67086">
        <ele>384.655</ele>
        <time>2016-06-04T14:21:17.330Z</time>
      </trkpt>
      <trkpt lat="47.51416" lon="6.6708">
        <ele>384.649</ele>
        <time>2016-06-04T14:21:18.330Z</time>
      </trkpt>
      <trkpt lat="47.51418" lon="6.67073">
        <ele>384.642</ele>
        <time>2016-06-04T14:21:19.330Z</time>
      </trkpt>
      <trkpt lat="47.51419" lon="6.67066">
        <ele>384.634</ele>
        <time>2016-06-04T14:21:20.330Z</time>
      </trkpt>
      <trkpt lat="47.51421" lon="6.6706">
        <ele>384.624</ele>
        <time>2016-06-04T14:21:21.330Z</time>
      </trkpt>
      <trkpt lat="47.51422" lon="6.67053">
        <ele>384.612</ele>
        <time>2016-06-04T14:21:22.330Z</time>
      </trkpt>
      <trkpt lat="47.51424" lon="6.67046">
        <ele>384.599</ele>
        <time>2016-06-04T14:21:23.330Z</time>
      </trkpt>
      <trkpt lat="47.51425" lon="6.67039">
        <ele>384.586</ele>
        <time>2016-06-04T14:21:24.330Z</time>
      </trkpt>
      <trkpt lat="47.51426" lon="6.67032">
        <ele>384.575</ele>
        <time>2016-06-04T14:21:25.330Z</time>
      </trkpt>
      <trkpt lat="47.51427" lon="6.67025">
        <ele>384.566</ele>
        <time>2016-06-04T14:21:26.330Z</time>
      </trkpt>
      <trkpt lat="47.51429" lon="6.67017">
        <ele>384.561</ele>
        <time>2016-06-04T14:21:27.330Z</time>
      </trkpt>
      <trkpt lat="47.5143" lon="6.6701">
        <ele>384.559</ele>
        <time>2016-06-04T14:21:28.330Z</time>
      </trkpt>
      <trkpt lat="47.51432" lon="6.67003">
        <ele>384.56</ele>
        <time>2016-06-04T14:21:29.330Z</time>
      </trkpt>
      <trkpt lat="47.51433" lon="6.66995">
        <ele>384.566</ele>
        <time>2016-06-04T14:21:30.330Z</time>
      </trkpt>
      <trkpt lat="47.51434" lon="6.66988">
        <ele>384.574</ele>
        <time>2016-06-04T14:21:31.330Z</time>
      </trkpt>
      <trkpt lat="47.51436" lon="6.6698">
        <ele>384.583</ele>
        <time>2016-06-04T14:21:32.330Z</time>
      </trkpt>
      <trkpt lat="47.51437" lon="6.66973">
        <ele>384.593</ele>
        <time>2016-06-04T14:21:33.330Z</time>
      </trkpt>
      <trkpt lat="47.51439" lon="6.66966">
        <ele>384.601</ele>
        <time>2016-06-04T14:21:34.330Z</time>
      </trkpt>
      <trkpt lat="47.5144" lon="6.66958">
        <ele>384.607</ele>
        <time>2016-06-04T14:21:35.330Z</time>
      </trkpt>
      <trkpt lat="47.51442" lon="6.66951">
        <ele>384.611</ele>
        <time>2016-06-04T14:21:36.330Z</time>
      </trkpt>
      <trkpt lat="47.51443" lon="6.66943">
        <ele>384.613</ele>
        <time>2016-06-04T14:21:37.330Z</time>
      </trkpt>
      <trkpt lat="47.51445" lon="6.66936">
        <ele>384.613</ele>
        <time>2016-06-04T14:21:38.330Z</time>
      </trkpt>
      <trkpt lat="47.51446" lon="6.66928">
        <ele>384.61</ele>
        <time>2016-06-04T14:21:39.330Z</time>
      </trkpt>
      <trkpt lat="47.51448" lon="6.66921">
        <ele>384.606</ele>
        <time>2016-06-04T14:21:40.330Z</time>
      </trkpt>
      <trkpt lat="47.51449" lon="6.66913">
        <ele>384.6</ele>
        <time>2016-06-04T14:21:41.330Z</time>
      </trkpt>
      <trkpt lat="47.51451" lon="6.66906">
        <ele>384.593</ele>
        <time>2016-06-04T14:21:42.330Z</time>
      </trkpt>
      <trkpt lat="47.51452" lon="6.66898">
        <ele>384.585</ele>
        <time>2016-06-04T14:21:43.330Z</time>
      </trkpt>
      <trkpt lat="47.51454" lon="6.66891">
        <ele>384.576</ele>
        <time>2016-06-04T14:21:44.330Z</time>
      </trkpt>
      <trkpt lat="47.51456" lon="6.66883">
        <ele>384.565</ele>
        <time>2016-06-04T14:21:45.330Z</time>
      </trkpt>
      <trkpt lat="47.51457" lon="6.66876">
        <ele>384.55</ele>
        <time>2016-06-04T14:21:46.330Z</time>
      </trkpt>
      <trkpt lat="47.51459" lon="6.66869">
        <ele>384.532</ele>
        <time>2016-06-04T14:21:47.330Z</time>
      </trkpt>
      <trkpt lat="47.51461" lon="6.66862">
        <ele>384.508</ele>
        <time>2016-06-04T14:21:48.330Z</time>
      </trkpt>
      <trkpt lat="47.51462" lon="6.66855">
        <ele>384.477</ele>
        <time>2016-06-04T14:21:49.330Z</time>
      </trkpt>
      <trkpt lat="47.51463" lon="6.66848">
        <ele>384.436</ele>
        <time>2016-06-04T14:21:50.330Z</time>
      </trkpt>
      <trkpt lat="47.51464" lon="6.66841">
        <ele>384.382</ele>
        <time>2016-06-04T14:21:51.330Z</time>
      </trkpt>
      <trkpt lat="47.51466" lon="6.66835">
        <ele>384.314</ele>
        <time>2016-06-04T14:21:52.330Z</time>
      </trkpt>
      <trkpt lat="47.51467" lon="6.66828">
        <ele>384.229</ele>
        <time>2016-06-04T14:21:53.330Z</time>
      </trkpt>
      <trkpt lat="47.51468" lon="6.66822">
        <ele>384.128</ele>
        <time>2016-06-04T14:21:54.330Z</time>
      </trkpt>
      <trkpt lat="47.51469" lon="6.66816">
        <ele>384.009</ele>
        <time>2016-06-04T14:21:55.330Z</time>
      </trkpt>
      <trkpt lat="47.51469" lon="6.6681">
        <ele>383.873</ele>
        <time>2016-06-04T14:21:56.330Z</time>
      </trkpt>
      <trkpt lat="47.5147" lon="6.66804">
        <ele>383.725</ele>
        <time>2016-06-04T14:21:57.330Z</time>
      </trkpt>
      <trkpt lat="47.5147" lon="6.66798">
        <ele>383.565</ele>
        <time>2016-06-04T14:21:58.330Z</time>
      </trkpt>
      <trkpt lat="47.5147" lon="6.66793">
        <ele>383.397</ele>
        <time>2016-06-04T14:21:59.330Z</time>
      </trkpt>
      <trkpt lat="47.51471" lon="6.66788">
        <ele>383.224</ele>
        <time>2016-06-04T14:22:00.330Z</time>
      </trkpt>
      <trkpt lat="47.51472" lon="6.66783">
        <ele>383.048</ele>
        <time>2016-06-04T14:22:01.330Z</time>
      </trkpt>
      <trkpt lat="47.51472" lon="6.66778">
        <ele>382.873</ele>
        <time>2016-06-04T14:22:02.330Z</time>
      </trkpt>
      <trkpt lat="47.51473" lon="6.66774">
        <ele>382.699</ele>
        <time>2016-06-04T14:22:03.330Z</time>
      </trkpt>
      <trkpt lat="47.51475" lon="6.66769">
        <ele>382.528</ele>
        <time>2016-06-04T14:22:04.330Z</time>
      </trkpt>
      <trkpt lat="47.51476" lon="6.66765">
        <ele>382.361</ele>
        <time>2016-06-04T14:22:05.330Z</time>
      </trkpt>
      <trkpt lat="47.51477" lon="6.66761">
        <ele>382.198</ele>
        <time>2016-06-04T14:22:06.330Z</time>
      </trkpt>
      <trkpt lat="47.51478" lon="6.66758">
        <ele>382.039</ele>
        <time>2016-06-04T14:22:07.330Z</time>
      </trkpt>
      <trkpt lat="47.51479" lon="6.66755">
        <ele>381.884</ele>
        <time>2016-06-04T14:22:08.330Z</time>
      </trkpt>
      <trkpt lat="47.5148" lon="6.66754">
        <ele>381.734</ele>
        <time>2016-06-04T14:22:09.330Z</time>
      </trkpt>
      <trkpt lat="47.5148" lon="6.66753">
        <ele>381.589</ele>
        <time>2016-06-04T14:22:10.330Z</time>
      </trkpt>
      <trkpt lat="47.5148" lon="6.66753">
        <ele>381.447</ele>
        <time>2016-06-04T14:22:11.330Z</time>
      </trkpt>
      <trkpt lat="47.5148" lon="6.66753">
        <ele>381.309</ele>
        <time>2016-06-04T14:22:12.330Z</time>
      </trkpt>
      <trkpt lat="47.5148" lon="6.66753">
        <ele>381.173</ele>
        <time>2016-06-04T14:22:13.330Z</time>
      </trkpt>
      <trkpt lat="47.5148" lon="6.66753">
        <ele>381.041</ele>
        <time>2016-06-04T14:22:14.330Z</time>
      </trkpt>
      <trkpt lat="47.5148" lon="6.66753">
        <ele>380.911</ele>
        <time>2016-06-04T14:22:15.330Z</time>
      </trkpt>
      <trkpt lat="47.5148" lon="6.66753">
        <ele>380.784</ele>
        <time>2016-06-04T14:22:16.330Z</time>
      </trkpt>
      <trkpt lat="47.5148" lon="6.66753">
        <ele>380.659</ele>
        <time>2016-06-04T14:22:17.330Z</time>
      </trkpt>
      <trkpt lat="47.5148" lon="6.66752">
        <ele>380.538</ele>
        <time>2016-06-04T14:22:18.330Z</time>
      </trkpt>
      <trkpt lat="47.5148" lon="6.66752">
        <ele>380.422</ele>
        <time>2016-06-04T14:22:19.330Z</time>
      </trkpt>
      <trkpt lat="47.5148" lon="6.66752">
        <ele>380.312</ele>
        <time>2016-06-04T14:22:20.330Z</time>
      </trkpt>
      <trkpt lat="47.5148" lon="6.66752">
        <ele>380.209</ele>
        <time>2016-06-04T14:22:21.330Z</time>
      </trkpt>
      <trkpt lat="47.5148" lon="6.66752">
        <ele>380.117</ele>
        <time>2016-06-04T14:22:22.330Z</time>
      </trkpt>
      <trkpt lat="47.5148" lon="6.66752">
        <ele>380.036</ele>
        <time>2016-06-04T14:22:23.330Z</time>
      </trkpt>
      <trkpt lat="47.5148" lon="6.66752">
        <ele>379.966</ele>
        <time>2016-06-04T14:22:24.330Z</time>
      </trkpt>
      <trkpt lat="47.5148" lon="6.66752">
        <ele>379.909</ele>
        <time>2016-06-04T14:22:25.330Z</time>
      </trkpt>
      <trkpt lat="47.5148" lon="6.66751">
        <ele>379.863</ele>
        <time>2016-06-04T14:22:26.330Z</time>
      </trkpt>
      <trkpt lat="47.5148" lon="6.66751">
        <ele>379.828</ele>
        <time>2016-06-04T14:22:27.330Z</time>
      </trkpt>
      <trkpt lat="47.51479" lon="6.66751">
        <ele>379.803</ele>
        <time>2016-06-04T14:22:28.330Z</time>
      </trkpt>
      <trkpt lat="47.51479" lon="6.66751">
        <ele>379.786</ele>
        <time>2016-06-04T14:22:29.330Z</time>
      </trkpt>
      <trkpt lat="47.51479" lon="6.66751">
        <ele>379.777</ele>
        <time>2016-06-04T14:22:30.330Z</time>
      </trkpt>
      <trkpt lat="47.51479" lon="6.66751">
        <ele>379.773</ele>
        <time>2016-06-04T14:22:31.330Z</time>
      </trkpt>
      <trkpt lat="47.51479" lon="6.66751">
        <ele>379.774</ele>
        <time>2016-06-04T14:22:32.330Z</time>
      </trkpt>
      <trkpt lat="47.51479" lon="6.66751">
        <ele>379.778</ele>
        <time>2016-06-04T14:22:33.330Z</time>
      </trkpt>
      <trkpt lat="47.51479" lon="6.66751">
        <ele>379.785</ele>
        <time>2016-06-04T14:22:34.330Z</time>
      </trkpt>
      <trkpt lat="47.51479" lon="6.66751">
        <ele>379.793</ele>
        <time>2016-06-04T14:22:35.330Z</time>
      </trkpt>
      <trkpt lat="47.51479" lon="6.66751">
        <ele>379.803</ele>
        <time>2016-06-04T14:22:36.330Z</time>
      </trkpt>
      <trkpt lat="47.51479" lon="6.66751">
        <ele>379.813</ele>
        <time>2016-06-04T14:22:37.330Z</time>
      </trkpt>
      <trkpt lat="47.51479" lon="6.66751">
        <ele>379.823</ele>
        <time>2016-06-04T14:22:38.330Z</time>
      </trkpt>
      <trkpt lat="47.51479" lon="6.66751">
        <ele>379.833</ele>
        <time>2016-06-04T14:22:39.330Z</time>
      </trkpt>
      <trkpt lat="47.51479" lon="6.66751">
        <ele>379.843</ele>
        <time>2016-06-04T14:22:40.330Z</time>
      </trkpt>
      <trkpt lat="47.51479" lon="6.66751">
        <ele>379.852</ele>
        <time>2016-06-04T14:22:41.330Z</time>
      </trkpt>
      <trkpt lat="47.51479" lon="6.66751">
        <ele>379.86</ele>
        <time>2016-06-04T14:22:42.330Z</time>
      </trkpt>
      <trkpt lat="47.51479" lon="6.66751">
        <ele>379.867</ele>
        <time>2016-06-04T14:22:43.330Z</time>
      </trkpt>
      <trkpt lat="47.51479" lon="6.66751">
        <ele>379.873</ele>
        <time>2016-06-04T14:22:44.330Z</time>
      </trkpt>
      <trkpt lat="47.51479" lon="6.66751">
        <ele>379.878</ele>
        <time>2016-06-04T14:22:45.330Z</time>
      </trkpt>
      <trkpt lat="47.51479" lon="6.66751">
        <ele>379.883</ele>
        <time>2016-06-04T14:22:46.330Z</time>
      </trkpt>
      <trkpt lat="47.51479" lon="6.66751">
        <ele>379.886</ele>
        <time>2016-06-04T14:22:47.330Z</time>
      </trkpt>
      <trkpt lat="47.51479" lon="6.66751">
        <ele>379.888</ele>
        <time>2016-06-04T14:22:48.330Z</time>
      </trkpt>
      <trkpt lat="47.51479" lon="6.66751">
        <ele>379.89</ele>
        <time>2016-06-04T14:22:49.330Z</time>
      </trkpt>
      <trkpt lat="47.51479" lon="6.66751">
        <ele>379.891</ele>
        <time>2016-06-04T14:22:50.330Z</time>
      </trkpt>
      <trkpt lat="47.51479" lon="6.66751">
        <ele>379.891</ele>
        <time>2016-06-04T14:22:51.330Z</time>
      </trkpt>
      <trkpt lat="47.51479" lon="6.66751">
        <ele>379.891</ele>
        <time>2016-06-04T14:22:52.330Z</time>
      </trkpt>
      <trkpt lat="47.51479" lon="6.66751">
        <ele>379.89</ele>
        <time>2016-06-04T14:22:53.330Z</time>
      </trkpt>
      <trkpt lat="47.51479" lon="6.66751">
        <ele>379.889</ele>
        <time>2016-06-04T14:22:54.330Z</time>
      </trkpt>
      <trkpt lat="47.51479" lon="6.66751">
        <ele>379.888</ele>
        <time>2016-06-04T14:22:55.330Z</time>
      </trkpt>
      <trkpt lat="47.51479" lon="6.66751">
        <ele>379.886</ele>
        <time>2016-06-04T14:22:56.330Z</time>
      </trkpt>
      <trkpt lat="47.51479" lon="6.66751">
        <ele>379.884</ele>
        <time>2016-06-04T14:22:57.330Z</time>
      </trkpt>
      <trkpt lat="47.51479" lon="6.66751">
        <ele>379.882</ele>
        <time>2016-06-04T14:22:58.330Z</time>
      </trkpt>
      <trkpt lat="47.51479" lon="6.66751">
        <ele>379.879</ele>
        <time>2016-06-04T14:22:59.330Z</time>
      </trkpt>
      <trkpt lat="47.51479" lon="6.66751">
        <ele>379.877</ele>
        <time>2016-06-04T14:23:00.330Z</time>
      </trkpt>
      <trkpt lat="47.51479" lon="6.66751">
        <ele>379.875</ele>
        <time>2016-06-04T14:23:01.330Z</time>
      </trkpt>
      <trkpt lat="47.51479" lon="6.66751">
        <ele>379.873</ele>
        <time>2016-06-04T14:23:02.330Z</time>
      </trkpt>
      <trkpt lat="47.51479" lon="6.66751">
        <ele>379.871</ele>
        <time>2016-06-04T14:23:03.330Z</time>
      </trkpt>
      <trkpt lat="47.51479" lon="6.66751">
        <ele>379.869</ele>
        <time>2016-06-04T14:23:04.330Z</time>
      </trkpt>
      <trkpt lat="47.51479" lon="6.66751">
        <ele>379.867</ele>
        <time>2016-06-04T14:23:05.330Z</time>
      </trkpt>
      <trkpt lat="47.51479" lon="6.66751">
        <ele>379.865</ele>
        <time>2016-06-04T14:23:06.330Z</time>
      </trkpt>
      <trkpt lat="47.51479" lon="6.66751">
        <ele>379.863</ele>
        <time>2016-06-04T14:23:07.330Z</time>
      </trkpt>
      <trkpt lat="47.51479" lon="6.66751">
        <ele>379.862</ele>
        <time>2016-06-04T14:23:08.330Z</time>
      </trkpt>
      <trkpt lat="47.51479" lon="6.66751">
        <ele>379.86</ele>
        <time>2016-06-04T14:23:09.330Z</time>
      </trkpt>
      <trkpt lat="47.51479" lon="6.66751">
        <ele>379.858</ele>
        <time>2016-06-04T14:23:10.330Z</time>
      </trkpt>
      <trkpt lat="47.51479" lon="6.66751">
        <ele>379.857</ele>
        <time>2016-06-04T14:23:11.330Z</time>
      </trkpt>
      <trkpt lat="47.51479" lon="6.66751">
        <ele>379.855</ele>
        <time>2016-06-04T14:23:12.330Z</time>
      </trkpt>
      <trkpt lat="47.51479" lon="6.66751">
        <ele>379.854</ele>
        <time>2016-06-04T14:23:13.330Z</time>
      </trkpt>
      <trkpt lat="47.51479" lon="6.66751">
        <ele>379.852</ele>
        <time>2016-06-04T14:23:14.330Z</time>
      </trkpt>
      <trkpt lat="47.51479" lon="6.66751">
        <ele>379.851</ele>
        <time>2016-06-04T14:23:15.330Z</time>
      </trkpt>
      <trkpt lat="47.51479" lon="6.66751">
        <ele>379.849</ele>
        <time>2016-06-04T14:23:16.330Z</time>
      </trkpt>
      <trkpt lat="47.51479" lon="6.66751">
        <ele>379.847</ele>
        <time>2016-06-04T14:23:17.330Z</time>
      </trkpt>
      <trkpt lat="47.51479" lon="6.66751">
        <ele>379.846</ele>
        <time>2016-06-04T14:23:18.330Z</time>
      </trkpt>
      <trkpt lat="47.51479" lon="6.66751">
        <ele>379.844</ele>
        <time>2016-06-04T14:23:19.330Z</time>
      </trkpt>
      <trkpt lat="47.51479" lon="6.66751">
        <ele>379.842</ele>
        <time>2016-06-04T14:23:20.330Z</time>
      </trkpt>
      <trkpt lat="47.51479" lon="6.66751">
        <ele>379.84</ele>
        <time>2016-06-04T14:23:21.330Z</time>
      </trkpt>
      <trkpt lat="47.51479" lon="6.66751">
        <ele>379.837</ele>
        <time>2016-06-04T14:23:22.330Z</time>
      </trkpt>
      <trkpt lat="47.51479" lon="6.66751">
        <ele>379.835</ele>
        <time>2016-06-04T14:23:23.330Z</time>
      </trkpt>
      <trkpt lat="47.51479" lon="6.66751">
        <ele>379.833</ele>
        <time>2016-06-04T14:23:24.330Z</time>
      </trkpt>
      <trkpt lat="47.51479" lon="6.66751">
        <ele>379.83</ele>
        <time>2016-06-04T14:23:25.330Z</time>
      </trkpt>
      <trkpt lat="47.51479" lon="6.66751">
        <ele>379.827</ele>
        <time>2016-06-04T14:23:26.330Z</time>
      </trkpt>
      <trkpt lat="47.51479" lon="6.66751">
        <ele>379.825</ele>
        <time>2016-06-04T14:23:27.330Z</time>
      </trkpt>
      <trkpt lat="47.51479" lon="6.66751">
        <ele>379.822</ele>
        <time>2016-06-04T14:23:28.330Z</time>
      </trkpt>
      <trkpt lat="47.51479" lon="6.66751">
        <ele>379.82</ele>
        <time>2016-06-04T14:23:29.330Z</time>
      </trkpt>
      <trkpt lat="47.51479" lon="6.66751">
        <ele>379.817</ele>
        <time>2016-06-04T14:23:30.330Z</time>
      </trkpt>
      <trkpt lat="47.51479" lon="6.66751">
        <ele>379.815</ele>
        <time>2016-06-04T14:23:31.330Z</time>
      </trkpt>
      <trkpt lat="47.51479" lon="6.66751">
        <ele>379.813</ele>
        <time>2016-06-04T14:23:32.330Z</time>
      </trkpt>
      <trkpt lat="47.51479" lon="6.66751">
        <ele>379.811</ele>
        <time>2016-06-04T14:23:33.330Z</time>
      </trkpt>
      <trkpt lat="47.51479" lon="6.66751">
        <ele>379.81</ele>
        <time>2016-06-04T14:23:34.330Z</time>
      </trkpt>
      <trkpt lat="47.51479" lon="6.66751">
        <ele>379.808</ele>
        <time>2016-06-04T14:23:35.330Z</time>
      </trkpt>
      <trkpt lat="47.51479" lon="6.66751">
        <ele>379.807</ele>
        <time>2016-06-04T14:23:36.330Z</time>
      </trkpt>
      <trkpt lat="47.51479" lon="6.66751">
        <ele>379.806</ele>
        <time>2016-06-04T14:23:37.330Z</time>
      </trkpt>
      <trkpt lat="47.51479" lon="6.66751">
        <ele>379.805</ele>
        <time>2016-06-04T14:23:38.330Z</time>
      </trkpt>
      <trkpt lat="47.51479" lon="6.66751">
        <ele>379.805</ele>
        <time>2016-06-04T14:23:39.330Z</time>
      </trkpt>
      <trkpt lat="47.51479" lon="6.66751">
        <ele>379.804</ele>
        <time>2016-06-04T14:23:40.330Z</time>
      </trkpt>
      <trkpt lat="47.51479" lon="6.66751">
        <ele>379.804</ele>
        <time>2016-06-04T14:23:41.330Z</time>
      </trkpt>
      <trkpt lat="47.51479" lon="6.66751">
        <ele>379.804</ele>
        <time>2016-06-04T14:23:42.330Z</time>
      </trkpt>
      <trkpt lat="47.51479" lon="6.66751">
        <ele>379.804</ele>
        <time>2016-06-04T14:23:43.330Z</time>
      </trkpt>
      <trkpt lat="47.51479" lon="6.66751">
        <ele>379.804</ele>
        <time>2016-06-04T14:23:44.330Z</time>
      </trkpt>
      <trkpt lat="47.51479" lon="6.66751">
        <ele>379.804</ele>
        <time>2016-06-04T14:23:45.330Z</time>
      </trkpt>
      <trkpt lat="47.51479" lon="6.66751">
        <ele>379.804</ele>
        <time>2016-06-04T14:23:46.330Z</time>
      </trkpt>
      <trkpt lat="47.51479" lon="6.66751">
        <ele>379.804</ele>
        <time>2016-06-04T14:23:47.330Z</time>
      </trkpt>
      <trkpt lat="47.51479" lon="6.66751">
        <ele>379.804</ele>
        <time>2016-06-04T14:23:48.330Z</time>
      </trkpt>
      <trkpt lat="47.51479" lon="6.66751">
        <ele>379.804</ele>
        <time>2016-06-04T14:23:49.330Z</time>
      </trkpt>
      <trkpt lat="47.51479" lon="6.66751">
        <ele>379.803</ele>
        <time>2016-06-04T14:23:50.330Z</time>
      </trkpt>
      <trkpt lat="47.51479" lon="6.66751">
        <ele>379.802</ele>
        <time>2016-06-04T14:23:51.330Z</time>
      </trkpt>
      <trkpt lat="47.51479" lon="6.66751">
        <ele>379.8</ele>
        <time>2016-06-04T14:23:52.330Z</time>
      </trkpt>
      <trkpt lat="47.51479" lon="6.66751">
        <ele>379.797</ele>
        <time>2016-06-04T14:23:53.330Z</time>
      </trkpt>
      <trkpt lat="47.51479" lon="6.66751">
        <ele>379.793</ele>
        <time>2016-06-04T14:23:54.330Z</time>
      </trkpt>
      <trkpt lat="47.51479" lon="6.66751">
        <ele>379.788</ele>
        <time>2016-06-04T14:23:55.330Z</time>
      </trkpt>
      <trkpt lat="47.51479" lon="6.66751">
        <ele>379.781</ele>
        <time>2016-06-04T14:23:56.330Z</time>
      </trkpt>
      <trkpt lat="47.51479" lon="6.66751">
        <ele>379.773</ele>
        <time>2016-06-04T14:23:57.330Z</time>
      </trkpt>
      <trkpt lat="47.51479" lon="6.66751">
        <ele>379.762</ele>
        <time>2016-06-04T14:23:58.330Z</time>
      </trkpt>
      <trkpt lat="47.51479" lon="6.66751">
        <ele>379.749</ele>
        <time>2016-06-04T14:23:59.330Z</time>
      </trkpt>
      <trkpt lat="47.51479" lon="6.66751">
        <ele>379.734</ele>
        <time>2016-06-04T14:24:00.330Z</time>
      </trkpt>
      <trkpt lat="47.51479" lon="6.66751">
        <ele>379.715</ele>
        <time>2016-06-04T14:24:01.330Z</time>
      </trkpt>
      <trkpt lat="47.51479" lon="6.66751">
        <ele>379.694</ele>
        <time>2016-06-04T14:24:02.330Z</time>
      </trkpt>
      <trkpt lat="47.51479" lon="6.66751">
        <ele>379.67</ele>
        <time>2016-06-04T14:24:03.330Z</time>
      </trkpt>
      <trkpt lat="47.51479" lon="6.66751">
        <ele>379.642</ele>
        <time>2016-06-04T14:24:04.330Z</time>
      </trkpt>
      <trkpt lat="47.51479" lon="6.66751">
        <ele>379.611</ele>
        <time>2016-06-04T14:24:05.330Z</time>
      </trkpt>
      <trkpt lat="47.51479" lon="6.66751">
        <ele>379.578</ele>
        <time>2016-06-04T14:24:06.330Z</time>
      </trkpt>
      <trkpt lat="47.51479" lon="6.66751">
        <ele>379.542</ele>
        <time>2016-06-04T14:24:07.330Z</time>
      </trkpt>
      <trkpt lat="47.51479" lon="6.66751">
        <ele>379.505</ele>
        <time>2016-06-04T14:24:08.330Z</time>
      </trkpt>
      <trkpt lat="47.51479" lon="6.66751">
        <ele>379.467</ele>
        <time>2016-06-04T14:24:09.330Z</time>
      </trkpt>
      <trkpt lat="47.5148" lon="6.66751">
        <ele>379.429</ele>
        <time>2016-06-04T14:24:10.330Z</time>
      </trkpt>
      <trkpt lat="47.5148" lon="6.66751">
        <ele>379.395</ele>
        <time>2016-06-04T14:24:11.330Z</time>
      </trkpt>
      <trkpt lat="47.5148" lon="6.6675">
        <ele>379.365</ele>
        <time>2016-06-04T14:24:12.330Z</time>
      </trkpt>
      <trkpt lat="47.5148" lon="6.6675">
        <ele>379.343</ele>
        <time>2016-06-04T14:24:13.330Z</time>
      </trkpt>
      <trkpt lat="47.5148" lon="6.66749">
        <ele>379.334</ele>
        <time>2016-06-04T14:24:14.330Z</time>
      </trkpt>
      <trkpt lat="47.5148" lon="6.66749">
        <ele>379.34</ele>
        <time>2016-06-04T14:24:15.330Z</time>
      </trkpt>
      <trkpt lat="47.5148" lon="6.66749">
        <ele>379.366</ele>
        <time>2016-06-04T14:24:16.330Z</time>
      </trkpt>
      <trkpt lat="47.51481" lon="6.66749">
        <ele>379.415</ele>
        <time>2016-06-04T14:24:17.330Z</time>
      </trkpt>
      <trkpt lat="47.51481" lon="6.66749">
        <ele>379.489</ele>
        <time>2016-06-04T14:24:18.330Z</time>
      </trkpt>
      <trkpt lat="47.51481" lon="6.66748">
        <ele>379.587</ele>
        <time>2016-06-04T14:24:19.330Z</time>
      </trkpt>
      <trkpt lat="47.51481" lon="6.66747">
        <ele>379.708</ele>
        <time>2016-06-04T14:24:20.330Z</time>
      </trkpt>
      <trkpt lat="47.51481" lon="6.66746">
        <ele>379.851</ele>
        <time>2016-06-04T14:24:21.330Z</time>
      </trkpt>
      <trkpt lat="47.51481" lon="6.66744">
        <ele>380.011</ele>
        <time>2016-06-04T14:24:22.330Z</time>
      </trkpt>
      <trkpt lat="47.51481" lon="6.66742">
        <ele>380.184</ele>
        <time>2016-06-04T14:24:23.330Z</time>
      </trkpt>
      <trkpt lat="47.51482" lon="6.6674">
        <ele>380.364</ele>
        <time>2016-06-04T14:24:24.330Z</time>
      </trkpt>
      <trkpt lat="47.51483" lon="6.66737">
        <ele>380.546</ele>
        <time>2016-06-04T14:24:25.330Z</time>
      </trkpt>
      <trkpt lat="47.51484" lon="6.66735">
        <ele>380.725</ele>
        <time>2016-06-04T14:24:26.330Z</time>
      </trkpt>
      <trkpt lat="47.51486" lon="6.66731">
        <ele>380.897</ele>
        <time>2016-06-04T14:24:27.330Z</time>
      </trkpt>
      <trkpt lat="47.51488" lon="6.66728">
        <ele>381.056</ele>
        <time>2016-06-04T14:24:28.330Z</time>
      </trkpt>
      <trkpt lat="47.5149" lon="6.66724">
        <ele>381.203</ele>
        <time>2016-06-04T14:24:29.330Z</time>
      </trkpt>
      <trkpt lat="47.51493" lon="6.66721">
        <ele>381.334</ele>
        <time>2016-06-04T14:24:30.330Z</time>
      </trkpt>
      <trkpt lat="47.51495" lon="6.66718">
        <ele>381.449</ele>
        <time>2016-06-04T14:24:31.330Z</time>
      </trkpt>
      <trkpt lat="47.51498" lon="6.66715">
        <ele>381.547</ele>
        <time>2016-06-04T14:24:32.330Z</time>
      </trkpt>
      <trkpt lat="47.515" lon="6.66712">
        <ele>381.63</ele>
        <time>2016-06-04T14:24:33.330Z</time>
      </trkpt>
      <trkpt lat="47.51503" lon="6.66709">
        <ele>381.697</ele>
        <time>2016-06-04T14:24:34.330Z</time>
      </trkpt>
      <trkpt lat="47.51505" lon="6.66705">
        <ele>381.751</ele>
        <time>2016-06-04T14:24:35.330Z</time>
      </trkpt>
      <trkpt lat="47.51508" lon="6.66702">
        <ele>381.796</ele>
        <time>2016-06-04T14:24:36.330Z</time>
      </trkpt>
      <trkpt lat="47.5151" lon="6.66699">
        <ele>381.835</ele>
        <time>2016-06-04T14:24:37.330Z</time>
      </trkpt>
      <trkpt lat="47.51513" lon="6.66695">
        <ele>381.871</ele>
        <time>2016-06-04T14:24:38.330Z</time>
      </trkpt>
      <trkpt lat="47.51515" lon="6.66691">
        <ele>381.907</ele>
        <time>2016-06-04T14:24:39.330Z</time>
      </trkpt>
      <trkpt lat="47.51518" lon="6.66687">
        <ele>381.941</ele>
        <time>2016-06-04T14:24:40.330Z</time>
      </trkpt>
      <trkpt lat="47.51521" lon="6.66684">
        <ele>381.973</ele>
        <time>2016-06-04T14:24:41.330Z</time>
      </trkpt>
      <trkpt lat="47.51524" lon="6.6668">
        <ele>381.998</ele>
        <time>2016-06-04T14:24:42.330Z</time>
      </trkpt>
      <trkpt lat="47.51527" lon="6.66676">
        <ele>382.014</ele>
        <time>2016-06-04T14:24:43.330Z</time>
      </trkpt>
      <trkpt lat="47.51531" lon="6.66672">
        <ele>382.014</ele>
        <time>2016-06-04T14:24:44.330Z</time>
      </trkpt>
      <trkpt lat="47.51534" lon="6.66667">
        <ele>381.997</ele>
        <time>2016-06-04T14:24:45.330Z</time>
      </trkpt>
      <trkpt lat="47.51536" lon="6.66663">
        <ele>381.96</ele>
        <time>2016-06-04T14:24:46.330Z</time>
      </trkpt>
      <trkpt lat="47.51539" lon="6.66658">
        <ele>381.902</ele>
        <time>2016-06-04T14:24:47.330Z</time>
      </trkpt>
      <trkpt lat="47.51539" lon="6.66651">
        <ele>381.822</ele>
        <time>2016-06-04T14:24:48.330Z</time>
      </trkpt>
      <trkpt lat="47.51539" lon="6.66644">
        <ele>381.723</ele>
        <time>2016-06-04T14:24:49.330Z</time>
      </trkpt>
      <trkpt lat="47.51537" lon="6.66637">
        <ele>381.606</ele>
        <time>2016-06-04T14:24:50.330Z</time>
      </trkpt>
      <trkpt lat="47.51533" lon="6.66631">
        <ele>381.474</ele>
        <time>2016-06-04T14:24:51.330Z</time>
      </trkpt>
      <trkpt lat="47.51529" lon="6.66627">
        <ele>381.327</ele>
        <time>2016-06-04T14:24:52.330Z</time>
      </trkpt>
      <trkpt lat="47.51524" lon="6.66626">
        <ele>381.168</ele>
        <time>2016-06-04T14:24:53.330Z</time>
      </trkpt>
      <trkpt lat="47.51519" lon="6.66626">
        <ele>380.997</ele>
        <time>2016-06-04T14:24:54.330Z</time>
      </trkpt>
      <trkpt lat="47.51514" lon="6.66628">
        <ele>380.813</ele>
        <time>2016-06-04T14:24:55.330Z</time>
      </trkpt>
      <trkpt lat="47.51509" lon="6.6663">
        <ele>380.617</ele>
        <time>2016-06-04T14:24:56.330Z</time>
      </trkpt>
      <trkpt lat="47.51505" lon="6.66633">
        <ele>380.409</ele>
        <time>2016-06-04T14:24:57.330Z</time>
      </trkpt>
      <trkpt lat="47.515" lon="6.66636">
        <ele>380.188</ele>
        <time>2016-06-04T14:24:58.330Z</time>
      </trkpt>
      <trkpt lat="47.51496" lon="6.66639">
        <ele>379.953</ele>
        <time>2016-06-04T14:24:59.330Z</time>
      </trkpt>
      <trkpt lat="47.51492" lon="6.66643">
        <ele>379.706</ele>
        <time>2016-06-04T14:25:00.330Z</time>
      </trkpt>
      <trkpt lat="47.51487" lon="6.66646">
        <ele>379.447</ele>
        <time>2016-06-04T14:25:01.330Z</time>
      </trkpt>
      <trkpt lat="47.51482" lon="6.6665">
        <ele>379.178</ele>
        <time>2016-06-04T14:25:02.330Z</time>
      </trkpt>
      <trkpt lat="47.51478" lon="6.66654">
        <ele>378.899</ele>
        <time>2016-06-04T14:25:03.330Z</time>
      </trkpt>
      <trkpt lat="47.51473" lon="6.66658">
        <ele>378.614</ele>
        <time>2016-06-04T14:25:04.330Z</time>
      </trkpt>
      <trkpt lat="47.51468" lon="6.66662">
        <ele>378.325</ele>
        <time>2016-06-04T14:25:05.330Z</time>
      </trkpt>
      <trkpt lat="47.51463" lon="6.66667">
        <ele>378.034</ele>
        <time>2016-06-04T14:25:06.330Z</time>
      </trkpt>
      <trkpt lat="47.51458" lon="6.66671">
        <ele>377.744</ele>
        <time>2016-06-04T14:25:07.330Z</time>
      </trkpt>
      <trkpt lat="47.51452" lon="6.66675">
        <ele>377.459</ele>
        <time>2016-06-04T14:25:08.330Z</time>
      </trkpt>
      <trkpt lat="47.51447" lon="6.66679">
        <ele>377.179</ele>
        <time>2016-06-04T14:25:09.330Z</time>
      </trkpt>
      <trkpt lat="47.51441" lon="6.66683">
        <ele>376.908</ele>
        <time>2016-06-04T14:25:10.330Z</time>
      </trkpt>
      <trkpt lat="47.51436" lon="6.66688">
        <ele>376.648</ele>
        <time>2016-06-04T14:25:11.330Z</time>
      </trkpt>
      <trkpt lat="47.5143" lon="6.66693">
        <ele>376.399</ele>
        <time>2016-06-04T14:25:12.330Z</time>
      </trkpt>
      <trkpt lat="47.51425" lon="6.66698">
        <ele>376.164</ele>
        <time>2016-06-04T14:25:13.330Z</time>
      </trkpt>
      <trkpt lat="47.51419" lon="6.66702">
        <ele>375.943</ele>
        <time>2016-06-04T14:25:14.330Z</time>
      </trkpt>
      <trkpt lat="47.51414" lon="6.66707">
        <ele>375.735</ele>
        <time>2016-06-04T14:25:15.330Z</time>
      </trkpt>
      <trkpt lat="47.51408" lon="6.66712">
        <ele>375.54</ele>
        <time>2016-06-04T14:25:16.330Z</time>
      </trkpt>
      <trkpt lat="47.51402" lon="6.66717">
        <ele>375.356</ele>
        <time>2016-06-04T14:25:17.330Z</time>
      </trkpt>
      <trkpt lat="47.51396" lon="6.66722">
        <ele>375.184</ele>
        <time>2016-06-04T14:25:18.330Z</time>
      </trkpt>
      <trkpt lat="47.51391" lon="6.66726">
        <ele>375.022</ele>
        <time>2016-06-04T14:25:19.330Z</time>
      </trkpt>
      <trkpt lat="47.51385" lon="6.66731">
        <ele>374.868</ele>
        <time>2016-06-04T14:25:20.330Z</time>
      </trkpt>
      <trkpt lat="47.51379" lon="6.66735">
        <ele>374.723</ele>
        <time>2016-06-04T14:25:21.330Z</time>
      </trkpt>
      <trkpt lat="47.51374" lon="6.6674">
        <ele>374.582</ele>
        <time>2016-06-04T14:25:22.330Z</time>
      </trkpt>
      <trkpt lat="47.51368" lon="6.66744">
        <ele>374.446</ele>
        <time>2016-06-04T14:25:23.330Z</time>
      </trkpt>
      <trkpt lat="47.51363" lon="6.66748">
        <ele>374.313</ele>
        <time>2016-06-04T14:25:24.330Z</time>
      </trkpt>
      <trkpt lat="47.51357" lon="6.66751">
        <ele>374.183</ele>
        <time>2016-06-04T14:25:25.330Z</time>
      </trkpt>
      <trkpt lat="47.51351" lon="6.66755">
        <ele>374.055</ele>
        <time>2016-06-04T14:25:26.330Z</time>
      </trkpt>
      <trkpt lat="47.51346" lon="6.66758">
        <ele>373.931</ele>
        <time>2016-06-04T14:25:27.330Z</time>
      </trkpt>
      <trkpt lat="47.5134" lon="6.66762">
        <ele>373.812</ele>
        <time>2016-06-04T14:25:28.330Z</time>
      </trkpt>
      <trkpt lat="47.51335" lon="6.66765">
        <ele>373.699</ele>
        <time>2016-06-04T14:25:29.330Z</time>
      </trkpt>
      <trkpt lat="47.51329" lon="6.66768">
        <ele>373.591</ele>
        <time>2016-06-04T14:25:30.330Z</time>
      </trkpt>
      <trkpt lat="47.51324" lon="6.66771">
        <ele>373.49</ele>
        <time>2016-06-04T14:25:31.330Z</time>
      </trkpt>
      <trkpt lat="47.51318" lon="6.66774">
        <ele>373.395</ele>
        <time>2016-06-04T14:25:32.330Z</time>
      </trkpt>
      <trkpt lat="47.51313" lon="6.66777">
        <ele>373.307</ele>
        <time>2016-06-04T14:25:33.330Z</time>
      </trkpt>
      <trkpt lat="47.51307" lon="6.66779">
        <ele>373.223</ele>
        <time>2016-06-04T14:25:34.330Z</time>
      </trkpt>
      <trkpt lat="47.51302" lon="6.66782">
        <ele>373.146</ele>
        <time>2016-06-04T14:25:35.330Z</time>
      </trkpt>
      <trkpt lat="47.51296" lon="6.66785">
        <ele>373.074</ele>
        <time>2016-06-04T14:25:36.330Z</time>
      </trkpt>
      <trkpt lat="47.51291" lon="6.66788">
        <ele>373.009</ele>
        <time>2016-06-04T14:25:37.330Z</time>
      </trkpt>
      <trkpt lat="47.51285" lon="6.66791">
        <ele>372.949</ele>
        <time>2016-06-04T14:25:38.330Z</time>
      </trkpt>
      <trkpt lat="47.51279" lon="6.66794">
        <ele>372.895</ele>
        <time>2016-06-04T14:25:39.330Z</time>
      </trkpt>
      <trkpt lat="47.51274" lon="6.66797">
        <ele>372.844</ele>
        <time>2016-06-04T14:25:40.330Z</time>
      </trkpt>
      <trkpt lat="47.51268" lon="6.66801">
        <ele>372.797</ele>
        <time>2016-06-04T14:25:41.330Z</time>
      </trkpt>
      <trkpt lat="47.51262" lon="6.66804">
        <ele>372.749</ele>
        <time>2016-06-04T14:25:42.330Z</time>
      </trkpt>
      <trkpt lat="47.51256" lon="6.66807">
        <ele>372.701</ele>
        <time>2016-06-04T14:25:43.330Z</time>
      </trkpt>
      <trkpt lat="47.5125" lon="6.6681">
        <ele>372.65</ele>
        <time>2016-06-04T14:25:44.330Z</time>
      </trkpt>
      <trkpt lat="47.51244" lon="6.66813">
        <ele>372.596</ele>
        <time>2016-06-04T14:25:45.330Z</time>
      </trkpt>
      <trkpt lat="47.51238" lon="6.66817">
        <ele>372.536</ele>
        <time>2016-06-04T14:25:46.330Z</time>
      </trkpt>
      <trkpt lat="47.51232" lon="6.6682">
        <ele>372.471</ele>
        <time>2016-06-04T14:25:47.330Z</time>
      </trkpt>
      <trkpt lat="47.51226" lon="6.66823">
        <ele>372.4</ele>
        <time>2016-06-04T14:25:48.330Z</time>
      </trkpt>
      <trkpt lat="47.5122" lon="6.66826">
        <ele>372.323</ele>
        <time>2016-06-04T14:25:49.330Z</time>
      </trkpt>
      <trkpt lat="47.51214" lon="6.66829">
        <ele>372.241</ele>
        <time>2016-06-04T14:25:50.330Z</time>
      </trkpt>
      <trkpt lat="47.51208" lon="6.66832">
        <ele>372.156</ele>
        <time>2016-06-04T14:25:51.330Z</time>
      </trkpt>
      <trkpt lat="47.51203" lon="6.66836">
        <ele>372.069</ele>
        <time>2016-06-04T14:25:52.330Z</time>
      </trkpt>
      <trkpt lat="47.51197" lon="6.66839">
        <ele>371.983</ele>
        <time>2016-06-04T14:25:53.330Z</time>
      </trkpt>
      <trkpt lat="47.51191" lon="6.66842">
        <ele>371.901</ele>
        <time>2016-06-04T14:25:54.330Z</time>
      </trkpt>
      <trkpt lat="47.51186" lon="6.66844">
        <ele>371.826</ele>
        <time>2016-06-04T14:25:55.330Z</time>
      </trkpt>
      <trkpt lat="47.51181" lon="6.66847">
        <ele>371.761</ele>
        <time>2016-06-04T14:25:56.330Z</time>
      </trkpt>
      <trkpt lat="47.51176" lon="6.6685">
        <ele>371.712</ele>
        <time>2016-06-04T14:25:57.330Z</time>
      </trkpt>
      <trkpt lat="47.5117" lon="6.66853">
        <ele>371.679</ele>
        <time>2016-06-04T14:25:58.330Z</time>
      </trkpt>
      <trkpt lat="47.51165" lon="6.66855">
        <ele>371.666</ele>
        <time>2016-06-04T14:25:59.330Z</time>
      </trkpt>
      <trkpt lat="47.5116" lon="6.66858">
        <ele>371.675</ele>
        <time>2016-06-04T14:26:00.330Z</time>
      </trkpt>
      <trkpt lat="47.51155" lon="6.66861">
        <ele>371.705</ele>
        <time>2016-06-04T14:26:01.330Z</time>
      </trkpt>
      <trkpt lat="47.51151" lon="6.66863">
        <ele>371.757</ele>
        <time>2016-06-04T14:26:02.330Z</time>
      </trkpt>
      <trkpt lat="47.51146" lon="6.66867">
        <ele>371.831</ele>
        <time>2016-06-04T14:26:03.330Z</time>
      </trkpt>
      <trkpt lat="47.51141" lon="6.6687">
        <ele>371.927</ele>
        <time>2016-06-04T14:26:04.330Z</time>
      </trkpt>
      <trkpt lat="47.51137" lon="6.66874">
        <ele>372.044</ele>
        <time>2016-06-04T14:26:05.330Z</time>
      </trkpt>
      <trkpt lat="47.51133" lon="6.66877">
        <ele>372.18</ele>
        <time>2016-06-04T14:26:06.330Z</time>
      </trkpt>
      <trkpt lat="47.51129" lon="6.66881">
        <ele>372.334</ele>
        <time>2016-06-04T14:26:07.330Z</time>
      </trkpt>
      <trkpt lat="47.51124" lon="6.66885">
        <ele>372.505</ele>
        <time>2016-06-04T14:26:08.330Z</time>
      </trkpt>
      <trkpt lat="47.5112" lon="6.66889">
        <ele>372.691</ele>
        <time>2016-06-04T14:26:09.330Z</time>
      </trkpt>
      <trkpt lat="47.51116" lon="6.66893">
        <ele>372.889</ele>
        <time>2016-06-04T14:26:10.330Z</time>
      </trkpt>
      <trkpt lat="47.51111" lon="6.66897">
        <ele>373.099</ele>
        <time>2016-06-04T14:26:11.330Z</time>
      </trkpt>
      <trkpt lat="47.51107" lon="6.66901">
        <ele>373.317</ele>
        <time>2016-06-04T14:26:12.330Z</time>
      </trkpt>
      <trkpt lat="47.51103" lon="6.66906">
        <ele>373.541</ele>
        <time>2016-06-04T14:26:13.330Z</time>
      </trkpt>
      <trkpt lat="47.51099" lon="6.6691">
        <ele>373.768</ele>
        <time>2016-06-04T14:26:14.330Z</time>
      </trkpt>
      <trkpt lat="47.51095" lon="6.66914">
        <ele>373.997</ele>
        <time>2016-06-04T14:26:15.330Z</time>
      </trkpt>
      <trkpt lat="47.51092" lon="6.66917">
        <ele>374.223</ele>
        <time>2016-06-04T14:26:16.330Z</time>
      </trkpt>
      <trkpt lat="47.51088" lon="6.66921">
        <ele>374.446</ele>
        <time>2016-06-04T14:26:17.330Z</time>
      </trkpt>
      <trkpt lat="47.51084" lon="6.66925">
        <ele>374.662</ele>
        <time>2016-06-04T14:26:18.330Z</time>
      </trkpt>
      <trkpt lat="47.51081" lon="6.66929">
        <ele>374.868</ele>
        <time>2016-06-04T14:26:19.330Z</time>
      </trkpt>
      <trkpt lat="47.51077" lon="6.66932">
        <ele>375.063</ele>
        <time>2016-06-04T14:26:20.330Z</time>
      </trkpt>
      <trkpt lat="47.51073" lon="6.66936">
        <ele>375.245</ele>
        <time>2016-06-04T14:26:21.330Z</time>
      </trkpt>
      <trkpt lat="47.5107" lon="6.6694">
        <ele>375.412</ele>
        <time>2016-06-04T14:26:22.330Z</time>
      </trkpt>
      <trkpt lat="47.51066" lon="6.66943">
        <ele>375.564</ele>
        <time>2016-06-04T14:26:23.330Z</time>
      </trkpt>
      <trkpt lat="47.51063" lon="6.66947">
        <ele>375.699</ele>
        <time>2016-06-04T14:26:24.330Z</time>
      </trkpt>
      <trkpt lat="47.51059" lon="6.66951">
        <ele>375.817</ele>
        <time>2016-06-04T14:26:25.330Z</time>
      </trkpt>
      <trkpt lat="47.51055" lon="6.66954">
        <ele>375.919</ele>
        <time>2016-06-04T14:26:26.330Z</time>
      </trkpt>
      <trkpt lat="47.51051" lon="6.66957">
        <ele>376.006</ele>
        <time>2016-06-04T14:26:27.330Z</time>
      </trkpt>
      <trkpt lat="47.51047" lon="6.66961">
        <ele>376.078</ele>
        <time>2016-06-04T14:26:28.330Z</time>
      </trkpt>
      <trkpt lat="47.51043" lon="6.66964">
        <ele>376.136</ele>
        <time>2016-06-04T14:26:29.330Z</time>
      </trkpt>
      <trkpt lat="47.51039" lon="6.66968">
        <ele>376.178</ele>
        <time>2016-06-04T14:26:30.330Z</time>
      </trkpt>
      <trkpt lat="47.51034" lon="6.66971">
        <ele>376.205</ele>
        <time>2016-06-04T14:26:31.330Z</time>
      </trkpt>
      <trkpt lat="47.5103" lon="6.66975">
        <ele>376.217</ele>
        <time>2016-06-04T14:26:32.330Z</time>
      </trkpt>
      <trkpt lat="47.51025" lon="6.66979">
        <ele>376.212</ele>
        <time>2016-06-04T14:26:33.330Z</time>
      </trkpt>
      <trkpt lat="47.5102" lon="6.66983">
        <ele>376.19</ele>
        <time>2016-06-04T14:26:34.330Z</time>
      </trkpt>
      <trkpt lat="47.51015" lon="6.66987">
        <ele>376.151</ele>
        <time>2016-06-04T14:26:35.330Z</time>
      </trkpt>
      <trkpt lat="47.51009" lon="6.66991">
        <ele>376.092</ele>
        <time>2016-06-04T14:26:36.330Z</time>
      </trkpt>
      <trkpt lat="47.51004" lon="6.66996">
        <ele>376.013</ele>
        <time>2016-06-04T14:26:37.330Z</time>
      </trkpt>
      <trkpt lat="47.50999" lon="6.67">
        <ele>375.912</ele>
        <time>2016-06-04T14:26:38.330Z</time>
      </trkpt>
      <trkpt lat="47.50993" lon="6.67005">
        <ele>375.79</ele>
        <time>2016-06-04T14:26:39.330Z</time>
      </trkpt>
      <trkpt lat="47.50988" lon="6.67009">
        <ele>375.645</ele>
        <time>2016-06-04T14:26:40.330Z</time>
      </trkpt>
      <trkpt lat="47.50982" lon="6.67014">
        <ele>375.477</ele>
        <time>2016-06-04T14:26:41.330Z</time>
      </trkpt>
      <trkpt lat="47.50977" lon="6.67019">
        <ele>375.287</ele>
        <time>2016-06-04T14:26:42.330Z</time>
      </trkpt>
      <trkpt lat="47.50971" lon="6.67023">
        <ele>375.076</ele>
        <time>2016-06-04T14:26:43.330Z</time>
      </trkpt>
      <trkpt lat="47.50965" lon="6.67028">
        <ele>374.845</ele>
        <time>2016-06-04T14:26:44.330Z</time>
      </trkpt>
      <trkpt lat="47.50959" lon="6.67032">
        <ele>374.594</ele>
        <time>2016-06-04T14:26:45.330Z</time>
      </trkpt>
      <trkpt lat="47.50953" lon="6.67037">
        <ele>374.326</ele>
        <time>2016-06-04T14:26:46.330Z</time>
      </trkpt>
      <trkpt lat="47.50946" lon="6.67041">
        <ele>374.042</ele>
        <time>2016-06-04T14:26:47.330Z</time>
      </trkpt>
      <trkpt lat="47.5094" lon="6.67045">
        <ele>373.743</ele>
        <time>2016-06-04T14:26:48.330Z</time>
      </trkpt>
      <trkpt lat="47.50933" lon="6.67049">
        <ele>373.429</ele>
        <time>2016-06-04T14:26:49.330Z</time>
      </trkpt>
      <trkpt lat="47.50926" lon="6.67053">
        <ele>373.102</ele>
        <time>2016-06-04T14:26:50.330Z</time>
      </trkpt>
      <trkpt lat="47.50919" lon="6.67057">
        <ele>372.762</ele>
        <time>2016-06-04T14:26:51.330Z</time>
      </trkpt>
      <trkpt lat="47.50912" lon="6.67062">
        <ele>372.409</ele>
        <time>2016-06-04T14:26:52.330Z</time>
      </trkpt>
      <trkpt lat="47.50905" lon="6.67067">
        <ele>372.042</ele>
        <time>2016-06-04T14:26:53.330Z</time>
      </trkpt>
      <trkpt lat="47.50898" lon="6.67072">
        <ele>371.656</ele>
        <time>2016-06-04T14:26:54.330Z</time>
      </trkpt>
      <trkpt lat="47.50891" lon="6.67078">
        <ele>371.248</ele>
        <time>2016-06-04T14:26:55.330Z</time>
      </trkpt>
      <trkpt lat="47.50884" lon="6.67083">
        <ele>370.811</ele>
        <time>2016-06-04T14:26:56.330Z</time>
      </trkpt>
      <trkpt lat="47.50876" lon="6.67089">
        <ele>370.338</ele>
        <time>2016-06-04T14:26:57.330Z</time>
      </trkpt>
      <trkpt lat="47.50869" lon="6.67094">
        <ele>369.828</ele>
        <time>2016-06-04T14:26:58.330Z</time>
      </trkpt>
      <trkpt lat="47.5086" lon="6.67099">
        <ele>369.278</ele>
        <time>2016-06-04T14:26:59.330Z</time>
      </trkpt>
      <trkpt lat="47.50851" lon="6.67104">
        <ele>368.691</ele>
        <time>2016-06-04T14:27:00.330Z</time>
      </trkpt>
      <trkpt lat="47.50842" lon="6.67107">
        <ele>368.072</ele>
        <time>2016-06-04T14:27:01.330Z</time>
      </trkpt>
      <trkpt lat="47.50832" lon="6.67108">
        <ele>367.426</ele>
        <time>2016-06-04T14:27:02.330Z</time>
      </trkpt>
      <trkpt lat="47.50822" lon="6.67107">
        <ele>366.759</ele>
        <time>2016-06-04T14:27:03.330Z</time>
      </trkpt>
      <trkpt lat="47.50811" lon="6.67104">
        <ele>366.077</ele>
        <time>2016-06-04T14:27:04.330Z</time>
      </trkpt>
      <trkpt lat="47.50801" lon="6.671">
        <ele>365.386</ele>
        <time>2016-06-04T14:27:05.330Z</time>
      </trkpt>
      <trkpt lat="47.50792" lon="6.67094">
        <ele>364.691</ele>
        <time>2016-06-04T14:27:06.330Z</time>
      </trkpt>
      <trkpt lat="47.50782" lon="6.67087">
        <ele>363.997</ele>
        <time>2016-06-04T14:27:07.330Z</time>
      </trkpt>
      <trkpt lat="47.50773" lon="6.67079">
        <ele>363.307</ele>
        <time>2016-06-04T14:27:08.330Z</time>
      </trkpt>
      <trkpt lat="47.50764" lon="6.67071">
        <ele>362.623</ele>
        <time>2016-06-04T14:27:09.330Z</time>
      </trkpt>
      <trkpt lat="47.50754" lon="6.67062">
        <ele>361.948</ele>
        <time>2016-06-04T14:27:10.330Z</time>
      </trkpt>
      <trkpt lat="47.50745" lon="6.67054">
        <ele>361.28</ele>
        <time>2016-06-04T14:27:11.330Z</time>
      </trkpt>
      <trkpt lat="47.50735" lon="6.67047">
        <ele>360.62</ele>
        <time>2016-06-04T14:27:12.330Z</time>
      </trkpt>
      <trkpt lat="47.50725" lon="6.67043">
        <ele>359.965</ele>
        <time>2016-06-04T14:27:13.330Z</time>
      </trkpt>
      <trkpt lat="47.50715" lon="6.6704">
        <ele>359.314</ele>
        <time>2016-06-04T14:27:14.330Z</time>
      </trkpt>
      <trkpt lat="47.50705" lon="6.67039">
        <ele>358.664</ele>
        <time>2016-06-04T14:27:15.330Z</time>
      </trkpt>
      <trkpt lat="47.50686" lon="6.67047">
        <ele>358.894</ele>
        <time>2016-06-04T14:27:17.326Z</time>
      </trkpt>
      <trkpt lat="47.50677" lon="6.67051">
        <ele>357.55</ele>
        <time>2016-06-04T14:27:18.021Z</time>
      </trkpt>
      <trkpt lat="47.50668" lon="6.67056">
        <ele>357.439</ele>
        <time>2016-06-04T14:27:19.017Z</time>
      </trkpt>
      <trkpt lat="47.50659" lon="6.6706">
        <ele>357.051</ele>
        <time>2016-06-04T14:27:20.013Z</time>
      </trkpt>
      <trkpt lat="47.50651" lon="6.67063">
        <ele>357.14</ele>
        <time>2016-06-04T14:27:21.009Z</time>
      </trkpt>
      <trkpt lat="47.50643" lon="6.67066">
        <ele>357.363</ele>
        <time>2016-06-04T14:27:22.006Z</time>
      </trkpt>
      <trkpt lat="47.50635" lon="6.67068">
        <ele>357.308</ele>
        <time>2016-06-04T14:27:23.002Z</time>
      </trkpt>
      <trkpt lat="47.50635" lon="6.67068">
        <ele>357.308</ele>
        <time>2016-06-04T14:27:31.002Z</time>
      </trkpt>
      <trkpt lat="47.50572" lon="6.67049">
        <ele>357.982</ele>
        <time>2016-06-04T14:27:32.002Z</time>
      </trkpt>
      <trkpt lat="47.50566" lon="6.67043">
        <ele>357.831</ele>
        <time>2016-06-04T14:27:33.002Z</time>
      </trkpt>
      <trkpt lat="47.5056" lon="6.67038">
        <ele>357.669</ele>
        <time>2016-06-04T14:27:34.002Z</time>
      </trkpt>
      <trkpt lat="47.50554" lon="6.67032">
        <ele>357.498</ele>
        <time>2016-06-04T14:27:35.002Z</time>
      </trkpt>
      <trkpt lat="47.50549" lon="6.67025">
        <ele>357.319</ele>
        <time>2016-06-04T14:27:36.002Z</time>
      </trkpt>
      <trkpt lat="47.50543" lon="6.67018">
        <ele>357.135</ele>
        <time>2016-06-04T14:27:37.002Z</time>
      </trkpt>
      <trkpt lat="47.50538" lon="6.6701">
        <ele>356.946</ele>
        <time>2016-06-04T14:27:38.002Z</time>
      </trkpt>
      <trkpt lat="47.50533" lon="6.67002">
        <ele>356.757</ele>
        <time>2016-06-04T14:27:39.002Z</time>
      </trkpt>
      <trkpt lat="47.50528" lon="6.66995">
        <ele>356.568</ele>
        <time>2016-06-04T14:27:40.002Z</time>
      </trkpt>
      <trkpt lat="47.50523" lon="6.66987">
        <ele>356.382</ele>
        <time>2016-06-04T14:27:41.002Z</time>
      </trkpt>
      <trkpt lat="47.50518" lon="6.66979">
        <ele>356.2</ele>
        <time>2016-06-04T14:27:42.002Z</time>
      </trkpt>
      <trkpt lat="47.50514" lon="6.66972">
        <ele>356.025</ele>
        <time>2016-06-04T14:27:43.002Z</time>
      </trkpt>
      <trkpt lat="47.50509" lon="6.66964">
        <ele>355.856</ele>
        <time>2016-06-04T14:27:44.002Z</time>
      </trkpt>
      <trkpt lat="47.50504" lon="6.66957">
        <ele>355.697</ele>
        <time>2016-06-04T14:27:45.002Z</time>
      </trkpt>
      <trkpt lat="47.50499" lon="6.6695">
        <ele>355.547</ele>
        <time>2016-06-04T14:27:46.002Z</time>
      </trkpt>
      <trkpt lat="47.50494" lon="6.66943">
        <ele>355.407</ele>
        <time>2016-06-04T14:27:47.002Z</time>
      </trkpt>
      <trkpt lat="47.50489" lon="6.66936">
        <ele>355.279</ele>
        <time>2016-06-04T14:27:48.002Z</time>
      </trkpt>
      <trkpt lat="47.50485" lon="6.6693">
        <ele>355.162</ele>
        <time>2016-06-04T14:27:49.002Z</time>
      </trkpt>
      <trkpt lat="47.5048" lon="6.66924">
        <ele>355.055</ele>
        <time>2016-06-04T14:27:50.002Z</time>
      </trkpt>
      <trkpt lat="47.50475" lon="6.66918">
        <ele>354.957</ele>
        <time>2016-06-04T14:27:51.002Z</time>
      </trkpt>
      <trkpt lat="47.50469" lon="6.66912">
        <ele>354.868</ele>
        <time>2016-06-04T14:27:52.002Z</time>
      </trkpt>
      <trkpt lat="47.50464" lon="6.66907">
        <ele>354.787</ele>
        <time>2016-06-04T14:27:53.002Z</time>
      </trkpt>
      <trkpt lat="47.50459" lon="6.66902">
        <ele>354.712</ele>
        <time>2016-06-04T14:27:54.002Z</time>
      </trkpt>
      <trkpt lat="47.50454" lon="6.66896">
        <ele>354.643</ele>
        <time>2016-06-04T14:27:55.002Z</time>
      </trkpt>
      <trkpt lat="47.50449" lon="6.66892">
        <ele>354.58</ele>
        <time>2016-06-04T14:27:56.002Z</time>
      </trkpt>
      <trkpt lat="47.50444" lon="6.66887">
        <ele>354.522</ele>
        <time>2016-06-04T14:27:57.002Z</time>
      </trkpt>
      <trkpt lat="47.50438" lon="6.66882">
        <ele>354.469</ele>
        <time>2016-06-04T14:27:58.002Z</time>
      </trkpt>
      <trkpt lat="47.50433" lon="6.66878">
        <ele>354.42</ele>
        <time>2016-06-04T14:27:59.002Z</time>
      </trkpt>
      <trkpt lat="47.50428" lon="6.66873">
        <ele>354.374</ele>
        <time>2016-06-04T14:28:00.002Z</time>
      </trkpt>
      <trkpt lat="47.50423" lon="6.66867">
        <ele>354.329</ele>
        <time>2016-06-04T14:28:01.002Z</time>
      </trkpt>
      <trkpt lat="47.50418" lon="6.66861">
        <ele>354.284</ele>
        <time>2016-06-04T14:28:02.002Z</time>
      </trkpt>
      <trkpt lat="47.50413" lon="6.66855">
        <ele>354.236</ele>
        <time>2016-06-04T14:28:03.002Z</time>
      </trkpt>
      <trkpt lat="47.50408" lon="6.66849">
        <ele>354.183</ele>
        <time>2016-06-04T14:28:04.002Z</time>
      </trkpt>
      <trkpt lat="47.50403" lon="6.66843">
        <ele>354.123</ele>
        <time>2016-06-04T14:28:05.002Z</time>
      </trkpt>
      <trkpt lat="47.50399" lon="6.66836">
        <ele>354.052</ele>
        <time>2016-06-04T14:28:06.002Z</time>
      </trkpt>
      <trkpt lat="47.50395" lon="6.66828">
        <ele>353.967</ele>
        <time>2016-06-04T14:28:07.002Z</time>
      </trkpt>
      <trkpt lat="47.50392" lon="6.6682">
        <ele>353.866</ele>
        <time>2016-06-04T14:28:08.002Z</time>
      </trkpt>
      <trkpt lat="47.50389" lon="6.66812">
        <ele>353.749</ele>
        <time>2016-06-04T14:28:09.002Z</time>
      </trkpt>
      <trkpt lat="47.50386" lon="6.66805">
        <ele>353.616</ele>
        <time>2016-06-04T14:28:10.002Z</time>
      </trkpt>
      <trkpt lat="47.50384" lon="6.66797">
        <ele>353.466</ele>
        <time>2016-06-04T14:28:11.002Z</time>
      </trkpt>
      <trkpt lat="47.50381" lon="6.66789">
        <ele>353.3</ele>
        <time>2016-06-04T14:28:12.002Z</time>
      </trkpt>
      <trkpt lat="47.50379" lon="6.66781">
        <ele>353.119</ele>
        <time>2016-06-04T14:28:13.002Z</time>
      </trkpt>
      <trkpt lat="47.50376" lon="6.66773">
        <ele>352.924</ele>
        <time>2016-06-04T14:28:14.002Z</time>
      </trkpt>
      <trkpt lat="47.50373" lon="6.66765">
        <ele>352.715</ele>
        <time>2016-06-04T14:28:15.002Z</time>
      </trkpt>
      <trkpt lat="47.5037" lon="6.66756">
        <ele>352.493</ele>
        <time>2016-06-04T14:28:16.002Z</time>
      </trkpt>
      <trkpt lat="47.50367" lon="6.66748">
        <ele>352.258</ele>
        <time>2016-06-04T14:28:17.002Z</time>
      </trkpt>
      <trkpt lat="47.50364" lon="6.66739">
        <ele>352.01</ele>
        <time>2016-06-04T14:28:18.002Z</time>
      </trkpt>
      <trkpt lat="47.50361" lon="6.66731">
        <ele>351.752</ele>
        <time>2016-06-04T14:28:19.002Z</time>
      </trkpt>
      <trkpt lat="47.50358" lon="6.66723">
        <ele>351.483</ele>
        <time>2016-06-04T14:28:20.002Z</time>
      </trkpt>
      <trkpt lat="47.50355" lon="6.66715">
        <ele>351.205</ele>
        <time>2016-06-04T14:28:21.002Z</time>
      </trkpt>
      <trkpt lat="47.50353" lon="6.66708">
        <ele>350.918</ele>
        <time>2016-06-04T14:28:22.002Z</time>
      </trkpt>
      <trkpt lat="47.5035" lon="6.66701">
        <ele>350.626</ele>
        <time>2016-06-04T14:28:23.002Z</time>
      </trkpt>
      <trkpt lat="47.50348" lon="6.66694">
        <ele>350.329</ele>
        <time>2016-06-04T14:28:24.002Z</time>
      </trkpt>
      <trkpt lat="47.50345" lon="6.66687">
        <ele>350.03</ele>
        <time>2016-06-04T14:28:25.002Z</time>
      </trkpt>
      <trkpt lat="47.50343" lon="6.66681">
        <ele>349.73</ele>
        <time>2016-06-04T14:28:26.002Z</time>
      </trkpt>
      <trkpt lat="47.5034" lon="6.66674">
        <ele>349.431</ele>
        <time>2016-06-04T14:28:27.002Z</time>
      </trkpt>
      <trkpt lat="47.50337" lon="6.66668">
        <ele>349.133</ele>
        <time>2016-06-04T14:28:28.002Z</time>
      </trkpt>
      <trkpt lat="47.50334" lon="6.66662">
        <ele>348.84</ele>
        <time>2016-06-04T14:28:29.002Z</time>
      </trkpt>
      <trkpt lat="47.5033" lon="6.66655">
        <ele>348.551</ele>
        <time>2016-06-04T14:28:30.002Z</time>
      </trkpt>
      <trkpt lat="47.50326" lon="6.66649">
        <ele>348.269</ele>
        <time>2016-06-04T14:28:31.002Z</time>
      </trkpt>
      <trkpt lat="47.50322" lon="6.66642">
        <ele>347.994</ele>
        <time>2016-06-04T14:28:32.002Z</time>
      </trkpt>
      <trkpt lat="47.50318" lon="6.66635">
        <ele>347.727</ele>
        <time>2016-06-04T14:28:33.002Z</time>
      </trkpt>
      <trkpt lat="47.50314" lon="6.66628">
        <ele>347.471</ele>
        <time>2016-06-04T14:28:34.002Z</time>
      </trkpt>
      <trkpt lat="47.5031" lon="6.66621">
        <ele>347.225</ele>
        <time>2016-06-04T14:28:35.002Z</time>
      </trkpt>
      <trkpt lat="47.50305" lon="6.66614">
        <ele>346.991</ele>
        <time>2016-06-04T14:28:36.002Z</time>
      </trkpt>
      <trkpt lat="47.50301" lon="6.66608">
        <ele>346.769</ele>
        <time>2016-06-04T14:28:37.002Z</time>
      </trkpt>
      <trkpt lat="47.50295" lon="6.66601">
        <ele>346.562</ele>
        <time>2016-06-04T14:28:38.002Z</time>
      </trkpt>
      <trkpt lat="47.5029" lon="6.66594">
        <ele>346.367</ele>
        <time>2016-06-04T14:28:39.002Z</time>
      </trkpt>
      <trkpt lat="47.50285" lon="6.66587">
        <ele>346.185</ele>
        <time>2016-06-04T14:28:40.002Z</time>
      </trkpt>
      <trkpt lat="47.5028" lon="6.6658">
        <ele>346.014</ele>
        <time>2016-06-04T14:28:41.002Z</time>
      </trkpt>
      <trkpt lat="47.50275" lon="6.66572">
        <ele>345.854</ele>
        <time>2016-06-04T14:28:42.002Z</time>
      </trkpt>
      <trkpt lat="47.5027" lon="6.66566">
        <ele>345.704</ele>
        <time>2016-06-04T14:28:43.002Z</time>
      </trkpt>
      <trkpt lat="47.50266" lon="6.66559">
        <ele>345.562</ele>
        <time>2016-06-04T14:28:44.002Z</time>
      </trkpt>
      <trkpt lat="47.50263" lon="6.66552">
        <ele>345.428</ele>
        <time>2016-06-04T14:28:45.002Z</time>
      </trkpt>
      <trkpt lat="47.5026" lon="6.66545">
        <ele>345.3</ele>
        <time>2016-06-04T14:28:46.002Z</time>
      </trkpt>
      <trkpt lat="47.50257" lon="6.66538">
        <ele>345.179</ele>
        <time>2016-06-04T14:28:47.002Z</time>
      </trkpt>
      <trkpt lat="47.50255" lon="6.66532">
        <ele>345.064</ele>
        <time>2016-06-04T14:28:48.002Z</time>
      </trkpt>
      <trkpt lat="47.50253" lon="6.66525">
        <ele>344.957</ele>
        <time>2016-06-04T14:28:49.002Z</time>
      </trkpt>
      <trkpt lat="47.50252" lon="6.66518">
        <ele>344.858</ele>
        <time>2016-06-04T14:28:50.002Z</time>
      </trkpt>
      <trkpt lat="47.50251" lon="6.66512">
        <ele>344.77</ele>
        <time>2016-06-04T14:28:51.002Z</time>
      </trkpt>
      <trkpt lat="47.5025" lon="6.66506">
        <ele>344.695</ele>
        <time>2016-06-04T14:28:52.002Z</time>
      </trkpt>
      <trkpt lat="47.5025" lon="6.66501">
        <ele>344.632</ele>
        <time>2016-06-04T14:28:53.002Z</time>
      </trkpt>
      <trkpt lat="47.50249" lon="6.66497">
        <ele>344.584</ele>
        <time>2016-06-04T14:28:54.002Z</time>
      </trkpt>
      <trkpt lat="47.50248" lon="6.66493">
        <ele>344.551</ele>
        <time>2016-06-04T14:28:55.002Z</time>
      </trkpt>
      <trkpt lat="47.50248" lon="6.66489">
        <ele>344.533</ele>
        <time>2016-06-04T14:28:56.002Z</time>
      </trkpt>
      <trkpt lat="47.50248" lon="6.66485">
        <ele>344.531</ele>
        <time>2016-06-04T14:28:57.002Z</time>
      </trkpt>
      <trkpt lat="47.50248" lon="6.66481">
        <ele>344.545</ele>
        <time>2016-06-04T14:28:58.002Z</time>
      </trkpt>
      <trkpt lat="47.50249" lon="6.66478">
        <ele>344.573</ele>
        <time>2016-06-04T14:28:59.002Z</time>
      </trkpt>
      <trkpt lat="47.50249" lon="6.66475">
        <ele>344.615</ele>
        <time>2016-06-04T14:29:00.002Z</time>
      </trkpt>
      <trkpt lat="47.50249" lon="6.66472">
        <ele>344.669</ele>
        <time>2016-06-04T14:29:01.002Z</time>
      </trkpt>
      <trkpt lat="47.5025" lon="6.66469">
        <ele>344.734</ele>
        <time>2016-06-04T14:29:02.002Z</time>
      </trkpt>
      <trkpt lat="47.5025" lon="6.66466">
        <ele>344.809</ele>
        <time>2016-06-04T14:29:03.002Z</time>
      </trkpt>
      <trkpt lat="47.5025" lon="6.66463">
        <ele>344.892</ele>
        <time>2016-06-04T14:29:04.002Z</time>
      </trkpt>
      <trkpt lat="47.50251" lon="6.66459">
        <ele>344.985</ele>
        <time>2016-06-04T14:29:05.002Z</time>
      </trkpt>
      <trkpt lat="47.50251" lon="6.66455">
        <ele>345.087</ele>
        <time>2016-06-04T14:29:06.002Z</time>
      </trkpt>
      <trkpt lat="47.50252" lon="6.66451">
        <ele>345.2</ele>
        <time>2016-06-04T14:29:07.002Z</time>
      </trkpt>
      <trkpt lat="47.50253" lon="6.66447">
        <ele>345.325</ele>
        <time>2016-06-04T14:29:08.002Z</time>
      </trkpt>
      <trkpt lat="47.50254" lon="6.66443">
        <ele>345.462</ele>
        <time>2016-06-04T14:29:09.002Z</time>
      </trkpt>
      <trkpt lat="47.50255" lon="6.66439">
        <ele>345.614</ele>
        <time>2016-06-04T14:29:10.002Z</time>
      </trkpt>
      <trkpt lat="47.50256" lon="6.66436">
        <ele>345.78</ele>
        <time>2016-06-04T14:29:11.002Z</time>
      </trkpt>
      <trkpt lat="47.50256" lon="6.66432">
        <ele>345.96</ele>
        <time>2016-06-04T14:29:12.002Z</time>
      </trkpt>
      <trkpt lat="47.50257" lon="6.66429">
        <ele>346.155</ele>
        <time>2016-06-04T14:29:13.002Z</time>
      </trkpt>
      <trkpt lat="47.50258" lon="6.66426">
        <ele>346.365</ele>
        <time>2016-06-04T14:29:14.002Z</time>
      </trkpt>
      <trkpt lat="47.50259" lon="6.66422">
        <ele>346.589</ele>
        <time>2016-06-04T14:29:15.002Z</time>
      </trkpt>
      <trkpt lat="47.5026" lon="6.66419">
        <ele>346.827</ele>
        <time>2016-06-04T14:29:16.002Z</time>
      </trkpt>
      <trkpt lat="47.50262" lon="6.66415">
        <ele>347.077</ele>
        <time>2016-06-04T14:29:17.002Z</time>
      </trkpt>
      <trkpt lat="47.50263" lon="6.66412">
        <ele>347.339</ele>
        <time>2016-06-04T14:29:18.002Z</time>
      </trkpt>
      <trkpt lat="47.50264" lon="6.66408">
        <ele>347.611</ele>
        <time>2016-06-04T14:29:19.002Z</time>
      </trkpt>
      <trkpt lat="47.50265" lon="6.66405">
        <ele>347.891</ele>
        <time>2016-06-04T14:29:20.002Z</time>
      </trkpt>
      <trkpt lat="47.50266" lon="6.66401">
        <ele>348.176</ele>
        <time>2016-06-04T14:29:21.002Z</time>
      </trkpt>
      <trkpt lat="47.50267" lon="6.66398">
        <ele>348.466</ele>
        <time>2016-06-04T14:29:22.002Z</time>
      </trkpt>
      <trkpt lat="47.50268" lon="6.66395">
        <ele>348.759</ele>
        <time>2016-06-04T14:29:23.002Z</time>
      </trkpt>
      <trkpt lat="47.50269" lon="6.66391">
        <ele>349.053</ele>
        <time>2016-06-04T14:29:24.002Z</time>
      </trkpt>
      <trkpt lat="47.5027" lon="6.66388">
        <ele>349.348</ele>
        <time>2016-06-04T14:29:25.002Z</time>
      </trkpt>
      <trkpt lat="47.50271" lon="6.66385">
        <ele>349.641</ele>
        <time>2016-06-04T14:29:26.002Z</time>
      </trkpt>
      <trkpt lat="47.50272" lon="6.66381">
        <ele>349.93</ele>
        <time>2016-06-04T14:29:27.002Z</time>
      </trkpt>
      <trkpt lat="47.50272" lon="6.66378">
        <ele>350.214</ele>
        <time>2016-06-04T14:29:28.002Z</time>
      </trkpt>
      <trkpt lat="47.50273" lon="6.66374">
        <ele>350.49</ele>
        <time>2016-06-04T14:29:29.002Z</time>
      </trkpt>
      <trkpt lat="47.50274" lon="6.6637">
        <ele>350.755</ele>
        <time>2016-06-04T14:29:30.002Z</time>
      </trkpt>
      <trkpt lat="47.50274" lon="6.66367">
        <ele>351.008</ele>
        <time>2016-06-04T14:29:31.002Z</time>
      </trkpt>
      <trkpt lat="47.50275" lon="6.66363">
        <ele>351.246</ele>
        <time>2016-06-04T14:29:32.002Z</time>
      </trkpt>
      <trkpt lat="47.50275" lon="6.66359">
        <ele>351.468</ele>
        <time>2016-06-04T14:29:33.002Z</time>
      </trkpt>
      <trkpt lat="47.50275" lon="6.66355">
        <ele>351.671</ele>
        <time>2016-06-04T14:29:34.002Z</time>
      </trkpt>
      <trkpt lat="47.50276" lon="6.66351">
        <ele>351.855</ele>
        <time>2016-06-04T14:29:35.002Z</time>
      </trkpt>
      <trkpt lat="47.50276" lon="6.66347">
        <ele>352.017</ele>
        <time>2016-06-04T14:29:36.002Z</time>
      </trkpt>
      <trkpt lat="47.50276" lon="6.66343">
        <ele>352.157</ele>
        <time>2016-06-04T14:29:37.002Z</time>
      </trkpt>
      <trkpt lat="47.50276" lon="6.66339">
        <ele>352.275</ele>
        <time>2016-06-04T14:29:38.002Z</time>
      </trkpt>
      <trkpt lat="47.50276" lon="6.66335">
        <ele>352.371</ele>
        <time>2016-06-04T14:29:39.002Z</time>
      </trkpt>
      <trkpt lat="47.50276" lon="6.66331">
        <ele>352.447</ele>
        <time>2016-06-04T14:29:40.002Z</time>
      </trkpt>
      <trkpt lat="47.50276" lon="6.66327">
        <ele>352.505</ele>
        <time>2016-06-04T14:29:41.002Z</time>
      </trkpt>
      <trkpt lat="47.50276" lon="6.66323">
        <ele>352.548</ele>
        <time>2016-06-04T14:29:42.002Z</time>
      </trkpt>
      <trkpt lat="47.50275" lon="6.66319">
        <ele>352.577</ele>
        <time>2016-06-04T14:29:43.002Z</time>
      </trkpt>
      <trkpt lat="47.50275" lon="6.66316">
        <ele>352.596</ele>
        <time>2016-06-04T14:29:44.002Z</time>
      </trkpt>
      <trkpt lat="47.50275" lon="6.66312">
        <ele>352.608</ele>
        <time>2016-06-04T14:29:45.002Z</time>
      </trkpt>
      <trkpt lat="47.50275" lon="6.66308">
        <ele>352.614</ele>
        <time>2016-06-04T14:29:46.002Z</time>
      </trkpt>
      <trkpt lat="47.50274" lon="6.66304">
        <ele>352.619</ele>
        <time>2016-06-04T14:29:47.002Z</time>
      </trkpt>
      <trkpt lat="47.50273" lon="6.66301">
        <ele>352.626</ele>
        <time>2016-06-04T14:29:48.002Z</time>
      </trkpt>
      <trkpt lat="47.50273" lon="6.66297">
        <ele>352.639</ele>
        <time>2016-06-04T14:29:49.002Z</time>
      </trkpt>
      <trkpt lat="47.50272" lon="6.66293">
        <ele>352.66</ele>
        <time>2016-06-04T14:29:50.002Z</time>
      </trkpt>
      <trkpt lat="47.50271" lon="6.6629">
        <ele>352.694</ele>
        <time>2016-06-04T14:29:51.002Z</time>
      </trkpt>
      <trkpt lat="47.5027" lon="6.66286">
        <ele>352.744</ele>
        <time>2016-06-04T14:29:52.002Z</time>
      </trkpt>
      <trkpt lat="47.50269" lon="6.66283">
        <ele>352.813</ele>
        <time>2016-06-04T14:29:53.002Z</time>
      </trkpt>
      <trkpt lat="47.50268" lon="6.66279">
        <ele>352.903</ele>
        <time>2016-06-04T14:29:54.002Z</time>
      </trkpt>
      <trkpt lat="47.50267" lon="6.66276">
        <ele>353.014</ele>
        <time>2016-06-04T14:29:55.002Z</time>
      </trkpt>
      <trkpt lat="47.50266" lon="6.66272">
        <ele>353.147</ele>
        <time>2016-06-04T14:29:56.002Z</time>
      </trkpt>
      <trkpt lat="47.50265" lon="6.66269">
        <ele>353.301</ele>
        <time>2016-06-04T14:29:57.002Z</time>
      </trkpt>
      <trkpt lat="47.50263" lon="6.66265">
        <ele>353.473</ele>
        <time>2016-06-04T14:29:58.002Z</time>
      </trkpt>
      <trkpt lat="47.50262" lon="6.66262">
        <ele>353.661</ele>
        <time>2016-06-04T14:29:59.002Z</time>
      </trkpt>
      <trkpt lat="47.50261" lon="6.66258">
        <ele>353.864</ele>
        <time>2016-06-04T14:30:00.002Z</time>
      </trkpt>
      <trkpt lat="47.5026" lon="6.66255">
        <ele>354.078</ele>
        <time>2016-06-04T14:30:01.002Z</time>
      </trkpt>
      <trkpt lat="47.50258" lon="6.66252">
        <ele>354.303</ele>
        <time>2016-06-04T14:30:02.002Z</time>
      </trkpt>
      <trkpt lat="47.50257" lon="6.66248">
        <ele>354.538</ele>
        <time>2016-06-04T14:30:03.002Z</time>
      </trkpt>
      <trkpt lat="47.50256" lon="6.66245">
        <ele>354.781</ele>
        <time>2016-06-04T14:30:04.002Z</time>
      </trkpt>
      <trkpt lat="47.50255" lon="6.66242">
        <ele>355.031</ele>
        <time>2016-06-04T14:30:05.002Z</time>
      </trkpt>
      <trkpt lat="47.50254" lon="6.66239">
        <ele>355.29</ele>
        <time>2016-06-04T14:30:06.002Z</time>
      </trkpt>
      <trkpt lat="47.50252" lon="6.66235">
        <ele>355.556</ele>
        <time>2016-06-04T14:30:07.002Z</time>
      </trkpt>
      <trkpt lat="47.50251" lon="6.66232">
        <ele>355.83</ele>
        <time>2016-06-04T14:30:08.002Z</time>
      </trkpt>
      <trkpt lat="47.5025" lon="6.66229">
        <ele>356.112</ele>
        <time>2016-06-04T14:30:09.002Z</time>
      </trkpt>
      <trkpt lat="47.50249" lon="6.66226">
        <ele>356.401</ele>
        <time>2016-06-04T14:30:10.002Z</time>
      </trkpt>
      <trkpt lat="47.50248" lon="6.66222">
        <ele>356.698</ele>
        <time>2016-06-04T14:30:11.002Z</time>
      </trkpt>
      <trkpt lat="47.50247" lon="6.66219">
        <ele>357.002</ele>
        <time>2016-06-04T14:30:12.002Z</time>
      </trkpt>
      <trkpt lat="47.50246" lon="6.66216">
        <ele>357.311</ele>
        <time>2016-06-04T14:30:13.002Z</time>
      </trkpt>
      <trkpt lat="47.50245" lon="6.66213">
        <ele>357.625</ele>
        <time>2016-06-04T14:30:14.002Z</time>
      </trkpt>
      <trkpt lat="47.50244" lon="6.6621">
        <ele>357.942</ele>
        <time>2016-06-04T14:30:15.002Z</time>
      </trkpt>
      <trkpt lat="47.50243" lon="6.66207">
        <ele>358.261</ele>
        <time>2016-06-04T14:30:16.002Z</time>
      </trkpt>
      <trkpt lat="47.50242" lon="6.66203">
        <ele>358.58</ele>
        <time>2016-06-04T14:30:17.002Z</time>
      </trkpt>
      <trkpt lat="47.5024" lon="6.662">
        <ele>358.899</ele>
        <time>2016-06-04T14:30:18.002Z</time>
      </trkpt>
      <trkpt lat="47.50239" lon="6.66197">
        <ele>359.216</ele>
        <time>2016-06-04T14:30:19.002Z</time>
      </trkpt>
      <trkpt lat="47.50238" lon="6.66194">
        <ele>359.529</ele>
        <time>2016-06-04T14:30:20.002Z</time>
      </trkpt>
      <trkpt lat="47.50237" lon="6.66191">
        <ele>359.836</ele>
        <time>2016-06-04T14:30:21.002Z</time>
      </trkpt>
      <trkpt lat="47.50236" lon="6.66188">
        <ele>360.136</ele>
        <time>2016-06-04T14:30:22.002Z</time>
      </trkpt>
      <trkpt lat="47.50234" lon="6.66184">
        <ele>360.427</ele>
        <time>2016-06-04T14:30:23.002Z</time>
      </trkpt>
      <trkpt lat="47.50233" lon="6.66181">
        <ele>360.705</ele>
        <time>2016-06-04T14:30:24.002Z</time>
      </trkpt>
      <trkpt lat="47.50232" lon="6.66178">
        <ele>360.97</ele>
        <time>2016-06-04T14:30:25.002Z</time>
      </trkpt>
      <trkpt lat="47.50231" lon="6.66175">
        <ele>361.222</ele>
        <time>2016-06-04T14:30:26.002Z</time>
      </trkpt>
      <trkpt lat="47.5023" lon="6.66172">
        <ele>361.459</ele>
        <time>2016-06-04T14:30:27.002Z</time>
      </trkpt>
      <trkpt lat="47.50229" lon="6.66168">
        <ele>361.682</ele>
        <time>2016-06-04T14:30:28.002Z</time>
      </trkpt>
      <trkpt lat="47.50228" lon="6.66165">
        <ele>361.892</ele>
        <time>2016-06-04T14:30:29.002Z</time>
      </trkpt>
      <trkpt lat="47.50227" lon="6.66161">
        <ele>362.089</ele>
        <time>2016-06-04T14:30:30.002Z</time>
      </trkpt>
      <trkpt lat="47.50225" lon="6.66158">
        <ele>362.274</ele>
        <time>2016-06-04T14:30:31.002Z</time>
      </trkpt>
      <trkpt lat="47.50224" lon="6.66155">
        <ele>362.447</ele>
        <time>2016-06-04T14:30:32.002Z</time>
      </trkpt>
      <trkpt lat="47.50223" lon="6.66152">
        <ele>362.609</ele>
        <time>2016-06-04T14:30:33.002Z</time>
      </trkpt>
      <trkpt lat="47.50222" lon="6.66149">
        <ele>362.759</ele>
        <time>2016-06-04T14:30:34.002Z</time>
      </trkpt>
      <trkpt lat="47.50221" lon="6.66146">
        <ele>362.902</ele>
        <time>2016-06-04T14:30:35.002Z</time>
      </trkpt>
      <trkpt lat="47.5022" lon="6.66143">
        <ele>363.039</ele>
        <time>2016-06-04T14:30:36.002Z</time>
      </trkpt>
      <trkpt lat="47.50219" lon="6.6614">
        <ele>363.176</ele>
        <time>2016-06-04T14:30:37.002Z</time>
      </trkpt>
      <trkpt lat="47.50218" lon="6.66137">
        <ele>363.317</ele>
        <time>2016-06-04T14:30:38.002Z</time>
      </trkpt>
      <trkpt lat="47.50217" lon="6.66133">
        <ele>363.467</ele>
        <time>2016-06-04T14:30:39.002Z</time>
      </trkpt>
      <trkpt lat="47.50216" lon="6.6613">
        <ele>363.628</ele>
        <time>2016-06-04T14:30:40.002Z</time>
      </trkpt>
      <trkpt lat="47.50215" lon="6.66126">
        <ele>363.804</ele>
        <time>2016-06-04T14:30:41.002Z</time>
      </trkpt>
      <trkpt lat="47.50214" lon="6.66123">
        <ele>363.997</ele>
        <time>2016-06-04T14:30:42.002Z</time>
      </trkpt>
      <trkpt lat="47.50212" lon="6.6612">
        <ele>364.207</ele>
        <time>2016-06-04T14:30:43.002Z</time>
      </trkpt>
      <trkpt lat="47.50211" lon="6.66117">
        <ele>364.435</ele>
        <time>2016-06-04T14:30:44.002Z</time>
      </trkpt>
      <trkpt lat="47.5021" lon="6.66114">
        <ele>364.678</ele>
        <time>2016-06-04T14:30:45.002Z</time>
      </trkpt>
      <trkpt lat="47.50209" lon="6.66111">
        <ele>364.935</ele>
        <time>2016-06-04T14:30:46.002Z</time>
      </trkpt>
      <trkpt lat="47.50208" lon="6.66108">
        <ele>365.201</ele>
        <time>2016-06-04T14:30:47.002Z</time>
      </trkpt>
      <trkpt lat="47.50207" lon="6.66104">
        <ele>365.472</ele>
        <time>2016-06-04T14:30:48.002Z</time>
      </trkpt>
      <trkpt lat="47.50205" lon="6.66101">
        <ele>365.743</ele>
        <time>2016-06-04T14:30:49.002Z</time>
      </trkpt>
      <trkpt lat="47.50204" lon="6.66098">
        <ele>366.008</ele>
        <time>2016-06-04T14:30:50.002Z</time>
      </trkpt>
      <trkpt lat="47.50202" lon="6.66096">
        <ele>366.264</ele>
        <time>2016-06-04T14:30:51.002Z</time>
      </trkpt>
      <trkpt lat="47.50201" lon="6.66093">
        <ele>366.504</ele>
        <time>2016-06-04T14:30:52.002Z</time>
      </trkpt>
      <trkpt lat="47.50199" lon="6.6609">
        <ele>366.726</ele>
        <time>2016-06-04T14:30:53.002Z</time>
      </trkpt>
      <trkpt lat="47.50198" lon="6.66087">
        <ele>366.927</ele>
        <time>2016-06-04T14:30:54.002Z</time>
      </trkpt>
      <trkpt lat="47.50196" lon="6.66085">
        <ele>367.105</ele>
        <time>2016-06-04T14:30:55.002Z</time>
      </trkpt>
      <trkpt lat="47.50194" lon="6.66082">
        <ele>367.26</ele>
        <time>2016-06-04T14:30:56.002Z</time>
      </trkpt>
      <trkpt lat="47.50192" lon="6.66079">
        <ele>367.392</ele>
        <time>2016-06-04T14:30:57.002Z</time>
      </trkpt>
      <trkpt lat="47.50191" lon="6.66077">
        <ele>367.502</ele>
        <time>2016-06-04T14:30:58.002Z</time>
      </trkpt>
      <trkpt lat="47.50189" lon="6.66074">
        <ele>367.594</ele>
        <time>2016-06-04T14:30:59.002Z</time>
      </trkpt>
      <trkpt lat="47.50187" lon="6.66072">
        <ele>367.671</ele>
        <time>2016-06-04T14:31:00.002Z</time>
      </trkpt>
      <trkpt lat="47.50186" lon="6.6607">
        <ele>367.737</ele>
        <time>2016-06-04T14:31:01.002Z</time>
      </trkpt>
      <trkpt lat="47.50184" lon="6.66068">
        <ele>367.797</ele>
        <time>2016-06-04T14:31:02.002Z</time>
      </trkpt>
      <trkpt lat="47.50182" lon="6.66066">
        <ele>367.852</ele>
        <time>2016-06-04T14:31:03.002Z</time>
      </trkpt>
      <trkpt lat="47.5018" lon="6.66065">
        <ele>367.906</ele>
        <time>2016-06-04T14:31:04.002Z</time>
      </trkpt>
      <trkpt lat="47.50179" lon="6.66064">
        <ele>367.96</ele>
        <time>2016-06-04T14:31:05.002Z</time>
      </trkpt>
      <trkpt lat="47.50177" lon="6.66062">
        <ele>368.017</ele>
        <time>2016-06-04T14:31:06.002Z</time>
      </trkpt>
      <trkpt lat="47.50175" lon="6.66061">
        <ele>368.08</ele>
        <time>2016-06-04T14:31:07.002Z</time>
      </trkpt>
      <trkpt lat="47.50173" lon="6.66059">
        <ele>368.152</ele>
        <time>2016-06-04T14:31:08.002Z</time>
      </trkpt>
      <trkpt lat="47.50171" lon="6.66058">
        <ele>368.236</ele>
        <time>2016-06-04T14:31:09.002Z</time>
      </trkpt>
      <trkpt lat="47.50169" lon="6.66056">
        <ele>368.333</ele>
        <time>2016-06-04T14:31:10.002Z</time>
      </trkpt>
      <trkpt lat="47.50167" lon="6.66055">
        <ele>368.445</ele>
        <time>2016-06-04T14:31:11.002Z</time>
      </trkpt>
      <trkpt lat="47.50165" lon="6.66054">
        <ele>368.574</ele>
        <time>2016-06-04T14:31:12.002Z</time>
      </trkpt>
      <trkpt lat="47.50162" lon="6.66053">
        <ele>368.72</ele>
        <time>2016-06-04T14:31:13.002Z</time>
      </trkpt>
      <trkpt lat="47.5016" lon="6.66052">
        <ele>368.881</ele>
        <time>2016-06-04T14:31:14.002Z</time>
      </trkpt>
      <trkpt lat="47.50157" lon="6.66052">
        <ele>369.058</ele>
        <time>2016-06-04T14:31:15.002Z</time>
      </trkpt>
      <trkpt lat="47.50155" lon="6.66052">
        <ele>369.247</ele>
        <time>2016-06-04T14:31:16.002Z</time>
      </trkpt>
      <trkpt lat="47.50152" lon="6.66051">
        <ele>369.446</ele>
        <time>2016-06-04T14:31:17.002Z</time>
      </trkpt>
      <trkpt lat="47.5015" lon="6.66051">
        <ele>369.652</ele>
        <time>2016-06-04T14:31:18.002Z</time>
      </trkpt>
      <trkpt lat="47.50147" lon="6.66052">
        <ele>369.863</ele>
        <time>2016-06-04T14:31:19.002Z</time>
      </trkpt>
      <trkpt lat="47.50145" lon="6.66052">
        <ele>370.077</ele>
        <time>2016-06-04T14:31:20.002Z</time>
      </trkpt>
      <trkpt lat="47.50142" lon="6.66053">
        <ele>370.294</ele>
        <time>2016-06-04T14:31:21.002Z</time>
      </trkpt>
      <trkpt lat="47.5014" lon="6.66054">
        <ele>370.512</ele>
        <time>2016-06-04T14:31:22.002Z</time>
      </trkpt>
      <trkpt lat="47.50137" lon="6.66055">
        <ele>370.732</ele>
        <time>2016-06-04T14:31:23.002Z</time>
      </trkpt>
      <trkpt lat="47.50135" lon="6.66057">
        <ele>370.953</ele>
        <time>2016-06-04T14:31:24.002Z</time>
      </trkpt>
      <trkpt lat="47.50133" lon="6.66058">
        <ele>371.177</ele>
        <time>2016-06-04T14:31:25.002Z</time>
      </trkpt>
      <trkpt lat="47.5013" lon="6.6606">
        <ele>371.402</ele>
        <time>2016-06-04T14:31:26.002Z</time>
      </trkpt>
      <trkpt lat="47.50128" lon="6.66062">
        <ele>371.629</ele>
        <time>2016-06-04T14:31:27.002Z</time>
      </trkpt>
      <trkpt lat="47.50127" lon="6.66064">
        <ele>371.855</ele>
        <time>2016-06-04T14:31:28.002Z</time>
      </trkpt>
      <trkpt lat="47.50125" lon="6.66066">
        <ele>372.081</ele>
        <time>2016-06-04T14:31:29.002Z</time>
      </trkpt>
      <trkpt lat="47.50123" lon="6.66069">
        <ele>372.306</ele>
        <time>2016-06-04T14:31:30.002Z</time>
      </trkpt>
      <trkpt lat="47.50121" lon="6.66071">
        <ele>372.53</ele>
        <time>2016-06-04T14:31:31.002Z</time>
      </trkpt>
      <trkpt lat="47.5012" lon="6.66074">
        <ele>372.754</ele>
        <time>2016-06-04T14:31:32.002Z</time>
      </trkpt>
      <trkpt lat="47.50118" lon="6.66076">
        <ele>372.976</ele>
        <time>2016-06-04T14:31:33.002Z</time>
      </trkpt>
      <trkpt lat="47.50116" lon="6.66079">
        <ele>373.195</ele>
        <time>2016-06-04T14:31:34.002Z</time>
      </trkpt>
      <trkpt lat="47.50114" lon="6.66081">
        <ele>373.408</ele>
        <time>2016-06-04T14:31:35.002Z</time>
      </trkpt>
      <trkpt lat="47.50112" lon="6.66083">
        <ele>373.611</ele>
        <time>2016-06-04T14:31:36.002Z</time>
      </trkpt>
      <trkpt lat="47.5011" lon="6.66086">
        <ele>373.802</ele>
        <time>2016-06-04T14:31:37.002Z</time>
      </trkpt>
      <trkpt lat="47.50109" lon="6.66089">
        <ele>373.978</ele>
        <time>2016-06-04T14:31:38.002Z</time>
      </trkpt>
      <trkpt lat="47.50107" lon="6.66091">
        <ele>374.138</ele>
        <time>2016-06-04T14:31:39.002Z</time>
      </trkpt>
      <trkpt lat="47.50105" lon="6.66094">
        <ele>374.281</ele>
        <time>2016-06-04T14:31:40.002Z</time>
      </trkpt>
      <trkpt lat="47.50103" lon="6.66097">
        <ele>374.408</ele>
        <time>2016-06-04T14:31:41.002Z</time>
      </trkpt>
      <trkpt lat="47.50102" lon="6.661">
        <ele>374.519</ele>
        <time>2016-06-04T14:31:42.002Z</time>
      </trkpt>
      <trkpt lat="47.501" lon="6.66103">
        <ele>374.616</ele>
        <time>2016-06-04T14:31:43.002Z</time>
      </trkpt>
      <trkpt lat="47.50098" lon="6.66106">
        <ele>374.702</ele>
        <time>2016-06-04T14:31:44.002Z</time>
      </trkpt>
      <trkpt lat="47.50096" lon="6.66109">
        <ele>374.778</ele>
        <time>2016-06-04T14:31:45.002Z</time>
      </trkpt>
      <trkpt lat="47.50095" lon="6.66113">
        <ele>374.847</ele>
        <time>2016-06-04T14:31:46.002Z</time>
      </trkpt>
      <trkpt lat="47.50093" lon="6.66116">
        <ele>374.91</ele>
        <time>2016-06-04T14:31:47.002Z</time>
      </trkpt>
      <trkpt lat="47.50091" lon="6.66119">
        <ele>374.969</ele>
        <time>2016-06-04T14:31:48.002Z</time>
      </trkpt>
      <trkpt lat="47.50089" lon="6.66122">
        <ele>375.027</ele>
        <time>2016-06-04T14:31:49.002Z</time>
      </trkpt>
      <trkpt lat="47.50088" lon="6.66125">
        <ele>375.085</ele>
        <time>2016-06-04T14:31:50.002Z</time>
      </trkpt>
      <trkpt lat="47.50086" lon="6.66128">
        <ele>375.145</ele>
        <time>2016-06-04T14:31:51.002Z</time>
      </trkpt>
      <trkpt lat="47.50084" lon="6.66131">
        <ele>375.209</ele>
        <time>2016-06-04T14:31:52.002Z</time>
      </trkpt>
      <trkpt lat="47.50083" lon="6.66135">
        <ele>375.278</ele>
        <time>2016-06-04T14:31:53.002Z</time>
      </trkpt>
      <trkpt lat="47.50081" lon="6.66138">
        <ele>375.354</ele>
        <time>2016-06-04T14:31:54.002Z</time>
      </trkpt>
      <trkpt lat="47.50079" lon="6.66141">
        <ele>375.438</ele>
        <time>2016-06-04T14:31:55.002Z</time>
      </trkpt>
      <trkpt lat="47.50077" lon="6.66144">
        <ele>375.531</ele>
        <time>2016-06-04T14:31:56.002Z</time>
      </trkpt>
      <trkpt lat="47.50075" lon="6.66147">
        <ele>375.633</ele>
        <time>2016-06-04T14:31:57.002Z</time>
      </trkpt>
      <trkpt lat="47.50074" lon="6.66151">
        <ele>375.746</ele>
        <time>2016-06-04T14:31:58.002Z</time>
      </trkpt>
      <trkpt lat="47.50072" lon="6.66154">
        <ele>375.869</ele>
        <time>2016-06-04T14:31:59.002Z</time>
      </trkpt>
      <trkpt lat="47.5007" lon="6.66157">
        <ele>376.002</ele>
        <time>2016-06-04T14:32:00.002Z</time>
      </trkpt>
      <trkpt lat="47.50068" lon="6.66161">
        <ele>376.143</ele>
        <time>2016-06-04T14:32:01.002Z</time>
      </trkpt>
      <trkpt lat="47.50067" lon="6.66164">
        <ele>376.292</ele>
        <time>2016-06-04T14:32:02.002Z</time>
      </trkpt>
      <trkpt lat="47.50065" lon="6.66167">
        <ele>376.447</ele>
        <time>2016-06-04T14:32:03.002Z</time>
      </trkpt>
      <trkpt lat="47.50064" lon="6.66171">
        <ele>376.607</ele>
        <time>2016-06-04T14:32:04.002Z</time>
      </trkpt>
      <trkpt lat="47.50062" lon="6.66174">
        <ele>376.771</ele>
        <time>2016-06-04T14:32:05.002Z</time>
      </trkpt>
      <trkpt lat="47.5006" lon="6.66177">
        <ele>376.934</ele>
        <time>2016-06-04T14:32:06.002Z</time>
      </trkpt>
      <trkpt lat="47.50058" lon="6.66181">
        <ele>377.094</ele>
        <time>2016-06-04T14:32:07.002Z</time>
      </trkpt>
      <trkpt lat="47.50056" lon="6.66184">
        <ele>377.248</ele>
        <time>2016-06-04T14:32:08.002Z</time>
      </trkpt>
      <trkpt lat="47.50055" lon="6.66187">
        <ele>377.393</ele>
        <time>2016-06-04T14:32:09.002Z</time>
      </trkpt>
      <trkpt lat="47.50053" lon="6.6619">
        <ele>377.528</ele>
        <time>2016-06-04T14:32:10.002Z</time>
      </trkpt>
      <trkpt lat="47.50051" lon="6.66193">
        <ele>377.653</ele>
        <time>2016-06-04T14:32:11.002Z</time>
      </trkpt>
      <trkpt lat="47.5005" lon="6.66196">
        <ele>377.765</ele>
        <time>2016-06-04T14:32:12.002Z</time>
      </trkpt>
      <trkpt lat="47.50048" lon="6.66199">
        <ele>377.867</ele>
        <time>2016-06-04T14:32:13.002Z</time>
      </trkpt>
      <trkpt lat="47.50046" lon="6.66202">
        <ele>377.96</ele>
        <time>2016-06-04T14:32:14.002Z</time>
      </trkpt>
      <trkpt lat="47.50045" lon="6.66205">
        <ele>378.046</ele>
        <time>2016-06-04T14:32:15.002Z</time>
      </trkpt>
      <trkpt lat="47.50043" lon="6.66208">
        <ele>378.128</ele>
        <time>2016-06-04T14:32:16.002Z</time>
      </trkpt>
      <trkpt lat="47.50042" lon="6.66211">
        <ele>378.207</ele>
        <time>2016-06-04T14:32:17.002Z</time>
      </trkpt>
      <trkpt lat="47.5004" lon="6.66215">
        <ele>378.287</ele>
        <time>2016-06-04T14:32:18.002Z</time>
      </trkpt>
      <trkpt lat="47.50038" lon="6.66218">
        <ele>378.37</ele>
        <time>2016-06-04T14:32:19.002Z</time>
      </trkpt>
      <trkpt lat="47.50036" lon="6.66221">
        <ele>378.458</ele>
        <time>2016-06-04T14:32:20.002Z</time>
      </trkpt>
      <trkpt lat="47.50034" lon="6.66225">
        <ele>378.554</ele>
        <time>2016-06-04T14:32:21.002Z</time>
      </trkpt>
      <trkpt lat="47.50032" lon="6.66228">
        <ele>378.659</ele>
        <time>2016-06-04T14:32:22.002Z</time>
      </trkpt>
      <trkpt lat="47.50031" lon="6.66232">
        <ele>378.775</ele>
        <time>2016-06-04T14:32:23.002Z</time>
      </trkpt>
      <trkpt lat="47.50029" lon="6.66235">
        <ele>378.902</ele>
        <time>2016-06-04T14:32:24.002Z</time>
      </trkpt>
      <trkpt lat="47.50027" lon="6.66238">
        <ele>379.041</ele>
        <time>2016-06-04T14:32:25.002Z</time>
      </trkpt>
      <trkpt lat="47.50026" lon="6.66242">
        <ele>379.193</ele>
        <time>2016-06-04T14:32:26.002Z</time>
      </trkpt>
      <trkpt lat="47.50024" lon="6.66245">
        <ele>379.358</ele>
        <time>2016-06-04T14:32:27.002Z</time>
      </trkpt>
      <trkpt lat="47.50022" lon="6.66248">
        <ele>379.537</ele>
        <time>2016-06-04T14:32:28.002Z</time>
      </trkpt>
      <trkpt lat="47.50021" lon="6.66251">
        <ele>379.727</ele>
        <time>2016-06-04T14:32:29.002Z</time>
      </trkpt>
      <trkpt lat="47.50019" lon="6.66255">
        <ele>379.93</ele>
        <time>2016-06-04T14:32:30.002Z</time>
      </trkpt>
      <trkpt lat="47.50017" lon="6.66258">
        <ele>380.143</ele>
        <time>2016-06-04T14:32:31.002Z</time>
      </trkpt>
      <trkpt lat="47.50015" lon="6.66261">
        <ele>380.369</ele>
        <time>2016-06-04T14:32:32.002Z</time>
      </trkpt>
      <trkpt lat="47.50014" lon="6.66265">
        <ele>380.606</ele>
        <time>2016-06-04T14:32:33.002Z</time>
      </trkpt>
      <trkpt lat="47.50012" lon="6.66268">
        <ele>380.855</ele>
        <time>2016-06-04T14:32:34.002Z</time>
      </trkpt>
      <trkpt lat="47.5001" lon="6.66271">
        <ele>381.115</ele>
        <time>2016-06-04T14:32:35.002Z</time>
      </trkpt>
      <trkpt lat="47.50009" lon="6.66275">
        <ele>381.387</ele>
        <time>2016-06-04T14:32:36.002Z</time>
      </trkpt>
      <trkpt lat="47.50007" lon="6.66278">
        <ele>381.667</ele>
        <time>2016-06-04T14:32:37.002Z</time>
      </trkpt>
      <trkpt lat="47.50005" lon="6.66282">
        <ele>381.954</ele>
        <time>2016-06-04T14:32:38.002Z</time>
      </trkpt>
      <trkpt lat="47.50003" lon="6.66285">
        <ele>382.244</ele>
        <time>2016-06-04T14:32:39.002Z</time>
      </trkpt>
      <trkpt lat="47.50002" lon="6.66289">
        <ele>382.536</ele>
        <time>2016-06-04T14:32:40.002Z</time>
      </trkpt>
      <trkpt lat="47.5" lon="6.66292">
        <ele>382.827</ele>
        <time>2016-06-04T14:32:41.002Z</time>
      </trkpt>
      <trkpt lat="47.49998" lon="6.66296">
        <ele>383.114</ele>
        <time>2016-06-04T14:32:42.002Z</time>
      </trkpt>
      <trkpt lat="47.49996" lon="6.66299">
        <ele>383.395</ele>
        <time>2016-06-04T14:32:43.002Z</time>
      </trkpt>
      <trkpt lat="47.49994" lon="6.66302">
        <ele>383.669</ele>
        <time>2016-06-04T14:32:44.002Z</time>
      </trkpt>
      <trkpt lat="47.49993" lon="6.66306">
        <ele>383.932</ele>
        <time>2016-06-04T14:32:45.002Z</time>
      </trkpt>
      <trkpt lat="47.49991" lon="6.66309">
        <ele>384.184</ele>
        <time>2016-06-04T14:32:46.002Z</time>
      </trkpt>
      <trkpt lat="47.49989" lon="6.66312">
        <ele>384.422</ele>
        <time>2016-06-04T14:32:47.002Z</time>
      </trkpt>
      <trkpt lat="47.49987" lon="6.66315">
        <ele>384.647</ele>
        <time>2016-06-04T14:32:48.002Z</time>
      </trkpt>
      <trkpt lat="47.49985" lon="6.66318">
        <ele>384.858</ele>
        <time>2016-06-04T14:32:49.002Z</time>
      </trkpt>
      <trkpt lat="47.49982" lon="6.66321">
        <ele>385.054</ele>
        <time>2016-06-04T14:32:50.002Z</time>
      </trkpt>
      <trkpt lat="47.49981" lon="6.66324">
        <ele>385.236</ele>
        <time>2016-06-04T14:32:51.002Z</time>
      </trkpt>
      <trkpt lat="47.49979" lon="6.66327">
        <ele>385.403</ele>
        <time>2016-06-04T14:32:52.002Z</time>
      </trkpt>
      <trkpt lat="47.49977" lon="6.6633">
        <ele>385.556</ele>
        <time>2016-06-04T14:32:53.002Z</time>
      </trkpt>
      <trkpt lat="47.49975" lon="6.66333">
        <ele>385.694</ele>
        <time>2016-06-04T14:32:54.002Z</time>
      </trkpt>
      <trkpt lat="47.49973" lon="6.66336">
        <ele>385.818</ele>
        <time>2016-06-04T14:32:55.002Z</time>
      </trkpt>
      <trkpt lat="47.49971" lon="6.66339">
        <ele>385.927</ele>
        <time>2016-06-04T14:32:56.002Z</time>
      </trkpt>
      <trkpt lat="47.49969" lon="6.66342">
        <ele>386.023</ele>
        <time>2016-06-04T14:32:57.002Z</time>
      </trkpt>
      <trkpt lat="47.49968" lon="6.66345">
        <ele>386.104</ele>
        <time>2016-06-04T14:32:58.002Z</time>
      </trkpt>
      <trkpt lat="47.49966" lon="6.66348">
        <ele>386.172</ele>
        <time>2016-06-04T14:32:59.002Z</time>
      </trkpt>
      <trkpt lat="47.49964" lon="6.66351">
        <ele>386.226</ele>
        <time>2016-06-04T14:33:00.002Z</time>
      </trkpt>
      <trkpt lat="47.49963" lon="6.66354">
        <ele>386.267</ele>
        <time>2016-06-04T14:33:01.002Z</time>
      </trkpt>
      <trkpt lat="47.49962" lon="6.66357">
        <ele>386.298</ele>
        <time>2016-06-04T14:33:02.002Z</time>
      </trkpt>
      <trkpt lat="47.4996" lon="6.6636">
        <ele>386.321</ele>
        <time>2016-06-04T14:33:03.002Z</time>
      </trkpt>
      <trkpt lat="47.49958" lon="6.66362">
        <ele>386.339</ele>
        <time>2016-06-04T14:33:04.002Z</time>
      </trkpt>
      <trkpt lat="47.49956" lon="6.66365">
        <ele>386.355</ele>
        <time>2016-06-04T14:33:05.002Z</time>
      </trkpt>
      <trkpt lat="47.49954" lon="6.66367">
        <ele>386.372</ele>
        <time>2016-06-04T14:33:06.002Z</time>
      </trkpt>
      <trkpt lat="47.49952" lon="6.6637">
        <ele>386.392</ele>
        <time>2016-06-04T14:33:07.002Z</time>
      </trkpt>
      <trkpt lat="47.4995" lon="6.66372">
        <ele>386.416</ele>
        <time>2016-06-04T14:33:08.002Z</time>
      </trkpt>
      <trkpt lat="47.49948" lon="6.66375">
        <ele>386.447</ele>
        <time>2016-06-04T14:33:09.002Z</time>
      </trkpt>
      <trkpt lat="47.49946" lon="6.66378">
        <ele>386.484</ele>
        <time>2016-06-04T14:33:10.002Z</time>
      </trkpt>
      <trkpt lat="47.49944" lon="6.6638">
        <ele>386.53</ele>
        <time>2016-06-04T14:33:11.002Z</time>
      </trkpt>
      <trkpt lat="47.49942" lon="6.66383">
        <ele>386.583</ele>
        <time>2016-06-04T14:33:12.002Z</time>
      </trkpt>
      <trkpt lat="47.4994" lon="6.66386">
        <ele>386.646</ele>
        <time>2016-06-04T14:33:13.002Z</time>
      </trkpt>
      <trkpt lat="47.49938" lon="6.66389">
        <ele>386.72</ele>
        <time>2016-06-04T14:33:14.002Z</time>
      </trkpt>
      <trkpt lat="47.49936" lon="6.66392">
        <ele>386.807</ele>
        <time>2016-06-04T14:33:15.002Z</time>
      </trkpt>
      <trkpt lat="47.49935" lon="6.66395">
        <ele>386.908</ele>
        <time>2016-06-04T14:33:16.002Z</time>
      </trkpt>
      <trkpt lat="47.49933" lon="6.66398">
        <ele>387.024</ele>
        <time>2016-06-04T14:33:17.002Z</time>
      </trkpt>
      <trkpt lat="47.49931" lon="6.66401">
        <ele>387.159</ele>
        <time>2016-06-04T14:33:18.002Z</time>
      </trkpt>
      <trkpt lat="47.4993" lon="6.66404">
        <ele>387.314</ele>
        <time>2016-06-04T14:33:19.002Z</time>
      </trkpt>
      <trkpt lat="47.49928" lon="6.66407">
        <ele>387.491</ele>
        <time>2016-06-04T14:33:20.002Z</time>
      </trkpt>
      <trkpt lat="47.49926" lon="6.6641">
        <ele>387.688</ele>
        <time>2016-06-04T14:33:21.002Z</time>
      </trkpt>
      <trkpt lat="47.49925" lon="6.66413">
        <ele>387.905</ele>
        <time>2016-06-04T14:33:22.002Z</time>
      </trkpt>
      <trkpt lat="47.49923" lon="6.66416">
        <ele>388.137</ele>
        <time>2016-06-04T14:33:23.002Z</time>
      </trkpt>
      <trkpt lat="47.49921" lon="6.66419">
        <ele>388.381</ele>
        <time>2016-06-04T14:33:24.002Z</time>
      </trkpt>
      <trkpt lat="47.49919" lon="6.66422">
        <ele>388.631</ele>
        <time>2016-06-04T14:33:25.002Z</time>
      </trkpt>
      <trkpt lat="47.49917" lon="6.66424">
        <ele>388.881</ele>
        <time>2016-06-04T14:33:26.002Z</time>
      </trkpt>
      <trkpt lat="47.49915" lon="6.66427">
        <ele>389.127</ele>
        <time>2016-06-04T14:33:27.002Z</time>
      </trkpt>
      <trkpt lat="47.49914" lon="6.6643">
        <ele>389.365</ele>
        <time>2016-06-04T14:33:28.002Z</time>
      </trkpt>
      <trkpt lat="47.49912" lon="6.66432">
        <ele>389.594</ele>
        <time>2016-06-04T14:33:29.002Z</time>
      </trkpt>
      <trkpt lat="47.4991" lon="6.66435">
        <ele>389.811</ele>
        <time>2016-06-04T14:33:30.002Z</time>
      </trkpt>
      <trkpt lat="47.49908" lon="6.66438">
        <ele>390.015</ele>
        <time>2016-06-04T14:33:31.002Z</time>
      </trkpt>
      <trkpt lat="47.49906" lon="6.6644">
        <ele>390.205</ele>
        <time>2016-06-04T14:33:32.002Z</time>
      </trkpt>
      <trkpt lat="47.49905" lon="6.66443">
        <ele>390.38</ele>
        <time>2016-06-04T14:33:33.002Z</time>
      </trkpt>
      <trkpt lat="47.49903" lon="6.66445">
        <ele>390.537</ele>
        <time>2016-06-04T14:33:34.002Z</time>
      </trkpt>
      <trkpt lat="47.49901" lon="6.66448">
        <ele>390.676</ele>
        <time>2016-06-04T14:33:35.002Z</time>
      </trkpt>
      <trkpt lat="47.49899" lon="6.66451">
        <ele>390.796</ele>
        <time>2016-06-04T14:33:36.002Z</time>
      </trkpt>
      <trkpt lat="47.49897" lon="6.66453">
        <ele>390.898</ele>
        <time>2016-06-04T14:33:37.002Z</time>
      </trkpt>
      <trkpt lat="47.49895" lon="6.66455">
        <ele>390.984</ele>
        <time>2016-06-04T14:33:38.002Z</time>
      </trkpt>
      <trkpt lat="47.49893" lon="6.66457">
        <ele>391.056</ele>
        <time>2016-06-04T14:33:39.002Z</time>
      </trkpt>
      <trkpt lat="47.49891" lon="6.66459">
        <ele>391.118</ele>
        <time>2016-06-04T14:33:40.002Z</time>
      </trkpt>
      <trkpt lat="47.49889" lon="6.66462">
        <ele>391.172</ele>
        <time>2016-06-04T14:33:41.002Z</time>
      </trkpt>
      <trkpt lat="47.49887" lon="6.66464">
        <ele>391.223</ele>
        <time>2016-06-04T14:33:42.002Z</time>
      </trkpt>
      <trkpt lat="47.49885" lon="6.66466">
        <ele>391.271</ele>
        <time>2016-06-04T14:33:43.002Z</time>
      </trkpt>
      <trkpt lat="47.49883" lon="6.66468">
        <ele>391.319</ele>
        <time>2016-06-04T14:33:44.002Z</time>
      </trkpt>
      <trkpt lat="47.49881" lon="6.6647">
        <ele>391.369</ele>
        <time>2016-06-04T14:33:45.002Z</time>
      </trkpt>
      <trkpt lat="47.49879" lon="6.66472">
        <ele>391.422</ele>
        <time>2016-06-04T14:33:46.002Z</time>
      </trkpt>
      <trkpt lat="47.49876" lon="6.66474">
        <ele>391.48</ele>
        <time>2016-06-04T14:33:47.002Z</time>
      </trkpt>
      <trkpt lat="47.49874" lon="6.66476">
        <ele>391.545</ele>
        <time>2016-06-04T14:33:48.002Z</time>
      </trkpt>
      <trkpt lat="47.49872" lon="6.66477">
        <ele>391.616</ele>
        <time>2016-06-04T14:33:49.002Z</time>
      </trkpt>
      <trkpt lat="47.4987" lon="6.66479">
        <ele>391.694</ele>
        <time>2016-06-04T14:33:50.002Z</time>
      </trkpt>
      <trkpt lat="47.49868" lon="6.66481">
        <ele>391.78</ele>
        <time>2016-06-04T14:33:51.002Z</time>
      </trkpt>
      <trkpt lat="47.49865" lon="6.66483">
        <ele>391.872</ele>
        <time>2016-06-04T14:33:52.002Z</time>
      </trkpt>
      <trkpt lat="47.49863" lon="6.66484">
        <ele>391.972</ele>
        <time>2016-06-04T14:33:53.002Z</time>
      </trkpt>
      <trkpt lat="47.49861" lon="6.66486">
        <ele>392.079</ele>
        <time>2016-06-04T14:33:54.002Z</time>
      </trkpt>
      <trkpt lat="47.49858" lon="6.66487">
        <ele>392.194</ele>
        <time>2016-06-04T14:33:55.002Z</time>
      </trkpt>
      <trkpt lat="47.49856" lon="6.66488">
        <ele>392.317</ele>
        <time>2016-06-04T14:33:56.002Z</time>
      </trkpt>
      <trkpt lat="47.49854" lon="6.66489">
        <ele>392.449</ele>
        <time>2016-06-04T14:33:57.002Z</time>
      </trkpt>
      <trkpt lat="47.49851" lon="6.6649">
        <ele>392.59</ele>
        <time>2016-06-04T14:33:58.002Z</time>
      </trkpt>
      <trkpt lat="47.49849" lon="6.6649">
        <ele>392.738</ele>
        <time>2016-06-04T14:33:59.002Z</time>
      </trkpt>
      <trkpt lat="47.49846" lon="6.66491">
        <ele>392.891</ele>
        <time>2016-06-04T14:34:00.002Z</time>
      </trkpt>
      <trkpt lat="47.49844" lon="6.66492">
        <ele>393.047</ele>
        <time>2016-06-04T14:34:01.002Z</time>
      </trkpt>
      <trkpt lat="47.49841" lon="6.66493">
        <ele>393.205</ele>
        <time>2016-06-04T14:34:02.002Z</time>
      </trkpt>
      <trkpt lat="47.49839" lon="6.66494">
        <ele>393.363</ele>
        <time>2016-06-04T14:34:03.002Z</time>
      </trkpt>
      <trkpt lat="47.49837" lon="6.66495">
        <ele>393.521</ele>
        <time>2016-06-04T14:34:04.002Z</time>
      </trkpt>
      <trkpt lat="47.49834" lon="6.66496">
        <ele>393.678</ele>
        <time>2016-06-04T14:34:05.002Z</time>
      </trkpt>
      <trkpt lat="47.49832" lon="6.66496">
        <ele>393.835</ele>
        <time>2016-06-04T14:34:06.002Z</time>
      </trkpt>
      <trkpt lat="47.49829" lon="6.66497">
        <ele>393.992</ele>
        <time>2016-06-04T14:34:07.002Z</time>
      </trkpt>
      <trkpt lat="47.49827" lon="6.66497">
        <ele>394.149</ele>
        <time>2016-06-04T14:34:08.002Z</time>
      </trkpt>
      <trkpt lat="47.49824" lon="6.66498">
        <ele>394.307</ele>
        <time>2016-06-04T14:34:09.002Z</time>
      </trkpt>
      <trkpt lat="47.49822" lon="6.66498">
        <ele>394.468</ele>
        <time>2016-06-04T14:34:10.002Z</time>
      </trkpt>
      <trkpt lat="47.49819" lon="6.66499">
        <ele>394.632</ele>
        <time>2016-06-04T14:34:11.002Z</time>
      </trkpt>
      <trkpt lat="47.49817" lon="6.665">
        <ele>394.801</ele>
        <time>2016-06-04T14:34:12.002Z</time>
      </trkpt>
      <trkpt lat="47.49815" lon="6.66501">
        <ele>394.976</ele>
        <time>2016-06-04T14:34:13.002Z</time>
      </trkpt>
      <trkpt lat="47.49812" lon="6.66502">
        <ele>395.157</ele>
        <time>2016-06-04T14:34:14.002Z</time>
      </trkpt>
      <trkpt lat="47.4981" lon="6.66503">
        <ele>395.346</ele>
        <time>2016-06-04T14:34:15.002Z</time>
      </trkpt>
      <trkpt lat="47.49807" lon="6.66504">
        <ele>395.541</ele>
        <time>2016-06-04T14:34:16.002Z</time>
      </trkpt>
      <trkpt lat="47.49805" lon="6.66505">
        <ele>395.743</ele>
        <time>2016-06-04T14:34:17.002Z</time>
      </trkpt>
      <trkpt lat="47.49802" lon="6.66506">
        <ele>395.95</ele>
        <time>2016-06-04T14:34:18.002Z</time>
      </trkpt>
      <trkpt lat="47.498" lon="6.66507">
        <ele>396.161</ele>
        <time>2016-06-04T14:34:19.002Z</time>
      </trkpt>
      <trkpt lat="47.49797" lon="6.66508">
        <ele>396.375</ele>
        <time>2016-06-04T14:34:20.002Z</time>
      </trkpt>
      <trkpt lat="47.49794" lon="6.66509">
        <ele>396.589</ele>
        <time>2016-06-04T14:34:21.002Z</time>
      </trkpt>
      <trkpt lat="47.49792" lon="6.6651">
        <ele>396.801</ele>
        <time>2016-06-04T14:34:22.002Z</time>
      </trkpt>
      <trkpt lat="47.49789" lon="6.6651">
        <ele>397.009</ele>
        <time>2016-06-04T14:34:23.002Z</time>
      </trkpt>
      <trkpt lat="47.49787" lon="6.66511">
        <ele>397.209</ele>
        <time>2016-06-04T14:34:24.002Z</time>
      </trkpt>
      <trkpt lat="47.49784" lon="6.66512">
        <ele>397.4</ele>
        <time>2016-06-04T14:34:25.002Z</time>
      </trkpt>
      <trkpt lat="47.49781" lon="6.66513">
        <ele>397.578</ele>
        <time>2016-06-04T14:34:26.002Z</time>
      </trkpt>
      <trkpt lat="47.49779" lon="6.66513">
        <ele>397.74</ele>
        <time>2016-06-04T14:34:27.002Z</time>
      </trkpt>
      <trkpt lat="47.49776" lon="6.66514">
        <ele>397.885</ele>
        <time>2016-06-04T14:34:28.002Z</time>
      </trkpt>
      <trkpt lat="47.49774" lon="6.66514">
        <ele>398.012</ele>
        <time>2016-06-04T14:34:29.002Z</time>
      </trkpt>
      <trkpt lat="47.49771" lon="6.66515">
        <ele>398.119</ele>
        <time>2016-06-04T14:34:30.002Z</time>
      </trkpt>
      <trkpt lat="47.49769" lon="6.66516">
        <ele>398.206</ele>
        <time>2016-06-04T14:34:31.002Z</time>
      </trkpt>
      <trkpt lat="47.49766" lon="6.66517">
        <ele>398.277</ele>
        <time>2016-06-04T14:34:32.002Z</time>
      </trkpt>
      <trkpt lat="47.49764" lon="6.66518">
        <ele>398.333</ele>
        <time>2016-06-04T14:34:33.002Z</time>
      </trkpt>
      <trkpt lat="47.49761" lon="6.66519">
        <ele>398.378</ele>
        <time>2016-06-04T14:34:34.002Z</time>
      </trkpt>
      <trkpt lat="47.49759" lon="6.6652">
        <ele>398.412</ele>
        <time>2016-06-04T14:34:35.002Z</time>
      </trkpt>
      <trkpt lat="47.49757" lon="6.66521">
        <ele>398.438</ele>
        <time>2016-06-04T14:34:36.002Z</time>
      </trkpt>
      <trkpt lat="47.49754" lon="6.66522">
        <ele>398.46</ele>
        <time>2016-06-04T14:34:37.002Z</time>
      </trkpt>
      <trkpt lat="47.49752" lon="6.66523">
        <ele>398.481</ele>
        <time>2016-06-04T14:34:38.002Z</time>
      </trkpt>
      <trkpt lat="47.49749" lon="6.66523">
        <ele>398.505</ele>
        <time>2016-06-04T14:34:39.002Z</time>
      </trkpt>
      <trkpt lat="47.49746" lon="6.66524">
        <ele>398.536</ele>
        <time>2016-06-04T14:34:40.002Z</time>
      </trkpt>
      <trkpt lat="47.49744" lon="6.66525">
        <ele>398.576</ele>
        <time>2016-06-04T14:34:41.002Z</time>
      </trkpt>
      <trkpt lat="47.49741" lon="6.66525">
        <ele>398.628</ele>
        <time>2016-06-04T14:34:42.002Z</time>
      </trkpt>
      <trkpt lat="47.49739" lon="6.66526">
        <ele>398.693</ele>
        <time>2016-06-04T14:34:43.002Z</time>
      </trkpt>
      <trkpt lat="47.49736" lon="6.66527">
        <ele>398.773</ele>
        <time>2016-06-04T14:34:44.002Z</time>
      </trkpt>
      <trkpt lat="47.49733" lon="6.66528">
        <ele>398.869</ele>
        <time>2016-06-04T14:34:45.002Z</time>
      </trkpt>
      <trkpt lat="47.49731" lon="6.66529">
        <ele>398.981</ele>
        <time>2016-06-04T14:34:46.002Z</time>
      </trkpt>
      <trkpt lat="47.49728" lon="6.6653">
        <ele>399.11</ele>
        <time>2016-06-04T14:34:47.002Z</time>
      </trkpt>
      <trkpt lat="47.49725" lon="6.66531">
        <ele>399.254</ele>
        <time>2016-06-04T14:34:48.002Z</time>
      </trkpt>
      <trkpt lat="47.49723" lon="6.66531">
        <ele>399.414</ele>
        <time>2016-06-04T14:34:49.002Z</time>
      </trkpt>
      <trkpt lat="47.4972" lon="6.66532">
        <ele>399.587</ele>
        <time>2016-06-04T14:34:50.002Z</time>
      </trkpt>
      <trkpt lat="47.49717" lon="6.66533">
        <ele>399.774</ele>
        <time>2016-06-04T14:34:51.002Z</time>
      </trkpt>
      <trkpt lat="47.49715" lon="6.66534">
        <ele>399.971</ele>
        <time>2016-06-04T14:34:52.002Z</time>
      </trkpt>
      <trkpt lat="47.49712" lon="6.66535">
        <ele>400.176</ele>
        <time>2016-06-04T14:34:53.002Z</time>
      </trkpt>
      <trkpt lat="47.4971" lon="6.66536">
        <ele>400.387</ele>
        <time>2016-06-04T14:34:54.002Z</time>
      </trkpt>
      <trkpt lat="47.49707" lon="6.66537">
        <ele>400.604</ele>
        <time>2016-06-04T14:34:55.002Z</time>
      </trkpt>
      <trkpt lat="47.49704" lon="6.66538">
        <ele>400.823</ele>
        <time>2016-06-04T14:34:56.002Z</time>
      </trkpt>
      <trkpt lat="47.49702" lon="6.66539">
        <ele>401.045</ele>
        <time>2016-06-04T14:34:57.002Z</time>
      </trkpt>
      <trkpt lat="47.49699" lon="6.6654">
        <ele>401.265</ele>
        <time>2016-06-04T14:34:58.002Z</time>
      </trkpt>
      <trkpt lat="47.49697" lon="6.66542">
        <ele>401.481</ele>
        <time>2016-06-04T14:34:59.002Z</time>
      </trkpt>
      <trkpt lat="47.49695" lon="6.66543">
        <ele>401.693</ele>
        <time>2016-06-04T14:35:00.002Z</time>
      </trkpt>
      <trkpt lat="47.49692" lon="6.66545">
        <ele>401.897</ele>
        <time>2016-06-04T14:35:01.002Z</time>
      </trkpt>
      <trkpt lat="47.4969" lon="6.66546">
        <ele>402.093</ele>
        <time>2016-06-04T14:35:02.002Z</time>
      </trkpt>
      <trkpt lat="47.49687" lon="6.66547">
        <ele>402.281</ele>
        <time>2016-06-04T14:35:03.002Z</time>
      </trkpt>
      <trkpt lat="47.49684" lon="6.66548">
        <ele>402.462</ele>
        <time>2016-06-04T14:35:04.002Z</time>
      </trkpt>
      <trkpt lat="47.49682" lon="6.66549">
        <ele>402.635</ele>
        <time>2016-06-04T14:35:05.002Z</time>
      </trkpt>
      <trkpt lat="47.49679" lon="6.6655">
        <ele>402.801</ele>
        <time>2016-06-04T14:35:06.002Z</time>
      </trkpt>
      <trkpt lat="47.49677" lon="6.6655">
        <ele>402.959</ele>
        <time>2016-06-04T14:35:07.002Z</time>
      </trkpt>
      <trkpt lat="47.49674" lon="6.66551">
        <ele>403.111</ele>
        <time>2016-06-04T14:35:08.002Z</time>
      </trkpt>
      <trkpt lat="47.49671" lon="6.66552">
        <ele>403.256</ele>
        <time>2016-06-04T14:35:09.002Z</time>
      </trkpt>
      <trkpt lat="47.49669" lon="6.66552">
        <ele>403.394</ele>
        <time>2016-06-04T14:35:10.002Z</time>
      </trkpt>
      <trkpt lat="47.49666" lon="6.66553">
        <ele>403.524</ele>
        <time>2016-06-04T14:35:11.002Z</time>
      </trkpt>
      <trkpt lat="47.49663" lon="6.66554">
        <ele>403.645</ele>
        <time>2016-06-04T14:35:12.002Z</time>
      </trkpt>
      <trkpt lat="47.49661" lon="6.66554">
        <ele>403.757</ele>
        <time>2016-06-04T14:35:13.002Z</time>
      </trkpt>
      <trkpt lat="47.49658" lon="6.66555">
        <ele>403.859</ele>
        <time>2016-06-04T14:35:14.002Z</time>
      </trkpt>
      <trkpt lat="47.49655" lon="6.66555">
        <ele>403.953</ele>
        <time>2016-06-04T14:35:15.002Z</time>
      </trkpt>
      <trkpt lat="47.49653" lon="6.66555">
        <ele>404.04</ele>
        <time>2016-06-04T14:35:16.002Z</time>
      </trkpt>
      <trkpt lat="47.4965" lon="6.66556">
        <ele>404.124</ele>
        <time>2016-06-04T14:35:17.002Z</time>
      </trkpt>
      <trkpt lat="47.49647" lon="6.66556">
        <ele>404.207</ele>
        <time>2016-06-04T14:35:18.002Z</time>
      </trkpt>
      <trkpt lat="47.49644" lon="6.66557">
        <ele>404.292</ele>
        <time>2016-06-04T14:35:19.002Z</time>
      </trkpt>
      <trkpt lat="47.49642" lon="6.66557">
        <ele>404.381</ele>
        <time>2016-06-04T14:35:20.002Z</time>
      </trkpt>
      <trkpt lat="47.49639" lon="6.66558">
        <ele>404.476</ele>
        <time>2016-06-04T14:35:21.002Z</time>
      </trkpt>
      <trkpt lat="47.49637" lon="6.66559">
        <ele>404.578</ele>
        <time>2016-06-04T14:35:22.002Z</time>
      </trkpt>
      <trkpt lat="47.49634" lon="6.6656">
        <ele>404.689</ele>
        <time>2016-06-04T14:35:23.002Z</time>
      </trkpt>
      <trkpt lat="47.49631" lon="6.6656">
        <ele>404.809</ele>
        <time>2016-06-04T14:35:24.002Z</time>
      </trkpt>
      <trkpt lat="47.49628" lon="6.66561">
        <ele>404.94</ele>
        <time>2016-06-04T14:35:25.002Z</time>
      </trkpt>
      <trkpt lat="47.49625" lon="6.66562">
        <ele>405.08</ele>
        <time>2016-06-04T14:35:26.002Z</time>
      </trkpt>
      <trkpt lat="47.49622" lon="6.66563">
        <ele>405.229</ele>
        <time>2016-06-04T14:35:27.002Z</time>
      </trkpt>
      <trkpt lat="47.4962" lon="6.66565">
        <ele>405.385</ele>
        <time>2016-06-04T14:35:28.002Z</time>
      </trkpt>
      <trkpt lat="47.49617" lon="6.66566">
        <ele>405.545</ele>
        <time>2016-06-04T14:35:29.002Z</time>
      </trkpt>
      <trkpt lat="47.49614" lon="6.66567">
        <ele>405.71</ele>
        <time>2016-06-04T14:35:30.002Z</time>
      </trkpt>
      <trkpt lat="47.49611" lon="6.66568">
        <ele>405.876</ele>
        <time>2016-06-04T14:35:31.002Z</time>
      </trkpt>
      <trkpt lat="47.49608" lon="6.66569">
        <ele>406.046</ele>
        <time>2016-06-04T14:35:32.002Z</time>
      </trkpt>
      <trkpt lat="47.49605" lon="6.66569">
        <ele>406.22</ele>
        <time>2016-06-04T14:35:33.002Z</time>
      </trkpt>
      <trkpt lat="47.49602" lon="6.6657">
        <ele>406.402</ele>
        <time>2016-06-04T14:35:34.002Z</time>
      </trkpt>
      <trkpt lat="47.49599" lon="6.6657">
        <ele>406.597</ele>
        <time>2016-06-04T14:35:35.002Z</time>
      </trkpt>
      <trkpt lat="47.49596" lon="6.66571">
        <ele>406.807</ele>
        <time>2016-06-04T14:35:36.002Z</time>
      </trkpt>
      <trkpt lat="47.49593" lon="6.66571">
        <ele>407.034</ele>
        <time>2016-06-04T14:35:37.002Z</time>
      </trkpt>
      <trkpt lat="47.4959" lon="6.66571">
        <ele>407.279</ele>
        <time>2016-06-04T14:35:38.002Z</time>
      </trkpt>
      <trkpt lat="47.49587" lon="6.66571">
        <ele>407.543</ele>
        <time>2016-06-04T14:35:39.002Z</time>
      </trkpt>
      <trkpt lat="47.49584" lon="6.66571">
        <ele>407.823</ele>
        <time>2016-06-04T14:35:40.002Z</time>
      </trkpt>
      <trkpt lat="47.49581" lon="6.66572">
        <ele>408.118</ele>
        <time>2016-06-04T14:35:41.002Z</time>
      </trkpt>
      <trkpt lat="47.49578" lon="6.66572">
        <ele>408.424</ele>
        <time>2016-06-04T14:35:42.002Z</time>
      </trkpt>
      <trkpt lat="47.49575" lon="6.66573">
        <ele>408.739</ele>
        <time>2016-06-04T14:35:43.002Z</time>
      </trkpt>
      <trkpt lat="47.49572" lon="6.66573">
        <ele>409.059</ele>
        <time>2016-06-04T14:35:44.002Z</time>
      </trkpt>
      <trkpt lat="47.49569" lon="6.66574">
        <ele>409.381</ele>
        <time>2016-06-04T14:35:45.002Z</time>
      </trkpt>
      <trkpt lat="47.49566" lon="6.66574">
        <ele>409.703</ele>
        <time>2016-06-04T14:35:46.002Z</time>
      </trkpt>
      <trkpt lat="47.49563" lon="6.66574">
        <ele>410.019</ele>
        <time>2016-06-04T14:35:47.002Z</time>
      </trkpt>
      <trkpt lat="47.4956" lon="6.66574">
        <ele>410.327</ele>
        <time>2016-06-04T14:35:48.002Z</time>
      </trkpt>
      <trkpt lat="47.49557" lon="6.66574">
        <ele>410.624</ele>
        <time>2016-06-04T14:35:49.002Z</time>
      </trkpt>
      <trkpt lat="47.49554" lon="6.66574">
        <ele>410.904</ele>
        <time>2016-06-04T14:35:50.002Z</time>
      </trkpt>
      <trkpt lat="47.49551" lon="6.66574">
        <ele>411.164</ele>
        <time>2016-06-04T14:35:51.002Z</time>
      </trkpt>
      <trkpt lat="47.49548" lon="6.66575">
        <ele>411.403</ele>
        <time>2016-06-04T14:35:52.002Z</time>
      </trkpt>
      <trkpt lat="47.49546" lon="6.66575">
        <ele>411.618</ele>
        <time>2016-06-04T14:35:53.002Z</time>
      </trkpt>
      <trkpt lat="47.49543" lon="6.66575">
        <ele>411.808</ele>
        <time>2016-06-04T14:35:54.002Z</time>
      </trkpt>
      <trkpt lat="47.4954" lon="6.66575">
        <ele>411.974</ele>
        <time>2016-06-04T14:35:55.002Z</time>
      </trkpt>
      <trkpt lat="47.49537" lon="6.66575">
        <ele>412.116</ele>
        <time>2016-06-04T14:35:56.002Z</time>
      </trkpt>
      <trkpt lat="47.49534" lon="6.66574">
        <ele>412.236</ele>
        <time>2016-06-04T14:35:57.002Z</time>
      </trkpt>
      <trkpt lat="47.49531" lon="6.66574">
        <ele>412.336</ele>
        <time>2016-06-04T14:35:58.002Z</time>
      </trkpt>
      <trkpt lat="47.49529" lon="6.66574">
        <ele>412.417</ele>
        <time>2016-06-04T14:35:59.002Z</time>
      </trkpt>
      <trkpt lat="47.49526" lon="6.66575">
        <ele>412.482</ele>
        <time>2016-06-04T14:36:00.002Z</time>
      </trkpt>
      <trkpt lat="47.49523" lon="6.66575">
        <ele>412.533</ele>
        <time>2016-06-04T14:36:01.002Z</time>
      </trkpt>
      <trkpt lat="47.4952" lon="6.66575">
        <ele>412.572</ele>
        <time>2016-06-04T14:36:02.002Z</time>
      </trkpt>
      <trkpt lat="47.49517" lon="6.66575">
        <ele>412.601</ele>
        <time>2016-06-04T14:36:03.002Z</time>
      </trkpt>
      <trkpt lat="47.49514" lon="6.66575">
        <ele>412.618</ele>
        <time>2016-06-04T14:36:04.002Z</time>
      </trkpt>
      <trkpt lat="47.49511" lon="6.66575">
        <ele>412.623</ele>
        <time>2016-06-04T14:36:05.002Z</time>
      </trkpt>
      <trkpt lat="47.49508" lon="6.66575">
        <ele>412.615</ele>
        <time>2016-06-04T14:36:06.002Z</time>
      </trkpt>
      <trkpt lat="47.49505" lon="6.66575">
        <ele>412.59</ele>
        <time>2016-06-04T14:36:07.002Z</time>
      </trkpt>
      <trkpt lat="47.49502" lon="6.66575">
        <ele>412.544</ele>
        <time>2016-06-04T14:36:08.002Z</time>
      </trkpt>
      <trkpt lat="47.49499" lon="6.66575">
        <ele>412.477</ele>
        <time>2016-06-04T14:36:09.002Z</time>
      </trkpt>
      <trkpt lat="47.49496" lon="6.66575">
        <ele>412.385</ele>
        <time>2016-06-04T14:36:10.002Z</time>
      </trkpt>
      <trkpt lat="47.49493" lon="6.66576">
        <ele>412.268</ele>
        <time>2016-06-04T14:36:11.002Z</time>
      </trkpt>
      <trkpt lat="47.4949" lon="6.66576">
        <ele>412.126</ele>
        <time>2016-06-04T14:36:12.002Z</time>
      </trkpt>
      <trkpt lat="47.49487" lon="6.66577">
        <ele>411.959</ele>
        <time>2016-06-04T14:36:13.002Z</time>
      </trkpt>
      <trkpt lat="47.49484" lon="6.66578">
        <ele>411.77</ele>
        <time>2016-06-04T14:36:14.002Z</time>
      </trkpt>
      <trkpt lat="47.49481" lon="6.66579">
        <ele>411.56</ele>
        <time>2016-06-04T14:36:15.002Z</time>
      </trkpt>
      <trkpt lat="47.49477" lon="6.66581">
        <ele>411.329</ele>
        <time>2016-06-04T14:36:16.002Z</time>
      </trkpt>
      <trkpt lat="47.49474" lon="6.66583">
        <ele>411.08</ele>
        <time>2016-06-04T14:36:17.002Z</time>
      </trkpt>
      <trkpt lat="47.4947" lon="6.66585">
        <ele>410.818</ele>
        <time>2016-06-04T14:36:18.002Z</time>
      </trkpt>
      <trkpt lat="47.49466" lon="6.66587">
        <ele>410.545</ele>
        <time>2016-06-04T14:36:19.002Z</time>
      </trkpt>
      <trkpt lat="47.49462" lon="6.66588">
        <ele>410.266</ele>
        <time>2016-06-04T14:36:20.002Z</time>
      </trkpt>
      <trkpt lat="47.49457" lon="6.6659">
        <ele>409.988</ele>
        <time>2016-06-04T14:36:21.002Z</time>
      </trkpt>
      <trkpt lat="47.49453" lon="6.66592">
        <ele>409.715</ele>
        <time>2016-06-04T14:36:22.002Z</time>
      </trkpt>
      <trkpt lat="47.49448" lon="6.66594">
        <ele>409.452</ele>
        <time>2016-06-04T14:36:23.002Z</time>
      </trkpt>
      <trkpt lat="47.49444" lon="6.66596">
        <ele>409.204</ele>
        <time>2016-06-04T14:36:24.002Z</time>
      </trkpt>
      <trkpt lat="47.4944" lon="6.66599">
        <ele>408.975</ele>
        <time>2016-06-04T14:36:25.002Z</time>
      </trkpt>
      <trkpt lat="47.49436" lon="6.66602">
        <ele>408.77</ele>
        <time>2016-06-04T14:36:26.002Z</time>
      </trkpt>
      <trkpt lat="47.49432" lon="6.66605">
        <ele>408.591</ele>
        <time>2016-06-04T14:36:27.002Z</time>
      </trkpt>
      <trkpt lat="47.49429" lon="6.66609">
        <ele>408.442</ele>
        <time>2016-06-04T14:36:28.002Z</time>
      </trkpt>
      <trkpt lat="47.49425" lon="6.66613">
        <ele>408.326</ele>
        <time>2016-06-04T14:36:29.002Z</time>
      </trkpt>
      <trkpt lat="47.49421" lon="6.66617">
        <ele>408.243</ele>
        <time>2016-06-04T14:36:30.002Z</time>
      </trkpt>
      <trkpt lat="47.49417" lon="6.66621">
        <ele>408.196</ele>
        <time>2016-06-04T14:36:31.002Z</time>
      </trkpt>
      <trkpt lat="47.49413" lon="6.66624">
        <ele>408.183</ele>
        <time>2016-06-04T14:36:32.002Z</time>
      </trkpt>
      <trkpt lat="47.4941" lon="6.66628">
        <ele>408.202</ele>
        <time>2016-06-04T14:36:33.002Z</time>
      </trkpt>
      <trkpt lat="47.49406" lon="6.66631">
        <ele>408.253</ele>
        <time>2016-06-04T14:36:34.002Z</time>
      </trkpt>
      <trkpt lat="47.49403" lon="6.66634">
        <ele>408.33</ele>
        <time>2016-06-04T14:36:35.002Z</time>
      </trkpt>
      <trkpt lat="47.494" lon="6.66638">
        <ele>408.431</ele>
        <time>2016-06-04T14:36:36.002Z</time>
      </trkpt>
      <trkpt lat="47.49397" lon="6.66641">
        <ele>408.554</ele>
        <time>2016-06-04T14:36:37.002Z</time>
      </trkpt>
      <trkpt lat="47.49394" lon="6.66645">
        <ele>408.698</ele>
        <time>2016-06-04T14:36:38.002Z</time>
      </trkpt>
      <trkpt lat="47.49391" lon="6.66647">
        <ele>408.86</ele>
        <time>2016-06-04T14:36:39.002Z</time>
      </trkpt>
      <trkpt lat="47.49388" lon="6.6665">
        <ele>409.04</ele>
        <time>2016-06-04T14:36:40.002Z</time>
      </trkpt>
      <trkpt lat="47.49385" lon="6.66652">
        <ele>409.238</ele>
        <time>2016-06-04T14:36:41.002Z</time>
      </trkpt>
      <trkpt lat="47.49382" lon="6.66656">
        <ele>409.45</ele>
        <time>2016-06-04T14:36:42.002Z</time>
      </trkpt>
      <trkpt lat="47.49379" lon="6.66659">
        <ele>409.673</ele>
        <time>2016-06-04T14:36:43.002Z</time>
      </trkpt>
      <trkpt lat="47.49376" lon="6.66663">
        <ele>409.903</ele>
        <time>2016-06-04T14:36:44.002Z</time>
      </trkpt>
      <trkpt lat="47.49373" lon="6.66666">
        <ele>410.137</ele>
        <time>2016-06-04T14:36:45.002Z</time>
      </trkpt>
      <trkpt lat="47.4937" lon="6.66668">
        <ele>410.369</ele>
        <time>2016-06-04T14:36:46.002Z</time>
      </trkpt>
      <trkpt lat="47.49367" lon="6.66671">
        <ele>410.595</ele>
        <time>2016-06-04T14:36:47.002Z</time>
      </trkpt>
      <trkpt lat="47.49364" lon="6.66673">
        <ele>410.812</ele>
        <time>2016-06-04T14:36:48.002Z</time>
      </trkpt>
      <trkpt lat="47.49361" lon="6.66675">
        <ele>411.021</ele>
        <time>2016-06-04T14:36:49.002Z</time>
      </trkpt>
      <trkpt lat="47.49358" lon="6.66677">
        <ele>411.221</ele>
        <time>2016-06-04T14:36:50.002Z</time>
      </trkpt>
      <trkpt lat="47.49355" lon="6.66679">
        <ele>411.415</ele>
        <time>2016-06-04T14:36:51.002Z</time>
      </trkpt>
      <trkpt lat="47.49352" lon="6.6668">
        <ele>411.602</ele>
        <time>2016-06-04T14:36:52.002Z</time>
      </trkpt>
      <trkpt lat="47.4935" lon="6.6668">
        <ele>411.785</ele>
        <time>2016-06-04T14:36:53.002Z</time>
      </trkpt>
      <trkpt lat="47.49347" lon="6.6668">
        <ele>411.959</ele>
        <time>2016-06-04T14:36:54.002Z</time>
      </trkpt>
      <trkpt lat="47.49344" lon="6.6668">
        <ele>412.123</ele>
        <time>2016-06-04T14:36:55.002Z</time>
      </trkpt>
      <trkpt lat="47.49342" lon="6.66678">
        <ele>412.274</ele>
        <time>2016-06-04T14:36:56.002Z</time>
      </trkpt>
      <trkpt lat="47.49339" lon="6.66677">
        <ele>412.409</ele>
        <time>2016-06-04T14:36:57.002Z</time>
      </trkpt>
      <trkpt lat="47.49337" lon="6.66675">
        <ele>412.525</ele>
        <time>2016-06-04T14:36:58.002Z</time>
      </trkpt>
      <trkpt lat="47.49335" lon="6.66672">
        <ele>412.62</ele>
        <time>2016-06-04T14:36:59.002Z</time>
      </trkpt>
      <trkpt lat="47.49333" lon="6.66669">
        <ele>412.695</ele>
        <time>2016-06-04T14:37:00.002Z</time>
      </trkpt>
      <trkpt lat="47.49331" lon="6.66667">
        <ele>412.75</ele>
        <time>2016-06-04T14:37:01.002Z</time>
      </trkpt>
      <trkpt lat="47.4933" lon="6.66665">
        <ele>412.787</ele>
        <time>2016-06-04T14:37:02.002Z</time>
      </trkpt>
      <trkpt lat="47.49328" lon="6.66663">
        <ele>412.808</ele>
        <time>2016-06-04T14:37:03.002Z</time>
      </trkpt>
      <trkpt lat="47.49326" lon="6.66661">
        <ele>412.815</ele>
        <time>2016-06-04T14:37:04.002Z</time>
      </trkpt>
      <trkpt lat="47.49324" lon="6.66658">
        <ele>412.809</ele>
        <time>2016-06-04T14:37:05.002Z</time>
      </trkpt>
      <trkpt lat="47.49322" lon="6.66656">
        <ele>412.794</ele>
        <time>2016-06-04T14:37:06.002Z</time>
      </trkpt>
      <trkpt lat="47.4932" lon="6.66654">
        <ele>412.771</ele>
        <time>2016-06-04T14:37:07.002Z</time>
      </trkpt>
      <trkpt lat="47.49317" lon="6.66651">
        <ele>412.741</ele>
        <time>2016-06-04T14:37:08.002Z</time>
      </trkpt>
      <trkpt lat="47.49315" lon="6.66648">
        <ele>412.706</ele>
        <time>2016-06-04T14:37:09.002Z</time>
      </trkpt>
      <trkpt lat="47.49313" lon="6.66646">
        <ele>412.665</ele>
        <time>2016-06-04T14:37:10.002Z</time>
      </trkpt>
      <trkpt lat="47.49311" lon="6.66643">
        <ele>412.62</ele>
        <time>2016-06-04T14:37:11.002Z</time>
      </trkpt>
      <trkpt lat="47.49309" lon="6.66641">
        <ele>412.573</ele>
        <time>2016-06-04T14:37:12.002Z</time>
      </trkpt>
      <trkpt lat="47.49307" lon="6.66638">
        <ele>412.527</ele>
        <time>2016-06-04T14:37:13.002Z</time>
      </trkpt>
      <trkpt lat="47.49305" lon="6.66635">
        <ele>412.484</ele>
        <time>2016-06-04T14:37:14.002Z</time>
      </trkpt>
      <trkpt lat="47.49303" lon="6.66633">
        <ele>412.448</ele>
        <time>2016-06-04T14:37:15.002Z</time>
      </trkpt>
      <trkpt lat="47.49302" lon="6.66631">
        <ele>412.422</ele>
        <time>2016-06-04T14:37:16.002Z</time>
      </trkpt>
      <trkpt lat="47.493" lon="6.66629">
        <ele>412.407</ele>
        <time>2016-06-04T14:37:17.002Z</time>
      </trkpt>
      <trkpt lat="47.49297" lon="6.66628">
        <ele>412.407</ele>
        <time>2016-06-04T14:37:18.002Z</time>
      </trkpt>
      <trkpt lat="47.49295" lon="6.66626">
        <ele>412.423</ele>
        <time>2016-06-04T14:37:19.002Z</time>
      </trkpt>
      <trkpt lat="47.49293" lon="6.66624">
        <ele>412.456</ele>
        <time>2016-06-04T14:37:20.002Z</time>
      </trkpt>
      <trkpt lat="47.4929" lon="6.66623">
        <ele>412.506</ele>
        <time>2016-06-04T14:37:21.002Z</time>
      </trkpt>
      <trkpt lat="47.49287" lon="6.66621">
        <ele>412.572</ele>
        <time>2016-06-04T14:37:22.002Z</time>
      </trkpt>
      <trkpt lat="47.49285" lon="6.6662">
        <ele>412.653</ele>
        <time>2016-06-04T14:37:23.002Z</time>
      </trkpt>
      <trkpt lat="47.49282" lon="6.66618">
        <ele>412.75</ele>
        <time>2016-06-04T14:37:24.002Z</time>
      </trkpt>
      <trkpt lat="47.49279" lon="6.66616">
        <ele>412.861</ele>
        <time>2016-06-04T14:37:25.002Z</time>
      </trkpt>
      <trkpt lat="47.49277" lon="6.66614">
        <ele>412.988</ele>
        <time>2016-06-04T14:37:26.002Z</time>
      </trkpt>
      <trkpt lat="47.49274" lon="6.66612">
        <ele>413.129</ele>
        <time>2016-06-04T14:37:27.002Z</time>
      </trkpt>
      <trkpt lat="47.49272" lon="6.6661">
        <ele>413.285</ele>
        <time>2016-06-04T14:37:28.002Z</time>
      </trkpt>
      <trkpt lat="47.4927" lon="6.66607">
        <ele>413.454</ele>
        <time>2016-06-04T14:37:29.002Z</time>
      </trkpt>
      <trkpt lat="47.49268" lon="6.66603">
        <ele>413.635</ele>
        <time>2016-06-04T14:37:30.002Z</time>
      </trkpt>
      <trkpt lat="47.49267" lon="6.666">
        <ele>413.825</ele>
        <time>2016-06-04T14:37:31.002Z</time>
      </trkpt>
      <trkpt lat="47.49266" lon="6.66596">
        <ele>414.023</ele>
        <time>2016-06-04T14:37:32.002Z</time>
      </trkpt>
      <trkpt lat="47.49265" lon="6.66593">
        <ele>414.225</ele>
        <time>2016-06-04T14:37:33.002Z</time>
      </trkpt>
      <trkpt lat="47.49265" lon="6.66589">
        <ele>414.431</ele>
        <time>2016-06-04T14:37:34.002Z</time>
      </trkpt>
      <trkpt lat="47.49264" lon="6.66586">
        <ele>414.638</ele>
        <time>2016-06-04T14:37:35.002Z</time>
      </trkpt>
      <trkpt lat="47.49264" lon="6.66584">
        <ele>414.846</ele>
        <time>2016-06-04T14:37:36.002Z</time>
      </trkpt>
      <trkpt lat="47.49266" lon="6.6658">
        <ele>414.945</ele>
        <time>2016-06-04T14:37:37.523Z</time>
      </trkpt>
      <trkpt lat="47.49267" lon="6.66578">
        <ele>415.72</ele>
        <time>2016-06-04T14:37:38.240Z</time>
      </trkpt>
      <trkpt lat="47.49268" lon="6.66576">
        <ele>414.356</ele>
        <time>2016-06-04T14:37:39.009Z</time>
      </trkpt>
      <trkpt lat="47.4927" lon="6.66575">
        <ele>414.532</ele>
        <time>2016-06-04T14:37:40.005Z</time>
      </trkpt>
      <trkpt lat="47.49273" lon="6.66574">
        <ele>415.03</ele>
        <time>2016-06-04T14:37:41.001Z</time>
      </trkpt>
      <trkpt lat="47.49276" lon="6.66574">
        <ele>415.122</ele>
        <time>2016-06-04T14:37:42.000Z</time>
      </trkpt>
      <trkpt lat="47.49279" lon="6.66574">
        <ele>415.182</ele>
        <time>2016-06-04T14:37:43.000Z</time>
      </trkpt>
      <trkpt lat="47.49282" lon="6.66574">
        <ele>415.263</ele>
        <time>2016-06-04T14:37:44.000Z</time>
      </trkpt>
      <trkpt lat="47.49286" lon="6.66573">
        <ele>416.557</ele>
        <time>2016-06-04T14:37:45.000Z</time>
      </trkpt>
      <trkpt lat="47.49289" lon="6.66573">
        <ele>417.006</ele>
        <time>2016-06-04T14:37:46.000Z</time>
      </trkpt>
      <trkpt lat="47.49292" lon="6.66573">
        <ele>417.454</ele>
        <time>2016-06-04T14:37:47.000Z</time>
      </trkpt>
      <trkpt lat="47.49295" lon="6.66572">
        <ele>417.896</ele>
        <time>2016-06-04T14:37:48.000Z</time>
      </trkpt>
      <trkpt lat="47.49298" lon="6.6657">
        <ele>418.33</ele>
        <time>2016-06-04T14:37:49.000Z</time>
      </trkpt>
      <trkpt lat="47.49301" lon="6.66569">
        <ele>418.752</ele>
        <time>2016-06-04T14:37:50.000Z</time>
      </trkpt>
      <trkpt lat="47.49304" lon="6.66568">
        <ele>419.159</ele>
        <time>2016-06-04T14:37:51.000Z</time>
      </trkpt>
      <trkpt lat="47.49306" lon="6.66566">
        <ele>419.547</ele>
        <time>2016-06-04T14:37:52.000Z</time>
      </trkpt>
      <trkpt lat="47.49309" lon="6.66565">
        <ele>419.916</ele>
        <time>2016-06-04T14:37:53.000Z</time>
      </trkpt>
      <trkpt lat="47.49312" lon="6.66563">
        <ele>420.262</ele>
        <time>2016-06-04T14:37:54.000Z</time>
      </trkpt>
      <trkpt lat="47.49315" lon="6.66562">
        <ele>420.583</ele>
        <time>2016-06-04T14:37:55.000Z</time>
      </trkpt>
      <trkpt lat="47.49318" lon="6.66561">
        <ele>420.878</ele>
        <time>2016-06-04T14:37:56.000Z</time>
      </trkpt>
      <trkpt lat="47.4932" lon="6.66559">
        <ele>421.144</ele>
        <time>2016-06-04T14:37:57.000Z</time>
      </trkpt>
      <trkpt lat="47.49323" lon="6.66558">
        <ele>421.378</ele>
        <time>2016-06-04T14:37:58.000Z</time>
      </trkpt>
      <trkpt lat="47.49325" lon="6.66557">
        <ele>421.58</ele>
        <time>2016-06-04T14:37:59.000Z</time>
      </trkpt>
      <trkpt lat="47.49328" lon="6.66556">
        <ele>421.75</ele>
        <time>2016-06-04T14:38:00.000Z</time>
      </trkpt>
      <trkpt lat="47.4933" lon="6.66554">
        <ele>421.891</ele>
        <time>2016-06-04T14:38:01.000Z</time>
      </trkpt>
      <trkpt lat="47.49332" lon="6.66553">
        <ele>422.005</ele>
        <time>2016-06-04T14:38:02.000Z</time>
      </trkpt>
      <trkpt lat="47.49334" lon="6.66553">
        <ele>422.099</ele>
        <time>2016-06-04T14:38:03.000Z</time>
      </trkpt>
      <trkpt lat="47.49336" lon="6.66553">
        <ele>422.178</ele>
        <time>2016-06-04T14:38:04.000Z</time>
      </trkpt>
      <trkpt lat="47.49338" lon="6.66554">
        <ele>422.249</ele>
        <time>2016-06-04T14:38:05.000Z</time>
      </trkpt>
      <trkpt lat="47.49339" lon="6.66557">
        <ele>422.316</ele>
        <time>2016-06-04T14:38:06.000Z</time>
      </trkpt>
      <trkpt lat="47.49341" lon="6.6656">
        <ele>422.381</ele>
        <time>2016-06-04T14:38:07.000Z</time>
      </trkpt>
      <trkpt lat="47.49342" lon="6.66565">
        <ele>422.445</ele>
        <time>2016-06-04T14:38:08.000Z</time>
      </trkpt>
      <trkpt lat="47.49343" lon="6.6657">
        <ele>422.506</ele>
        <time>2016-06-04T14:38:09.000Z</time>
      </trkpt>
      <trkpt lat="47.49344" lon="6.66576">
        <ele>422.561</ele>
        <time>2016-06-04T14:38:10.000Z</time>
      </trkpt>
      <trkpt lat="47.49345" lon="6.66581">
        <ele>422.605</ele>
        <time>2016-06-04T14:38:11.000Z</time>
      </trkpt>
      <trkpt lat="47.49345" lon="6.66586">
        <ele>422.635</ele>
        <time>2016-06-04T14:38:12.000Z</time>
      </trkpt>
      <trkpt lat="47.49346" lon="6.6659">
        <ele>422.644</ele>
        <time>2016-06-04T14:38:13.000Z</time>
      </trkpt>
      <trkpt lat="47.49347" lon="6.66594">
        <ele>422.63</ele>
        <time>2016-06-04T14:38:14.000Z</time>
      </trkpt>
      <trkpt lat="47.49347" lon="6.66598">
        <ele>422.588</ele>
        <time>2016-06-04T14:38:15.000Z</time>
      </trkpt>
      <trkpt lat="47.49348" lon="6.66602">
        <ele>422.516</ele>
        <time>2016-06-04T14:38:16.000Z</time>
      </trkpt>
      <trkpt lat="47.49349" lon="6.66605">
        <ele>422.412</ele>
        <time>2016-06-04T14:38:17.000Z</time>
      </trkpt>
      <trkpt lat="47.4935" lon="6.66608">
        <ele>422.277</ele>
        <time>2016-06-04T14:38:18.000Z</time>
      </trkpt>
      <trkpt lat="47.4935" lon="6.66612">
        <ele>422.113</ele>
        <time>2016-06-04T14:38:19.000Z</time>
      </trkpt>
      <trkpt lat="47.4935" lon="6.66616">
        <ele>421.923</ele>
        <time>2016-06-04T14:38:20.000Z</time>
      </trkpt>
      <trkpt lat="47.49349" lon="6.66618">
        <ele>421.708</ele>
        <time>2016-06-04T14:38:21.000Z</time>
      </trkpt>
      <trkpt lat="47.49347" lon="6.66621">
        <ele>421.471</ele>
        <time>2016-06-04T14:38:22.000Z</time>
      </trkpt>
      <trkpt lat="47.49345" lon="6.66622">
        <ele>421.218</ele>
        <time>2016-06-04T14:38:23.000Z</time>
      </trkpt>
      <trkpt lat="47.49343" lon="6.66623">
        <ele>420.952</ele>
        <time>2016-06-04T14:38:24.000Z</time>
      </trkpt>
      <trkpt lat="47.49341" lon="6.66624">
        <ele>420.678</ele>
        <time>2016-06-04T14:38:25.000Z</time>
      </trkpt>
      <trkpt lat="47.4934" lon="6.66624">
        <ele>420.402</ele>
        <time>2016-06-04T14:38:26.000Z</time>
      </trkpt>
      <trkpt lat="47.49339" lon="6.66625">
        <ele>420.131</ele>
        <time>2016-06-04T14:38:27.000Z</time>
      </trkpt>
      <trkpt lat="47.49339" lon="6.66625">
        <ele>419.868</ele>
        <time>2016-06-04T14:38:28.000Z</time>
      </trkpt>
      <trkpt lat="47.49339" lon="6.66625">
        <ele>419.62</ele>
        <time>2016-06-04T14:38:29.000Z</time>
      </trkpt>
      <trkpt lat="47.49339" lon="6.66625">
        <ele>419.389</ele>
        <time>2016-06-04T14:38:30.000Z</time>
      </trkpt>
      <trkpt lat="47.49339" lon="6.66625">
        <ele>419.178</ele>
        <time>2016-06-04T14:38:31.000Z</time>
      </trkpt>
      <trkpt lat="47.49339" lon="6.66625">
        <ele>418.989</ele>
        <time>2016-06-04T14:38:32.000Z</time>
      </trkpt>
      <trkpt lat="47.49339" lon="6.66625">
        <ele>418.821</ele>
        <time>2016-06-04T14:38:33.000Z</time>
      </trkpt>
      <trkpt lat="47.49339" lon="6.66625">
        <ele>418.674</ele>
        <time>2016-06-04T14:38:34.000Z</time>
      </trkpt>
      <trkpt lat="47.49339" lon="6.66625">
        <ele>418.546</ele>
        <time>2016-06-04T14:38:35.000Z</time>
      </trkpt>
      <trkpt lat="47.49339" lon="6.66625">
        <ele>418.433</ele>
        <time>2016-06-04T14:38:36.000Z</time>
      </trkpt>
      <trkpt lat="47.49339" lon="6.66625">
        <ele>418.333</ele>
        <time>2016-06-04T14:38:37.000Z</time>
      </trkpt>
      <trkpt lat="47.49339" lon="6.66625">
        <ele>418.242</ele>
        <time>2016-06-04T14:38:38.000Z</time>
      </trkpt>
      <trkpt lat="47.49339" lon="6.66625">
        <ele>418.157</ele>
        <time>2016-06-04T14:38:39.000Z</time>
      </trkpt>
      <trkpt lat="47.49339" lon="6.66625">
        <ele>418.076</ele>
        <time>2016-06-04T14:38:40.000Z</time>
      </trkpt>
      <trkpt lat="47.49339" lon="6.66625">
        <ele>417.996</ele>
        <time>2016-06-04T14:38:41.000Z</time>
      </trkpt>
      <trkpt lat="47.49339" lon="6.66625">
        <ele>417.916</ele>
        <time>2016-06-04T14:38:42.000Z</time>
      </trkpt>
      <trkpt lat="47.49339" lon="6.66625">
        <ele>417.833</ele>
        <time>2016-06-04T14:38:43.000Z</time>
      </trkpt>
      <trkpt lat="47.49339" lon="6.66625">
        <ele>417.747</ele>
        <time>2016-06-04T14:38:44.000Z</time>
      </trkpt>
      <trkpt lat="47.49338" lon="6.66625">
        <ele>417.657</ele>
        <time>2016-06-04T14:38:45.000Z</time>
      </trkpt>
      <trkpt lat="47.49338" lon="6.66625">
        <ele>417.565</ele>
        <time>2016-06-04T14:38:46.000Z</time>
      </trkpt>
      <trkpt lat="47.49338" lon="6.66624">
        <ele>417.471</ele>
        <time>2016-06-04T14:38:47.000Z</time>
      </trkpt>
      <trkpt lat="47.49338" lon="6.66623">
        <ele>417.375</ele>
        <time>2016-06-04T14:38:48.000Z</time>
      </trkpt>
      <trkpt lat="47.49338" lon="6.66622">
        <ele>417.277</ele>
        <time>2016-06-04T14:38:49.000Z</time>
      </trkpt>
      <trkpt lat="47.49338" lon="6.66622">
        <ele>417.179</ele>
        <time>2016-06-04T14:38:50.000Z</time>
      </trkpt>
      <trkpt lat="47.49339" lon="6.66621">
        <ele>417.081</ele>
        <time>2016-06-04T14:38:51.000Z</time>
      </trkpt>
      <trkpt lat="47.49339" lon="6.66621">
        <ele>416.983</ele>
        <time>2016-06-04T14:38:52.000Z</time>
      </trkpt>
      <trkpt lat="47.49339" lon="6.66621">
        <ele>416.888</ele>
        <time>2016-06-04T14:38:53.000Z</time>
      </trkpt>
      <trkpt lat="47.49339" lon="6.66621">
        <ele>416.796</ele>
        <time>2016-06-04T14:38:54.000Z</time>
      </trkpt>
      <trkpt lat="47.49339" lon="6.66621">
        <ele>416.708</ele>
        <time>2016-06-04T14:38:55.000Z</time>
      </trkpt>
      <trkpt lat="47.49339" lon="6.66621">
        <ele>416.625</ele>
        <time>2016-06-04T14:38:56.000Z</time>
      </trkpt>
      <trkpt lat="47.49339" lon="6.6662">
        <ele>416.549</ele>
        <time>2016-06-04T14:38:57.000Z</time>
      </trkpt>
      <trkpt lat="47.49339" lon="6.6662">
        <ele>416.479</ele>
        <time>2016-06-04T14:38:58.000Z</time>
      </trkpt>
      <trkpt lat="47.49339" lon="6.6662">
        <ele>416.416</ele>
        <time>2016-06-04T14:38:59.000Z</time>
      </trkpt>
      <trkpt lat="47.4934" lon="6.6662">
        <ele>416.357</ele>
        <time>2016-06-04T14:39:00.000Z</time>
      </trkpt>
      <trkpt lat="47.4934" lon="6.6662">
        <ele>416.304</ele>
        <time>2016-06-04T14:39:01.000Z</time>
      </trkpt>
      <trkpt lat="47.4934" lon="6.6662">
        <ele>416.255</ele>
        <time>2016-06-04T14:39:02.000Z</time>
      </trkpt>
      <trkpt lat="47.4934" lon="6.6662">
        <ele>416.211</ele>
        <time>2016-06-04T14:39:03.000Z</time>
      </trkpt>
      <trkpt lat="47.49339" lon="6.6662">
        <ele>416.171</ele>
        <time>2016-06-04T14:39:04.000Z</time>
      </trkpt>
      <trkpt lat="47.49339" lon="6.6662">
        <ele>416.135</ele>
        <time>2016-06-04T14:39:05.000Z</time>
      </trkpt>
      <trkpt lat="47.49339" lon="6.66621">
        <ele>416.104</ele>
        <time>2016-06-04T14:39:06.000Z</time>
      </trkpt>
      <trkpt lat="47.49339" lon="6.66621">
        <ele>416.076</ele>
        <time>2016-06-04T14:39:07.000Z</time>
      </trkpt>
      <trkpt lat="47.49339" lon="6.66621">
        <ele>416.051</ele>
        <time>2016-06-04T14:39:08.000Z</time>
      </trkpt>
      <trkpt lat="47.49339" lon="6.66621">
        <ele>416.03</ele>
        <time>2016-06-04T14:39:09.000Z</time>
      </trkpt>
      <trkpt lat="47.49339" lon="6.66621">
        <ele>416.012</ele>
        <time>2016-06-04T14:39:10.000Z</time>
      </trkpt>
      <trkpt lat="47.49339" lon="6.66621">
        <ele>415.997</ele>
        <time>2016-06-04T14:39:11.000Z</time>
      </trkpt>
      <trkpt lat="47.49339" lon="6.66621">
        <ele>415.984</ele>
        <time>2016-06-04T14:39:12.000Z</time>
      </trkpt>
      <trkpt lat="47.49339" lon="6.66621">
        <ele>415.974</ele>
        <time>2016-06-04T14:39:13.000Z</time>
      </trkpt>
      <trkpt lat="47.49339" lon="6.66621">
        <ele>415.965</ele>
        <time>2016-06-04T14:39:14.000Z</time>
      </trkpt>
      <trkpt lat="47.49339" lon="6.66621">
        <ele>415.958</ele>
        <time>2016-06-04T14:39:15.000Z</time>
      </trkpt>
      <trkpt lat="47.49339" lon="6.66621">
        <ele>415.953</ele>
        <time>2016-06-04T14:39:16.000Z</time>
      </trkpt>
      <trkpt lat="47.49339" lon="6.66621">
        <ele>415.948</ele>
        <time>2016-06-04T14:39:17.000Z</time>
      </trkpt>
      <trkpt lat="47.49339" lon="6.66621">
        <ele>415.945</ele>
        <time>2016-06-04T14:39:18.000Z</time>
      </trkpt>
      <trkpt lat="47.49339" lon="6.66621">
        <ele>415.943</ele>
        <time>2016-06-04T14:39:19.000Z</time>
      </trkpt>
      <trkpt lat="47.49339" lon="6.66621">
        <ele>415.941</ele>
        <time>2016-06-04T14:39:20.000Z</time>
      </trkpt>
      <trkpt lat="47.49339" lon="6.66621">
        <ele>415.94</ele>
        <time>2016-06-04T14:39:21.000Z</time>
      </trkpt>
      <trkpt lat="47.49339" lon="6.66621">
        <ele>415.939</ele>
        <time>2016-06-04T14:39:22.000Z</time>
      </trkpt>
      <trkpt lat="47.49339" lon="6.66621">
        <ele>415.939</ele>
        <time>2016-06-04T14:39:23.000Z</time>
      </trkpt>
      <trkpt lat="47.49339" lon="6.66621">
        <ele>415.939</ele>
        <time>2016-06-04T14:39:24.000Z</time>
      </trkpt>
      <trkpt lat="47.49339" lon="6.66621">
        <ele>415.939</ele>
        <time>2016-06-04T14:39:25.000Z</time>
      </trkpt>
      <trkpt lat="47.49339" lon="6.66621">
        <ele>415.94</ele>
        <time>2016-06-04T14:39:26.000Z</time>
      </trkpt>
      <trkpt lat="47.49339" lon="6.66621">
        <ele>415.941</ele>
        <time>2016-06-04T14:39:27.000Z</time>
      </trkpt>
      <trkpt lat="47.49339" lon="6.66621">
        <ele>415.941</ele>
        <time>2016-06-04T14:39:28.000Z</time>
      </trkpt>
      <trkpt lat="47.49339" lon="6.66621">
        <ele>415.942</ele>
        <time>2016-06-04T14:39:29.000Z</time>
      </trkpt>
      <trkpt lat="47.49339" lon="6.66621">
        <ele>415.943</ele>
        <time>2016-06-04T14:39:30.000Z</time>
      </trkpt>
      <trkpt lat="47.49339" lon="6.66621">
        <ele>415.945</ele>
        <time>2016-06-04T14:39:31.000Z</time>
      </trkpt>
      <trkpt lat="47.49339" lon="6.66621">
        <ele>415.946</ele>
        <time>2016-06-04T14:39:32.000Z</time>
      </trkpt>
      <trkpt lat="47.49339" lon="6.66621">
        <ele>415.947</ele>
        <time>2016-06-04T14:39:33.000Z</time>
      </trkpt>
      <trkpt lat="47.49339" lon="6.66621">
        <ele>415.948</ele>
        <time>2016-06-04T14:39:34.000Z</time>
      </trkpt>
      <trkpt lat="47.49339" lon="6.66621">
        <ele>415.95</ele>
        <time>2016-06-04T14:39:35.000Z</time>
      </trkpt>
      <trkpt lat="47.49339" lon="6.66621">
        <ele>415.951</ele>
        <time>2016-06-04T14:39:36.000Z</time>
      </trkpt>
      <trkpt lat="47.49339" lon="6.66621">
        <ele>415.953</ele>
        <time>2016-06-04T14:39:37.000Z</time>
      </trkpt>
      <trkpt lat="47.49339" lon="6.66621">
        <ele>415.954</ele>
        <time>2016-06-04T14:39:38.000Z</time>
      </trkpt>
      <trkpt lat="47.49339" lon="6.66621">
        <ele>415.956</ele>
        <time>2016-06-04T14:39:39.000Z</time>
      </trkpt>
      <trkpt lat="47.49339" lon="6.66621">
        <ele>415.957</ele>
        <time>2016-06-04T14:39:40.000Z</time>
      </trkpt>
      <trkpt lat="47.49339" lon="6.66621">
        <ele>415.959</ele>
        <time>2016-06-04T14:39:41.000Z</time>
      </trkpt>
      <trkpt lat="47.49339" lon="6.66621">
        <ele>415.96</ele>
        <time>2016-06-04T14:39:42.000Z</time>
      </trkpt>
      <trkpt lat="47.49339" lon="6.66621">
        <ele>415.962</ele>
        <time>2016-06-04T14:39:43.000Z</time>
      </trkpt>
      <trkpt lat="47.49339" lon="6.66621">
        <ele>415.964</ele>
        <time>2016-06-04T14:39:44.000Z</time>
      </trkpt>
      <trkpt lat="47.49339" lon="6.66621">
        <ele>415.965</ele>
        <time>2016-06-04T14:39:45.000Z</time>
      </trkpt>
      <trkpt lat="47.49339" lon="6.66621">
        <ele>415.967</ele>
        <time>2016-06-04T14:39:46.000Z</time>
      </trkpt>
      <trkpt lat="47.49339" lon="6.66621">
        <ele>415.969</ele>
        <time>2016-06-04T14:39:47.000Z</time>
      </trkpt>
      <trkpt lat="47.49339" lon="6.66621">
        <ele>411.753</ele>
        <time>2016-06-04T14:39:49.380Z</time>
      </trkpt>
      <trkpt lat="47.49339" lon="6.66621">
        <ele>411.834</ele>
        <time>2016-06-04T14:39:50.328Z</time>
      </trkpt>
      <trkpt lat="47.49339" lon="6.66621">
        <ele>411.876</ele>
        <time>2016-06-04T14:39:51.299Z</time>
      </trkpt>
      <trkpt lat="47.49339" lon="6.66621">
        <ele>411.877</ele>
        <time>2016-06-04T14:39:52.281Z</time>
      </trkpt>
      <trkpt lat="47.49339" lon="6.66621">
        <ele>411.877</ele>
        <time>2016-06-04T14:39:53.251Z</time>
      </trkpt>
      <trkpt lat="47.49339" lon="6.66621">
        <ele>411.808</ele>
        <time>2016-06-04T14:39:53.296Z</time>
      </trkpt>
      <trkpt lat="47.49339" lon="6.66621">
        <ele>411.804</ele>
        <time>2016-06-04T14:39:54.266Z</time>
      </trkpt>
      <trkpt lat="47.49339" lon="6.66621">
        <ele>411.823</ele>
        <time>2016-06-04T14:39:55.290Z</time>
      </trkpt>
      <trkpt lat="47.49339" lon="6.66621">
        <ele>411.66</ele>
        <time>2016-06-04T14:39:56.399Z</time>
      </trkpt>
      <trkpt lat="47.49339" lon="6.66621">
        <ele>411.372</ele>
        <time>2016-06-04T14:39:57.343Z</time>
      </trkpt>
      <trkpt lat="47.49339" lon="6.66621">
        <ele>411.363</ele>
        <time>2016-06-04T14:39:58.298Z</time>
      </trkpt>
      <trkpt lat="47.49339" lon="6.66621">
        <ele>411.585</ele>
        <time>2016-06-04T14:39:59.275Z</time>
      </trkpt>
      <trkpt lat="47.49339" lon="6.66621">
        <ele>411.751</ele>
        <time>2016-06-04T14:40:00.338Z</time>
      </trkpt>
      <trkpt lat="47.49339" lon="6.66621">
        <ele>411.742</ele>
        <time>2016-06-04T14:40:01.412Z</time>
      </trkpt>
      <trkpt lat="47.49339" lon="6.66621">
        <ele>411.698</ele>
        <time>2016-06-04T14:40:02.416Z</time>
      </trkpt>
      <trkpt lat="47.49339" lon="6.66621">
        <ele>411.956</ele>
        <time>2016-06-04T14:40:03.364Z</time>
      </trkpt>
      <trkpt lat="47.49339" lon="6.66621">
        <ele>412.296</ele>
        <time>2016-06-04T14:40:04.243Z</time>
      </trkpt>
      <trkpt lat="47.49339" lon="6.66621">
        <ele>412.65</ele>
        <time>2016-06-04T14:40:05.200Z</time>
      </trkpt>
      <trkpt lat="47.49339" lon="6.66621">
        <ele>412.603</ele>
        <time>2016-06-04T14:40:06.206Z</time>
      </trkpt>
      <trkpt lat="47.49339" lon="6.66621">
        <ele>412.529</ele>
        <time>2016-06-04T14:40:07.313Z</time>
      </trkpt>
      <trkpt lat="47.49339" lon="6.66621">
        <ele>412.529</ele>
        <time>2016-06-04T14:40:08.416Z</time>
      </trkpt>
      <trkpt lat="47.49339" lon="6.66621">
        <ele>411.987</ele>
        <time>2016-06-04T14:40:09.442Z</time>
      </trkpt>
      <trkpt lat="47.49339" lon="6.66621">
        <ele>411.925</ele>
        <time>2016-06-04T14:40:10.445Z</time>
      </trkpt>
      <trkpt lat="47.49339" lon="6.66621">
        <ele>412.103</ele>
        <time>2016-06-04T14:40:11.425Z</time>
      </trkpt>
      <trkpt lat="47.49339" lon="6.66621">
        <ele>412.267</ele>
        <time>2016-06-04T14:40:12.404Z</time>
      </trkpt>
      <trkpt lat="47.49339" lon="6.66622">
        <ele>412.917</ele>
        <time>2016-06-04T14:40:13.360Z</time>
      </trkpt>
      <trkpt lat="47.4934" lon="6.66622">
        <ele>412.684</ele>
        <time>2016-06-04T14:40:14.379Z</time>
      </trkpt>
      <trkpt lat="47.4934" lon="6.66622">
        <ele>411.687</ele>
        <time>2016-06-04T14:40:15.370Z</time>
      </trkpt>
      <trkpt lat="47.49341" lon="6.66622">
        <ele>411.765</ele>
        <time>2016-06-04T14:40:16.340Z</time>
      </trkpt>
    </trkseg>
  </trk>
</gpx>